﻿<?xml version="1.0" encoding="utf-8"?><gpx creator="Garmin Desktop App" version="1.1" xsi:schemaLocation="http://www.topografix.com/GPX/1/1 http://www.topografix.com/GPX/1/1/gpx.xsd http://www.garmin.com/xmlschemas/WaypointExtension/v1 http://www8.garmin.com/xmlschemas/WaypointExtensionv1.xsd http://www.garmin.com/xmlschemas/TrackPointExtension/v1 http://www.garmin.com/xmlschemas/TrackPointExtensionv1.xsd http://www.garmin.com/xmlschemas/GpxExtensions/v3 http://www8.garmin.com/xmlschemas/GpxExtensionsv3.xsd http://www.garmin.com/xmlschemas/ActivityExtension/v1 http://www8.garmin.com/xmlschemas/ActivityExtensionv1.xsd http://www.garmin.com/xmlschemas/AdventuresExtensions/v1 http://www8.garmin.com/xmlschemas/AdventuresExtensionv1.xsd http://www.garmin.com/xmlschemas/PressureExtension/v1 http://www.garmin.com/xmlschemas/PressureExtensionv1.xsd http://www.garmin.com/xmlschemas/TripExtensions/v1 http://www.garmin.com/xmlschemas/TripExtensionsv1.xsd http://www.garmin.com/xmlschemas/TripMetaDataExtensions/v1 http://www.garmin.com/xmlschemas/TripMetaDataExtensionsv1.xsd http://www.garmin.com/xmlschemas/ViaPointTransportationModeExtensions/v1 http://www.garmin.com/xmlschemas/ViaPointTransportationModeExtensionsv1.xsd http://www.garmin.com/xmlschemas/CreationTimeExtension/v1 http://www.garmin.com/xmlschemas/CreationTimeExtensionsv1.xsd http://www.garmin.com/xmlschemas/AccelerationExtension/v1 http://www.garmin.com/xmlschemas/AccelerationExtensionv1.xsd http://www.garmin.com/xmlschemas/PowerExtension/v1 http://www.garmin.com/xmlschemas/PowerExtensionv1.xsd http://www.garmin.com/xmlschemas/VideoExtension/v1 http://www.garmin.com/xmlschemas/VideoExtensionv1.xsd" xmlns="http://www.topografix.com/GPX/1/1" xmlns:xsi="http://www.w3.org/2001/XMLSchema-instance" xmlns:wptx1="http://www.garmin.com/xmlschemas/WaypointExtension/v1" xmlns:gpxtrx="http://www.garmin.com/xmlschemas/GpxExtensions/v3" xmlns:gpxtpx="http://www.garmin.com/xmlschemas/TrackPointExtension/v1" xmlns:gpxx="http://www.garmin.com/xmlschemas/GpxExtensions/v3" xmlns:trp="http://www.garmin.com/xmlschemas/TripExtensions/v1" xmlns:adv="http://www.garmin.com/xmlschemas/AdventuresExtensions/v1" xmlns:prs="http://www.garmin.com/xmlschemas/PressureExtension/v1" xmlns:tmd="http://www.garmin.com/xmlschemas/TripMetaDataExtensions/v1" xmlns:vptm="http://www.garmin.com/xmlschemas/ViaPointTransportationModeExtensions/v1" xmlns:ctx="http://www.garmin.com/xmlschemas/CreationTimeExtension/v1" xmlns:gpxacc="http://www.garmin.com/xmlschemas/AccelerationExtension/v1" xmlns:gpxpx="http://www.garmin.com/xmlschemas/PowerExtension/v1" xmlns:vidx1="http://www.garmin.com/xmlschemas/VideoExtension/v1">

  <metadata>
    <link href="http://www.garmin.com">
      <text>Garmin International</text>
    </link>
    <time>2026-09-01T16:57:46Z</time>
    <bounds maxlat="50.650538317859173" maxlon="13.616727339103818" minlat="50.589146493002772" minlon="13.364656018093228" />
  </metadata>

  <trk>
    <name>2026_08_29_Dojezd_Honzík</name>
    <extensions>
      <gpxx:TrackExtension>
        <gpxx:DisplayColor>DarkGray</gpxx:DisplayColor>
      </gpxx:TrackExtension>
    </extensions>
    <trkseg>
      <trkpt lat="50.649854773655534" lon="13.365084752440453">
        <ele>509</ele>
        <time>2026-08-29T15:18:15Z</time>
      </trkpt>
      <trkpt lat="50.649847900494933" lon="13.365087183192372">
        <ele>510</ele>
        <time>2026-08-29T15:18:16Z</time>
      </trkpt>
      <trkpt lat="50.649838764220476" lon="13.365090619772673">
        <ele>509</ele>
        <time>2026-08-29T15:18:17Z</time>
      </trkpt>
      <trkpt lat="50.649838764220476" lon="13.365090787410736">
        <ele>509</ele>
        <time>2026-08-29T15:18:18Z</time>
      </trkpt>
      <trkpt lat="50.64983893185854" lon="13.365095313638449">
        <ele>509</ele>
        <time>2026-08-29T15:18:19Z</time>
      </trkpt>
      <trkpt lat="50.649840608239174" lon="13.365097744390368">
        <ele>509</ele>
        <time>2026-08-29T15:18:20Z</time>
      </trkpt>
      <trkpt lat="50.649842033162713" lon="13.365103527903557">
        <ele>509</ele>
        <time>2026-08-29T15:18:21Z</time>
      </trkpt>
      <trkpt lat="50.649834908545017" lon="13.365105791017413">
        <ele>509</ele>
        <time>2026-08-29T15:18:22Z</time>
      </trkpt>
      <trkpt lat="50.649836584925652" lon="13.365113334730268">
        <ele>509</ele>
        <time>2026-08-29T15:18:23Z</time>
      </trkpt>
      <trkpt lat="50.649839350953698" lon="13.365124063566327">
        <ele>509</ele>
        <time>2026-08-29T15:18:24Z</time>
      </trkpt>
      <trkpt lat="50.64984873868525" lon="13.36513496004045">
        <ele>509</ele>
        <time>2026-08-29T15:18:25Z</time>
      </trkpt>
      <trkpt lat="50.649857288226485" lon="13.365154657512903">
        <ele>509</ele>
        <time>2026-08-29T15:18:26Z</time>
      </trkpt>
      <trkpt lat="50.649861479178071" lon="13.365180473774672">
        <ele>508</ele>
        <time>2026-08-29T15:18:27Z</time>
      </trkpt>
      <trkpt lat="50.649867262691259" lon="13.365205703303218">
        <ele>509</ele>
        <time>2026-08-29T15:18:28Z</time>
      </trkpt>
      <trkpt lat="50.649874471127987" lon="13.365238308906555">
        <ele>509</ele>
        <time>2026-08-29T15:18:29Z</time>
      </trkpt>
      <trkpt lat="50.649881344288588" lon="13.365272507071495">
        <ele>509</ele>
        <time>2026-08-29T15:18:30Z</time>
      </trkpt>
      <trkpt lat="50.64988779835403" lon="13.365308297798038">
        <ele>509</ele>
        <time>2026-08-29T15:18:31Z</time>
      </trkpt>
      <trkpt lat="50.649885619059205" lon="13.365333611145616">
        <ele>509</ele>
        <time>2026-08-29T15:18:32Z</time>
      </trkpt>
      <trkpt lat="50.649881009012461" lon="13.365356745198369">
        <ele>508</ele>
        <time>2026-08-29T15:18:33Z</time>
      </trkpt>
      <trkpt lat="50.649888133630157" lon="13.365387003868818">
        <ele>508</ele>
        <time>2026-08-29T15:18:34Z</time>
      </trkpt>
      <trkpt lat="50.649888217449188" lon="13.365432433784008">
        <ele>508</ele>
        <time>2026-08-29T15:18:35Z</time>
      </trkpt>
      <trkpt lat="50.64986483193934" lon="13.365459758788347">
        <ele>507</ele>
        <time>2026-08-29T15:18:36Z</time>
      </trkpt>
      <trkpt lat="50.649849828332663" lon="13.365509295836091">
        <ele>507</ele>
        <time>2026-08-29T15:18:37Z</time>
      </trkpt>
      <trkpt lat="50.649861982092261" lon="13.365548606961966">
        <ele>507</ele>
        <time>2026-08-29T15:18:38Z</time>
      </trkpt>
      <trkpt lat="50.64986826851964" lon="13.365611722692847">
        <ele>508</ele>
        <time>2026-08-29T15:18:39Z</time>
      </trkpt>
      <trkpt lat="50.649879584088922" lon="13.365665450692177">
        <ele>509</ele>
        <time>2026-08-29T15:18:40Z</time>
      </trkpt>
      <trkpt lat="50.649889390915632" lon="13.365716161206365">
        <ele>508</ele>
        <time>2026-08-29T15:18:41Z</time>
      </trkpt>
      <trkpt lat="50.649905819445848" lon="13.365762513130903">
        <ele>508</ele>
        <time>2026-08-29T15:18:42Z</time>
      </trkpt>
      <trkpt lat="50.649920990690589" lon="13.365827221423388">
        <ele>509</ele>
        <time>2026-08-29T15:18:43Z</time>
      </trkpt>
      <trkpt lat="50.649930629879236" lon="13.365881368517876">
        <ele>510</ele>
        <time>2026-08-29T15:18:44Z</time>
      </trkpt>
      <trkpt lat="50.649943621829152" lon="13.365932079032063">
        <ele>510</ele>
        <time>2026-08-29T15:18:45Z</time>
      </trkpt>
      <trkpt lat="50.649959798902273" lon="13.365978682413697">
        <ele>510</ele>
        <time>2026-08-29T15:18:46Z</time>
      </trkpt>
      <trkpt lat="50.64997673034668" lon="13.36601983755827">
        <ele>509</ele>
        <time>2026-08-29T15:18:47Z</time>
      </trkpt>
      <trkpt lat="50.649996595457196" lon="13.366058561950922">
        <ele>509</ele>
        <time>2026-08-29T15:18:48Z</time>
      </trkpt>
      <trkpt lat="50.650018472224474" lon="13.36609267629683">
        <ele>509</ele>
        <time>2026-08-29T15:18:49Z</time>
      </trkpt>
      <trkpt lat="50.650039091706276" lon="13.366132993251085">
        <ele>509</ele>
        <time>2026-08-29T15:18:50Z</time>
      </trkpt>
      <trkpt lat="50.650063985958695" lon="13.366161659359932">
        <ele>509</ele>
        <time>2026-08-29T15:18:51Z</time>
      </trkpt>
      <trkpt lat="50.650090053677559" lon="13.366188397631049">
        <ele>509</ele>
        <time>2026-08-29T15:18:52Z</time>
      </trkpt>
      <trkpt lat="50.650119809433818" lon="13.366211364045739">
        <ele>509</ele>
        <time>2026-08-29T15:18:53Z</time>
      </trkpt>
      <trkpt lat="50.650148559361696" lon="13.366225613281131">
        <ele>509</ele>
        <time>2026-08-29T15:18:54Z</time>
      </trkpt>
      <trkpt lat="50.650175968185067" lon="13.366243885830045">
        <ele>509</ele>
        <time>2026-08-29T15:18:55Z</time>
      </trkpt>
      <trkpt lat="50.65020295791328" lon="13.366247154772282">
        <ele>509</ele>
        <time>2026-08-29T15:18:56Z</time>
      </trkpt>
      <trkpt lat="50.650233468040824" lon="13.36623776704073">
        <ele>508</ele>
        <time>2026-08-29T15:18:57Z</time>
      </trkpt>
      <trkpt lat="50.650257859379053" lon="13.36622653529048">
        <ele>508</ele>
        <time>2026-08-29T15:18:58Z</time>
      </trkpt>
      <trkpt lat="50.650283508002758" lon="13.366205999627709">
        <ele>507</ele>
        <time>2026-08-29T15:18:59Z</time>
      </trkpt>
      <trkpt lat="50.650303121656179" lon="13.366165598854423">
        <ele>507</ele>
        <time>2026-08-29T15:19:00Z</time>
      </trkpt>
      <trkpt lat="50.650316281244159" lon="13.36611513979733">
        <ele>507</ele>
        <time>2026-08-29T15:19:01Z</time>
      </trkpt>
      <trkpt lat="50.650325920432806" lon="13.366060992702842">
        <ele>507</ele>
        <time>2026-08-29T15:19:02Z</time>
      </trkpt>
      <trkpt lat="50.650328602641821" lon="13.366009946912527">
        <ele>508</ele>
        <time>2026-08-29T15:19:03Z</time>
      </trkpt>
      <trkpt lat="50.650338158011436" lon="13.36595831438899">
        <ele>508</ele>
        <time>2026-08-29T15:19:04Z</time>
      </trkpt>
      <trkpt lat="50.650348719209433" lon="13.365897294133902">
        <ele>508</ele>
        <time>2026-08-29T15:19:05Z</time>
      </trkpt>
      <trkpt lat="50.650360705330968" lon="13.365838788449764">
        <ele>508</ele>
        <time>2026-08-29T15:19:06Z</time>
      </trkpt>
      <trkpt lat="50.650371601805091" lon="13.36577458307147">
        <ele>509</ele>
        <time>2026-08-29T15:19:07Z</time>
      </trkpt>
      <trkpt lat="50.650383839383721" lon="13.365715490654111">
        <ele>509</ele>
        <time>2026-08-29T15:19:08Z</time>
      </trkpt>
      <trkpt lat="50.650403117761016" lon="13.365658828988671">
        <ele>509</ele>
        <time>2026-08-29T15:19:09Z</time>
      </trkpt>
      <trkpt lat="50.650419211015105" lon="13.365597138181329">
        <ele>509</ele>
        <time>2026-08-29T15:19:10Z</time>
      </trkpt>
      <trkpt lat="50.650433879345655" lon="13.365528825670481">
        <ele>509</ele>
        <time>2026-08-29T15:19:11Z</time>
      </trkpt>
      <trkpt lat="50.650447709485888" lon="13.365458501502872">
        <ele>509</ele>
        <time>2026-08-29T15:19:12Z</time>
      </trkpt>
      <trkpt lat="50.650464640930295" lon="13.365370156243443">
        <ele>509</ele>
        <time>2026-08-29T15:19:13Z</time>
      </trkpt>
      <trkpt lat="50.650474196299911" lon="13.365287343040109">
        <ele>509</ele>
        <time>2026-08-29T15:19:14Z</time>
      </trkpt>
      <trkpt lat="50.650489619001746" lon="13.365206373855472">
        <ele>510</ele>
        <time>2026-08-29T15:19:15Z</time>
      </trkpt>
      <trkpt lat="50.650499509647489" lon="13.365119621157646">
        <ele>510</ele>
        <time>2026-08-29T15:19:16Z</time>
      </trkpt>
      <trkpt lat="50.650511495769024" lon="13.365048291161656">
        <ele>510</ele>
        <time>2026-08-29T15:19:17Z</time>
      </trkpt>
      <trkpt lat="50.650520799681544" lon="13.364964639768004">
        <ele>510</ele>
        <time>2026-08-29T15:19:18Z</time>
      </trkpt>
      <trkpt lat="50.65052691847086" lon="13.364886268973351">
        <ele>510</ele>
        <time>2026-08-29T15:19:19Z</time>
      </trkpt>
      <trkpt lat="50.650528678670526" lon="13.364820973947644">
        <ele>510</ele>
        <time>2026-08-29T15:19:20Z</time>
      </trkpt>
      <trkpt lat="50.650527840480208" lon="13.364770850166678">
        <ele>509</ele>
        <time>2026-08-29T15:19:21Z</time>
      </trkpt>
      <trkpt lat="50.650527169927955" lon="13.364738160744309">
        <ele>509</ele>
        <time>2026-08-29T15:19:22Z</time>
      </trkpt>
      <trkpt lat="50.65052499063313" lon="13.364716283977032">
        <ele>508</ele>
        <time>2026-08-29T15:19:23Z</time>
      </trkpt>
      <trkpt lat="50.650529935956001" lon="13.364693485200405">
        <ele>508</ele>
        <time>2026-08-29T15:19:24Z</time>
      </trkpt>
      <trkpt lat="50.650531528517604" lon="13.364673033356667">
        <ele>508</ele>
        <time>2026-08-29T15:19:25Z</time>
      </trkpt>
      <trkpt lat="50.650535803288221" lon="13.364671943709254">
        <ele>508</ele>
        <time>2026-08-29T15:19:26Z</time>
      </trkpt>
      <trkpt lat="50.650536390021443" lon="13.364679235965014">
        <ele>507</ele>
        <time>2026-08-29T15:19:27Z</time>
      </trkpt>
      <trkpt lat="50.650536473840475" lon="13.364679319784045">
        <ele>507</ele>
        <time>2026-08-29T15:19:28Z</time>
      </trkpt>
      <trkpt lat="50.650532031431794" lon="13.36468543857336">
        <ele>507</ele>
        <time>2026-08-29T15:19:29Z</time>
      </trkpt>
      <trkpt lat="50.65053035505116" lon="13.364683007821441">
        <ele>506</ele>
        <time>2026-08-29T15:19:30Z</time>
      </trkpt>
      <trkpt lat="50.650530019775033" lon="13.364682672545314">
        <ele>506</ele>
        <time>2026-08-29T15:19:31Z</time>
      </trkpt>
      <trkpt lat="50.650529600679874" lon="13.364681163802743">
        <ele>506</ele>
        <time>2026-08-29T15:19:32Z</time>
      </trkpt>
      <trkpt lat="50.650529600679874" lon="13.364681163802743">
        <ele>506</ele>
        <time>2026-08-29T15:19:33Z</time>
      </trkpt>
      <trkpt lat="50.650529013946652" lon="13.36468250490725">
        <ele>506</ele>
        <time>2026-08-29T15:19:34Z</time>
      </trkpt>
      <trkpt lat="50.650527589023113" lon="13.364682840183377">
        <ele>506</ele>
        <time>2026-08-29T15:19:35Z</time>
      </trkpt>
      <trkpt lat="50.650527337566018" lon="13.364682337269187">
        <ele>506</ele>
        <time>2026-08-29T15:19:36Z</time>
      </trkpt>
      <trkpt lat="50.650525158271194" lon="13.364686025306582">
        <ele>506</ele>
        <time>2026-08-29T15:19:37Z</time>
      </trkpt>
      <trkpt lat="50.650521805509925" lon="13.364688958972692">
        <ele>506</ele>
        <time>2026-08-29T15:19:38Z</time>
      </trkpt>
      <trkpt lat="50.650522308424115" lon="13.364693569019437">
        <ele>505</ele>
        <time>2026-08-29T15:19:39Z</time>
      </trkpt>
      <trkpt lat="50.650520967319608" lon="13.364694742485881">
        <ele>505</ele>
        <time>2026-08-29T15:19:40Z</time>
      </trkpt>
      <trkpt lat="50.650521218776703" lon="13.364694658666849">
        <ele>505</ele>
        <time>2026-08-29T15:19:41Z</time>
      </trkpt>
      <trkpt lat="50.650521889328957" lon="13.364694155752659">
        <ele>505</ele>
        <time>2026-08-29T15:19:42Z</time>
      </trkpt>
      <trkpt lat="50.650521889328957" lon="13.364694155752659">
        <ele>505</ele>
        <time>2026-08-29T15:19:43Z</time>
      </trkpt>
      <trkpt lat="50.650521889328957" lon="13.364694071933627">
        <ele>505</ele>
        <time>2026-08-29T15:19:44Z</time>
      </trkpt>
      <trkpt lat="50.650521889328957" lon="13.364694071933627">
        <ele>505</ele>
        <time>2026-08-29T15:19:45Z</time>
      </trkpt>
      <trkpt lat="50.650521889328957" lon="13.364694071933627">
        <ele>505</ele>
        <time>2026-08-29T15:19:46Z</time>
      </trkpt>
      <trkpt lat="50.650521889328957" lon="13.364694071933627">
        <ele>505</ele>
        <time>2026-08-29T15:19:47Z</time>
      </trkpt>
      <trkpt lat="50.650521889328957" lon="13.364694071933627">
        <ele>505</ele>
        <time>2026-08-29T15:19:48Z</time>
      </trkpt>
      <trkpt lat="50.650521889328957" lon="13.364694071933627">
        <ele>505</ele>
        <time>2026-08-29T15:19:49Z</time>
      </trkpt>
      <trkpt lat="50.650521889328957" lon="13.364694071933627">
        <ele>505</ele>
        <time>2026-08-29T15:19:50Z</time>
      </trkpt>
      <trkpt lat="50.650521889328957" lon="13.364694071933627">
        <ele>505</ele>
        <time>2026-08-29T15:19:51Z</time>
      </trkpt>
      <trkpt lat="50.650521889328957" lon="13.364694071933627">
        <ele>505</ele>
        <time>2026-08-29T15:19:52Z</time>
      </trkpt>
      <trkpt lat="50.650521889328957" lon="13.364694071933627">
        <ele>505</ele>
        <time>2026-08-29T15:19:53Z</time>
      </trkpt>
      <trkpt lat="50.650521889328957" lon="13.364694071933627">
        <ele>505</ele>
        <time>2026-08-29T15:19:54Z</time>
      </trkpt>
      <trkpt lat="50.650521889328957" lon="13.364694071933627">
        <ele>505</ele>
        <time>2026-08-29T15:19:55Z</time>
      </trkpt>
      <trkpt lat="50.650521889328957" lon="13.364694071933627">
        <ele>505</ele>
        <time>2026-08-29T15:19:56Z</time>
      </trkpt>
      <trkpt lat="50.650521889328957" lon="13.364694071933627">
        <ele>505</ele>
        <time>2026-08-29T15:19:57Z</time>
      </trkpt>
      <trkpt lat="50.650521889328957" lon="13.364694071933627">
        <ele>505</ele>
        <time>2026-08-29T15:19:58Z</time>
      </trkpt>
      <trkpt lat="50.650521889328957" lon="13.364694071933627">
        <ele>505</ele>
        <time>2026-08-29T15:19:59Z</time>
      </trkpt>
      <trkpt lat="50.650521889328957" lon="13.364694071933627">
        <ele>505</ele>
        <time>2026-08-29T15:20:00Z</time>
      </trkpt>
      <trkpt lat="50.650521889328957" lon="13.364694071933627">
        <ele>505</ele>
        <time>2026-08-29T15:20:01Z</time>
      </trkpt>
      <trkpt lat="50.650521889328957" lon="13.364694071933627">
        <ele>505</ele>
        <time>2026-08-29T15:20:02Z</time>
      </trkpt>
      <trkpt lat="50.650521889328957" lon="13.364694071933627">
        <ele>505</ele>
        <time>2026-08-29T15:20:03Z</time>
      </trkpt>
      <trkpt lat="50.650521889328957" lon="13.364694071933627">
        <ele>505</ele>
        <time>2026-08-29T15:20:04Z</time>
      </trkpt>
      <trkpt lat="50.650521889328957" lon="13.364694071933627">
        <ele>505</ele>
        <time>2026-08-29T15:20:05Z</time>
      </trkpt>
      <trkpt lat="50.650521889328957" lon="13.364694071933627">
        <ele>505</ele>
        <time>2026-08-29T15:20:06Z</time>
      </trkpt>
      <trkpt lat="50.650521889328957" lon="13.364694071933627">
        <ele>505</ele>
        <time>2026-08-29T15:20:07Z</time>
      </trkpt>
      <trkpt lat="50.650521889328957" lon="13.364694071933627">
        <ele>505</ele>
        <time>2026-08-29T15:20:08Z</time>
      </trkpt>
      <trkpt lat="50.650521889328957" lon="13.364694071933627">
        <ele>505</ele>
        <time>2026-08-29T15:20:09Z</time>
      </trkpt>
      <trkpt lat="50.650521889328957" lon="13.364694071933627">
        <ele>505</ele>
        <time>2026-08-29T15:20:10Z</time>
      </trkpt>
      <trkpt lat="50.650521889328957" lon="13.364694071933627">
        <ele>505</ele>
        <time>2026-08-29T15:20:11Z</time>
      </trkpt>
      <trkpt lat="50.650521889328957" lon="13.364694071933627">
        <ele>505</ele>
        <time>2026-08-29T15:20:12Z</time>
      </trkpt>
      <trkpt lat="50.650521889328957" lon="13.364694071933627">
        <ele>505</ele>
        <time>2026-08-29T15:20:13Z</time>
      </trkpt>
      <trkpt lat="50.650521889328957" lon="13.364694071933627">
        <ele>505</ele>
        <time>2026-08-29T15:20:14Z</time>
      </trkpt>
      <trkpt lat="50.650521889328957" lon="13.364694071933627">
        <ele>505</ele>
        <time>2026-08-29T15:20:15Z</time>
      </trkpt>
      <trkpt lat="50.650521889328957" lon="13.364694071933627">
        <ele>505</ele>
        <time>2026-08-29T15:20:16Z</time>
      </trkpt>
      <trkpt lat="50.650521889328957" lon="13.364694071933627">
        <ele>505</ele>
        <time>2026-08-29T15:20:17Z</time>
      </trkpt>
      <trkpt lat="50.650521889328957" lon="13.364694071933627">
        <ele>505</ele>
        <time>2026-08-29T15:20:18Z</time>
      </trkpt>
      <trkpt lat="50.650521889328957" lon="13.364694071933627">
        <ele>505</ele>
        <time>2026-08-29T15:20:19Z</time>
      </trkpt>
      <trkpt lat="50.650521889328957" lon="13.364694071933627">
        <ele>505</ele>
        <time>2026-08-29T15:20:20Z</time>
      </trkpt>
      <trkpt lat="50.650521889328957" lon="13.364694071933627">
        <ele>505</ele>
        <time>2026-08-29T15:20:21Z</time>
      </trkpt>
      <trkpt lat="50.650521889328957" lon="13.364694071933627">
        <ele>505</ele>
        <time>2026-08-29T15:20:22Z</time>
      </trkpt>
      <trkpt lat="50.650521889328957" lon="13.364694071933627">
        <ele>505</ele>
        <time>2026-08-29T15:20:23Z</time>
      </trkpt>
      <trkpt lat="50.650521889328957" lon="13.364694071933627">
        <ele>505</ele>
        <time>2026-08-29T15:20:24Z</time>
      </trkpt>
      <trkpt lat="50.650521889328957" lon="13.364694071933627">
        <ele>505</ele>
        <time>2026-08-29T15:20:25Z</time>
      </trkpt>
      <trkpt lat="50.650521889328957" lon="13.364694071933627">
        <ele>505</ele>
        <time>2026-08-29T15:20:26Z</time>
      </trkpt>
      <trkpt lat="50.650521889328957" lon="13.364694071933627">
        <ele>505</ele>
        <time>2026-08-29T15:20:27Z</time>
      </trkpt>
      <trkpt lat="50.650521889328957" lon="13.364694071933627">
        <ele>505</ele>
        <time>2026-08-29T15:20:28Z</time>
      </trkpt>
      <trkpt lat="50.650521889328957" lon="13.364694071933627">
        <ele>505</ele>
        <time>2026-08-29T15:20:29Z</time>
      </trkpt>
      <trkpt lat="50.650521889328957" lon="13.364694071933627">
        <ele>505</ele>
        <time>2026-08-29T15:20:30Z</time>
      </trkpt>
      <trkpt lat="50.650521889328957" lon="13.364694071933627">
        <ele>505</ele>
        <time>2026-08-29T15:20:31Z</time>
      </trkpt>
      <trkpt lat="50.650521889328957" lon="13.364694071933627">
        <ele>505</ele>
        <time>2026-08-29T15:20:32Z</time>
      </trkpt>
      <trkpt lat="50.650521889328957" lon="13.364694071933627">
        <ele>505</ele>
        <time>2026-08-29T15:20:33Z</time>
      </trkpt>
      <trkpt lat="50.650521889328957" lon="13.364694071933627">
        <ele>505</ele>
        <time>2026-08-29T15:20:34Z</time>
      </trkpt>
      <trkpt lat="50.650521889328957" lon="13.364694071933627">
        <ele>505</ele>
        <time>2026-08-29T15:20:35Z</time>
      </trkpt>
      <trkpt lat="50.650521889328957" lon="13.364694071933627">
        <ele>505</ele>
        <time>2026-08-29T15:20:36Z</time>
      </trkpt>
      <trkpt lat="50.650521889328957" lon="13.364694071933627">
        <ele>505</ele>
        <time>2026-08-29T15:20:37Z</time>
      </trkpt>
      <trkpt lat="50.650521889328957" lon="13.364694071933627">
        <ele>505</ele>
        <time>2026-08-29T15:20:38Z</time>
      </trkpt>
      <trkpt lat="50.650521889328957" lon="13.364694071933627">
        <ele>505</ele>
        <time>2026-08-29T15:20:39Z</time>
      </trkpt>
      <trkpt lat="50.650521889328957" lon="13.364694071933627">
        <ele>505</ele>
        <time>2026-08-29T15:20:40Z</time>
      </trkpt>
      <trkpt lat="50.650521889328957" lon="13.364694071933627">
        <ele>505</ele>
        <time>2026-08-29T15:20:41Z</time>
      </trkpt>
      <trkpt lat="50.650521889328957" lon="13.364694071933627">
        <ele>505</ele>
        <time>2026-08-29T15:20:42Z</time>
      </trkpt>
      <trkpt lat="50.650521889328957" lon="13.364694071933627">
        <ele>505</ele>
        <time>2026-08-29T15:20:43Z</time>
      </trkpt>
      <trkpt lat="50.650521889328957" lon="13.364694071933627">
        <ele>505</ele>
        <time>2026-08-29T15:20:44Z</time>
      </trkpt>
      <trkpt lat="50.650521889328957" lon="13.364694071933627">
        <ele>505</ele>
        <time>2026-08-29T15:20:45Z</time>
      </trkpt>
      <trkpt lat="50.650521889328957" lon="13.364694071933627">
        <ele>505</ele>
        <time>2026-08-29T15:20:46Z</time>
      </trkpt>
      <trkpt lat="50.650521889328957" lon="13.364694071933627">
        <ele>505</ele>
        <time>2026-08-29T15:20:47Z</time>
      </trkpt>
      <trkpt lat="50.650521889328957" lon="13.364694071933627">
        <ele>505</ele>
        <time>2026-08-29T15:20:48Z</time>
      </trkpt>
      <trkpt lat="50.650521889328957" lon="13.364694071933627">
        <ele>505</ele>
        <time>2026-08-29T15:20:49Z</time>
      </trkpt>
      <trkpt lat="50.650521889328957" lon="13.364694071933627">
        <ele>505</ele>
        <time>2026-08-29T15:20:50Z</time>
      </trkpt>
      <trkpt lat="50.650521889328957" lon="13.364694071933627">
        <ele>505</ele>
        <time>2026-08-29T15:20:51Z</time>
      </trkpt>
      <trkpt lat="50.650521889328957" lon="13.364694071933627">
        <ele>505</ele>
        <time>2026-08-29T15:20:52Z</time>
      </trkpt>
      <trkpt lat="50.650521889328957" lon="13.364694071933627">
        <ele>505</ele>
        <time>2026-08-29T15:20:53Z</time>
      </trkpt>
      <trkpt lat="50.650521889328957" lon="13.364694071933627">
        <ele>505</ele>
        <time>2026-08-29T15:20:54Z</time>
      </trkpt>
      <trkpt lat="50.650521889328957" lon="13.364694071933627">
        <ele>505</ele>
        <time>2026-08-29T15:20:55Z</time>
      </trkpt>
      <trkpt lat="50.650521889328957" lon="13.364694071933627">
        <ele>505</ele>
        <time>2026-08-29T15:20:56Z</time>
      </trkpt>
      <trkpt lat="50.650521889328957" lon="13.364694071933627">
        <ele>505</ele>
        <time>2026-08-29T15:20:57Z</time>
      </trkpt>
      <trkpt lat="50.650521889328957" lon="13.364694071933627">
        <ele>505</ele>
        <time>2026-08-29T15:20:58Z</time>
      </trkpt>
      <trkpt lat="50.650521889328957" lon="13.364694071933627">
        <ele>505</ele>
        <time>2026-08-29T15:20:59Z</time>
      </trkpt>
      <trkpt lat="50.650521889328957" lon="13.364694071933627">
        <ele>505</ele>
        <time>2026-08-29T15:21:00Z</time>
      </trkpt>
      <trkpt lat="50.650521889328957" lon="13.364694071933627">
        <ele>505</ele>
        <time>2026-08-29T15:21:01Z</time>
      </trkpt>
      <trkpt lat="50.650521889328957" lon="13.364694071933627">
        <ele>505</ele>
        <time>2026-08-29T15:21:02Z</time>
      </trkpt>
      <trkpt lat="50.650521889328957" lon="13.364694071933627">
        <ele>505</ele>
        <time>2026-08-29T15:21:03Z</time>
      </trkpt>
      <trkpt lat="50.650521889328957" lon="13.364694071933627">
        <ele>505</ele>
        <time>2026-08-29T15:21:04Z</time>
      </trkpt>
      <trkpt lat="50.650521889328957" lon="13.364694071933627">
        <ele>505</ele>
        <time>2026-08-29T15:21:05Z</time>
      </trkpt>
      <trkpt lat="50.650521889328957" lon="13.364694071933627">
        <ele>505</ele>
        <time>2026-08-29T15:21:06Z</time>
      </trkpt>
      <trkpt lat="50.650521889328957" lon="13.364694071933627">
        <ele>505</ele>
        <time>2026-08-29T15:21:07Z</time>
      </trkpt>
      <trkpt lat="50.650521889328957" lon="13.364694071933627">
        <ele>505</ele>
        <time>2026-08-29T15:21:08Z</time>
      </trkpt>
      <trkpt lat="50.650521889328957" lon="13.364694071933627">
        <ele>505</ele>
        <time>2026-08-29T15:21:09Z</time>
      </trkpt>
      <trkpt lat="50.650521889328957" lon="13.364694071933627">
        <ele>505</ele>
        <time>2026-08-29T15:21:10Z</time>
      </trkpt>
      <trkpt lat="50.650521889328957" lon="13.364694071933627">
        <ele>505</ele>
        <time>2026-08-29T15:21:11Z</time>
      </trkpt>
      <trkpt lat="50.650521889328957" lon="13.364694071933627">
        <ele>505</ele>
        <time>2026-08-29T15:21:12Z</time>
      </trkpt>
      <trkpt lat="50.650521889328957" lon="13.364694071933627">
        <ele>505</ele>
        <time>2026-08-29T15:21:13Z</time>
      </trkpt>
      <trkpt lat="50.650521889328957" lon="13.364694071933627">
        <ele>505</ele>
        <time>2026-08-29T15:21:14Z</time>
      </trkpt>
      <trkpt lat="50.650521889328957" lon="13.364694071933627">
        <ele>505</ele>
        <time>2026-08-29T15:21:15Z</time>
      </trkpt>
      <trkpt lat="50.650521889328957" lon="13.364694071933627">
        <ele>505</ele>
        <time>2026-08-29T15:21:16Z</time>
      </trkpt>
      <trkpt lat="50.650521889328957" lon="13.364694071933627">
        <ele>505</ele>
        <time>2026-08-29T15:21:17Z</time>
      </trkpt>
      <trkpt lat="50.650521889328957" lon="13.364694155752659">
        <ele>505</ele>
        <time>2026-08-29T15:21:18Z</time>
      </trkpt>
      <trkpt lat="50.650521889328957" lon="13.364694155752659">
        <ele>505</ele>
        <time>2026-08-29T15:21:19Z</time>
      </trkpt>
      <trkpt lat="50.650521889328957" lon="13.364694155752659">
        <ele>505</ele>
        <time>2026-08-29T15:21:20Z</time>
      </trkpt>
      <trkpt lat="50.650521889328957" lon="13.364694155752659">
        <ele>505</ele>
        <time>2026-08-29T15:21:21Z</time>
      </trkpt>
      <trkpt lat="50.650521889328957" lon="13.364694155752659">
        <ele>505</ele>
        <time>2026-08-29T15:21:22Z</time>
      </trkpt>
      <trkpt lat="50.650521889328957" lon="13.364694155752659">
        <ele>505</ele>
        <time>2026-08-29T15:21:23Z</time>
      </trkpt>
      <trkpt lat="50.650521889328957" lon="13.364694155752659">
        <ele>505</ele>
        <time>2026-08-29T15:21:24Z</time>
      </trkpt>
      <trkpt lat="50.650521889328957" lon="13.364694155752659">
        <ele>505</ele>
        <time>2026-08-29T15:21:25Z</time>
      </trkpt>
      <trkpt lat="50.650521889328957" lon="13.364694155752659">
        <ele>505</ele>
        <time>2026-08-29T15:21:26Z</time>
      </trkpt>
      <trkpt lat="50.650521889328957" lon="13.364694155752659">
        <ele>505</ele>
        <time>2026-08-29T15:21:27Z</time>
      </trkpt>
      <trkpt lat="50.650521889328957" lon="13.364694155752659">
        <ele>505</ele>
        <time>2026-08-29T15:21:28Z</time>
      </trkpt>
      <trkpt lat="50.650521889328957" lon="13.364694155752659">
        <ele>505</ele>
        <time>2026-08-29T15:21:29Z</time>
      </trkpt>
      <trkpt lat="50.650521889328957" lon="13.364694155752659">
        <ele>505</ele>
        <time>2026-08-29T15:21:30Z</time>
      </trkpt>
      <trkpt lat="50.650521889328957" lon="13.364694155752659">
        <ele>505</ele>
        <time>2026-08-29T15:21:31Z</time>
      </trkpt>
      <trkpt lat="50.650521889328957" lon="13.364694155752659">
        <ele>505</ele>
        <time>2026-08-29T15:21:32Z</time>
      </trkpt>
      <trkpt lat="50.650521889328957" lon="13.364694155752659">
        <ele>505</ele>
        <time>2026-08-29T15:21:33Z</time>
      </trkpt>
      <trkpt lat="50.650521889328957" lon="13.364694155752659">
        <ele>505</ele>
        <time>2026-08-29T15:21:34Z</time>
      </trkpt>
      <trkpt lat="50.650521889328957" lon="13.364694155752659">
        <ele>505</ele>
        <time>2026-08-29T15:21:35Z</time>
      </trkpt>
      <trkpt lat="50.650521889328957" lon="13.364694155752659">
        <ele>505</ele>
        <time>2026-08-29T15:21:36Z</time>
      </trkpt>
      <trkpt lat="50.650521889328957" lon="13.364694155752659">
        <ele>505</ele>
        <time>2026-08-29T15:21:37Z</time>
      </trkpt>
      <trkpt lat="50.650521889328957" lon="13.364694155752659">
        <ele>505</ele>
        <time>2026-08-29T15:21:38Z</time>
      </trkpt>
      <trkpt lat="50.650521889328957" lon="13.364694155752659">
        <ele>505</ele>
        <time>2026-08-29T15:21:39Z</time>
      </trkpt>
      <trkpt lat="50.650521889328957" lon="13.364694155752659">
        <ele>505</ele>
        <time>2026-08-29T15:21:40Z</time>
      </trkpt>
      <trkpt lat="50.650521889328957" lon="13.364694155752659">
        <ele>505</ele>
        <time>2026-08-29T15:21:41Z</time>
      </trkpt>
      <trkpt lat="50.650521889328957" lon="13.364694155752659">
        <ele>505</ele>
        <time>2026-08-29T15:21:42Z</time>
      </trkpt>
      <trkpt lat="50.650521889328957" lon="13.364694155752659">
        <ele>505</ele>
        <time>2026-08-29T15:21:43Z</time>
      </trkpt>
      <trkpt lat="50.650521889328957" lon="13.364694155752659">
        <ele>505</ele>
        <time>2026-08-29T15:21:44Z</time>
      </trkpt>
      <trkpt lat="50.650521889328957" lon="13.364694155752659">
        <ele>505</ele>
        <time>2026-08-29T15:21:45Z</time>
      </trkpt>
      <trkpt lat="50.650521889328957" lon="13.364694155752659">
        <ele>505</ele>
        <time>2026-08-29T15:21:46Z</time>
      </trkpt>
      <trkpt lat="50.650521889328957" lon="13.364694155752659">
        <ele>505</ele>
        <time>2026-08-29T15:21:47Z</time>
      </trkpt>
      <trkpt lat="50.650521889328957" lon="13.364694155752659">
        <ele>505</ele>
        <time>2026-08-29T15:21:48Z</time>
      </trkpt>
      <trkpt lat="50.650521889328957" lon="13.364694155752659">
        <ele>505</ele>
        <time>2026-08-29T15:21:49Z</time>
      </trkpt>
      <trkpt lat="50.650521889328957" lon="13.364694155752659">
        <ele>505</ele>
        <time>2026-08-29T15:21:50Z</time>
      </trkpt>
      <trkpt lat="50.650521889328957" lon="13.364694155752659">
        <ele>505</ele>
        <time>2026-08-29T15:21:51Z</time>
      </trkpt>
      <trkpt lat="50.650521889328957" lon="13.364694155752659">
        <ele>505</ele>
        <time>2026-08-29T15:21:52Z</time>
      </trkpt>
      <trkpt lat="50.650521889328957" lon="13.364694155752659">
        <ele>505</ele>
        <time>2026-08-29T15:21:53Z</time>
      </trkpt>
      <trkpt lat="50.650521302595735" lon="13.364692898467183">
        <ele>505</ele>
        <time>2026-08-29T15:21:54Z</time>
      </trkpt>
      <trkpt lat="50.650520967319608" lon="13.364692395552993">
        <ele>505</ele>
        <time>2026-08-29T15:21:55Z</time>
      </trkpt>
      <trkpt lat="50.650520548224449" lon="13.364692144095898">
        <ele>505</ele>
        <time>2026-08-29T15:21:56Z</time>
      </trkpt>
      <trkpt lat="50.650520464405417" lon="13.364692144095898">
        <ele>505</ele>
        <time>2026-08-29T15:21:57Z</time>
      </trkpt>
      <trkpt lat="50.650520380586386" lon="13.364692060276866">
        <ele>505</ele>
        <time>2026-08-29T15:21:58Z</time>
      </trkpt>
      <trkpt lat="50.650519710034132" lon="13.364691305905581">
        <ele>505</ele>
        <time>2026-08-29T15:21:59Z</time>
      </trkpt>
      <trkpt lat="50.650520129129291" lon="13.364687031134963">
        <ele>505</ele>
        <time>2026-08-29T15:22:00Z</time>
      </trkpt>
      <trkpt lat="50.650522224605083" lon="13.364680577069521">
        <ele>505</ele>
        <time>2026-08-29T15:22:01Z</time>
      </trkpt>
      <trkpt lat="50.650525158271194" lon="13.364673787727952">
        <ele>505</ele>
        <time>2026-08-29T15:22:02Z</time>
      </trkpt>
      <trkpt lat="50.650531109422445" lon="13.364671524614096">
        <ele>505</ele>
        <time>2026-08-29T15:22:03Z</time>
      </trkpt>
      <trkpt lat="50.650532115250826" lon="13.364671692252159">
        <ele>504</ele>
        <time>2026-08-29T15:22:04Z</time>
      </trkpt>
      <trkpt lat="50.650530438870192" lon="13.364678230136633">
        <ele>505</ele>
        <time>2026-08-29T15:22:05Z</time>
      </trkpt>
      <trkpt lat="50.650530187413096" lon="13.364680493250489">
        <ele>505</ele>
        <time>2026-08-29T15:22:06Z</time>
      </trkpt>
      <trkpt lat="50.650530606508255" lon="13.364675045013428">
        <ele>505</ele>
        <time>2026-08-29T15:22:07Z</time>
      </trkpt>
      <trkpt lat="50.650528091937304" lon="13.364678230136633">
        <ele>505</ele>
        <time>2026-08-29T15:22:08Z</time>
      </trkpt>
      <trkpt lat="50.650530103594065" lon="13.364675380289555">
        <ele>505</ele>
        <time>2026-08-29T15:22:09Z</time>
      </trkpt>
      <trkpt lat="50.650529181584716" lon="13.364663980901241">
        <ele>505</ele>
        <time>2026-08-29T15:22:10Z</time>
      </trkpt>
      <trkpt lat="50.650532618165016" lon="13.364663394168019">
        <ele>505</ele>
        <time>2026-08-29T15:22:11Z</time>
      </trkpt>
      <trkpt lat="50.650536390021443" lon="13.364664651453495">
        <ele>505</ele>
        <time>2026-08-29T15:22:12Z</time>
      </trkpt>
      <trkpt lat="50.650536390021443" lon="13.3646643999964">
        <ele>505</ele>
        <time>2026-08-29T15:22:13Z</time>
      </trkpt>
      <trkpt lat="50.650536641478539" lon="13.364664064720273">
        <ele>505</ele>
        <time>2026-08-29T15:22:14Z</time>
      </trkpt>
      <trkpt lat="50.650536641478539" lon="13.364663980901241">
        <ele>506</ele>
        <time>2026-08-29T15:22:15Z</time>
      </trkpt>
      <trkpt lat="50.650536641478539" lon="13.364663980901241">
        <ele>506</ele>
        <time>2026-08-29T15:22:16Z</time>
      </trkpt>
      <trkpt lat="50.650536641478539" lon="13.364663980901241">
        <ele>506</ele>
        <time>2026-08-29T15:22:17Z</time>
      </trkpt>
      <trkpt lat="50.650536641478539" lon="13.364663980901241">
        <ele>506</ele>
        <time>2026-08-29T15:22:18Z</time>
      </trkpt>
      <trkpt lat="50.650536641478539" lon="13.364663980901241">
        <ele>506</ele>
        <time>2026-08-29T15:22:19Z</time>
      </trkpt>
      <trkpt lat="50.650536641478539" lon="13.364663980901241">
        <ele>506</ele>
        <time>2026-08-29T15:22:20Z</time>
      </trkpt>
      <trkpt lat="50.650536641478539" lon="13.364663980901241">
        <ele>506</ele>
        <time>2026-08-29T15:22:21Z</time>
      </trkpt>
      <trkpt lat="50.650536641478539" lon="13.364663980901241">
        <ele>506</ele>
        <time>2026-08-29T15:22:22Z</time>
      </trkpt>
      <trkpt lat="50.650536641478539" lon="13.364663980901241">
        <ele>506</ele>
        <time>2026-08-29T15:22:23Z</time>
      </trkpt>
      <trkpt lat="50.650536641478539" lon="13.364663980901241">
        <ele>506</ele>
        <time>2026-08-29T15:22:24Z</time>
      </trkpt>
      <trkpt lat="50.650536641478539" lon="13.364663980901241">
        <ele>506</ele>
        <time>2026-08-29T15:22:25Z</time>
      </trkpt>
      <trkpt lat="50.650536641478539" lon="13.364663980901241">
        <ele>506</ele>
        <time>2026-08-29T15:22:26Z</time>
      </trkpt>
      <trkpt lat="50.650536641478539" lon="13.364663980901241">
        <ele>506</ele>
        <time>2026-08-29T15:22:27Z</time>
      </trkpt>
      <trkpt lat="50.650536641478539" lon="13.364663980901241">
        <ele>506</ele>
        <time>2026-08-29T15:22:28Z</time>
      </trkpt>
      <trkpt lat="50.650536641478539" lon="13.364663980901241">
        <ele>506</ele>
        <time>2026-08-29T15:22:29Z</time>
      </trkpt>
      <trkpt lat="50.650536641478539" lon="13.364663980901241">
        <ele>506</ele>
        <time>2026-08-29T15:22:30Z</time>
      </trkpt>
      <trkpt lat="50.650536641478539" lon="13.364663980901241">
        <ele>506</ele>
        <time>2026-08-29T15:22:31Z</time>
      </trkpt>
      <trkpt lat="50.650536641478539" lon="13.364663980901241">
        <ele>506</ele>
        <time>2026-08-29T15:22:32Z</time>
      </trkpt>
      <trkpt lat="50.650536641478539" lon="13.364663980901241">
        <ele>506</ele>
        <time>2026-08-29T15:22:33Z</time>
      </trkpt>
      <trkpt lat="50.650536641478539" lon="13.364663980901241">
        <ele>506</ele>
        <time>2026-08-29T15:22:34Z</time>
      </trkpt>
      <trkpt lat="50.650536641478539" lon="13.364663980901241">
        <ele>506</ele>
        <time>2026-08-29T15:22:35Z</time>
      </trkpt>
      <trkpt lat="50.650536641478539" lon="13.364663980901241">
        <ele>506</ele>
        <time>2026-08-29T15:22:36Z</time>
      </trkpt>
      <trkpt lat="50.650536641478539" lon="13.364663980901241">
        <ele>506</ele>
        <time>2026-08-29T15:22:37Z</time>
      </trkpt>
      <trkpt lat="50.650536641478539" lon="13.364663980901241">
        <ele>506</ele>
        <time>2026-08-29T15:22:38Z</time>
      </trkpt>
      <trkpt lat="50.650536641478539" lon="13.364663980901241">
        <ele>506</ele>
        <time>2026-08-29T15:22:39Z</time>
      </trkpt>
      <trkpt lat="50.650536641478539" lon="13.364663980901241">
        <ele>506</ele>
        <time>2026-08-29T15:22:40Z</time>
      </trkpt>
      <trkpt lat="50.650536641478539" lon="13.364663980901241">
        <ele>506</ele>
        <time>2026-08-29T15:22:41Z</time>
      </trkpt>
      <trkpt lat="50.650536641478539" lon="13.364663980901241">
        <ele>506</ele>
        <time>2026-08-29T15:22:42Z</time>
      </trkpt>
      <trkpt lat="50.650536641478539" lon="13.364663980901241">
        <ele>506</ele>
        <time>2026-08-29T15:22:43Z</time>
      </trkpt>
      <trkpt lat="50.650536641478539" lon="13.364663980901241">
        <ele>506</ele>
        <time>2026-08-29T15:22:44Z</time>
      </trkpt>
      <trkpt lat="50.650536641478539" lon="13.364663980901241">
        <ele>506</ele>
        <time>2026-08-29T15:22:45Z</time>
      </trkpt>
      <trkpt lat="50.650536641478539" lon="13.364663980901241">
        <ele>506</ele>
        <time>2026-08-29T15:22:46Z</time>
      </trkpt>
      <trkpt lat="50.650536641478539" lon="13.364663980901241">
        <ele>506</ele>
        <time>2026-08-29T15:22:47Z</time>
      </trkpt>
      <trkpt lat="50.650536641478539" lon="13.364663980901241">
        <ele>506</ele>
        <time>2026-08-29T15:22:48Z</time>
      </trkpt>
      <trkpt lat="50.650536641478539" lon="13.364663980901241">
        <ele>506</ele>
        <time>2026-08-29T15:22:49Z</time>
      </trkpt>
      <trkpt lat="50.650536641478539" lon="13.364663980901241">
        <ele>506</ele>
        <time>2026-08-29T15:22:50Z</time>
      </trkpt>
      <trkpt lat="50.650536641478539" lon="13.364663980901241">
        <ele>506</ele>
        <time>2026-08-29T15:22:51Z</time>
      </trkpt>
      <trkpt lat="50.650536641478539" lon="13.364663980901241">
        <ele>506</ele>
        <time>2026-08-29T15:22:52Z</time>
      </trkpt>
      <trkpt lat="50.650536641478539" lon="13.364663980901241">
        <ele>506</ele>
        <time>2026-08-29T15:22:53Z</time>
      </trkpt>
      <trkpt lat="50.650536641478539" lon="13.364663980901241">
        <ele>506</ele>
        <time>2026-08-29T15:22:54Z</time>
      </trkpt>
      <trkpt lat="50.650536641478539" lon="13.364663980901241">
        <ele>506</ele>
        <time>2026-08-29T15:22:55Z</time>
      </trkpt>
      <trkpt lat="50.650536641478539" lon="13.364663980901241">
        <ele>506</ele>
        <time>2026-08-29T15:22:56Z</time>
      </trkpt>
      <trkpt lat="50.650536641478539" lon="13.364663980901241">
        <ele>506</ele>
        <time>2026-08-29T15:22:57Z</time>
      </trkpt>
      <trkpt lat="50.650536641478539" lon="13.364663980901241">
        <ele>506</ele>
        <time>2026-08-29T15:22:58Z</time>
      </trkpt>
      <trkpt lat="50.650536641478539" lon="13.364663980901241">
        <ele>506</ele>
        <time>2026-08-29T15:22:59Z</time>
      </trkpt>
      <trkpt lat="50.650536641478539" lon="13.364663980901241">
        <ele>506</ele>
        <time>2026-08-29T15:23:00Z</time>
      </trkpt>
      <trkpt lat="50.650536809116602" lon="13.364664232358336">
        <ele>505</ele>
        <time>2026-08-29T15:23:01Z</time>
      </trkpt>
      <trkpt lat="50.65053672529757" lon="13.364664232358336">
        <ele>505</ele>
        <time>2026-08-29T15:23:02Z</time>
      </trkpt>
      <trkpt lat="50.65053672529757" lon="13.364664148539305">
        <ele>505</ele>
        <time>2026-08-29T15:23:03Z</time>
      </trkpt>
      <trkpt lat="50.65053672529757" lon="13.364664148539305">
        <ele>505</ele>
        <time>2026-08-29T15:23:04Z</time>
      </trkpt>
      <trkpt lat="50.65053672529757" lon="13.364664148539305">
        <ele>505</ele>
        <time>2026-08-29T15:23:05Z</time>
      </trkpt>
      <trkpt lat="50.65053672529757" lon="13.364664148539305">
        <ele>505</ele>
        <time>2026-08-29T15:23:06Z</time>
      </trkpt>
      <trkpt lat="50.65053672529757" lon="13.364664148539305">
        <ele>505</ele>
        <time>2026-08-29T15:23:07Z</time>
      </trkpt>
      <trkpt lat="50.65053672529757" lon="13.364664148539305">
        <ele>505</ele>
        <time>2026-08-29T15:23:08Z</time>
      </trkpt>
      <trkpt lat="50.65053672529757" lon="13.364664148539305">
        <ele>505</ele>
        <time>2026-08-29T15:23:09Z</time>
      </trkpt>
      <trkpt lat="50.65053672529757" lon="13.364664148539305">
        <ele>505</ele>
        <time>2026-08-29T15:23:10Z</time>
      </trkpt>
      <trkpt lat="50.65053672529757" lon="13.364664148539305">
        <ele>505</ele>
        <time>2026-08-29T15:23:11Z</time>
      </trkpt>
      <trkpt lat="50.65053672529757" lon="13.364664148539305">
        <ele>505</ele>
        <time>2026-08-29T15:23:12Z</time>
      </trkpt>
      <trkpt lat="50.65053672529757" lon="13.364664148539305">
        <ele>505</ele>
        <time>2026-08-29T15:23:13Z</time>
      </trkpt>
      <trkpt lat="50.65053672529757" lon="13.364664148539305">
        <ele>505</ele>
        <time>2026-08-29T15:23:14Z</time>
      </trkpt>
      <trkpt lat="50.65053672529757" lon="13.364664148539305">
        <ele>505</ele>
        <time>2026-08-29T15:23:15Z</time>
      </trkpt>
      <trkpt lat="50.65053672529757" lon="13.364664064720273">
        <ele>505</ele>
        <time>2026-08-29T15:23:16Z</time>
      </trkpt>
      <trkpt lat="50.65053672529757" lon="13.364664064720273">
        <ele>505</ele>
        <time>2026-08-29T15:23:17Z</time>
      </trkpt>
      <trkpt lat="50.65053672529757" lon="13.364664064720273">
        <ele>505</ele>
        <time>2026-08-29T15:23:18Z</time>
      </trkpt>
      <trkpt lat="50.65053672529757" lon="13.364664064720273">
        <ele>505</ele>
        <time>2026-08-29T15:23:19Z</time>
      </trkpt>
      <trkpt lat="50.65053672529757" lon="13.364664064720273">
        <ele>505</ele>
        <time>2026-08-29T15:23:20Z</time>
      </trkpt>
      <trkpt lat="50.65053672529757" lon="13.364664064720273">
        <ele>505</ele>
        <time>2026-08-29T15:23:21Z</time>
      </trkpt>
      <trkpt lat="50.650536641478539" lon="13.364662555977702">
        <ele>505</ele>
        <time>2026-08-29T15:23:22Z</time>
      </trkpt>
      <trkpt lat="50.650536390021443" lon="13.364662136882544">
        <ele>505</ele>
        <time>2026-08-29T15:23:23Z</time>
      </trkpt>
      <trkpt lat="50.650535970926285" lon="13.364661633968353">
        <ele>505</ele>
        <time>2026-08-29T15:23:24Z</time>
      </trkpt>
      <trkpt lat="50.650535887107253" lon="13.36466146633029">
        <ele>505</ele>
        <time>2026-08-29T15:23:25Z</time>
      </trkpt>
      <trkpt lat="50.650535887107253" lon="13.364661382511258">
        <ele>505</ele>
        <time>2026-08-29T15:23:26Z</time>
      </trkpt>
      <trkpt lat="50.650535803288221" lon="13.364661382511258">
        <ele>505</ele>
        <time>2026-08-29T15:23:27Z</time>
      </trkpt>
      <trkpt lat="50.650535803288221" lon="13.364661382511258">
        <ele>505</ele>
        <time>2026-08-29T15:23:28Z</time>
      </trkpt>
      <trkpt lat="50.65053571946919" lon="13.364661298692226">
        <ele>505</ele>
        <time>2026-08-29T15:23:29Z</time>
      </trkpt>
      <trkpt lat="50.65053571946919" lon="13.364661298692226">
        <ele>505</ele>
        <time>2026-08-29T15:23:30Z</time>
      </trkpt>
      <trkpt lat="50.65053571946919" lon="13.364661298692226">
        <ele>505</ele>
        <time>2026-08-29T15:23:31Z</time>
      </trkpt>
      <trkpt lat="50.65053571946919" lon="13.364661298692226">
        <ele>505</ele>
        <time>2026-08-29T15:23:32Z</time>
      </trkpt>
      <trkpt lat="50.65053571946919" lon="13.364661298692226">
        <ele>505</ele>
        <time>2026-08-29T15:23:33Z</time>
      </trkpt>
      <trkpt lat="50.65053571946919" lon="13.364661298692226">
        <ele>505</ele>
        <time>2026-08-29T15:23:34Z</time>
      </trkpt>
      <trkpt lat="50.65053571946919" lon="13.364661298692226">
        <ele>505</ele>
        <time>2026-08-29T15:23:35Z</time>
      </trkpt>
      <trkpt lat="50.65053571946919" lon="13.364661298692226">
        <ele>505</ele>
        <time>2026-08-29T15:23:36Z</time>
      </trkpt>
      <trkpt lat="50.65053571946919" lon="13.364661298692226">
        <ele>505</ele>
        <time>2026-08-29T15:23:37Z</time>
      </trkpt>
      <trkpt lat="50.65053571946919" lon="13.364661214873195">
        <ele>505</ele>
        <time>2026-08-29T15:23:38Z</time>
      </trkpt>
      <trkpt lat="50.65053571946919" lon="13.364661214873195">
        <ele>505</ele>
        <time>2026-08-29T15:23:39Z</time>
      </trkpt>
      <trkpt lat="50.65053571946919" lon="13.364661214873195">
        <ele>505</ele>
        <time>2026-08-29T15:23:40Z</time>
      </trkpt>
      <trkpt lat="50.65053571946919" lon="13.364661214873195">
        <ele>505</ele>
        <time>2026-08-29T15:23:41Z</time>
      </trkpt>
      <trkpt lat="50.65053571946919" lon="13.364661214873195">
        <ele>505</ele>
        <time>2026-08-29T15:23:42Z</time>
      </trkpt>
      <trkpt lat="50.65053571946919" lon="13.364661214873195">
        <ele>505</ele>
        <time>2026-08-29T15:23:43Z</time>
      </trkpt>
      <trkpt lat="50.65053571946919" lon="13.364661214873195">
        <ele>505</ele>
        <time>2026-08-29T15:23:44Z</time>
      </trkpt>
      <trkpt lat="50.65053571946919" lon="13.364661214873195">
        <ele>505</ele>
        <time>2026-08-29T15:23:45Z</time>
      </trkpt>
      <trkpt lat="50.65053571946919" lon="13.364661214873195">
        <ele>505</ele>
        <time>2026-08-29T15:23:46Z</time>
      </trkpt>
      <trkpt lat="50.65053571946919" lon="13.364661214873195">
        <ele>505</ele>
        <time>2026-08-29T15:23:47Z</time>
      </trkpt>
      <trkpt lat="50.65053571946919" lon="13.364661214873195">
        <ele>505</ele>
        <time>2026-08-29T15:23:48Z</time>
      </trkpt>
      <trkpt lat="50.65053571946919" lon="13.364661214873195">
        <ele>505</ele>
        <time>2026-08-29T15:23:49Z</time>
      </trkpt>
      <trkpt lat="50.65053571946919" lon="13.364661214873195">
        <ele>505</ele>
        <time>2026-08-29T15:23:50Z</time>
      </trkpt>
      <trkpt lat="50.65053571946919" lon="13.364661214873195">
        <ele>505</ele>
        <time>2026-08-29T15:23:51Z</time>
      </trkpt>
      <trkpt lat="50.65053571946919" lon="13.364661214873195">
        <ele>505</ele>
        <time>2026-08-29T15:23:52Z</time>
      </trkpt>
      <trkpt lat="50.65053571946919" lon="13.364661214873195">
        <ele>505</ele>
        <time>2026-08-29T15:23:53Z</time>
      </trkpt>
      <trkpt lat="50.65053571946919" lon="13.364661214873195">
        <ele>505</ele>
        <time>2026-08-29T15:23:54Z</time>
      </trkpt>
      <trkpt lat="50.65053571946919" lon="13.364661214873195">
        <ele>505</ele>
        <time>2026-08-29T15:23:55Z</time>
      </trkpt>
      <trkpt lat="50.65053571946919" lon="13.364661214873195">
        <ele>505</ele>
        <time>2026-08-29T15:23:56Z</time>
      </trkpt>
      <trkpt lat="50.65053571946919" lon="13.364661214873195">
        <ele>505</ele>
        <time>2026-08-29T15:23:57Z</time>
      </trkpt>
      <trkpt lat="50.65053571946919" lon="13.364661214873195">
        <ele>505</ele>
        <time>2026-08-29T15:23:58Z</time>
      </trkpt>
      <trkpt lat="50.65053571946919" lon="13.364661214873195">
        <ele>505</ele>
        <time>2026-08-29T15:23:59Z</time>
      </trkpt>
      <trkpt lat="50.65053571946919" lon="13.364661214873195">
        <ele>505</ele>
        <time>2026-08-29T15:24:00Z</time>
      </trkpt>
      <trkpt lat="50.65053571946919" lon="13.364661214873195">
        <ele>505</ele>
        <time>2026-08-29T15:24:01Z</time>
      </trkpt>
      <trkpt lat="50.65053571946919" lon="13.364661214873195">
        <ele>505</ele>
        <time>2026-08-29T15:24:02Z</time>
      </trkpt>
      <trkpt lat="50.65053571946919" lon="13.364661214873195">
        <ele>505</ele>
        <time>2026-08-29T15:24:03Z</time>
      </trkpt>
      <trkpt lat="50.65053571946919" lon="13.364661214873195">
        <ele>505</ele>
        <time>2026-08-29T15:24:04Z</time>
      </trkpt>
      <trkpt lat="50.65053571946919" lon="13.364661214873195">
        <ele>505</ele>
        <time>2026-08-29T15:24:05Z</time>
      </trkpt>
      <trkpt lat="50.650535300374031" lon="13.364661382511258">
        <ele>505</ele>
        <time>2026-08-29T15:24:06Z</time>
      </trkpt>
      <trkpt lat="50.650535132735968" lon="13.364659873768687">
        <ele>505</ele>
        <time>2026-08-29T15:24:07Z</time>
      </trkpt>
      <trkpt lat="50.650535132735968" lon="13.364659706130624">
        <ele>505</ele>
        <time>2026-08-29T15:24:08Z</time>
      </trkpt>
      <trkpt lat="50.650535970926285" lon="13.364658448845148">
        <ele>505</ele>
        <time>2026-08-29T15:24:09Z</time>
      </trkpt>
      <trkpt lat="50.650536557659507" lon="13.36465953849256">
        <ele>505</ele>
        <time>2026-08-29T15:24:10Z</time>
      </trkpt>
      <trkpt lat="50.650536557659507" lon="13.36465953849256">
        <ele>505</ele>
        <time>2026-08-29T15:24:11Z</time>
      </trkpt>
      <trkpt lat="50.650536390021443" lon="13.364656521007419">
        <ele>505</ele>
        <time>2026-08-29T15:24:12Z</time>
      </trkpt>
      <trkpt lat="50.650536306202412" lon="13.364656353369355">
        <ele>505</ele>
        <time>2026-08-29T15:24:13Z</time>
      </trkpt>
      <trkpt lat="50.65053622238338" lon="13.36465610191226">
        <ele>505</ele>
        <time>2026-08-29T15:24:14Z</time>
      </trkpt>
      <trkpt lat="50.65053622238338" lon="13.364656018093228">
        <ele>505</ele>
        <time>2026-08-29T15:24:15Z</time>
      </trkpt>
      <trkpt lat="50.65053622238338" lon="13.364656018093228">
        <ele>505</ele>
        <time>2026-08-29T15:24:16Z</time>
      </trkpt>
      <trkpt lat="50.650536306202412" lon="13.364656018093228">
        <ele>505</ele>
        <time>2026-08-29T15:24:17Z</time>
      </trkpt>
      <trkpt lat="50.650536306202412" lon="13.364656018093228">
        <ele>505</ele>
        <time>2026-08-29T15:24:18Z</time>
      </trkpt>
      <trkpt lat="50.650536306202412" lon="13.364656018093228">
        <ele>505</ele>
        <time>2026-08-29T15:24:19Z</time>
      </trkpt>
      <trkpt lat="50.650536306202412" lon="13.364656018093228">
        <ele>505</ele>
        <time>2026-08-29T15:24:20Z</time>
      </trkpt>
      <trkpt lat="50.650536306202412" lon="13.364656018093228">
        <ele>505</ele>
        <time>2026-08-29T15:24:21Z</time>
      </trkpt>
      <trkpt lat="50.650536306202412" lon="13.364656018093228">
        <ele>505</ele>
        <time>2026-08-29T15:24:22Z</time>
      </trkpt>
      <trkpt lat="50.650536306202412" lon="13.364656018093228">
        <ele>505</ele>
        <time>2026-08-29T15:24:23Z</time>
      </trkpt>
      <trkpt lat="50.650536306202412" lon="13.364656018093228">
        <ele>505</ele>
        <time>2026-08-29T15:24:24Z</time>
      </trkpt>
      <trkpt lat="50.650536306202412" lon="13.364656018093228">
        <ele>505</ele>
        <time>2026-08-29T15:24:25Z</time>
      </trkpt>
      <trkpt lat="50.650536306202412" lon="13.364656018093228">
        <ele>505</ele>
        <time>2026-08-29T15:24:26Z</time>
      </trkpt>
      <trkpt lat="50.650536306202412" lon="13.364656018093228">
        <ele>505</ele>
        <time>2026-08-29T15:24:27Z</time>
      </trkpt>
      <trkpt lat="50.650536306202412" lon="13.364656018093228">
        <ele>505</ele>
        <time>2026-08-29T15:24:28Z</time>
      </trkpt>
      <trkpt lat="50.650536306202412" lon="13.364656018093228">
        <ele>505</ele>
        <time>2026-08-29T15:24:29Z</time>
      </trkpt>
      <trkpt lat="50.650536306202412" lon="13.364656018093228">
        <ele>505</ele>
        <time>2026-08-29T15:24:30Z</time>
      </trkpt>
      <trkpt lat="50.650536306202412" lon="13.364656018093228">
        <ele>505</ele>
        <time>2026-08-29T15:24:31Z</time>
      </trkpt>
      <trkpt lat="50.650536306202412" lon="13.364656018093228">
        <ele>505</ele>
        <time>2026-08-29T15:24:32Z</time>
      </trkpt>
      <trkpt lat="50.650536306202412" lon="13.364656018093228">
        <ele>505</ele>
        <time>2026-08-29T15:24:33Z</time>
      </trkpt>
      <trkpt lat="50.650536306202412" lon="13.364656018093228">
        <ele>505</ele>
        <time>2026-08-29T15:24:34Z</time>
      </trkpt>
      <trkpt lat="50.650536306202412" lon="13.364656018093228">
        <ele>505</ele>
        <time>2026-08-29T15:24:35Z</time>
      </trkpt>
      <trkpt lat="50.650536306202412" lon="13.364656437188387">
        <ele>505</ele>
        <time>2026-08-29T15:24:36Z</time>
      </trkpt>
      <trkpt lat="50.650536473840475" lon="13.364656856283545">
        <ele>505</ele>
        <time>2026-08-29T15:24:37Z</time>
      </trkpt>
      <trkpt lat="50.650536557659507" lon="13.364657275378704">
        <ele>505</ele>
        <time>2026-08-29T15:24:38Z</time>
      </trkpt>
      <trkpt lat="50.650536557659507" lon="13.364657359197736">
        <ele>505</ele>
        <time>2026-08-29T15:24:39Z</time>
      </trkpt>
      <trkpt lat="50.650536557659507" lon="13.364657443016768">
        <ele>505</ele>
        <time>2026-08-29T15:24:40Z</time>
      </trkpt>
      <trkpt lat="50.650536557659507" lon="13.364657443016768">
        <ele>505</ele>
        <time>2026-08-29T15:24:41Z</time>
      </trkpt>
      <trkpt lat="50.650536557659507" lon="13.364657526835799">
        <ele>505</ele>
        <time>2026-08-29T15:24:42Z</time>
      </trkpt>
      <trkpt lat="50.650536557659507" lon="13.364657526835799">
        <ele>505</ele>
        <time>2026-08-29T15:24:43Z</time>
      </trkpt>
      <trkpt lat="50.650536557659507" lon="13.364657526835799">
        <ele>505</ele>
        <time>2026-08-29T15:24:44Z</time>
      </trkpt>
      <trkpt lat="50.650536557659507" lon="13.364657526835799">
        <ele>505</ele>
        <time>2026-08-29T15:24:45Z</time>
      </trkpt>
      <trkpt lat="50.650536557659507" lon="13.364657526835799">
        <ele>505</ele>
        <time>2026-08-29T15:24:46Z</time>
      </trkpt>
      <trkpt lat="50.650536557659507" lon="13.364657526835799">
        <ele>505</ele>
        <time>2026-08-29T15:24:47Z</time>
      </trkpt>
      <trkpt lat="50.650536557659507" lon="13.364657526835799">
        <ele>505</ele>
        <time>2026-08-29T15:24:48Z</time>
      </trkpt>
      <trkpt lat="50.650536557659507" lon="13.364657526835799">
        <ele>505</ele>
        <time>2026-08-29T15:24:49Z</time>
      </trkpt>
      <trkpt lat="50.650536557659507" lon="13.364657526835799">
        <ele>505</ele>
        <time>2026-08-29T15:24:50Z</time>
      </trkpt>
      <trkpt lat="50.650536557659507" lon="13.364657526835799">
        <ele>505</ele>
        <time>2026-08-29T15:24:51Z</time>
      </trkpt>
      <trkpt lat="50.650536557659507" lon="13.364657526835799">
        <ele>505</ele>
        <time>2026-08-29T15:24:52Z</time>
      </trkpt>
      <trkpt lat="50.650536557659507" lon="13.364657610654831">
        <ele>505</ele>
        <time>2026-08-29T15:24:53Z</time>
      </trkpt>
      <trkpt lat="50.650536557659507" lon="13.364657610654831">
        <ele>505</ele>
        <time>2026-08-29T15:24:54Z</time>
      </trkpt>
      <trkpt lat="50.650536557659507" lon="13.364657610654831">
        <ele>505</ele>
        <time>2026-08-29T15:24:55Z</time>
      </trkpt>
      <trkpt lat="50.650536557659507" lon="13.364657610654831">
        <ele>505</ele>
        <time>2026-08-29T15:24:56Z</time>
      </trkpt>
      <trkpt lat="50.650536557659507" lon="13.364657610654831">
        <ele>505</ele>
        <time>2026-08-29T15:24:57Z</time>
      </trkpt>
      <trkpt lat="50.650536557659507" lon="13.364657610654831">
        <ele>505</ele>
        <time>2026-08-29T15:24:58Z</time>
      </trkpt>
      <trkpt lat="50.650536557659507" lon="13.364657610654831">
        <ele>505</ele>
        <time>2026-08-29T15:24:59Z</time>
      </trkpt>
      <trkpt lat="50.650536557659507" lon="13.364657610654831">
        <ele>505</ele>
        <time>2026-08-29T15:25:00Z</time>
      </trkpt>
      <trkpt lat="50.650536557659507" lon="13.364657610654831">
        <ele>505</ele>
        <time>2026-08-29T15:25:01Z</time>
      </trkpt>
      <trkpt lat="50.650536557659507" lon="13.364657610654831">
        <ele>505</ele>
        <time>2026-08-29T15:25:02Z</time>
      </trkpt>
      <trkpt lat="50.650536557659507" lon="13.364657610654831">
        <ele>505</ele>
        <time>2026-08-29T15:25:03Z</time>
      </trkpt>
      <trkpt lat="50.650536557659507" lon="13.364657610654831">
        <ele>505</ele>
        <time>2026-08-29T15:25:04Z</time>
      </trkpt>
      <trkpt lat="50.650536557659507" lon="13.364657610654831">
        <ele>505</ele>
        <time>2026-08-29T15:25:05Z</time>
      </trkpt>
      <trkpt lat="50.650536557659507" lon="13.364657610654831">
        <ele>505</ele>
        <time>2026-08-29T15:25:06Z</time>
      </trkpt>
      <trkpt lat="50.650536557659507" lon="13.364657610654831">
        <ele>505</ele>
        <time>2026-08-29T15:25:07Z</time>
      </trkpt>
      <trkpt lat="50.650536557659507" lon="13.364657610654831">
        <ele>505</ele>
        <time>2026-08-29T15:25:08Z</time>
      </trkpt>
      <trkpt lat="50.650536557659507" lon="13.364657610654831">
        <ele>505</ele>
        <time>2026-08-29T15:25:09Z</time>
      </trkpt>
      <trkpt lat="50.650536557659507" lon="13.364657610654831">
        <ele>505</ele>
        <time>2026-08-29T15:25:10Z</time>
      </trkpt>
      <trkpt lat="50.650536557659507" lon="13.364657610654831">
        <ele>505</ele>
        <time>2026-08-29T15:25:11Z</time>
      </trkpt>
      <trkpt lat="50.650536557659507" lon="13.364657610654831">
        <ele>505</ele>
        <time>2026-08-29T15:25:12Z</time>
      </trkpt>
      <trkpt lat="50.650536557659507" lon="13.364657610654831">
        <ele>505</ele>
        <time>2026-08-29T15:25:13Z</time>
      </trkpt>
      <trkpt lat="50.650536557659507" lon="13.364657610654831">
        <ele>505</ele>
        <time>2026-08-29T15:25:14Z</time>
      </trkpt>
      <trkpt lat="50.650536557659507" lon="13.364657610654831">
        <ele>505</ele>
        <time>2026-08-29T15:25:15Z</time>
      </trkpt>
      <trkpt lat="50.650536557659507" lon="13.364657610654831">
        <ele>505</ele>
        <time>2026-08-29T15:25:16Z</time>
      </trkpt>
      <trkpt lat="50.650536557659507" lon="13.364657610654831">
        <ele>505</ele>
        <time>2026-08-29T15:25:17Z</time>
      </trkpt>
      <trkpt lat="50.650536557659507" lon="13.364657610654831">
        <ele>505</ele>
        <time>2026-08-29T15:25:18Z</time>
      </trkpt>
      <trkpt lat="50.650536557659507" lon="13.364657610654831">
        <ele>505</ele>
        <time>2026-08-29T15:25:19Z</time>
      </trkpt>
      <trkpt lat="50.650536557659507" lon="13.364657610654831">
        <ele>505</ele>
        <time>2026-08-29T15:25:20Z</time>
      </trkpt>
      <trkpt lat="50.650536557659507" lon="13.364657610654831">
        <ele>505</ele>
        <time>2026-08-29T15:25:21Z</time>
      </trkpt>
      <trkpt lat="50.650536557659507" lon="13.364657610654831">
        <ele>505</ele>
        <time>2026-08-29T15:25:22Z</time>
      </trkpt>
      <trkpt lat="50.650536557659507" lon="13.364657610654831">
        <ele>505</ele>
        <time>2026-08-29T15:25:23Z</time>
      </trkpt>
      <trkpt lat="50.650536557659507" lon="13.364657610654831">
        <ele>505</ele>
        <time>2026-08-29T15:25:24Z</time>
      </trkpt>
      <trkpt lat="50.650536557659507" lon="13.364657610654831">
        <ele>505</ele>
        <time>2026-08-29T15:25:25Z</time>
      </trkpt>
      <trkpt lat="50.650536557659507" lon="13.364657610654831">
        <ele>505</ele>
        <time>2026-08-29T15:25:26Z</time>
      </trkpt>
      <trkpt lat="50.650536557659507" lon="13.364657610654831">
        <ele>505</ele>
        <time>2026-08-29T15:25:27Z</time>
      </trkpt>
      <trkpt lat="50.650536557659507" lon="13.364657610654831">
        <ele>505</ele>
        <time>2026-08-29T15:25:28Z</time>
      </trkpt>
      <trkpt lat="50.650536557659507" lon="13.364657610654831">
        <ele>505</ele>
        <time>2026-08-29T15:25:29Z</time>
      </trkpt>
      <trkpt lat="50.650536557659507" lon="13.364657610654831">
        <ele>505</ele>
        <time>2026-08-29T15:25:30Z</time>
      </trkpt>
      <trkpt lat="50.650536557659507" lon="13.364657610654831">
        <ele>505</ele>
        <time>2026-08-29T15:25:31Z</time>
      </trkpt>
      <trkpt lat="50.650536557659507" lon="13.364657610654831">
        <ele>505</ele>
        <time>2026-08-29T15:25:32Z</time>
      </trkpt>
      <trkpt lat="50.650536557659507" lon="13.364657610654831">
        <ele>505</ele>
        <time>2026-08-29T15:25:33Z</time>
      </trkpt>
      <trkpt lat="50.650536557659507" lon="13.364657610654831">
        <ele>505</ele>
        <time>2026-08-29T15:25:34Z</time>
      </trkpt>
      <trkpt lat="50.650536557659507" lon="13.364657610654831">
        <ele>505</ele>
        <time>2026-08-29T15:25:35Z</time>
      </trkpt>
      <trkpt lat="50.650536557659507" lon="13.364657610654831">
        <ele>505</ele>
        <time>2026-08-29T15:25:36Z</time>
      </trkpt>
      <trkpt lat="50.650536557659507" lon="13.364657610654831">
        <ele>505</ele>
        <time>2026-08-29T15:25:37Z</time>
      </trkpt>
      <trkpt lat="50.650536557659507" lon="13.364657610654831">
        <ele>505</ele>
        <time>2026-08-29T15:25:38Z</time>
      </trkpt>
      <trkpt lat="50.650536557659507" lon="13.364657610654831">
        <ele>505</ele>
        <time>2026-08-29T15:25:39Z</time>
      </trkpt>
      <trkpt lat="50.650536557659507" lon="13.364657610654831">
        <ele>505</ele>
        <time>2026-08-29T15:25:40Z</time>
      </trkpt>
      <trkpt lat="50.650536557659507" lon="13.364657191559672">
        <ele>505</ele>
        <time>2026-08-29T15:25:41Z</time>
      </trkpt>
      <trkpt lat="50.650536641478539" lon="13.364657275378704">
        <ele>505</ele>
        <time>2026-08-29T15:25:42Z</time>
      </trkpt>
      <trkpt lat="50.650536557659507" lon="13.364656940102577">
        <ele>504</ele>
        <time>2026-08-29T15:25:43Z</time>
      </trkpt>
      <trkpt lat="50.650538317859173" lon="13.364657778292894">
        <ele>504</ele>
        <time>2026-08-29T15:25:44Z</time>
      </trkpt>
      <trkpt lat="50.650538234040141" lon="13.364656437188387">
        <ele>504</ele>
        <time>2026-08-29T15:25:45Z</time>
      </trkpt>
      <trkpt lat="50.650538066402078" lon="13.364660544320941">
        <ele>504</ele>
        <time>2026-08-29T15:25:46Z</time>
      </trkpt>
      <trkpt lat="50.650537060573697" lon="13.36466196924448">
        <ele>504</ele>
        <time>2026-08-29T15:25:47Z</time>
      </trkpt>
      <trkpt lat="50.650537060573697" lon="13.364661633968353">
        <ele>504</ele>
        <time>2026-08-29T15:25:48Z</time>
      </trkpt>
      <trkpt lat="50.650535384193063" lon="13.364666244015098">
        <ele>504</ele>
        <time>2026-08-29T15:25:49Z</time>
      </trkpt>
      <trkpt lat="50.650535803288221" lon="13.364666160196066">
        <ele>504</ele>
        <time>2026-08-29T15:25:50Z</time>
      </trkpt>
      <trkpt lat="50.650535970926285" lon="13.364666746929288">
        <ele>504</ele>
        <time>2026-08-29T15:25:51Z</time>
      </trkpt>
      <trkpt lat="50.650536641478539" lon="13.364667668938637">
        <ele>504</ele>
        <time>2026-08-29T15:25:52Z</time>
      </trkpt>
      <trkpt lat="50.650536138564348" lon="13.364673955366015">
        <ele>504</ele>
        <time>2026-08-29T15:25:53Z</time>
      </trkpt>
      <trkpt lat="50.65053379163146" lon="13.364683007821441">
        <ele>504</ele>
        <time>2026-08-29T15:25:54Z</time>
      </trkpt>
      <trkpt lat="50.650531109422445" lon="13.364697089418769">
        <ele>504</ele>
        <time>2026-08-29T15:25:55Z</time>
      </trkpt>
      <trkpt lat="50.650530187413096" lon="13.364713601768017">
        <ele>504</ele>
        <time>2026-08-29T15:25:56Z</time>
      </trkpt>
      <trkpt lat="50.65052742138505" lon="13.364740256220102">
        <ele>504</ele>
        <time>2026-08-29T15:25:57Z</time>
      </trkpt>
      <trkpt lat="50.650528594851494" lon="13.364761797711253">
        <ele>504</ele>
        <time>2026-08-29T15:25:58Z</time>
      </trkpt>
      <trkpt lat="50.65053136087954" lon="13.364778142422438">
        <ele>504</ele>
        <time>2026-08-29T15:25:59Z</time>
      </trkpt>
      <trkpt lat="50.650532450526953" lon="13.364800354465842">
        <ele>504</ele>
        <time>2026-08-29T15:26:00Z</time>
      </trkpt>
      <trkpt lat="50.650528091937304" lon="13.364831870421767">
        <ele>504</ele>
        <time>2026-08-29T15:26:01Z</time>
      </trkpt>
      <trkpt lat="50.650522811338305" lon="13.364872606471181">
        <ele>504</ele>
        <time>2026-08-29T15:26:02Z</time>
      </trkpt>
      <trkpt lat="50.650514680892229" lon="13.364908481016755">
        <ele>504</ele>
        <time>2026-08-29T15:26:03Z</time>
      </trkpt>
      <trkpt lat="50.650510992854834" lon="13.364950222894549">
        <ele>504</ele>
        <time>2026-08-29T15:26:04Z</time>
      </trkpt>
      <trkpt lat="50.650509148836136" lon="13.364998335018754">
        <ele>504</ele>
        <time>2026-08-29T15:26:05Z</time>
      </trkpt>
      <trkpt lat="50.65049272030592" lon="13.365048877894878">
        <ele>504</ele>
        <time>2026-08-29T15:26:06Z</time>
      </trkpt>
      <trkpt lat="50.65048148855567" lon="13.36509246379137">
        <ele>505</ele>
        <time>2026-08-29T15:26:07Z</time>
      </trkpt>
      <trkpt lat="50.650474531576037" lon="13.365130685269833">
        <ele>505</ele>
        <time>2026-08-29T15:26:08Z</time>
      </trkpt>
      <trkpt lat="50.650463970378041" lon="13.365172259509563">
        <ele>505</ele>
        <time>2026-08-29T15:26:09Z</time>
      </trkpt>
      <trkpt lat="50.650456342846155" lon="13.365219617262483">
        <ele>505</ele>
        <time>2026-08-29T15:26:10Z</time>
      </trkpt>
      <trkpt lat="50.650455001741648" lon="13.365264208987355">
        <ele>505</ele>
        <time>2026-08-29T15:26:11Z</time>
      </trkpt>
      <trkpt lat="50.650444440543652" lon="13.365316847339272">
        <ele>505</ele>
        <time>2026-08-29T15:26:12Z</time>
      </trkpt>
      <trkpt lat="50.650446452200413" lon="13.365375185385346">
        <ele>505</ele>
        <time>2026-08-29T15:26:13Z</time>
      </trkpt>
      <trkpt lat="50.65044142305851" lon="13.365428578108549">
        <ele>506</ele>
        <time>2026-08-29T15:26:14Z</time>
      </trkpt>
      <trkpt lat="50.650432035326958" lon="13.365488592535257">
        <ele>505</ele>
        <time>2026-08-29T15:26:15Z</time>
      </trkpt>
      <trkpt lat="50.650424240157008" lon="13.36555615067482">
        <ele>506</ele>
        <time>2026-08-29T15:26:16Z</time>
      </trkpt>
      <trkpt lat="50.650415439158678" lon="13.365614572539926">
        <ele>506</ele>
        <time>2026-08-29T15:26:17Z</time>
      </trkpt>
      <trkpt lat="50.650405716150999" lon="13.365675425156951">
        <ele>506</ele>
        <time>2026-08-29T15:26:18Z</time>
      </trkpt>
      <trkpt lat="50.650401609018445" lon="13.365738792344928">
        <ele>506</ele>
        <time>2026-08-29T15:26:19Z</time>
      </trkpt>
      <trkpt lat="50.650397837162018" lon="13.36580878123641">
        <ele>507</ele>
        <time>2026-08-29T15:26:20Z</time>
      </trkpt>
      <trkpt lat="50.650391131639481" lon="13.365875836461782">
        <ele>507</ele>
        <time>2026-08-29T15:26:21Z</time>
      </trkpt>
      <trkpt lat="50.650384509935975" lon="13.365932749584317">
        <ele>506</ele>
        <time>2026-08-29T15:26:22Z</time>
      </trkpt>
      <trkpt lat="50.650371182709932" lon="13.365996200591326">
        <ele>506</ele>
        <time>2026-08-29T15:26:23Z</time>
      </trkpt>
      <trkpt lat="50.650358190760016" lon="13.366051772609353">
        <ele>506</ele>
        <time>2026-08-29T15:26:24Z</time>
      </trkpt>
      <trkpt lat="50.65034762956202" lon="13.366110194474459">
        <ele>506</ele>
        <time>2026-08-29T15:26:25Z</time>
      </trkpt>
      <trkpt lat="50.650335056707263" lon="13.36616643704474">
        <ele>507</ele>
        <time>2026-08-29T15:26:26Z</time>
      </trkpt>
      <trkpt lat="50.65031778998673" lon="13.366203904151917">
        <ele>507</ele>
        <time>2026-08-29T15:26:27Z</time>
      </trkpt>
      <trkpt lat="50.65029188990593" lon="13.36622460745275">
        <ele>507</ele>
        <time>2026-08-29T15:26:28Z</time>
      </trkpt>
      <trkpt lat="50.650259032845497" lon="13.366238689050078">
        <ele>507</ele>
        <time>2026-08-29T15:26:29Z</time>
      </trkpt>
      <trkpt lat="50.650227768346667" lon="13.366236593574286">
        <ele>507</ele>
        <time>2026-08-29T15:26:30Z</time>
      </trkpt>
      <trkpt lat="50.650202706456184" lon="13.366228463128209">
        <ele>507</ele>
        <time>2026-08-29T15:26:31Z</time>
      </trkpt>
      <trkpt lat="50.650186110287905" lon="13.366225529462099">
        <ele>508</ele>
        <time>2026-08-29T15:26:32Z</time>
      </trkpt>
      <trkpt lat="50.650168173015118" lon="13.366222847253084">
        <ele>508</ele>
        <time>2026-08-29T15:26:33Z</time>
      </trkpt>
      <trkpt lat="50.650146631523967" lon="13.366214632987976">
        <ele>508</ele>
        <time>2026-08-29T15:26:34Z</time>
      </trkpt>
      <trkpt lat="50.650126431137323" lon="13.366229552775621">
        <ele>508</ele>
        <time>2026-08-29T15:26:35Z</time>
      </trkpt>
      <trkpt lat="50.650110170245171" lon="13.366254195570946">
        <ele>508</ele>
        <time>2026-08-29T15:26:36Z</time>
      </trkpt>
      <trkpt lat="50.650100950151682" lon="13.36629543453455">
        <ele>508</ele>
        <time>2026-08-29T15:26:37Z</time>
      </trkpt>
      <trkpt lat="50.650100111961365" lon="13.366340361535549">
        <ele>508</ele>
        <time>2026-08-29T15:26:38Z</time>
      </trkpt>
      <trkpt lat="50.650110421702266" lon="13.366378834471107">
        <ele>508</ele>
        <time>2026-08-29T15:26:39Z</time>
      </trkpt>
      <trkpt lat="50.650129448622465" lon="13.366400711238384">
        <ele>508</ele>
        <time>2026-08-29T15:26:40Z</time>
      </trkpt>
      <trkpt lat="50.65014336258173" lon="13.366438178345561">
        <ele>508</ele>
        <time>2026-08-29T15:26:41Z</time>
      </trkpt>
      <trkpt lat="50.650154929608107" lon="13.366477740928531">
        <ele>508</ele>
        <time>2026-08-29T15:26:42Z</time>
      </trkpt>
      <trkpt lat="50.650169514119625" lon="13.366516381502151">
        <ele>508</ele>
        <time>2026-08-29T15:26:43Z</time>
      </trkpt>
      <trkpt lat="50.650184601545334" lon="13.366556279361248">
        <ele>508</ele>
        <time>2026-08-29T15:26:44Z</time>
      </trkpt>
      <trkpt lat="50.650199186056852" lon="13.366598272696137">
        <ele>508</ele>
        <time>2026-08-29T15:26:45Z</time>
      </trkpt>
      <trkpt lat="50.650218296796083" lon="13.366640685126185">
        <ele>508</ele>
        <time>2026-08-29T15:26:46Z</time>
      </trkpt>
      <trkpt lat="50.65023179166019" lon="13.366694496944547">
        <ele>508</ele>
        <time>2026-08-29T15:26:47Z</time>
      </trkpt>
      <trkpt lat="50.650233468040824" lon="13.366745291277766">
        <ele>508</ele>
        <time>2026-08-29T15:26:48Z</time>
      </trkpt>
      <trkpt lat="50.650222487747669" lon="13.366811173036695">
        <ele>507</ele>
        <time>2026-08-29T15:26:49Z</time>
      </trkpt>
      <trkpt lat="50.650211507454515" lon="13.36687202565372">
        <ele>508</ele>
        <time>2026-08-29T15:26:50Z</time>
      </trkpt>
      <trkpt lat="50.650220811367035" lon="13.366924496367574">
        <ele>509</ele>
        <time>2026-08-29T15:26:51Z</time>
      </trkpt>
      <trkpt lat="50.650217039510608" lon="13.366984510794282">
        <ele>510</ele>
        <time>2026-08-29T15:26:52Z</time>
      </trkpt>
      <trkpt lat="50.650208657607436" lon="13.367034802213311">
        <ele>511</ele>
        <time>2026-08-29T15:26:53Z</time>
      </trkpt>
      <trkpt lat="50.650194156914949" lon="13.367078639566898">
        <ele>512</ele>
        <time>2026-08-29T15:26:54Z</time>
      </trkpt>
      <trkpt lat="50.650169849395752" lon="13.367104288190603">
        <ele>512</ele>
        <time>2026-08-29T15:26:55Z</time>
      </trkpt>
      <trkpt lat="50.650144619867206" lon="13.367112250998616">
        <ele>512</ele>
        <time>2026-08-29T15:26:56Z</time>
      </trkpt>
      <trkpt lat="50.650124251842499" lon="13.367116190493107">
        <ele>513</ele>
        <time>2026-08-29T15:26:57Z</time>
      </trkpt>
      <trkpt lat="50.650100782513618" lon="13.367115268483758">
        <ele>513</ele>
        <time>2026-08-29T15:26:58Z</time>
      </trkpt>
      <trkpt lat="50.650073038414121" lon="13.367122728377581">
        <ele>513</ele>
        <time>2026-08-29T15:26:59Z</time>
      </trkpt>
      <trkpt lat="50.650046970695257" lon="13.367123901844025">
        <ele>513</ele>
        <time>2026-08-29T15:27:00Z</time>
      </trkpt>
      <trkpt lat="50.650017382577062" lon="13.367118202149868">
        <ele>512</ele>
        <time>2026-08-29T15:27:01Z</time>
      </trkpt>
      <trkpt lat="50.649991231039166" lon="13.367115771397948">
        <ele>512</ele>
        <time>2026-08-29T15:27:02Z</time>
      </trkpt>
      <trkpt lat="50.649963738396764" lon="13.367104288190603">
        <ele>512</ele>
        <time>2026-08-29T15:27:03Z</time>
      </trkpt>
      <trkpt lat="50.649933563545346" lon="13.367099929600954">
        <ele>512</ele>
        <time>2026-08-29T15:27:04Z</time>
      </trkpt>
      <trkpt lat="50.649905148893595" lon="13.367095990106463">
        <ele>512</ele>
        <time>2026-08-29T15:27:05Z</time>
      </trkpt>
      <trkpt lat="50.649877404794097" lon="13.367094146087766">
        <ele>513</ele>
        <time>2026-08-29T15:27:06Z</time>
      </trkpt>
      <trkpt lat="50.649848990142345" lon="13.367091966792941">
        <ele>513</ele>
        <time>2026-08-29T15:27:07Z</time>
      </trkpt>
      <trkpt lat="50.649817390367389" lon="13.36708752438426">
        <ele>512</ele>
        <time>2026-08-29T15:27:08Z</time>
      </trkpt>
      <trkpt lat="50.649781851097941" lon="13.367086183279753">
        <ele>512</ele>
        <time>2026-08-29T15:27:09Z</time>
      </trkpt>
      <trkpt lat="50.649750251322985" lon="13.367083920165896">
        <ele>512</ele>
        <time>2026-08-29T15:27:10Z</time>
      </trkpt>
      <trkpt lat="50.649718400090933" lon="13.367089200764894">
        <ele>512</ele>
        <time>2026-08-29T15:27:11Z</time>
      </trkpt>
      <trkpt lat="50.649684872478247" lon="13.367085680365562">
        <ele>512</ele>
        <time>2026-08-29T15:27:12Z</time>
      </trkpt>
      <trkpt lat="50.649655200541019" lon="13.367088697850704">
        <ele>512</ele>
        <time>2026-08-29T15:27:13Z</time>
      </trkpt>
      <trkpt lat="50.649620248004794" lon="13.367106635123491">
        <ele>512</ele>
        <time>2026-08-29T15:27:14Z</time>
      </trkpt>
      <trkpt lat="50.649587139487267" lon="13.367117447778583">
        <ele>513</ele>
        <time>2026-08-29T15:27:15Z</time>
      </trkpt>
      <trkpt lat="50.649548918008804" lon="13.367112250998616">
        <ele>514</ele>
        <time>2026-08-29T15:27:16Z</time>
      </trkpt>
      <trkpt lat="50.649507259950042" lon="13.367116022855043">
        <ele>514</ele>
        <time>2026-08-29T15:27:17Z</time>
      </trkpt>
      <trkpt lat="50.649465015158057" lon="13.367120800539851">
        <ele>515</ele>
        <time>2026-08-29T15:27:18Z</time>
      </trkpt>
      <trkpt lat="50.649420507252216" lon="13.367119878530502">
        <ele>514</ele>
        <time>2026-08-29T15:27:19Z</time>
      </trkpt>
      <trkpt lat="50.649387231096625" lon="13.367125829681754">
        <ele>514</ele>
        <time>2026-08-29T15:27:20Z</time>
      </trkpt>
      <trkpt lat="50.649357978254557" lon="13.367134127765894">
        <ele>514</ele>
        <time>2026-08-29T15:27:21Z</time>
      </trkpt>
      <trkpt lat="50.649333000183105" lon="13.367138737812638">
        <ele>515</ele>
        <time>2026-08-29T15:27:22Z</time>
      </trkpt>
      <trkpt lat="50.649303076788783" lon="13.367145275697112">
        <ele>515</ele>
        <time>2026-08-29T15:27:23Z</time>
      </trkpt>
      <trkpt lat="50.649276757612824" lon="13.367147454991937">
        <ele>515</ele>
        <time>2026-08-29T15:27:24Z</time>
      </trkpt>
      <trkpt lat="50.649250857532024" lon="13.367142928764224">
        <ele>516</ele>
        <time>2026-08-29T15:27:25Z</time>
      </trkpt>
      <trkpt lat="50.649227304384112" lon="13.367141000926495">
        <ele>516</ele>
        <time>2026-08-29T15:27:26Z</time>
      </trkpt>
      <trkpt lat="50.649202661588788" lon="13.367142928764224">
        <ele>516</ele>
        <time>2026-08-29T15:27:27Z</time>
      </trkpt>
      <trkpt lat="50.649178521707654" lon="13.367140330374241">
        <ele>516</ele>
        <time>2026-08-29T15:27:28Z</time>
      </trkpt>
      <trkpt lat="50.649149855598807" lon="13.367141084745526">
        <ele>515</ele>
        <time>2026-08-29T15:27:29Z</time>
      </trkpt>
      <trkpt lat="50.649122949689627" lon="13.36714468896389">
        <ele>516</ele>
        <time>2026-08-29T15:27:30Z</time>
      </trkpt>
      <trkpt lat="50.649098390713334" lon="13.367137229070067">
        <ele>516</ele>
        <time>2026-08-29T15:27:31Z</time>
      </trkpt>
      <trkpt lat="50.649066958576441" lon="13.367130607366562">
        <ele>516</ele>
        <time>2026-08-29T15:27:32Z</time>
      </trkpt>
      <trkpt lat="50.649037454277277" lon="13.367130104452372">
        <ele>516</ele>
        <time>2026-08-29T15:27:33Z</time>
      </trkpt>
      <trkpt lat="50.649003507569432" lon="13.367128511890769">
        <ele>516</ele>
        <time>2026-08-29T15:27:34Z</time>
      </trkpt>
      <trkpt lat="50.648970482870936" lon="13.367119459435344">
        <ele>516</ele>
        <time>2026-08-29T15:27:35Z</time>
      </trkpt>
      <trkpt lat="50.648936619982123" lon="13.36710998788476">
        <ele>516</ele>
        <time>2026-08-29T15:27:36Z</time>
      </trkpt>
      <trkpt lat="50.648906780406833" lon="13.367102108895779">
        <ele>516</ele>
        <time>2026-08-29T15:27:37Z</time>
      </trkpt>
      <trkpt lat="50.648875432088971" lon="13.367097750306129">
        <ele>517</ele>
        <time>2026-08-29T15:27:38Z</time>
      </trkpt>
      <trkpt lat="50.64883972518146" lon="13.367085177451372">
        <ele>516</ele>
        <time>2026-08-29T15:27:39Z</time>
      </trkpt>
      <trkpt lat="50.648809298872948" lon="13.367085848003626">
        <ele>516</ele>
        <time>2026-08-29T15:27:40Z</time>
      </trkpt>
      <trkpt lat="50.648776860907674" lon="13.367083668708801">
        <ele>517</ele>
        <time>2026-08-29T15:27:41Z</time>
      </trkpt>
      <trkpt lat="50.648746099323034" lon="13.36707872338593">
        <ele>517</ele>
        <time>2026-08-29T15:27:42Z</time>
      </trkpt>
      <trkpt lat="50.648713326081634" lon="13.367076460272074">
        <ele>516</ele>
        <time>2026-08-29T15:27:43Z</time>
      </trkpt>
      <trkpt lat="50.648680636659265" lon="13.367085177451372">
        <ele>516</ele>
        <time>2026-08-29T15:27:44Z</time>
      </trkpt>
      <trkpt lat="50.648655910044909" lon="13.36710705421865">
        <ele>515</ele>
        <time>2026-08-29T15:27:45Z</time>
      </trkpt>
      <trkpt lat="50.648623891174793" lon="13.367120381444693">
        <ele>516</ele>
        <time>2026-08-29T15:27:46Z</time>
      </trkpt>
      <trkpt lat="50.648593129590154" lon="13.367123734205961">
        <ele>515</ele>
        <time>2026-08-29T15:27:47Z</time>
      </trkpt>
      <trkpt lat="50.648558679968119" lon="13.367114765569568">
        <ele>515</ele>
        <time>2026-08-29T15:27:48Z</time>
      </trkpt>
      <trkpt lat="50.648528169840574" lon="13.36710755713284">
        <ele>515</ele>
        <time>2026-08-29T15:27:49Z</time>
      </trkpt>
      <trkpt lat="50.648482739925385" lon="13.367094732820988">
        <ele>515</ele>
        <time>2026-08-29T15:27:50Z</time>
      </trkpt>
      <trkpt lat="50.648446278646588" lon="13.367087859660387">
        <ele>515</ele>
        <time>2026-08-29T15:27:51Z</time>
      </trkpt>
      <trkpt lat="50.648409649729729" lon="13.367080818861723">
        <ele>514</ele>
        <time>2026-08-29T15:27:52Z</time>
      </trkpt>
      <trkpt lat="50.648370841518044" lon="13.367075119167566">
        <ele>515</ele>
        <time>2026-08-29T15:27:53Z</time>
      </trkpt>
      <trkpt lat="50.648336559534073" lon="13.367073861882091">
        <ele>514</ele>
        <time>2026-08-29T15:27:54Z</time>
      </trkpt>
      <trkpt lat="50.648295991122723" lon="13.36707872338593">
        <ele>515</ele>
        <time>2026-08-29T15:27:55Z</time>
      </trkpt>
      <trkpt lat="50.648262547329068" lon="13.367080483585596">
        <ele>516</ele>
        <time>2026-08-29T15:27:56Z</time>
      </trkpt>
      <trkpt lat="50.648220721632242" lon="13.367082746699452">
        <ele>516</ele>
        <time>2026-08-29T15:27:57Z</time>
      </trkpt>
      <trkpt lat="50.648183673620224" lon="13.367080148309469">
        <ele>516</ele>
        <time>2026-08-29T15:27:58Z</time>
      </trkpt>
      <trkpt lat="50.648147128522396" lon="13.367090709507465">
        <ele>517</ele>
        <time>2026-08-29T15:27:59Z</time>
      </trkpt>
      <trkpt lat="50.648109326139092" lon="13.367086099460721">
        <ele>517</ele>
        <time>2026-08-29T15:28:00Z</time>
      </trkpt>
      <trkpt lat="50.648079067468643" lon="13.367079561576247">
        <ele>518</ele>
        <time>2026-08-29T15:28:01Z</time>
      </trkpt>
      <trkpt lat="50.648045623674989" lon="13.367077549919486">
        <ele>518</ele>
        <time>2026-08-29T15:28:02Z</time>
      </trkpt>
      <trkpt lat="50.648007318377495" lon="13.367081237956882">
        <ele>518</ele>
        <time>2026-08-29T15:28:03Z</time>
      </trkpt>
      <trkpt lat="50.647967420518398" lon="13.367085261270404">
        <ele>518</ele>
        <time>2026-08-29T15:28:04Z</time>
      </trkpt>
      <trkpt lat="50.647924421355128" lon="13.367091128602624">
        <ele>518</ele>
        <time>2026-08-29T15:28:05Z</time>
      </trkpt>
      <trkpt lat="50.647885277867317" lon="13.367107892408967">
        <ele>518</ele>
        <time>2026-08-29T15:28:06Z</time>
      </trkpt>
      <trkpt lat="50.647848146036267" lon="13.367121051996946">
        <ele>518</ele>
        <time>2026-08-29T15:28:07Z</time>
      </trkpt>
      <trkpt lat="50.647809337824583" lon="13.367125913500786">
        <ele>518</ele>
        <time>2026-08-29T15:28:08Z</time>
      </trkpt>
      <trkpt lat="50.647768517956138" lon="13.367132367566228">
        <ele>518</ele>
        <time>2026-08-29T15:28:09Z</time>
      </trkpt>
      <trkpt lat="50.647731469944119" lon="13.367146952077746">
        <ele>518</ele>
        <time>2026-08-29T15:28:10Z</time>
      </trkpt>
      <trkpt lat="50.647692577913404" lon="13.367154998704791">
        <ele>518</ele>
        <time>2026-08-29T15:28:11Z</time>
      </trkpt>
      <trkpt lat="50.64765184186399" lon="13.367165559902787">
        <ele>518</ele>
        <time>2026-08-29T15:28:12Z</time>
      </trkpt>
      <trkpt lat="50.647609261795878" lon="13.367177043110132">
        <ele>518</ele>
        <time>2026-08-29T15:28:13Z</time>
      </trkpt>
      <trkpt lat="50.64757171086967" lon="13.367186430841684">
        <ele>518</ele>
        <time>2026-08-29T15:28:14Z</time>
      </trkpt>
      <trkpt lat="50.647536758333445" lon="13.367202775552869">
        <ele>517</ele>
        <time>2026-08-29T15:28:15Z</time>
      </trkpt>
      <trkpt lat="50.647494597360492" lon="13.367219623178244">
        <ele>517</ele>
        <time>2026-08-29T15:28:16Z</time>
      </trkpt>
      <trkpt lat="50.647455872967839" lon="13.367238398641348">
        <ele>518</ele>
        <time>2026-08-29T15:28:17Z</time>
      </trkpt>
      <trkpt lat="50.647418741136789" lon="13.3672512229532">
        <ele>517</ele>
        <time>2026-08-29T15:28:18Z</time>
      </trkpt>
      <trkpt lat="50.647379765287042" lon="13.367271842435002">
        <ele>517</ele>
        <time>2026-08-29T15:28:19Z</time>
      </trkpt>
      <trkpt lat="50.647341124713421" lon="13.367291623726487">
        <ele>517</ele>
        <time>2026-08-29T15:28:20Z</time>
      </trkpt>
      <trkpt lat="50.647297454997897" lon="13.36730788461864">
        <ele>517</ele>
        <time>2026-08-29T15:28:21Z</time>
      </trkpt>
      <trkpt lat="50.647261328995228" lon="13.367320038378239">
        <ele>517</ele>
        <time>2026-08-29T15:28:22Z</time>
      </trkpt>
      <trkpt lat="50.647220341488719" lon="13.367337556555867">
        <ele>517</ele>
        <time>2026-08-29T15:28:23Z</time>
      </trkpt>
      <trkpt lat="50.647186310961843" lon="13.367354739457369">
        <ele>518</ele>
        <time>2026-08-29T15:28:24Z</time>
      </trkpt>
      <trkpt lat="50.647156722843647" lon="13.367367647588253">
        <ele>518</ele>
        <time>2026-08-29T15:28:25Z</time>
      </trkpt>
      <trkpt lat="50.647129900753498" lon="13.367386339232326">
        <ele>518</ele>
        <time>2026-08-29T15:28:26Z</time>
      </trkpt>
      <trkpt lat="50.647106431424618" lon="13.367401929572225">
        <ele>518</ele>
        <time>2026-08-29T15:28:27Z</time>
      </trkpt>
      <trkpt lat="50.647082878276706" lon="13.367415089160204">
        <ele>519</ele>
        <time>2026-08-29T15:28:28Z</time>
      </trkpt>
      <trkpt lat="50.64706158824265" lon="13.367424979805946">
        <ele>519</ele>
        <time>2026-08-29T15:28:29Z</time>
      </trkpt>
      <trkpt lat="50.647044237703085" lon="13.367428164929152">
        <ele>519</ele>
        <time>2026-08-29T15:28:30Z</time>
      </trkpt>
      <trkpt lat="50.647028815001249" lon="13.367432272061706">
        <ele>519</ele>
        <time>2026-08-29T15:28:31Z</time>
      </trkpt>
      <trkpt lat="50.647011548280716" lon="13.367432272061706">
        <ele>519</ele>
        <time>2026-08-29T15:28:32Z</time>
      </trkpt>
      <trkpt lat="50.64699905924499" lon="13.367442162707448">
        <ele>519</ele>
        <time>2026-08-29T15:28:33Z</time>
      </trkpt>
      <trkpt lat="50.646981121972203" lon="13.367455070838332">
        <ele>519</ele>
        <time>2026-08-29T15:28:34Z</time>
      </trkpt>
      <trkpt lat="50.64696628600359" lon="13.367460519075394">
        <ele>519</ele>
        <time>2026-08-29T15:28:35Z</time>
      </trkpt>
      <trkpt lat="50.646950360387564" lon="13.367464039474726">
        <ele>519</ele>
        <time>2026-08-29T15:28:36Z</time>
      </trkpt>
      <trkpt lat="50.646933596581221" lon="13.367481976747513">
        <ele>519</ele>
        <time>2026-08-29T15:28:37Z</time>
      </trkpt>
      <trkpt lat="50.646914737299085" lon="13.367488849908113">
        <ele>519</ele>
        <time>2026-08-29T15:28:38Z</time>
      </trkpt>
      <trkpt lat="50.646892776712775" lon="13.367503769695759">
        <ele>519</ele>
        <time>2026-08-29T15:28:39Z</time>
      </trkpt>
      <trkpt lat="50.646871654316783" lon="13.36751458235085">
        <ele>519</ele>
        <time>2026-08-29T15:28:40Z</time>
      </trkpt>
      <trkpt lat="50.646844999864697" lon="13.367529418319464">
        <ele>519</ele>
        <time>2026-08-29T15:28:41Z</time>
      </trkpt>
      <trkpt lat="50.646815411746502" lon="13.367543499916792">
        <ele>519</ele>
        <time>2026-08-29T15:28:42Z</time>
      </trkpt>
      <trkpt lat="50.646795378997922" lon="13.367550456896424">
        <ele>519</ele>
        <time>2026-08-29T15:28:43Z</time>
      </trkpt>
      <trkpt lat="50.646773669868708" lon="13.367558754980564">
        <ele>519</ele>
        <time>2026-08-29T15:28:44Z</time>
      </trkpt>
      <trkpt lat="50.646755481138825" lon="13.367579374462366">
        <ele>519</ele>
        <time>2026-08-29T15:28:45Z</time>
      </trkpt>
      <trkpt lat="50.646737208589911" lon="13.367587001994252">
        <ele>519</ele>
        <time>2026-08-29T15:28:46Z</time>
      </trkpt>
      <trkpt lat="50.646720947697759" lon="13.36759127676487">
        <ele>519</ele>
        <time>2026-08-29T15:28:47Z</time>
      </trkpt>
      <trkpt lat="50.646703178063035" lon="13.36760108359158">
        <ele>519</ele>
        <time>2026-08-29T15:28:48Z</time>
      </trkpt>
      <trkpt lat="50.64668825827539" lon="13.367616171017289">
        <ele>519</ele>
        <time>2026-08-29T15:28:49Z</time>
      </trkpt>
      <trkpt lat="50.646676439791918" lon="13.367622708901763">
        <ele>519</ele>
        <time>2026-08-29T15:28:50Z</time>
      </trkpt>
      <trkpt lat="50.646660011261702" lon="13.367623714730144">
        <ele>519</ele>
        <time>2026-08-29T15:28:51Z</time>
      </trkpt>
      <trkpt lat="50.646639140322804" lon="13.367630839347839">
        <ele>519</ele>
        <time>2026-08-29T15:28:52Z</time>
      </trkpt>
      <trkpt lat="50.646620448678732" lon="13.367633940652013">
        <ele>520</ele>
        <time>2026-08-29T15:28:53Z</time>
      </trkpt>
      <trkpt lat="50.646602511405945" lon="13.367644501850009">
        <ele>520</ele>
        <time>2026-08-29T15:28:54Z</time>
      </trkpt>
      <trkpt lat="50.646587423980236" lon="13.367648860439658">
        <ele>520</ele>
        <time>2026-08-29T15:28:55Z</time>
      </trkpt>
      <trkpt lat="50.646570241078734" lon="13.367659924551845">
        <ele>520</ele>
        <time>2026-08-29T15:28:56Z</time>
      </trkpt>
      <trkpt lat="50.646558590233326" lon="13.367659673094749">
        <ele>520</ele>
        <time>2026-08-29T15:28:57Z</time>
      </trkpt>
      <trkpt lat="50.646546771749854" lon="13.36766847409308">
        <ele>520</ele>
        <time>2026-08-29T15:28:58Z</time>
      </trkpt>
      <trkpt lat="50.64654216170311" lon="13.367678532376885">
        <ele>520</ele>
        <time>2026-08-29T15:28:59Z</time>
      </trkpt>
      <trkpt lat="50.646535120904446" lon="13.367682555690408">
        <ele>520</ele>
        <time>2026-08-29T15:29:00Z</time>
      </trkpt>
      <trkpt lat="50.646535959094763" lon="13.367693033069372">
        <ele>519</ele>
        <time>2026-08-29T15:29:01Z</time>
      </trkpt>
      <trkpt lat="50.646530007943511" lon="13.367697726935148">
        <ele>519</ele>
        <time>2026-08-29T15:29:02Z</time>
      </trkpt>
      <trkpt lat="50.646517099812627" lon="13.367687417194247">
        <ele>518</ele>
        <time>2026-08-29T15:29:03Z</time>
      </trkpt>
      <trkpt lat="50.646506790071726" lon="13.367688003927469">
        <ele>518</ele>
        <time>2026-08-29T15:29:04Z</time>
      </trkpt>
      <trkpt lat="50.646501006558537" lon="13.367684483528137">
        <ele>518</ele>
        <time>2026-08-29T15:29:05Z</time>
      </trkpt>
      <trkpt lat="50.646489942446351" lon="13.367688171565533">
        <ele>518</ele>
        <time>2026-08-29T15:29:06Z</time>
      </trkpt>
      <trkpt lat="50.646483236923814" lon="13.367674509063363">
        <ele>518</ele>
        <time>2026-08-29T15:29:07Z</time>
      </trkpt>
      <trkpt lat="50.64647720195353" lon="13.367678448557854">
        <ele>518</ele>
        <time>2026-08-29T15:29:08Z</time>
      </trkpt>
      <trkpt lat="50.646467478945851" lon="13.367688423022628">
        <ele>518</ele>
        <time>2026-08-29T15:29:09Z</time>
      </trkpt>
      <trkpt lat="50.646462365984917" lon="13.367704264819622">
        <ele>518</ele>
        <time>2026-08-29T15:29:10Z</time>
      </trkpt>
      <trkpt lat="50.646462868899107" lon="13.367722118273377">
        <ele>518</ele>
        <time>2026-08-29T15:29:11Z</time>
      </trkpt>
      <trkpt lat="50.646470747888088" lon="13.367727901786566">
        <ele>518</ele>
        <time>2026-08-29T15:29:12Z</time>
      </trkpt>
      <trkpt lat="50.646487511694431" lon="13.367722202092409">
        <ele>518</ele>
        <time>2026-08-29T15:29:13Z</time>
      </trkpt>
      <trkpt lat="50.646504862233996" lon="13.36770418100059">
        <ele>518</ele>
        <time>2026-08-29T15:29:14Z</time>
      </trkpt>
      <trkpt lat="50.64652212895453" lon="13.367687668651342">
        <ele>518</ele>
        <time>2026-08-29T15:29:15Z</time>
      </trkpt>
      <trkpt lat="50.646539395675063" lon="13.367669647559524">
        <ele>518</ele>
        <time>2026-08-29T15:29:16Z</time>
      </trkpt>
      <trkpt lat="50.646561188623309" lon="13.367654979228973">
        <ele>518</ele>
        <time>2026-08-29T15:29:17Z</time>
      </trkpt>
      <trkpt lat="50.646587507799268" lon="13.367634611204267">
        <ele>518</ele>
        <time>2026-08-29T15:29:18Z</time>
      </trkpt>
      <trkpt lat="50.646618017926812" lon="13.367626229301095">
        <ele>518</ele>
        <time>2026-08-29T15:29:19Z</time>
      </trkpt>
      <trkpt lat="50.646651210263371" lon="13.367609884589911">
        <ele>518</ele>
        <time>2026-08-29T15:29:20Z</time>
      </trkpt>
      <trkpt lat="50.646681468933821" lon="13.367593791335821">
        <ele>518</ele>
        <time>2026-08-29T15:29:21Z</time>
      </trkpt>
      <trkpt lat="50.646714409813285" lon="13.367569148540497">
        <ele>518</ele>
        <time>2026-08-29T15:29:22Z</time>
      </trkpt>
      <trkpt lat="50.646742573007941" lon="13.367550708353519">
        <ele>518</ele>
        <time>2026-08-29T15:29:23Z</time>
      </trkpt>
      <trkpt lat="50.64677475951612" lon="13.367532687261701">
        <ele>518</ele>
        <time>2026-08-29T15:29:24Z</time>
      </trkpt>
      <trkpt lat="50.646808538585901" lon="13.36751164868474">
        <ele>518</ele>
        <time>2026-08-29T15:29:25Z</time>
      </trkpt>
      <trkpt lat="50.646841479465365" lon="13.367502596229315">
        <ele>518</ele>
        <time>2026-08-29T15:29:26Z</time>
      </trkpt>
      <trkpt lat="50.646872911602259" lon="13.367484323680401">
        <ele>519</ele>
        <time>2026-08-29T15:29:27Z</time>
      </trkpt>
      <trkpt lat="50.646908450871706" lon="13.367472756654024">
        <ele>519</ele>
        <time>2026-08-29T15:29:28Z</time>
      </trkpt>
      <trkpt lat="50.646947007626295" lon="13.367454148828983">
        <ele>520</ele>
        <time>2026-08-29T15:29:29Z</time>
      </trkpt>
      <trkpt lat="50.646977350115776" lon="13.36743151769042">
        <ele>520</ele>
        <time>2026-08-29T15:29:30Z</time>
      </trkpt>
      <trkpt lat="50.647014817222953" lon="13.367416178807616">
        <ele>520</ele>
        <time>2026-08-29T15:29:31Z</time>
      </trkpt>
      <trkpt lat="50.647054128348827" lon="13.36741441860795">
        <ele>520</ele>
        <time>2026-08-29T15:29:32Z</time>
      </trkpt>
      <trkpt lat="50.647094361484051" lon="13.3674290869385">
        <ele>519</ele>
        <time>2026-08-29T15:29:33Z</time>
      </trkpt>
      <trkpt lat="50.647130655124784" lon="13.367467308416963">
        <ele>519</ele>
        <time>2026-08-29T15:29:34Z</time>
      </trkpt>
      <trkpt lat="50.647160159423947" lon="13.367523886263371">
        <ele>520</ele>
        <time>2026-08-29T15:29:35Z</time>
      </trkpt>
      <trkpt lat="50.647178515791893" lon="13.367586750537157">
        <ele>520</ele>
        <time>2026-08-29T15:29:36Z</time>
      </trkpt>
      <trkpt lat="50.647188741713762" lon="13.367650620639324">
        <ele>520</ele>
        <time>2026-08-29T15:29:37Z</time>
      </trkpt>
      <trkpt lat="50.647200392559171" lon="13.367714239284396">
        <ele>520</ele>
        <time>2026-08-29T15:29:38Z</time>
      </trkpt>
      <trkpt lat="50.647203242406249" lon="13.367772409692407">
        <ele>520</ele>
        <time>2026-08-29T15:29:39Z</time>
      </trkpt>
      <trkpt lat="50.647208439186215" lon="13.367834519594908">
        <ele>520</ele>
        <time>2026-08-29T15:29:40Z</time>
      </trkpt>
      <trkpt lat="50.647217994555831" lon="13.367900317534804">
        <ele>520</ele>
        <time>2026-08-29T15:29:41Z</time>
      </trkpt>
      <trkpt lat="50.647230399772525" lon="13.367962008342147">
        <ele>520</ele>
        <time>2026-08-29T15:29:42Z</time>
      </trkpt>
      <trkpt lat="50.64723702147603" lon="13.368028644472361">
        <ele>520</ele>
        <time>2026-08-29T15:29:43Z</time>
      </trkpt>
      <trkpt lat="50.647239200770855" lon="13.368078516796231">
        <ele>520</ele>
        <time>2026-08-29T15:29:44Z</time>
      </trkpt>
      <trkpt lat="50.647249259054661" lon="13.368129981681705">
        <ele>519</ele>
        <time>2026-08-29T15:29:45Z</time>
      </trkpt>
      <trkpt lat="50.647258479148149" lon="13.368188487365842">
        <ele>519</ele>
        <time>2026-08-29T15:29:46Z</time>
      </trkpt>
      <trkpt lat="50.647265939041972" lon="13.368244478479028">
        <ele>519</ele>
        <time>2026-08-29T15:29:47Z</time>
      </trkpt>
      <trkpt lat="50.647270632907748" lon="13.368307342752814">
        <ele>519</ele>
        <time>2026-08-29T15:29:48Z</time>
      </trkpt>
      <trkpt lat="50.647284798324108" lon="13.368370542302728">
        <ele>519</ele>
        <time>2026-08-29T15:29:49Z</time>
      </trkpt>
      <trkpt lat="50.647302232682705" lon="13.368434496223927">
        <ele>519</ele>
        <time>2026-08-29T15:29:50Z</time>
      </trkpt>
      <trkpt lat="50.647315224632621" lon="13.368493756279349">
        <ele>519</ele>
        <time>2026-08-29T15:29:51Z</time>
      </trkpt>
      <trkpt lat="50.647335089743137" lon="13.368549831211567">
        <ele>519</ele>
        <time>2026-08-29T15:29:52Z</time>
      </trkpt>
      <trkpt lat="50.647352691739798" lon="13.368588471785188">
        <ele>518</ele>
        <time>2026-08-29T15:29:53Z</time>
      </trkpt>
      <trkpt lat="50.647367276251316" lon="13.368610851466656">
        <ele>518</ele>
        <time>2026-08-29T15:29:54Z</time>
      </trkpt>
      <trkpt lat="50.647371299564838" lon="13.368618143722415">
        <ele>519</ele>
        <time>2026-08-29T15:29:55Z</time>
      </trkpt>
      <trkpt lat="50.647369371727109" lon="13.368618562817574">
        <ele>518</ele>
        <time>2026-08-29T15:29:56Z</time>
      </trkpt>
      <trkpt lat="50.647372389212251" lon="13.368615126237273">
        <ele>519</ele>
        <time>2026-08-29T15:29:57Z</time>
      </trkpt>
      <trkpt lat="50.647371299564838" lon="13.368615712970495">
        <ele>518</ele>
        <time>2026-08-29T15:29:58Z</time>
      </trkpt>
      <trkpt lat="50.647367611527443" lon="13.368626525625587">
        <ele>518</ele>
        <time>2026-08-29T15:29:59Z</time>
      </trkpt>
      <trkpt lat="50.64736895263195" lon="13.36864622309804">
        <ele>518</ele>
        <time>2026-08-29T15:30:00Z</time>
      </trkpt>
      <trkpt lat="50.64736794680357" lon="13.368652509525418">
        <ele>518</ele>
        <time>2026-08-29T15:30:01Z</time>
      </trkpt>
      <trkpt lat="50.647366521880031" lon="13.36866189725697">
        <ele>517</ele>
        <time>2026-08-29T15:30:02Z</time>
      </trkpt>
      <trkpt lat="50.647367108613253" lon="13.368667177855968">
        <ele>517</ele>
        <time>2026-08-29T15:30:03Z</time>
      </trkpt>
      <trkpt lat="50.647369790822268" lon="13.368675224483013">
        <ele>517</ele>
        <time>2026-08-29T15:30:04Z</time>
      </trkpt>
      <trkpt lat="50.647366857156157" lon="13.368678828701377">
        <ele>517</ele>
        <time>2026-08-29T15:30:05Z</time>
      </trkpt>
      <trkpt lat="50.647365180775523" lon="13.368685618042946">
        <ele>517</ele>
        <time>2026-08-29T15:30:06Z</time>
      </trkpt>
      <trkpt lat="50.647367108613253" lon="13.368700202554464">
        <ele>517</ele>
        <time>2026-08-29T15:30:07Z</time>
      </trkpt>
      <trkpt lat="50.647361911833286" lon="13.368716295808554">
        <ele>516</ele>
        <time>2026-08-29T15:30:08Z</time>
      </trkpt>
      <trkpt lat="50.647359900176525" lon="13.36873272433877">
        <ele>516</ele>
        <time>2026-08-29T15:30:09Z</time>
      </trkpt>
      <trkpt lat="50.64735478721559" lon="13.368742698803544">
        <ele>515</ele>
        <time>2026-08-29T15:30:10Z</time>
      </trkpt>
      <trkpt lat="50.647355709224939" lon="13.368747476488352">
        <ele>515</ele>
        <time>2026-08-29T15:30:11Z</time>
      </trkpt>
      <trkpt lat="50.647355625405908" lon="13.368756361305714">
        <ele>515</ele>
        <time>2026-08-29T15:30:12Z</time>
      </trkpt>
      <trkpt lat="50.647354871034622" lon="13.368764743208885">
        <ele>514</ele>
        <time>2026-08-29T15:30:13Z</time>
      </trkpt>
      <trkpt lat="50.647349338978529" lon="13.368780668824911">
        <ele>514</ele>
        <time>2026-08-29T15:30:14Z</time>
      </trkpt>
      <trkpt lat="50.647346572950482" lon="13.368786452338099">
        <ele>514</ele>
        <time>2026-08-29T15:30:15Z</time>
      </trkpt>
      <trkpt lat="50.647341795265675" lon="13.368792152032256">
        <ele>514</ele>
        <time>2026-08-29T15:30:16Z</time>
      </trkpt>
      <trkpt lat="50.647337352856994" lon="13.36880162358284">
        <ele>514</ele>
        <time>2026-08-29T15:30:17Z</time>
      </trkpt>
      <trkpt lat="50.647338358685374" lon="13.368799947202206">
        <ele>514</ele>
        <time>2026-08-29T15:30:18Z</time>
      </trkpt>
      <trkpt lat="50.647334838286042" lon="13.368812268599868">
        <ele>514</ele>
        <time>2026-08-29T15:30:19Z</time>
      </trkpt>
      <trkpt lat="50.647337269037962" lon="13.368825847283006">
        <ele>514</ele>
        <time>2026-08-29T15:30:20Z</time>
      </trkpt>
      <trkpt lat="50.647343639284372" lon="13.368835151195526">
        <ele>514</ele>
        <time>2026-08-29T15:30:21Z</time>
      </trkpt>
      <trkpt lat="50.64735378138721" lon="13.36883339099586">
        <ele>514</ele>
        <time>2026-08-29T15:30:22Z</time>
      </trkpt>
      <trkpt lat="50.64736551605165" lon="13.368822075426579">
        <ele>515</ele>
        <time>2026-08-29T15:30:23Z</time>
      </trkpt>
      <trkpt lat="50.647383620962501" lon="13.368805982172489">
        <ele>515</ele>
        <time>2026-08-29T15:30:24Z</time>
      </trkpt>
      <trkpt lat="50.64740558154881" lon="13.368789721280336">
        <ele>516</ele>
        <time>2026-08-29T15:30:25Z</time>
      </trkpt>
      <trkpt lat="50.647425279021263" lon="13.368776645511389">
        <ele>515</ele>
        <time>2026-08-29T15:30:26Z</time>
      </trkpt>
      <trkpt lat="50.647450005635619" lon="13.368759378790855">
        <ele>515</ele>
        <time>2026-08-29T15:30:27Z</time>
      </trkpt>
      <trkpt lat="50.647473391145468" lon="13.368738675490022">
        <ele>515</ele>
        <time>2026-08-29T15:30:28Z</time>
      </trkpt>
      <trkpt lat="50.647507924586535" lon="13.368723588064313">
        <ele>515</ele>
        <time>2026-08-29T15:30:29Z</time>
      </trkpt>
      <trkpt lat="50.64754530787468" lon="13.368726521730423">
        <ele>515</ele>
        <time>2026-08-29T15:30:30Z</time>
      </trkpt>
      <trkpt lat="50.647579589858651" lon="13.368711853399873">
        <ele>515</ele>
        <time>2026-08-29T15:30:31Z</time>
      </trkpt>
      <trkpt lat="50.647610770538449" lon="13.36869265884161">
        <ele>514</ele>
        <time>2026-08-29T15:30:32Z</time>
      </trkpt>
      <trkpt lat="50.647641532123089" lon="13.368675643578172">
        <ele>514</ele>
        <time>2026-08-29T15:30:33Z</time>
      </trkpt>
      <trkpt lat="50.647670282050967" lon="13.368655191734433">
        <ele>514</ele>
        <time>2026-08-29T15:30:34Z</time>
      </trkpt>
      <trkpt lat="50.647695679217577" lon="13.368629040196538">
        <ele>514</ele>
        <time>2026-08-29T15:30:35Z</time>
      </trkpt>
      <trkpt lat="50.647718980908394" lon="13.36860959418118">
        <ele>514</ele>
        <time>2026-08-29T15:30:36Z</time>
      </trkpt>
      <trkpt lat="50.647730380296707" lon="13.368623424321413">
        <ele>513</ele>
        <time>2026-08-29T15:30:37Z</time>
      </trkpt>
      <trkpt lat="50.647731469944119" lon="13.368669608607888">
        <ele>513</ele>
        <time>2026-08-29T15:30:38Z</time>
      </trkpt>
      <trkpt lat="50.647718058899045" lon="13.368721744045615">
        <ele>512</ele>
        <time>2026-08-29T15:30:39Z</time>
      </trkpt>
      <trkpt lat="50.647707162424922" lon="13.368760636076331">
        <ele>512</ele>
        <time>2026-08-29T15:30:40Z</time>
      </trkpt>
      <trkpt lat="50.647695930674672" lon="13.368808915838599">
        <ele>512</ele>
        <time>2026-08-29T15:30:41Z</time>
      </trkpt>
      <trkpt lat="50.647678328678012" lon="13.368851915001869">
        <ele>512</ele>
        <time>2026-08-29T15:30:42Z</time>
      </trkpt>
      <trkpt lat="50.647660056129098" lon="13.368893824517727">
        <ele>512</ele>
        <time>2026-08-29T15:30:43Z</time>
      </trkpt>
      <trkpt lat="50.647645555436611" lon="13.368945540860295">
        <ele>512</ele>
        <time>2026-08-29T15:30:44Z</time>
      </trkpt>
      <trkpt lat="50.647636251524091" lon="13.369011087343097">
        <ele>511</ele>
        <time>2026-08-29T15:30:45Z</time>
      </trkpt>
      <trkpt lat="50.647622672840953" lon="13.369060289114714">
        <ele>511</ele>
        <time>2026-08-29T15:30:46Z</time>
      </trkpt>
      <trkpt lat="50.647607669234276" lon="13.369105970486999">
        <ele>511</ele>
        <time>2026-08-29T15:30:47Z</time>
      </trkpt>
      <trkpt lat="50.647591492161155" lon="13.369149891659617">
        <ele>510</ele>
        <time>2026-08-29T15:30:48Z</time>
      </trkpt>
      <trkpt lat="50.647575650364161" lon="13.369199680164456">
        <ele>510</ele>
        <time>2026-08-29T15:30:49Z</time>
      </trkpt>
      <trkpt lat="50.647574393078685" lon="13.369264136999846">
        <ele>511</ele>
        <time>2026-08-29T15:30:50Z</time>
      </trkpt>
      <trkpt lat="50.647561736404896" lon="13.369332700967789">
        <ele>511</ele>
        <time>2026-08-29T15:30:51Z</time>
      </trkpt>
      <trkpt lat="50.647556539624929" lon="13.369399840012193">
        <ele>511</ele>
        <time>2026-08-29T15:30:52Z</time>
      </trkpt>
      <trkpt lat="50.647556958720088" lon="13.369465637952089">
        <ele>511</ele>
        <time>2026-08-29T15:30:53Z</time>
      </trkpt>
      <trkpt lat="50.647552432492375" lon="13.369529256597161">
        <ele>511</ele>
        <time>2026-08-29T15:30:54Z</time>
      </trkpt>
      <trkpt lat="50.647549415007234" lon="13.369593042880297">
        <ele>511</ele>
        <time>2026-08-29T15:30:55Z</time>
      </trkpt>
      <trkpt lat="50.647540027275681" lon="13.369654817506671">
        <ele>511</ele>
        <time>2026-08-29T15:30:56Z</time>
      </trkpt>
      <trkpt lat="50.647534159943461" lon="13.369718519970775">
        <ele>511</ele>
        <time>2026-08-29T15:30:57Z</time>
      </trkpt>
      <trkpt lat="50.647530388087034" lon="13.369780210778117">
        <ele>511</ele>
        <time>2026-08-29T15:30:58Z</time>
      </trkpt>
      <trkpt lat="50.64751940779388" lon="13.369843745604157">
        <ele>512</ele>
        <time>2026-08-29T15:30:59Z</time>
      </trkpt>
      <trkpt lat="50.647515719756484" lon="13.369910633191466">
        <ele>511</ele>
        <time>2026-08-29T15:31:00Z</time>
      </trkpt>
      <trkpt lat="50.647511361166835" lon="13.369981124997139">
        <ele>512</ele>
        <time>2026-08-29T15:31:01Z</time>
      </trkpt>
      <trkpt lat="50.647506499662995" lon="13.370056645944715">
        <ele>511</ele>
        <time>2026-08-29T15:31:02Z</time>
      </trkpt>
      <trkpt lat="50.647499626502395" lon="13.370121102780104">
        <ele>512</ele>
        <time>2026-08-29T15:31:03Z</time>
      </trkpt>
      <trkpt lat="50.647490322589874" lon="13.370179943740368">
        <ele>512</ele>
        <time>2026-08-29T15:31:04Z</time>
      </trkpt>
      <trkpt lat="50.647483700886369" lon="13.370242640376091">
        <ele>513</ele>
        <time>2026-08-29T15:31:05Z</time>
      </trkpt>
      <trkpt lat="50.647486802190542" lon="13.370302738621831">
        <ele>513</ele>
        <time>2026-08-29T15:31:06Z</time>
      </trkpt>
      <trkpt lat="50.647495100274682" lon="13.370357388630509">
        <ele>513</ele>
        <time>2026-08-29T15:31:07Z</time>
      </trkpt>
      <trkpt lat="50.647516809403896" lon="13.370404243469238">
        <ele>513</ele>
        <time>2026-08-29T15:31:08Z</time>
      </trkpt>
      <trkpt lat="50.647543631494045" lon="13.370435759425163">
        <ele>512</ele>
        <time>2026-08-29T15:31:09Z</time>
      </trkpt>
      <trkpt lat="50.647587049752474" lon="13.370467443019152">
        <ele>513</ele>
        <time>2026-08-29T15:31:10Z</time>
      </trkpt>
      <trkpt lat="50.647629462182522" lon="13.370497450232506">
        <ele>512</ele>
        <time>2026-08-29T15:31:11Z</time>
      </trkpt>
      <trkpt lat="50.64766944386065" lon="13.370522847399116">
        <ele>512</ele>
        <time>2026-08-29T15:31:12Z</time>
      </trkpt>
      <trkpt lat="50.647699451074004" lon="13.370552435517311">
        <ele>512</ele>
        <time>2026-08-29T15:31:13Z</time>
      </trkpt>
      <trkpt lat="50.647731721401215" lon="13.370582023635507">
        <ele>511</ele>
        <time>2026-08-29T15:31:14Z</time>
      </trkpt>
      <trkpt lat="50.647757621482015" lon="13.370613288134336">
        <ele>512</ele>
        <time>2026-08-29T15:31:15Z</time>
      </trkpt>
      <trkpt lat="50.647782515734434" lon="13.370653940364718">
        <ele>512</ele>
        <time>2026-08-29T15:31:16Z</time>
      </trkpt>
      <trkpt lat="50.647800788283348" lon="13.370696688070893">
        <ele>512</ele>
        <time>2026-08-29T15:31:17Z</time>
      </trkpt>
      <trkpt lat="50.647814031690359" lon="13.370745051652193">
        <ele>512</ele>
        <time>2026-08-29T15:31:18Z</time>
      </trkpt>
      <trkpt lat="50.647826101630926" lon="13.370799114927649">
        <ele>512</ele>
        <time>2026-08-29T15:31:19Z</time>
      </trkpt>
      <trkpt lat="50.647841021418571" lon="13.370867427438498">
        <ele>511</ele>
        <time>2026-08-29T15:31:20Z</time>
      </trkpt>
      <trkpt lat="50.647845128551126" lon="13.370932219550014">
        <ele>511</ele>
        <time>2026-08-29T15:31:21Z</time>
      </trkpt>
      <trkpt lat="50.647842111065984" lon="13.370984103530645">
        <ele>510</ele>
        <time>2026-08-29T15:31:22Z</time>
      </trkpt>
      <trkpt lat="50.647834567353129" lon="13.371036322787404">
        <ele>510</ele>
        <time>2026-08-29T15:31:23Z</time>
      </trkpt>
      <trkpt lat="50.647831130772829" lon="13.371115112677217">
        <ele>509</ele>
        <time>2026-08-29T15:31:24Z</time>
      </trkpt>
      <trkpt lat="50.647825179621577" lon="13.371188119053841">
        <ele>510</ele>
        <time>2026-08-29T15:31:25Z</time>
      </trkpt>
      <trkpt lat="50.647819060832262" lon="13.371257353574038">
        <ele>510</ele>
        <time>2026-08-29T15:31:26Z</time>
      </trkpt>
      <trkpt lat="50.647817468270659" lon="13.371335389092565">
        <ele>510</ele>
        <time>2026-08-29T15:31:27Z</time>
      </trkpt>
      <trkpt lat="50.647819479927421" lon="13.371393894776702">
        <ele>510</ele>
        <time>2026-08-29T15:31:28Z</time>
      </trkpt>
      <trkpt lat="50.64782090485096" lon="13.371446868404746">
        <ele>510</ele>
        <time>2026-08-29T15:31:29Z</time>
      </trkpt>
      <trkpt lat="50.647822832688689" lon="13.371507050469518">
        <ele>510</ele>
        <time>2026-08-29T15:31:30Z</time>
      </trkpt>
      <trkpt lat="50.647820150479674" lon="13.371568154543638">
        <ele>510</ele>
        <time>2026-08-29T15:31:31Z</time>
      </trkpt>
      <trkpt lat="50.647828280925751" lon="13.371628588065505">
        <ele>510</ele>
        <time>2026-08-29T15:31:32Z</time>
      </trkpt>
      <trkpt lat="50.64783020876348" lon="13.371687009930611">
        <ele>510</ele>
        <time>2026-08-29T15:31:33Z</time>
      </trkpt>
      <trkpt lat="50.647835992276669" lon="13.371738642454147">
        <ele>510</ele>
        <time>2026-08-29T15:31:34Z</time>
      </trkpt>
      <trkpt lat="50.647837417200208" lon="13.371799746528268">
        <ele>510</ele>
        <time>2026-08-29T15:31:35Z</time>
      </trkpt>
      <trkpt lat="50.647842111065984" lon="13.3718550670892">
        <ele>510</ele>
        <time>2026-08-29T15:31:36Z</time>
      </trkpt>
      <trkpt lat="50.647842530161142" lon="13.371913405135274">
        <ele>510</ele>
        <time>2026-08-29T15:31:37Z</time>
      </trkpt>
      <trkpt lat="50.647842362523079" lon="13.371959757059813">
        <ele>510</ele>
        <time>2026-08-29T15:31:38Z</time>
      </trkpt>
      <trkpt lat="50.647839428856969" lon="13.371989009901881">
        <ele>510</ele>
        <time>2026-08-29T15:31:39Z</time>
      </trkpt>
      <trkpt lat="50.647840518504381" lon="13.372010132297873">
        <ele>510</ele>
        <time>2026-08-29T15:31:40Z</time>
      </trkpt>
      <trkpt lat="50.647844709455967" lon="13.372029410675168">
        <ele>510</ele>
        <time>2026-08-29T15:31:41Z</time>
      </trkpt>
      <trkpt lat="50.647854767739773" lon="13.372036954388022">
        <ele>510</ele>
        <time>2026-08-29T15:31:42Z</time>
      </trkpt>
      <trkpt lat="50.647868765518069" lon="13.372032344341278">
        <ele>511</ele>
        <time>2026-08-29T15:31:43Z</time>
      </trkpt>
      <trkpt lat="50.647880919277668" lon="13.372026393190026">
        <ele>511</ele>
        <time>2026-08-29T15:31:44Z</time>
      </trkpt>
      <trkpt lat="50.647898688912392" lon="13.372020609676838">
        <ele>511</ele>
        <time>2026-08-29T15:31:45Z</time>
      </trkpt>
      <trkpt lat="50.647919308394194" lon="13.372020190581679">
        <ele>511</ele>
        <time>2026-08-29T15:31:46Z</time>
      </trkpt>
      <trkpt lat="50.647944789379835" lon="13.37201532907784">
        <ele>511</ele>
        <time>2026-08-29T15:31:47Z</time>
      </trkpt>
      <trkpt lat="50.647969599813223" lon="13.37200996465981">
        <ele>512</ele>
        <time>2026-08-29T15:31:48Z</time>
      </trkpt>
      <trkpt lat="50.647995918989182" lon="13.372001498937607">
        <ele>512</ele>
        <time>2026-08-29T15:31:49Z</time>
      </trkpt>
      <trkpt lat="50.648024249821901" lon="13.371997140347958">
        <ele>512</ele>
        <time>2026-08-29T15:31:50Z</time>
      </trkpt>
      <trkpt lat="50.648051993921399" lon="13.371989261358976">
        <ele>512</ele>
        <time>2026-08-29T15:31:51Z</time>
      </trkpt>
      <trkpt lat="50.648084599524736" lon="13.371983226388693">
        <ele>512</ele>
        <time>2026-08-29T15:31:52Z</time>
      </trkpt>
      <trkpt lat="50.648117288947105" lon="13.371978867799044">
        <ele>512</ele>
        <time>2026-08-29T15:31:53Z</time>
      </trkpt>
      <trkpt lat="50.648146793246269" lon="13.37197476066649">
        <ele>512</ele>
        <time>2026-08-29T15:31:54Z</time>
      </trkpt>
      <trkpt lat="50.648181829601526" lon="13.371962942183018">
        <ele>511</ele>
        <time>2026-08-29T15:31:55Z</time>
      </trkpt>
      <trkpt lat="50.648224074393511" lon="13.371959421783686">
        <ele>512</ele>
        <time>2026-08-29T15:31:56Z</time>
      </trkpt>
      <trkpt lat="50.648256931453943" lon="13.371953219175339">
        <ele>513</ele>
        <time>2026-08-29T15:31:57Z</time>
      </trkpt>
      <trkpt lat="50.648296494036913" lon="13.371949531137943">
        <ele>512</ele>
        <time>2026-08-29T15:31:58Z</time>
      </trkpt>
      <trkpt lat="50.648329937830567" lon="13.371935533359647">
        <ele>512</ele>
        <time>2026-08-29T15:31:59Z</time>
      </trkpt>
      <trkpt lat="50.648359023034573" lon="13.371916003525257">
        <ele>513</ele>
        <time>2026-08-29T15:32:00Z</time>
      </trkpt>
      <trkpt lat="50.648383414372802" lon="13.371889935806394">
        <ele>512</ele>
        <time>2026-08-29T15:32:01Z</time>
      </trkpt>
      <trkpt lat="50.648414175957441" lon="13.371871579438448">
        <ele>513</ele>
        <time>2026-08-29T15:32:02Z</time>
      </trkpt>
      <trkpt lat="50.648441165685654" lon="13.371849115937948">
        <ele>513</ele>
        <time>2026-08-29T15:32:03Z</time>
      </trkpt>
      <trkpt lat="50.648465976119041" lon="13.371818689629436">
        <ele>513</ele>
        <time>2026-08-29T15:32:04Z</time>
      </trkpt>
      <trkpt lat="50.648485422134399" lon="13.371780719608068">
        <ele>513</ele>
        <time>2026-08-29T15:32:05Z</time>
      </trkpt>
      <trkpt lat="50.648502269759774" lon="13.371743084862828">
        <ele>513</ele>
        <time>2026-08-29T15:32:06Z</time>
      </trkpt>
      <trkpt lat="50.648525571450591" lon="13.371709054335952">
        <ele>513</ele>
        <time>2026-08-29T15:32:07Z</time>
      </trkpt>
      <trkpt lat="50.64854308962822" lon="13.371674939990044">
        <ele>513</ele>
        <time>2026-08-29T15:32:08Z</time>
      </trkpt>
      <trkpt lat="50.648552728816867" lon="13.371626660227776">
        <ele>513</ele>
        <time>2026-08-29T15:32:09Z</time>
      </trkpt>
      <trkpt lat="50.64856119453907" lon="13.371571926400065">
        <ele>513</ele>
        <time>2026-08-29T15:32:10Z</time>
      </trkpt>
      <trkpt lat="50.648576281964779" lon="13.371529430150986">
        <ele>513</ele>
        <time>2026-08-29T15:32:11Z</time>
      </trkpt>
      <trkpt lat="50.648592878133059" lon="13.371478635817766">
        <ele>513</ele>
        <time>2026-08-29T15:32:12Z</time>
      </trkpt>
      <trkpt lat="50.64860763028264" lon="13.371419375762343">
        <ele>512</ele>
        <time>2026-08-29T15:32:13Z</time>
      </trkpt>
      <trkpt lat="50.648631602525711" lon="13.37136690504849">
        <ele>512</ele>
        <time>2026-08-29T15:32:14Z</time>
      </trkpt>
      <trkpt lat="50.64865599386394" lon="13.371311333030462">
        <ele>512</ele>
        <time>2026-08-29T15:32:15Z</time>
      </trkpt>
      <trkpt lat="50.648672338575125" lon="13.371258191764355">
        <ele>512</ele>
        <time>2026-08-29T15:32:16Z</time>
      </trkpt>
      <trkpt lat="50.648690778762102" lon="13.371195159852505">
        <ele>513</ele>
        <time>2026-08-29T15:32:17Z</time>
      </trkpt>
      <trkpt lat="50.648712320253253" lon="13.371141012758017">
        <ele>512</ele>
        <time>2026-08-29T15:32:18Z</time>
      </trkpt>
      <trkpt lat="50.648738807067275" lon="13.371082171797752">
        <ele>512</ele>
        <time>2026-08-29T15:32:19Z</time>
      </trkpt>
      <trkpt lat="50.648760264739394" lon="13.371026013046503">
        <ele>512</ele>
        <time>2026-08-29T15:32:20Z</time>
      </trkpt>
      <trkpt lat="50.648779207840562" lon="13.370975302532315">
        <ele>512</ele>
        <time>2026-08-29T15:32:21Z</time>
      </trkpt>
      <trkpt lat="50.648817010223866" lon="13.370929453521967">
        <ele>512</ele>
        <time>2026-08-29T15:32:22Z</time>
      </trkpt>
      <trkpt lat="50.648861769586802" lon="13.370893830433488">
        <ele>512</ele>
        <time>2026-08-29T15:32:23Z</time>
      </trkpt>
      <trkpt lat="50.648905104026198" lon="13.370876312255859">
        <ele>511</ele>
        <time>2026-08-29T15:32:24Z</time>
      </trkpt>
      <trkpt lat="50.64895698800683" lon="13.370871115475893">
        <ele>510</ele>
        <time>2026-08-29T15:32:25Z</time>
      </trkpt>
      <trkpt lat="50.64901314675808" lon="13.370882933959365">
        <ele>510</ele>
        <time>2026-08-29T15:32:26Z</time>
      </trkpt>
      <trkpt lat="50.649062348529696" lon="13.370904559269547">
        <ele>509</ele>
        <time>2026-08-29T15:32:27Z</time>
      </trkpt>
      <trkpt lat="50.649109957739711" lon="13.370930040255189">
        <ele>508</ele>
        <time>2026-08-29T15:32:28Z</time>
      </trkpt>
      <trkpt lat="50.649163350462914" lon="13.370944540947676">
        <ele>508</ele>
        <time>2026-08-29T15:32:29Z</time>
      </trkpt>
      <trkpt lat="50.649214731529355" lon="13.370938086882234">
        <ele>508</ele>
        <time>2026-08-29T15:32:30Z</time>
      </trkpt>
      <trkpt lat="50.649262508377433" lon="13.370925011113286">
        <ele>508</ele>
        <time>2026-08-29T15:32:31Z</time>
      </trkpt>
      <trkpt lat="50.649299640208483" lon="13.37089391425252">
        <ele>508</ele>
        <time>2026-08-29T15:32:32Z</time>
      </trkpt>
      <trkpt lat="50.649341298267245" lon="13.370850244536996">
        <ele>509</ele>
        <time>2026-08-29T15:32:33Z</time>
      </trkpt>
      <trkpt lat="50.649379100650549" lon="13.370803808793426">
        <ele>508</ele>
        <time>2026-08-29T15:32:34Z</time>
      </trkpt>
      <trkpt lat="50.649408437311649" lon="13.370755612850189">
        <ele>509</ele>
        <time>2026-08-29T15:32:35Z</time>
      </trkpt>
      <trkpt lat="50.649442886933684" lon="13.370733400806785">
        <ele>509</ele>
        <time>2026-08-29T15:32:36Z</time>
      </trkpt>
      <trkpt lat="50.649478258565068" lon="13.370739603415132">
        <ele>509</ele>
        <time>2026-08-29T15:32:37Z</time>
      </trkpt>
      <trkpt lat="50.649507259950042" lon="13.370770616456866">
        <ele>508</ele>
        <time>2026-08-29T15:32:38Z</time>
      </trkpt>
      <trkpt lat="50.649528549984097" lon="13.370811268687248">
        <ele>509</ele>
        <time>2026-08-29T15:32:39Z</time>
      </trkpt>
      <trkpt lat="50.649552270770073" lon="13.370884861797094">
        <ele>509</ele>
        <time>2026-08-29T15:32:40Z</time>
      </trkpt>
      <trkpt lat="50.64956434071064" lon="13.370938505977392">
        <ele>509</ele>
        <time>2026-08-29T15:32:41Z</time>
      </trkpt>
      <trkpt lat="50.649582697078586" lon="13.371010506525636">
        <ele>509</ele>
        <time>2026-08-29T15:32:42Z</time>
      </trkpt>
      <trkpt lat="50.649603148922324" lon="13.371082507073879">
        <ele>509</ele>
        <time>2026-08-29T15:32:43Z</time>
      </trkpt>
      <trkpt lat="50.649612201377749" lon="13.371150149032474">
        <ele>510</ele>
        <time>2026-08-29T15:32:44Z</time>
      </trkpt>
      <trkpt lat="50.649622930213809" lon="13.371215192601085">
        <ele>510</ele>
        <time>2026-08-29T15:32:45Z</time>
      </trkpt>
      <trkpt lat="50.64963323995471" lon="13.371289372444153">
        <ele>510</ele>
        <time>2026-08-29T15:32:46Z</time>
      </trkpt>
      <trkpt lat="50.649651931598783" lon="13.371368916705251">
        <ele>510</ele>
        <time>2026-08-29T15:32:47Z</time>
      </trkpt>
      <trkpt lat="50.649670790880919" lon="13.371443934738636">
        <ele>511</ele>
        <time>2026-08-29T15:32:48Z</time>
      </trkpt>
      <trkpt lat="50.649684369564056" lon="13.371522221714258">
        <ele>511</ele>
        <time>2026-08-29T15:32:49Z</time>
      </trkpt>
      <trkpt lat="50.649700881913304" lon="13.371598916128278">
        <ele>511</ele>
        <time>2026-08-29T15:32:50Z</time>
      </trkpt>
      <trkpt lat="50.649710772559047" lon="13.37167770601809">
        <ele>511</ele>
        <time>2026-08-29T15:32:51Z</time>
      </trkpt>
      <trkpt lat="50.649722088128328" lon="13.371744593605399">
        <ele>511</ele>
        <time>2026-08-29T15:32:52Z</time>
      </trkpt>
      <trkpt lat="50.649730889126658" lon="13.371818605810404">
        <ele>511</ele>
        <time>2026-08-29T15:32:53Z</time>
      </trkpt>
      <trkpt lat="50.649740193039179" lon="13.371889013797045">
        <ele>511</ele>
        <time>2026-08-29T15:32:54Z</time>
      </trkpt>
      <trkpt lat="50.64974513836205" lon="13.371957493945956">
        <ele>511</ele>
        <time>2026-08-29T15:32:55Z</time>
      </trkpt>
      <trkpt lat="50.649750670418143" lon="13.372033182531595">
        <ele>511</ele>
        <time>2026-08-29T15:32:56Z</time>
      </trkpt>
      <trkpt lat="50.649749832227826" lon="13.372112223878503">
        <ele>510</ele>
        <time>2026-08-29T15:32:57Z</time>
      </trkpt>
      <trkpt lat="50.649746479466558" lon="13.372187744826078">
        <ele>510</ele>
        <time>2026-08-29T15:32:58Z</time>
      </trkpt>
      <trkpt lat="50.649733068421483" lon="13.372263852506876">
        <ele>509</ele>
        <time>2026-08-29T15:32:59Z</time>
      </trkpt>
      <trkpt lat="50.649718148633838" lon="13.372345911338925">
        <ele>510</ele>
        <time>2026-08-29T15:33:00Z</time>
      </trkpt>
      <trkpt lat="50.64970264211297" lon="13.372414978221059">
        <ele>509</ele>
        <time>2026-08-29T15:33:01Z</time>
      </trkpt>
      <trkpt lat="50.649679591879249" lon="13.372489828616381">
        <ele>509</ele>
        <time>2026-08-29T15:33:02Z</time>
      </trkpt>
      <trkpt lat="50.649657379835844" lon="13.372541880235076">
        <ele>509</ele>
        <time>2026-08-29T15:33:03Z</time>
      </trkpt>
      <trkpt lat="50.649634078145027" lon="13.372596530243754">
        <ele>509</ele>
        <time>2026-08-29T15:33:04Z</time>
      </trkpt>
      <trkpt lat="50.649602226912975" lon="13.372656796127558">
        <ele>509</ele>
        <time>2026-08-29T15:33:05Z</time>
      </trkpt>
      <trkpt lat="50.649562496691942" lon="13.372715301811695">
        <ele>509</ele>
        <time>2026-08-29T15:33:06Z</time>
      </trkpt>
      <trkpt lat="50.649529136717319" lon="13.372764671221375">
        <ele>509</ele>
        <time>2026-08-29T15:33:07Z</time>
      </trkpt>
      <trkpt lat="50.649493932723999" lon="13.372811861336231">
        <ele>510</ele>
        <time>2026-08-29T15:33:08Z</time>
      </trkpt>
      <trkpt lat="50.649457219988108" lon="13.372862236574292">
        <ele>510</ele>
        <time>2026-08-29T15:33:09Z</time>
      </trkpt>
      <trkpt lat="50.649422267451882" lon="13.372917138040066">
        <ele>510</ele>
        <time>2026-08-29T15:33:10Z</time>
      </trkpt>
      <trkpt lat="50.649381028488278" lon="13.37297648191452">
        <ele>510</ele>
        <time>2026-08-29T15:33:11Z</time>
      </trkpt>
      <trkpt lat="50.649339118972421" lon="13.373034652322531">
        <ele>510</ele>
        <time>2026-08-29T15:33:12Z</time>
      </trkpt>
      <trkpt lat="50.649296957999468" lon="13.373092655092478">
        <ele>510</ele>
        <time>2026-08-29T15:33:13Z</time>
      </trkpt>
      <trkpt lat="50.649255802854896" lon="13.373141856864095">
        <ele>510</ele>
        <time>2026-08-29T15:33:14Z</time>
      </trkpt>
      <trkpt lat="50.649215821176767" lon="13.373196506872773">
        <ele>511</ele>
        <time>2026-08-29T15:33:15Z</time>
      </trkpt>
      <trkpt lat="50.649176510050893" lon="13.373242607340217">
        <ele>511</ele>
        <time>2026-08-29T15:33:16Z</time>
      </trkpt>
      <trkpt lat="50.649130074307323" lon="13.373291306197643">
        <ele>510</ele>
        <time>2026-08-29T15:33:17Z</time>
      </trkpt>
      <trkpt lat="50.649089589715004" lon="13.373328940942883">
        <ele>510</ele>
        <time>2026-08-29T15:33:18Z</time>
      </trkpt>
      <trkpt lat="50.64905078150332" lon="13.373357523232698">
        <ele>511</ele>
        <time>2026-08-29T15:33:19Z</time>
      </trkpt>
      <trkpt lat="50.649019768461585" lon="13.373384764418006">
        <ele>511</ele>
        <time>2026-08-29T15:33:20Z</time>
      </trkpt>
      <trkpt lat="50.648982468992472" lon="13.373415777459741">
        <ele>512</ele>
        <time>2026-08-29T15:33:21Z</time>
      </trkpt>
      <trkpt lat="50.648943828418851" lon="13.373440755531192">
        <ele>512</ele>
        <time>2026-08-29T15:33:22Z</time>
      </trkpt>
      <trkpt lat="50.648908540606499" lon="13.373466404154897">
        <ele>513</ele>
        <time>2026-08-29T15:33:23Z</time>
      </trkpt>
      <trkpt lat="50.648872079327703" lon="13.373491717502475">
        <ele>513</ele>
        <time>2026-08-29T15:33:24Z</time>
      </trkpt>
      <trkpt lat="50.648839809000492" lon="13.373514181002975">
        <ele>513</ele>
        <time>2026-08-29T15:33:25Z</time>
      </trkpt>
      <trkpt lat="50.648809131234884" lon="13.373540583997965">
        <ele>513</ele>
        <time>2026-08-29T15:33:26Z</time>
      </trkpt>
      <trkpt lat="50.648779375478625" lon="13.373558521270752">
        <ele>513</ele>
        <time>2026-08-29T15:33:27Z</time>
      </trkpt>
      <trkpt lat="50.648748446255922" lon="13.37358626537025">
        <ele>514</ele>
        <time>2026-08-29T15:33:28Z</time>
      </trkpt>
      <trkpt lat="50.648717349395156" lon="13.373602107167244">
        <ele>514</ele>
        <time>2026-08-29T15:33:29Z</time>
      </trkpt>
      <trkpt lat="50.64868776127696" lon="13.373622475191951">
        <ele>514</ele>
        <time>2026-08-29T15:33:30Z</time>
      </trkpt>
      <trkpt lat="50.64865255728364" lon="13.373638736084104">
        <ele>514</ele>
        <time>2026-08-29T15:33:31Z</time>
      </trkpt>
      <trkpt lat="50.648622801527381" lon="13.373662624508142">
        <ele>515</ele>
        <time>2026-08-29T15:33:32Z</time>
      </trkpt>
      <trkpt lat="50.648587429895997" lon="13.373684920370579">
        <ele>515</ele>
        <time>2026-08-29T15:33:33Z</time>
      </trkpt>
      <trkpt lat="50.648559099063277" lon="13.373705791309476">
        <ele>515</ele>
        <time>2026-08-29T15:33:34Z</time>
      </trkpt>
      <trkpt lat="50.648525655269623" lon="13.373725991696119">
        <ele>515</ele>
        <time>2026-08-29T15:33:35Z</time>
      </trkpt>
      <trkpt lat="50.648491457104683" lon="13.373755998909473">
        <ele>515</ele>
        <time>2026-08-29T15:33:36Z</time>
      </trkpt>
      <trkpt lat="50.64845466054976" lon="13.373778127133846">
        <ele>516</ele>
        <time>2026-08-29T15:33:37Z</time>
      </trkpt>
      <trkpt lat="50.648416522890329" lon="13.373806122690439">
        <ele>516</ele>
        <time>2026-08-29T15:33:38Z</time>
      </trkpt>
      <trkpt lat="50.648380229249597" lon="13.373831268399954">
        <ele>516</ele>
        <time>2026-08-29T15:33:39Z</time>
      </trkpt>
      <trkpt lat="50.648346617817879" lon="13.373857336118817">
        <ele>516</ele>
        <time>2026-08-29T15:33:40Z</time>
      </trkpt>
      <trkpt lat="50.648307725787163" lon="13.373872423544526">
        <ele>517</ele>
        <time>2026-08-29T15:33:41Z</time>
      </trkpt>
      <trkpt lat="50.648272102698684" lon="13.373891701921821">
        <ele>517</ele>
        <time>2026-08-29T15:33:42Z</time>
      </trkpt>
      <trkpt lat="50.648236060515046" lon="13.373913578689098">
        <ele>517</ele>
        <time>2026-08-29T15:33:43Z</time>
      </trkpt>
      <trkpt lat="50.648199180141091" lon="13.373932018876076">
        <ele>517</ele>
        <time>2026-08-29T15:33:44Z</time>
      </trkpt>
      <trkpt lat="50.648163137957454" lon="13.373954482376575">
        <ele>518</ele>
        <time>2026-08-29T15:33:45Z</time>
      </trkpt>
      <trkpt lat="50.648128017783165" lon="13.373975520953536">
        <ele>518</ele>
        <time>2026-08-29T15:33:46Z</time>
      </trkpt>
      <trkpt lat="50.648092059418559" lon="13.373998990282416">
        <ele>518</ele>
        <time>2026-08-29T15:33:47Z</time>
      </trkpt>
      <trkpt lat="50.648061549291015" lon="13.374021286144853">
        <ele>518</ele>
        <time>2026-08-29T15:33:48Z</time>
      </trkpt>
      <trkpt lat="50.648027183488011" lon="13.374042073264718">
        <ele>518</ele>
        <time>2026-08-29T15:33:49Z</time>
      </trkpt>
      <trkpt lat="50.647996254265308" lon="13.374070823192596">
        <ele>518</ele>
        <time>2026-08-29T15:33:50Z</time>
      </trkpt>
      <trkpt lat="50.647961050271988" lon="13.374091107398272">
        <ele>518</ele>
        <time>2026-08-29T15:33:51Z</time>
      </trkpt>
      <trkpt lat="50.647925594821572" lon="13.374110637232661">
        <ele>518</ele>
        <time>2026-08-29T15:33:52Z</time>
      </trkpt>
      <trkpt lat="50.647886451333761" lon="13.374123796820641">
        <ele>519</ele>
        <time>2026-08-29T15:33:53Z</time>
      </trkpt>
      <trkpt lat="50.647852001711726" lon="13.37413695640862">
        <ele>519</ele>
        <time>2026-08-29T15:33:54Z</time>
      </trkpt>
      <trkpt lat="50.647818390280008" lon="13.374150115996599">
        <ele>520</ele>
        <time>2026-08-29T15:33:55Z</time>
      </trkpt>
      <trkpt lat="50.647783437743783" lon="13.374161012470722">
        <ele>520</ele>
        <time>2026-08-29T15:33:56Z</time>
      </trkpt>
      <trkpt lat="50.647750413045287" lon="13.374172747135162">
        <ele>520</ele>
        <time>2026-08-29T15:33:57Z</time>
      </trkpt>
      <trkpt lat="50.647716801613569" lon="13.374180374667048">
        <ele>520</ele>
        <time>2026-08-29T15:33:58Z</time>
      </trkpt>
      <trkpt lat="50.647680591791868" lon="13.374188337475061">
        <ele>521</ele>
        <time>2026-08-29T15:33:59Z</time>
      </trkpt>
      <trkpt lat="50.647643879055977" lon="13.374200826510787">
        <ele>521</ele>
        <time>2026-08-29T15:34:00Z</time>
      </trkpt>
      <trkpt lat="50.647607836872339" lon="13.374207867309451">
        <ele>522</ele>
        <time>2026-08-29T15:34:01Z</time>
      </trkpt>
      <trkpt lat="50.647570621222258" lon="13.374213483184576">
        <ele>522</ele>
        <time>2026-08-29T15:34:02Z</time>
      </trkpt>
      <trkpt lat="50.647535668686032" lon="13.374219182878733">
        <ele>522</ele>
        <time>2026-08-29T15:34:03Z</time>
      </trkpt>
      <trkpt lat="50.647499458864331" lon="13.374221781268716">
        <ele>522</ele>
        <time>2026-08-29T15:34:04Z</time>
      </trkpt>
      <trkpt lat="50.647461824119091" lon="13.374223709106445">
        <ele>523</ele>
        <time>2026-08-29T15:34:05Z</time>
      </trkpt>
      <trkpt lat="50.6474251113832" lon="13.374229408800602">
        <ele>523</ele>
        <time>2026-08-29T15:34:06Z</time>
      </trkpt>
      <trkpt lat="50.647388650104403" lon="13.374233683571219">
        <ele>524</ele>
        <time>2026-08-29T15:34:07Z</time>
      </trkpt>
      <trkpt lat="50.647351099178195" lon="13.37424055673182">
        <ele>524</ele>
        <time>2026-08-29T15:34:08Z</time>
      </trkpt>
      <trkpt lat="50.647314721718431" lon="13.374247848987579">
        <ele>524</ele>
        <time>2026-08-29T15:34:09Z</time>
      </trkpt>
      <trkpt lat="50.647270800545812" lon="13.374265367165208">
        <ele>524</ele>
        <time>2026-08-29T15:34:10Z</time>
      </trkpt>
      <trkpt lat="50.647233920171857" lon="13.374276766553521">
        <ele>524</ele>
        <time>2026-08-29T15:34:11Z</time>
      </trkpt>
      <trkpt lat="50.647195028141141" lon="13.374292189255357">
        <ele>524</ele>
        <time>2026-08-29T15:34:12Z</time>
      </trkpt>
      <trkpt lat="50.647156219929457" lon="13.374306773766875">
        <ele>525</ele>
        <time>2026-08-29T15:34:13Z</time>
      </trkpt>
      <trkpt lat="50.647116238251328" lon="13.37432362139225">
        <ele>525</ele>
        <time>2026-08-29T15:34:14Z</time>
      </trkpt>
      <trkpt lat="50.647081788629293" lon="13.374341893941164">
        <ele>526</ele>
        <time>2026-08-29T15:34:15Z</time>
      </trkpt>
      <trkpt lat="50.64704205840826" lon="13.374368213117123">
        <ele>526</ele>
        <time>2026-08-29T15:34:16Z</time>
      </trkpt>
      <trkpt lat="50.647005680948496" lon="13.374397046864033">
        <ele>526</ele>
        <time>2026-08-29T15:34:17Z</time>
      </trkpt>
      <trkpt lat="50.6469692196697" lon="13.374421102926135">
        <ele>527</ele>
        <time>2026-08-29T15:34:18Z</time>
      </trkpt>
      <trkpt lat="50.646934350952506" lon="13.374452786520123">
        <ele>527</ele>
        <time>2026-08-29T15:34:19Z</time>
      </trkpt>
      <trkpt lat="50.646897135302424" lon="13.374485140666366">
        <ele>528</ele>
        <time>2026-08-29T15:34:20Z</time>
      </trkpt>
      <trkpt lat="50.646861009299755" lon="13.374516908079386">
        <ele>528</ele>
        <time>2026-08-29T15:34:21Z</time>
      </trkpt>
      <trkpt lat="50.646822452545166" lon="13.374554459005594">
        <ele>528</ele>
        <time>2026-08-29T15:34:22Z</time>
      </trkpt>
      <trkpt lat="50.646787835285068" lon="13.374575162306428">
        <ele>528</ele>
        <time>2026-08-29T15:34:23Z</time>
      </trkpt>
      <trkpt lat="50.646752882748842" lon="13.374604163691401">
        <ele>528</ele>
        <time>2026-08-29T15:34:24Z</time>
      </trkpt>
      <trkpt lat="50.646712733432651" lon="13.374631321057677">
        <ele>528</ele>
        <time>2026-08-29T15:34:25Z</time>
      </trkpt>
      <trkpt lat="50.64667509868741" lon="13.374663423746824">
        <ele>528</ele>
        <time>2026-08-29T15:34:26Z</time>
      </trkpt>
      <trkpt lat="50.646633859723806" lon="13.374694101512432">
        <ele>528</ele>
        <time>2026-08-29T15:34:27Z</time>
      </trkpt>
      <trkpt lat="50.646594548597932" lon="13.37472285144031">
        <ele>528</ele>
        <time>2026-08-29T15:34:28Z</time>
      </trkpt>
      <trkpt lat="50.646559512242675" lon="13.374752355739474">
        <ele>528</ele>
        <time>2026-08-29T15:34:29Z</time>
      </trkpt>
      <trkpt lat="50.646517099812627" lon="13.374788565561175">
        <ele>528</ele>
        <time>2026-08-29T15:34:30Z</time>
      </trkpt>
      <trkpt lat="50.646469490602612" lon="13.374828547239304">
        <ele>528</ele>
        <time>2026-08-29T15:34:31Z</time>
      </trkpt>
      <trkpt lat="50.646419450640678" lon="13.374865846708417">
        <ele>528</ele>
        <time>2026-08-29T15:34:32Z</time>
      </trkpt>
      <trkpt lat="50.646368991583586" lon="13.374910103157163">
        <ele>528</ele>
        <time>2026-08-29T15:34:33Z</time>
      </trkpt>
      <trkpt lat="50.646315850317478" lon="13.374952934682369">
        <ele>527</ele>
        <time>2026-08-29T15:34:34Z</time>
      </trkpt>
      <trkpt lat="50.646257596090436" lon="13.374993335455656">
        <ele>528</ele>
        <time>2026-08-29T15:34:35Z</time>
      </trkpt>
      <trkpt lat="50.646201185882092" lon="13.375039184466004">
        <ele>527</ele>
        <time>2026-08-29T15:34:36Z</time>
      </trkpt>
      <trkpt lat="50.64614150673151" lon="13.37508880533278">
        <ele>526</ele>
        <time>2026-08-29T15:34:37Z</time>
      </trkpt>
      <trkpt lat="50.646086689084768" lon="13.375148568302393">
        <ele>526</ele>
        <time>2026-08-29T15:34:38Z</time>
      </trkpt>
      <trkpt lat="50.646027261391282" lon="13.375201877206564">
        <ele>526</ele>
        <time>2026-08-29T15:34:39Z</time>
      </trkpt>
      <trkpt lat="50.645965654402971" lon="13.375259879976511">
        <ele>525</ele>
        <time>2026-08-29T15:34:40Z</time>
      </trkpt>
      <trkpt lat="50.645904382690787" lon="13.375319223850965">
        <ele>525</ele>
        <time>2026-08-29T15:34:41Z</time>
      </trkpt>
      <trkpt lat="50.645843278616667" lon="13.375369682908058">
        <ele>525</ele>
        <time>2026-08-29T15:34:42Z</time>
      </trkpt>
      <trkpt lat="50.645781587809324" lon="13.375428356230259">
        <ele>525</ele>
        <time>2026-08-29T15:34:43Z</time>
      </trkpt>
      <trkpt lat="50.645726602524519" lon="13.375483173877001">
        <ele>525</ele>
        <time>2026-08-29T15:34:44Z</time>
      </trkpt>
      <trkpt lat="50.645666671916842" lon="13.375534135848284">
        <ele>525</ele>
        <time>2026-08-29T15:34:45Z</time>
      </trkpt>
      <trkpt lat="50.645607244223356" lon="13.37557889521122">
        <ele>525</ele>
        <time>2026-08-29T15:34:46Z</time>
      </trkpt>
      <trkpt lat="50.645552426576614" lon="13.375627174973488">
        <ele>524</ele>
        <time>2026-08-29T15:34:47Z</time>
      </trkpt>
      <trkpt lat="50.645496854558587" lon="13.375684004276991">
        <ele>524</ele>
        <time>2026-08-29T15:34:48Z</time>
      </trkpt>
      <trkpt lat="50.645437091588974" lon="13.375744270160794">
        <ele>524</ele>
        <time>2026-08-29T15:34:49Z</time>
      </trkpt>
      <trkpt lat="50.6453787535429" lon="13.375799506902695">
        <ele>524</ele>
        <time>2026-08-29T15:34:50Z</time>
      </trkpt>
      <trkpt lat="50.645317733287811" lon="13.375860527157784">
        <ele>524</ele>
        <time>2026-08-29T15:34:51Z</time>
      </trkpt>
      <trkpt lat="50.645258640870452" lon="13.37591459043324">
        <ele>524</ele>
        <time>2026-08-29T15:34:52Z</time>
      </trkpt>
      <trkpt lat="50.645202230662107" lon="13.375967815518379">
        <ele>524</ele>
        <time>2026-08-29T15:34:53Z</time>
      </trkpt>
      <trkpt lat="50.645141964778304" lon="13.376022214069963">
        <ele>524</ele>
        <time>2026-08-29T15:34:54Z</time>
      </trkpt>
      <trkpt lat="50.645091840997338" lon="13.376068230718374">
        <ele>524</ele>
        <time>2026-08-29T15:34:55Z</time>
      </trkpt>
      <trkpt lat="50.645038699731231" lon="13.376114163547754">
        <ele>524</ele>
        <time>2026-08-29T15:34:56Z</time>
      </trkpt>
      <trkpt lat="50.644987486302853" lon="13.376163113862276">
        <ele>524</ele>
        <time>2026-08-29T15:34:57Z</time>
      </trkpt>
      <trkpt lat="50.644933171570301" lon="13.37620628066361">
        <ele>524</ele>
        <time>2026-08-29T15:34:58Z</time>
      </trkpt>
      <trkpt lat="50.644882628694177" lon="13.37624978274107">
        <ele>524</ele>
        <time>2026-08-29T15:34:59Z</time>
      </trkpt>
      <trkpt lat="50.64483149908483" lon="13.376297978684306">
        <ele>524</ele>
        <time>2026-08-29T15:35:00Z</time>
      </trkpt>
      <trkpt lat="50.644783135503531" lon="13.376343743875623">
        <ele>524</ele>
        <time>2026-08-29T15:35:01Z</time>
      </trkpt>
      <trkpt lat="50.644734688103199" lon="13.376392023637891">
        <ele>524</ele>
        <time>2026-08-29T15:35:02Z</time>
      </trkpt>
      <trkpt lat="50.64468489959836" lon="13.376433430239558">
        <ele>524</ele>
        <time>2026-08-29T15:35:03Z</time>
      </trkpt>
      <trkpt lat="50.644634608179331" lon="13.37647894397378">
        <ele>525</ele>
        <time>2026-08-29T15:35:04Z</time>
      </trkpt>
      <trkpt lat="50.644584149122238" lon="13.376526217907667">
        <ele>524</ele>
        <time>2026-08-29T15:35:05Z</time>
      </trkpt>
      <trkpt lat="50.644536623731256" lon="13.376576844602823">
        <ele>525</ele>
        <time>2026-08-29T15:35:06Z</time>
      </trkpt>
      <trkpt lat="50.644485494121909" lon="13.376619759947062">
        <ele>525</ele>
        <time>2026-08-29T15:35:07Z</time>
      </trkpt>
      <trkpt lat="50.644435621798038" lon="13.376667788252234">
        <ele>525</ele>
        <time>2026-08-29T15:35:08Z</time>
      </trkpt>
      <trkpt lat="50.644384073093534" lon="13.376708524301648">
        <ele>526</ele>
        <time>2026-08-29T15:35:09Z</time>
      </trkpt>
      <trkpt lat="50.644334619864821" lon="13.376754289492965">
        <ele>525</ele>
        <time>2026-08-29T15:35:10Z</time>
      </trkpt>
      <trkpt lat="50.644284998998046" lon="13.376801479607821">
        <ele>525</ele>
        <time>2026-08-29T15:35:11Z</time>
      </trkpt>
      <trkpt lat="50.644236467778683" lon="13.376855542883277">
        <ele>526</ele>
        <time>2026-08-29T15:35:12Z</time>
      </trkpt>
      <trkpt lat="50.644185002893209" lon="13.376906337216496">
        <ele>527</ele>
        <time>2026-08-29T15:35:13Z</time>
      </trkpt>
      <trkpt lat="50.644138902425766" lon="13.376956460997462">
        <ele>527</ele>
        <time>2026-08-29T15:35:14Z</time>
      </trkpt>
      <trkpt lat="50.644095065072179" lon="13.377001387998462">
        <ele>528</ele>
        <time>2026-08-29T15:35:15Z</time>
      </trkpt>
      <trkpt lat="50.644049970433116" lon="13.377046482637525">
        <ele>528</ele>
        <time>2026-08-29T15:35:16Z</time>
      </trkpt>
      <trkpt lat="50.644003031775355" lon="13.377089649438858">
        <ele>528</ele>
        <time>2026-08-29T15:35:17Z</time>
      </trkpt>
      <trkpt lat="50.643953075632453" lon="13.377130720764399">
        <ele>529</ele>
        <time>2026-08-29T15:35:18Z</time>
      </trkpt>
      <trkpt lat="50.643901946023107" lon="13.377178162336349">
        <ele>529</ele>
        <time>2026-08-29T15:35:19Z</time>
      </trkpt>
      <trkpt lat="50.643846457824111" lon="13.377217976376414">
        <ele>529</ele>
        <time>2026-08-29T15:35:20Z</time>
      </trkpt>
      <trkpt lat="50.643792059272528" lon="13.377259215340018">
        <ele>529</ele>
        <time>2026-08-29T15:35:21Z</time>
      </trkpt>
      <trkpt lat="50.643743863329291" lon="13.377305064350367">
        <ele>529</ele>
        <time>2026-08-29T15:35:22Z</time>
      </trkpt>
      <trkpt lat="50.64369348809123" lon="13.377351416274905">
        <ele>529</ele>
        <time>2026-08-29T15:35:23Z</time>
      </trkpt>
      <trkpt lat="50.643641771748662" lon="13.377397684380412">
        <ele>529</ele>
        <time>2026-08-29T15:35:24Z</time>
      </trkpt>
      <trkpt lat="50.643591647967696" lon="13.377446550875902">
        <ele>529</ele>
        <time>2026-08-29T15:35:25Z</time>
      </trkpt>
      <trkpt lat="50.643546218052506" lon="13.377494160085917">
        <ele>529</ele>
        <time>2026-08-29T15:35:26Z</time>
      </trkpt>
      <trkpt lat="50.643498860299587" lon="13.377540344372392">
        <ele>530</ele>
        <time>2026-08-29T15:35:27Z</time>
      </trkpt>
      <trkpt lat="50.643446892499924" lon="13.377586444839835">
        <ele>530</ele>
        <time>2026-08-29T15:35:28Z</time>
      </trkpt>
      <trkpt lat="50.643395008519292" lon="13.377634976059198">
        <ele>530</ele>
        <time>2026-08-29T15:35:29Z</time>
      </trkpt>
      <trkpt lat="50.643344800919294" lon="13.377672526985407">
        <ele>530</ele>
        <time>2026-08-29T15:35:30Z</time>
      </trkpt>
      <trkpt lat="50.643297610804439" lon="13.377716783434153">
        <ele>530</ele>
        <time>2026-08-29T15:35:31Z</time>
      </trkpt>
      <trkpt lat="50.643249582499266" lon="13.37776405736804">
        <ele>531</ele>
        <time>2026-08-29T15:35:32Z</time>
      </trkpt>
      <trkpt lat="50.643201218917966" lon="13.377809403464198">
        <ele>530</ele>
        <time>2026-08-29T15:35:33Z</time>
      </trkpt>
      <trkpt lat="50.643152017146349" lon="13.377859946340322">
        <ele>530</ele>
        <time>2026-08-29T15:35:34Z</time>
      </trkpt>
      <trkpt lat="50.643103150650859" lon="13.37789498269558">
        <ele>531</ele>
        <time>2026-08-29T15:35:35Z</time>
      </trkpt>
      <trkpt lat="50.643051685765386" lon="13.37794485501945">
        <ele>531</ele>
        <time>2026-08-29T15:35:36Z</time>
      </trkpt>
      <trkpt lat="50.643000388517976" lon="13.377997828647494">
        <ele>531</ele>
        <time>2026-08-29T15:35:37Z</time>
      </trkpt>
      <trkpt lat="50.642952779307961" lon="13.378048036247492">
        <ele>532</ele>
        <time>2026-08-29T15:35:38Z</time>
      </trkpt>
      <trkpt lat="50.642903745174408" lon="13.378093047067523">
        <ele>531</ele>
        <time>2026-08-29T15:35:39Z</time>
      </trkpt>
      <trkpt lat="50.64285596832633" lon="13.378134034574032">
        <ele>532</ele>
        <time>2026-08-29T15:35:40Z</time>
      </trkpt>
      <trkpt lat="50.64280467107892" lon="13.378178793936968">
        <ele>532</ele>
        <time>2026-08-29T15:35:41Z</time>
      </trkpt>
      <trkpt lat="50.642754128202796" lon="13.378218105062842">
        <ele>532</ele>
        <time>2026-08-29T15:35:42Z</time>
      </trkpt>
      <trkpt lat="50.642705848440528" lon="13.37826588191092">
        <ele>532</ele>
        <time>2026-08-29T15:35:43Z</time>
      </trkpt>
      <trkpt lat="50.642665280029178" lon="13.378307288512588">
        <ele>532</ele>
        <time>2026-08-29T15:35:44Z</time>
      </trkpt>
      <trkpt lat="50.642622029408813" lon="13.378345426172018">
        <ele>532</ele>
        <time>2026-08-29T15:35:45Z</time>
      </trkpt>
      <trkpt lat="50.642578611150384" lon="13.378392951563001">
        <ele>532</ele>
        <time>2026-08-29T15:35:46Z</time>
      </trkpt>
      <trkpt lat="50.642539635300636" lon="13.378438884392381">
        <ele>532</ele>
        <time>2026-08-29T15:35:47Z</time>
      </trkpt>
      <trkpt lat="50.642499569803476" lon="13.37849504314363">
        <ele>532</ele>
        <time>2026-08-29T15:35:48Z</time>
      </trkpt>
      <trkpt lat="50.642461180686951" lon="13.378538126125932">
        <ele>532</ele>
        <time>2026-08-29T15:35:49Z</time>
      </trkpt>
      <trkpt lat="50.642421031370759" lon="13.378587746992707">
        <ele>532</ele>
        <time>2026-08-29T15:35:50Z</time>
      </trkpt>
      <trkpt lat="50.642370991408825" lon="13.378633009269834">
        <ele>532</ele>
        <time>2026-08-29T15:35:51Z</time>
      </trkpt>
      <trkpt lat="50.642333775758743" lon="13.378692604601383">
        <ele>532</ele>
        <time>2026-08-29T15:35:52Z</time>
      </trkpt>
      <trkpt lat="50.642304439097643" lon="13.378753373399377">
        <ele>532</ele>
        <time>2026-08-29T15:35:53Z</time>
      </trkpt>
      <trkpt lat="50.642272168770432" lon="13.378829145804048">
        <ele>532</ele>
        <time>2026-08-29T15:35:54Z</time>
      </trkpt>
      <trkpt lat="50.642245765775442" lon="13.378896284848452">
        <ele>532</ele>
        <time>2026-08-29T15:35:55Z</time>
      </trkpt>
      <trkpt lat="50.642210729420185" lon="13.378964681178331">
        <ele>532</ele>
        <time>2026-08-29T15:35:56Z</time>
      </trkpt>
      <trkpt lat="50.642178291454911" lon="13.379031149670482">
        <ele>533</ele>
        <time>2026-08-29T15:35:57Z</time>
      </trkpt>
      <trkpt lat="50.642143255099654" lon="13.379087978973985">
        <ele>533</ele>
        <time>2026-08-29T15:35:58Z</time>
      </trkpt>
      <trkpt lat="50.642107212916017" lon="13.379152603447437">
        <ele>532</ele>
        <time>2026-08-29T15:35:59Z</time>
      </trkpt>
      <trkpt lat="50.642069410532713" lon="13.37921379134059">
        <ele>532</ele>
        <time>2026-08-29T15:36:00Z</time>
      </trkpt>
      <trkpt lat="50.642034122720361" lon="13.379271375015378">
        <ele>533</ele>
        <time>2026-08-29T15:36:01Z</time>
      </trkpt>
      <trkpt lat="50.641998080536723" lon="13.379321834072471">
        <ele>533</ele>
        <time>2026-08-29T15:36:02Z</time>
      </trkpt>
      <trkpt lat="50.641963798552752" lon="13.379376567900181">
        <ele>534</ele>
        <time>2026-08-29T15:36:03Z</time>
      </trkpt>
      <trkpt lat="50.64193001948297" lon="13.379435911774635">
        <ele>534</ele>
        <time>2026-08-29T15:36:04Z</time>
      </trkpt>
      <trkpt lat="50.641897078603506" lon="13.379497351124883">
        <ele>534</ele>
        <time>2026-08-29T15:36:05Z</time>
      </trkpt>
      <trkpt lat="50.641861371695995" lon="13.379563987255096">
        <ele>534</ele>
        <time>2026-08-29T15:36:06Z</time>
      </trkpt>
      <trkpt lat="50.641829520463943" lon="13.379640681669116">
        <ele>535</ele>
        <time>2026-08-29T15:36:07Z</time>
      </trkpt>
      <trkpt lat="50.641798758879304" lon="13.379712766036391">
        <ele>535</ele>
        <time>2026-08-29T15:36:08Z</time>
      </trkpt>
      <trkpt lat="50.641764979809523" lon="13.379778899252415">
        <ele>535</ele>
        <time>2026-08-29T15:36:09Z</time>
      </trkpt>
      <trkpt lat="50.641730697825551" lon="13.379839500412345">
        <ele>535</ele>
        <time>2026-08-29T15:36:10Z</time>
      </trkpt>
      <trkpt lat="50.64169691875577" lon="13.379898173734546">
        <ele>535</ele>
        <time>2026-08-29T15:36:11Z</time>
      </trkpt>
      <trkpt lat="50.641659200191498" lon="13.37995802052319">
        <ele>535</ele>
        <time>2026-08-29T15:36:12Z</time>
      </trkpt>
      <trkpt lat="50.641625840216875" lon="13.380016190931201">
        <ele>535</ele>
        <time>2026-08-29T15:36:13Z</time>
      </trkpt>
      <trkpt lat="50.641596671193838" lon="13.380076289176941">
        <ele>535</ele>
        <time>2026-08-29T15:36:14Z</time>
      </trkpt>
      <trkpt lat="50.641566328704357" lon="13.380126915872097">
        <ele>536</ele>
        <time>2026-08-29T15:36:15Z</time>
      </trkpt>
      <trkpt lat="50.64153665676713" lon="13.380175530910492">
        <ele>536</ele>
        <time>2026-08-29T15:36:16Z</time>
      </trkpt>
      <trkpt lat="50.641501871868968" lon="13.38021744042635">
        <ele>536</ele>
        <time>2026-08-29T15:36:17Z</time>
      </trkpt>
      <trkpt lat="50.641461052000523" lon="13.380263457074761">
        <ele>537</ele>
        <time>2026-08-29T15:36:18Z</time>
      </trkpt>
      <trkpt lat="50.641420902684331" lon="13.380302684381604">
        <ele>537</ele>
        <time>2026-08-29T15:36:19Z</time>
      </trkpt>
      <trkpt lat="50.641378741711378" lon="13.380351047962904">
        <ele>536</ele>
        <time>2026-08-29T15:36:20Z</time>
      </trkpt>
      <trkpt lat="50.641340939328074" lon="13.380403770133853">
        <ele>536</ele>
        <time>2026-08-29T15:36:21Z</time>
      </trkpt>
      <trkpt lat="50.641302969306707" lon="13.380455235019326">
        <ele>537</ele>
        <time>2026-08-29T15:36:22Z</time>
      </trkpt>
      <trkpt lat="50.641269609332085" lon="13.380509801208973">
        <ele>537</ele>
        <time>2026-08-29T15:36:23Z</time>
      </trkpt>
      <trkpt lat="50.641229040920734" lon="13.38056000880897">
        <ele>537</ele>
        <time>2026-08-29T15:36:24Z</time>
      </trkpt>
      <trkpt lat="50.641192998737097" lon="13.380606696009636">
        <ele>537</ele>
        <time>2026-08-29T15:36:25Z</time>
      </trkpt>
      <trkpt lat="50.641153939068317" lon="13.380657993257046">
        <ele>537</ele>
        <time>2026-08-29T15:36:26Z</time>
      </trkpt>
      <trkpt lat="50.64112426713109" lon="13.380708619952202">
        <ele>537</ele>
        <time>2026-08-29T15:36:27Z</time>
      </trkpt>
      <trkpt lat="50.641100462526083" lon="13.380755642428994">
        <ele>538</ele>
        <time>2026-08-29T15:36:28Z</time>
      </trkpt>
      <trkpt lat="50.641068611294031" lon="13.380806855857372">
        <ele>538</ele>
        <time>2026-08-29T15:36:29Z</time>
      </trkpt>
      <trkpt lat="50.641031730920076" lon="13.380858739838004">
        <ele>538</ele>
        <time>2026-08-29T15:36:30Z</time>
      </trkpt>
      <trkpt lat="50.640998622402549" lon="13.380901739001274">
        <ele>538</ele>
        <time>2026-08-29T15:36:31Z</time>
      </trkpt>
      <trkpt lat="50.640961909666657" lon="13.380947923287749">
        <ele>538</ele>
        <time>2026-08-29T15:36:32Z</time>
      </trkpt>
      <trkpt lat="50.640930812805891" lon="13.380995616316795">
        <ele>537</ele>
        <time>2026-08-29T15:36:33Z</time>
      </trkpt>
      <trkpt lat="50.640895189717412" lon="13.381055882200599">
        <ele>537</ele>
        <time>2026-08-29T15:36:34Z</time>
      </trkpt>
      <trkpt lat="50.64086333848536" lon="13.38110676035285">
        <ele>537</ele>
        <time>2026-08-29T15:36:35Z</time>
      </trkpt>
      <trkpt lat="50.640825871378183" lon="13.381143724545836">
        <ele>537</ele>
        <time>2026-08-29T15:36:36Z</time>
      </trkpt>
      <trkpt lat="50.640790499746799" lon="13.381189489737153">
        <ele>537</ele>
        <time>2026-08-29T15:36:37Z</time>
      </trkpt>
      <trkpt lat="50.640753619372845" lon="13.381235087290406">
        <ele>537</ele>
        <time>2026-08-29T15:36:38Z</time>
      </trkpt>
      <trkpt lat="50.640715816989541" lon="13.381280433386564">
        <ele>538</ele>
        <time>2026-08-29T15:36:39Z</time>
      </trkpt>
      <trkpt lat="50.640683211386204" lon="13.381329635158181">
        <ele>538</ele>
        <time>2026-08-29T15:36:40Z</time>
      </trkpt>
      <trkpt lat="50.640648091211915" lon="13.381384871900082">
        <ele>538</ele>
        <time>2026-08-29T15:36:41Z</time>
      </trkpt>
      <trkpt lat="50.640611127018929" lon="13.381431056186557">
        <ele>538</ele>
        <time>2026-08-29T15:36:42Z</time>
      </trkpt>
      <trkpt lat="50.640574917197227" lon="13.381468104198575">
        <ele>538</ele>
        <time>2026-08-29T15:36:43Z</time>
      </trkpt>
      <trkpt lat="50.64053543843329" lon="13.381512779742479">
        <ele>539</ele>
        <time>2026-08-29T15:36:44Z</time>
      </trkpt>
      <trkpt lat="50.640499731525779" lon="13.381555695086718">
        <ele>539</ele>
        <time>2026-08-29T15:36:45Z</time>
      </trkpt>
      <trkpt lat="50.64046947285533" lon="13.381604058668017">
        <ele>539</ele>
        <time>2026-08-29T15:36:46Z</time>
      </trkpt>
      <trkpt lat="50.640435609966516" lon="13.381648734211922">
        <ele>539</ele>
        <time>2026-08-29T15:36:47Z</time>
      </trkpt>
      <trkpt lat="50.640400573611259" lon="13.381693409755826">
        <ele>539</ele>
        <time>2026-08-29T15:36:48Z</time>
      </trkpt>
      <trkpt lat="50.640367968007922" lon="13.381735319271684">
        <ele>540</ele>
        <time>2026-08-29T15:36:49Z</time>
      </trkpt>
      <trkpt lat="50.640326561406255" lon="13.38176591321826">
        <ele>539</ele>
        <time>2026-08-29T15:36:50Z</time>
      </trkpt>
      <trkpt lat="50.640288926661015" lon="13.381816707551479">
        <ele>539</ele>
        <time>2026-08-29T15:36:51Z</time>
      </trkpt>
      <trkpt lat="50.640251543372869" lon="13.381859622895718">
        <ele>539</ele>
        <time>2026-08-29T15:36:52Z</time>
      </trkpt>
      <trkpt lat="50.640213740989566" lon="13.381893653422594">
        <ele>539</ele>
        <time>2026-08-29T15:36:53Z</time>
      </trkpt>
      <trkpt lat="50.640174429863691" lon="13.381934640929103">
        <ele>540</ele>
        <time>2026-08-29T15:36:54Z</time>
      </trkpt>
      <trkpt lat="50.640132101252675" lon="13.381980070844293">
        <ele>539</ele>
        <time>2026-08-29T15:36:55Z</time>
      </trkpt>
      <trkpt lat="50.64009421505034" lon="13.382018292322755">
        <ele>539</ele>
        <time>2026-08-29T15:36:56Z</time>
      </trkpt>
      <trkpt lat="50.640062531456351" lon="13.38206154294312">
        <ele>539</ele>
        <time>2026-08-29T15:36:57Z</time>
      </trkpt>
      <trkpt lat="50.640024309977889" lon="13.382100267335773">
        <ele>539</ele>
        <time>2026-08-29T15:36:58Z</time>
      </trkpt>
      <trkpt lat="50.639992039650679" lon="13.382142093032598">
        <ele>539</ele>
        <time>2026-08-29T15:36:59Z</time>
      </trkpt>
      <trkpt lat="50.639958092942834" lon="13.38218710385263">
        <ele>539</ele>
        <time>2026-08-29T15:37:00Z</time>
      </trkpt>
      <trkpt lat="50.639919117093086" lon="13.382225995883346">
        <ele>539</ele>
        <time>2026-08-29T15:37:01Z</time>
      </trkpt>
      <trkpt lat="50.639882069081068" lon="13.382268073037267">
        <ele>539</ele>
        <time>2026-08-29T15:37:02Z</time>
      </trkpt>
      <trkpt lat="50.639848290011287" lon="13.382311826571822">
        <ele>539</ele>
        <time>2026-08-29T15:37:03Z</time>
      </trkpt>
      <trkpt lat="50.639815349131823" lon="13.382357340306044">
        <ele>540</ele>
        <time>2026-08-29T15:37:04Z</time>
      </trkpt>
      <trkpt lat="50.639782240614295" lon="13.382395813241601">
        <ele>540</ele>
        <time>2026-08-29T15:37:05Z</time>
      </trkpt>
      <trkpt lat="50.639742007479072" lon="13.382436046376824">
        <ele>541</ele>
        <time>2026-08-29T15:37:06Z</time>
      </trkpt>
      <trkpt lat="50.639708731323481" lon="13.382473094388843">
        <ele>541</ele>
        <time>2026-08-29T15:37:07Z</time>
      </trkpt>
      <trkpt lat="50.639672689139843" lon="13.382507795467973">
        <ele>541</ele>
        <time>2026-08-29T15:37:08Z</time>
      </trkpt>
      <trkpt lat="50.639637317508459" lon="13.382557835429907">
        <ele>541</ele>
        <time>2026-08-29T15:37:09Z</time>
      </trkpt>
      <trkpt lat="50.639595072716475" lon="13.382595553994179">
        <ele>542</ele>
        <time>2026-08-29T15:37:10Z</time>
      </trkpt>
      <trkpt lat="50.639556683599949" lon="13.382644923403859">
        <ele>542</ele>
        <time>2026-08-29T15:37:11Z</time>
      </trkpt>
      <trkpt lat="50.639516282826662" lon="13.382693203166127">
        <ele>542</ele>
        <time>2026-08-29T15:37:12Z</time>
      </trkpt>
      <trkpt lat="50.639483509585261" lon="13.382735531777143">
        <ele>542</ele>
        <time>2026-08-29T15:37:13Z</time>
      </trkpt>
      <trkpt lat="50.639441767707467" lon="13.382785068824887">
        <ele>543</ele>
        <time>2026-08-29T15:37:14Z</time>
      </trkpt>
      <trkpt lat="50.639405222609639" lon="13.382826307788491">
        <ele>543</ele>
        <time>2026-08-29T15:37:15Z</time>
      </trkpt>
      <trkpt lat="50.639373622834682" lon="13.382869893684983">
        <ele>544</ele>
        <time>2026-08-29T15:37:16Z</time>
      </trkpt>
      <trkpt lat="50.639339592307806" lon="13.382915323600173">
        <ele>544</ele>
        <time>2026-08-29T15:37:17Z</time>
      </trkpt>
      <trkpt lat="50.639304639771581" lon="13.382957233116031">
        <ele>544</ele>
        <time>2026-08-29T15:37:18Z</time>
      </trkpt>
      <trkpt lat="50.639264658093452" lon="13.382998136803508">
        <ele>545</ele>
        <time>2026-08-29T15:37:19Z</time>
      </trkpt>
      <trkpt lat="50.639227861538529" lon="13.383037364110351">
        <ele>544</ele>
        <time>2026-08-29T15:37:20Z</time>
      </trkpt>
      <trkpt lat="50.639196261763573" lon="13.383081369102001">
        <ele>544</ele>
        <time>2026-08-29T15:37:21Z</time>
      </trkpt>
      <trkpt lat="50.63916533254087" lon="13.383127385750413">
        <ele>545</ele>
        <time>2026-08-29T15:37:22Z</time>
      </trkpt>
      <trkpt lat="50.639134319499135" lon="13.38315898552537">
        <ele>544</ele>
        <time>2026-08-29T15:37:23Z</time>
      </trkpt>
      <trkpt lat="50.639100959524512" lon="13.383193770423532">
        <ele>545</ele>
        <time>2026-08-29T15:37:24Z</time>
      </trkpt>
      <trkpt lat="50.639070700854063" lon="13.383236937224865">
        <ele>545</ele>
        <time>2026-08-29T15:37:25Z</time>
      </trkpt>
      <trkpt lat="50.639035580679774" lon="13.383270464837551">
        <ele>545</ele>
        <time>2026-08-29T15:37:26Z</time>
      </trkpt>
      <trkpt lat="50.638999538496137" lon="13.383302232250571">
        <ele>545</ele>
        <time>2026-08-29T15:37:27Z</time>
      </trkpt>
      <trkpt lat="50.638960562646389" lon="13.383337520062923">
        <ele>545</ele>
        <time>2026-08-29T15:37:28Z</time>
      </trkpt>
      <trkpt lat="50.638926448300481" lon="13.383367527276278">
        <ele>545</ele>
        <time>2026-08-29T15:37:29Z</time>
      </trkpt>
      <trkpt lat="50.638890573754907" lon="13.383402312174439">
        <ele>545</ele>
        <time>2026-08-29T15:37:30Z</time>
      </trkpt>
      <trkpt lat="50.638855118304491" lon="13.383440198376775">
        <ele>545</ele>
        <time>2026-08-29T15:37:31Z</time>
      </trkpt>
      <trkpt lat="50.638825949281454" lon="13.383473558351398">
        <ele>546</ele>
        <time>2026-08-29T15:37:32Z</time>
      </trkpt>
      <trkpt lat="50.638790661469102" lon="13.383508007973433">
        <ele>546</ele>
        <time>2026-08-29T15:37:33Z</time>
      </trkpt>
      <trkpt lat="50.638756798580289" lon="13.383534327149391">
        <ele>546</ele>
        <time>2026-08-29T15:37:34Z</time>
      </trkpt>
      <trkpt lat="50.638721678406" lon="13.383569866418839">
        <ele>546</ele>
        <time>2026-08-29T15:37:35Z</time>
      </trkpt>
      <trkpt lat="50.638683289289474" lon="13.383601298555732">
        <ele>546</ele>
        <time>2026-08-29T15:37:36Z</time>
      </trkpt>
      <trkpt lat="50.638649761676788" lon="13.383637256920338">
        <ele>547</ele>
        <time>2026-08-29T15:37:37Z</time>
      </trkpt>
      <trkpt lat="50.638618329539895" lon="13.383676903322339">
        <ele>547</ele>
        <time>2026-08-29T15:37:38Z</time>
      </trkpt>
      <trkpt lat="50.638585137203336" lon="13.383704144507647">
        <ele>547</ele>
        <time>2026-08-29T15:37:39Z</time>
      </trkpt>
      <trkpt lat="50.638551861047745" lon="13.383730798959732">
        <ele>547</ele>
        <time>2026-08-29T15:37:40Z</time>
      </trkpt>
      <trkpt lat="50.638513891026378" lon="13.383749909698963">
        <ele>547</ele>
        <time>2026-08-29T15:37:41Z</time>
      </trkpt>
      <trkpt lat="50.638483045622706" lon="13.383783185854554">
        <ele>547</ele>
        <time>2026-08-29T15:37:42Z</time>
      </trkpt>
      <trkpt lat="50.638447338715196" lon="13.383805900812149">
        <ele>547</ele>
        <time>2026-08-29T15:37:43Z</time>
      </trkpt>
      <trkpt lat="50.638411128893495" lon="13.383836578577757">
        <ele>546</ele>
        <time>2026-08-29T15:37:44Z</time>
      </trkpt>
      <trkpt lat="50.638381289318204" lon="13.383863149210811">
        <ele>546</ele>
        <time>2026-08-29T15:37:45Z</time>
      </trkpt>
      <trkpt lat="50.638353461399674" lon="13.383893240243196">
        <ele>547</ele>
        <time>2026-08-29T15:37:46Z</time>
      </trkpt>
      <trkpt lat="50.638322029262781" lon="13.383918134495616">
        <ele>547</ele>
        <time>2026-08-29T15:37:47Z</time>
      </trkpt>
      <trkpt lat="50.638293111696839" lon="13.383951662108302">
        <ele>547</ele>
        <time>2026-08-29T15:37:48Z</time>
      </trkpt>
      <trkpt lat="50.638254638761282" lon="13.383977562189102">
        <ele>547</ele>
        <time>2026-08-29T15:37:49Z</time>
      </trkpt>
      <trkpt lat="50.63822178170085" lon="13.384011257439852">
        <ele>548</ele>
        <time>2026-08-29T15:37:50Z</time>
      </trkpt>
      <trkpt lat="50.638187164440751" lon="13.384048473089933">
        <ele>548</ele>
        <time>2026-08-29T15:37:51Z</time>
      </trkpt>
      <trkpt lat="50.638150200247765" lon="13.38407906703651">
        <ele>548</ele>
        <time>2026-08-29T15:37:52Z</time>
      </trkpt>
      <trkpt lat="50.638116840273142" lon="13.384111421182752">
        <ele>549</ele>
        <time>2026-08-29T15:37:53Z</time>
      </trkpt>
      <trkpt lat="50.638081636279821" lon="13.384144278243184">
        <ele>549</ele>
        <time>2026-08-29T15:37:54Z</time>
      </trkpt>
      <trkpt lat="50.63805271871388" lon="13.384178224951029">
        <ele>549</ele>
        <time>2026-08-29T15:37:55Z</time>
      </trkpt>
      <trkpt lat="50.638020783662796" lon="13.384207896888256">
        <ele>549</ele>
        <time>2026-08-29T15:37:56Z</time>
      </trkpt>
      <trkpt lat="50.637988429516554" lon="13.384245615452528">
        <ele>550</ele>
        <time>2026-08-29T15:37:57Z</time>
      </trkpt>
      <trkpt lat="50.637954231351614" lon="13.384274784475565">
        <ele>550</ele>
        <time>2026-08-29T15:37:58Z</time>
      </trkpt>
      <trkpt lat="50.637926319614053" lon="13.384306970983744">
        <ele>550</ele>
        <time>2026-08-29T15:37:59Z</time>
      </trkpt>
      <trkpt lat="50.637894300743937" lon="13.384344857186079">
        <ele>550</ele>
        <time>2026-08-29T15:38:00Z</time>
      </trkpt>
      <trkpt lat="50.637862449511886" lon="13.384386096149683">
        <ele>551</ele>
        <time>2026-08-29T15:38:01Z</time>
      </trkpt>
      <trkpt lat="50.637832526117563" lon="13.38442599400878">
        <ele>551</ele>
        <time>2026-08-29T15:38:02Z</time>
      </trkpt>
      <trkpt lat="50.637804698199034" lon="13.384465472772717">
        <ele>551</ele>
        <time>2026-08-29T15:38:03Z</time>
      </trkpt>
      <trkpt lat="50.637777876108885" lon="13.38451006449759">
        <ele>551</ele>
        <time>2026-08-29T15:38:04Z</time>
      </trkpt>
      <trkpt lat="50.637746779248118" lon="13.384563205763698">
        <ele>551</ele>
        <time>2026-08-29T15:38:05Z</time>
      </trkpt>
      <trkpt lat="50.637715850025415" lon="13.38460486382246">
        <ele>551</ele>
        <time>2026-08-29T15:38:06Z</time>
      </trkpt>
      <trkpt lat="50.637683495879173" lon="13.384641241282225">
        <ele>551</ele>
        <time>2026-08-29T15:38:07Z</time>
      </trkpt>
      <trkpt lat="50.637653572484851" lon="13.384671835228801">
        <ele>552</ele>
        <time>2026-08-29T15:38:08Z</time>
      </trkpt>
      <trkpt lat="50.637615770101547" lon="13.384708883240819">
        <ele>552</ele>
        <time>2026-08-29T15:38:09Z</time>
      </trkpt>
      <trkpt lat="50.637579895555973" lon="13.384741907939315">
        <ele>552</ele>
        <time>2026-08-29T15:38:10Z</time>
      </trkpt>
      <trkpt lat="50.637546116486192" lon="13.384785493835807">
        <ele>552</ele>
        <time>2026-08-29T15:38:11Z</time>
      </trkpt>
      <trkpt lat="50.637509822845459" lon="13.384825475513935">
        <ele>552</ele>
        <time>2026-08-29T15:38:12Z</time>
      </trkpt>
      <trkpt lat="50.637474367395043" lon="13.384859338402748">
        <ele>552</ele>
        <time>2026-08-29T15:38:13Z</time>
      </trkpt>
      <trkpt lat="50.637436900287867" lon="13.384895548224449">
        <ele>552</ele>
        <time>2026-08-29T15:38:14Z</time>
      </trkpt>
      <trkpt lat="50.637397840619087" lon="13.384930919855833">
        <ele>552</ele>
        <time>2026-08-29T15:38:15Z</time>
      </trkpt>
      <trkpt lat="50.637361714616418" lon="13.384970314800739">
        <ele>552</ele>
        <time>2026-08-29T15:38:16Z</time>
      </trkpt>
      <trkpt lat="50.637328187003732" lon="13.385014571249485">
        <ele>552</ele>
        <time>2026-08-29T15:38:17Z</time>
      </trkpt>
      <trkpt lat="50.63729046843946" lon="13.385056396946311">
        <ele>552</ele>
        <time>2026-08-29T15:38:18Z</time>
      </trkpt>
      <trkpt lat="50.637257695198059" lon="13.385093947872519">
        <ele>553</ele>
        <time>2026-08-29T15:38:19Z</time>
      </trkpt>
      <trkpt lat="50.63722844235599" lon="13.385124877095222">
        <ele>553</ele>
        <time>2026-08-29T15:38:20Z</time>
      </trkpt>
      <trkpt lat="50.63719080761075" lon="13.385167205706239">
        <ele>554</ele>
        <time>2026-08-29T15:38:21Z</time>
      </trkpt>
      <trkpt lat="50.637151831761003" lon="13.385204924270511">
        <ele>553</ele>
        <time>2026-08-29T15:38:22Z</time>
      </trkpt>
      <trkpt lat="50.637113861739635" lon="13.385241217911243">
        <ele>553</ele>
        <time>2026-08-29T15:38:23Z</time>
      </trkpt>
      <trkpt lat="50.637082010507584" lon="13.385283714160323">
        <ele>554</ele>
        <time>2026-08-29T15:38:24Z</time>
      </trkpt>
      <trkpt lat="50.637046974152327" lon="13.38532361201942">
        <ele>554</ele>
        <time>2026-08-29T15:38:25Z</time>
      </trkpt>
      <trkpt lat="50.637013111263514" lon="13.385367030277848">
        <ele>554</ele>
        <time>2026-08-29T15:38:26Z</time>
      </trkpt>
      <trkpt lat="50.636984864249825" lon="13.385407011955976">
        <ele>554</ele>
        <time>2026-08-29T15:38:27Z</time>
      </trkpt>
      <trkpt lat="50.636954018846154" lon="13.385445484891534">
        <ele>554</ele>
        <time>2026-08-29T15:38:28Z</time>
      </trkpt>
      <trkpt lat="50.636917389929295" lon="13.385482365265489">
        <ele>554</ele>
        <time>2026-08-29T15:38:29Z</time>
      </trkpt>
      <trkpt lat="50.636881180107594" lon="13.385515976697206">
        <ele>554</ele>
        <time>2026-08-29T15:38:30Z</time>
      </trkpt>
      <trkpt lat="50.636850334703922" lon="13.385552270337939">
        <ele>555</ele>
        <time>2026-08-29T15:38:31Z</time>
      </trkpt>
      <trkpt lat="50.636820495128632" lon="13.385595018044114">
        <ele>555</ele>
        <time>2026-08-29T15:38:32Z</time>
      </trkpt>
      <trkpt lat="50.636787218973041" lon="13.385630389675498">
        <ele>555</ele>
        <time>2026-08-29T15:38:33Z</time>
      </trkpt>
      <trkpt lat="50.636754278093576" lon="13.385660899803042">
        <ele>555</ele>
        <time>2026-08-29T15:38:34Z</time>
      </trkpt>
      <trkpt lat="50.636722343042493" lon="13.385689901188016">
        <ele>555</ele>
        <time>2026-08-29T15:38:35Z</time>
      </trkpt>
      <trkpt lat="50.63668604940176" lon="13.385730721056461">
        <ele>555</ele>
        <time>2026-08-29T15:38:36Z</time>
      </trkpt>
      <trkpt lat="50.63665428198874" lon="13.385777492076159">
        <ele>555</ele>
        <time>2026-08-29T15:38:37Z</time>
      </trkpt>
      <trkpt lat="50.636625615879893" lon="13.385808756574988">
        <ele>555</ele>
        <time>2026-08-29T15:38:38Z</time>
      </trkpt>
      <trkpt lat="50.636593848466873" lon="13.385849995538592">
        <ele>555</ele>
        <time>2026-08-29T15:38:39Z</time>
      </trkpt>
      <trkpt lat="50.636565601453185" lon="13.385877152904868">
        <ele>556</ele>
        <time>2026-08-29T15:38:40Z</time>
      </trkpt>
      <trkpt lat="50.636534672230482" lon="13.385904813185334">
        <ele>556</ele>
        <time>2026-08-29T15:38:41Z</time>
      </trkpt>
      <trkpt lat="50.636502988636494" lon="13.385933814570308">
        <ele>556</ele>
        <time>2026-08-29T15:38:42Z</time>
      </trkpt>
      <trkpt lat="50.636467533186078" lon="13.385967677459121">
        <ele>556</ele>
        <time>2026-08-29T15:38:43Z</time>
      </trkpt>
      <trkpt lat="50.636429730802774" lon="13.386005898937583">
        <ele>557</ele>
        <time>2026-08-29T15:38:44Z</time>
      </trkpt>
      <trkpt lat="50.636393437162042" lon="13.386032050475478">
        <ele>556</ele>
        <time>2026-08-29T15:38:45Z</time>
      </trkpt>
      <trkpt lat="50.636361166834831" lon="13.38606876321137">
        <ele>557</ele>
        <time>2026-08-29T15:38:46Z</time>
      </trkpt>
      <trkpt lat="50.636331411078572" lon="13.386114612221718">
        <ele>557</ele>
        <time>2026-08-29T15:38:47Z</time>
      </trkpt>
      <trkpt lat="50.636305259540677" lon="13.386147134006023">
        <ele>557</ele>
        <time>2026-08-29T15:38:48Z</time>
      </trkpt>
      <trkpt lat="50.636279694736004" lon="13.386173201724887">
        <ele>557</ele>
        <time>2026-08-29T15:38:49Z</time>
      </trkpt>
      <trkpt lat="50.636250525712967" lon="13.386201532557607">
        <ele>557</ele>
        <time>2026-08-29T15:38:50Z</time>
      </trkpt>
      <trkpt lat="50.63622085377574" lon="13.386229025200009">
        <ele>557</ele>
        <time>2026-08-29T15:38:51Z</time>
      </trkpt>
      <trkpt lat="50.636196210980415" lon="13.386265737935901">
        <ele>558</ele>
        <time>2026-08-29T15:38:52Z</time>
      </trkpt>
      <trkpt lat="50.636164108291268" lon="13.386290716007352">
        <ele>558</ele>
        <time>2026-08-29T15:38:53Z</time>
      </trkpt>
      <trkpt lat="50.636136699467897" lon="13.386316867545247">
        <ele>558</ele>
        <time>2026-08-29T15:38:54Z</time>
      </trkpt>
      <trkpt lat="50.6361089553684" lon="13.386349137872458">
        <ele>558</ele>
        <time>2026-08-29T15:38:55Z</time>
      </trkpt>
      <trkpt lat="50.636082468554378" lon="13.386382330209017">
        <ele>559</ele>
        <time>2026-08-29T15:38:56Z</time>
      </trkpt>
      <trkpt lat="50.63605522736907" lon="13.386410409584641">
        <ele>559</ele>
        <time>2026-08-29T15:38:57Z</time>
      </trkpt>
      <trkpt lat="50.636029411107302" lon="13.386440668255091">
        <ele>559</ele>
        <time>2026-08-29T15:38:58Z</time>
      </trkpt>
      <trkpt lat="50.636004516854882" lon="13.386475453153253">
        <ele>559</ele>
        <time>2026-08-29T15:38:59Z</time>
      </trkpt>
      <trkpt lat="50.635976688936353" lon="13.386508226394653">
        <ele>559</ele>
        <time>2026-08-29T15:39:00Z</time>
      </trkpt>
      <trkpt lat="50.635946933180094" lon="13.386537563055754">
        <ele>559</ele>
        <time>2026-08-29T15:39:01Z</time>
      </trkpt>
      <trkpt lat="50.63591692596674" lon="13.38656865991652">
        <ele>559</ele>
        <time>2026-08-29T15:39:02Z</time>
      </trkpt>
      <trkpt lat="50.635891109704971" lon="13.386599589139223">
        <ele>559</ele>
        <time>2026-08-29T15:39:03Z</time>
      </trkpt>
      <trkpt lat="50.635864958167076" lon="13.386628506705165">
        <ele>558</ele>
        <time>2026-08-29T15:39:04Z</time>
      </trkpt>
      <trkpt lat="50.635841488838196" lon="13.386659184470773">
        <ele>558</ele>
        <time>2026-08-29T15:39:05Z</time>
      </trkpt>
      <trkpt lat="50.635819276794791" lon="13.386680642142892">
        <ele>558</ele>
        <time>2026-08-29T15:39:06Z</time>
      </trkpt>
      <trkpt lat="50.635794717818499" lon="13.38670352473855">
        <ele>559</ele>
        <time>2026-08-29T15:39:07Z</time>
      </trkpt>
      <trkpt lat="50.635772170498967" lon="13.38672942481935">
        <ele>559</ele>
        <time>2026-08-29T15:39:08Z</time>
      </trkpt>
      <trkpt lat="50.635746186599135" lon="13.386754989624023">
        <ele>559</ele>
        <time>2026-08-29T15:39:09Z</time>
      </trkpt>
      <trkpt lat="50.635720202699304" lon="13.386770831421018">
        <ele>559</ele>
        <time>2026-08-29T15:39:10Z</time>
      </trkpt>
      <trkpt lat="50.635692793875933" lon="13.386790277436376">
        <ele>560</ele>
        <time>2026-08-29T15:39:11Z</time>
      </trkpt>
      <trkpt lat="50.63566773198545" lon="13.386816428974271">
        <ele>560</ele>
        <time>2026-08-29T15:39:12Z</time>
      </trkpt>
      <trkpt lat="50.63564526848495" lon="13.386843586340547">
        <ele>560</ele>
        <time>2026-08-29T15:39:13Z</time>
      </trkpt>
      <trkpt lat="50.635624816641212" lon="13.386864960193634">
        <ele>561</ele>
        <time>2026-08-29T15:39:14Z</time>
      </trkpt>
      <trkpt lat="50.635605035349727" lon="13.386883484199643">
        <ele>561</ele>
        <time>2026-08-29T15:39:15Z</time>
      </trkpt>
      <trkpt lat="50.635582990944386" lon="13.386907959356904">
        <ele>561</ele>
        <time>2026-08-29T15:39:16Z</time>
      </trkpt>
      <trkpt lat="50.635559102520347" lon="13.386930758133531">
        <ele>562</ele>
        <time>2026-08-29T15:39:17Z</time>
      </trkpt>
      <trkpt lat="50.635531190782785" lon="13.386958334594965">
        <ele>562</ele>
        <time>2026-08-29T15:39:18Z</time>
      </trkpt>
      <trkpt lat="50.635505542159081" lon="13.38698448613286">
        <ele>562</ele>
        <time>2026-08-29T15:39:19Z</time>
      </trkpt>
      <trkpt lat="50.635479558259249" lon="13.387014577165246">
        <ele>562</ele>
        <time>2026-08-29T15:39:20Z</time>
      </trkpt>
      <trkpt lat="50.635454915463924" lon="13.38704215362668">
        <ele>562</ele>
        <time>2026-08-29T15:39:21Z</time>
      </trkpt>
      <trkpt lat="50.635432871058583" lon="13.387072831392288">
        <ele>563</ele>
        <time>2026-08-29T15:39:22Z</time>
      </trkpt>
      <trkpt lat="50.635410072281957" lon="13.387094624340534">
        <ele>563</ele>
        <time>2026-08-29T15:39:23Z</time>
      </trkpt>
      <trkpt lat="50.635381489992142" lon="13.3871154114604">
        <ele>563</ele>
        <time>2026-08-29T15:39:24Z</time>
      </trkpt>
      <trkpt lat="50.635351901873946" lon="13.387139802798629">
        <ele>563</ele>
        <time>2026-08-29T15:39:25Z</time>
      </trkpt>
      <trkpt lat="50.635323487222195" lon="13.387161763384938">
        <ele>563</ele>
        <time>2026-08-29T15:39:26Z</time>
      </trkpt>
      <trkpt lat="50.635297503322363" lon="13.387191854417324">
        <ele>564</ele>
        <time>2026-08-29T15:39:27Z</time>
      </trkpt>
      <trkpt lat="50.635273279622197" lon="13.387223454192281">
        <ele>564</ele>
        <time>2026-08-29T15:39:28Z</time>
      </trkpt>
      <trkpt lat="50.635244194418192" lon="13.387249857187271">
        <ele>564</ele>
        <time>2026-08-29T15:39:29Z</time>
      </trkpt>
      <trkpt lat="50.63521821051836" lon="13.387283552438021">
        <ele>564</ele>
        <time>2026-08-29T15:39:30Z</time>
      </trkpt>
      <trkpt lat="50.635195160284638" lon="13.387307273223996">
        <ele>565</ele>
        <time>2026-08-29T15:39:31Z</time>
      </trkpt>
      <trkpt lat="50.635170517489314" lon="13.387330658733845">
        <ele>565</ele>
        <time>2026-08-29T15:39:32Z</time>
      </trkpt>
      <trkpt lat="50.635146209970117" lon="13.387352284044027">
        <ele>565</ele>
        <time>2026-08-29T15:39:33Z</time>
      </trkpt>
      <trkpt lat="50.635120309889317" lon="13.387371897697449">
        <ele>565</ele>
        <time>2026-08-29T15:39:34Z</time>
      </trkpt>
      <trkpt lat="50.635096002370119" lon="13.387390170246363">
        <ele>566</ele>
        <time>2026-08-29T15:39:35Z</time>
      </trkpt>
      <trkpt lat="50.635070521384478" lon="13.38741397485137">
        <ele>566</ele>
        <time>2026-08-29T15:39:36Z</time>
      </trkpt>
      <trkpt lat="50.635048728436232" lon="13.387435600161552">
        <ele>566</ele>
        <time>2026-08-29T15:39:37Z</time>
      </trkpt>
      <trkpt lat="50.6350227445364" lon="13.387459823861718">
        <ele>567</ele>
        <time>2026-08-29T15:39:38Z</time>
      </trkpt>
      <trkpt lat="50.634995000436902" lon="13.387474911287427">
        <ele>567</ele>
        <time>2026-08-29T15:39:39Z</time>
      </trkpt>
      <trkpt lat="50.634966669604182" lon="13.387495195493102">
        <ele>567</ele>
        <time>2026-08-29T15:39:40Z</time>
      </trkpt>
      <trkpt lat="50.63493917696178" lon="13.387518161907792">
        <ele>567</ele>
        <time>2026-08-29T15:39:41Z</time>
      </trkpt>
      <trkpt lat="50.634916042909026" lon="13.387540709227324">
        <ele>567</ele>
        <time>2026-08-29T15:39:42Z</time>
      </trkpt>
      <trkpt lat="50.634891567751765" lon="13.387568704783916">
        <ele>567</ele>
        <time>2026-08-29T15:39:43Z</time>
      </trkpt>
      <trkpt lat="50.634864494204521" lon="13.387589240446687">
        <ele>567</ele>
        <time>2026-08-29T15:39:44Z</time>
      </trkpt>
      <trkpt lat="50.634841443970799" lon="13.387614721432328">
        <ele>568</ele>
        <time>2026-08-29T15:39:45Z</time>
      </trkpt>
      <trkpt lat="50.634813532233238" lon="13.387632658705115">
        <ele>568</ele>
        <time>2026-08-29T15:39:46Z</time>
      </trkpt>
      <trkpt lat="50.63478821888566" lon="13.387660821899772">
        <ele>568</ele>
        <time>2026-08-29T15:39:47Z</time>
      </trkpt>
      <trkpt lat="50.634763156995177" lon="13.387688146904111">
        <ele>568</ele>
        <time>2026-08-29T15:39:48Z</time>
      </trkpt>
      <trkpt lat="50.634733149781823" lon="13.38770910166204">
        <ele>569</ele>
        <time>2026-08-29T15:39:49Z</time>
      </trkpt>
      <trkpt lat="50.634703980758786" lon="13.387730643153191">
        <ele>569</ele>
        <time>2026-08-29T15:39:50Z</time>
      </trkpt>
      <trkpt lat="50.634677410125732" lon="13.387757800519466">
        <ele>569</ele>
        <time>2026-08-29T15:39:51Z</time>
      </trkpt>
      <trkpt lat="50.634649079293013" lon="13.38778437115252">
        <ele>569</ele>
        <time>2026-08-29T15:39:52Z</time>
      </trkpt>
      <trkpt lat="50.634618317708373" lon="13.387811863794923">
        <ele>569</ele>
        <time>2026-08-29T15:39:53Z</time>
      </trkpt>
      <trkpt lat="50.634588394314051" lon="13.387838937342167">
        <ele>569</ele>
        <time>2026-08-29T15:39:54Z</time>
      </trkpt>
      <trkpt lat="50.634566098451614" lon="13.387868190184236">
        <ele>570</ele>
        <time>2026-08-29T15:39:55Z</time>
      </trkpt>
      <trkpt lat="50.634543048217893" lon="13.38789090514183">
        <ele>570</ele>
        <time>2026-08-29T15:39:56Z</time>
      </trkpt>
      <trkpt lat="50.634514046832919" lon="13.387911524623632">
        <ele>570</ele>
        <time>2026-08-29T15:39:57Z</time>
      </trkpt>
      <trkpt lat="50.634488649666309" lon="13.387930300086737">
        <ele>570</ele>
        <time>2026-08-29T15:39:58Z</time>
      </trkpt>
      <trkpt lat="50.634461995214224" lon="13.387955529615283">
        <ele>570</ele>
        <time>2026-08-29T15:39:59Z</time>
      </trkpt>
      <trkpt lat="50.634431820362806" lon="13.387980507686734">
        <ele>571</ele>
        <time>2026-08-29T15:40:00Z</time>
      </trkpt>
      <trkpt lat="50.634407764300704" lon="13.388005318120122">
        <ele>571</ele>
        <time>2026-08-29T15:40:01Z</time>
      </trkpt>
      <trkpt lat="50.634382367134094" lon="13.38802820071578">
        <ele>571</ele>
        <time>2026-08-29T15:40:02Z</time>
      </trkpt>
      <trkpt lat="50.634353198111057" lon="13.388055022805929">
        <ele>571</ele>
        <time>2026-08-29T15:40:03Z</time>
      </trkpt>
      <trkpt lat="50.63432696275413" lon="13.388083688914776">
        <ele>571</ele>
        <time>2026-08-29T15:40:04Z</time>
      </trkpt>
      <trkpt lat="50.634298212826252" lon="13.388114618137479">
        <ele>571</ele>
        <time>2026-08-29T15:40:05Z</time>
      </trkpt>
      <trkpt lat="50.634272480383515" lon="13.388136578723788">
        <ele>571</ele>
        <time>2026-08-29T15:40:06Z</time>
      </trkpt>
      <trkpt lat="50.634242137894034" lon="13.388162478804588">
        <ele>571</ele>
        <time>2026-08-29T15:40:07Z</time>
      </trkpt>
      <trkpt lat="50.634207269176841" lon="13.388187792152166">
        <ele>571</ele>
        <time>2026-08-29T15:40:08Z</time>
      </trkpt>
      <trkpt lat="50.63417935743928" lon="13.388209585100412">
        <ele>571</ele>
        <time>2026-08-29T15:40:09Z</time>
      </trkpt>
      <trkpt lat="50.634151780977845" lon="13.388240598142147">
        <ele>571</ele>
        <time>2026-08-29T15:40:10Z</time>
      </trkpt>
      <trkpt lat="50.634122528135777" lon="13.388269683346152">
        <ele>571</ele>
        <time>2026-08-29T15:40:11Z</time>
      </trkpt>
      <trkpt lat="50.634093694388866" lon="13.388293404132128">
        <ele>571</ele>
        <time>2026-08-29T15:40:12Z</time>
      </trkpt>
      <trkpt lat="50.634064273908734" lon="13.388316789641976">
        <ele>571</ele>
        <time>2026-08-29T15:40:13Z</time>
      </trkpt>
      <trkpt lat="50.634033847600222" lon="13.388338834047318">
        <ele>571</ele>
        <time>2026-08-29T15:40:14Z</time>
      </trkpt>
      <trkpt lat="50.634007109329104" lon="13.388362303376198">
        <ele>571</ele>
        <time>2026-08-29T15:40:15Z</time>
      </trkpt>
      <trkpt lat="50.633984981104732" lon="13.388386107981205">
        <ele>571</ele>
        <time>2026-08-29T15:40:16Z</time>
      </trkpt>
      <trkpt lat="50.633960086852312" lon="13.388410247862339">
        <ele>571</ele>
        <time>2026-08-29T15:40:17Z</time>
      </trkpt>
      <trkpt lat="50.633930498734117" lon="13.388436734676361">
        <ele>572</ele>
        <time>2026-08-29T15:40:18Z</time>
      </trkpt>
      <trkpt lat="50.633903089910746" lon="13.388463137671351">
        <ele>572</ele>
        <time>2026-08-29T15:40:19Z</time>
      </trkpt>
      <trkpt lat="50.633874759078026" lon="13.38849138468504">
        <ele>572</ele>
        <time>2026-08-29T15:40:20Z</time>
      </trkpt>
      <trkpt lat="50.633843326941133" lon="13.388514602556825">
        <ele>572</ele>
        <time>2026-08-29T15:40:21Z</time>
      </trkpt>
      <trkpt lat="50.633813152089715" lon="13.388538239523768">
        <ele>572</ele>
        <time>2026-08-29T15:40:22Z</time>
      </trkpt>
      <trkpt lat="50.633786749094725" lon="13.388565564528108">
        <ele>572</ele>
        <time>2026-08-29T15:40:23Z</time>
      </trkpt>
      <trkpt lat="50.633754981681705" lon="13.388584507629275">
        <ele>573</ele>
        <time>2026-08-29T15:40:24Z</time>
      </trkpt>
      <trkpt lat="50.633726818487048" lon="13.388602947816253">
        <ele>573</ele>
        <time>2026-08-29T15:40:25Z</time>
      </trkpt>
      <trkpt lat="50.633701588958502" lon="13.388630272820592">
        <ele>573</ele>
        <time>2026-08-29T15:40:26Z</time>
      </trkpt>
      <trkpt lat="50.633674683049321" lon="13.388656424358487">
        <ele>573</ele>
        <time>2026-08-29T15:40:27Z</time>
      </trkpt>
      <trkpt lat="50.633647106587887" lon="13.388683833181858">
        <ele>573</ele>
        <time>2026-08-29T15:40:28Z</time>
      </trkpt>
      <trkpt lat="50.63361894339323" lon="13.388716522604227">
        <ele>573</ele>
        <time>2026-08-29T15:40:29Z</time>
      </trkpt>
      <trkpt lat="50.633588181808591" lon="13.388740578666329">
        <ele>573</ele>
        <time>2026-08-29T15:40:30Z</time>
      </trkpt>
      <trkpt lat="50.633558174595237" lon="13.388768238946795">
        <ele>573</ele>
        <time>2026-08-29T15:40:31Z</time>
      </trkpt>
      <trkpt lat="50.633531771600246" lon="13.388800006359816">
        <ele>573</ele>
        <time>2026-08-29T15:40:32Z</time>
      </trkpt>
      <trkpt lat="50.633505620062351" lon="13.388830348849297">
        <ele>573</ele>
        <time>2026-08-29T15:40:33Z</time>
      </trkpt>
      <trkpt lat="50.633475529029965" lon="13.388855326920748">
        <ele>573</ele>
        <time>2026-08-29T15:40:34Z</time>
      </trkpt>
      <trkpt lat="50.63344988040626" lon="13.388880472630262">
        <ele>573</ele>
        <time>2026-08-29T15:40:35Z</time>
      </trkpt>
      <trkpt lat="50.633423142135143" lon="13.388904444873333">
        <ele>573</ele>
        <time>2026-08-29T15:40:36Z</time>
      </trkpt>
      <trkpt lat="50.633397158235312" lon="13.388927914202213">
        <ele>574</ele>
        <time>2026-08-29T15:40:37Z</time>
      </trkpt>
      <trkpt lat="50.633374527096748" lon="13.388950377702713">
        <ele>574</ele>
        <time>2026-08-29T15:40:38Z</time>
      </trkpt>
      <trkpt lat="50.633352231234312" lon="13.38898248039186">
        <ele>573</ele>
        <time>2026-08-29T15:40:39Z</time>
      </trkpt>
      <trkpt lat="50.63332230783999" lon="13.389012906700373">
        <ele>574</ele>
        <time>2026-08-29T15:40:40Z</time>
      </trkpt>
      <trkpt lat="50.63329791650176" lon="13.389041908085346">
        <ele>574</ele>
        <time>2026-08-29T15:40:41Z</time>
      </trkpt>
      <trkpt lat="50.633275453001261" lon="13.389064958319068">
        <ele>574</ele>
        <time>2026-08-29T15:40:42Z</time>
      </trkpt>
      <trkpt lat="50.633251899853349" lon="13.389092786237597">
        <ele>574</ele>
        <time>2026-08-29T15:40:43Z</time>
      </trkpt>
      <trkpt lat="50.633225832134485" lon="13.38912027888">
        <ele>574</ele>
        <time>2026-08-29T15:40:44Z</time>
      </trkpt>
      <trkpt lat="50.633201859891415" lon="13.389144251123071">
        <ele>574</ele>
        <time>2026-08-29T15:40:45Z</time>
      </trkpt>
      <trkpt lat="50.633182330057025" lon="13.389170989394188">
        <ele>574</ele>
        <time>2026-08-29T15:40:46Z</time>
      </trkpt>
      <trkpt lat="50.633164811879396" lon="13.389190519228578">
        <ele>574</ele>
        <time>2026-08-29T15:40:47Z</time>
      </trkpt>
      <trkpt lat="50.63314544968307" lon="13.389222621917725">
        <ele>574</ele>
        <time>2026-08-29T15:40:48Z</time>
      </trkpt>
      <trkpt lat="50.633122399449348" lon="13.389254221692681">
        <ele>574</ele>
        <time>2026-08-29T15:40:49Z</time>
      </trkpt>
      <trkpt lat="50.63310001976788" lon="13.389282636344433">
        <ele>575</ele>
        <time>2026-08-29T15:40:50Z</time>
      </trkpt>
      <trkpt lat="50.633077556267381" lon="13.389309542253613">
        <ele>575</ele>
        <time>2026-08-29T15:40:51Z</time>
      </trkpt>
      <trkpt lat="50.633059702813625" lon="13.389342231675982">
        <ele>576</ele>
        <time>2026-08-29T15:40:52Z</time>
      </trkpt>
      <trkpt lat="50.633041430264711" lon="13.389365952461958">
        <ele>576</ele>
        <time>2026-08-29T15:40:53Z</time>
      </trkpt>
      <trkpt lat="50.633019469678402" lon="13.389393696561456">
        <ele>576</ele>
        <time>2026-08-29T15:40:54Z</time>
      </trkpt>
      <trkpt lat="50.633003041148186" lon="13.389421943575144">
        <ele>575</ele>
        <time>2026-08-29T15:40:55Z</time>
      </trkpt>
      <trkpt lat="50.632985439151525" lon="13.389443820342422">
        <ele>576</ele>
        <time>2026-08-29T15:40:56Z</time>
      </trkpt>
      <trkpt lat="50.632961550727487" lon="13.389463433995843">
        <ele>576</ele>
        <time>2026-08-29T15:40:57Z</time>
      </trkpt>
      <trkpt lat="50.632942859083414" lon="13.389486484229565">
        <ele>576</ele>
        <time>2026-08-29T15:40:58Z</time>
      </trkpt>
      <trkpt lat="50.632924251258373" lon="13.389502912759781">
        <ele>576</ele>
        <time>2026-08-29T15:40:59Z</time>
      </trkpt>
      <trkpt lat="50.632905559614301" lon="13.389526046812534">
        <ele>577</ele>
        <time>2026-08-29T15:41:00Z</time>
      </trkpt>
      <trkpt lat="50.632889298722148" lon="13.389549013227224">
        <ele>577</ele>
        <time>2026-08-29T15:41:01Z</time>
      </trkpt>
      <trkpt lat="50.632872199639678" lon="13.389563178643584">
        <ele>578</ele>
        <time>2026-08-29T15:41:02Z</time>
      </trkpt>
      <trkpt lat="50.632854597643018" lon="13.389589414000511">
        <ele>578</ele>
        <time>2026-08-29T15:41:03Z</time>
      </trkpt>
      <trkpt lat="50.63283758237958" lon="13.389615397900343">
        <ele>578</ele>
        <time>2026-08-29T15:41:04Z</time>
      </trkpt>
      <trkpt lat="50.632817130535841" lon="13.389639621600509">
        <ele>579</ele>
        <time>2026-08-29T15:41:05Z</time>
      </trkpt>
      <trkpt lat="50.632802043110132" lon="13.389664432033896">
        <ele>579</ele>
        <time>2026-08-29T15:41:06Z</time>
      </trkpt>
      <trkpt lat="50.632787123322487" lon="13.389688320457935">
        <ele>579</ele>
        <time>2026-08-29T15:41:07Z</time>
      </trkpt>
      <trkpt lat="50.632770694792271" lon="13.38971296325326">
        <ele>580</ele>
        <time>2026-08-29T15:41:08Z</time>
      </trkpt>
      <trkpt lat="50.632750494405627" lon="13.389729643240571">
        <ele>580</ele>
        <time>2026-08-29T15:41:09Z</time>
      </trkpt>
      <trkpt lat="50.632733479142189" lon="13.389752022922039">
        <ele>580</ele>
        <time>2026-08-29T15:41:10Z</time>
      </trkpt>
      <trkpt lat="50.63271302729845" lon="13.389775576069951">
        <ele>580</ele>
        <time>2026-08-29T15:41:11Z</time>
      </trkpt>
      <trkpt lat="50.632692910730839" lon="13.389803990721703">
        <ele>580</ele>
        <time>2026-08-29T15:41:12Z</time>
      </trkpt>
      <trkpt lat="50.632675141096115" lon="13.389832153916359">
        <ele>580</ele>
        <time>2026-08-29T15:41:13Z</time>
      </trkpt>
      <trkpt lat="50.632660388946533" lon="13.389862077310681">
        <ele>581</ele>
        <time>2026-08-29T15:41:14Z</time>
      </trkpt>
      <trkpt lat="50.63264119438827" lon="13.389881858602166">
        <ele>582</ele>
        <time>2026-08-29T15:41:15Z</time>
      </trkpt>
      <trkpt lat="50.632617808878422" lon="13.389905244112015">
        <ele>582</ele>
        <time>2026-08-29T15:41:16Z</time>
      </trkpt>
      <trkpt lat="50.632600961253047" lon="13.389925695955753">
        <ele>582</ele>
        <time>2026-08-29T15:41:17Z</time>
      </trkpt>
      <trkpt lat="50.632580341771245" lon="13.389950590208173">
        <ele>582</ele>
        <time>2026-08-29T15:41:18Z</time>
      </trkpt>
      <trkpt lat="50.63255955465138" lon="13.389977999031544">
        <ele>583</ele>
        <time>2026-08-29T15:41:19Z</time>
      </trkpt>
      <trkpt lat="50.632535498589277" lon="13.390008676797152">
        <ele>583</ele>
        <time>2026-08-29T15:41:20Z</time>
      </trkpt>
      <trkpt lat="50.632517980411649" lon="13.390025608241558">
        <ele>583</ele>
        <time>2026-08-29T15:41:21Z</time>
      </trkpt>
      <trkpt lat="50.632495516911149" lon="13.390047904103994">
        <ele>582</ele>
        <time>2026-08-29T15:41:22Z</time>
      </trkpt>
      <trkpt lat="50.632477076724172" lon="13.390072379261255">
        <ele>583</ele>
        <time>2026-08-29T15:41:23Z</time>
      </trkpt>
      <trkpt lat="50.632459810003638" lon="13.390096183866262">
        <ele>583</ele>
        <time>2026-08-29T15:41:24Z</time>
      </trkpt>
      <trkpt lat="50.632441537454724" lon="13.390117138624191">
        <ele>583</ele>
        <time>2026-08-29T15:41:25Z</time>
      </trkpt>
      <trkpt lat="50.632422007620335" lon="13.39014295488596">
        <ele>583</ele>
        <time>2026-08-29T15:41:26Z</time>
      </trkpt>
      <trkpt lat="50.632400885224342" lon="13.390173884108663">
        <ele>583</ele>
        <time>2026-08-29T15:41:27Z</time>
      </trkpt>
      <trkpt lat="50.63238026574254" lon="13.390205651521683">
        <ele>583</ele>
        <time>2026-08-29T15:41:28Z</time>
      </trkpt>
      <trkpt lat="50.632362077012658" lon="13.390228282660246">
        <ele>583</ele>
        <time>2026-08-29T15:41:29Z</time>
      </trkpt>
      <trkpt lat="50.632344139739871" lon="13.390257870778441">
        <ele>583</ele>
        <time>2026-08-29T15:41:30Z</time>
      </trkpt>
      <trkpt lat="50.632320921868086" lon="13.390291398391128">
        <ele>583</ele>
        <time>2026-08-29T15:41:31Z</time>
      </trkpt>
      <trkpt lat="50.632307510823011" lon="13.390319058671594">
        <ele>583</ele>
        <time>2026-08-29T15:41:32Z</time>
      </trkpt>
      <trkpt lat="50.632293596863747" lon="13.390348143875599">
        <ele>583</ele>
        <time>2026-08-29T15:41:33Z</time>
      </trkpt>
      <trkpt lat="50.632267612963915" lon="13.390374379232526">
        <ele>583</ele>
        <time>2026-08-29T15:41:34Z</time>
      </trkpt>
      <trkpt lat="50.63224783167243" lon="13.390400195494294">
        <ele>583</ele>
        <time>2026-08-29T15:41:35Z</time>
      </trkpt>
      <trkpt lat="50.632231067866087" lon="13.390424167737365">
        <ele>583</ele>
        <time>2026-08-29T15:41:36Z</time>
      </trkpt>
      <trkpt lat="50.632213884964585" lon="13.390442105010152">
        <ele>583</ele>
        <time>2026-08-29T15:41:37Z</time>
      </trkpt>
      <trkpt lat="50.632192175835371" lon="13.390462892130017">
        <ele>583</ele>
        <time>2026-08-29T15:41:38Z</time>
      </trkpt>
      <trkpt lat="50.63217407092452" lon="13.390486026182771">
        <ele>583</ele>
        <time>2026-08-29T15:41:39Z</time>
      </trkpt>
      <trkpt lat="50.632159989327192" lon="13.390511171892285">
        <ele>583</ele>
        <time>2026-08-29T15:41:40Z</time>
      </trkpt>
      <trkpt lat="50.632146997377276" lon="13.390542771667242">
        <ele>583</ele>
        <time>2026-08-29T15:41:41Z</time>
      </trkpt>
      <trkpt lat="50.632126461714506" lon="13.39057101868093">
        <ele>583</ele>
        <time>2026-08-29T15:41:42Z</time>
      </trkpt>
      <trkpt lat="50.632112212479115" lon="13.390597589313984">
        <ele>583</ele>
        <time>2026-08-29T15:41:43Z</time>
      </trkpt>
      <trkpt lat="50.632091090083122" lon="13.390622148290277">
        <ele>584</ele>
        <time>2026-08-29T15:41:44Z</time>
      </trkpt>
      <trkpt lat="50.632077595219016" lon="13.39065114967525">
        <ele>584</ele>
        <time>2026-08-29T15:41:45Z</time>
      </trkpt>
      <trkpt lat="50.632065441459417" lon="13.390682749450207">
        <ele>584</ele>
        <time>2026-08-29T15:41:46Z</time>
      </trkpt>
      <trkpt lat="50.632053790614009" lon="13.390710325911641">
        <ele>584</ele>
        <time>2026-08-29T15:41:47Z</time>
      </trkpt>
      <trkpt lat="50.632041553035378" lon="13.390741171315312">
        <ele>584</ele>
        <time>2026-08-29T15:41:48Z</time>
      </trkpt>
      <trkpt lat="50.632020430639386" lon="13.390771178528666">
        <ele>584</ele>
        <time>2026-08-29T15:41:49Z</time>
      </trkpt>
      <trkpt lat="50.632004672661424" lon="13.390796324238181">
        <ele>585</ele>
        <time>2026-08-29T15:41:50Z</time>
      </trkpt>
      <trkpt lat="50.631995536386967" lon="13.390817865729332">
        <ele>585</ele>
        <time>2026-08-29T15:41:51Z</time>
      </trkpt>
      <trkpt lat="50.631980868056417" lon="13.390843514353037">
        <ele>585</ele>
        <time>2026-08-29T15:41:52Z</time>
      </trkpt>
      <trkpt lat="50.631962427869439" lon="13.390877628698945">
        <ele>585</ele>
        <time>2026-08-29T15:41:53Z</time>
      </trkpt>
      <trkpt lat="50.631938204169273" lon="13.390910066664219">
        <ele>585</ele>
        <time>2026-08-29T15:41:54Z</time>
      </trkpt>
      <trkpt lat="50.631920183077455" lon="13.390938900411129">
        <ele>586</ele>
        <time>2026-08-29T15:41:55Z</time>
      </trkpt>
      <trkpt lat="50.631902581080794" lon="13.390976367518306">
        <ele>586</ele>
        <time>2026-08-29T15:41:56Z</time>
      </trkpt>
      <trkpt lat="50.631881626322865" lon="13.391012409701943">
        <ele>586</ele>
        <time>2026-08-29T15:41:57Z</time>
      </trkpt>
      <trkpt lat="50.631862180307508" lon="13.391048284247518">
        <ele>586</ele>
        <time>2026-08-29T15:41:58Z</time>
      </trkpt>
      <trkpt lat="50.631847344338894" lon="13.391087427735329">
        <ele>586</ele>
        <time>2026-08-29T15:41:59Z</time>
      </trkpt>
      <trkpt lat="50.631828401237726" lon="13.391127660870552">
        <ele>586</ele>
        <time>2026-08-29T15:42:00Z</time>
      </trkpt>
      <trkpt lat="50.631811637431383" lon="13.391174012795091">
        <ele>586</ele>
        <time>2026-08-29T15:42:01Z</time>
      </trkpt>
      <trkpt lat="50.631799567490816" lon="13.39121600612998">
        <ele>586</ele>
        <time>2026-08-29T15:42:02Z</time>
      </trkpt>
      <trkpt lat="50.631782468408346" lon="13.391266129910946">
        <ele>586</ele>
        <time>2026-08-29T15:42:03Z</time>
      </trkpt>
      <trkpt lat="50.631759082898498" lon="13.391309631988406">
        <ele>586</ele>
        <time>2026-08-29T15:42:04Z</time>
      </trkpt>
      <trkpt lat="50.631736870855093" lon="13.391357827931643">
        <ele>586</ele>
        <time>2026-08-29T15:42:05Z</time>
      </trkpt>
      <trkpt lat="50.631710886955261" lon="13.391405688598752">
        <ele>586</ele>
        <time>2026-08-29T15:42:06Z</time>
      </trkpt>
      <trkpt lat="50.631679790094495" lon="13.391455812379718">
        <ele>587</ele>
        <time>2026-08-29T15:42:07Z</time>
      </trkpt>
      <trkpt lat="50.631655398756266" lon="13.39150182902813">
        <ele>587</ele>
        <time>2026-08-29T15:42:08Z</time>
      </trkpt>
      <trkpt lat="50.631630169227719" lon="13.391541056334972">
        <ele>587</ele>
        <time>2026-08-29T15:42:09Z</time>
      </trkpt>
      <trkpt lat="50.631607035174966" lon="13.391581540927291">
        <ele>587</ele>
        <time>2026-08-29T15:42:10Z</time>
      </trkpt>
      <trkpt lat="50.631579123437405" lon="13.391621606424451">
        <ele>587</ele>
        <time>2026-08-29T15:42:11Z</time>
      </trkpt>
      <trkpt lat="50.631552301347256" lon="13.391664270311594">
        <ele>587</ele>
        <time>2026-08-29T15:42:12Z</time>
      </trkpt>
      <trkpt lat="50.631521539762616" lon="13.391698552295566">
        <ele>587</ele>
        <time>2026-08-29T15:42:13Z</time>
      </trkpt>
      <trkpt lat="50.63149337656796" lon="13.391734845936298">
        <ele>587</ele>
        <time>2026-08-29T15:42:14Z</time>
      </trkpt>
      <trkpt lat="50.63146454282105" lon="13.391768876463175">
        <ele>587</ele>
        <time>2026-08-29T15:42:15Z</time>
      </trkpt>
      <trkpt lat="50.631433865055442" lon="13.391798380762339">
        <ele>588</ele>
        <time>2026-08-29T15:42:16Z</time>
      </trkpt>
      <trkpt lat="50.631400337442756" lon="13.391827465966344">
        <ele>588</ele>
        <time>2026-08-29T15:42:17Z</time>
      </trkpt>
      <trkpt lat="50.631368150934577" lon="13.391856802627444">
        <ele>588</ele>
        <time>2026-08-29T15:42:18Z</time>
      </trkpt>
      <trkpt lat="50.631330767646432" lon="13.391884798184037">
        <ele>588</ele>
        <time>2026-08-29T15:42:19Z</time>
      </trkpt>
      <trkpt lat="50.631305202841759" lon="13.391912207007408">
        <ele>589</ele>
        <time>2026-08-29T15:42:20Z</time>
      </trkpt>
      <trkpt lat="50.631276704370975" lon="13.391945315524936">
        <ele>589</ele>
        <time>2026-08-29T15:42:21Z</time>
      </trkpt>
      <trkpt lat="50.631251139566302" lon="13.39198362082243">
        <ele>589</ele>
        <time>2026-08-29T15:42:22Z</time>
      </trkpt>
      <trkpt lat="50.631222808733582" lon="13.392017567530274">
        <ele>589</ele>
        <time>2026-08-29T15:42:23Z</time>
      </trkpt>
      <trkpt lat="50.631192047148943" lon="13.392046904191375">
        <ele>590</ele>
        <time>2026-08-29T15:42:24Z</time>
      </trkpt>
      <trkpt lat="50.631165141239762" lon="13.392067858949304">
        <ele>590</ele>
        <time>2026-08-29T15:42:25Z</time>
      </trkpt>
      <trkpt lat="50.631130943074822" lon="13.392087975516915">
        <ele>590</ele>
        <time>2026-08-29T15:42:26Z</time>
      </trkpt>
      <trkpt lat="50.631100600585341" lon="13.392117395997047">
        <ele>591</ele>
        <time>2026-08-29T15:42:27Z</time>
      </trkpt>
      <trkpt lat="50.631067156791687" lon="13.392141368240118">
        <ele>591</ele>
        <time>2026-08-29T15:42:28Z</time>
      </trkpt>
      <trkpt lat="50.631037568673491" lon="13.392170453444123">
        <ele>591</ele>
        <time>2026-08-29T15:42:29Z</time>
      </trkpt>
      <trkpt lat="50.631006890907884" lon="13.392197610810399">
        <ele>591</ele>
        <time>2026-08-29T15:42:30Z</time>
      </trkpt>
      <trkpt lat="50.630976799875498" lon="13.392220828682184">
        <ele>591</ele>
        <time>2026-08-29T15:42:31Z</time>
      </trkpt>
      <trkpt lat="50.630944361910224" lon="13.392249578610063">
        <ele>591</ele>
        <time>2026-08-29T15:42:32Z</time>
      </trkpt>
      <trkpt lat="50.630912259221077" lon="13.392278244718909">
        <ele>591</ele>
        <time>2026-08-29T15:42:33Z</time>
      </trkpt>
      <trkpt lat="50.630880994722247" lon="13.392304563894868">
        <ele>591</ele>
        <time>2026-08-29T15:42:34Z</time>
      </trkpt>
      <trkpt lat="50.630849478766322" lon="13.392332391813397">
        <ele>592</ele>
        <time>2026-08-29T15:42:35Z</time>
      </trkpt>
      <trkpt lat="50.630816370248795" lon="13.392360890284181">
        <ele>592</ele>
        <time>2026-08-29T15:42:36Z</time>
      </trkpt>
      <trkpt lat="50.630787368863821" lon="13.392395004630089">
        <ele>592</ele>
        <time>2026-08-29T15:42:37Z</time>
      </trkpt>
      <trkpt lat="50.630754763260484" lon="13.392429873347282">
        <ele>593</ele>
        <time>2026-08-29T15:42:38Z</time>
      </trkpt>
      <trkpt lat="50.630721990019083" lon="13.392444290220737">
        <ele>594</ele>
        <time>2026-08-29T15:42:39Z</time>
      </trkpt>
      <trkpt lat="50.630694665014744" lon="13.392462059855461">
        <ele>595</ele>
        <time>2026-08-29T15:42:40Z</time>
      </trkpt>
      <trkpt lat="50.630662981420755" lon="13.392485864460468">
        <ele>595</ele>
        <time>2026-08-29T15:42:41Z</time>
      </trkpt>
      <trkpt lat="50.630629118531942" lon="13.392514027655125">
        <ele>595</ele>
        <time>2026-08-29T15:42:42Z</time>
      </trkpt>
      <trkpt lat="50.630595674738288" lon="13.392539592459798">
        <ele>595</ele>
        <time>2026-08-29T15:42:43Z</time>
      </trkpt>
      <trkpt lat="50.630565667524934" lon="13.392563732340932">
        <ele>595</ele>
        <time>2026-08-29T15:42:44Z</time>
      </trkpt>
      <trkpt lat="50.630534235388041" lon="13.392589967697859">
        <ele>596</ele>
        <time>2026-08-29T15:42:45Z</time>
      </trkpt>
      <trkpt lat="50.63050489872694" lon="13.392608491703868">
        <ele>596</ele>
        <time>2026-08-29T15:42:46Z</time>
      </trkpt>
      <trkpt lat="50.630474304780364" lon="13.392633637413383">
        <ele>596</ele>
        <time>2026-08-29T15:42:47Z</time>
      </trkpt>
      <trkpt lat="50.630448656156659" lon="13.392667081207037">
        <ele>597</ele>
        <time>2026-08-29T15:42:48Z</time>
      </trkpt>
      <trkpt lat="50.630417391657829" lon="13.39269457384944">
        <ele>597</ele>
        <time>2026-08-29T15:42:49Z</time>
      </trkpt>
      <trkpt lat="50.630388222634792" lon="13.392717204988003">
        <ele>597</ele>
        <time>2026-08-29T15:42:50Z</time>
      </trkpt>
      <trkpt lat="50.630361903458834" lon="13.39274930767715">
        <ele>598</ele>
        <time>2026-08-29T15:42:51Z</time>
      </trkpt>
      <trkpt lat="50.630332147702575" lon="13.392772357910872">
        <ele>598</ele>
        <time>2026-08-29T15:42:52Z</time>
      </trkpt>
      <trkpt lat="50.630305325612426" lon="13.392793228849769">
        <ele>598</ele>
        <time>2026-08-29T15:42:53Z</time>
      </trkpt>
      <trkpt lat="50.630277413874865" lon="13.39281334541738">
        <ele>598</ele>
        <time>2026-08-29T15:42:54Z</time>
      </trkpt>
      <trkpt lat="50.63024640083313" lon="13.392827259376645">
        <ele>598</ele>
        <time>2026-08-29T15:42:55Z</time>
      </trkpt>
      <trkpt lat="50.630211867392063" lon="13.392848884686828">
        <ele>598</ele>
        <time>2026-08-29T15:42:56Z</time>
      </trkpt>
      <trkpt lat="50.630179597064853" lon="13.392869336530566">
        <ele>599</ele>
        <time>2026-08-29T15:42:57Z</time>
      </trkpt>
      <trkpt lat="50.630147578194737" lon="13.392888866364956">
        <ele>599</ele>
        <time>2026-08-29T15:42:58Z</time>
      </trkpt>
      <trkpt lat="50.630118660628796" lon="13.392907977104187">
        <ele>599</ele>
        <time>2026-08-29T15:42:59Z</time>
      </trkpt>
      <trkpt lat="50.630090581253171" lon="13.392924489453435">
        <ele>600</ele>
        <time>2026-08-29T15:43:00Z</time>
      </trkpt>
      <trkpt lat="50.630063088610768" lon="13.392943600192666">
        <ele>600</ele>
        <time>2026-08-29T15:43:01Z</time>
      </trkpt>
      <trkpt lat="50.630037942901254" lon="13.392959274351597">
        <ele>600</ele>
        <time>2026-08-29T15:43:02Z</time>
      </trkpt>
      <trkpt lat="50.630009947344661" lon="13.392980061471462">
        <ele>600</ele>
        <time>2026-08-29T15:43:03Z</time>
      </trkpt>
      <trkpt lat="50.629984382539988" lon="13.39299850165844">
        <ele>600</ele>
        <time>2026-08-29T15:43:04Z</time>
      </trkpt>
      <trkpt lat="50.629952028393745" lon="13.393018366768956">
        <ele>600</ele>
        <time>2026-08-29T15:43:05Z</time>
      </trkpt>
      <trkpt lat="50.629924451932311" lon="13.393040411174297">
        <ele>600</ele>
        <time>2026-08-29T15:43:06Z</time>
      </trkpt>
      <trkpt lat="50.629891930148005" lon="13.393055163323879">
        <ele>601</ele>
        <time>2026-08-29T15:43:07Z</time>
      </trkpt>
      <trkpt lat="50.629862844944" lon="13.393075028434396">
        <ele>601</ele>
        <time>2026-08-29T15:43:08Z</time>
      </trkpt>
      <trkpt lat="50.629831748083234" lon="13.393092714250088">
        <ele>601</ele>
        <time>2026-08-29T15:43:09Z</time>
      </trkpt>
      <trkpt lat="50.629804506897926" lon="13.393120542168617">
        <ele>601</ele>
        <time>2026-08-29T15:43:10Z</time>
      </trkpt>
      <trkpt lat="50.629773158580065" lon="13.393144011497498">
        <ele>601</ele>
        <time>2026-08-29T15:43:11Z</time>
      </trkpt>
      <trkpt lat="50.629740301519632" lon="13.393160188570619">
        <ele>601</ele>
        <time>2026-08-29T15:43:12Z</time>
      </trkpt>
      <trkpt lat="50.629709456115961" lon="13.393179215490818">
        <ele>601</ele>
        <time>2026-08-29T15:43:13Z</time>
      </trkpt>
      <trkpt lat="50.629680622369051" lon="13.393197655677795">
        <ele>601</ele>
        <time>2026-08-29T15:43:14Z</time>
      </trkpt>
      <trkpt lat="50.629654889926314" lon="13.393216179683805">
        <ele>602</ele>
        <time>2026-08-29T15:43:15Z</time>
      </trkpt>
      <trkpt lat="50.629628570750356" lon="13.393226489424706">
        <ele>602</ele>
        <time>2026-08-29T15:43:16Z</time>
      </trkpt>
      <trkpt lat="50.629605352878571" lon="13.39323746971786">
        <ele>602</ele>
        <time>2026-08-29T15:43:17Z</time>
      </trkpt>
      <trkpt lat="50.629575261846185" lon="13.393250210210681">
        <ele>602</ele>
        <time>2026-08-29T15:43:18Z</time>
      </trkpt>
      <trkpt lat="50.629548691213131" lon="13.393269488587976">
        <ele>603</ele>
        <time>2026-08-29T15:43:19Z</time>
      </trkpt>
      <trkpt lat="50.629524132236838" lon="13.39328876696527">
        <ele>603</ele>
        <time>2026-08-29T15:43:20Z</time>
      </trkpt>
      <trkpt lat="50.629497477784753" lon="13.393302178010345">
        <ele>603</ele>
        <time>2026-08-29T15:43:21Z</time>
      </trkpt>
      <trkpt lat="50.62946897931397" lon="13.393311314284801">
        <ele>603</ele>
        <time>2026-08-29T15:43:22Z</time>
      </trkpt>
      <trkpt lat="50.62944064848125" lon="13.393321456387639">
        <ele>603</ele>
        <time>2026-08-29T15:43:23Z</time>
      </trkpt>
      <trkpt lat="50.629413910210133" lon="13.393331598490477">
        <ele>604</ele>
        <time>2026-08-29T15:43:24Z</time>
      </trkpt>
      <trkpt lat="50.629386166110635" lon="13.393345344811678">
        <ele>604</ele>
        <time>2026-08-29T15:43:25Z</time>
      </trkpt>
      <trkpt lat="50.629355572164059" lon="13.393356408923864">
        <ele>604</ele>
        <time>2026-08-29T15:43:26Z</time>
      </trkpt>
      <trkpt lat="50.629330258816481" lon="13.393374849110842">
        <ele>604</ele>
        <time>2026-08-29T15:43:27Z</time>
      </trkpt>
      <trkpt lat="50.629300000146031" lon="13.393397396430373">
        <ele>604</ele>
        <time>2026-08-29T15:43:28Z</time>
      </trkpt>
      <trkpt lat="50.629276111721992" lon="13.393412232398987">
        <ele>605</ele>
        <time>2026-08-29T15:43:29Z</time>
      </trkpt>
      <trkpt lat="50.629250630736351" lon="13.393419692292809">
        <ele>605</ele>
        <time>2026-08-29T15:43:30Z</time>
      </trkpt>
      <trkpt lat="50.62922665849328" lon="13.393426146358252">
        <ele>605</ele>
        <time>2026-08-29T15:43:31Z</time>
      </trkpt>
      <trkpt lat="50.629205955192447" lon="13.39342656545341">
        <ele>605</ele>
        <time>2026-08-29T15:43:32Z</time>
      </trkpt>
      <trkpt lat="50.629182318225503" lon="13.39342262595892">
        <ele>605</ele>
        <time>2026-08-29T15:43:33Z</time>
      </trkpt>
      <trkpt lat="50.629158429801464" lon="13.393423547968268">
        <ele>604</ele>
        <time>2026-08-29T15:43:34Z</time>
      </trkpt>
      <trkpt lat="50.62913428992033" lon="13.393427738919854">
        <ele>604</ele>
        <time>2026-08-29T15:43:35Z</time>
      </trkpt>
      <trkpt lat="50.629113251343369" lon="13.393433606252074">
        <ele>604</ele>
        <time>2026-08-29T15:43:36Z</time>
      </trkpt>
      <trkpt lat="50.629090955480933" lon="13.393433019518852">
        <ele>604</ele>
        <time>2026-08-29T15:43:37Z</time>
      </trkpt>
      <trkpt lat="50.629065055400133" lon="13.393442826345563">
        <ele>605</ele>
        <time>2026-08-29T15:43:38Z</time>
      </trkpt>
      <trkpt lat="50.629042843356729" lon="13.393453219905496">
        <ele>605</ele>
        <time>2026-08-29T15:43:39Z</time>
      </trkpt>
      <trkpt lat="50.629020128399134" lon="13.393456321209669">
        <ele>606</ele>
        <time>2026-08-29T15:43:40Z</time>
      </trkpt>
      <trkpt lat="50.628998083993793" lon="13.393461853265762">
        <ele>606</ele>
        <time>2026-08-29T15:43:41Z</time>
      </trkpt>
      <trkpt lat="50.628973189741373" lon="13.393463948741555">
        <ele>606</ele>
        <time>2026-08-29T15:43:42Z</time>
      </trkpt>
      <trkpt lat="50.628956342115998" lon="13.393470738083124">
        <ele>607</ele>
        <time>2026-08-29T15:43:43Z</time>
      </trkpt>
      <trkpt lat="50.628937147557735" lon="13.393477275967598">
        <ele>607</ele>
        <time>2026-08-29T15:43:44Z</time>
      </trkpt>
      <trkpt lat="50.628915689885616" lon="13.393479790538549">
        <ele>607</ele>
        <time>2026-08-29T15:43:45Z</time>
      </trkpt>
      <trkpt lat="50.628890879452229" lon="13.393481886014342">
        <ele>607</ele>
        <time>2026-08-29T15:43:46Z</time>
      </trkpt>
      <trkpt lat="50.628866320475936" lon="13.393488088622689">
        <ele>607</ele>
        <time>2026-08-29T15:43:47Z</time>
      </trkpt>
      <trkpt lat="50.628841258585453" lon="13.393488256260753">
        <ele>607</ele>
        <time>2026-08-29T15:43:48Z</time>
      </trkpt>
      <trkpt lat="50.628814436495304" lon="13.393487920984626">
        <ele>607</ele>
        <time>2026-08-29T15:43:49Z</time>
      </trkpt>
      <trkpt lat="50.628789290785789" lon="13.39349739253521">
        <ele>607</ele>
        <time>2026-08-29T15:43:50Z</time>
      </trkpt>
      <trkpt lat="50.628762384876609" lon="13.393502254039049">
        <ele>608</ele>
        <time>2026-08-29T15:43:51Z</time>
      </trkpt>
      <trkpt lat="50.628738161176443" lon="13.393506780266762">
        <ele>608</ele>
        <time>2026-08-29T15:43:52Z</time>
      </trkpt>
      <trkpt lat="50.628715781494975" lon="13.393516922369599">
        <ele>608</ele>
        <time>2026-08-29T15:43:53Z</time>
      </trkpt>
      <trkpt lat="50.628697089850903" lon="13.393522035330534">
        <ele>609</ele>
        <time>2026-08-29T15:43:54Z</time>
      </trkpt>
      <trkpt lat="50.628681080415845" lon="13.393516922369599">
        <ele>609</ele>
        <time>2026-08-29T15:43:55Z</time>
      </trkpt>
      <trkpt lat="50.62866180203855" lon="13.393522454425693">
        <ele>609</ele>
        <time>2026-08-29T15:43:56Z</time>
      </trkpt>
      <trkpt lat="50.628638081252575" lon="13.393526896834373">
        <ele>609</ele>
        <time>2026-08-29T15:43:57Z</time>
      </trkpt>
      <trkpt lat="50.628616791218519" lon="13.393521113321185">
        <ele>609</ele>
        <time>2026-08-29T15:43:58Z</time>
      </trkpt>
      <trkpt lat="50.628597429022193" lon="13.39351600036025">
        <ele>609</ele>
        <time>2026-08-29T15:43:59Z</time>
      </trkpt>
      <trkpt lat="50.628574630245566" lon="13.393512731418014">
        <ele>609</ele>
        <time>2026-08-29T15:44:00Z</time>
      </trkpt>
      <trkpt lat="50.628549819812179" lon="13.393521197140217">
        <ele>610</ele>
        <time>2026-08-29T15:44:01Z</time>
      </trkpt>
      <trkpt lat="50.628526518121362" lon="13.393534105271101">
        <ele>610</ele>
        <time>2026-08-29T15:44:02Z</time>
      </trkpt>
      <trkpt lat="50.62850003130734" lon="13.393545085564256">
        <ele>610</ele>
        <time>2026-08-29T15:44:03Z</time>
      </trkpt>
      <trkpt lat="50.628476981073618" lon="13.393552042543888">
        <ele>610</ele>
        <time>2026-08-29T15:44:04Z</time>
      </trkpt>
      <trkpt lat="50.628454349935055" lon="13.393555730581284">
        <ele>611</ele>
        <time>2026-08-29T15:44:05Z</time>
      </trkpt>
      <trkpt lat="50.628430293872952" lon="13.393555311486125">
        <ele>611</ele>
        <time>2026-08-29T15:44:06Z</time>
      </trkpt>
      <trkpt lat="50.628404058516026" lon="13.393560089170933">
        <ele>611</ele>
        <time>2026-08-29T15:44:07Z</time>
      </trkpt>
      <trkpt lat="50.628383355215192" lon="13.393562603741884">
        <ele>611</ele>
        <time>2026-08-29T15:44:08Z</time>
      </trkpt>
      <trkpt lat="50.628358125686646" lon="13.393562017008662">
        <ele>610</ele>
        <time>2026-08-29T15:44:09Z</time>
      </trkpt>
      <trkpt lat="50.628331638872623" lon="13.393563106656075">
        <ele>610</ele>
        <time>2026-08-29T15:44:10Z</time>
      </trkpt>
      <trkpt lat="50.628306828439236" lon="13.393566627055407">
        <ele>610</ele>
        <time>2026-08-29T15:44:11Z</time>
      </trkpt>
      <trkpt lat="50.628284951671958" lon="13.393573081120849">
        <ele>611</ele>
        <time>2026-08-29T15:44:12Z</time>
      </trkpt>
      <trkpt lat="50.628266762942076" lon="13.393570398911834">
        <ele>611</ele>
        <time>2026-08-29T15:44:13Z</time>
      </trkpt>
      <trkpt lat="50.628246227279305" lon="13.39357509277761">
        <ele>611</ele>
        <time>2026-08-29T15:44:14Z</time>
      </trkpt>
      <trkpt lat="50.628228709101677" lon="13.393576182425022">
        <ele>611</ele>
        <time>2026-08-29T15:44:15Z</time>
      </trkpt>
      <trkpt lat="50.628212867304683" lon="13.39357752352953">
        <ele>611</ele>
        <time>2026-08-29T15:44:16Z</time>
      </trkpt>
      <trkpt lat="50.628188224509358" lon="13.393588922917843">
        <ele>612</ele>
        <time>2026-08-29T15:44:17Z</time>
      </trkpt>
      <trkpt lat="50.628167856484652" lon="13.393589174374938">
        <ele>613</ele>
        <time>2026-08-29T15:44:18Z</time>
      </trkpt>
      <trkpt lat="50.62814874574542" lon="13.393597640097141">
        <ele>613</ele>
        <time>2026-08-29T15:44:19Z</time>
      </trkpt>
      <trkpt lat="50.62812284566462" lon="13.393601747229695">
        <ele>613</ele>
        <time>2026-08-29T15:44:20Z</time>
      </trkpt>
      <trkpt lat="50.628100717440248" lon="13.393605770543218">
        <ele>612</ele>
        <time>2026-08-29T15:44:21Z</time>
      </trkpt>
      <trkpt lat="50.628078589215875" lon="13.393600909039378">
        <ele>612</ele>
        <time>2026-08-29T15:44:22Z</time>
      </trkpt>
      <trkpt lat="50.62805344350636" lon="13.393600154668093">
        <ele>612</ele>
        <time>2026-08-29T15:44:23Z</time>
      </trkpt>
      <trkpt lat="50.628032656386495" lon="13.393606608733535">
        <ele>613</ele>
        <time>2026-08-29T15:44:24Z</time>
      </trkpt>
      <trkpt lat="50.628011450171471" lon="13.393603675067425">
        <ele>613</ele>
        <time>2026-08-29T15:44:25Z</time>
      </trkpt>
      <trkpt lat="50.627984879538417" lon="13.393614906817675">
        <ele>613</ele>
        <time>2026-08-29T15:44:26Z</time>
      </trkpt>
      <trkpt lat="50.627956548705697" lon="13.393622534349561">
        <ele>613</ele>
        <time>2026-08-29T15:44:27Z</time>
      </trkpt>
      <trkpt lat="50.627929978072643" lon="13.393627814948559">
        <ele>613</ele>
        <time>2026-08-29T15:44:28Z</time>
      </trkpt>
      <trkpt lat="50.627908017486334" lon="13.393626976758242">
        <ele>614</ele>
        <time>2026-08-29T15:44:29Z</time>
      </trkpt>
      <trkpt lat="50.627883709967136" lon="13.393639717251062">
        <ele>614</ele>
        <time>2026-08-29T15:44:30Z</time>
      </trkpt>
      <trkpt lat="50.627861749380827" lon="13.393649272620678">
        <ele>614</ele>
        <time>2026-08-29T15:44:31Z</time>
      </trkpt>
      <trkpt lat="50.627839118242264" lon="13.393660923466086">
        <ele>615</ele>
        <time>2026-08-29T15:44:32Z</time>
      </trkpt>
      <trkpt lat="50.62781891785562" lon="13.393662264570594">
        <ele>615</ele>
        <time>2026-08-29T15:44:33Z</time>
      </trkpt>
      <trkpt lat="50.62780081294477" lon="13.393662432208657">
        <ele>615</ele>
        <time>2026-08-29T15:44:34Z</time>
      </trkpt>
      <trkpt lat="50.627778768539429" lon="13.393669724464417">
        <ele>616</ele>
        <time>2026-08-29T15:44:35Z</time>
      </trkpt>
      <trkpt lat="50.627755802124739" lon="13.393674502149224">
        <ele>616</ele>
        <time>2026-08-29T15:44:36Z</time>
      </trkpt>
      <trkpt lat="50.627738451585174" lon="13.393685733899474">
        <ele>616</ele>
        <time>2026-08-29T15:44:37Z</time>
      </trkpt>
      <trkpt lat="50.627720849588513" lon="13.39368405751884">
        <ele>617</ele>
        <time>2026-08-29T15:44:38Z</time>
      </trkpt>
      <trkpt lat="50.627696961164474" lon="13.393680034205317">
        <ele>617</ele>
        <time>2026-08-29T15:44:39Z</time>
      </trkpt>
      <trkpt lat="50.627675168216228" lon="13.393680956214666">
        <ele>617</ele>
        <time>2026-08-29T15:44:40Z</time>
      </trkpt>
      <trkpt lat="50.627652620896697" lon="13.393687745556235">
        <ele>618</ele>
        <time>2026-08-29T15:44:41Z</time>
      </trkpt>
      <trkpt lat="50.62762881629169" lon="13.393691098317504">
        <ele>618</ele>
        <time>2026-08-29T15:44:42Z</time>
      </trkpt>
      <trkpt lat="50.627604089677334" lon="13.393690511584282">
        <ele>618</ele>
        <time>2026-08-29T15:44:43Z</time>
      </trkpt>
      <trkpt lat="50.627584978938103" lon="13.393696546554565">
        <ele>618</ele>
        <time>2026-08-29T15:44:44Z</time>
      </trkpt>
      <trkpt lat="50.627565030008554" lon="13.393702413886786">
        <ele>618</ele>
        <time>2026-08-29T15:44:45Z</time>
      </trkpt>
      <trkpt lat="50.627544578164816" lon="13.393713813275099">
        <ele>619</ele>
        <time>2026-08-29T15:44:46Z</time>
      </trkpt>
      <trkpt lat="50.627523874863982" lon="13.393720602616668">
        <ele>619</ele>
        <time>2026-08-29T15:44:47Z</time>
      </trkpt>
      <trkpt lat="50.627496549859643" lon="13.393727308139205">
        <ele>619</ele>
        <time>2026-08-29T15:44:48Z</time>
      </trkpt>
      <trkpt lat="50.627478109672666" lon="13.393733007833362">
        <ele>619</ele>
        <time>2026-08-29T15:44:49Z</time>
      </trkpt>
      <trkpt lat="50.627455981448293" lon="13.393740886822343">
        <ele>619</ele>
        <time>2026-08-29T15:44:50Z</time>
      </trkpt>
      <trkpt lat="50.627435026690364" lon="13.393749101087451">
        <ele>619</ele>
        <time>2026-08-29T15:44:51Z</time>
      </trkpt>
      <trkpt lat="50.627413569018245" lon="13.393752789124846">
        <ele>619</ele>
        <time>2026-08-29T15:44:52Z</time>
      </trkpt>
      <trkpt lat="50.627387082204223" lon="13.393764020875096">
        <ele>619</ele>
        <time>2026-08-29T15:44:53Z</time>
      </trkpt>
      <trkpt lat="50.62736202031374" lon="13.393772654235363">
        <ele>619</ele>
        <time>2026-08-29T15:44:54Z</time>
      </trkpt>
      <trkpt lat="50.627338467165828" lon="13.393779108300805">
        <ele>619</ele>
        <time>2026-08-29T15:44:55Z</time>
      </trkpt>
      <trkpt lat="50.627316338941455" lon="13.393784388899803">
        <ele>619</ele>
        <time>2026-08-29T15:44:56Z</time>
      </trkpt>
      <trkpt lat="50.627291528508067" lon="13.393794950097799">
        <ele>619</ele>
        <time>2026-08-29T15:44:57Z</time>
      </trkpt>
      <trkpt lat="50.627267137169838" lon="13.393799560144544">
        <ele>619</ele>
        <time>2026-08-29T15:44:58Z</time>
      </trkpt>
      <trkpt lat="50.62724475748837" lon="13.393808864057064">
        <ele>619</ele>
        <time>2026-08-29T15:44:59Z</time>
      </trkpt>
      <trkpt lat="50.627217851579189" lon="13.393821269273758">
        <ele>619</ele>
        <time>2026-08-29T15:45:00Z</time>
      </trkpt>
      <trkpt lat="50.627189520746469" lon="13.393834931775928">
        <ele>620</ele>
        <time>2026-08-29T15:45:01Z</time>
      </trkpt>
      <trkpt lat="50.627160770818591" lon="13.393849432468414">
        <ele>620</ele>
        <time>2026-08-29T15:45:02Z</time>
      </trkpt>
      <trkpt lat="50.627133613452315" lon="13.393858401104808">
        <ele>620</ele>
        <time>2026-08-29T15:45:03Z</time>
      </trkpt>
      <trkpt lat="50.627107881009579" lon="13.39387122541666">
        <ele>620</ele>
        <time>2026-08-29T15:45:04Z</time>
      </trkpt>
      <trkpt lat="50.627082232385874" lon="13.393891844898462">
        <ele>620</ele>
        <time>2026-08-29T15:45:05Z</time>
      </trkpt>
      <trkpt lat="50.627054991200566" lon="13.39391028508544">
        <ele>620</ele>
        <time>2026-08-29T15:45:06Z</time>
      </trkpt>
      <trkpt lat="50.627026576548815" lon="13.393924282863736">
        <ele>620</ele>
        <time>2026-08-29T15:45:07Z</time>
      </trkpt>
      <trkpt lat="50.627000592648983" lon="13.393938699737191">
        <ele>620</ele>
        <time>2026-08-29T15:45:08Z</time>
      </trkpt>
      <trkpt lat="50.626972848549485" lon="13.393953535705805">
        <ele>620</ele>
        <time>2026-08-29T15:45:09Z</time>
      </trkpt>
      <trkpt lat="50.626943595707417" lon="13.393965438008308">
        <ele>620</ele>
        <time>2026-08-29T15:45:10Z</time>
      </trkpt>
      <trkpt lat="50.626921802759171" lon="13.39398019015789">
        <ele>621</ele>
        <time>2026-08-29T15:45:11Z</time>
      </trkpt>
      <trkpt lat="50.626897411420941" lon="13.393998295068741">
        <ele>621</ele>
        <time>2026-08-29T15:45:12Z</time>
      </trkpt>
      <trkpt lat="50.626866649836302" lon="13.394010281190276">
        <ele>622</ele>
        <time>2026-08-29T15:45:13Z</time>
      </trkpt>
      <trkpt lat="50.626841671764851" lon="13.394031738862395">
        <ele>622</ele>
        <time>2026-08-29T15:45:14Z</time>
      </trkpt>
      <trkpt lat="50.626811664551497" lon="13.394051101058722">
        <ele>622</ele>
        <time>2026-08-29T15:45:15Z</time>
      </trkpt>
      <trkpt lat="50.626775119453669" lon="13.394063925370574">
        <ele>622</ele>
        <time>2026-08-29T15:45:16Z</time>
      </trkpt>
      <trkpt lat="50.626745279878378" lon="13.394084880128503">
        <ele>622</ele>
        <time>2026-08-29T15:45:17Z</time>
      </trkpt>
      <trkpt lat="50.626720301806927" lon="13.394099799916148">
        <ele>623</ele>
        <time>2026-08-29T15:45:18Z</time>
      </trkpt>
      <trkpt lat="50.626690462231636" lon="13.394115306437016">
        <ele>623</ele>
        <time>2026-08-29T15:45:19Z</time>
      </trkpt>
      <trkpt lat="50.626666070893407" lon="13.394126370549202">
        <ele>623</ele>
        <time>2026-08-29T15:45:20Z</time>
      </trkpt>
      <trkpt lat="50.626639500260353" lon="13.394137937575579">
        <ele>624</ele>
        <time>2026-08-29T15:45:21Z</time>
      </trkpt>
      <trkpt lat="50.626609828323126" lon="13.394149923697114">
        <ele>625</ele>
        <time>2026-08-29T15:45:22Z</time>
      </trkpt>
      <trkpt lat="50.626585939899087" lon="13.39416241273284">
        <ele>625</ele>
        <time>2026-08-29T15:45:23Z</time>
      </trkpt>
      <trkpt lat="50.62655920162797" lon="13.394167441874743">
        <ele>625</ele>
        <time>2026-08-29T15:45:24Z</time>
      </trkpt>
      <trkpt lat="50.626534475013614" lon="13.39417465031147">
        <ele>625</ele>
        <time>2026-08-29T15:45:25Z</time>
      </trkpt>
      <trkpt lat="50.62650740146637" lon="13.394186301156878">
        <ele>626</ele>
        <time>2026-08-29T15:45:26Z</time>
      </trkpt>
      <trkpt lat="50.626479657366872" lon="13.394199628382921">
        <ele>626</ele>
        <time>2026-08-29T15:45:27Z</time>
      </trkpt>
      <trkpt lat="50.626459624618292" lon="13.394209435209632">
        <ele>626</ele>
        <time>2026-08-29T15:45:28Z</time>
      </trkpt>
      <trkpt lat="50.62643313780427" lon="13.394211111590266">
        <ele>625</ele>
        <time>2026-08-29T15:45:29Z</time>
      </trkpt>
      <trkpt lat="50.626409668475389" lon="13.394206753000617">
        <ele>626</ele>
        <time>2026-08-29T15:45:30Z</time>
      </trkpt>
      <trkpt lat="50.626382092013955" lon="13.3942093513906">
        <ele>626</ele>
        <time>2026-08-29T15:45:31Z</time>
      </trkpt>
      <trkpt lat="50.626361137256026" lon="13.39420105330646">
        <ele>626</ele>
        <time>2026-08-29T15:45:32Z</time>
      </trkpt>
      <trkpt lat="50.626338422298431" lon="13.394211195409298">
        <ele>626</ele>
        <time>2026-08-29T15:45:33Z</time>
      </trkpt>
      <trkpt lat="50.626321155577898" lon="13.394217062741518">
        <ele>626</ele>
        <time>2026-08-29T15:45:34Z</time>
      </trkpt>
      <trkpt lat="50.626300452277064" lon="13.394224941730499">
        <ele>626</ele>
        <time>2026-08-29T15:45:35Z</time>
      </trkpt>
      <trkpt lat="50.626277569681406" lon="13.394230389967561">
        <ele>626</ele>
        <time>2026-08-29T15:45:36Z</time>
      </trkpt>
      <trkpt lat="50.62625820748508" lon="13.394230809062719">
        <ele>626</ele>
        <time>2026-08-29T15:45:37Z</time>
      </trkpt>
      <trkpt lat="50.626234989613295" lon="13.394228797405958">
        <ele>626</ele>
        <time>2026-08-29T15:45:38Z</time>
      </trkpt>
      <trkpt lat="50.626214621588588" lon="13.39422351680696">
        <ele>626</ele>
        <time>2026-08-29T15:45:39Z</time>
      </trkpt>
      <trkpt lat="50.626185620203614" lon="13.39422888122499">
        <ele>627</ele>
        <time>2026-08-29T15:45:40Z</time>
      </trkpt>
      <trkpt lat="50.626162989065051" lon="13.3942318148911">
        <ele>627</ele>
        <time>2026-08-29T15:45:41Z</time>
      </trkpt>
      <trkpt lat="50.626136250793934" lon="13.394239861518145">
        <ele>627</ele>
        <time>2026-08-29T15:45:42Z</time>
      </trkpt>
      <trkpt lat="50.626116972416639" lon="13.394250757992268">
        <ele>628</ele>
        <time>2026-08-29T15:45:43Z</time>
      </trkpt>
      <trkpt lat="50.626091994345188" lon="13.394259558990598">
        <ele>628</ele>
        <time>2026-08-29T15:45:44Z</time>
      </trkpt>
      <trkpt lat="50.626070871949196" lon="13.394267857074738">
        <ele>628</ele>
        <time>2026-08-29T15:45:45Z</time>
      </trkpt>
      <trkpt lat="50.626050671562552" lon="13.394280094653368">
        <ele>628</ele>
        <time>2026-08-29T15:45:46Z</time>
      </trkpt>
      <trkpt lat="50.626027788966894" lon="13.394293840974569">
        <ele>629</ele>
        <time>2026-08-29T15:45:47Z</time>
      </trkpt>
      <trkpt lat="50.626001469790936" lon="13.3943060785532">
        <ele>629</ele>
        <time>2026-08-29T15:45:48Z</time>
      </trkpt>
      <trkpt lat="50.625979760661721" lon="13.394328793510795">
        <ele>629</ele>
        <time>2026-08-29T15:45:49Z</time>
      </trkpt>
      <trkpt lat="50.625954950228333" lon="13.394351340830326">
        <ele>630</ele>
        <time>2026-08-29T15:45:50Z</time>
      </trkpt>
      <trkpt lat="50.625929469242692" lon="13.394371541216969">
        <ele>630</ele>
        <time>2026-08-29T15:45:51Z</time>
      </trkpt>
      <trkpt lat="50.625900970771909" lon="13.394389394670725">
        <ele>630</ele>
        <time>2026-08-29T15:45:52Z</time>
      </trkpt>
      <trkpt lat="50.625876747071743" lon="13.394410852342844">
        <ele>630</ele>
        <time>2026-08-29T15:45:53Z</time>
      </trkpt>
      <trkpt lat="50.625853529199958" lon="13.394423676654696">
        <ele>630</ele>
        <time>2026-08-29T15:45:54Z</time>
      </trkpt>
      <trkpt lat="50.625826371833682" lon="13.394442787393928">
        <ele>630</ele>
        <time>2026-08-29T15:45:55Z</time>
      </trkpt>
      <trkpt lat="50.625804746523499" lon="13.394463658332825">
        <ele>630</ele>
        <time>2026-08-29T15:45:56Z</time>
      </trkpt>
      <trkpt lat="50.625778343528509" lon="13.394478494301438">
        <ele>630</ele>
        <time>2026-08-29T15:45:57Z</time>
      </trkpt>
      <trkpt lat="50.625757221132517" lon="13.394498946145177">
        <ele>630</ele>
        <time>2026-08-29T15:45:58Z</time>
      </trkpt>
      <trkpt lat="50.625736936926842" lon="13.394515626132488">
        <ele>630</ele>
        <time>2026-08-29T15:45:59Z</time>
      </trkpt>
      <trkpt lat="50.625717071816325" lon="13.394534317776561">
        <ele>630</ele>
        <time>2026-08-29T15:46:00Z</time>
      </trkpt>
      <trkpt lat="50.625692261382937" lon="13.394551752135158">
        <ele>630</ele>
        <time>2026-08-29T15:46:01Z</time>
      </trkpt>
      <trkpt lat="50.625671222805977" lon="13.394569521769881">
        <ele>630</ele>
        <time>2026-08-29T15:46:02Z</time>
      </trkpt>
      <trkpt lat="50.625648843124509" lon="13.394588967785239">
        <ele>630</ele>
        <time>2026-08-29T15:46:03Z</time>
      </trkpt>
      <trkpt lat="50.6256303191185" lon="13.39461537078023">
        <ele>630</ele>
        <time>2026-08-29T15:46:04Z</time>
      </trkpt>
      <trkpt lat="50.625610118731856" lon="13.39463540352881">
        <ele>630</ele>
        <time>2026-08-29T15:46:05Z</time>
      </trkpt>
      <trkpt lat="50.625585308298469" lon="13.39465350843966">
        <ele>631</ele>
        <time>2026-08-29T15:46:06Z</time>
      </trkpt>
      <trkpt lat="50.625561000779271" lon="13.394679492339492">
        <ele>631</ele>
        <time>2026-08-29T15:46:07Z</time>
      </trkpt>
      <trkpt lat="50.625541470944881" lon="13.394699525088072">
        <ele>631</ele>
        <time>2026-08-29T15:46:08Z</time>
      </trkpt>
      <trkpt lat="50.625517833977938" lon="13.39471603743732">
        <ele>631</ele>
        <time>2026-08-29T15:46:09Z</time>
      </trkpt>
      <trkpt lat="50.62549252063036" lon="13.394744200631976">
        <ele>631</ele>
        <time>2026-08-29T15:46:10Z</time>
      </trkpt>
      <trkpt lat="50.62546125613153" lon="13.394770016893744">
        <ele>631</ele>
        <time>2026-08-29T15:46:11Z</time>
      </trkpt>
      <trkpt lat="50.625434601679444" lon="13.394796922802925">
        <ele>632</ele>
        <time>2026-08-29T15:46:12Z</time>
      </trkpt>
      <trkpt lat="50.62541289255023" lon="13.394820727407932">
        <ele>632</ele>
        <time>2026-08-29T15:46:13Z</time>
      </trkpt>
      <trkpt lat="50.625387160107493" lon="13.39485433883965">
        <ele>632</ele>
        <time>2026-08-29T15:46:14Z</time>
      </trkpt>
      <trkpt lat="50.625358829274774" lon="13.394874706864357">
        <ele>632</ele>
        <time>2026-08-29T15:46:15Z</time>
      </trkpt>
      <trkpt lat="50.625330079346895" lon="13.394905552268028">
        <ele>632</ele>
        <time>2026-08-29T15:46:16Z</time>
      </trkpt>
      <trkpt lat="50.625297138467431" lon="13.394937654957175">
        <ele>633</ele>
        <time>2026-08-29T15:46:17Z</time>
      </trkpt>
      <trkpt lat="50.625267801806331" lon="13.394965315237641">
        <ele>633</ele>
        <time>2026-08-29T15:46:18Z</time>
      </trkpt>
      <trkpt lat="50.625234777107835" lon="13.394996831193566">
        <ele>633</ele>
        <time>2026-08-29T15:46:19Z</time>
      </trkpt>
      <trkpt lat="50.625204099342227" lon="13.395024156197906">
        <ele>633</ele>
        <time>2026-08-29T15:46:20Z</time>
      </trkpt>
      <trkpt lat="50.625174175947905" lon="13.395046703517437">
        <ele>633</ele>
        <time>2026-08-29T15:46:21Z</time>
      </trkpt>
      <trkpt lat="50.625147186219692" lon="13.395074615254998">
        <ele>633</ele>
        <time>2026-08-29T15:46:22Z</time>
      </trkpt>
      <trkpt lat="50.625120531767607" lon="13.395099006593227">
        <ele>634</ele>
        <time>2026-08-29T15:46:23Z</time>
      </trkpt>
      <trkpt lat="50.625094547867775" lon="13.39512649923563">
        <ele>634</ele>
        <time>2026-08-29T15:46:24Z</time>
      </trkpt>
      <trkpt lat="50.625067977234721" lon="13.395155668258667">
        <ele>634</ele>
        <time>2026-08-29T15:46:25Z</time>
      </trkpt>
      <trkpt lat="50.625037886202335" lon="13.395186765119433">
        <ele>634</ele>
        <time>2026-08-29T15:46:26Z</time>
      </trkpt>
      <trkpt lat="50.625010225921869" lon="13.395220628008246">
        <ele>634</ele>
        <time>2026-08-29T15:46:27Z</time>
      </trkpt>
      <trkpt lat="50.624979212880135" lon="13.395253149792552">
        <ele>635</ele>
        <time>2026-08-29T15:46:28Z</time>
      </trkpt>
      <trkpt lat="50.624944847077131" lon="13.395291203632951">
        <ele>635</ele>
        <time>2026-08-29T15:46:29Z</time>
      </trkpt>
      <trkpt lat="50.624921461567283" lon="13.395325066521764">
        <ele>635</ele>
        <time>2026-08-29T15:46:30Z</time>
      </trkpt>
      <trkpt lat="50.624892292544246" lon="13.395362198352814">
        <ele>635</ele>
        <time>2026-08-29T15:46:31Z</time>
      </trkpt>
      <trkpt lat="50.624862369149923" lon="13.395396983250976">
        <ele>635</ele>
        <time>2026-08-29T15:46:32Z</time>
      </trkpt>
      <trkpt lat="50.624833451583982" lon="13.395447861403227">
        <ele>636</ele>
        <time>2026-08-29T15:46:33Z</time>
      </trkpt>
      <trkpt lat="50.62480553984642" lon="13.395493039861321">
        <ele>636</ele>
        <time>2026-08-29T15:46:34Z</time>
      </trkpt>
      <trkpt lat="50.624773856252432" lon="13.395530255511403">
        <ele>636</ele>
        <time>2026-08-29T15:46:35Z</time>
      </trkpt>
      <trkpt lat="50.624746112152934" lon="13.395568644627929">
        <ele>637</ele>
        <time>2026-08-29T15:46:36Z</time>
      </trkpt>
      <trkpt lat="50.62471660785377" lon="13.395611559972167">
        <ele>637</ele>
        <time>2026-08-29T15:46:37Z</time>
      </trkpt>
      <trkpt lat="50.624687187373638" lon="13.395658498629928">
        <ele>637</ele>
        <time>2026-08-29T15:46:38Z</time>
      </trkpt>
      <trkpt lat="50.624659107998013" lon="13.39570552110672">
        <ele>637</ele>
        <time>2026-08-29T15:46:39Z</time>
      </trkpt>
      <trkpt lat="50.624634632840753" lon="13.395750448107719">
        <ele>637</ele>
        <time>2026-08-29T15:46:40Z</time>
      </trkpt>
      <trkpt lat="50.624604541808367" lon="13.395807864144444">
        <ele>638</ele>
        <time>2026-08-29T15:46:41Z</time>
      </trkpt>
      <trkpt lat="50.62457537278533" lon="13.395852036774158">
        <ele>638</ele>
        <time>2026-08-29T15:46:42Z</time>
      </trkpt>
      <trkpt lat="50.624536145478487" lon="13.395889420062304">
        <ele>638</ele>
        <time>2026-08-29T15:46:43Z</time>
      </trkpt>
      <trkpt lat="50.624513262882829" lon="13.395917415618896">
        <ele>637</ele>
        <time>2026-08-29T15:46:44Z</time>
      </trkpt>
      <trkpt lat="50.62449331395328" lon="13.395940130576491">
        <ele>637</ele>
        <time>2026-08-29T15:46:45Z</time>
      </trkpt>
      <trkpt lat="50.624473951756954" lon="13.395953206345439">
        <ele>636</ele>
        <time>2026-08-29T15:46:46Z</time>
      </trkpt>
      <trkpt lat="50.624465737491846" lon="13.395965611562133">
        <ele>636</ele>
        <time>2026-08-29T15:46:47Z</time>
      </trkpt>
      <trkpt lat="50.624463390558958" lon="13.39595714583993">
        <ele>636</ele>
        <time>2026-08-29T15:46:48Z</time>
      </trkpt>
      <trkpt lat="50.624467330053449" lon="13.395949099212885">
        <ele>636</ele>
        <time>2026-08-29T15:46:49Z</time>
      </trkpt>
      <trkpt lat="50.624467832967639" lon="13.395948261022568">
        <ele>636</ele>
        <time>2026-08-29T15:46:50Z</time>
      </trkpt>
      <trkpt lat="50.624468084424734" lon="13.395947758108377">
        <ele>636</ele>
        <time>2026-08-29T15:46:51Z</time>
      </trkpt>
      <trkpt lat="50.624468419700861" lon="13.395948009565473">
        <ele>636</ele>
        <time>2026-08-29T15:46:52Z</time>
      </trkpt>
      <trkpt lat="50.624468671157956" lon="13.395947758108377">
        <ele>636</ele>
        <time>2026-08-29T15:46:53Z</time>
      </trkpt>
      <trkpt lat="50.62446883879602" lon="13.395947841927409">
        <ele>636</ele>
        <time>2026-08-29T15:46:54Z</time>
      </trkpt>
      <trkpt lat="50.624469257891178" lon="13.395947422832251">
        <ele>636</ele>
        <time>2026-08-29T15:46:55Z</time>
      </trkpt>
      <trkpt lat="50.624469174072146" lon="13.395947255194187">
        <ele>636</ele>
        <time>2026-08-29T15:46:56Z</time>
      </trkpt>
      <trkpt lat="50.62446883879602" lon="13.395947422832251">
        <ele>636</ele>
        <time>2026-08-29T15:46:57Z</time>
      </trkpt>
      <trkpt lat="50.624468671157956" lon="13.395948093384504">
        <ele>636</ele>
        <time>2026-08-29T15:46:58Z</time>
      </trkpt>
      <trkpt lat="50.624468671157956" lon="13.395948931574821">
        <ele>636</ele>
        <time>2026-08-29T15:46:59Z</time>
      </trkpt>
      <trkpt lat="50.624468922615051" lon="13.39594935066998">
        <ele>636</ele>
        <time>2026-08-29T15:47:00Z</time>
      </trkpt>
      <trkpt lat="50.624468419700861" lon="13.39595471508801">
        <ele>637</ele>
        <time>2026-08-29T15:47:01Z</time>
      </trkpt>
      <trkpt lat="50.62446883879602" lon="13.39595127850771">
        <ele>637</ele>
        <time>2026-08-29T15:47:02Z</time>
      </trkpt>
      <trkpt lat="50.624462887644768" lon="13.395959325134754">
        <ele>637</ele>
        <time>2026-08-29T15:47:03Z</time>
      </trkpt>
      <trkpt lat="50.624457858502865" lon="13.395958822220564">
        <ele>637</ele>
        <time>2026-08-29T15:47:04Z</time>
      </trkpt>
      <trkpt lat="50.624457858502865" lon="13.3959586545825">
        <ele>637</ele>
        <time>2026-08-29T15:47:05Z</time>
      </trkpt>
      <trkpt lat="50.624457858502865" lon="13.395958989858627">
        <ele>637</ele>
        <time>2026-08-29T15:47:06Z</time>
      </trkpt>
      <trkpt lat="50.62445810995996" lon="13.395959073677659">
        <ele>637</ele>
        <time>2026-08-29T15:47:07Z</time>
      </trkpt>
      <trkpt lat="50.62445810995996" lon="13.395959241315722">
        <ele>637</ele>
        <time>2026-08-29T15:47:08Z</time>
      </trkpt>
      <trkpt lat="50.624457942321897" lon="13.395959325134754">
        <ele>637</ele>
        <time>2026-08-29T15:47:09Z</time>
      </trkpt>
      <trkpt lat="50.62445810995996" lon="13.395959744229913">
        <ele>637</ele>
        <time>2026-08-29T15:47:10Z</time>
      </trkpt>
      <trkpt lat="50.624458193778992" lon="13.395960247144103">
        <ele>637</ele>
        <time>2026-08-29T15:47:11Z</time>
      </trkpt>
      <trkpt lat="50.624458277598023" lon="13.395960330963135">
        <ele>637</ele>
        <time>2026-08-29T15:47:12Z</time>
      </trkpt>
      <trkpt lat="50.624458361417055" lon="13.395960414782166">
        <ele>637</ele>
        <time>2026-08-29T15:47:13Z</time>
      </trkpt>
      <trkpt lat="50.624458277598023" lon="13.395960750058293">
        <ele>637</ele>
        <time>2026-08-29T15:47:14Z</time>
      </trkpt>
      <trkpt lat="50.624458361417055" lon="13.395960666239262">
        <ele>637</ele>
        <time>2026-08-29T15:47:15Z</time>
      </trkpt>
      <trkpt lat="50.624458529055119" lon="13.395960330963135">
        <ele>637</ele>
        <time>2026-08-29T15:47:16Z</time>
      </trkpt>
      <trkpt lat="50.624458780512214" lon="13.395959828048944">
        <ele>637</ele>
        <time>2026-08-29T15:47:17Z</time>
      </trkpt>
      <trkpt lat="50.624458780512214" lon="13.395959492772818">
        <ele>637</ele>
        <time>2026-08-29T15:47:18Z</time>
      </trkpt>
      <trkpt lat="50.624458780512214" lon="13.395959492772818">
        <ele>637</ele>
        <time>2026-08-29T15:47:19Z</time>
      </trkpt>
      <trkpt lat="50.624458780512214" lon="13.395959325134754">
        <ele>637</ele>
        <time>2026-08-29T15:47:20Z</time>
      </trkpt>
      <trkpt lat="50.624458948150277" lon="13.395958989858627">
        <ele>637</ele>
        <time>2026-08-29T15:47:21Z</time>
      </trkpt>
      <trkpt lat="50.624459031969309" lon="13.395959576591849">
        <ele>637</ele>
        <time>2026-08-29T15:47:22Z</time>
      </trkpt>
      <trkpt lat="50.624459199607372" lon="13.395959911867976">
        <ele>637</ele>
        <time>2026-08-29T15:47:23Z</time>
      </trkpt>
      <trkpt lat="50.624459199607372" lon="13.39596058242023">
        <ele>637</ele>
        <time>2026-08-29T15:47:24Z</time>
      </trkpt>
      <trkpt lat="50.624459199607372" lon="13.395960833877325">
        <ele>637</ele>
        <time>2026-08-29T15:47:25Z</time>
      </trkpt>
      <trkpt lat="50.624459031969309" lon="13.39596108533442">
        <ele>637</ele>
        <time>2026-08-29T15:47:26Z</time>
      </trkpt>
      <trkpt lat="50.624459031969309" lon="13.395961420610547">
        <ele>637</ele>
        <time>2026-08-29T15:47:27Z</time>
      </trkpt>
      <trkpt lat="50.624458780512214" lon="13.395962007343769">
        <ele>637</ele>
        <time>2026-08-29T15:47:28Z</time>
      </trkpt>
      <trkpt lat="50.624458948150277" lon="13.395962174981833">
        <ele>637</ele>
        <time>2026-08-29T15:47:29Z</time>
      </trkpt>
      <trkpt lat="50.624459031969309" lon="13.395962426438928">
        <ele>637</ele>
        <time>2026-08-29T15:47:30Z</time>
      </trkpt>
      <trkpt lat="50.624459031969309" lon="13.395962677896023">
        <ele>637</ele>
        <time>2026-08-29T15:47:31Z</time>
      </trkpt>
      <trkpt lat="50.624459199607372" lon="13.395963096991181">
        <ele>637</ele>
        <time>2026-08-29T15:47:32Z</time>
      </trkpt>
      <trkpt lat="50.624459367245436" lon="13.395963180810213">
        <ele>637</ele>
        <time>2026-08-29T15:47:33Z</time>
      </trkpt>
      <trkpt lat="50.624459451064467" lon="13.395963348448277">
        <ele>637</ele>
        <time>2026-08-29T15:47:34Z</time>
      </trkpt>
      <trkpt lat="50.624459618702531" lon="13.39596401900053">
        <ele>637</ele>
        <time>2026-08-29T15:47:35Z</time>
      </trkpt>
      <trkpt lat="50.624459702521563" lon="13.395964102819562">
        <ele>637</ele>
        <time>2026-08-29T15:47:36Z</time>
      </trkpt>
      <trkpt lat="50.624459618702531" lon="13.395964438095689">
        <ele>637</ele>
        <time>2026-08-29T15:47:37Z</time>
      </trkpt>
      <trkpt lat="50.624459618702531" lon="13.395964857190847">
        <ele>637</ele>
        <time>2026-08-29T15:47:38Z</time>
      </trkpt>
      <trkpt lat="50.624459618702531" lon="13.395964857190847">
        <ele>637</ele>
        <time>2026-08-29T15:47:39Z</time>
      </trkpt>
      <trkpt lat="50.624459702521563" lon="13.395965108647943">
        <ele>637</ele>
        <time>2026-08-29T15:47:40Z</time>
      </trkpt>
      <trkpt lat="50.624459702521563" lon="13.395965276286006">
        <ele>637</ele>
        <time>2026-08-29T15:47:41Z</time>
      </trkpt>
      <trkpt lat="50.624459702521563" lon="13.395965276286006">
        <ele>637</ele>
        <time>2026-08-29T15:47:42Z</time>
      </trkpt>
      <trkpt lat="50.624459702521563" lon="13.395964857190847">
        <ele>637</ele>
        <time>2026-08-29T15:47:43Z</time>
      </trkpt>
      <trkpt lat="50.624459702521563" lon="13.395964270457625">
        <ele>637</ele>
        <time>2026-08-29T15:47:44Z</time>
      </trkpt>
      <trkpt lat="50.624459618702531" lon="13.395963935181499">
        <ele>638</ele>
        <time>2026-08-29T15:47:45Z</time>
      </trkpt>
      <trkpt lat="50.624459618702531" lon="13.395963851362467">
        <ele>638</ele>
        <time>2026-08-29T15:47:46Z</time>
      </trkpt>
      <trkpt lat="50.624459618702531" lon="13.395963767543435">
        <ele>638</ele>
        <time>2026-08-29T15:47:47Z</time>
      </trkpt>
      <trkpt lat="50.624459618702531" lon="13.395964186638594">
        <ele>638</ele>
        <time>2026-08-29T15:47:48Z</time>
      </trkpt>
      <trkpt lat="50.624459618702531" lon="13.395964354276657">
        <ele>638</ele>
        <time>2026-08-29T15:47:49Z</time>
      </trkpt>
      <trkpt lat="50.624459702521563" lon="13.395964689552784">
        <ele>637</ele>
        <time>2026-08-29T15:47:50Z</time>
      </trkpt>
      <trkpt lat="50.624459870159626" lon="13.395964857190847">
        <ele>637</ele>
        <time>2026-08-29T15:47:51Z</time>
      </trkpt>
      <trkpt lat="50.624460037797689" lon="13.395965192466974">
        <ele>637</ele>
        <time>2026-08-29T15:47:52Z</time>
      </trkpt>
      <trkpt lat="50.624460289254785" lon="13.395971143618226">
        <ele>637</ele>
        <time>2026-08-29T15:47:53Z</time>
      </trkpt>
      <trkpt lat="50.624460289254785" lon="13.395971227437258">
        <ele>637</ele>
        <time>2026-08-29T15:47:54Z</time>
      </trkpt>
      <trkpt lat="50.624460373073816" lon="13.395970975980163">
        <ele>637</ele>
        <time>2026-08-29T15:47:55Z</time>
      </trkpt>
      <trkpt lat="50.624460708349943" lon="13.395972149446607">
        <ele>638</ele>
        <time>2026-08-29T15:47:56Z</time>
      </trkpt>
      <trkpt lat="50.624460792168975" lon="13.395971981808543">
        <ele>638</ele>
        <time>2026-08-29T15:47:57Z</time>
      </trkpt>
      <trkpt lat="50.624460708349943" lon="13.395971981808543">
        <ele>638</ele>
        <time>2026-08-29T15:47:58Z</time>
      </trkpt>
      <trkpt lat="50.624460792168975" lon="13.395971981808543">
        <ele>638</ele>
        <time>2026-08-29T15:47:59Z</time>
      </trkpt>
      <trkpt lat="50.624460875988007" lon="13.395971730351448">
        <ele>638</ele>
        <time>2026-08-29T15:48:00Z</time>
      </trkpt>
      <trkpt lat="50.624460959807038" lon="13.39597181417048">
        <ele>638</ele>
        <time>2026-08-29T15:48:01Z</time>
      </trkpt>
      <trkpt lat="50.624460875988007" lon="13.395971562713385">
        <ele>638</ele>
        <time>2026-08-29T15:48:02Z</time>
      </trkpt>
      <trkpt lat="50.624460708349943" lon="13.395971897989511">
        <ele>638</ele>
        <time>2026-08-29T15:48:03Z</time>
      </trkpt>
      <trkpt lat="50.624460624530911" lon="13.39597231708467">
        <ele>638</ele>
        <time>2026-08-29T15:48:04Z</time>
      </trkpt>
      <trkpt lat="50.624460456892848" lon="13.395972568541765">
        <ele>638</ele>
        <time>2026-08-29T15:48:05Z</time>
      </trkpt>
      <trkpt lat="50.624460456892848" lon="13.395972903817892">
        <ele>638</ele>
        <time>2026-08-29T15:48:06Z</time>
      </trkpt>
      <trkpt lat="50.624460373073816" lon="13.395973155274987">
        <ele>638</ele>
        <time>2026-08-29T15:48:07Z</time>
      </trkpt>
      <trkpt lat="50.624460289254785" lon="13.395973322913051">
        <ele>638</ele>
        <time>2026-08-29T15:48:08Z</time>
      </trkpt>
      <trkpt lat="50.624460289254785" lon="13.395973574370146">
        <ele>638</ele>
        <time>2026-08-29T15:48:09Z</time>
      </trkpt>
      <trkpt lat="50.624460289254785" lon="13.395973742008209">
        <ele>638</ele>
        <time>2026-08-29T15:48:10Z</time>
      </trkpt>
      <trkpt lat="50.624460289254785" lon="13.395973909646273">
        <ele>638</ele>
        <time>2026-08-29T15:48:11Z</time>
      </trkpt>
      <trkpt lat="50.624460121616721" lon="13.395973993465304">
        <ele>638</ele>
        <time>2026-08-29T15:48:12Z</time>
      </trkpt>
      <trkpt lat="50.624460205435753" lon="13.395973742008209">
        <ele>638</ele>
        <time>2026-08-29T15:48:13Z</time>
      </trkpt>
      <trkpt lat="50.624460121616721" lon="13.395973825827241">
        <ele>638</ele>
        <time>2026-08-29T15:48:14Z</time>
      </trkpt>
      <trkpt lat="50.624460037797689" lon="13.395973406732082">
        <ele>638</ele>
        <time>2026-08-29T15:48:15Z</time>
      </trkpt>
      <trkpt lat="50.624460037797689" lon="13.395972987636924">
        <ele>638</ele>
        <time>2026-08-29T15:48:16Z</time>
      </trkpt>
      <trkpt lat="50.624459953978658" lon="13.395972484722733">
        <ele>638</ele>
        <time>2026-08-29T15:48:17Z</time>
      </trkpt>
      <trkpt lat="50.624459870159626" lon="13.395972400903702">
        <ele>638</ele>
        <time>2026-08-29T15:48:18Z</time>
      </trkpt>
      <trkpt lat="50.624459953978658" lon="13.395972065627575">
        <ele>638</ele>
        <time>2026-08-29T15:48:19Z</time>
      </trkpt>
      <trkpt lat="50.624460037797689" lon="13.395971730351448">
        <ele>638</ele>
        <time>2026-08-29T15:48:20Z</time>
      </trkpt>
      <trkpt lat="50.624460037797689" lon="13.39597181417048">
        <ele>638</ele>
        <time>2026-08-29T15:48:21Z</time>
      </trkpt>
      <trkpt lat="50.624460037797689" lon="13.395971981808543">
        <ele>638</ele>
        <time>2026-08-29T15:48:22Z</time>
      </trkpt>
      <trkpt lat="50.624459953978658" lon="13.395971981808543">
        <ele>638</ele>
        <time>2026-08-29T15:48:23Z</time>
      </trkpt>
      <trkpt lat="50.624459870159626" lon="13.39597181417048">
        <ele>638</ele>
        <time>2026-08-29T15:48:24Z</time>
      </trkpt>
      <trkpt lat="50.624459870159626" lon="13.395971562713385">
        <ele>638</ele>
        <time>2026-08-29T15:48:25Z</time>
      </trkpt>
      <trkpt lat="50.624459786340594" lon="13.395971562713385">
        <ele>638</ele>
        <time>2026-08-29T15:48:26Z</time>
      </trkpt>
      <trkpt lat="50.624459702521563" lon="13.395971897989511">
        <ele>638</ele>
        <time>2026-08-29T15:48:27Z</time>
      </trkpt>
      <trkpt lat="50.624459534883499" lon="13.395972065627575">
        <ele>638</ele>
        <time>2026-08-29T15:48:28Z</time>
      </trkpt>
      <trkpt lat="50.624459451064467" lon="13.395972065627575">
        <ele>638</ele>
        <time>2026-08-29T15:48:29Z</time>
      </trkpt>
      <trkpt lat="50.624459367245436" lon="13.395972149446607">
        <ele>638</ele>
        <time>2026-08-29T15:48:30Z</time>
      </trkpt>
      <trkpt lat="50.624459367245436" lon="13.395972233265638">
        <ele>638</ele>
        <time>2026-08-29T15:48:31Z</time>
      </trkpt>
      <trkpt lat="50.624459451064467" lon="13.395972400903702">
        <ele>638</ele>
        <time>2026-08-29T15:48:32Z</time>
      </trkpt>
      <trkpt lat="50.624459618702531" lon="13.395972652360797">
        <ele>638</ele>
        <time>2026-08-29T15:48:33Z</time>
      </trkpt>
      <trkpt lat="50.624459702521563" lon="13.395972987636924">
        <ele>638</ele>
        <time>2026-08-29T15:48:34Z</time>
      </trkpt>
      <trkpt lat="50.624459702521563" lon="13.395973322913051">
        <ele>638</ele>
        <time>2026-08-29T15:48:35Z</time>
      </trkpt>
      <trkpt lat="50.624459702521563" lon="13.395973155274987">
        <ele>638</ele>
        <time>2026-08-29T15:48:36Z</time>
      </trkpt>
      <trkpt lat="50.624459618702531" lon="13.395973239094019">
        <ele>638</ele>
        <time>2026-08-29T15:48:37Z</time>
      </trkpt>
      <trkpt lat="50.624459618702531" lon="13.395973406732082">
        <ele>638</ele>
        <time>2026-08-29T15:48:38Z</time>
      </trkpt>
      <trkpt lat="50.624459534883499" lon="13.395973239094019">
        <ele>638</ele>
        <time>2026-08-29T15:48:39Z</time>
      </trkpt>
      <trkpt lat="50.624459451064467" lon="13.395973239094019">
        <ele>638</ele>
        <time>2026-08-29T15:48:40Z</time>
      </trkpt>
      <trkpt lat="50.624459451064467" lon="13.395973322913051">
        <ele>638</ele>
        <time>2026-08-29T15:48:41Z</time>
      </trkpt>
      <trkpt lat="50.624459451064467" lon="13.395973322913051">
        <ele>638</ele>
        <time>2026-08-29T15:48:42Z</time>
      </trkpt>
      <trkpt lat="50.624459451064467" lon="13.395973406732082">
        <ele>638</ele>
        <time>2026-08-29T15:48:43Z</time>
      </trkpt>
      <trkpt lat="50.624459451064467" lon="13.395973322913051">
        <ele>638</ele>
        <time>2026-08-29T15:48:44Z</time>
      </trkpt>
      <trkpt lat="50.624459451064467" lon="13.395973406732082">
        <ele>638</ele>
        <time>2026-08-29T15:48:45Z</time>
      </trkpt>
      <trkpt lat="50.624459451064467" lon="13.395973322913051">
        <ele>638</ele>
        <time>2026-08-29T15:48:46Z</time>
      </trkpt>
      <trkpt lat="50.624459283426404" lon="13.395973322913051">
        <ele>638</ele>
        <time>2026-08-29T15:48:47Z</time>
      </trkpt>
      <trkpt lat="50.624459451064467" lon="13.395973742008209">
        <ele>638</ele>
        <time>2026-08-29T15:48:48Z</time>
      </trkpt>
      <trkpt lat="50.624459451064467" lon="13.395973742008209">
        <ele>638</ele>
        <time>2026-08-29T15:48:49Z</time>
      </trkpt>
      <trkpt lat="50.624459534883499" lon="13.395973825827241">
        <ele>638</ele>
        <time>2026-08-29T15:48:50Z</time>
      </trkpt>
      <trkpt lat="50.624459534883499" lon="13.395973993465304">
        <ele>638</ele>
        <time>2026-08-29T15:48:51Z</time>
      </trkpt>
      <trkpt lat="50.624459199607372" lon="13.395973993465304">
        <ele>638</ele>
        <time>2026-08-29T15:48:52Z</time>
      </trkpt>
      <trkpt lat="50.624458864331245" lon="13.395974077284336">
        <ele>638</ele>
        <time>2026-08-29T15:48:53Z</time>
      </trkpt>
      <trkpt lat="50.624458948150277" lon="13.395973825827241">
        <ele>638</ele>
        <time>2026-08-29T15:48:54Z</time>
      </trkpt>
      <trkpt lat="50.624459031969309" lon="13.395973909646273">
        <ele>638</ele>
        <time>2026-08-29T15:48:55Z</time>
      </trkpt>
      <trkpt lat="50.624459115788341" lon="13.395973993465304">
        <ele>638</ele>
        <time>2026-08-29T15:48:56Z</time>
      </trkpt>
      <trkpt lat="50.624459199607372" lon="13.395973658189178">
        <ele>638</ele>
        <time>2026-08-29T15:48:57Z</time>
      </trkpt>
      <trkpt lat="50.624459199607372" lon="13.395973574370146">
        <ele>638</ele>
        <time>2026-08-29T15:48:58Z</time>
      </trkpt>
      <trkpt lat="50.624459283426404" lon="13.395973490551114">
        <ele>638</ele>
        <time>2026-08-29T15:48:59Z</time>
      </trkpt>
      <trkpt lat="50.624459367245436" lon="13.395973406732082">
        <ele>638</ele>
        <time>2026-08-29T15:49:00Z</time>
      </trkpt>
      <trkpt lat="50.624459786340594" lon="13.395973490551114">
        <ele>638</ele>
        <time>2026-08-29T15:49:01Z</time>
      </trkpt>
      <trkpt lat="50.624460121616721" lon="13.395973490551114">
        <ele>638</ele>
        <time>2026-08-29T15:49:02Z</time>
      </trkpt>
      <trkpt lat="50.624460373073816" lon="13.395973071455956">
        <ele>638</ele>
        <time>2026-08-29T15:49:03Z</time>
      </trkpt>
      <trkpt lat="50.624460708349943" lon="13.395972568541765">
        <ele>638</ele>
        <time>2026-08-29T15:49:04Z</time>
      </trkpt>
      <trkpt lat="50.62446104362607" lon="13.39597231708467">
        <ele>638</ele>
        <time>2026-08-29T15:49:05Z</time>
      </trkpt>
      <trkpt lat="50.624461378902197" lon="13.395972065627575">
        <ele>638</ele>
        <time>2026-08-29T15:49:06Z</time>
      </trkpt>
      <trkpt lat="50.624461630359292" lon="13.395971730351448">
        <ele>638</ele>
        <time>2026-08-29T15:49:07Z</time>
      </trkpt>
      <trkpt lat="50.624461881816387" lon="13.395971562713385">
        <ele>638</ele>
        <time>2026-08-29T15:49:08Z</time>
      </trkpt>
      <trkpt lat="50.624462049454451" lon="13.395971395075321">
        <ele>638</ele>
        <time>2026-08-29T15:49:09Z</time>
      </trkpt>
      <trkpt lat="50.624462300911546" lon="13.395971395075321">
        <ele>638</ele>
        <time>2026-08-29T15:49:10Z</time>
      </trkpt>
      <trkpt lat="50.624462552368641" lon="13.395971478894353">
        <ele>638</ele>
        <time>2026-08-29T15:49:11Z</time>
      </trkpt>
      <trkpt lat="50.624462720006704" lon="13.395971478894353">
        <ele>638</ele>
        <time>2026-08-29T15:49:12Z</time>
      </trkpt>
      <trkpt lat="50.624462803825736" lon="13.395971562713385">
        <ele>638</ele>
        <time>2026-08-29T15:49:13Z</time>
      </trkpt>
      <trkpt lat="50.624462971463799" lon="13.395971646532416">
        <ele>638</ele>
        <time>2026-08-29T15:49:14Z</time>
      </trkpt>
      <trkpt lat="50.624462971463799" lon="13.395971562713385">
        <ele>638</ele>
        <time>2026-08-29T15:49:15Z</time>
      </trkpt>
      <trkpt lat="50.624463222920895" lon="13.395971143618226">
        <ele>638</ele>
        <time>2026-08-29T15:49:16Z</time>
      </trkpt>
      <trkpt lat="50.624463306739926" lon="13.395971143618226">
        <ele>638</ele>
        <time>2026-08-29T15:49:17Z</time>
      </trkpt>
      <trkpt lat="50.624463390558958" lon="13.395971059799194">
        <ele>638</ele>
        <time>2026-08-29T15:49:18Z</time>
      </trkpt>
      <trkpt lat="50.624463642016053" lon="13.395970640704036">
        <ele>638</ele>
        <time>2026-08-29T15:49:19Z</time>
      </trkpt>
      <trkpt lat="50.624463809654117" lon="13.395970473065972">
        <ele>638</ele>
        <time>2026-08-29T15:49:20Z</time>
      </trkpt>
      <trkpt lat="50.624463809654117" lon="13.395970473065972">
        <ele>638</ele>
        <time>2026-08-29T15:49:21Z</time>
      </trkpt>
      <trkpt lat="50.624463642016053" lon="13.395970305427909">
        <ele>638</ele>
        <time>2026-08-29T15:49:22Z</time>
      </trkpt>
      <trkpt lat="50.624463558197021" lon="13.395970053970814">
        <ele>638</ele>
        <time>2026-08-29T15:49:23Z</time>
      </trkpt>
      <trkpt lat="50.624463390558958" lon="13.39596988633275">
        <ele>638</ele>
        <time>2026-08-29T15:49:24Z</time>
      </trkpt>
      <trkpt lat="50.624463390558958" lon="13.395969718694687">
        <ele>638</ele>
        <time>2026-08-29T15:49:25Z</time>
      </trkpt>
      <trkpt lat="50.624463222920895" lon="13.39596938341856">
        <ele>638</ele>
        <time>2026-08-29T15:49:26Z</time>
      </trkpt>
      <trkpt lat="50.624463222920895" lon="13.395969299599528">
        <ele>638</ele>
        <time>2026-08-29T15:49:27Z</time>
      </trkpt>
      <trkpt lat="50.624463139101863" lon="13.39596938341856">
        <ele>638</ele>
        <time>2026-08-29T15:49:28Z</time>
      </trkpt>
      <trkpt lat="50.624462971463799" lon="13.39596938341856">
        <ele>638</ele>
        <time>2026-08-29T15:49:29Z</time>
      </trkpt>
      <trkpt lat="50.624455343931913" lon="13.395960750058293">
        <ele>638</ele>
        <time>2026-08-29T15:49:30Z</time>
      </trkpt>
      <trkpt lat="50.624456852674484" lon="13.395966282114387">
        <ele>639</ele>
        <time>2026-08-29T15:49:31Z</time>
      </trkpt>
      <trkpt lat="50.624450398609042" lon="13.39596594683826">
        <ele>638</ele>
        <time>2026-08-29T15:49:32Z</time>
      </trkpt>
      <trkpt lat="50.624446291476488" lon="13.395970724523067">
        <ele>638</ele>
        <time>2026-08-29T15:49:33Z</time>
      </trkpt>
      <trkpt lat="50.624448051676154" lon="13.395970556885004">
        <ele>638</ele>
        <time>2026-08-29T15:49:34Z</time>
      </trkpt>
      <trkpt lat="50.62444981187582" lon="13.395969718694687">
        <ele>638</ele>
        <time>2026-08-29T15:49:35Z</time>
      </trkpt>
      <trkpt lat="50.624449057504535" lon="13.395969802513719">
        <ele>638</ele>
        <time>2026-08-29T15:49:36Z</time>
      </trkpt>
      <trkpt lat="50.624449057504535" lon="13.395969551056623">
        <ele>638</ele>
        <time>2026-08-29T15:49:37Z</time>
      </trkpt>
      <trkpt lat="50.624448386952281" lon="13.395977597683668">
        <ele>638</ele>
        <time>2026-08-29T15:49:38Z</time>
      </trkpt>
      <trkpt lat="50.624452577903867" lon="13.395987907424569">
        <ele>638</ele>
        <time>2026-08-29T15:49:39Z</time>
      </trkpt>
      <trkpt lat="50.624454002827406" lon="13.395985309034586">
        <ele>637</ele>
        <time>2026-08-29T15:49:40Z</time>
      </trkpt>
      <trkpt lat="50.624449560418725" lon="13.395989248529077">
        <ele>637</ele>
        <time>2026-08-29T15:49:41Z</time>
      </trkpt>
      <trkpt lat="50.624441178515553" lon="13.396001737564802">
        <ele>637</ele>
        <time>2026-08-29T15:49:42Z</time>
      </trkpt>
      <trkpt lat="50.624438747763634" lon="13.396010957658291">
        <ele>638</ele>
        <time>2026-08-29T15:49:43Z</time>
      </trkpt>
      <trkpt lat="50.62443028204143" lon="13.396035684272647">
        <ele>638</ele>
        <time>2026-08-29T15:49:44Z</time>
      </trkpt>
      <trkpt lat="50.62441268004477" lon="13.396062506362796">
        <ele>638</ele>
        <time>2026-08-29T15:49:45Z</time>
      </trkpt>
      <trkpt lat="50.624389629811049" lon="13.396091926842928">
        <ele>638</ele>
        <time>2026-08-29T15:49:46Z</time>
      </trkpt>
      <trkpt lat="50.624373201280832" lon="13.396140206605196">
        <ele>638</ele>
        <time>2026-08-29T15:49:47Z</time>
      </trkpt>
      <trkpt lat="50.624347217381001" lon="13.396198460832238">
        <ele>638</ele>
        <time>2026-08-29T15:49:48Z</time>
      </trkpt>
      <trkpt lat="50.624323999509215" lon="13.396252356469631">
        <ele>638</ele>
        <time>2026-08-29T15:49:49Z</time>
      </trkpt>
      <trkpt lat="50.624285526573658" lon="13.396306922659278">
        <ele>637</ele>
        <time>2026-08-29T15:49:50Z</time>
      </trkpt>
      <trkpt lat="50.624256441369653" lon="13.39635293930769">
        <ele>638</ele>
        <time>2026-08-29T15:49:51Z</time>
      </trkpt>
      <trkpt lat="50.624222746118903" lon="13.396398955956101">
        <ele>638</ele>
        <time>2026-08-29T15:49:52Z</time>
      </trkpt>
      <trkpt lat="50.624186703935266" lon="13.396454527974129">
        <ele>638</ele>
        <time>2026-08-29T15:49:53Z</time>
      </trkpt>
      <trkpt lat="50.624153008684516" lon="13.396492581814528">
        <ele>637</ele>
        <time>2026-08-29T15:49:54Z</time>
      </trkpt>
      <trkpt lat="50.624119648709893" lon="13.396540945395827">
        <ele>637</ele>
        <time>2026-08-29T15:49:55Z</time>
      </trkpt>
      <trkpt lat="50.624085031449795" lon="13.396590482443571">
        <ele>637</ele>
        <time>2026-08-29T15:49:56Z</time>
      </trkpt>
      <trkpt lat="50.624057538807392" lon="13.396651167422533">
        <ele>636</ele>
        <time>2026-08-29T15:49:57Z</time>
      </trkpt>
      <trkpt lat="50.624021915718913" lon="13.396711265668273">
        <ele>636</ele>
        <time>2026-08-29T15:49:58Z</time>
      </trkpt>
      <trkpt lat="50.623980928212404" lon="13.396774046123028">
        <ele>636</ele>
        <time>2026-08-29T15:49:59Z</time>
      </trkpt>
      <trkpt lat="50.623941952362657" lon="13.39683230035007">
        <ele>635</ele>
        <time>2026-08-29T15:50:00Z</time>
      </trkpt>
      <trkpt lat="50.623899037018418" lon="13.396905390545726">
        <ele>635</ele>
        <time>2026-08-29T15:50:01Z</time>
      </trkpt>
      <trkpt lat="50.623858720064163" lon="13.396978648379445">
        <ele>635</ele>
        <time>2026-08-29T15:50:02Z</time>
      </trkpt>
      <trkpt lat="50.623816642910242" lon="13.397061545401812">
        <ele>635</ele>
        <time>2026-08-29T15:50:03Z</time>
      </trkpt>
      <trkpt lat="50.623773895204067" lon="13.397143520414829">
        <ele>636</ele>
        <time>2026-08-29T15:50:04Z</time>
      </trkpt>
      <trkpt lat="50.623732153326273" lon="13.397226668894291">
        <ele>636</ele>
        <time>2026-08-29T15:50:05Z</time>
      </trkpt>
      <trkpt lat="50.623687813058496" lon="13.397295484319329">
        <ele>636</ele>
        <time>2026-08-29T15:50:06Z</time>
      </trkpt>
      <trkpt lat="50.62363768927753" lon="13.397369831800461">
        <ele>636</ele>
        <time>2026-08-29T15:50:07Z</time>
      </trkpt>
      <trkpt lat="50.623584128916264" lon="13.397445771843195">
        <ele>636</ele>
        <time>2026-08-29T15:50:08Z</time>
      </trkpt>
      <trkpt lat="50.623533921316266" lon="13.397517437115312">
        <ele>636</ele>
        <time>2026-08-29T15:50:09Z</time>
      </trkpt>
      <trkpt lat="50.623489748686552" lon="13.397582899779081">
        <ele>636</ele>
        <time>2026-08-29T15:50:10Z</time>
      </trkpt>
      <trkpt lat="50.623437697067857" lon="13.397652469575405">
        <ele>636</ele>
        <time>2026-08-29T15:50:11Z</time>
      </trkpt>
      <trkpt lat="50.623385645449162" lon="13.397721955552697">
        <ele>636</ele>
        <time>2026-08-29T15:50:12Z</time>
      </trkpt>
      <trkpt lat="50.623335521668196" lon="13.397800913080573">
        <ele>636</ele>
        <time>2026-08-29T15:50:13Z</time>
      </trkpt>
      <trkpt lat="50.623289505019784" lon="13.3978789485991">
        <ele>636</ele>
        <time>2026-08-29T15:50:14Z</time>
      </trkpt>
      <trkpt lat="50.623239297419786" lon="13.397953882813454">
        <ele>636</ele>
        <time>2026-08-29T15:50:15Z</time>
      </trkpt>
      <trkpt lat="50.623189089819789" lon="13.398026889190078">
        <ele>636</ele>
        <time>2026-08-29T15:50:16Z</time>
      </trkpt>
      <trkpt lat="50.623140642419457" lon="13.398093609139323">
        <ele>635</ele>
        <time>2026-08-29T15:50:17Z</time>
      </trkpt>
      <trkpt lat="50.623091859742999" lon="13.398162759840488">
        <ele>635</ele>
        <time>2026-08-29T15:50:18Z</time>
      </trkpt>
      <trkpt lat="50.623049279674888" lon="13.398232078179717">
        <ele>635</ele>
        <time>2026-08-29T15:50:19Z</time>
      </trkpt>
      <trkpt lat="50.623005190864205" lon="13.398311203345656">
        <ele>635</ele>
        <time>2026-08-29T15:50:20Z</time>
      </trkpt>
      <trkpt lat="50.622960515320301" lon="13.398384628817439">
        <ele>634</ele>
        <time>2026-08-29T15:50:21Z</time>
      </trkpt>
      <trkpt lat="50.622920366004109" lon="13.398457886651158">
        <ele>634</ele>
        <time>2026-08-29T15:50:22Z</time>
      </trkpt>
      <trkpt lat="50.622877450659871" lon="13.398513793945313">
        <ele>634</ele>
        <time>2026-08-29T15:50:23Z</time>
      </trkpt>
      <trkpt lat="50.622839061543345" lon="13.398585375398397">
        <ele>634</ele>
        <time>2026-08-29T15:50:24Z</time>
      </trkpt>
      <trkpt lat="50.622798074036837" lon="13.398659639060497">
        <ele>634</ele>
        <time>2026-08-29T15:50:25Z</time>
      </trkpt>
      <trkpt lat="50.622770162299275" lon="13.398744547739625">
        <ele>634</ele>
        <time>2026-08-29T15:50:26Z</time>
      </trkpt>
      <trkpt lat="50.622742418199778" lon="13.398838760331273">
        <ele>634</ele>
        <time>2026-08-29T15:50:27Z</time>
      </trkpt>
      <trkpt lat="50.622712159529328" lon="13.398930123075843">
        <ele>633</ele>
        <time>2026-08-29T15:50:28Z</time>
      </trkpt>
      <trkpt lat="50.62266974709928" lon="13.399014109745622">
        <ele>633</ele>
        <time>2026-08-29T15:50:29Z</time>
      </trkpt>
      <trkpt lat="50.622634878382087" lon="13.399108406156301">
        <ele>633</ele>
        <time>2026-08-29T15:50:30Z</time>
      </trkpt>
      <trkpt lat="50.622595986351371" lon="13.399201361462474">
        <ele>633</ele>
        <time>2026-08-29T15:50:31Z</time>
      </trkpt>
      <trkpt lat="50.622568745166063" lon="13.399314265698195">
        <ele>633</ele>
        <time>2026-08-29T15:50:32Z</time>
      </trkpt>
      <trkpt lat="50.622534798458219" lon="13.39942155405879">
        <ele>633</ele>
        <time>2026-08-29T15:50:33Z</time>
      </trkpt>
      <trkpt lat="50.622513759881258" lon="13.399534542113543">
        <ele>633</ele>
        <time>2026-08-29T15:50:34Z</time>
      </trkpt>
      <trkpt lat="50.622497498989105" lon="13.39965557679534">
        <ele>633</ele>
        <time>2026-08-29T15:50:35Z</time>
      </trkpt>
      <trkpt lat="50.622481154277921" lon="13.39978264644742">
        <ele>633</ele>
        <time>2026-08-29T15:50:36Z</time>
      </trkpt>
      <trkpt lat="50.622471179813147" lon="13.399917427450418">
        <ele>632</ele>
        <time>2026-08-29T15:50:37Z</time>
      </trkpt>
      <trkpt lat="50.622460870072246" lon="13.400064865127206">
        <ele>631</ele>
        <time>2026-08-29T15:50:38Z</time>
      </trkpt>
      <trkpt lat="50.622437819838524" lon="13.400205513462424">
        <ele>632</ele>
        <time>2026-08-29T15:50:39Z</time>
      </trkpt>
      <trkpt lat="50.622413344681263" lon="13.400345994159579">
        <ele>631</ele>
        <time>2026-08-29T15:50:40Z</time>
      </trkpt>
      <trkpt lat="50.622380403801799" lon="13.400486223399639">
        <ele>630</ele>
        <time>2026-08-29T15:50:41Z</time>
      </trkpt>
      <trkpt lat="50.622348049655557" lon="13.400631817057729">
        <ele>629</ele>
        <time>2026-08-29T15:50:42Z</time>
      </trkpt>
      <trkpt lat="50.622322987765074" lon="13.400780763477087">
        <ele>628</ele>
        <time>2026-08-29T15:50:43Z</time>
      </trkpt>
      <trkpt lat="50.622293818742037" lon="13.400932056829333">
        <ele>628</ele>
        <time>2026-08-29T15:50:44Z</time>
      </trkpt>
      <trkpt lat="50.622268170118332" lon="13.401081757619977">
        <ele>628</ele>
        <time>2026-08-29T15:50:45Z</time>
      </trkpt>
      <trkpt lat="50.622239420190454" lon="13.401234811171889">
        <ele>627</ele>
        <time>2026-08-29T15:50:46Z</time>
      </trkpt>
      <trkpt lat="50.622213268652558" lon="13.401382751762867">
        <ele>627</ele>
        <time>2026-08-29T15:50:47Z</time>
      </trkpt>
      <trkpt lat="50.622183429077268" lon="13.401525160297751">
        <ele>626</ele>
        <time>2026-08-29T15:50:48Z</time>
      </trkpt>
      <trkpt lat="50.622154762968421" lon="13.401674693450332">
        <ele>625</ele>
        <time>2026-08-29T15:50:49Z</time>
      </trkpt>
      <trkpt lat="50.622111428529024" lon="13.401825316250324">
        <ele>625</ele>
        <time>2026-08-29T15:50:50Z</time>
      </trkpt>
      <trkpt lat="50.622062310576439" lon="13.401962108910084">
        <ele>624</ele>
        <time>2026-08-29T15:50:51Z</time>
      </trkpt>
      <trkpt lat="50.622010678052902" lon="13.402093453332782">
        <ele>624</ele>
        <time>2026-08-29T15:50:52Z</time>
      </trkpt>
      <trkpt lat="50.621950412169099" lon="13.402234520763159">
        <ele>623</ele>
        <time>2026-08-29T15:50:53Z</time>
      </trkpt>
      <trkpt lat="50.621888721361756" lon="13.402372989803553">
        <ele>623</ele>
        <time>2026-08-29T15:50:54Z</time>
      </trkpt>
      <trkpt lat="50.621839771047235" lon="13.402516068890691">
        <ele>623</ele>
        <time>2026-08-29T15:50:55Z</time>
      </trkpt>
      <trkpt lat="50.62180339358747" lon="13.402651771903038">
        <ele>623</ele>
        <time>2026-08-29T15:50:56Z</time>
      </trkpt>
      <trkpt lat="50.621764836832881" lon="13.402789486572146">
        <ele>622</ele>
        <time>2026-08-29T15:50:57Z</time>
      </trkpt>
      <trkpt lat="50.621726028621197" lon="13.402940696105361">
        <ele>622</ele>
        <time>2026-08-29T15:50:58Z</time>
      </trkpt>
      <trkpt lat="50.621710270643234" lon="13.403096767142415">
        <ele>623</ele>
        <time>2026-08-29T15:50:59Z</time>
      </trkpt>
      <trkpt lat="50.621709683910012" lon="13.403245462104678">
        <ele>623</ele>
        <time>2026-08-29T15:51:00Z</time>
      </trkpt>
      <trkpt lat="50.621707420796156" lon="13.403398934751749">
        <ele>623</ele>
        <time>2026-08-29T15:51:01Z</time>
      </trkpt>
      <trkpt lat="50.621699709445238" lon="13.403547378256917">
        <ele>622</ele>
        <time>2026-08-29T15:51:02Z</time>
      </trkpt>
      <trkpt lat="50.621693171560764" lon="13.403686266392469">
        <ele>622</ele>
        <time>2026-08-29T15:51:03Z</time>
      </trkpt>
      <trkpt lat="50.621684454381466" lon="13.403826747089624">
        <ele>622</ele>
        <time>2026-08-29T15:51:04Z</time>
      </trkpt>
      <trkpt lat="50.621682610362768" lon="13.403972340747714">
        <ele>622</ele>
        <time>2026-08-29T15:51:05Z</time>
      </trkpt>
      <trkpt lat="50.621687807142735" lon="13.404121538624167">
        <ele>622</ele>
        <time>2026-08-29T15:51:06Z</time>
      </trkpt>
      <trkpt lat="50.621704990044236" lon="13.404267383739352">
        <ele>622</ele>
        <time>2026-08-29T15:51:07Z</time>
      </trkpt>
      <trkpt lat="50.621709180995822" lon="13.404412977397442">
        <ele>622</ele>
        <time>2026-08-29T15:51:08Z</time>
      </trkpt>
      <trkpt lat="50.621724771335721" lon="13.404548093676567">
        <ele>622</ele>
        <time>2026-08-29T15:51:09Z</time>
      </trkpt>
      <trkpt lat="50.621728291735053" lon="13.404679354280233">
        <ele>621</ele>
        <time>2026-08-29T15:51:10Z</time>
      </trkpt>
      <trkpt lat="50.621737511828542" lon="13.404813380911946">
        <ele>621</ele>
        <time>2026-08-29T15:51:11Z</time>
      </trkpt>
      <trkpt lat="50.621739774942398" lon="13.404948329553008">
        <ele>621</ele>
        <time>2026-08-29T15:51:12Z</time>
      </trkpt>
      <trkpt lat="50.621736673638225" lon="13.405093085020781">
        <ele>621</ele>
        <time>2026-08-29T15:51:13Z</time>
      </trkpt>
      <trkpt lat="50.62174572609365" lon="13.40523180551827">
        <ele>621</ele>
        <time>2026-08-29T15:51:14Z</time>
      </trkpt>
      <trkpt lat="50.621764920651913" lon="13.405361557379365">
        <ele>621</ele>
        <time>2026-08-29T15:51:15Z</time>
      </trkpt>
      <trkpt lat="50.621773470193148" lon="13.405485944822431">
        <ele>620</ele>
        <time>2026-08-29T15:51:16Z</time>
      </trkpt>
      <trkpt lat="50.621781852096319" lon="13.405627766624093">
        <ele>620</ele>
        <time>2026-08-29T15:51:17Z</time>
      </trkpt>
      <trkpt lat="50.621789647266269" lon="13.405770175158978">
        <ele>619</ele>
        <time>2026-08-29T15:51:18Z</time>
      </trkpt>
      <trkpt lat="50.621785372495651" lon="13.405911074951291">
        <ele>618</ele>
        <time>2026-08-29T15:51:19Z</time>
      </trkpt>
      <trkpt lat="50.62178872525692" lon="13.40605323202908">
        <ele>617</ele>
        <time>2026-08-29T15:51:20Z</time>
      </trkpt>
      <trkpt lat="50.62178922817111" lon="13.406193209812045">
        <ele>617</ele>
        <time>2026-08-29T15:51:21Z</time>
      </trkpt>
      <trkpt lat="50.621783696115017" lon="13.406358668580651">
        <ele>617</ele>
        <time>2026-08-29T15:51:22Z</time>
      </trkpt>
      <trkpt lat="50.621779588982463" lon="13.406517505645752">
        <ele>616</ele>
        <time>2026-08-29T15:51:23Z</time>
      </trkpt>
      <trkpt lat="50.62177212908864" lon="13.406676426529884">
        <ele>615</ele>
        <time>2026-08-29T15:51:24Z</time>
      </trkpt>
      <trkpt lat="50.6217638310045" lon="13.406842052936554">
        <ele>615</ele>
        <time>2026-08-29T15:51:25Z</time>
      </trkpt>
      <trkpt lat="50.621753521263599" lon="13.406995190307498">
        <ele>615</ele>
        <time>2026-08-29T15:51:26Z</time>
      </trkpt>
      <trkpt lat="50.621739439666271" lon="13.407140532508492">
        <ele>615</ele>
        <time>2026-08-29T15:51:27Z</time>
      </trkpt>
      <trkpt lat="50.621723094955087" lon="13.40728746727109">
        <ele>615</ele>
        <time>2026-08-29T15:51:28Z</time>
      </trkpt>
      <trkpt lat="50.621703481301665" lon="13.407428786158562">
        <ele>615</ele>
        <time>2026-08-29T15:51:29Z</time>
      </trkpt>
      <trkpt lat="50.6216861307621" lon="13.407567087560892">
        <ele>615</ele>
        <time>2026-08-29T15:51:30Z</time>
      </trkpt>
      <trkpt lat="50.621663248166442" lon="13.407701952382922">
        <ele>614</ele>
        <time>2026-08-29T15:51:31Z</time>
      </trkpt>
      <trkpt lat="50.621640449389815" lon="13.407842684537172">
        <ele>614</ele>
        <time>2026-08-29T15:51:32Z</time>
      </trkpt>
      <trkpt lat="50.6216084305197" lon="13.407978555187583">
        <ele>613</ele>
        <time>2026-08-29T15:51:33Z</time>
      </trkpt>
      <trkpt lat="50.621588565409184" lon="13.408126747235656">
        <ele>613</ele>
        <time>2026-08-29T15:51:34Z</time>
      </trkpt>
      <trkpt lat="50.621555708348751" lon="13.408263958990574">
        <ele>612</ele>
        <time>2026-08-29T15:51:35Z</time>
      </trkpt>
      <trkpt lat="50.621528550982475" lon="13.408396895974874">
        <ele>612</ele>
        <time>2026-08-29T15:51:36Z</time>
      </trkpt>
      <trkpt lat="50.621502567082644" lon="13.40854911133647">
        <ele>611</ele>
        <time>2026-08-29T15:51:37Z</time>
      </trkpt>
      <trkpt lat="50.621465602889657" lon="13.408689508214593">
        <ele>611</ele>
        <time>2026-08-29T15:51:38Z</time>
      </trkpt>
      <trkpt lat="50.621440289542079" lon="13.408830408006907">
        <ele>611</ele>
        <time>2026-08-29T15:51:39Z</time>
      </trkpt>
      <trkpt lat="50.62142126262188" lon="13.408981785178185">
        <ele>611</ele>
        <time>2026-08-29T15:51:40Z</time>
      </trkpt>
      <trkpt lat="50.621403241530061" lon="13.409131485968828">
        <ele>610</ele>
        <time>2026-08-29T15:51:41Z</time>
      </trkpt>
      <trkpt lat="50.621380191296339" lon="13.409278001636267">
        <ele>610</ele>
        <time>2026-08-29T15:51:42Z</time>
      </trkpt>
      <trkpt lat="50.621371557936072" lon="13.409425606951118">
        <ele>609</ele>
        <time>2026-08-29T15:51:43Z</time>
      </trkpt>
      <trkpt lat="50.621371809393167" lon="13.409571452066302">
        <ele>608</ele>
        <time>2026-08-29T15:51:44Z</time>
      </trkpt>
      <trkpt lat="50.621369294822216" lon="13.409720147028565">
        <ele>607</ele>
        <time>2026-08-29T15:51:45Z</time>
      </trkpt>
      <trkpt lat="50.621366361156106" lon="13.409885605797172">
        <ele>606</ele>
        <time>2026-08-29T15:51:46Z</time>
      </trkpt>
      <trkpt lat="50.621354207396507" lon="13.410054668784142">
        <ele>606</ele>
        <time>2026-08-29T15:51:47Z</time>
      </trkpt>
      <trkpt lat="50.621340628713369" lon="13.410216271877289">
        <ele>604</ele>
        <time>2026-08-29T15:51:48Z</time>
      </trkpt>
      <trkpt lat="50.621314560994506" lon="13.410380054265261">
        <ele>604</ele>
        <time>2026-08-29T15:51:49Z</time>
      </trkpt>
      <trkpt lat="50.621283631771803" lon="13.410553727298975">
        <ele>604</ele>
        <time>2026-08-29T15:51:50Z</time>
      </trkpt>
      <trkpt lat="50.621238369494677" lon="13.410719269886613">
        <ele>603</ele>
        <time>2026-08-29T15:51:51Z</time>
      </trkpt>
      <trkpt lat="50.621193526312709" lon="13.410871233791113">
        <ele>602</ele>
        <time>2026-08-29T15:51:52Z</time>
      </trkpt>
      <trkpt lat="50.62114667147398" lon="13.411029819399118">
        <ele>602</ele>
        <time>2026-08-29T15:51:53Z</time>
      </trkpt>
      <trkpt lat="50.621098140254617" lon="13.411180106922984">
        <ele>601</ele>
        <time>2026-08-29T15:51:54Z</time>
      </trkpt>
      <trkpt lat="50.621050111949444" lon="13.411306673660874">
        <ele>601</ele>
        <time>2026-08-29T15:51:55Z</time>
      </trkpt>
      <trkpt lat="50.620990181341767" lon="13.411411112174392">
        <ele>600</ele>
        <time>2026-08-29T15:51:56Z</time>
      </trkpt>
      <trkpt lat="50.620913403108716" lon="13.411486633121967">
        <ele>600</ele>
        <time>2026-08-29T15:51:57Z</time>
      </trkpt>
      <trkpt lat="50.620820699259639" lon="13.411512449383736">
        <ele>600</ele>
        <time>2026-08-29T15:51:58Z</time>
      </trkpt>
      <trkpt lat="50.620737634599209" lon="13.41151362285018">
        <ele>600</ele>
        <time>2026-08-29T15:51:59Z</time>
      </trkpt>
      <trkpt lat="50.620644427835941" lon="13.411483112722635">
        <ele>599</ele>
        <time>2026-08-29T15:52:00Z</time>
      </trkpt>
      <trkpt lat="50.62055692076683" lon="13.411436341702938">
        <ele>598</ele>
        <time>2026-08-29T15:52:01Z</time>
      </trkpt>
      <trkpt lat="50.620497576892376" lon="13.411347409710288">
        <ele>597</ele>
        <time>2026-08-29T15:52:02Z</time>
      </trkpt>
      <trkpt lat="50.620447369292378" lon="13.411230146884918">
        <ele>597</ele>
        <time>2026-08-29T15:52:03Z</time>
      </trkpt>
      <trkpt lat="50.620402190834284" lon="13.41110953129828">
        <ele>596</ele>
        <time>2026-08-29T15:52:04Z</time>
      </trkpt>
      <trkpt lat="50.620341338217258" lon="13.410993861034513">
        <ele>595</ele>
        <time>2026-08-29T15:52:05Z</time>
      </trkpt>
      <trkpt lat="50.620258022099733" lon="13.410889757797122">
        <ele>595</ele>
        <time>2026-08-29T15:52:06Z</time>
      </trkpt>
      <trkpt lat="50.620181411504745" lon="13.410812644287944">
        <ele>595</ele>
        <time>2026-08-29T15:52:07Z</time>
      </trkpt>
      <trkpt lat="50.620099687948823" lon="13.410724215209484">
        <ele>595</ele>
        <time>2026-08-29T15:52:08Z</time>
      </trkpt>
      <trkpt lat="50.620011175051332" lon="13.410624470561743">
        <ele>594</ele>
        <time>2026-08-29T15:52:09Z</time>
      </trkpt>
      <trkpt lat="50.619931546971202" lon="13.410533359274268">
        <ele>594</ele>
        <time>2026-08-29T15:52:10Z</time>
      </trkpt>
      <trkpt lat="50.619857115671039" lon="13.410454234108329">
        <ele>594</ele>
        <time>2026-08-29T15:52:11Z</time>
      </trkpt>
      <trkpt lat="50.619765501469374" lon="13.4103849157691">
        <ele>593</ele>
        <time>2026-08-29T15:52:12Z</time>
      </trkpt>
      <trkpt lat="50.619690315797925" lon="13.41029791161418">
        <ele>593</ele>
        <time>2026-08-29T15:52:13Z</time>
      </trkpt>
      <trkpt lat="50.619616219773889" lon="13.410214763134718">
        <ele>593</ele>
        <time>2026-08-29T15:52:14Z</time>
      </trkpt>
      <trkpt lat="50.619537010788918" lon="13.410151898860931">
        <ele>593</ele>
        <time>2026-08-29T15:52:15Z</time>
      </trkpt>
      <trkpt lat="50.619447408244014" lon="13.410088028758764">
        <ele>593</ele>
        <time>2026-08-29T15:52:16Z</time>
      </trkpt>
      <trkpt lat="50.619362499564886" lon="13.410020554438233">
        <ele>593</ele>
        <time>2026-08-29T15:52:17Z</time>
      </trkpt>
      <trkpt lat="50.619275160133839" lon="13.409951068460941">
        <ele>593</ele>
        <time>2026-08-29T15:52:18Z</time>
      </trkpt>
      <trkpt lat="50.619202237576246" lon="13.409876553341746">
        <ele>593</ele>
        <time>2026-08-29T15:52:19Z</time>
      </trkpt>
      <trkpt lat="50.619126297533512" lon="13.409817796200514">
        <ele>593</ele>
        <time>2026-08-29T15:52:20Z</time>
      </trkpt>
      <trkpt lat="50.619042981415987" lon="13.409782256931067">
        <ele>593</ele>
        <time>2026-08-29T15:52:21Z</time>
      </trkpt>
      <trkpt lat="50.618943488225341" lon="13.409761469811201">
        <ele>593</ele>
        <time>2026-08-29T15:52:22Z</time>
      </trkpt>
      <trkpt lat="50.618852879852057" lon="13.409746298566461">
        <ele>593</ele>
        <time>2026-08-29T15:52:23Z</time>
      </trkpt>
      <trkpt lat="50.618768809363246" lon="13.409743616357446">
        <ele>592</ele>
        <time>2026-08-29T15:52:24Z</time>
      </trkpt>
      <trkpt lat="50.618678452447057" lon="13.40975895524025">
        <ele>592</ele>
        <time>2026-08-29T15:52:25Z</time>
      </trkpt>
      <trkpt lat="50.618594381958246" lon="13.409778736531734">
        <ele>592</ele>
        <time>2026-08-29T15:52:26Z</time>
      </trkpt>
      <trkpt lat="50.618508299812675" lon="13.409794494509697">
        <ele>591</ele>
        <time>2026-08-29T15:52:27Z</time>
      </trkpt>
      <trkpt lat="50.618429761379957" lon="13.409834308549762">
        <ele>590</ele>
        <time>2026-08-29T15:52:28Z</time>
      </trkpt>
      <trkpt lat="50.618345523253083" lon="13.409878229722381">
        <ele>590</ele>
        <time>2026-08-29T15:52:29Z</time>
      </trkpt>
      <trkpt lat="50.618264973163605" lon="13.409931119531393">
        <ele>591</ele>
        <time>2026-08-29T15:52:30Z</time>
      </trkpt>
      <trkpt lat="50.618187272921205" lon="13.409998174756765">
        <ele>591</ele>
        <time>2026-08-29T15:52:31Z</time>
      </trkpt>
      <trkpt lat="50.618118960410357" lon="13.410058859735727">
        <ele>591</ele>
        <time>2026-08-29T15:52:32Z</time>
      </trkpt>
      <trkpt lat="50.618056179955602" lon="13.410130525007844">
        <ele>591</ele>
        <time>2026-08-29T15:52:33Z</time>
      </trkpt>
      <trkpt lat="50.61797789297998" lon="13.410187857225537">
        <ele>591</ele>
        <time>2026-08-29T15:52:34Z</time>
      </trkpt>
      <trkpt lat="50.617905640974641" lon="13.410260612145066">
        <ele>591</ele>
        <time>2026-08-29T15:52:35Z</time>
      </trkpt>
      <trkpt lat="50.61784353107214" lon="13.410329595208168">
        <ele>591</ele>
        <time>2026-08-29T15:52:36Z</time>
      </trkpt>
      <trkpt lat="50.617780415341258" lon="13.410399751737714">
        <ele>590</ele>
        <time>2026-08-29T15:52:37Z</time>
      </trkpt>
      <trkpt lat="50.617721490561962" lon="13.410476362332702">
        <ele>589</ele>
        <time>2026-08-29T15:52:38Z</time>
      </trkpt>
      <trkpt lat="50.617666086181998" lon="13.410531850531697">
        <ele>588</ele>
        <time>2026-08-29T15:52:39Z</time>
      </trkpt>
      <trkpt lat="50.617614034563303" lon="13.410591948777437">
        <ele>588</ele>
        <time>2026-08-29T15:52:40Z</time>
      </trkpt>
      <trkpt lat="50.617560809478164" lon="13.410663111135364">
        <ele>588</ele>
        <time>2026-08-29T15:52:41Z</time>
      </trkpt>
      <trkpt lat="50.617510601878166" lon="13.410740392282605">
        <ele>588</ele>
        <time>2026-08-29T15:52:42Z</time>
      </trkpt>
      <trkpt lat="50.617456622421741" lon="13.410807028412819">
        <ele>588</ele>
        <time>2026-08-29T15:52:43Z</time>
      </trkpt>
      <trkpt lat="50.617402726784348" lon="13.410891434177756">
        <ele>588</ele>
        <time>2026-08-29T15:52:44Z</time>
      </trkpt>
      <trkpt lat="50.617348328232765" lon="13.410963015630841">
        <ele>587</ele>
        <time>2026-08-29T15:52:45Z</time>
      </trkpt>
      <trkpt lat="50.617297282442451" lon="13.41104356572032">
        <ele>587</ele>
        <time>2026-08-29T15:52:46Z</time>
      </trkpt>
      <trkpt lat="50.617244057357311" lon="13.411131072789431">
        <ele>587</ele>
        <time>2026-08-29T15:52:47Z</time>
      </trkpt>
      <trkpt lat="50.617196867242455" lon="13.411226291209459">
        <ele>587</ele>
        <time>2026-08-29T15:52:48Z</time>
      </trkpt>
      <trkpt lat="50.617153281345963" lon="13.411327125504613">
        <ele>586</ele>
        <time>2026-08-29T15:52:49Z</time>
      </trkpt>
      <trkpt lat="50.617125201970339" lon="13.411435168236494">
        <ele>586</ele>
        <time>2026-08-29T15:52:50Z</time>
      </trkpt>
      <trkpt lat="50.617107348516583" lon="13.411548240110278">
        <ele>586</ele>
        <time>2026-08-29T15:52:51Z</time>
      </trkpt>
      <trkpt lat="50.617081029340625" lon="13.411657372489572">
        <ele>587</ele>
        <time>2026-08-29T15:52:52Z</time>
      </trkpt>
      <trkpt lat="50.617056218907237" lon="13.411768013611436">
        <ele>588</ele>
        <time>2026-08-29T15:52:53Z</time>
      </trkpt>
      <trkpt lat="50.617042053490877" lon="13.411889299750328">
        <ele>587</ele>
        <time>2026-08-29T15:52:54Z</time>
      </trkpt>
      <trkpt lat="50.617029061540961" lon="13.412005808204412">
        <ele>587</ele>
        <time>2026-08-29T15:52:55Z</time>
      </trkpt>
      <trkpt lat="50.617022691294551" lon="13.412138326093554">
        <ele>588</ele>
        <time>2026-08-29T15:52:56Z</time>
      </trkpt>
      <trkpt lat="50.617013471201062" lon="13.412269586697221">
        <ele>587</ele>
        <time>2026-08-29T15:52:57Z</time>
      </trkpt>
      <trkpt lat="50.617005089297891" lon="13.412381988018751">
        <ele>586</ele>
        <time>2026-08-29T15:52:58Z</time>
      </trkpt>
      <trkpt lat="50.616989079862833" lon="13.412506375461817">
        <ele>586</ele>
        <time>2026-08-29T15:52:59Z</time>
      </trkpt>
      <trkpt lat="50.616974411532283" lon="13.412629757076502">
        <ele>586</ele>
        <time>2026-08-29T15:53:00Z</time>
      </trkpt>
      <trkpt lat="50.616959659382701" lon="13.412741906940937">
        <ele>587</ele>
        <time>2026-08-29T15:53:01Z</time>
      </trkpt>
      <trkpt lat="50.616942560300231" lon="13.412857912480831">
        <ele>586</ele>
        <time>2026-08-29T15:53:02Z</time>
      </trkpt>
      <trkpt lat="50.616918839514256" lon="13.412967715412378">
        <ele>586</ele>
        <time>2026-08-29T15:53:03Z</time>
      </trkpt>
      <trkpt lat="50.616900231689215" lon="13.413076931610703">
        <ele>586</ele>
        <time>2026-08-29T15:53:04Z</time>
      </trkpt>
      <trkpt lat="50.616874499246478" lon="13.413184136152267">
        <ele>586</ele>
        <time>2026-08-29T15:53:05Z</time>
      </trkpt>
      <trkpt lat="50.61685404740274" lon="13.413278013467789">
        <ele>586</ele>
        <time>2026-08-29T15:53:06Z</time>
      </trkpt>
      <trkpt lat="50.616832002997398" lon="13.413362167775631">
        <ele>586</ele>
        <time>2026-08-29T15:53:07Z</time>
      </trkpt>
      <trkpt lat="50.61680668964982" lon="13.413448920473456">
        <ele>586</ele>
        <time>2026-08-29T15:53:08Z</time>
      </trkpt>
      <trkpt lat="50.616776347160339" lon="13.413523016497493">
        <ele>587</ele>
        <time>2026-08-29T15:53:09Z</time>
      </trkpt>
      <trkpt lat="50.616747261956334" lon="13.413610272109509">
        <ele>586</ele>
        <time>2026-08-29T15:53:10Z</time>
      </trkpt>
      <trkpt lat="50.616714572533965" lon="13.413675231859088">
        <ele>587</ele>
        <time>2026-08-29T15:53:11Z</time>
      </trkpt>
      <trkpt lat="50.616692360490561" lon="13.413741197437048">
        <ele>587</ele>
        <time>2026-08-29T15:53:12Z</time>
      </trkpt>
      <trkpt lat="50.616667130962014" lon="13.413799200206995">
        <ele>586</ele>
        <time>2026-08-29T15:53:13Z</time>
      </trkpt>
      <trkpt lat="50.616641482338309" lon="13.413856700062752">
        <ele>587</ele>
        <time>2026-08-29T15:53:14Z</time>
      </trkpt>
      <trkpt lat="50.616620695218444" lon="13.413908164948225">
        <ele>587</ele>
        <time>2026-08-29T15:53:15Z</time>
      </trkpt>
      <trkpt lat="50.616597309708595" lon="13.413960551843047">
        <ele>587</ele>
        <time>2026-08-29T15:53:16Z</time>
      </trkpt>
      <trkpt lat="50.616572163999081" lon="13.414023499935865">
        <ele>587</ele>
        <time>2026-08-29T15:53:17Z</time>
      </trkpt>
      <trkpt lat="50.616551041603088" lon="13.414070857688785">
        <ele>587</ele>
        <time>2026-08-29T15:53:18Z</time>
      </trkpt>
      <trkpt lat="50.616519525647163" lon="13.41411947272718">
        <ele>587</ele>
        <time>2026-08-29T15:53:19Z</time>
      </trkpt>
      <trkpt lat="50.616497481241822" lon="13.414154425263405">
        <ele>587</ele>
        <time>2026-08-29T15:53:20Z</time>
      </trkpt>
      <trkpt lat="50.616472586989403" lon="13.414199184626341">
        <ele>588</ele>
        <time>2026-08-29T15:53:21Z</time>
      </trkpt>
      <trkpt lat="50.616451632231474" lon="13.414241680875421">
        <ele>588</ele>
        <time>2026-08-29T15:53:22Z</time>
      </trkpt>
      <trkpt lat="50.616428833454847" lon="13.41429146938026">
        <ele>588</ele>
        <time>2026-08-29T15:53:23Z</time>
      </trkpt>
      <trkpt lat="50.616407208144665" lon="13.414330780506134">
        <ele>588</ele>
        <time>2026-08-29T15:53:24Z</time>
      </trkpt>
      <trkpt lat="50.616383822634816" lon="13.414379395544529">
        <ele>588</ele>
        <time>2026-08-29T15:53:25Z</time>
      </trkpt>
      <trkpt lat="50.616365047171712" lon="13.414423316717148">
        <ele>589</ele>
        <time>2026-08-29T15:53:26Z</time>
      </trkpt>
      <trkpt lat="50.616337638348341" lon="13.414464807137847">
        <ele>589</ele>
        <time>2026-08-29T15:53:27Z</time>
      </trkpt>
      <trkpt lat="50.616311402991414" lon="13.414508309215307">
        <ele>589</ele>
        <time>2026-08-29T15:53:28Z</time>
      </trkpt>
      <trkpt lat="50.616286508738995" lon="13.41454996727407">
        <ele>589</ele>
        <time>2026-08-29T15:53:29Z</time>
      </trkpt>
      <trkpt lat="50.616253651678562" lon="13.414590619504452">
        <ele>589</ele>
        <time>2026-08-29T15:53:30Z</time>
      </trkpt>
      <trkpt lat="50.616220291703939" lon="13.414642922580242">
        <ele>590</ele>
        <time>2026-08-29T15:53:31Z</time>
      </trkpt>
      <trkpt lat="50.616197157651186" lon="13.414686676114798">
        <ele>589</ele>
        <time>2026-08-29T15:53:32Z</time>
      </trkpt>
      <trkpt lat="50.616167234256864" lon="13.414734788239002">
        <ele>590</ele>
        <time>2026-08-29T15:53:33Z</time>
      </trkpt>
      <trkpt lat="50.61614309437573" lon="13.414784241467714">
        <ele>590</ele>
        <time>2026-08-29T15:53:34Z</time>
      </trkpt>
      <trkpt lat="50.616110907867551" lon="13.414826234802604">
        <ele>591</ele>
        <time>2026-08-29T15:53:35Z</time>
      </trkpt>
      <trkpt lat="50.616084588691592" lon="13.414877280592918">
        <ele>592</ele>
        <time>2026-08-29T15:53:36Z</time>
      </trkpt>
      <trkpt lat="50.616059610620141" lon="13.414927236735821">
        <ele>592</ele>
        <time>2026-08-29T15:53:37Z</time>
      </trkpt>
      <trkpt lat="50.6160341296345" lon="13.414980880916119">
        <ele>592</ele>
        <time>2026-08-29T15:53:38Z</time>
      </trkpt>
      <trkpt lat="50.616008061915636" lon="13.415023628622293">
        <ele>593</ele>
        <time>2026-08-29T15:53:39Z</time>
      </trkpt>
      <trkpt lat="50.615979228168726" lon="13.415072076022625">
        <ele>593</ele>
        <time>2026-08-29T15:53:40Z</time>
      </trkpt>
      <trkpt lat="50.615957099944353" lon="13.415116500109434">
        <ele>593</ele>
        <time>2026-08-29T15:53:41Z</time>
      </trkpt>
      <trkpt lat="50.615930948406458" lon="13.415162768214941">
        <ele>594</ele>
        <time>2026-08-29T15:53:42Z</time>
      </trkpt>
      <trkpt lat="50.615911167114973" lon="13.415211634710431">
        <ele>594</ele>
        <time>2026-08-29T15:53:43Z</time>
      </trkpt>
      <trkpt lat="50.6158890388906" lon="13.415260585024953">
        <ele>595</ele>
        <time>2026-08-29T15:53:44Z</time>
      </trkpt>
      <trkpt lat="50.615866407752037" lon="13.415319425985217">
        <ele>595</ele>
        <time>2026-08-29T15:53:45Z</time>
      </trkpt>
      <trkpt lat="50.61583966948092" lon="13.41537524946034">
        <ele>595</ele>
        <time>2026-08-29T15:53:46Z</time>
      </trkpt>
      <trkpt lat="50.615816619247198" lon="13.415427971631289">
        <ele>595</ele>
        <time>2026-08-29T15:53:47Z</time>
      </trkpt>
      <trkpt lat="50.615798849612474" lon="13.415480777621269">
        <ele>596</ele>
        <time>2026-08-29T15:53:48Z</time>
      </trkpt>
      <trkpt lat="50.61577714048326" lon="13.41555017977953">
        <ele>595</ele>
        <time>2026-08-29T15:53:49Z</time>
      </trkpt>
      <trkpt lat="50.615750318393111" lon="13.415608685463667">
        <ele>595</ele>
        <time>2026-08-29T15:53:50Z</time>
      </trkpt>
      <trkpt lat="50.61572534032166" lon="13.415664760395885">
        <ele>595</ele>
        <time>2026-08-29T15:53:51Z</time>
      </trkpt>
      <trkpt lat="50.615702625364065" lon="13.415729384869337">
        <ele>595</ele>
        <time>2026-08-29T15:53:52Z</time>
      </trkpt>
      <trkpt lat="50.61567303724587" lon="13.415789566934109">
        <ele>595</ele>
        <time>2026-08-29T15:53:53Z</time>
      </trkpt>
      <trkpt lat="50.615648310631514" lon="13.415853017941117">
        <ele>595</ele>
        <time>2026-08-29T15:53:54Z</time>
      </trkpt>
      <trkpt lat="50.615622829645872" lon="13.415925018489361">
        <ele>595</ele>
        <time>2026-08-29T15:53:55Z</time>
      </trkpt>
      <trkpt lat="50.615600030869246" lon="13.415990816429257">
        <ele>595</ele>
        <time>2026-08-29T15:53:56Z</time>
      </trkpt>
      <trkpt lat="50.615576561540365" lon="13.416056782007217">
        <ele>595</ele>
        <time>2026-08-29T15:53:57Z</time>
      </trkpt>
      <trkpt lat="50.61555384658277" lon="13.416117466986179">
        <ele>596</ele>
        <time>2026-08-29T15:53:58Z</time>
      </trkpt>
      <trkpt lat="50.615527778863907" lon="13.41618737205863">
        <ele>596</ele>
        <time>2026-08-29T15:53:59Z</time>
      </trkpt>
      <trkpt lat="50.615501711145043" lon="13.416253086179495">
        <ele>596</ele>
        <time>2026-08-29T15:54:00Z</time>
      </trkpt>
      <trkpt lat="50.615473045036197" lon="13.416320979595184">
        <ele>596</ele>
        <time>2026-08-29T15:54:01Z</time>
      </trkpt>
      <trkpt lat="50.615448402240872" lon="13.416388453915715">
        <ele>596</ele>
        <time>2026-08-29T15:54:02Z</time>
      </trkpt>
      <trkpt lat="50.615416551008821" lon="13.416450982913375">
        <ele>596</ele>
        <time>2026-08-29T15:54:03Z</time>
      </trkpt>
      <trkpt lat="50.615399200469255" lon="13.416522145271301">
        <ele>596</ele>
        <time>2026-08-29T15:54:04Z</time>
      </trkpt>
      <trkpt lat="50.61538671143353" lon="13.416579142212868">
        <ele>595</ele>
        <time>2026-08-29T15:54:05Z</time>
      </trkpt>
      <trkpt lat="50.615373887121677" lon="13.416651897132397">
        <ele>595</ele>
        <time>2026-08-29T15:54:06Z</time>
      </trkpt>
      <trkpt lat="50.615349328145385" lon="13.416728340089321">
        <ele>595</ele>
        <time>2026-08-29T15:54:07Z</time>
      </trkpt>
      <trkpt lat="50.615332899615169" lon="13.416815092787147">
        <ele>595</ele>
        <time>2026-08-29T15:54:08Z</time>
      </trkpt>
      <trkpt lat="50.615310939028859" lon="13.416901174932718">
        <ele>595</ele>
        <time>2026-08-29T15:54:09Z</time>
      </trkpt>
      <trkpt lat="50.615289648994803" lon="13.416986586526036">
        <ele>596</ele>
        <time>2026-08-29T15:54:10Z</time>
      </trkpt>
      <trkpt lat="50.615273974835873" lon="13.417072836309671">
        <ele>596</ele>
        <time>2026-08-29T15:54:11Z</time>
      </trkpt>
      <trkpt lat="50.615257630124688" lon="13.417152967303991">
        <ele>595</ele>
        <time>2026-08-29T15:54:12Z</time>
      </trkpt>
      <trkpt lat="50.615233993157744" lon="13.417236786335707">
        <ele>596</ele>
        <time>2026-08-29T15:54:13Z</time>
      </trkpt>
      <trkpt lat="50.615217229351401" lon="13.417321359738708">
        <ele>595</ele>
        <time>2026-08-29T15:54:14Z</time>
      </trkpt>
      <trkpt lat="50.615198789164424" lon="13.417402245104313">
        <ele>595</ele>
        <time>2026-08-29T15:54:15Z</time>
      </trkpt>
      <trkpt lat="50.615188479423523" lon="13.417479190975428">
        <ele>594</ele>
        <time>2026-08-29T15:54:16Z</time>
      </trkpt>
      <trkpt lat="50.615175990387797" lon="13.417561752721667">
        <ele>593</ele>
        <time>2026-08-29T15:54:17Z</time>
      </trkpt>
      <trkpt lat="50.615161070600152" lon="13.417648086324334">
        <ele>593</ele>
        <time>2026-08-29T15:54:18Z</time>
      </trkpt>
      <trkpt lat="50.61515755020082" lon="13.417744562029839">
        <ele>592</ele>
        <time>2026-08-29T15:54:19Z</time>
      </trkpt>
      <trkpt lat="50.615155622363091" lon="13.41783257201314">
        <ele>592</ele>
        <time>2026-08-29T15:54:20Z</time>
      </trkpt>
      <trkpt lat="50.615142630413175" lon="13.417938938364387">
        <ele>592</ele>
        <time>2026-08-29T15:54:21Z</time>
      </trkpt>
      <trkpt lat="50.615141121670604" lon="13.418040443211794">
        <ele>592</ele>
        <time>2026-08-29T15:54:22Z</time>
      </trkpt>
      <trkpt lat="50.615137685090303" lon="13.418149994686246">
        <ele>592</ele>
        <time>2026-08-29T15:54:23Z</time>
      </trkpt>
      <trkpt lat="50.615140870213509" lon="13.418258288875222">
        <ele>592</ele>
        <time>2026-08-29T15:54:24Z</time>
      </trkpt>
      <trkpt lat="50.615141540765762" lon="13.418367253616452">
        <ele>592</ele>
        <time>2026-08-29T15:54:25Z</time>
      </trkpt>
      <trkpt lat="50.615139026194811" lon="13.418469345197082">
        <ele>592</ele>
        <time>2026-08-29T15:54:26Z</time>
      </trkpt>
      <trkpt lat="50.615134667605162" lon="13.418580740690231">
        <ele>591</ele>
        <time>2026-08-29T15:54:27Z</time>
      </trkpt>
      <trkpt lat="50.615134248510003" lon="13.418677970767021">
        <ele>591</ele>
        <time>2026-08-29T15:54:28Z</time>
      </trkpt>
      <trkpt lat="50.615131733939052" lon="13.41878249309957">
        <ele>591</ele>
        <time>2026-08-29T15:54:29Z</time>
      </trkpt>
      <trkpt lat="50.615137098357081" lon="13.418886763975024">
        <ele>592</ele>
        <time>2026-08-29T15:54:30Z</time>
      </trkpt>
      <trkpt lat="50.615139361470938" lon="13.418983407318592">
        <ele>592</ele>
        <time>2026-08-29T15:54:31Z</time>
      </trkpt>
      <trkpt lat="50.615142211318016" lon="13.41908935457468">
        <ele>592</ele>
        <time>2026-08-29T15:54:32Z</time>
      </trkpt>
      <trkpt lat="50.615148581564426" lon="13.419194631278515">
        <ele>592</ele>
        <time>2026-08-29T15:54:33Z</time>
      </trkpt>
      <trkpt lat="50.615154281258583" lon="13.419303009286523">
        <ele>592</ele>
        <time>2026-08-29T15:54:34Z</time>
      </trkpt>
      <trkpt lat="50.615161238238215" lon="13.419416584074497">
        <ele>592</ele>
        <time>2026-08-29T15:54:35Z</time>
      </trkpt>
      <trkpt lat="50.615178169682622" lon="13.419522615149617">
        <ele>592</ele>
        <time>2026-08-29T15:54:36Z</time>
      </trkpt>
      <trkpt lat="50.615198621526361" lon="13.419615905731916">
        <ele>593</ele>
        <time>2026-08-29T15:54:37Z</time>
      </trkpt>
      <trkpt lat="50.615221587941051" lon="13.419713471084833">
        <ele>593</ele>
        <time>2026-08-29T15:54:38Z</time>
      </trkpt>
      <trkpt lat="50.615243799984455" lon="13.419812293723226">
        <ele>594</ele>
        <time>2026-08-29T15:54:39Z</time>
      </trkpt>
      <trkpt lat="50.615266598761082" lon="13.419904829934239">
        <ele>594</ele>
        <time>2026-08-29T15:54:40Z</time>
      </trkpt>
      <trkpt lat="50.615284619852901" lon="13.420002227649093">
        <ele>594</ele>
        <time>2026-08-29T15:54:41Z</time>
      </trkpt>
      <trkpt lat="50.615305239334702" lon="13.420106498524547">
        <ele>595</ele>
        <time>2026-08-29T15:54:42Z</time>
      </trkpt>
      <trkpt lat="50.615323344245553" lon="13.420200794935226">
        <ele>595</ele>
        <time>2026-08-29T15:54:43Z</time>
      </trkpt>
      <trkpt lat="50.615340610966086" lon="13.420314034447074">
        <ele>595</ele>
        <time>2026-08-29T15:54:44Z</time>
      </trkpt>
      <trkpt lat="50.615359973162413" lon="13.420409839600325">
        <ele>595</ele>
        <time>2026-08-29T15:54:45Z</time>
      </trkpt>
      <trkpt lat="50.61536424793303" lon="13.420534478500485">
        <ele>594</ele>
        <time>2026-08-29T15:54:46Z</time>
      </trkpt>
      <trkpt lat="50.615374222397804" lon="13.420641347765923">
        <ele>595</ele>
        <time>2026-08-29T15:54:47Z</time>
      </trkpt>
      <trkpt lat="50.615380592644215" lon="13.420745031908154">
        <ele>595</ele>
        <time>2026-08-29T15:54:48Z</time>
      </trkpt>
      <trkpt lat="50.615385118871927" lon="13.42085475102067">
        <ele>595</ele>
        <time>2026-08-29T15:54:49Z</time>
      </trkpt>
      <trkpt lat="50.615392662584782" lon="13.420967990532517">
        <ele>596</ele>
        <time>2026-08-29T15:54:50Z</time>
      </trkpt>
      <trkpt lat="50.61540137976408" lon="13.421075530350208">
        <ele>596</ele>
        <time>2026-08-29T15:54:51Z</time>
      </trkpt>
      <trkpt lat="50.615411270409822" lon="13.421173430979252">
        <ele>596</ele>
        <time>2026-08-29T15:54:52Z</time>
      </trkpt>
      <trkpt lat="50.615425100550056" lon="13.421289687976241">
        <ele>596</ele>
        <time>2026-08-29T15:54:53Z</time>
      </trkpt>
      <trkpt lat="50.61543800868094" lon="13.42138197273016">
        <ele>597</ele>
        <time>2026-08-29T15:54:54Z</time>
      </trkpt>
      <trkpt lat="50.615454521030188" lon="13.421489847823977">
        <ele>597</ele>
        <time>2026-08-29T15:54:55Z</time>
      </trkpt>
      <trkpt lat="50.615473799407482" lon="13.421594621613622">
        <ele>597</ele>
        <time>2026-08-29T15:54:56Z</time>
      </trkpt>
      <trkpt lat="50.615493999794126" lon="13.421706017106771">
        <ele>596</ele>
        <time>2026-08-29T15:54:57Z</time>
      </trkpt>
      <trkpt lat="50.615511434152722" lon="13.421816406771541">
        <ele>596</ele>
        <time>2026-08-29T15:54:58Z</time>
      </trkpt>
      <trkpt lat="50.615523420274258" lon="13.421921851113439">
        <ele>596</ele>
        <time>2026-08-29T15:54:59Z</time>
      </trkpt>
      <trkpt lat="50.615535406395793" lon="13.422033246606588">
        <ele>596</ele>
        <time>2026-08-29T15:55:00Z</time>
      </trkpt>
      <trkpt lat="50.615552337840199" lon="13.422146150842309">
        <ele>596</ele>
        <time>2026-08-29T15:55:01Z</time>
      </trkpt>
      <trkpt lat="50.61556801199913" lon="13.422257713973522">
        <ele>597</ele>
        <time>2026-08-29T15:55:02Z</time>
      </trkpt>
      <trkpt lat="50.615585697814822" lon="13.422367852181196">
        <ele>597</ele>
        <time>2026-08-29T15:55:03Z</time>
      </trkpt>
      <trkpt lat="50.615605311468244" lon="13.422469524666667">
        <ele>597</ele>
        <time>2026-08-29T15:55:04Z</time>
      </trkpt>
      <trkpt lat="50.61562173999846" lon="13.422570610418916">
        <ele>598</ele>
        <time>2026-08-29T15:55:05Z</time>
      </trkpt>
      <trkpt lat="50.615641186013818" lon="13.422668259590864">
        <ele>598</ele>
        <time>2026-08-29T15:55:06Z</time>
      </trkpt>
      <trkpt lat="50.615655016154051" lon="13.422773284837604">
        <ele>598</ele>
        <time>2026-08-29T15:55:07Z</time>
      </trkpt>
      <trkpt lat="50.615677563473582" lon="13.422874035313725">
        <ele>597</ele>
        <time>2026-08-29T15:55:08Z</time>
      </trkpt>
      <trkpt lat="50.615696087479591" lon="13.422979563474655">
        <ele>597</ele>
        <time>2026-08-29T15:55:09Z</time>
      </trkpt>
      <trkpt lat="50.615719305351377" lon="13.423074530437589">
        <ele>597</ele>
        <time>2026-08-29T15:55:10Z</time>
      </trkpt>
      <trkpt lat="50.615744031965733" lon="13.423172933980823">
        <ele>598</ele>
        <time>2026-08-29T15:55:11Z</time>
      </trkpt>
      <trkpt lat="50.615772362798452" lon="13.423272091895342">
        <ele>599</ele>
        <time>2026-08-29T15:55:12Z</time>
      </trkpt>
      <trkpt lat="50.615800861269236" lon="13.423377117142081">
        <ele>599</ele>
        <time>2026-08-29T15:55:13Z</time>
      </trkpt>
      <trkpt lat="50.61583137139678" lon="13.423482393845916">
        <ele>599</ele>
        <time>2026-08-29T15:55:14Z</time>
      </trkpt>
      <trkpt lat="50.615846291184425" lon="13.423588173463941">
        <ele>599</ele>
        <time>2026-08-29T15:55:15Z</time>
      </trkpt>
      <trkpt lat="50.615866323933005" lon="13.423694372177124">
        <ele>599</ele>
        <time>2026-08-29T15:55:16Z</time>
      </trkpt>
      <trkpt lat="50.615893229842186" lon="13.4238026663661">
        <ele>599</ele>
        <time>2026-08-29T15:55:17Z</time>
      </trkpt>
      <trkpt lat="50.615911083295941" lon="13.423906015232205">
        <ele>599</ele>
        <time>2026-08-29T15:55:18Z</time>
      </trkpt>
      <trkpt lat="50.615921141579747" lon="13.424012549221516">
        <ele>599</ele>
        <time>2026-08-29T15:55:19Z</time>
      </trkpt>
      <trkpt lat="50.615932121872902" lon="13.42412268742919">
        <ele>599</ele>
        <time>2026-08-29T15:55:20Z</time>
      </trkpt>
      <trkpt lat="50.615925332531333" lon="13.424219079315662">
        <ele>599</ele>
        <time>2026-08-29T15:55:21Z</time>
      </trkpt>
      <trkpt lat="50.615922147408128" lon="13.424330055713654">
        <ele>599</ele>
        <time>2026-08-29T15:55:22Z</time>
      </trkpt>
      <trkpt lat="50.615914352238178" lon="13.424442959949374">
        <ele>600</ele>
        <time>2026-08-29T15:55:23Z</time>
      </trkpt>
      <trkpt lat="50.61589490622282" lon="13.424551840871572">
        <ele>599</ele>
        <time>2026-08-29T15:55:24Z</time>
      </trkpt>
      <trkpt lat="50.615884009748697" lon="13.424644460901618">
        <ele>600</ele>
        <time>2026-08-29T15:55:25Z</time>
      </trkpt>
      <trkpt lat="50.615864815190434" lon="13.424735739827156">
        <ele>600</ele>
        <time>2026-08-29T15:55:26Z</time>
      </trkpt>
      <trkpt lat="50.615845285356045" lon="13.42482877895236">
        <ele>600</ele>
        <time>2026-08-29T15:55:27Z</time>
      </trkpt>
      <trkpt lat="50.615830197930336" lon="13.424901617690921">
        <ele>600</ele>
        <time>2026-08-29T15:55:28Z</time>
      </trkpt>
      <trkpt lat="50.61581184156239" lon="13.424990801140666">
        <ele>600</ele>
        <time>2026-08-29T15:55:29Z</time>
      </trkpt>
      <trkpt lat="50.615788036957383" lon="13.425081074237823">
        <ele>600</ele>
        <time>2026-08-29T15:55:30Z</time>
      </trkpt>
      <trkpt lat="50.615765321999788" lon="13.425170090049505">
        <ele>600</ele>
        <time>2026-08-29T15:55:31Z</time>
      </trkpt>
      <trkpt lat="50.615750066936016" lon="13.425251226872206">
        <ele>600</ele>
        <time>2026-08-29T15:55:32Z</time>
      </trkpt>
      <trkpt lat="50.615729698911309" lon="13.425341919064522">
        <ele>600</ele>
        <time>2026-08-29T15:55:33Z</time>
      </trkpt>
      <trkpt lat="50.615695333108306" lon="13.425416937097907">
        <ele>600</ele>
        <time>2026-08-29T15:55:34Z</time>
      </trkpt>
      <trkpt lat="50.615654932335019" lon="13.425480555742979">
        <ele>600</ele>
        <time>2026-08-29T15:55:35Z</time>
      </trkpt>
      <trkpt lat="50.615618973970413" lon="13.425548365339637">
        <ele>600</ele>
        <time>2026-08-29T15:55:36Z</time>
      </trkpt>
      <trkpt lat="50.615581590682268" lon="13.425599997863173">
        <ele>600</ele>
        <time>2026-08-29T15:55:37Z</time>
      </trkpt>
      <trkpt lat="50.615543117746711" lon="13.42564475722611">
        <ele>600</ele>
        <time>2026-08-29T15:55:38Z</time>
      </trkpt>
      <trkpt lat="50.615506824105978" lon="13.425701167434454">
        <ele>600</ele>
        <time>2026-08-29T15:55:39Z</time>
      </trkpt>
      <trkpt lat="50.615465501323342" lon="13.425755063071847">
        <ele>601</ele>
        <time>2026-08-29T15:55:40Z</time>
      </trkpt>
      <trkpt lat="50.615424178540707" lon="13.425801834091544">
        <ele>601</ele>
        <time>2026-08-29T15:55:41Z</time>
      </trkpt>
      <trkpt lat="50.615385789424181" lon="13.425847180187702">
        <ele>602</ele>
        <time>2026-08-29T15:55:42Z</time>
      </trkpt>
      <trkpt lat="50.615351339802146" lon="13.425885317847133">
        <ele>602</ele>
        <time>2026-08-29T15:55:43Z</time>
      </trkpt>
      <trkpt lat="50.615304401144385" lon="13.425922198221087">
        <ele>602</ele>
        <time>2026-08-29T15:55:44Z</time>
      </trkpt>
      <trkpt lat="50.615264503285289" lon="13.425963101908565">
        <ele>602</ele>
        <time>2026-08-29T15:55:45Z</time>
      </trkpt>
      <trkpt lat="50.615217396989465" lon="13.426013477146626">
        <ele>601</ele>
        <time>2026-08-29T15:55:46Z</time>
      </trkpt>
      <trkpt lat="50.615168530493975" lon="13.42603761702776">
        <ele>602</ele>
        <time>2026-08-29T15:55:47Z</time>
      </trkpt>
      <trkpt lat="50.615115724503994" lon="13.426067288964987">
        <ele>602</ele>
        <time>2026-08-29T15:55:48Z</time>
      </trkpt>
      <trkpt lat="50.615068282932043" lon="13.426086315885186">
        <ele>602</ele>
        <time>2026-08-29T15:55:49Z</time>
      </trkpt>
      <trkpt lat="50.615023942664266" lon="13.426104839891195">
        <ele>602</ele>
        <time>2026-08-29T15:55:50Z</time>
      </trkpt>
      <trkpt lat="50.614976081997156" lon="13.426104923710227">
        <ele>602</ele>
        <time>2026-08-29T15:55:51Z</time>
      </trkpt>
      <trkpt lat="50.614936351776123" lon="13.426102325320244">
        <ele>602</ele>
        <time>2026-08-29T15:55:52Z</time>
      </trkpt>
      <trkpt lat="50.614897208288312" lon="13.426083633676171">
        <ele>603</ele>
        <time>2026-08-29T15:55:53Z</time>
      </trkpt>
      <trkpt lat="50.614850018173456" lon="13.426063600927591">
        <ele>603</ele>
        <time>2026-08-29T15:55:54Z</time>
      </trkpt>
      <trkpt lat="50.614810874685645" lon="13.426042394712567">
        <ele>603</ele>
        <time>2026-08-29T15:55:55Z</time>
      </trkpt>
      <trkpt lat="50.614769719541073" lon="13.426019428297877">
        <ele>604</ele>
        <time>2026-08-29T15:55:56Z</time>
      </trkpt>
      <trkpt lat="50.614722110331059" lon="13.425986906513572">
        <ele>604</ele>
        <time>2026-08-29T15:55:57Z</time>
      </trkpt>
      <trkpt lat="50.614679781720042" lon="13.425938962027431">
        <ele>604</ele>
        <time>2026-08-29T15:55:58Z</time>
      </trkpt>
      <trkpt lat="50.614640805870295" lon="13.425883976742625">
        <ele>604</ele>
        <time>2026-08-29T15:55:59Z</time>
      </trkpt>
      <trkpt lat="50.614608032628894" lon="13.425829578191042">
        <ele>604</ele>
        <time>2026-08-29T15:56:00Z</time>
      </trkpt>
      <trkpt lat="50.614574505016208" lon="13.425777023658156">
        <ele>604</ele>
        <time>2026-08-29T15:56:01Z</time>
      </trkpt>
      <trkpt lat="50.614535361528397" lon="13.425738885998726">
        <ele>604</ele>
        <time>2026-08-29T15:56:02Z</time>
      </trkpt>
      <trkpt lat="50.614498816430569" lon="13.425702676177025">
        <ele>604</ele>
        <time>2026-08-29T15:56:03Z</time>
      </trkpt>
      <trkpt lat="50.614454308524728" lon="13.425675518810749">
        <ele>604</ele>
        <time>2026-08-29T15:56:04Z</time>
      </trkpt>
      <trkpt lat="50.614414243027568" lon="13.425632938742638">
        <ele>604</ele>
        <time>2026-08-29T15:56:05Z</time>
      </trkpt>
      <trkpt lat="50.614370824769139" lon="13.4255934599787">
        <ele>604</ele>
        <time>2026-08-29T15:56:06Z</time>
      </trkpt>
      <trkpt lat="50.614328160881996" lon="13.425541240721941">
        <ele>603</ele>
        <time>2026-08-29T15:56:07Z</time>
      </trkpt>
      <trkpt lat="50.614289352670312" lon="13.425500756129622">
        <ele>604</ele>
        <time>2026-08-29T15:56:08Z</time>
      </trkpt>
      <trkpt lat="50.61425163410604" lon="13.425468318164349">
        <ele>604</ele>
        <time>2026-08-29T15:56:09Z</time>
      </trkpt>
      <trkpt lat="50.614213664084673" lon="13.425435880199075">
        <ele>605</ele>
        <time>2026-08-29T15:56:10Z</time>
      </trkpt>
      <trkpt lat="50.614165971055627" lon="13.425410399213433">
        <ele>606</ele>
        <time>2026-08-29T15:56:11Z</time>
      </trkpt>
      <trkpt lat="50.614124061539769" lon="13.425382655113935">
        <ele>606</ele>
        <time>2026-08-29T15:56:12Z</time>
      </trkpt>
      <trkpt lat="50.614079218357801" lon="13.425356922671199">
        <ele>606</ele>
        <time>2026-08-29T15:56:13Z</time>
      </trkpt>
      <trkpt lat="50.614038817584515" lon="13.42532716691494">
        <ele>607</ele>
        <time>2026-08-29T15:56:14Z</time>
      </trkpt>
      <trkpt lat="50.613983916118741" lon="13.425305122509599">
        <ele>607</ele>
        <time>2026-08-29T15:56:15Z</time>
      </trkpt>
      <trkpt lat="50.613927254453301" lon="13.425290621817112">
        <ele>607</ele>
        <time>2026-08-29T15:56:16Z</time>
      </trkpt>
      <trkpt lat="50.613874699920416" lon="13.4252636320889">
        <ele>607</ele>
        <time>2026-08-29T15:56:17Z</time>
      </trkpt>
      <trkpt lat="50.613819546997547" lon="13.425236726179719">
        <ele>607</ele>
        <time>2026-08-29T15:56:18Z</time>
      </trkpt>
      <trkpt lat="50.613768333569169" lon="13.425213173031807">
        <ele>607</ele>
        <time>2026-08-29T15:56:19Z</time>
      </trkpt>
      <trkpt lat="50.613719299435616" lon="13.42517813667655">
        <ele>607</ele>
        <time>2026-08-29T15:56:20Z</time>
      </trkpt>
      <trkpt lat="50.613669008016586" lon="13.425139831379056">
        <ele>607</ele>
        <time>2026-08-29T15:56:21Z</time>
      </trkpt>
      <trkpt lat="50.61361838132143" lon="13.425101274624467">
        <ele>607</ele>
        <time>2026-08-29T15:56:22Z</time>
      </trkpt>
      <trkpt lat="50.613561719655991" lon="13.42507160268724">
        <ele>607</ele>
        <time>2026-08-29T15:56:23Z</time>
      </trkpt>
      <trkpt lat="50.613501202315092" lon="13.425042266026139">
        <ele>608</ele>
        <time>2026-08-29T15:56:24Z</time>
      </trkpt>
      <trkpt lat="50.613441355526447" lon="13.425013851374388">
        <ele>607</ele>
        <time>2026-08-29T15:56:25Z</time>
      </trkpt>
      <trkpt lat="50.613384442403913" lon="13.424983927980065">
        <ele>607</ele>
        <time>2026-08-29T15:56:26Z</time>
      </trkpt>
      <trkpt lat="50.613317470997572" lon="13.424954088404775">
        <ele>607</ele>
        <time>2026-08-29T15:56:27Z</time>
      </trkpt>
      <trkpt lat="50.613252175971866" lon="13.424920057877898">
        <ele>607</ele>
        <time>2026-08-29T15:56:28Z</time>
      </trkpt>
      <trkpt lat="50.613192496821284" lon="13.424891224130988">
        <ele>607</ele>
        <time>2026-08-29T15:56:29Z</time>
      </trkpt>
      <trkpt lat="50.613131392747164" lon="13.42485761269927">
        <ele>607</ele>
        <time>2026-08-29T15:56:30Z</time>
      </trkpt>
      <trkpt lat="50.613073641434312" lon="13.424831796437502">
        <ele>606</ele>
        <time>2026-08-29T15:56:31Z</time>
      </trkpt>
      <trkpt lat="50.613010777160525" lon="13.424812434241176">
        <ele>606</ele>
        <time>2026-08-29T15:56:32Z</time>
      </trkpt>
      <trkpt lat="50.612949337810278" lon="13.424805896356702">
        <ele>606</ele>
        <time>2026-08-29T15:56:33Z</time>
      </trkpt>
      <trkpt lat="50.612885886803269" lon="13.424802795052528">
        <ele>606</ele>
        <time>2026-08-29T15:56:34Z</time>
      </trkpt>
      <trkpt lat="50.612821849063039" lon="13.424817128106952">
        <ele>606</ele>
        <time>2026-08-29T15:56:35Z</time>
      </trkpt>
      <trkpt lat="50.612755548208952" lon="13.424836993217468">
        <ele>606</ele>
        <time>2026-08-29T15:56:36Z</time>
      </trkpt>
      <trkpt lat="50.612700479105115" lon="13.424875466153026">
        <ele>606</ele>
        <time>2026-08-29T15:56:37Z</time>
      </trkpt>
      <trkpt lat="50.612644739449024" lon="13.424901282414794">
        <ele>606</ele>
        <time>2026-08-29T15:56:38Z</time>
      </trkpt>
      <trkpt lat="50.61258640140295" lon="13.424935983493924">
        <ele>606</ele>
        <time>2026-08-29T15:56:39Z</time>
      </trkpt>
      <trkpt lat="50.612538708373904" lon="13.424990298226476">
        <ele>605</ele>
        <time>2026-08-29T15:56:40Z</time>
      </trkpt>
      <trkpt lat="50.612490428611636" lon="13.425048971548676">
        <ele>605</ele>
        <time>2026-08-29T15:56:41Z</time>
      </trkpt>
      <trkpt lat="50.612442987039685" lon="13.425112506374717">
        <ele>605</ele>
        <time>2026-08-29T15:56:42Z</time>
      </trkpt>
      <trkpt lat="50.61239629983902" lon="13.425168246030807">
        <ele>606</ele>
        <time>2026-08-29T15:56:43Z</time>
      </trkpt>
      <trkpt lat="50.612355899065733" lon="13.425230020657182">
        <ele>606</ele>
        <time>2026-08-29T15:56:44Z</time>
      </trkpt>
      <trkpt lat="50.612316839396954" lon="13.425314342603087">
        <ele>607</ele>
        <time>2026-08-29T15:56:45Z</time>
      </trkpt>
      <trkpt lat="50.612279791384935" lon="13.425389360636473">
        <ele>607</ele>
        <time>2026-08-29T15:56:46Z</time>
      </trkpt>
      <trkpt lat="50.61224777251482" lon="13.425477622076869">
        <ele>606</ele>
        <time>2026-08-29T15:56:47Z</time>
      </trkpt>
      <trkpt lat="50.612221453338861" lon="13.425553813576698">
        <ele>607</ele>
        <time>2026-08-29T15:56:48Z</time>
      </trkpt>
      <trkpt lat="50.612193457782269" lon="13.425628915429115">
        <ele>607</ele>
        <time>2026-08-29T15:56:49Z</time>
      </trkpt>
      <trkpt lat="50.6121676415205" lon="13.425710555166006">
        <ele>607</ele>
        <time>2026-08-29T15:56:50Z</time>
      </trkpt>
      <trkpt lat="50.612138556316495" lon="13.425785237923265">
        <ele>606</ele>
        <time>2026-08-29T15:56:51Z</time>
      </trkpt>
      <trkpt lat="50.612111063674092" lon="13.425864530727267">
        <ele>607</ele>
        <time>2026-08-29T15:56:52Z</time>
      </trkpt>
      <trkpt lat="50.612079547718167" lon="13.425942398607731">
        <ele>607</ele>
        <time>2026-08-29T15:56:53Z</time>
      </trkpt>
      <trkpt lat="50.612051049247384" lon="13.426016662269831">
        <ele>607</ele>
        <time>2026-08-29T15:56:54Z</time>
      </trkpt>
      <trkpt lat="50.612025987356901" lon="13.426095116883516">
        <ele>608</ele>
        <time>2026-08-29T15:56:55Z</time>
      </trkpt>
      <trkpt lat="50.612004278227687" lon="13.426168290898204">
        <ele>608</ele>
        <time>2026-08-29T15:56:56Z</time>
      </trkpt>
      <trkpt lat="50.611978378146887" lon="13.426238866522908">
        <ele>608</ele>
        <time>2026-08-29T15:56:57Z</time>
      </trkpt>
      <trkpt lat="50.61195457354188" lon="13.426317824050784">
        <ele>608</ele>
        <time>2026-08-29T15:56:58Z</time>
      </trkpt>
      <trkpt lat="50.611928338184953" lon="13.426398960873485">
        <ele>608</ele>
        <time>2026-08-29T15:56:59Z</time>
      </trkpt>
      <trkpt lat="50.61190620996058" lon="13.426482863724232">
        <ele>608</ele>
        <time>2026-08-29T15:57:00Z</time>
      </trkpt>
      <trkpt lat="50.611878465861082" lon="13.426558552309871">
        <ele>608</ele>
        <time>2026-08-29T15:57:01Z</time>
      </trkpt>
      <trkpt lat="50.611854158341885" lon="13.42664547264576">
        <ele>608</ele>
        <time>2026-08-29T15:57:02Z</time>
      </trkpt>
      <trkpt lat="50.611829180270433" lon="13.426722083240747">
        <ele>609</ele>
        <time>2026-08-29T15:57:03Z</time>
      </trkpt>
      <trkpt lat="50.611802777275443" lon="13.426802130416036">
        <ele>608</ele>
        <time>2026-08-29T15:57:04Z</time>
      </trkpt>
      <trkpt lat="50.611776122823358" lon="13.426875304430723">
        <ele>608</ele>
        <time>2026-08-29T15:57:05Z</time>
      </trkpt>
      <trkpt lat="50.611743601039052" lon="13.426945293322206">
        <ele>608</ele>
        <time>2026-08-29T15:57:06Z</time>
      </trkpt>
      <trkpt lat="50.611714934930205" lon="13.427001619711518">
        <ele>607</ele>
        <time>2026-08-29T15:57:07Z</time>
      </trkpt>
      <trkpt lat="50.611676629632711" lon="13.427061131224036">
        <ele>607</ele>
        <time>2026-08-29T15:57:08Z</time>
      </trkpt>
      <trkpt lat="50.611637067049742" lon="13.427116619423032">
        <ele>608</ele>
        <time>2026-08-29T15:57:09Z</time>
      </trkpt>
      <trkpt lat="50.611598677933216" lon="13.427159870043397">
        <ele>609</ele>
        <time>2026-08-29T15:57:10Z</time>
      </trkpt>
      <trkpt lat="50.611558277159929" lon="13.427208317443728">
        <ele>609</ele>
        <time>2026-08-29T15:57:11Z</time>
      </trkpt>
      <trkpt lat="50.611513769254088" lon="13.427252992987633">
        <ele>608</ele>
        <time>2026-08-29T15:57:12Z</time>
      </trkpt>
      <trkpt lat="50.611474709585309" lon="13.427286269143224">
        <ele>608</ele>
        <time>2026-08-29T15:57:13Z</time>
      </trkpt>
      <trkpt lat="50.611434727907181" lon="13.427327256649733">
        <ele>609</ele>
        <time>2026-08-29T15:57:14Z</time>
      </trkpt>
      <trkpt lat="50.611390890553594" lon="13.427359443157911">
        <ele>609</ele>
        <time>2026-08-29T15:57:15Z</time>
      </trkpt>
      <trkpt lat="50.611350908875465" lon="13.427392384037375">
        <ele>610</ele>
        <time>2026-08-29T15:57:16Z</time>
      </trkpt>
      <trkpt lat="50.611312771216035" lon="13.427428677678108">
        <ele>610</ele>
        <time>2026-08-29T15:57:17Z</time>
      </trkpt>
      <trkpt lat="50.611277315765619" lon="13.427455248311162">
        <ele>610</ele>
        <time>2026-08-29T15:57:18Z</time>
      </trkpt>
      <trkpt lat="50.611239681020379" lon="13.427482740953565">
        <ele>611</ele>
        <time>2026-08-29T15:57:19Z</time>
      </trkpt>
      <trkpt lat="50.611205399036407" lon="13.427504366263747">
        <ele>611</ele>
        <time>2026-08-29T15:57:20Z</time>
      </trkpt>
      <trkpt lat="50.611172877252102" lon="13.427527081221342">
        <ele>611</ele>
        <time>2026-08-29T15:57:21Z</time>
      </trkpt>
      <trkpt lat="50.611140858381987" lon="13.427548706531525">
        <ele>611</ele>
        <time>2026-08-29T15:57:22Z</time>
      </trkpt>
      <trkpt lat="50.611101211979985" lon="13.427567481994629">
        <ele>611</ele>
        <time>2026-08-29T15:57:23Z</time>
      </trkpt>
      <trkpt lat="50.611059470102191" lon="13.427580641582608">
        <ele>611</ele>
        <time>2026-08-29T15:57:24Z</time>
      </trkpt>
      <trkpt lat="50.611020494252443" lon="13.427600171416998">
        <ele>611</ele>
        <time>2026-08-29T15:57:25Z</time>
      </trkpt>
      <trkpt lat="50.610982021316886" lon="13.42761542648077">
        <ele>611</ele>
        <time>2026-08-29T15:57:26Z</time>
      </trkpt>
      <trkpt lat="50.610945811495185" lon="13.427619617432356">
        <ele>611</ele>
        <time>2026-08-29T15:57:27Z</time>
      </trkpt>
      <trkpt lat="50.610907841473818" lon="13.427621461451054">
        <ele>611</ele>
        <time>2026-08-29T15:57:28Z</time>
      </trkpt>
      <trkpt lat="50.610868278890848" lon="13.427632777020335">
        <ele>611</ele>
        <time>2026-08-29T15:57:29Z</time>
      </trkpt>
      <trkpt lat="50.610825447365642" lon="13.427633531391621">
        <ele>611</ele>
        <time>2026-08-29T15:57:30Z</time>
      </trkpt>
      <trkpt lat="50.610782448202372" lon="13.427629508078098">
        <ele>611</ele>
        <time>2026-08-29T15:57:31Z</time>
      </trkpt>
      <trkpt lat="50.610743891447783" lon="13.427627244964242">
        <ele>612</ele>
        <time>2026-08-29T15:57:32Z</time>
      </trkpt>
      <trkpt lat="50.610708938911557" lon="13.42762716114521">
        <ele>612</ele>
        <time>2026-08-29T15:57:33Z</time>
      </trkpt>
      <trkpt lat="50.61066853813827" lon="13.427626322954893">
        <ele>612</ele>
        <time>2026-08-29T15:57:34Z</time>
      </trkpt>
      <trkpt lat="50.610623359680176" lon="13.427625149488449">
        <ele>613</ele>
        <time>2026-08-29T15:57:35Z</time>
      </trkpt>
      <trkpt lat="50.610584048554301" lon="13.427631100639701">
        <ele>613</ele>
        <time>2026-08-29T15:57:36Z</time>
      </trkpt>
      <trkpt lat="50.610548760741949" lon="13.427655911073089">
        <ele>613</ele>
        <time>2026-08-29T15:57:37Z</time>
      </trkpt>
      <trkpt lat="50.610514059662819" lon="13.427671082317829">
        <ele>613</ele>
        <time>2026-08-29T15:57:38Z</time>
      </trkpt>
      <trkpt lat="50.610473994165659" lon="13.427688684314489">
        <ele>613</ele>
        <time>2026-08-29T15:57:39Z</time>
      </trkpt>
      <trkpt lat="50.61043786816299" lon="13.42771265655756">
        <ele>614</ele>
        <time>2026-08-29T15:57:40Z</time>
      </trkpt>
      <trkpt lat="50.610400149598718" lon="13.427739897742867">
        <ele>614</ele>
        <time>2026-08-29T15:57:41Z</time>
      </trkpt>
      <trkpt lat="50.61036461032927" lon="13.427772168070078">
        <ele>614</ele>
        <time>2026-08-29T15:57:42Z</time>
      </trkpt>
      <trkpt lat="50.610318593680859" lon="13.42781231738627">
        <ele>614</ele>
        <time>2026-08-29T15:57:43Z</time>
      </trkpt>
      <trkpt lat="50.610276684165001" lon="13.427852634340525">
        <ele>614</ele>
        <time>2026-08-29T15:57:44Z</time>
      </trkpt>
      <trkpt lat="50.61023460701108" lon="13.427893118932843">
        <ele>614</ele>
        <time>2026-08-29T15:57:45Z</time>
      </trkpt>
      <trkpt lat="50.610195882618427" lon="13.427935615181923">
        <ele>614</ele>
        <time>2026-08-29T15:57:46Z</time>
      </trkpt>
      <trkpt lat="50.610154308378696" lon="13.427971238270402">
        <ele>614</ele>
        <time>2026-08-29T15:57:47Z</time>
      </trkpt>
      <trkpt lat="50.610116003081203" lon="13.428007448092103">
        <ele>614</ele>
        <time>2026-08-29T15:57:48Z</time>
      </trkpt>
      <trkpt lat="50.610081050544977" lon="13.428054302930832">
        <ele>614</ele>
        <time>2026-08-29T15:57:49Z</time>
      </trkpt>
      <trkpt lat="50.610047690570354" lon="13.428094871342182">
        <ele>614</ele>
        <time>2026-08-29T15:57:50Z</time>
      </trkpt>
      <trkpt lat="50.610015168786049" lon="13.428132254630327">
        <ele>614</ele>
        <time>2026-08-29T15:57:51Z</time>
      </trkpt>
      <trkpt lat="50.60997761785984" lon="13.428162345662713">
        <ele>614</ele>
        <time>2026-08-29T15:57:52Z</time>
      </trkpt>
      <trkpt lat="50.609945179894567" lon="13.428210960701108">
        <ele>614</ele>
        <time>2026-08-29T15:57:53Z</time>
      </trkpt>
      <trkpt lat="50.609912239015102" lon="13.428248427808285">
        <ele>615</ele>
        <time>2026-08-29T15:57:54Z</time>
      </trkpt>
      <trkpt lat="50.609883656725287" lon="13.428298300132155">
        <ele>615</ele>
        <time>2026-08-29T15:57:55Z</time>
      </trkpt>
      <trkpt lat="50.609857421368361" lon="13.428343059495091">
        <ele>614</ele>
        <time>2026-08-29T15:57:56Z</time>
      </trkpt>
      <trkpt lat="50.609829509630799" lon="13.428400475531816">
        <ele>614</ele>
        <time>2026-08-29T15:57:57Z</time>
      </trkpt>
      <trkpt lat="50.609797071665525" lon="13.428451186046004">
        <ele>614</ele>
        <time>2026-08-29T15:57:58Z</time>
      </trkpt>
      <trkpt lat="50.609760778024793" lon="13.428499717265368">
        <ele>615</ele>
        <time>2026-08-29T15:57:59Z</time>
      </trkpt>
      <trkpt lat="50.609727501869202" lon="13.42854137532413">
        <ele>615</ele>
        <time>2026-08-29T15:58:00Z</time>
      </trkpt>
      <trkpt lat="50.609691878780723" lon="13.428591331467032">
        <ele>615</ele>
        <time>2026-08-29T15:58:01Z</time>
      </trkpt>
      <trkpt lat="50.609664302319288" lon="13.428641119971871">
        <ele>615</ele>
        <time>2026-08-29T15:58:02Z</time>
      </trkpt>
      <trkpt lat="50.609641000628471" lon="13.428689483553171">
        <ele>616</ele>
        <time>2026-08-29T15:58:03Z</time>
      </trkpt>
      <trkpt lat="50.609613927081227" lon="13.42874220572412">
        <ele>616</ele>
        <time>2026-08-29T15:58:04Z</time>
      </trkpt>
      <trkpt lat="50.609588446095586" lon="13.428789312019944">
        <ele>617</ele>
        <time>2026-08-29T15:58:05Z</time>
      </trkpt>
      <trkpt lat="50.60956128872931" lon="13.428843375295401">
        <ele>617</ele>
        <time>2026-08-29T15:58:06Z</time>
      </trkpt>
      <trkpt lat="50.609534550458193" lon="13.428886458277702">
        <ele>616</ele>
        <time>2026-08-29T15:58:07Z</time>
      </trkpt>
      <trkpt lat="50.609513008967042" lon="13.428943119943142">
        <ele>617</ele>
        <time>2026-08-29T15:58:08Z</time>
      </trkpt>
      <trkpt lat="50.609486941248178" lon="13.428993327543139">
        <ele>616</ele>
        <time>2026-08-29T15:58:09Z</time>
      </trkpt>
      <trkpt lat="50.609456431120634" lon="13.429033393040299">
        <ele>617</ele>
        <time>2026-08-29T15:58:10Z</time>
      </trkpt>
      <trkpt lat="50.609427848830819" lon="13.429081924259663">
        <ele>617</ele>
        <time>2026-08-29T15:58:11Z</time>
      </trkpt>
      <trkpt lat="50.609403289854527" lon="13.429126432165504">
        <ele>617</ele>
        <time>2026-08-29T15:58:12Z</time>
      </trkpt>
      <trkpt lat="50.609378479421139" lon="13.429167252033949">
        <ele>618</ele>
        <time>2026-08-29T15:58:13Z</time>
      </trkpt>
      <trkpt lat="50.609350064769387" lon="13.429218046367168">
        <ele>618</ele>
        <time>2026-08-29T15:58:14Z</time>
      </trkpt>
      <trkpt lat="50.60931988991797" lon="13.429267331957817">
        <ele>617</ele>
        <time>2026-08-29T15:58:15Z</time>
      </trkpt>
      <trkpt lat="50.609290050342679" lon="13.429316785186529">
        <ele>617</ele>
        <time>2026-08-29T15:58:16Z</time>
      </trkpt>
      <trkpt lat="50.609266329556704" lon="13.42936908826232">
        <ele>617</ele>
        <time>2026-08-29T15:58:17Z</time>
      </trkpt>
      <trkpt lat="50.609232550486922" lon="13.429408147931099">
        <ele>617</ele>
        <time>2026-08-29T15:58:18Z</time>
      </trkpt>
      <trkpt lat="50.60920363292098" lon="13.429442178457975">
        <ele>618</ele>
        <time>2026-08-29T15:58:19Z</time>
      </trkpt>
      <trkpt lat="50.609173541888595" lon="13.429480316117406">
        <ele>618</ele>
        <time>2026-08-29T15:58:20Z</time>
      </trkpt>
      <trkpt lat="50.609150407835841" lon="13.429519040510058">
        <ele>618</ele>
        <time>2026-08-29T15:58:21Z</time>
      </trkpt>
      <trkpt lat="50.609122077003121" lon="13.429550305008888">
        <ele>618</ele>
        <time>2026-08-29T15:58:22Z</time>
      </trkpt>
      <trkpt lat="50.609093327075243" lon="13.42957578599453">
        <ele>618</ele>
        <time>2026-08-29T15:58:23Z</time>
      </trkpt>
      <trkpt lat="50.609066504985094" lon="13.42960755340755">
        <ele>619</ele>
        <time>2026-08-29T15:58:24Z</time>
      </trkpt>
      <trkpt lat="50.609040185809135" lon="13.42963689006865">
        <ele>619</ele>
        <time>2026-08-29T15:58:25Z</time>
      </trkpt>
      <trkpt lat="50.609015710651875" lon="13.42965641990304">
        <ele>619</ele>
        <time>2026-08-29T15:58:26Z</time>
      </trkpt>
      <trkpt lat="50.608988218009472" lon="13.429678045213223">
        <ele>619</ele>
        <time>2026-08-29T15:58:27Z</time>
      </trkpt>
      <trkpt lat="50.608960473909974" lon="13.429703945294023">
        <ele>619</ele>
        <time>2026-08-29T15:58:28Z</time>
      </trkpt>
      <trkpt lat="50.60892996378243" lon="13.429721295833588">
        <ele>619</ele>
        <time>2026-08-29T15:58:29Z</time>
      </trkpt>
      <trkpt lat="50.608896519988775" lon="13.429740071296692">
        <ele>619</ele>
        <time>2026-08-29T15:58:30Z</time>
      </trkpt>
      <trkpt lat="50.608855616301298" lon="13.429770497605205">
        <ele>619</ele>
        <time>2026-08-29T15:58:31Z</time>
      </trkpt>
      <trkpt lat="50.608831141144037" lon="13.429798576980829">
        <ele>619</ele>
        <time>2026-08-29T15:58:32Z</time>
      </trkpt>
      <trkpt lat="50.608803229406476" lon="13.429832775145769">
        <ele>619</ele>
        <time>2026-08-29T15:58:33Z</time>
      </trkpt>
      <trkpt lat="50.608769617974758" lon="13.429867308586836">
        <ele>619</ele>
        <time>2026-08-29T15:58:34Z</time>
      </trkpt>
      <trkpt lat="50.608736509457231" lon="13.429904524236917">
        <ele>620</ele>
        <time>2026-08-29T15:58:35Z</time>
      </trkpt>
      <trkpt lat="50.608704909682274" lon="13.429937297478318">
        <ele>619</ele>
        <time>2026-08-29T15:58:36Z</time>
      </trkpt>
      <trkpt lat="50.608671717345715" lon="13.429971663281322">
        <ele>619</ele>
        <time>2026-08-29T15:58:37Z</time>
      </trkpt>
      <trkpt lat="50.608642548322678" lon="13.429998820647597">
        <ele>620</ele>
        <time>2026-08-29T15:58:38Z</time>
      </trkpt>
      <trkpt lat="50.608608685433865" lon="13.430025391280651">
        <ele>620</ele>
        <time>2026-08-29T15:58:39Z</time>
      </trkpt>
      <trkpt lat="50.60857867822051" lon="13.430058248341084">
        <ele>620</ele>
        <time>2026-08-29T15:58:40Z</time>
      </trkpt>
      <trkpt lat="50.608550179749727" lon="13.430092530325055">
        <ele>620</ele>
        <time>2026-08-29T15:58:41Z</time>
      </trkpt>
      <trkpt lat="50.608521178364754" lon="13.430130835622549">
        <ele>620</ele>
        <time>2026-08-29T15:58:42Z</time>
      </trkpt>
      <trkpt lat="50.608485471457243" lon="13.430159837007523">
        <ele>620</ele>
        <time>2026-08-29T15:58:43Z</time>
      </trkpt>
      <trkpt lat="50.608449596911669" lon="13.43019638210535">
        <ele>620</ele>
        <time>2026-08-29T15:58:44Z</time>
      </trkpt>
      <trkpt lat="50.608420092612505" lon="13.430232675746083">
        <ele>620</ele>
        <time>2026-08-29T15:58:45Z</time>
      </trkpt>
      <trkpt lat="50.608391258865595" lon="13.430267460644245">
        <ele>620</ele>
        <time>2026-08-29T15:58:46Z</time>
      </trkpt>
      <trkpt lat="50.608364352956414" lon="13.430298892781138">
        <ele>620</ele>
        <time>2026-08-29T15:58:47Z</time>
      </trkpt>
      <trkpt lat="50.608330573886633" lon="13.430337281897664">
        <ele>620</ele>
        <time>2026-08-29T15:58:48Z</time>
      </trkpt>
      <trkpt lat="50.60830257833004" lon="13.430368881672621">
        <ele>620</ele>
        <time>2026-08-29T15:58:49Z</time>
      </trkpt>
      <trkpt lat="50.608269385993481" lon="13.430410455912352">
        <ele>621</ele>
        <time>2026-08-29T15:58:50Z</time>
      </trkpt>
      <trkpt lat="50.608242396265268" lon="13.43044850975275">
        <ele>621</ele>
        <time>2026-08-29T15:58:51Z</time>
      </trkpt>
      <trkpt lat="50.608208617195487" lon="13.430482791736722">
        <ele>621</ele>
        <time>2026-08-29T15:58:52Z</time>
      </trkpt>
      <trkpt lat="50.60818187892437" lon="13.430531239137053">
        <ele>622</ele>
        <time>2026-08-29T15:58:53Z</time>
      </trkpt>
      <trkpt lat="50.608155559748411" lon="13.430570550262928">
        <ele>622</ele>
        <time>2026-08-29T15:58:54Z</time>
      </trkpt>
      <trkpt lat="50.608125887811184" lon="13.430601395666599">
        <ele>622</ele>
        <time>2026-08-29T15:58:55Z</time>
      </trkpt>
      <trkpt lat="50.608093030750751" lon="13.430644394829869">
        <ele>622</ele>
        <time>2026-08-29T15:58:56Z</time>
      </trkpt>
      <trkpt lat="50.608055228367448" lon="13.430679850280285">
        <ele>622</ele>
        <time>2026-08-29T15:58:57Z</time>
      </trkpt>
      <trkpt lat="50.608026226982474" lon="13.430708181113005">
        <ele>622</ele>
        <time>2026-08-29T15:58:58Z</time>
      </trkpt>
      <trkpt lat="50.607992699369788" lon="13.430727878585458">
        <ele>623</ele>
        <time>2026-08-29T15:58:59Z</time>
      </trkpt>
      <trkpt lat="50.607960931956768" lon="13.430754449218512">
        <ele>622</ele>
        <time>2026-08-29T15:59:00Z</time>
      </trkpt>
      <trkpt lat="50.60792438685894" lon="13.430775236338377">
        <ele>622</ele>
        <time>2026-08-29T15:59:01Z</time>
      </trkpt>
      <trkpt lat="50.607884069904685" lon="13.430801136419177">
        <ele>622</ele>
        <time>2026-08-29T15:59:02Z</time>
      </trkpt>
      <trkpt lat="50.607847943902016" lon="13.430811027064919">
        <ele>622</ele>
        <time>2026-08-29T15:59:03Z</time>
      </trkpt>
      <trkpt lat="50.607819110155106" lon="13.43082326464355">
        <ele>623</ele>
        <time>2026-08-29T15:59:04Z</time>
      </trkpt>
      <trkpt lat="50.607781643047929" lon="13.430838268250227">
        <ele>623</ele>
        <time>2026-08-29T15:59:05Z</time>
      </trkpt>
      <trkpt lat="50.607744259759784" lon="13.430847488343716">
        <ele>623</ele>
        <time>2026-08-29T15:59:06Z</time>
      </trkpt>
      <trkpt lat="50.607706708833575" lon="13.430862324312329">
        <ele>623</ele>
        <time>2026-08-29T15:59:07Z</time>
      </trkpt>
      <trkpt lat="50.607668403536081" lon="13.430873556062579">
        <ele>623</ele>
        <time>2026-08-29T15:59:08Z</time>
      </trkpt>
      <trkpt lat="50.607628589496017" lon="13.430886883288622">
        <ele>624</ele>
        <time>2026-08-29T15:59:09Z</time>
      </trkpt>
      <trkpt lat="50.607587769627571" lon="13.430896606296301">
        <ele>624</ele>
        <time>2026-08-29T15:59:10Z</time>
      </trkpt>
      <trkpt lat="50.60755155980587" lon="13.430914208292961">
        <ele>624</ele>
        <time>2026-08-29T15:59:11Z</time>
      </trkpt>
      <trkpt lat="50.607514008879662" lon="13.430929547175765">
        <ele>623</ele>
        <time>2026-08-29T15:59:12Z</time>
      </trkpt>
      <trkpt lat="50.607476960867643" lon="13.43093759380281">
        <ele>623</ele>
        <time>2026-08-29T15:59:13Z</time>
      </trkpt>
      <trkpt lat="50.607440415769815" lon="13.430945556610823">
        <ele>623</ele>
        <time>2026-08-29T15:59:14Z</time>
      </trkpt>
      <trkpt lat="50.607406552881002" lon="13.430955866351724">
        <ele>623</ele>
        <time>2026-08-29T15:59:15Z</time>
      </trkpt>
      <trkpt lat="50.607372689992189" lon="13.430965254083276">
        <ele>624</ele>
        <time>2026-08-29T15:59:16Z</time>
      </trkpt>
      <trkpt lat="50.607332373037934" lon="13.43097573146224">
        <ele>623</ele>
        <time>2026-08-29T15:59:17Z</time>
      </trkpt>
      <trkpt lat="50.607298007234931" lon="13.430991321802139">
        <ele>623</ele>
        <time>2026-08-29T15:59:18Z</time>
      </trkpt>
      <trkpt lat="50.607265401631594" lon="13.431010683998466">
        <ele>624</ele>
        <time>2026-08-29T15:59:19Z</time>
      </trkpt>
      <trkpt lat="50.607225922867656" lon="13.431025017052889">
        <ele>623</ele>
        <time>2026-08-29T15:59:20Z</time>
      </trkpt>
      <trkpt lat="50.607189377769828" lon="13.431023675948381">
        <ele>624</ele>
        <time>2026-08-29T15:59:21Z</time>
      </trkpt>
      <trkpt lat="50.607156101614237" lon="13.431030046194792">
        <ele>624</ele>
        <time>2026-08-29T15:59:22Z</time>
      </trkpt>
      <trkpt lat="50.607122909277678" lon="13.431035662069917">
        <ele>624</ele>
        <time>2026-08-29T15:59:23Z</time>
      </trkpt>
      <trkpt lat="50.607090974226594" lon="13.431049156934023">
        <ele>624</ele>
        <time>2026-08-29T15:59:24Z</time>
      </trkpt>
      <trkpt lat="50.607053590938449" lon="13.431066423654556">
        <ele>624</ele>
        <time>2026-08-29T15:59:25Z</time>
      </trkpt>
      <trkpt lat="50.607013776898384" lon="13.431082097813487">
        <ele>624</ele>
        <time>2026-08-29T15:59:26Z</time>
      </trkpt>
      <trkpt lat="50.606979075819254" lon="13.431096514686942">
        <ele>624</ele>
        <time>2026-08-29T15:59:27Z</time>
      </trkpt>
      <trkpt lat="50.606936831027269" lon="13.431111853569746">
        <ele>624</ele>
        <time>2026-08-29T15:59:28Z</time>
      </trkpt>
      <trkpt lat="50.606899699196219" lon="13.431128114461899">
        <ele>624</ele>
        <time>2026-08-29T15:59:29Z</time>
      </trkpt>
      <trkpt lat="50.606862818822265" lon="13.431140268221498">
        <ele>625</ele>
        <time>2026-08-29T15:59:30Z</time>
      </trkpt>
      <trkpt lat="50.606827028095722" lon="13.431161222979426">
        <ele>626</ele>
        <time>2026-08-29T15:59:31Z</time>
      </trkpt>
      <trkpt lat="50.606796098873019" lon="13.431177400052547">
        <ele>627</ele>
        <time>2026-08-29T15:59:32Z</time>
      </trkpt>
      <trkpt lat="50.606759805232286" lon="13.431188128888607">
        <ele>627</ele>
        <time>2026-08-29T15:59:33Z</time>
      </trkpt>
      <trkpt lat="50.606727702543139" lon="13.431197600439191">
        <ele>628</ele>
        <time>2026-08-29T15:59:34Z</time>
      </trkpt>
      <trkpt lat="50.60669400729239" lon="13.431208413094282">
        <ele>628</ele>
        <time>2026-08-29T15:59:35Z</time>
      </trkpt>
      <trkpt lat="50.606658719480038" lon="13.431217046454549">
        <ele>628</ele>
        <time>2026-08-29T15:59:36Z</time>
      </trkpt>
      <trkpt lat="50.606625359505415" lon="13.431223835796118">
        <ele>628</ele>
        <time>2026-08-29T15:59:37Z</time>
      </trkpt>
      <trkpt lat="50.606597783043981" lon="13.431239677593112">
        <ele>629</ele>
        <time>2026-08-29T15:59:38Z</time>
      </trkpt>
      <trkpt lat="50.606560818850994" lon="13.431250993162394">
        <ele>629</ele>
        <time>2026-08-29T15:59:39Z</time>
      </trkpt>
      <trkpt lat="50.606525698676705" lon="13.431265912950039">
        <ele>630</ele>
        <time>2026-08-29T15:59:40Z</time>
      </trkpt>
      <trkpt lat="50.606488399207592" lon="13.431267673149705">
        <ele>630</ele>
        <time>2026-08-29T15:59:41Z</time>
      </trkpt>
      <trkpt lat="50.606450848281384" lon="13.431283598765731">
        <ele>630</ele>
        <time>2026-08-29T15:59:42Z</time>
      </trkpt>
      <trkpt lat="50.606412710621953" lon="13.431288544088602">
        <ele>630</ele>
        <time>2026-08-29T15:59:43Z</time>
      </trkpt>
      <trkpt lat="50.606378931552172" lon="13.431299775838852">
        <ele>630</ele>
        <time>2026-08-29T15:59:44Z</time>
      </trkpt>
      <trkpt lat="50.606342637911439" lon="13.431310504674911">
        <ele>629</ele>
        <time>2026-08-29T15:59:45Z</time>
      </trkpt>
      <trkpt lat="50.606305338442326" lon="13.431325843557715">
        <ele>630</ele>
        <time>2026-08-29T15:59:46Z</time>
      </trkpt>
      <trkpt lat="50.606267368420959" lon="13.431333554908633">
        <ele>630</ele>
        <time>2026-08-29T15:59:47Z</time>
      </trkpt>
      <trkpt lat="50.606232080608606" lon="13.431335482746363">
        <ele>630</ele>
        <time>2026-08-29T15:59:48Z</time>
      </trkpt>
      <trkpt lat="50.606196289882064" lon="13.431335566565394">
        <ele>630</ele>
        <time>2026-08-29T15:59:49Z</time>
      </trkpt>
      <trkpt lat="50.606158822774887" lon="13.431333051994443">
        <ele>630</ele>
        <time>2026-08-29T15:59:50Z</time>
      </trkpt>
      <trkpt lat="50.606116075068712" lon="13.431327687576413">
        <ele>630</ele>
        <time>2026-08-29T15:59:51Z</time>
      </trkpt>
      <trkpt lat="50.606078859418631" lon="13.431323496624827">
        <ele>630</ele>
        <time>2026-08-29T15:59:52Z</time>
      </trkpt>
      <trkpt lat="50.606042398139834" lon="13.431323412805796">
        <ele>630</ele>
        <time>2026-08-29T15:59:53Z</time>
      </trkpt>
      <trkpt lat="50.606005350127816" lon="13.431325759738684">
        <ele>629</ele>
        <time>2026-08-29T15:59:54Z</time>
      </trkpt>
      <trkpt lat="50.605966709554195" lon="13.431318970397115">
        <ele>630</ele>
        <time>2026-08-29T15:59:55Z</time>
      </trkpt>
      <trkpt lat="50.605932343751192" lon="13.431314611807466">
        <ele>630</ele>
        <time>2026-08-29T15:59:56Z</time>
      </trkpt>
      <trkpt lat="50.60589655302465" lon="13.431310504674911">
        <ele>630</ele>
        <time>2026-08-29T15:59:57Z</time>
      </trkpt>
      <trkpt lat="50.605856571346521" lon="13.431308828294277">
        <ele>630</ele>
        <time>2026-08-29T15:59:58Z</time>
      </trkpt>
      <trkpt lat="50.605820529162884" lon="13.431305224075913">
        <ele>631</ele>
        <time>2026-08-29T15:59:59Z</time>
      </trkpt>
      <trkpt lat="50.605786079540849" lon="13.431301033124328">
        <ele>631</ele>
        <time>2026-08-29T16:00:00Z</time>
      </trkpt>
      <trkpt lat="50.605756491422653" lon="13.431292567402124">
        <ele>631</ele>
        <time>2026-08-29T16:00:01Z</time>
      </trkpt>
      <trkpt lat="50.605718521401286" lon="13.431275635957718">
        <ele>632</ele>
        <time>2026-08-29T16:00:02Z</time>
      </trkpt>
      <trkpt lat="50.605681389570236" lon="13.431269600987434">
        <ele>632</ele>
        <time>2026-08-29T16:00:03Z</time>
      </trkpt>
      <trkpt lat="50.605640988796949" lon="13.431265158578753">
        <ele>632</ele>
        <time>2026-08-29T16:00:04Z</time>
      </trkpt>
      <trkpt lat="50.605607377365232" lon="13.431264739483595">
        <ele>632</ele>
        <time>2026-08-29T16:00:05Z</time>
      </trkpt>
      <trkpt lat="50.605568401515484" lon="13.431251663714647">
        <ele>631</ele>
        <time>2026-08-29T16:00:06Z</time>
      </trkpt>
      <trkpt lat="50.605529258027673" lon="13.431245796382427">
        <ele>631</ele>
        <time>2026-08-29T16:00:07Z</time>
      </trkpt>
      <trkpt lat="50.605491539463401" lon="13.431246969848871">
        <ele>631</ele>
        <time>2026-08-29T16:00:08Z</time>
      </trkpt>
      <trkpt lat="50.605456251651049" lon="13.431253340095282">
        <ele>631</ele>
        <time>2026-08-29T16:00:09Z</time>
      </trkpt>
      <trkpt lat="50.605414928868413" lon="13.431247640401125">
        <ele>631</ele>
        <time>2026-08-29T16:00:10Z</time>
      </trkpt>
      <trkpt lat="50.605378048494458" lon="13.431246802210808">
        <ele>631</ele>
        <time>2026-08-29T16:00:11Z</time>
      </trkpt>
      <trkpt lat="50.605340665206313" lon="13.431246215477586">
        <ele>631</ele>
        <time>2026-08-29T16:00:12Z</time>
      </trkpt>
      <trkpt lat="50.60530437156558" lon="13.431242695078254">
        <ele>631</ele>
        <time>2026-08-29T16:00:13Z</time>
      </trkpt>
      <trkpt lat="50.605267910286784" lon="13.431245712563396">
        <ele>632</ele>
        <time>2026-08-29T16:00:14Z</time>
      </trkpt>
      <trkpt lat="50.605232790112495" lon="13.431244036182761">
        <ele>632</ele>
        <time>2026-08-29T16:00:15Z</time>
      </trkpt>
      <trkpt lat="50.605198591947556" lon="13.431241186335683">
        <ele>632</ele>
        <time>2026-08-29T16:00:16Z</time>
      </trkpt>
      <trkpt lat="50.605153581127524" lon="13.431239929050207">
        <ele>632</ele>
        <time>2026-08-29T16:00:17Z</time>
      </trkpt>
      <trkpt lat="50.605107061564922" lon="13.431248059496284">
        <ele>633</ele>
        <time>2026-08-29T16:00:18Z</time>
      </trkpt>
      <trkpt lat="50.60506590642035" lon="13.431249735876918">
        <ele>633</ele>
        <time>2026-08-29T16:00:19Z</time>
      </trkpt>
      <trkpt lat="50.605032294988632" lon="13.431251160800457">
        <ele>633</ele>
        <time>2026-08-29T16:00:20Z</time>
      </trkpt>
      <trkpt lat="50.604997845366597" lon="13.431254765018821">
        <ele>633</ele>
        <time>2026-08-29T16:00:21Z</time>
      </trkpt>
      <trkpt lat="50.604964988306165" lon="13.431259291246533">
        <ele>633</ele>
        <time>2026-08-29T16:00:22Z</time>
      </trkpt>
      <trkpt lat="50.604933053255081" lon="13.431266751140356">
        <ele>634</ele>
        <time>2026-08-29T16:00:23Z</time>
      </trkpt>
      <trkpt lat="50.604900447651744" lon="13.431273708119988">
        <ele>634</ele>
        <time>2026-08-29T16:00:24Z</time>
      </trkpt>
      <trkpt lat="50.604865327477455" lon="13.431281251832843">
        <ele>634</ele>
        <time>2026-08-29T16:00:25Z</time>
      </trkpt>
      <trkpt lat="50.604831129312515" lon="13.431292651221156">
        <ele>634</ele>
        <time>2026-08-29T16:00:26Z</time>
      </trkpt>
      <trkpt lat="50.604800200089812" lon="13.431303044781089">
        <ele>634</ele>
        <time>2026-08-29T16:00:27Z</time>
      </trkpt>
      <trkpt lat="50.604765750467777" lon="13.431312600150704">
        <ele>635</ele>
        <time>2026-08-29T16:00:28Z</time>
      </trkpt>
      <trkpt lat="50.60472727753222" lon="13.431324502453208">
        <ele>635</ele>
        <time>2026-08-29T16:00:29Z</time>
      </trkpt>
      <trkpt lat="50.60469307936728" lon="13.431334979832172">
        <ele>635</ele>
        <time>2026-08-29T16:00:30Z</time>
      </trkpt>
      <trkpt lat="50.604656869545579" lon="13.431348390877247">
        <ele>635</ele>
        <time>2026-08-29T16:00:31Z</time>
      </trkpt>
      <trkpt lat="50.604616971686482" lon="13.431358952075243">
        <ele>635</ele>
        <time>2026-08-29T16:00:32Z</time>
      </trkpt>
      <trkpt lat="50.604582522064447" lon="13.431357862427831">
        <ele>636</ele>
        <time>2026-08-29T16:00:33Z</time>
      </trkpt>
      <trkpt lat="50.604548407718539" lon="13.431370938196778">
        <ele>636</ele>
        <time>2026-08-29T16:00:34Z</time>
      </trkpt>
      <trkpt lat="50.60451521538198" lon="13.431393317878246">
        <ele>636</ele>
        <time>2026-08-29T16:00:35Z</time>
      </trkpt>
      <trkpt lat="50.60448294505477" lon="13.43141108751297">
        <ele>637</ele>
        <time>2026-08-29T16:00:36Z</time>
      </trkpt>
      <trkpt lat="50.604449165984988" lon="13.43142919242382">
        <ele>637</ele>
        <time>2026-08-29T16:00:37Z</time>
      </trkpt>
      <trkpt lat="50.604414045810699" lon="13.431447632610798">
        <ele>637</ele>
        <time>2026-08-29T16:00:38Z</time>
      </trkpt>
      <trkpt lat="50.604383619502187" lon="13.431476047262549">
        <ele>637</ele>
        <time>2026-08-29T16:00:39Z</time>
      </trkpt>
      <trkpt lat="50.604357300326228" lon="13.431506892666221">
        <ele>637</ele>
        <time>2026-08-29T16:00:40Z</time>
      </trkpt>
      <trkpt lat="50.604329220950603" lon="13.431536732241511">
        <ele>637</ele>
        <time>2026-08-29T16:00:41Z</time>
      </trkpt>
      <trkpt lat="50.604302063584328" lon="13.431573696434498">
        <ele>637</ele>
        <time>2026-08-29T16:00:42Z</time>
      </trkpt>
      <trkpt lat="50.604275241494179" lon="13.431615941226482">
        <ele>637</ele>
        <time>2026-08-29T16:00:43Z</time>
      </trkpt>
      <trkpt lat="50.604242049157619" lon="13.431647708639503">
        <ele>638</ele>
        <time>2026-08-29T16:00:44Z</time>
      </trkpt>
      <trkpt lat="50.60421179048717" lon="13.431670591235161">
        <ele>638</ele>
        <time>2026-08-29T16:00:45Z</time>
      </trkpt>
      <trkpt lat="50.604184130206704" lon="13.431699844077229">
        <ele>638</ele>
        <time>2026-08-29T16:00:46Z</time>
      </trkpt>
      <trkpt lat="50.604155212640762" lon="13.431725911796093">
        <ele>638</ele>
        <time>2026-08-29T16:00:47Z</time>
      </trkpt>
      <trkpt lat="50.604121517390013" lon="13.43175457790494">
        <ele>638</ele>
        <time>2026-08-29T16:00:48Z</time>
      </trkpt>
      <trkpt lat="50.604083631187677" lon="13.431771844625473">
        <ele>638</ele>
        <time>2026-08-29T16:00:49Z</time>
      </trkpt>
      <trkpt lat="50.604044739156961" lon="13.431789446622133">
        <ele>638</ele>
        <time>2026-08-29T16:00:50Z</time>
      </trkpt>
      <trkpt lat="50.604007188230753" lon="13.431804031133652">
        <ele>639</ele>
        <time>2026-08-29T16:00:51Z</time>
      </trkpt>
      <trkpt lat="50.603972151875496" lon="13.431815011426806">
        <ele>639</ele>
        <time>2026-08-29T16:00:52Z</time>
      </trkpt>
      <trkpt lat="50.603936025872827" lon="13.43182934448123">
        <ele>639</ele>
        <time>2026-08-29T16:00:53Z</time>
      </trkpt>
      <trkpt lat="50.603898391127586" lon="13.431839738041162">
        <ele>639</ele>
        <time>2026-08-29T16:00:54Z</time>
      </trkpt>
      <trkpt lat="50.603861678391695" lon="13.431841833516955">
        <ele>639</ele>
        <time>2026-08-29T16:00:55Z</time>
      </trkpt>
      <trkpt lat="50.603826809674501" lon="13.431853568181396">
        <ele>640</ele>
        <time>2026-08-29T16:00:56Z</time>
      </trkpt>
      <trkpt lat="50.603791940957308" lon="13.431858597323298">
        <ele>640</ele>
        <time>2026-08-29T16:00:57Z</time>
      </trkpt>
      <trkpt lat="50.603757407516241" lon="13.431862285360694">
        <ele>640</ele>
        <time>2026-08-29T16:00:58Z</time>
      </trkpt>
      <trkpt lat="50.603721113875508" lon="13.43187334947288">
        <ele>640</ele>
        <time>2026-08-29T16:00:59Z</time>
      </trkpt>
      <trkpt lat="50.603688089177012" lon="13.43189044855535">
        <ele>641</ele>
        <time>2026-08-29T16:01:00Z</time>
      </trkpt>
      <trkpt lat="50.603653807193041" lon="13.431903356686234">
        <ele>641</ele>
        <time>2026-08-29T16:01:01Z</time>
      </trkpt>
      <trkpt lat="50.603617010638118" lon="13.43191534280777">
        <ele>641</ele>
        <time>2026-08-29T16:01:02Z</time>
      </trkpt>
      <trkpt lat="50.603579208254814" lon="13.431926826015115">
        <ele>641</ele>
        <time>2026-08-29T16:01:03Z</time>
      </trkpt>
      <trkpt lat="50.60355263762176" lon="13.431949708610773">
        <ele>641</ele>
        <time>2026-08-29T16:01:04Z</time>
      </trkpt>
      <trkpt lat="50.603519277647138" lon="13.4319725073874">
        <ele>642</ele>
        <time>2026-08-29T16:01:05Z</time>
      </trkpt>
      <trkpt lat="50.603483319282532" lon="13.431996395811439">
        <ele>642</ele>
        <time>2026-08-29T16:01:06Z</time>
      </trkpt>
      <trkpt lat="50.603451719507575" lon="13.432014835998416">
        <ele>642</ele>
        <time>2026-08-29T16:01:07Z</time>
      </trkpt>
      <trkpt lat="50.60342213138938" lon="13.432031599804759">
        <ele>642</ele>
        <time>2026-08-29T16:01:08Z</time>
      </trkpt>
      <trkpt lat="50.60339774005115" lon="13.432053308933973">
        <ele>642</ele>
        <time>2026-08-29T16:01:09Z</time>
      </trkpt>
      <trkpt lat="50.603371756151319" lon="13.432076945900917">
        <ele>643</ele>
        <time>2026-08-29T16:01:10Z</time>
      </trkpt>
      <trkpt lat="50.603347113355994" lon="13.432101756334305">
        <ele>643</ele>
        <time>2026-08-29T16:01:11Z</time>
      </trkpt>
      <trkpt lat="50.603324146941304" lon="13.432135786861181">
        <ele>643</ele>
        <time>2026-08-29T16:01:12Z</time>
      </trkpt>
      <trkpt lat="50.603299587965012" lon="13.432166464626789">
        <ele>643</ele>
        <time>2026-08-29T16:01:13Z</time>
      </trkpt>
      <trkpt lat="50.603281147778034" lon="13.432197645306587">
        <ele>643</ele>
        <time>2026-08-29T16:01:14Z</time>
      </trkpt>
      <trkpt lat="50.603262791410089" lon="13.432230167090893">
        <ele>643</ele>
        <time>2026-08-29T16:01:15Z</time>
      </trkpt>
      <trkpt lat="50.603239573538303" lon="13.432259755209088">
        <ele>643</ele>
        <time>2026-08-29T16:01:16Z</time>
      </trkpt>
      <trkpt lat="50.603221552446485" lon="13.432299150153995">
        <ele>643</ele>
        <time>2026-08-29T16:01:17Z</time>
      </trkpt>
      <trkpt lat="50.603194059804082" lon="13.432331839576364">
        <ele>643</ele>
        <time>2026-08-29T16:01:18Z</time>
      </trkpt>
      <trkpt lat="50.603175451979041" lon="13.432371150702238">
        <ele>643</ele>
        <time>2026-08-29T16:01:19Z</time>
      </trkpt>
      <trkpt lat="50.603155670687556" lon="13.432402666658163">
        <ele>643</ele>
        <time>2026-08-29T16:01:20Z</time>
      </trkpt>
      <trkpt lat="50.603134045377374" lon="13.432437032461166">
        <ele>643</ele>
        <time>2026-08-29T16:01:21Z</time>
      </trkpt>
      <trkpt lat="50.603117030113935" lon="13.43247827142477">
        <ele>643</ele>
        <time>2026-08-29T16:01:22Z</time>
      </trkpt>
      <trkpt lat="50.603096326813102" lon="13.432513559237123">
        <ele>643</ele>
        <time>2026-08-29T16:01:23Z</time>
      </trkpt>
      <trkpt lat="50.603077551349998" lon="13.432552786543965">
        <ele>644</ele>
        <time>2026-08-29T16:01:24Z</time>
      </trkpt>
      <trkpt lat="50.603060703724623" lon="13.432589247822762">
        <ele>644</ele>
        <time>2026-08-29T16:01:25Z</time>
      </trkpt>
      <trkpt lat="50.603041928261518" lon="13.432623194530606">
        <ele>644</ele>
        <time>2026-08-29T16:01:26Z</time>
      </trkpt>
      <trkpt lat="50.603029858320951" lon="13.432671139016747">
        <ele>644</ele>
        <time>2026-08-29T16:01:27Z</time>
      </trkpt>
      <trkpt lat="50.603018458932638" lon="13.432706343010068">
        <ele>644</ele>
        <time>2026-08-29T16:01:28Z</time>
      </trkpt>
      <trkpt lat="50.603002114221454" lon="13.432744648307562">
        <ele>644</ele>
        <time>2026-08-29T16:01:29Z</time>
      </trkpt>
      <trkpt lat="50.602982752025127" lon="13.432777253910899">
        <ele>644</ele>
        <time>2026-08-29T16:01:30Z</time>
      </trkpt>
      <trkpt lat="50.602964982390404" lon="13.432806842029095">
        <ele>644</ele>
        <time>2026-08-29T16:01:31Z</time>
      </trkpt>
      <trkpt lat="50.602951152250171" lon="13.432850511744618">
        <ele>644</ele>
        <time>2026-08-29T16:01:32Z</time>
      </trkpt>
      <trkpt lat="50.602939249947667" lon="13.432888397946954">
        <ele>644</ele>
        <time>2026-08-29T16:01:33Z</time>
      </trkpt>
      <trkpt lat="50.602921899408102" lon="13.432932486757636">
        <ele>644</ele>
        <time>2026-08-29T16:01:34Z</time>
      </trkpt>
      <trkpt lat="50.602902956306934" lon="13.432982107624412">
        <ele>644</ele>
        <time>2026-08-29T16:01:35Z</time>
      </trkpt>
      <trkpt lat="50.602888707071543" lon="13.433030974119902">
        <ele>645</ele>
        <time>2026-08-29T16:01:36Z</time>
      </trkpt>
      <trkpt lat="50.60286900959909" lon="13.433078164234757">
        <ele>644</ele>
        <time>2026-08-29T16:01:37Z</time>
      </trkpt>
      <trkpt lat="50.602856688201427" lon="13.433122420683503">
        <ele>644</ele>
        <time>2026-08-29T16:01:38Z</time>
      </trkpt>
      <trkpt lat="50.602843528613448" lon="13.433164749294519">
        <ele>644</ele>
        <time>2026-08-29T16:01:39Z</time>
      </trkpt>
      <trkpt lat="50.602840511128306" lon="13.433203725144267">
        <ele>645</ele>
        <time>2026-08-29T16:01:40Z</time>
      </trkpt>
      <trkpt lat="50.602826429530978" lon="13.433253094553947">
        <ele>645</ele>
        <time>2026-08-29T16:01:41Z</time>
      </trkpt>
      <trkpt lat="50.60281720943749" lon="13.433299614116549">
        <ele>645</ele>
        <time>2026-08-29T16:01:42Z</time>
      </trkpt>
      <trkpt lat="50.602802122011781" lon="13.433344708755612">
        <ele>645</ele>
        <time>2026-08-29T16:01:43Z</time>
      </trkpt>
      <trkpt lat="50.602799439802766" lon="13.433396592736244">
        <ele>646</ele>
        <time>2026-08-29T16:01:44Z</time>
      </trkpt>
      <trkpt lat="50.60279524885118" lon="13.433451158925891">
        <ele>646</ele>
        <time>2026-08-29T16:01:45Z</time>
      </trkpt>
      <trkpt lat="50.602788794785738" lon="13.433500109240413">
        <ele>646</ele>
        <time>2026-08-29T16:01:46Z</time>
      </trkpt>
      <trkpt lat="50.602784268558025" lon="13.433552579954267">
        <ele>646</ele>
        <time>2026-08-29T16:01:47Z</time>
      </trkpt>
      <trkpt lat="50.602785442024469" lon="13.433600608259439">
        <ele>646</ele>
        <time>2026-08-29T16:01:48Z</time>
      </trkpt>
      <trkpt lat="50.602780161425471" lon="13.433656180277467">
        <ele>646</ele>
        <time>2026-08-29T16:01:49Z</time>
      </trkpt>
      <trkpt lat="50.602771025151014" lon="13.43369984999299">
        <ele>646</ele>
        <time>2026-08-29T16:01:50Z</time>
      </trkpt>
      <trkpt lat="50.602761721238494" lon="13.433741759508848">
        <ele>647</ele>
        <time>2026-08-29T16:01:51Z</time>
      </trkpt>
      <trkpt lat="50.602747136726975" lon="13.433789033442736">
        <ele>647</ele>
        <time>2026-08-29T16:01:52Z</time>
      </trkpt>
      <trkpt lat="50.602739844471216" lon="13.433841336518526">
        <ele>647</ele>
        <time>2026-08-29T16:01:53Z</time>
      </trkpt>
      <trkpt lat="50.602723080664873" lon="13.433887604624033">
        <ele>647</ele>
        <time>2026-08-29T16:01:54Z</time>
      </trkpt>
      <trkpt lat="50.602710088714957" lon="13.433930855244398">
        <ele>647</ele>
        <time>2026-08-29T16:01:55Z</time>
      </trkpt>
      <trkpt lat="50.602696174755692" lon="13.433981062844396">
        <ele>647</ele>
        <time>2026-08-29T16:01:56Z</time>
      </trkpt>
      <trkpt lat="50.602683769538999" lon="13.434022972360253">
        <ele>647</ele>
        <time>2026-08-29T16:01:57Z</time>
      </trkpt>
      <trkpt lat="50.602672034874558" lon="13.434072677046061">
        <ele>647</ele>
        <time>2026-08-29T16:01:58Z</time>
      </trkpt>
      <trkpt lat="50.602665077894926" lon="13.434122884646058">
        <ele>647</ele>
        <time>2026-08-29T16:01:59Z</time>
      </trkpt>
      <trkpt lat="50.60265988111496" lon="13.434168063104153">
        <ele>647</ele>
        <time>2026-08-29T16:02:00Z</time>
      </trkpt>
      <trkpt lat="50.602650661021471" lon="13.434209888800979">
        <ele>647</ele>
        <time>2026-08-29T16:02:01Z</time>
      </trkpt>
      <trkpt lat="50.602635741233826" lon="13.434258755296469">
        <ele>647</ele>
        <time>2026-08-29T16:02:02Z</time>
      </trkpt>
      <trkpt lat="50.60262082144618" lon="13.434307705610991">
        <ele>648</ele>
        <time>2026-08-29T16:02:03Z</time>
      </trkpt>
      <trkpt lat="50.602604560554028" lon="13.434360511600971">
        <ele>648</ele>
        <time>2026-08-29T16:02:04Z</time>
      </trkpt>
      <trkpt lat="50.602587377652526" lon="13.434406444430351">
        <ele>647</ele>
        <time>2026-08-29T16:02:05Z</time>
      </trkpt>
      <trkpt lat="50.602570278570056" lon="13.434460507705808">
        <ele>648</ele>
        <time>2026-08-29T16:02:06Z</time>
      </trkpt>
      <trkpt lat="50.602552257478237" lon="13.434515660628676">
        <ele>648</ele>
        <time>2026-08-29T16:02:07Z</time>
      </trkpt>
      <trkpt lat="50.602530129253864" lon="13.434560922905803">
        <ele>648</ele>
        <time>2026-08-29T16:02:08Z</time>
      </trkpt>
      <trkpt lat="50.60250204987824" lon="13.43460132367909">
        <ele>648</ele>
        <time>2026-08-29T16:02:09Z</time>
      </trkpt>
      <trkpt lat="50.602478077635169" lon="13.434640048071742">
        <ele>648</ele>
        <time>2026-08-29T16:02:10Z</time>
      </trkpt>
      <trkpt lat="50.602453518658876" lon="13.434675838798285">
        <ele>648</ele>
        <time>2026-08-29T16:02:11Z</time>
      </trkpt>
      <trkpt lat="50.602423092350364" lon="13.434727722778916">
        <ele>648</ele>
        <time>2026-08-29T16:02:12Z</time>
      </trkpt>
      <trkpt lat="50.602388642728329" lon="13.434769129380584">
        <ele>649</ele>
        <time>2026-08-29T16:02:13Z</time>
      </trkpt>
      <trkpt lat="50.602363077923656" lon="13.434809194877744">
        <ele>649</ele>
        <time>2026-08-29T16:02:14Z</time>
      </trkpt>
      <trkpt lat="50.602342039346695" lon="13.434844063594937">
        <ele>650</ele>
        <time>2026-08-29T16:02:15Z</time>
      </trkpt>
      <trkpt lat="50.602312451228499" lon="13.434884380549192">
        <ele>650</ele>
        <time>2026-08-29T16:02:16Z</time>
      </trkpt>
      <trkpt lat="50.602277917787433" lon="13.434919668361545">
        <ele>650</ele>
        <time>2026-08-29T16:02:17Z</time>
      </trkpt>
      <trkpt lat="50.602241037413478" lon="13.43495269306004">
        <ele>651</ele>
        <time>2026-08-29T16:02:18Z</time>
      </trkpt>
      <trkpt lat="50.602211197838187" lon="13.434988735243678">
        <ele>650</ele>
        <time>2026-08-29T16:02:19Z</time>
      </trkpt>
      <trkpt lat="50.60217808932066" lon="13.435016730800271">
        <ele>651</ele>
        <time>2026-08-29T16:02:20Z</time>
      </trkpt>
      <trkpt lat="50.6021414604038" lon="13.435050090774894">
        <ele>651</ele>
        <time>2026-08-29T16:02:21Z</time>
      </trkpt>
      <trkpt lat="50.602107094600797" lon="13.435078924521804">
        <ele>652</ele>
        <time>2026-08-29T16:02:22Z</time>
      </trkpt>
      <trkpt lat="50.602073399350047" lon="13.43510415405035">
        <ele>652</ele>
        <time>2026-08-29T16:02:23Z</time>
      </trkpt>
      <trkpt lat="50.60204322449863" lon="13.435128377750516">
        <ele>652</ele>
        <time>2026-08-29T16:02:24Z</time>
      </trkpt>
      <trkpt lat="50.60201589949429" lon="13.435154194012284">
        <ele>652</ele>
        <time>2026-08-29T16:02:25Z</time>
      </trkpt>
      <trkpt lat="50.601990250870585" lon="13.435174729675055">
        <ele>652</ele>
        <time>2026-08-29T16:02:26Z</time>
      </trkpt>
      <trkpt lat="50.601959656924009" lon="13.435186548158526">
        <ele>652</ele>
        <time>2026-08-29T16:02:27Z</time>
      </trkpt>
      <trkpt lat="50.601926799863577" lon="13.435199372470379">
        <ele>652</ele>
        <time>2026-08-29T16:02:28Z</time>
      </trkpt>
      <trkpt lat="50.601891847327352" lon="13.435209514573216">
        <ele>652</ele>
        <time>2026-08-29T16:02:29Z</time>
      </trkpt>
      <trkpt lat="50.601854966953397" lon="13.435214292258024">
        <ele>652</ele>
        <time>2026-08-29T16:02:30Z</time>
      </trkpt>
      <trkpt lat="50.601821271702647" lon="13.435217225924134">
        <ele>652</ele>
        <time>2026-08-29T16:02:31Z</time>
      </trkpt>
      <trkpt lat="50.601785313338041" lon="13.43521798029542">
        <ele>652</ele>
        <time>2026-08-29T16:02:32Z</time>
      </trkpt>
      <trkpt lat="50.601750444620848" lon="13.435217393562198">
        <ele>651</ele>
        <time>2026-08-29T16:02:33Z</time>
      </trkpt>
      <trkpt lat="50.601720856502652" lon="13.435225440189242">
        <ele>652</ele>
        <time>2026-08-29T16:02:34Z</time>
      </trkpt>
      <trkpt lat="50.601690514013171" lon="13.435233486816287">
        <ele>652</ele>
        <time>2026-08-29T16:02:35Z</time>
      </trkpt>
      <trkpt lat="50.601654974743724" lon="13.435238348320127">
        <ele>652</ele>
        <time>2026-08-29T16:02:36Z</time>
      </trkpt>
      <trkpt lat="50.601625051349401" lon="13.435246227309108">
        <ele>652</ele>
        <time>2026-08-29T16:02:37Z</time>
      </trkpt>
      <trkpt lat="50.601594792678952" lon="13.435261063277721">
        <ele>653</ele>
        <time>2026-08-29T16:02:38Z</time>
      </trkpt>
      <trkpt lat="50.601562019437551" lon="13.43527615070343">
        <ele>653</ele>
        <time>2026-08-29T16:02:39Z</time>
      </trkpt>
      <trkpt lat="50.601531090214849" lon="13.435300290584564">
        <ele>653</ele>
        <time>2026-08-29T16:02:40Z</time>
      </trkpt>
      <trkpt lat="50.601501083001494" lon="13.435335662215948">
        <ele>653</ele>
        <time>2026-08-29T16:02:41Z</time>
      </trkpt>
      <trkpt lat="50.601473841816187" lon="13.435351923108101">
        <ele>653</ele>
        <time>2026-08-29T16:02:42Z</time>
      </trkpt>
      <trkpt lat="50.601448528468609" lon="13.435375224798918">
        <ele>653</ele>
        <time>2026-08-29T16:02:43Z</time>
      </trkpt>
      <trkpt lat="50.601426148787141" lon="13.435395928099751">
        <ele>654</ele>
        <time>2026-08-29T16:02:44Z</time>
      </trkpt>
      <trkpt lat="50.601403350010514" lon="13.435418643057346">
        <ele>654</ele>
        <time>2026-08-29T16:02:45Z</time>
      </trkpt>
      <trkpt lat="50.601381808519363" lon="13.435437250882387">
        <ele>654</ele>
        <time>2026-08-29T16:02:46Z</time>
      </trkpt>
      <trkpt lat="50.601356578990817" lon="13.43546180985868">
        <ele>654</ele>
        <time>2026-08-29T16:02:47Z</time>
      </trkpt>
      <trkpt lat="50.601333193480968" lon="13.435484273359179">
        <ele>655</ele>
        <time>2026-08-29T16:02:48Z</time>
      </trkpt>
      <trkpt lat="50.601305617019534" lon="13.435502797365189">
        <ele>655</ele>
        <time>2026-08-29T16:02:49Z</time>
      </trkpt>
      <trkpt lat="50.601283069700003" lon="13.435533391311765">
        <ele>655</ele>
        <time>2026-08-29T16:02:50Z</time>
      </trkpt>
      <trkpt lat="50.601258929818869" lon="13.435564069077373">
        <ele>655</ele>
        <time>2026-08-29T16:02:51Z</time>
      </trkpt>
      <trkpt lat="50.601231856271625" lon="13.435585526749492">
        <ele>655</ele>
        <time>2026-08-29T16:02:52Z</time>
      </trkpt>
      <trkpt lat="50.601210650056601" lon="13.435609750449657">
        <ele>656</ele>
        <time>2026-08-29T16:02:53Z</time>
      </trkpt>
      <trkpt lat="50.601188857108355" lon="13.435636572539806">
        <ele>656</ele>
        <time>2026-08-29T16:02:54Z</time>
      </trkpt>
      <trkpt lat="50.601168237626553" lon="13.435661634430289">
        <ele>656</ele>
        <time>2026-08-29T16:02:55Z</time>
      </trkpt>
      <trkpt lat="50.601148037239909" lon="13.435683930292726">
        <ele>657</ele>
        <time>2026-08-29T16:02:56Z</time>
      </trkpt>
      <trkpt lat="50.601125909015536" lon="13.435711339116096">
        <ele>657</ele>
        <time>2026-08-29T16:02:57Z</time>
      </trkpt>
      <trkpt lat="50.601104870438576" lon="13.435738245025277">
        <ele>657</ele>
        <time>2026-08-29T16:02:58Z</time>
      </trkpt>
      <trkpt lat="50.601082909852266" lon="13.435765402391553">
        <ele>657</ele>
        <time>2026-08-29T16:02:59Z</time>
      </trkpt>
      <trkpt lat="50.601059691980481" lon="13.435781747102737">
        <ele>657</ele>
        <time>2026-08-29T16:03:00Z</time>
      </trkpt>
      <trkpt lat="50.60104301199317" lon="13.435800187289715">
        <ele>657</ele>
        <time>2026-08-29T16:03:01Z</time>
      </trkpt>
      <trkpt lat="50.601017698645592" lon="13.43582097440958">
        <ele>657</ele>
        <time>2026-08-29T16:03:02Z</time>
      </trkpt>
      <trkpt lat="50.600994396954775" lon="13.435845868662">
        <ele>657</ele>
        <time>2026-08-29T16:03:03Z</time>
      </trkpt>
      <trkpt lat="50.600972101092339" lon="13.435868080705404">
        <ele>657</ele>
        <time>2026-08-29T16:03:04Z</time>
      </trkpt>
      <trkpt lat="50.600948967039585" lon="13.435884425416589">
        <ele>657</ele>
        <time>2026-08-29T16:03:05Z</time>
      </trkpt>
      <trkpt lat="50.600931867957115" lon="13.435905631631613">
        <ele>657</ele>
        <time>2026-08-29T16:03:06Z</time>
      </trkpt>
      <trkpt lat="50.600910829380155" lon="13.435926837846637">
        <ele>657</ele>
        <time>2026-08-29T16:03:07Z</time>
      </trkpt>
      <trkpt lat="50.600895071402192" lon="13.435954330489039">
        <ele>658</ele>
        <time>2026-08-29T16:03:08Z</time>
      </trkpt>
      <trkpt lat="50.600882330909371" lon="13.435983248054981">
        <ele>658</ele>
        <time>2026-08-29T16:03:09Z</time>
      </trkpt>
      <trkpt lat="50.600864645093679" lon="13.43601199798286">
        <ele>658</ele>
        <time>2026-08-29T16:03:10Z</time>
      </trkpt>
      <trkpt lat="50.600843857973814" lon="13.43603789806366">
        <ele>659</ele>
        <time>2026-08-29T16:03:11Z</time>
      </trkpt>
      <trkpt lat="50.6008255854249" lon="13.436056589707732">
        <ele>659</ele>
        <time>2026-08-29T16:03:12Z</time>
      </trkpt>
      <trkpt lat="50.600806390866637" lon="13.436083663254976">
        <ele>659</ele>
        <time>2026-08-29T16:03:13Z</time>
      </trkpt>
      <trkpt lat="50.600787028670311" lon="13.436106964945793">
        <ele>659</ele>
        <time>2026-08-29T16:03:14Z</time>
      </trkpt>
      <trkpt lat="50.600773198530078" lon="13.436133367940784">
        <ele>660</ele>
        <time>2026-08-29T16:03:15Z</time>
      </trkpt>
      <trkpt lat="50.600761547684669" lon="13.436157675459981">
        <ele>660</ele>
        <time>2026-08-29T16:03:16Z</time>
      </trkpt>
      <trkpt lat="50.600743610411882" lon="13.43617812730372">
        <ele>661</ele>
        <time>2026-08-29T16:03:17Z</time>
      </trkpt>
      <trkpt lat="50.600731372833252" lon="13.436188604682684">
        <ele>661</ele>
        <time>2026-08-29T16:03:18Z</time>
      </trkpt>
      <trkpt lat="50.60072441585362" lon="13.436209810897708">
        <ele>661</ele>
        <time>2026-08-29T16:03:19Z</time>
      </trkpt>
      <trkpt lat="50.600713770836592" lon="13.436225233599544">
        <ele>661</ele>
        <time>2026-08-29T16:03:20Z</time>
      </trkpt>
      <trkpt lat="50.600697761401534" lon="13.436240572482347">
        <ele>661</ele>
        <time>2026-08-29T16:03:21Z</time>
      </trkpt>
      <trkpt lat="50.600677812471986" lon="13.436262449249625">
        <ele>661</ele>
        <time>2026-08-29T16:03:22Z</time>
      </trkpt>
      <trkpt lat="50.600662222132087" lon="13.436285415664315">
        <ele>662</ele>
        <time>2026-08-29T16:03:23Z</time>
      </trkpt>
      <trkpt lat="50.600639674812555" lon="13.43631056137383">
        <ele>662</ele>
        <time>2026-08-29T16:03:24Z</time>
      </trkpt>
      <trkpt lat="50.600617630407214" lon="13.436330007389188">
        <ele>661</ele>
        <time>2026-08-29T16:03:25Z</time>
      </trkpt>
      <trkpt lat="50.600598519667983" lon="13.436356326565146">
        <ele>662</ele>
        <time>2026-08-29T16:03:26Z</time>
      </trkpt>
      <trkpt lat="50.600579911842942" lon="13.436374934390187">
        <ele>662</ele>
        <time>2026-08-29T16:03:27Z</time>
      </trkpt>
      <trkpt lat="50.600562561303377" lon="13.43639119528234">
        <ele>662</ele>
        <time>2026-08-29T16:03:28Z</time>
      </trkpt>
      <trkpt lat="50.600542612373829" lon="13.43641173094511">
        <ele>662</ele>
        <time>2026-08-29T16:03:29Z</time>
      </trkpt>
      <trkpt lat="50.60052459128201" lon="13.436436206102371">
        <ele>662</ele>
        <time>2026-08-29T16:03:30Z</time>
      </trkpt>
      <trkpt lat="50.600506151095033" lon="13.436461016535759">
        <ele>662</ele>
        <time>2026-08-29T16:03:31Z</time>
      </trkpt>
      <trkpt lat="50.600490812212229" lon="13.436483982950449">
        <ele>662</ele>
        <time>2026-08-29T16:03:32Z</time>
      </trkpt>
      <trkpt lat="50.600476898252964" lon="13.436515163630247">
        <ele>662</ele>
        <time>2026-08-29T16:03:33Z</time>
      </trkpt>
      <trkpt lat="50.600458793342113" lon="13.436538884416223">
        <ele>662</ele>
        <time>2026-08-29T16:03:34Z</time>
      </trkpt>
      <trkpt lat="50.600437922403216" lon="13.436563946306705">
        <ele>663</ele>
        <time>2026-08-29T16:03:35Z</time>
      </trkpt>
      <trkpt lat="50.600421912968159" lon="13.436591858044267">
        <ele>663</ele>
        <time>2026-08-29T16:03:36Z</time>
      </trkpt>
      <trkpt lat="50.600406071171165" lon="13.43662572093308">
        <ele>663</ele>
        <time>2026-08-29T16:03:37Z</time>
      </trkpt>
      <trkpt lat="50.600390899926424" lon="13.436649022623897">
        <ele>663</ele>
        <time>2026-08-29T16:03:38Z</time>
      </trkpt>
      <trkpt lat="50.6003731302917" lon="13.436675844714046">
        <ele>664</ele>
        <time>2026-08-29T16:03:39Z</time>
      </trkpt>
      <trkpt lat="50.600356617942452" lon="13.436699565500021">
        <ele>664</ele>
        <time>2026-08-29T16:03:40Z</time>
      </trkpt>
      <trkpt lat="50.600338177755475" lon="13.436727141961455">
        <ele>663</ele>
        <time>2026-08-29T16:03:41Z</time>
      </trkpt>
      <trkpt lat="50.600324850529432" lon="13.436754131689668">
        <ele>664</ele>
        <time>2026-08-29T16:03:42Z</time>
      </trkpt>
      <trkpt lat="50.600312277674675" lon="13.436785144731402">
        <ele>664</ele>
        <time>2026-08-29T16:03:43Z</time>
      </trkpt>
      <trkpt lat="50.600301381200552" lon="13.436815738677979">
        <ele>664</ele>
        <time>2026-08-29T16:03:44Z</time>
      </trkpt>
      <trkpt lat="50.600286461412907" lon="13.436848428100348">
        <ele>664</ele>
        <time>2026-08-29T16:03:45Z</time>
      </trkpt>
      <trkpt lat="50.600273972377181" lon="13.436876507475972">
        <ele>664</ele>
        <time>2026-08-29T16:03:46Z</time>
      </trkpt>
      <trkpt lat="50.600261315703392" lon="13.436899557709694">
        <ele>664</ele>
        <time>2026-08-29T16:03:47Z</time>
      </trkpt>
      <trkpt lat="50.600250838324428" lon="13.436930570751429">
        <ele>665</ele>
        <time>2026-08-29T16:03:48Z</time>
      </trkpt>
      <trkpt lat="50.600238349288702" lon="13.4369614161551">
        <ele>665</ele>
        <time>2026-08-29T16:03:49Z</time>
      </trkpt>
      <trkpt lat="50.600224770605564" lon="13.436985807493329">
        <ele>665</ele>
        <time>2026-08-29T16:03:50Z</time>
      </trkpt>
      <trkpt lat="50.60020892880857" lon="13.437010701745749">
        <ele>666</ele>
        <time>2026-08-29T16:03:51Z</time>
      </trkpt>
      <trkpt lat="50.600191242992878" lon="13.437029980123043">
        <ele>665</ele>
        <time>2026-08-29T16:03:52Z</time>
      </trkpt>
      <trkpt lat="50.600179256871343" lon="13.437055042013526">
        <ele>666</ele>
        <time>2026-08-29T16:03:53Z</time>
      </trkpt>
      <trkpt lat="50.600169617682695" lon="13.437078930437565">
        <ele>666</ele>
        <time>2026-08-29T16:03:54Z</time>
      </trkpt>
      <trkpt lat="50.600159140303731" lon="13.43710851855576">
        <ele>666</ele>
        <time>2026-08-29T16:03:55Z</time>
      </trkpt>
      <trkpt lat="50.600143801420927" lon="13.437131401151419">
        <ele>666</ele>
        <time>2026-08-29T16:03:56Z</time>
      </trkpt>
      <trkpt lat="50.600130558013916" lon="13.437154032289982">
        <ele>667</ele>
        <time>2026-08-29T16:03:57Z</time>
      </trkpt>
      <trkpt lat="50.600119829177856" lon="13.437177333980799">
        <ele>667</ele>
        <time>2026-08-29T16:03:58Z</time>
      </trkpt>
      <trkpt lat="50.600111028179526" lon="13.437195690348744">
        <ele>667</ele>
        <time>2026-08-29T16:03:59Z</time>
      </trkpt>
      <trkpt lat="50.600099880248308" lon="13.437223937362432">
        <ele>667</ele>
        <time>2026-08-29T16:04:00Z</time>
      </trkpt>
      <trkpt lat="50.600090827792883" lon="13.437253190204501">
        <ele>667</ele>
        <time>2026-08-29T16:04:01Z</time>
      </trkpt>
      <trkpt lat="50.600087475031614" lon="13.437282526865602">
        <ele>667</ele>
        <time>2026-08-29T16:04:02Z</time>
      </trkpt>
      <trkpt lat="50.600076243281364" lon="13.437309181317687">
        <ele>668</ele>
        <time>2026-08-29T16:04:03Z</time>
      </trkpt>
      <trkpt lat="50.600063670426607" lon="13.43733374029398">
        <ele>668</ele>
        <time>2026-08-29T16:04:04Z</time>
      </trkpt>
      <trkpt lat="50.600047493353486" lon="13.43735771253705">
        <ele>668</ele>
        <time>2026-08-29T16:04:05Z</time>
      </trkpt>
      <trkpt lat="50.600038021802902" lon="13.437388390302658">
        <ele>668</ele>
        <time>2026-08-29T16:04:06Z</time>
      </trkpt>
      <trkpt lat="50.600026622414589" lon="13.43741538003087">
        <ele>669</ele>
        <time>2026-08-29T16:04:07Z</time>
      </trkpt>
      <trkpt lat="50.600008349865675" lon="13.43744270503521">
        <ele>669</ele>
        <time>2026-08-29T16:04:08Z</time>
      </trkpt>
      <trkpt lat="50.599997872486711" lon="13.437464665621519">
        <ele>669</ele>
        <time>2026-08-29T16:04:09Z</time>
      </trkpt>
      <trkpt lat="50.599985970184207" lon="13.437479669228196">
        <ele>670</ele>
        <time>2026-08-29T16:04:10Z</time>
      </trkpt>
      <trkpt lat="50.599977420642972" lon="13.437510011717677">
        <ele>670</ele>
        <time>2026-08-29T16:04:11Z</time>
      </trkpt>
      <trkpt lat="50.599964428693056" lon="13.43753213994205">
        <ele>670</ele>
        <time>2026-08-29T16:04:12Z</time>
      </trkpt>
      <trkpt lat="50.599949592724442" lon="13.437557788565755">
        <ele>671</ele>
        <time>2026-08-29T16:04:13Z</time>
      </trkpt>
      <trkpt lat="50.599937690421939" lon="13.437584945932031">
        <ele>671</ele>
        <time>2026-08-29T16:04:14Z</time>
      </trkpt>
      <trkpt lat="50.599926374852657" lon="13.437616545706987">
        <ele>671</ele>
        <time>2026-08-29T16:04:15Z</time>
      </trkpt>
      <trkpt lat="50.599913634359837" lon="13.437651079148054">
        <ele>672</ele>
        <time>2026-08-29T16:04:16Z</time>
      </trkpt>
      <trkpt lat="50.599897624924779" lon="13.437678571790457">
        <ele>672</ele>
        <time>2026-08-29T16:04:17Z</time>
      </trkpt>
      <trkpt lat="50.59988203458488" lon="13.437700951471925">
        <ele>672</ele>
        <time>2026-08-29T16:04:18Z</time>
      </trkpt>
      <trkpt lat="50.599869377911091" lon="13.437725594267249">
        <ele>672</ele>
        <time>2026-08-29T16:04:19Z</time>
      </trkpt>
      <trkpt lat="50.599858816713095" lon="13.437749231234193">
        <ele>673</ele>
        <time>2026-08-29T16:04:20Z</time>
      </trkpt>
      <trkpt lat="50.599843310192227" lon="13.437772616744041">
        <ele>673</ele>
        <time>2026-08-29T16:04:21Z</time>
      </trkpt>
      <trkpt lat="50.599829731509089" lon="13.437792900949717">
        <ele>673</ele>
        <time>2026-08-29T16:04:22Z</time>
      </trkpt>
      <trkpt lat="50.599818835034966" lon="13.437822740525007">
        <ele>674</ele>
        <time>2026-08-29T16:04:23Z</time>
      </trkpt>
      <trkpt lat="50.59980534017086" lon="13.437847550958395">
        <ele>674</ele>
        <time>2026-08-29T16:04:24Z</time>
      </trkpt>
      <trkpt lat="50.599792180582881" lon="13.437872277572751">
        <ele>674</ele>
        <time>2026-08-29T16:04:25Z</time>
      </trkpt>
      <trkpt lat="50.599778769537807" lon="13.437893399968743">
        <ele>675</ele>
        <time>2026-08-29T16:04:26Z</time>
      </trkpt>
      <trkpt lat="50.59976426884532" lon="13.43791720457375">
        <ele>675</ele>
        <time>2026-08-29T16:04:27Z</time>
      </trkpt>
      <trkpt lat="50.599751528352499" lon="13.437944864854217">
        <ele>675</ele>
        <time>2026-08-29T16:04:28Z</time>
      </trkpt>
      <trkpt lat="50.599741637706757" lon="13.437967328354716">
        <ele>675</ele>
        <time>2026-08-29T16:04:29Z</time>
      </trkpt>
      <trkpt lat="50.599728226661682" lon="13.437990713864565">
        <ele>676</ele>
        <time>2026-08-29T16:04:30Z</time>
      </trkpt>
      <trkpt lat="50.599713139235973" lon="13.438006304204464">
        <ele>676</ele>
        <time>2026-08-29T16:04:31Z</time>
      </trkpt>
      <trkpt lat="50.599700147286057" lon="13.438030863180757">
        <ele>676</ele>
        <time>2026-08-29T16:04:32Z</time>
      </trkpt>
      <trkpt lat="50.599679946899414" lon="13.43804326839745">
        <ele>676</ele>
        <time>2026-08-29T16:04:33Z</time>
      </trkpt>
      <trkpt lat="50.599668379873037" lon="13.438063552603126">
        <ele>676</ele>
        <time>2026-08-29T16:04:34Z</time>
      </trkpt>
      <trkpt lat="50.599651196971536" lon="13.438083166256547">
        <ele>676</ele>
        <time>2026-08-29T16:04:35Z</time>
      </trkpt>
      <trkpt lat="50.599635019898415" lon="13.438105545938015">
        <ele>676</ele>
        <time>2026-08-29T16:04:36Z</time>
      </trkpt>
      <trkpt lat="50.599621189758182" lon="13.438137648627162">
        <ele>676</ele>
        <time>2026-08-29T16:04:37Z</time>
      </trkpt>
      <trkpt lat="50.59960450977087" lon="13.438169164583087">
        <ele>677</ele>
        <time>2026-08-29T16:04:38Z</time>
      </trkpt>
      <trkpt lat="50.599591853097081" lon="13.438188945874572">
        <ele>677</ele>
        <time>2026-08-29T16:04:39Z</time>
      </trkpt>
      <trkpt lat="50.599578442052007" lon="13.438214091584086">
        <ele>677</ele>
        <time>2026-08-29T16:04:40Z</time>
      </trkpt>
      <trkpt lat="50.599567042663693" lon="13.438235046342015">
        <ele>678</ele>
        <time>2026-08-29T16:04:41Z</time>
      </trkpt>
      <trkpt lat="50.599551619961858" lon="13.438257928937674">
        <ele>678</ele>
        <time>2026-08-29T16:04:42Z</time>
      </trkpt>
      <trkpt lat="50.599541058763862" lon="13.438281482085586">
        <ele>678</ele>
        <time>2026-08-29T16:04:43Z</time>
      </trkpt>
      <trkpt lat="50.599524211138487" lon="13.4383031912148">
        <ele>678</ele>
        <time>2026-08-29T16:04:44Z</time>
      </trkpt>
      <trkpt lat="50.599509961903095" lon="13.438322972506285">
        <ele>679</ele>
        <time>2026-08-29T16:04:45Z</time>
      </trkpt>
      <trkpt lat="50.599493030458689" lon="13.438348453491926">
        <ele>679</ele>
        <time>2026-08-29T16:04:46Z</time>
      </trkpt>
      <trkpt lat="50.599480625241995" lon="13.438371839001775">
        <ele>679</ele>
        <time>2026-08-29T16:04:47Z</time>
      </trkpt>
      <trkpt lat="50.599466459825635" lon="13.43839505687356">
        <ele>680</ele>
        <time>2026-08-29T16:04:48Z</time>
      </trkpt>
      <trkpt lat="50.599452378228307" lon="13.438420621678233">
        <ele>680</ele>
        <time>2026-08-29T16:04:49Z</time>
      </trkpt>
      <trkpt lat="50.599442487582564" lon="13.438447527587414">
        <ele>680</ele>
        <time>2026-08-29T16:04:50Z</time>
      </trkpt>
      <trkpt lat="50.5994320102036" lon="13.438465632498264">
        <ele>680</ele>
        <time>2026-08-29T16:04:51Z</time>
      </trkpt>
      <trkpt lat="50.599416419863701" lon="13.438488012179732">
        <ele>680</ele>
        <time>2026-08-29T16:04:52Z</time>
      </trkpt>
      <trkpt lat="50.59939487837255" lon="13.438510224223137">
        <ele>680</ele>
        <time>2026-08-29T16:04:53Z</time>
      </trkpt>
      <trkpt lat="50.599375599995255" lon="13.43853335827589">
        <ele>681</ele>
        <time>2026-08-29T16:04:54Z</time>
      </trkpt>
      <trkpt lat="50.599358333274722" lon="13.438561270013452">
        <ele>681</ele>
        <time>2026-08-29T16:04:55Z</time>
      </trkpt>
      <trkpt lat="50.599340731278062" lon="13.438575686886907">
        <ele>681</ele>
        <time>2026-08-29T16:04:56Z</time>
      </trkpt>
      <trkpt lat="50.599326062947512" lon="13.438597898930311">
        <ele>681</ele>
        <time>2026-08-29T16:04:57Z</time>
      </trkpt>
      <trkpt lat="50.599303934723139" lon="13.438619105145335">
        <ele>682</ele>
        <time>2026-08-29T16:04:58Z</time>
      </trkpt>
      <trkpt lat="50.599286919459701" lon="13.438648106530309">
        <ele>682</ele>
        <time>2026-08-29T16:04:59Z</time>
      </trkpt>
      <trkpt lat="50.599267557263374" lon="13.438676269724965">
        <ele>681</ele>
        <time>2026-08-29T16:05:00Z</time>
      </trkpt>
      <trkpt lat="50.59925121255219" lon="13.438701163977385">
        <ele>681</ele>
        <time>2026-08-29T16:05:01Z</time>
      </trkpt>
      <trkpt lat="50.599238974973559" lon="13.438712814822793">
        <ele>682</ele>
        <time>2026-08-29T16:05:02Z</time>
      </trkpt>
      <trkpt lat="50.599224055185914" lon="13.438727147877216">
        <ele>682</ele>
        <time>2026-08-29T16:05:03Z</time>
      </trkpt>
      <trkpt lat="50.59921164996922" lon="13.438746090978384">
        <ele>682</ele>
        <time>2026-08-29T16:05:04Z</time>
      </trkpt>
      <trkpt lat="50.59919698163867" lon="13.438764112070203">
        <ele>682</ele>
        <time>2026-08-29T16:05:05Z</time>
      </trkpt>
      <trkpt lat="50.599174350500107" lon="13.438787329941988">
        <ele>683</ele>
        <time>2026-08-29T16:05:06Z</time>
      </trkpt>
      <trkpt lat="50.599153647199273" lon="13.438813062384725">
        <ele>683</ele>
        <time>2026-08-29T16:05:07Z</time>
      </trkpt>
      <trkpt lat="50.599132440984249" lon="13.438832089304924">
        <ele>683</ele>
        <time>2026-08-29T16:05:08Z</time>
      </trkpt>
      <trkpt lat="50.599112659692764" lon="13.438844829797745">
        <ele>683</ele>
        <time>2026-08-29T16:05:09Z</time>
      </trkpt>
      <trkpt lat="50.599092878401279" lon="13.438862934708595">
        <ele>683</ele>
        <time>2026-08-29T16:05:10Z</time>
      </trkpt>
      <trkpt lat="50.599069911986589" lon="13.438877938315272">
        <ele>684</ele>
        <time>2026-08-29T16:05:11Z</time>
      </trkpt>
      <trkpt lat="50.599049627780914" lon="13.43889931216836">
        <ele>684</ele>
        <time>2026-08-29T16:05:12Z</time>
      </trkpt>
      <trkpt lat="50.599032612517476" lon="13.438922446221113">
        <ele>684</ele>
        <time>2026-08-29T16:05:13Z</time>
      </trkpt>
      <trkpt lat="50.599008807912469" lon="13.438939545303583">
        <ele>684</ele>
        <time>2026-08-29T16:05:14Z</time>
      </trkpt>
      <trkpt lat="50.598988607525826" lon="13.438957398757339">
        <ele>684</ele>
        <time>2026-08-29T16:05:15Z</time>
      </trkpt>
      <trkpt lat="50.59896974824369" lon="13.438979694619775">
        <ele>684</ele>
        <time>2026-08-29T16:05:16Z</time>
      </trkpt>
      <trkpt lat="50.598949799314141" lon="13.439003247767687">
        <ele>685</ele>
        <time>2026-08-29T16:05:17Z</time>
      </trkpt>
      <trkpt lat="50.598930520936847" lon="13.439025208353996">
        <ele>685</ele>
        <time>2026-08-29T16:05:18Z</time>
      </trkpt>
      <trkpt lat="50.598912248387933" lon="13.43904834240675">
        <ele>685</ele>
        <time>2026-08-29T16:05:19Z</time>
      </trkpt>
      <trkpt lat="50.598894227296114" lon="13.439064351841807">
        <ele>685</ele>
        <time>2026-08-29T16:05:20Z</time>
      </trkpt>
      <trkpt lat="50.598874948918819" lon="13.439085055142641">
        <ele>685</ele>
        <time>2026-08-29T16:05:21Z</time>
      </trkpt>
      <trkpt lat="50.598860112950206" lon="13.439106680452824">
        <ele>686</ele>
        <time>2026-08-29T16:05:22Z</time>
      </trkpt>
      <trkpt lat="50.598847037181258" lon="13.439128557220101">
        <ele>686</ele>
        <time>2026-08-29T16:05:23Z</time>
      </trkpt>
      <trkpt lat="50.598826752975583" lon="13.439146829769015">
        <ele>686</ele>
        <time>2026-08-29T16:05:24Z</time>
      </trkpt>
      <trkpt lat="50.598806049674749" lon="13.439165186136961">
        <ele>686</ele>
        <time>2026-08-29T16:05:25Z</time>
      </trkpt>
      <trkpt lat="50.598790962249041" lon="13.439176836982369">
        <ele>686</ele>
        <time>2026-08-29T16:05:26Z</time>
      </trkpt>
      <trkpt lat="50.598777970299125" lon="13.439196785911918">
        <ele>686</ele>
        <time>2026-08-29T16:05:27Z</time>
      </trkpt>
      <trkpt lat="50.59876162558794" lon="13.439215058460832">
        <ele>686</ele>
        <time>2026-08-29T16:05:28Z</time>
      </trkpt>
      <trkpt lat="50.598744358867407" lon="13.439230732619762">
        <ele>686</ele>
        <time>2026-08-29T16:05:29Z</time>
      </trkpt>
      <trkpt lat="50.598729522898793" lon="13.439244562759995">
        <ele>686</ele>
        <time>2026-08-29T16:05:30Z</time>
      </trkpt>
      <trkpt lat="50.598712339997292" lon="13.439262919127941">
        <ele>687</ele>
        <time>2026-08-29T16:05:31Z</time>
      </trkpt>
      <trkpt lat="50.598697252571583" lon="13.439280185848475">
        <ele>687</ele>
        <time>2026-08-29T16:05:32Z</time>
      </trkpt>
      <trkpt lat="50.598680907860398" lon="13.439294686540961">
        <ele>687</ele>
        <time>2026-08-29T16:05:33Z</time>
      </trkpt>
      <trkpt lat="50.598662132397294" lon="13.439314384013414">
        <ele>687</ele>
        <time>2026-08-29T16:05:34Z</time>
      </trkpt>
      <trkpt lat="50.598646458238363" lon="13.439339529722929">
        <ele>688</ele>
        <time>2026-08-29T16:05:35Z</time>
      </trkpt>
      <trkpt lat="50.598625671118498" lon="13.439360065385699">
        <ele>688</ele>
        <time>2026-08-29T16:05:36Z</time>
      </trkpt>
      <trkpt lat="50.598604716360569" lon="13.439375823363662">
        <ele>688</ele>
        <time>2026-08-29T16:05:37Z</time>
      </trkpt>
      <trkpt lat="50.598585857078433" lon="13.439392587170005">
        <ele>688</ele>
        <time>2026-08-29T16:05:38Z</time>
      </trkpt>
      <trkpt lat="50.598569680005312" lon="13.439409686252475">
        <ele>688</ele>
        <time>2026-08-29T16:05:39Z</time>
      </trkpt>
      <trkpt lat="50.598552580922842" lon="13.439432736486197">
        <ele>689</ele>
        <time>2026-08-29T16:05:40Z</time>
      </trkpt>
      <trkpt lat="50.598534978926182" lon="13.439454613253474">
        <ele>689</ele>
        <time>2026-08-29T16:05:41Z</time>
      </trkpt>
      <trkpt lat="50.598518801853061" lon="13.4394705388695">
        <ele>689</ele>
        <time>2026-08-29T16:05:42Z</time>
      </trkpt>
      <trkpt lat="50.598502121865749" lon="13.439489146694541">
        <ele>689</ele>
        <time>2026-08-29T16:05:43Z</time>
      </trkpt>
      <trkpt lat="50.598483430221677" lon="13.439508927986026">
        <ele>690</ele>
        <time>2026-08-29T16:05:44Z</time>
      </trkpt>
      <trkpt lat="50.598466750234365" lon="13.439530720934272">
        <ele>690</ele>
        <time>2026-08-29T16:05:45Z</time>
      </trkpt>
      <trkpt lat="50.598449483513832" lon="13.439547317102551">
        <ele>690</ele>
        <time>2026-08-29T16:05:46Z</time>
      </trkpt>
      <trkpt lat="50.598433809354901" lon="13.439564416185021">
        <ele>690</ele>
        <time>2026-08-29T16:05:47Z</time>
      </trkpt>
      <trkpt lat="50.59841469861567" lon="13.439586879685521">
        <ele>691</ele>
        <time>2026-08-29T16:05:48Z</time>
      </trkpt>
      <trkpt lat="50.598393743857741" lon="13.439605906605721">
        <ele>691</ele>
        <time>2026-08-29T16:05:49Z</time>
      </trkpt>
      <trkpt lat="50.598378069698811" lon="13.439621077850461">
        <ele>691</ele>
        <time>2026-08-29T16:05:50Z</time>
      </trkpt>
      <trkpt lat="50.598357366397977" lon="13.43963960185647">
        <ele>691</ele>
        <time>2026-08-29T16:05:51Z</time>
      </trkpt>
      <trkpt lat="50.598338088020682" lon="13.43965862877667">
        <ele>691</ele>
        <time>2026-08-29T16:05:52Z</time>
      </trkpt>
      <trkpt lat="50.598321408033371" lon="13.43968209810555">
        <ele>691</ele>
        <time>2026-08-29T16:05:53Z</time>
      </trkpt>
      <trkpt lat="50.598307410255075" lon="13.439702214673162">
        <ele>691</ele>
        <time>2026-08-29T16:05:54Z</time>
      </trkpt>
      <trkpt lat="50.598290730267763" lon="13.439724761992693">
        <ele>691</ele>
        <time>2026-08-29T16:05:55Z</time>
      </trkpt>
      <trkpt lat="50.598273212090135" lon="13.439745297655463">
        <ele>691</ele>
        <time>2026-08-29T16:05:56Z</time>
      </trkpt>
      <trkpt lat="50.598256448283792" lon="13.439770694822073">
        <ele>692</ele>
        <time>2026-08-29T16:05:57Z</time>
      </trkpt>
      <trkpt lat="50.598238091915846" lon="13.439788464456797">
        <ele>692</ele>
        <time>2026-08-29T16:05:58Z</time>
      </trkpt>
      <trkpt lat="50.598220657557249" lon="13.439809251576662">
        <ele>692</ele>
        <time>2026-08-29T16:05:59Z</time>
      </trkpt>
      <trkpt lat="50.598205989226699" lon="13.439833056181669">
        <ele>692</ele>
        <time>2026-08-29T16:06:00Z</time>
      </trkpt>
      <trkpt lat="50.598190231248736" lon="13.439851328730583">
        <ele>692</ele>
        <time>2026-08-29T16:06:01Z</time>
      </trkpt>
      <trkpt lat="50.598173048347235" lon="13.43986239284277">
        <ele>693</ele>
        <time>2026-08-29T16:06:02Z</time>
      </trkpt>
      <trkpt lat="50.598154356703162" lon="13.43988292850554">
        <ele>693</ele>
        <time>2026-08-29T16:06:03Z</time>
      </trkpt>
      <trkpt lat="50.598138850182295" lon="13.439905475825071">
        <ele>693</ele>
        <time>2026-08-29T16:06:04Z</time>
      </trkpt>
      <trkpt lat="50.598123343661427" lon="13.439930370077491">
        <ele>693</ele>
        <time>2026-08-29T16:06:05Z</time>
      </trkpt>
      <trkpt lat="50.59810834005475" lon="13.439949816092849">
        <ele>693</ele>
        <time>2026-08-29T16:06:06Z</time>
      </trkpt>
      <trkpt lat="50.598091660067439" lon="13.43996842391789">
        <ele>693</ele>
        <time>2026-08-29T16:06:07Z</time>
      </trkpt>
      <trkpt lat="50.598078584298491" lon="13.43998845666647">
        <ele>694</ele>
        <time>2026-08-29T16:06:08Z</time>
      </trkpt>
      <trkpt lat="50.598062826320529" lon="13.440005639567971">
        <ele>694</ele>
        <time>2026-08-29T16:06:09Z</time>
      </trkpt>
      <trkpt lat="50.598045140504837" lon="13.440021481364965">
        <ele>694</ele>
        <time>2026-08-29T16:06:10Z</time>
      </trkpt>
      <trkpt lat="50.598031813278794" lon="13.440039418637753">
        <ele>694</ele>
        <time>2026-08-29T16:06:11Z</time>
      </trkpt>
      <trkpt lat="50.598013121634722" lon="13.440055930987">
        <ele>694</ele>
        <time>2026-08-29T16:06:12Z</time>
      </trkpt>
      <trkpt lat="50.5979935079813" lon="13.44007202424109">
        <ele>694</ele>
        <time>2026-08-29T16:06:13Z</time>
      </trkpt>
      <trkpt lat="50.597972050309181" lon="13.44008669257164">
        <ele>694</ele>
        <time>2026-08-29T16:06:14Z</time>
      </trkpt>
      <trkpt lat="50.59795344248414" lon="13.440105635672808">
        <ele>694</ele>
        <time>2026-08-29T16:06:15Z</time>
      </trkpt>
      <trkpt lat="50.597940282896161" lon="13.440118879079819">
        <ele>695</ele>
        <time>2026-08-29T16:06:16Z</time>
      </trkpt>
      <trkpt lat="50.597921758890152" lon="13.440128182992339">
        <ele>695</ele>
        <time>2026-08-29T16:06:17Z</time>
      </trkpt>
      <trkpt lat="50.597902061417699" lon="13.440144611522555">
        <ele>695</ele>
        <time>2026-08-29T16:06:18Z</time>
      </trkpt>
      <trkpt lat="50.597878340631723" lon="13.440156849101186">
        <ele>695</ele>
        <time>2026-08-29T16:06:19Z</time>
      </trkpt>
      <trkpt lat="50.597861157730222" lon="13.44017755240202">
        <ele>695</ele>
        <time>2026-08-29T16:06:20Z</time>
      </trkpt>
      <trkpt lat="50.597850428894162" lon="13.440190376713872">
        <ele>694</ele>
        <time>2026-08-29T16:06:21Z</time>
      </trkpt>
      <trkpt lat="50.597831821069121" lon="13.440205128863454">
        <ele>695</ele>
        <time>2026-08-29T16:06:22Z</time>
      </trkpt>
      <trkpt lat="50.597815392538905" lon="13.440208397805691">
        <ele>694</ele>
        <time>2026-08-29T16:06:23Z</time>
      </trkpt>
      <trkpt lat="50.597801227122545" lon="13.44022398814559">
        <ele>695</ele>
        <time>2026-08-29T16:06:24Z</time>
      </trkpt>
      <trkpt lat="50.597785552963614" lon="13.440245781093836">
        <ele>695</ele>
        <time>2026-08-29T16:06:25Z</time>
      </trkpt>
      <trkpt lat="50.597770130261779" lon="13.440269166603684">
        <ele>695</ele>
        <time>2026-08-29T16:06:26Z</time>
      </trkpt>
      <trkpt lat="50.597752276808023" lon="13.440289366990328">
        <ele>695</ele>
        <time>2026-08-29T16:06:27Z</time>
      </trkpt>
      <trkpt lat="50.597736099734902" lon="13.440299425274134">
        <ele>696</ele>
        <time>2026-08-29T16:06:28Z</time>
      </trkpt>
      <trkpt lat="50.597723191604018" lon="13.440309902653098">
        <ele>696</ele>
        <time>2026-08-29T16:06:29Z</time>
      </trkpt>
      <trkpt lat="50.597710618749261" lon="13.440329767763615">
        <ele>696</ele>
        <time>2026-08-29T16:06:30Z</time>
      </trkpt>
      <trkpt lat="50.597694860771298" lon="13.440348291769624">
        <ele>696</ele>
        <time>2026-08-29T16:06:31Z</time>
      </trkpt>
      <trkpt lat="50.597677091136575" lon="13.440357176586986">
        <ele>696</ele>
        <time>2026-08-29T16:06:32Z</time>
      </trkpt>
      <trkpt lat="50.59766317717731" lon="13.440381903201342">
        <ele>697</ele>
        <time>2026-08-29T16:06:33Z</time>
      </trkpt>
      <trkpt lat="50.597651861608028" lon="13.440394308418036">
        <ele>697</ele>
        <time>2026-08-29T16:06:34Z</time>
      </trkpt>
      <trkpt lat="50.597636019811034" lon="13.440416771918535">
        <ele>697</ele>
        <time>2026-08-29T16:06:35Z</time>
      </trkpt>
      <trkpt lat="50.597620010375977" lon="13.440433787181973">
        <ele>697</ele>
        <time>2026-08-29T16:06:36Z</time>
      </trkpt>
      <trkpt lat="50.597604839131236" lon="13.440450970083475">
        <ele>698</ele>
        <time>2026-08-29T16:06:37Z</time>
      </trkpt>
      <trkpt lat="50.59759235009551" lon="13.440468991175294">
        <ele>698</ele>
        <time>2026-08-29T16:06:38Z</time>
      </trkpt>
      <trkpt lat="50.597581202164292" lon="13.440481144934893">
        <ele>698</ele>
        <time>2026-08-29T16:06:39Z</time>
      </trkpt>
      <trkpt lat="50.597572568804026" lon="13.440496986731887">
        <ele>698</ele>
        <time>2026-08-29T16:06:40Z</time>
      </trkpt>
      <trkpt lat="50.597557565197349" lon="13.440509140491486">
        <ele>699</ele>
        <time>2026-08-29T16:06:41Z</time>
      </trkpt>
      <trkpt lat="50.59754784218967" lon="13.440513331443071">
        <ele>699</ele>
        <time>2026-08-29T16:06:42Z</time>
      </trkpt>
      <trkpt lat="50.597534263506532" lon="13.44053185544908">
        <ele>700</ele>
        <time>2026-08-29T16:06:43Z</time>
      </trkpt>
      <trkpt lat="50.597519176080823" lon="13.44054895453155">
        <ele>700</ele>
        <time>2026-08-29T16:06:44Z</time>
      </trkpt>
      <trkpt lat="50.597501825541258" lon="13.440563203766942">
        <ele>700</ele>
        <time>2026-08-29T16:06:45Z</time>
      </trkpt>
      <trkpt lat="50.597490509971976" lon="13.440584242343903">
        <ele>701</ele>
        <time>2026-08-29T16:06:46Z</time>
      </trkpt>
      <trkpt lat="50.5974789429456" lon="13.440602263435721">
        <ele>701</ele>
        <time>2026-08-29T16:06:47Z</time>
      </trkpt>
      <trkpt lat="50.597468130290508" lon="13.440619530156255">
        <ele>701</ele>
        <time>2026-08-29T16:06:48Z</time>
      </trkpt>
      <trkpt lat="50.597448432818055" lon="13.440637635067105">
        <ele>700</ele>
        <time>2026-08-29T16:06:49Z</time>
      </trkpt>
      <trkpt lat="50.597428567707539" lon="13.44065741635859">
        <ele>701</ele>
        <time>2026-08-29T16:06:50Z</time>
      </trkpt>
      <trkpt lat="50.597410211339593" lon="13.440676610916853">
        <ele>701</ele>
        <time>2026-08-29T16:06:51Z</time>
      </trkpt>
      <trkpt lat="50.597393782809377" lon="13.440698320046067">
        <ele>701</ele>
        <time>2026-08-29T16:06:52Z</time>
      </trkpt>
      <trkpt lat="50.597380539402366" lon="13.440712234005332">
        <ele>701</ele>
        <time>2026-08-29T16:06:53Z</time>
      </trkpt>
      <trkpt lat="50.597369475290179" lon="13.440731428563595">
        <ele>701</ele>
        <time>2026-08-29T16:06:54Z</time>
      </trkpt>
      <trkpt lat="50.597355980426073" lon="13.440743247047067">
        <ele>701</ele>
        <time>2026-08-29T16:06:55Z</time>
      </trkpt>
      <trkpt lat="50.597339970991015" lon="13.440770991146564">
        <ele>701</ele>
        <time>2026-08-29T16:06:56Z</time>
      </trkpt>
      <trkpt lat="50.597328739240766" lon="13.440789682790637">
        <ele>701</ele>
        <time>2026-08-29T16:06:57Z</time>
      </trkpt>
      <trkpt lat="50.597310466691852" lon="13.440809715539217">
        <ele>702</ele>
        <time>2026-08-29T16:06:58Z</time>
      </trkpt>
      <trkpt lat="50.59729035012424" lon="13.440833855420351">
        <ele>702</ele>
        <time>2026-08-29T16:06:59Z</time>
      </trkpt>
      <trkpt lat="50.597274005413055" lon="13.440853301435709">
        <ele>702</ele>
        <time>2026-08-29T16:07:00Z</time>
      </trkpt>
      <trkpt lat="50.597259169444442" lon="13.440878866240382">
        <ele>703</ele>
        <time>2026-08-29T16:07:01Z</time>
      </trkpt>
      <trkpt lat="50.597245171666145" lon="13.44089881516993">
        <ele>703</ele>
        <time>2026-08-29T16:07:02Z</time>
      </trkpt>
      <trkpt lat="50.597231509163976" lon="13.440918596461415">
        <ele>703</ele>
        <time>2026-08-29T16:07:03Z</time>
      </trkpt>
      <trkpt lat="50.597218601033092" lon="13.440947430208325">
        <ele>704</ele>
        <time>2026-08-29T16:07:04Z</time>
      </trkpt>
      <trkpt lat="50.597206950187683" lon="13.440969223156571">
        <ele>704</ele>
        <time>2026-08-29T16:07:05Z</time>
      </trkpt>
      <trkpt lat="50.597188090905547" lon="13.440990597009659">
        <ele>704</ele>
        <time>2026-08-29T16:07:06Z</time>
      </trkpt>
      <trkpt lat="50.597170069813728" lon="13.441017167642713">
        <ele>704</ele>
        <time>2026-08-29T16:07:07Z</time>
      </trkpt>
      <trkpt lat="50.597158838063478" lon="13.441037703305483">
        <ele>704</ele>
        <time>2026-08-29T16:07:08Z</time>
      </trkpt>
      <trkpt lat="50.597146181389689" lon="13.441060502082109">
        <ele>704</ele>
        <time>2026-08-29T16:07:09Z</time>
      </trkpt>
      <trkpt lat="50.597130758687854" lon="13.44108397141099">
        <ele>704</ele>
        <time>2026-08-29T16:07:10Z</time>
      </trkpt>
      <trkpt lat="50.597117599099874" lon="13.441111128777266">
        <ele>704</ele>
        <time>2026-08-29T16:07:11Z</time>
      </trkpt>
      <trkpt lat="50.597105948254466" lon="13.441134430468082">
        <ele>704</ele>
        <time>2026-08-29T16:07:12Z</time>
      </trkpt>
      <trkpt lat="50.597093123942614" lon="13.441157815977931">
        <ele>704</ele>
        <time>2026-08-29T16:07:13Z</time>
      </trkpt>
      <trkpt lat="50.597085328772664" lon="13.441182626411319">
        <ele>705</ele>
        <time>2026-08-29T16:07:14Z</time>
      </trkpt>
      <trkpt lat="50.59706948697567" lon="13.441210370510817">
        <ele>705</ele>
        <time>2026-08-29T16:07:15Z</time>
      </trkpt>
      <trkpt lat="50.597052471712232" lon="13.441234175115824">
        <ele>705</ele>
        <time>2026-08-29T16:07:16Z</time>
      </trkpt>
      <trkpt lat="50.597041072323918" lon="13.441258063539863">
        <ele>705</ele>
        <time>2026-08-29T16:07:17Z</time>
      </trkpt>
      <trkpt lat="50.597028331831098" lon="13.441286059096456">
        <ele>706</ele>
        <time>2026-08-29T16:07:18Z</time>
      </trkpt>
      <trkpt lat="50.597014417871833" lon="13.441308690235019">
        <ele>706</ele>
        <time>2026-08-29T16:07:19Z</time>
      </trkpt>
      <trkpt lat="50.5970005877316" lon="13.441319251433015">
        <ele>706</ele>
        <time>2026-08-29T16:07:20Z</time>
      </trkpt>
      <trkpt lat="50.596989523619413" lon="13.441342553123832">
        <ele>706</ele>
        <time>2026-08-29T16:07:21Z</time>
      </trkpt>
      <trkpt lat="50.596977872774005" lon="13.44136543571949">
        <ele>707</ele>
        <time>2026-08-29T16:07:22Z</time>
      </trkpt>
      <trkpt lat="50.596961947157979" lon="13.441382953897119">
        <ele>707</ele>
        <time>2026-08-29T16:07:23Z</time>
      </trkpt>
      <trkpt lat="50.596947027370334" lon="13.441400555893779">
        <ele>707</ele>
        <time>2026-08-29T16:07:24Z</time>
      </trkpt>
      <trkpt lat="50.596933951601386" lon="13.441420923918486">
        <ele>707</ele>
        <time>2026-08-29T16:07:25Z</time>
      </trkpt>
      <trkpt lat="50.596919031813741" lon="13.441447662189603">
        <ele>707</ele>
        <time>2026-08-29T16:07:26Z</time>
      </trkpt>
      <trkpt lat="50.596909560263157" lon="13.441472807899117">
        <ele>707</ele>
        <time>2026-08-29T16:07:27Z</time>
      </trkpt>
      <trkpt lat="50.596897909417748" lon="13.441495187580585">
        <ele>707</ele>
        <time>2026-08-29T16:07:28Z</time>
      </trkpt>
      <trkpt lat="50.596886677667499" lon="13.441520584747195">
        <ele>707</ele>
        <time>2026-08-29T16:07:29Z</time>
      </trkpt>
      <trkpt lat="50.59687552973628" lon="13.44155210070312">
        <ele>707</ele>
        <time>2026-08-29T16:07:30Z</time>
      </trkpt>
      <trkpt lat="50.596866980195045" lon="13.441579425707459">
        <ele>707</ele>
        <time>2026-08-29T16:07:31Z</time>
      </trkpt>
      <trkpt lat="50.596859268844128" lon="13.441608091816306">
        <ele>707</ele>
        <time>2026-08-29T16:07:32Z</time>
      </trkpt>
      <trkpt lat="50.596850970759988" lon="13.441638015210629">
        <ele>707</ele>
        <time>2026-08-29T16:07:33Z</time>
      </trkpt>
      <trkpt lat="50.596839739009738" lon="13.441662322729826">
        <ele>707</ele>
        <time>2026-08-29T16:07:34Z</time>
      </trkpt>
      <trkpt lat="50.596823645755649" lon="13.441689228639007">
        <ele>708</ele>
        <time>2026-08-29T16:07:35Z</time>
      </trkpt>
      <trkpt lat="50.596814509481192" lon="13.441715715453029">
        <ele>708</ele>
        <time>2026-08-29T16:07:36Z</time>
      </trkpt>
      <trkpt lat="50.596805037930608" lon="13.441749075427651">
        <ele>708</ele>
        <time>2026-08-29T16:07:37Z</time>
      </trkpt>
      <trkpt lat="50.596797578036785" lon="13.441776735708117">
        <ele>708</ele>
        <time>2026-08-29T16:07:38Z</time>
      </trkpt>
      <trkpt lat="50.596787268295884" lon="13.441810263320804">
        <ele>709</ele>
        <time>2026-08-29T16:07:39Z</time>
      </trkpt>
      <trkpt lat="50.596776623278856" lon="13.441834487020969">
        <ele>709</ele>
        <time>2026-08-29T16:07:40Z</time>
      </trkpt>
      <trkpt lat="50.596768911927938" lon="13.441860051825643">
        <ele>709</ele>
        <time>2026-08-29T16:07:41Z</time>
      </trkpt>
      <trkpt lat="50.596759440377355" lon="13.441885616630316">
        <ele>709</ele>
        <time>2026-08-29T16:07:42Z</time>
      </trkpt>
      <trkpt lat="50.596746699884534" lon="13.44191319309175">
        <ele>709</ele>
        <time>2026-08-29T16:07:43Z</time>
      </trkpt>
      <trkpt lat="50.596735300496221" lon="13.441941859200597">
        <ele>709</ele>
        <time>2026-08-29T16:07:44Z</time>
      </trkpt>
      <trkpt lat="50.596727589145303" lon="13.441967172548175">
        <ele>709</ele>
        <time>2026-08-29T16:07:45Z</time>
      </trkpt>
      <trkpt lat="50.596718788146973" lon="13.441993659362197">
        <ele>709</ele>
        <time>2026-08-29T16:07:46Z</time>
      </trkpt>
      <trkpt lat="50.596706718206406" lon="13.442017966881394">
        <ele>710</ele>
        <time>2026-08-29T16:07:47Z</time>
      </trkpt>
      <trkpt lat="50.596693810075521" lon="13.442050823941827">
        <ele>710</ele>
        <time>2026-08-29T16:07:48Z</time>
      </trkpt>
      <trkpt lat="50.596684422343969" lon="13.442078065127134">
        <ele>710</ele>
        <time>2026-08-29T16:07:49Z</time>
      </trkpt>
      <trkpt lat="50.596674364060163" lon="13.442103127017617">
        <ele>710</ele>
        <time>2026-08-29T16:07:50Z</time>
      </trkpt>
      <trkpt lat="50.596665563061833" lon="13.442130032926798">
        <ele>710</ele>
        <time>2026-08-29T16:07:51Z</time>
      </trkpt>
      <trkpt lat="50.596657684072852" lon="13.442161548882723">
        <ele>711</ele>
        <time>2026-08-29T16:07:52Z</time>
      </trkpt>
      <trkpt lat="50.596647290512919" lon="13.442192142829299">
        <ele>711</ele>
        <time>2026-08-29T16:07:53Z</time>
      </trkpt>
      <trkpt lat="50.596631532534957" lon="13.44222592189908">
        <ele>711</ele>
        <time>2026-08-29T16:07:54Z</time>
      </trkpt>
      <trkpt lat="50.596615439280868" lon="13.442262634634972">
        <ele>710</ele>
        <time>2026-08-29T16:07:55Z</time>
      </trkpt>
      <trkpt lat="50.596604458987713" lon="13.442292809486389">
        <ele>711</ele>
        <time>2026-08-29T16:07:56Z</time>
      </trkpt>
      <trkpt lat="50.596594903618097" lon="13.442321475595236">
        <ele>711</ele>
        <time>2026-08-29T16:07:57Z</time>
      </trkpt>
      <trkpt lat="50.59658576734364" lon="13.442358858883381">
        <ele>711</ele>
        <time>2026-08-29T16:07:58Z</time>
      </trkpt>
      <trkpt lat="50.596572691574693" lon="13.442395152524114">
        <ele>711</ele>
        <time>2026-08-29T16:07:59Z</time>
      </trkpt>
      <trkpt lat="50.596565315499902" lon="13.442430691793561">
        <ele>711</ele>
        <time>2026-08-29T16:08:00Z</time>
      </trkpt>
      <trkpt lat="50.59655886143446" lon="13.442462291568518">
        <ele>711</ele>
        <time>2026-08-29T16:08:01Z</time>
      </trkpt>
      <trkpt lat="50.596548048779368" lon="13.442497914656997">
        <ele>711</ele>
        <time>2026-08-29T16:08:02Z</time>
      </trkpt>
      <trkpt lat="50.596538158133626" lon="13.442534962669015">
        <ele>711</ele>
        <time>2026-08-29T16:08:03Z</time>
      </trkpt>
      <trkpt lat="50.59652416035533" lon="13.442571004852653">
        <ele>711</ele>
        <time>2026-08-29T16:08:04Z</time>
      </trkpt>
      <trkpt lat="50.596513180062175" lon="13.442606460303068">
        <ele>712</ele>
        <time>2026-08-29T16:08:05Z</time>
      </trkpt>
      <trkpt lat="50.596502870321274" lon="13.442646190524101">
        <ele>712</ele>
        <time>2026-08-29T16:08:06Z</time>
      </trkpt>
      <trkpt lat="50.596491135656834" lon="13.442679885774851">
        <ele>712</ele>
        <time>2026-08-29T16:08:07Z</time>
      </trkpt>
      <trkpt lat="50.596477389335632" lon="13.442716766148806">
        <ele>712</ele>
        <time>2026-08-29T16:08:08Z</time>
      </trkpt>
      <trkpt lat="50.596460960805416" lon="13.442750796675682">
        <ele>712</ele>
        <time>2026-08-29T16:08:09Z</time>
      </trkpt>
      <trkpt lat="50.596440341323614" lon="13.442783569917083">
        <ele>712</ele>
        <time>2026-08-29T16:08:10Z</time>
      </trkpt>
      <trkpt lat="50.596428271383047" lon="13.442819276824594">
        <ele>713</ele>
        <time>2026-08-29T16:08:11Z</time>
      </trkpt>
      <trkpt lat="50.596416452899575" lon="13.442854983732104">
        <ele>713</ele>
        <time>2026-08-29T16:08:12Z</time>
      </trkpt>
      <trkpt lat="50.596404885873199" lon="13.442896474152803">
        <ele>713</ele>
        <time>2026-08-29T16:08:13Z</time>
      </trkpt>
      <trkpt lat="50.59639910236001" lon="13.442932851612568">
        <ele>713</ele>
        <time>2026-08-29T16:08:14Z</time>
      </trkpt>
      <trkpt lat="50.59638099744916" lon="13.442968726158142">
        <ele>713</ele>
        <time>2026-08-29T16:08:15Z</time>
      </trkpt>
      <trkpt lat="50.596367586404085" lon="13.44300770200789">
        <ele>713</ele>
        <time>2026-08-29T16:08:16Z</time>
      </trkpt>
      <trkpt lat="50.596356689929962" lon="13.443046174943447">
        <ele>714</ele>
        <time>2026-08-29T16:08:17Z</time>
      </trkpt>
      <trkpt lat="50.596344955265522" lon="13.443084228783846">
        <ele>714</ele>
        <time>2026-08-29T16:08:18Z</time>
      </trkpt>
      <trkpt lat="50.596333220601082" lon="13.443120773881674">
        <ele>714</ele>
        <time>2026-08-29T16:08:19Z</time>
      </trkpt>
      <trkpt lat="50.596325760707259" lon="13.443166874349117">
        <ele>714</ele>
        <time>2026-08-29T16:08:20Z</time>
      </trkpt>
      <trkpt lat="50.596312014386058" lon="13.443209119141102">
        <ele>714</ele>
        <time>2026-08-29T16:08:21Z</time>
      </trkpt>
      <trkpt lat="50.59630136936903" lon="13.44325203448534">
        <ele>714</ele>
        <time>2026-08-29T16:08:22Z</time>
      </trkpt>
      <trkpt lat="50.59628963470459" lon="13.443294949829578">
        <ele>714</ele>
        <time>2026-08-29T16:08:23Z</time>
      </trkpt>
      <trkpt lat="50.596276726573706" lon="13.443336104974151">
        <ele>714</ele>
        <time>2026-08-29T16:08:24Z</time>
      </trkpt>
      <trkpt lat="50.596268428489566" lon="13.443377427756786">
        <ele>714</ele>
        <time>2026-08-29T16:08:25Z</time>
      </trkpt>
      <trkpt lat="50.596258956938982" lon="13.443418415263295">
        <ele>714</ele>
        <time>2026-08-29T16:08:26Z</time>
      </trkpt>
      <trkpt lat="50.596246551722288" lon="13.443455463275313">
        <ele>715</ele>
        <time>2026-08-29T16:08:27Z</time>
      </trkpt>
      <trkpt lat="50.596237750723958" lon="13.443497456610203">
        <ele>715</ele>
        <time>2026-08-29T16:08:28Z</time>
      </trkpt>
      <trkpt lat="50.596228949725628" lon="13.443534756079316">
        <ele>715</ele>
        <time>2026-08-29T16:08:29Z</time>
      </trkpt>
      <trkpt lat="50.596223250031471" lon="13.443579263985157">
        <ele>716</ele>
        <time>2026-08-29T16:08:30Z</time>
      </trkpt>
      <trkpt lat="50.596218388527632" lon="13.443617401644588">
        <ele>716</ele>
        <time>2026-08-29T16:08:31Z</time>
      </trkpt>
      <trkpt lat="50.596210760995746" lon="13.443658305332065">
        <ele>715</ele>
        <time>2026-08-29T16:08:32Z</time>
      </trkpt>
      <trkpt lat="50.59620657004416" lon="13.443702729418874">
        <ele>716</ele>
        <time>2026-08-29T16:08:33Z</time>
      </trkpt>
      <trkpt lat="50.596201121807098" lon="13.443744890391827">
        <ele>715</ele>
        <time>2026-08-29T16:08:34Z</time>
      </trkpt>
      <trkpt lat="50.596199277788401" lon="13.44379149377346">
        <ele>716</ele>
        <time>2026-08-29T16:08:35Z</time>
      </trkpt>
      <trkpt lat="50.596193242818117" lon="13.443837845697999">
        <ele>715</ele>
        <time>2026-08-29T16:08:36Z</time>
      </trkpt>
      <trkpt lat="50.596194667741656" lon="13.443883862346411">
        <ele>715</ele>
        <time>2026-08-29T16:08:37Z</time>
      </trkpt>
      <trkpt lat="50.596192991361022" lon="13.443934740498662">
        <ele>715</ele>
        <time>2026-08-29T16:08:38Z</time>
      </trkpt>
      <trkpt lat="50.596195170655847" lon="13.443980338051915">
        <ele>715</ele>
        <time>2026-08-29T16:08:39Z</time>
      </trkpt>
      <trkpt lat="50.596194751560688" lon="13.444030042737722">
        <ele>715</ele>
        <time>2026-08-29T16:08:40Z</time>
      </trkpt>
      <trkpt lat="50.596200451254845" lon="13.444085530936718">
        <ele>715</ele>
        <time>2026-08-29T16:08:41Z</time>
      </trkpt>
      <trkpt lat="50.596198355779052" lon="13.444137834012508">
        <ele>715</ele>
        <time>2026-08-29T16:08:42Z</time>
      </trkpt>
      <trkpt lat="50.596202798187733" lon="13.444190556183457">
        <ele>716</ele>
        <time>2026-08-29T16:08:43Z</time>
      </trkpt>
      <trkpt lat="50.596205815672874" lon="13.444247050210834">
        <ele>716</ele>
        <time>2026-08-29T16:08:44Z</time>
      </trkpt>
      <trkpt lat="50.596203720197082" lon="13.444298431277275">
        <ele>716</ele>
        <time>2026-08-29T16:08:45Z</time>
      </trkpt>
      <trkpt lat="50.59620464220643" lon="13.444351069629192">
        <ele>716</ele>
        <time>2026-08-29T16:08:46Z</time>
      </trkpt>
      <trkpt lat="50.596206821501255" lon="13.444402115419507">
        <ele>716</ele>
        <time>2026-08-29T16:08:47Z</time>
      </trkpt>
      <trkpt lat="50.596205480396748" lon="13.444461794570088">
        <ele>716</ele>
        <time>2026-08-29T16:08:48Z</time>
      </trkpt>
      <trkpt lat="50.596207240596414" lon="13.444524072110653">
        <ele>716</ele>
        <time>2026-08-29T16:08:49Z</time>
      </trkpt>
      <trkpt lat="50.596206905320287" lon="13.444581739604473">
        <ele>716</ele>
        <time>2026-08-29T16:08:50Z</time>
      </trkpt>
      <trkpt lat="50.596205061301589" lon="13.444651141762733">
        <ele>716</ele>
        <time>2026-08-29T16:08:51Z</time>
      </trkpt>
      <trkpt lat="50.596196930855513" lon="13.444707216694951">
        <ele>716</ele>
        <time>2026-08-29T16:08:52Z</time>
      </trkpt>
      <trkpt lat="50.596191231161356" lon="13.444763794541359">
        <ele>716</ele>
        <time>2026-08-29T16:08:53Z</time>
      </trkpt>
      <trkpt lat="50.596182849258184" lon="13.444831855595112">
        <ele>716</ele>
        <time>2026-08-29T16:08:54Z</time>
      </trkpt>
      <trkpt lat="50.596175389364362" lon="13.444907544180751">
        <ele>715</ele>
        <time>2026-08-29T16:08:55Z</time>
      </trkpt>
      <trkpt lat="50.596172958612442" lon="13.444983065128326">
        <ele>715</ele>
        <time>2026-08-29T16:08:56Z</time>
      </trkpt>
      <trkpt lat="50.596167510375381" lon="13.445051712915301">
        <ele>715</ele>
        <time>2026-08-29T16:08:57Z</time>
      </trkpt>
      <trkpt lat="50.596160218119621" lon="13.445124970749021">
        <ele>715</ele>
        <time>2026-08-29T16:08:58Z</time>
      </trkpt>
      <trkpt lat="50.596153428778052" lon="13.445203173905611">
        <ele>716</ele>
        <time>2026-08-29T16:08:59Z</time>
      </trkpt>
      <trkpt lat="50.596146387979388" lon="13.445282215252519">
        <ele>716</ele>
        <time>2026-08-29T16:09:00Z</time>
      </trkpt>
      <trkpt lat="50.596140520647168" lon="13.445355389267206">
        <ele>716</ele>
        <time>2026-08-29T16:09:01Z</time>
      </trkpt>
      <trkpt lat="50.596134820953012" lon="13.445437364280224">
        <ele>716</ele>
        <time>2026-08-29T16:09:02Z</time>
      </trkpt>
      <trkpt lat="50.596129205077887" lon="13.445517662912607">
        <ele>716</ele>
        <time>2026-08-29T16:09:03Z</time>
      </trkpt>
      <trkpt lat="50.596120152622461" lon="13.445592513307929">
        <ele>716</ele>
        <time>2026-08-29T16:09:04Z</time>
      </trkpt>
      <trkpt lat="50.596110094338655" lon="13.445686474442482">
        <ele>716</ele>
        <time>2026-08-29T16:09:05Z</time>
      </trkpt>
      <trkpt lat="50.59610347263515" lon="13.445779429748654">
        <ele>716</ele>
        <time>2026-08-29T16:09:06Z</time>
      </trkpt>
      <trkpt lat="50.596099616959691" lon="13.445875402539968">
        <ele>716</ele>
        <time>2026-08-29T16:09:07Z</time>
      </trkpt>
      <trkpt lat="50.59610104188323" lon="13.445976907387376">
        <ele>716</ele>
        <time>2026-08-29T16:09:08Z</time>
      </trkpt>
      <trkpt lat="50.596101544797421" lon="13.446078076958656">
        <ele>716</ele>
        <time>2026-08-29T16:09:09Z</time>
      </trkpt>
      <trkpt lat="50.596105987206101" lon="13.446177570149302">
        <ele>716</ele>
        <time>2026-08-29T16:09:10Z</time>
      </trkpt>
      <trkpt lat="50.596118476241827" lon="13.446278320625424">
        <ele>715</ele>
        <time>2026-08-29T16:09:11Z</time>
      </trkpt>
      <trkpt lat="50.596136329695582" lon="13.446386363357306">
        <ele>715</ele>
        <time>2026-08-29T16:09:12Z</time>
      </trkpt>
      <trkpt lat="50.596151165664196" lon="13.446485018357635">
        <ele>715</ele>
        <time>2026-08-29T16:09:13Z</time>
      </trkpt>
      <trkpt lat="50.59616700746119" lon="13.446589708328247">
        <ele>715</ele>
        <time>2026-08-29T16:09:14Z</time>
      </trkpt>
      <trkpt lat="50.596186621114612" lon="13.446690291166306">
        <ele>715</ele>
        <time>2026-08-29T16:09:15Z</time>
      </trkpt>
      <trkpt lat="50.596201792359352" lon="13.446791628375649">
        <ele>714</ele>
        <time>2026-08-29T16:09:16Z</time>
      </trkpt>
      <trkpt lat="50.596207240596414" lon="13.446895815432072">
        <ele>714</ele>
        <time>2026-08-29T16:09:17Z</time>
      </trkpt>
      <trkpt lat="50.596225848421454" lon="13.447015089914203">
        <ele>714</ele>
        <time>2026-08-29T16:09:18Z</time>
      </trkpt>
      <trkpt lat="50.596244120970368" lon="13.447128580883145">
        <ele>713</ele>
        <time>2026-08-29T16:09:19Z</time>
      </trkpt>
      <trkpt lat="50.596273289993405" lon="13.447241904214025">
        <ele>713</ele>
        <time>2026-08-29T16:09:20Z</time>
      </trkpt>
      <trkpt lat="50.596299860626459" lon="13.447359250858426">
        <ele>712</ele>
        <time>2026-08-29T16:09:21Z</time>
      </trkpt>
      <trkpt lat="50.596333555877209" lon="13.447473831474781">
        <ele>711</ele>
        <time>2026-08-29T16:09:22Z</time>
      </trkpt>
      <trkpt lat="50.5963668320328" lon="13.447586568072438">
        <ele>710</ele>
        <time>2026-08-29T16:09:23Z</time>
      </trkpt>
      <trkpt lat="50.596397342160344" lon="13.447706429287791">
        <ele>710</ele>
        <time>2026-08-29T16:09:24Z</time>
      </trkpt>
      <trkpt lat="50.596433635801077" lon="13.447831571102142">
        <ele>709</ele>
        <time>2026-08-29T16:09:25Z</time>
      </trkpt>
      <trkpt lat="50.5964738689363" lon="13.447957215830684">
        <ele>709</ele>
        <time>2026-08-29T16:09:26Z</time>
      </trkpt>
      <trkpt lat="50.596512090414762" lon="13.448082022368908">
        <ele>709</ele>
        <time>2026-08-29T16:09:27Z</time>
      </trkpt>
      <trkpt lat="50.596557771787047" lon="13.448205152526498">
        <ele>709</ele>
        <time>2026-08-29T16:09:28Z</time>
      </trkpt>
      <trkpt lat="50.59659599326551" lon="13.448342280462384">
        <ele>709</ele>
        <time>2026-08-29T16:09:29Z</time>
      </trkpt>
      <trkpt lat="50.596629101783037" lon="13.448492148891091">
        <ele>708</ele>
        <time>2026-08-29T16:09:30Z</time>
      </trkpt>
      <trkpt lat="50.596649469807744" lon="13.448651237413287">
        <ele>707</ele>
        <time>2026-08-29T16:09:31Z</time>
      </trkpt>
      <trkpt lat="50.596665982156992" lon="13.448805045336485">
        <ele>707</ele>
        <time>2026-08-29T16:09:32Z</time>
      </trkpt>
      <trkpt lat="50.596683751791716" lon="13.448956254869699">
        <ele>706</ele>
        <time>2026-08-29T16:09:33Z</time>
      </trkpt>
      <trkpt lat="50.596713842824101" lon="13.449103441089392">
        <ele>706</ele>
        <time>2026-08-29T16:09:34Z</time>
      </trkpt>
      <trkpt lat="50.596758015453815" lon="13.449240820482373">
        <ele>705</ele>
        <time>2026-08-29T16:09:35Z</time>
      </trkpt>
      <trkpt lat="50.596826998516917" lon="13.449355652555823">
        <ele>705</ele>
        <time>2026-08-29T16:09:36Z</time>
      </trkpt>
      <trkpt lat="50.59690142981708" lon="13.449454391375184">
        <ele>705</ele>
        <time>2026-08-29T16:09:37Z</time>
      </trkpt>
      <trkpt lat="50.596974520012736" lon="13.449528738856316">
        <ele>705</ele>
        <time>2026-08-29T16:09:38Z</time>
      </trkpt>
      <trkpt lat="50.597056914120913" lon="13.449607193470001">
        <ele>705</ele>
        <time>2026-08-29T16:09:39Z</time>
      </trkpt>
      <trkpt lat="50.597122712060809" lon="13.449684977531433">
        <ele>705</ele>
        <time>2026-08-29T16:09:40Z</time>
      </trkpt>
      <trkpt lat="50.597190605476499" lon="13.449765359982848">
        <ele>705</ele>
        <time>2026-08-29T16:09:41Z</time>
      </trkpt>
      <trkpt lat="50.597240058705211" lon="13.449867619201541">
        <ele>706</ele>
        <time>2026-08-29T16:09:42Z</time>
      </trkpt>
      <trkpt lat="50.597273670136929" lon="13.449975661933422">
        <ele>706</ele>
        <time>2026-08-29T16:09:43Z</time>
      </trkpt>
      <trkpt lat="50.59730158187449" lon="13.450073897838593">
        <ele>706</ele>
        <time>2026-08-29T16:09:44Z</time>
      </trkpt>
      <trkpt lat="50.597322368994355" lon="13.450164087116718">
        <ele>706</ele>
        <time>2026-08-29T16:09:45Z</time>
      </trkpt>
      <trkpt lat="50.597339970991015" lon="13.450248157605529">
        <ele>706</ele>
        <time>2026-08-29T16:09:46Z</time>
      </trkpt>
      <trkpt lat="50.597357740625739" lon="13.450332479551435">
        <ele>706</ele>
        <time>2026-08-29T16:09:47Z</time>
      </trkpt>
      <trkpt lat="50.597369223833084" lon="13.450401043519378">
        <ele>706</ele>
        <time>2026-08-29T16:09:48Z</time>
      </trkpt>
      <trkpt lat="50.597380120307207" lon="13.450464159250259">
        <ele>707</ele>
        <time>2026-08-29T16:09:49Z</time>
      </trkpt>
      <trkpt lat="50.59738758020103" lon="13.450522497296333">
        <ele>707</ele>
        <time>2026-08-29T16:09:50Z</time>
      </trkpt>
      <trkpt lat="50.597392860800028" lon="13.450572369620204">
        <ele>707</ele>
        <time>2026-08-29T16:09:51Z</time>
      </trkpt>
      <trkpt lat="50.597397638484836" lon="13.450623834505677">
        <ele>707</ele>
        <time>2026-08-29T16:09:52Z</time>
      </trkpt>
      <trkpt lat="50.597403002902865" lon="13.450666917487979">
        <ele>707</ele>
        <time>2026-08-29T16:09:53Z</time>
      </trkpt>
      <trkpt lat="50.597405768930912" lon="13.450707150623202">
        <ele>707</ele>
        <time>2026-08-29T16:09:54Z</time>
      </trkpt>
      <trkpt lat="50.59740861877799" lon="13.450753083452582">
        <ele>707</ele>
        <time>2026-08-29T16:09:55Z</time>
      </trkpt>
      <trkpt lat="50.597411133348942" lon="13.450796082615852">
        <ele>707</ele>
        <time>2026-08-29T16:09:56Z</time>
      </trkpt>
      <trkpt lat="50.597411887720227" lon="13.45084436237812">
        <ele>708</ele>
        <time>2026-08-29T16:09:57Z</time>
      </trkpt>
      <trkpt lat="50.597412558272481" lon="13.45089222304523">
        <ele>708</ele>
        <time>2026-08-29T16:09:58Z</time>
      </trkpt>
      <trkpt lat="50.597412139177322" lon="13.450938826426864">
        <ele>708</ele>
        <time>2026-08-29T16:09:59Z</time>
      </trkpt>
      <trkpt lat="50.597409121692181" lon="13.450989620760083">
        <ele>708</ele>
        <time>2026-08-29T16:10:00Z</time>
      </trkpt>
      <trkpt lat="50.597409792244434" lon="13.451035050675273">
        <ele>708</ele>
        <time>2026-08-29T16:10:01Z</time>
      </trkpt>
      <trkpt lat="50.597410211339593" lon="13.451084587723017">
        <ele>709</ele>
        <time>2026-08-29T16:10:02Z</time>
      </trkpt>
      <trkpt lat="50.59740518219769" lon="13.451138064265251">
        <ele>709</ele>
        <time>2026-08-29T16:10:03Z</time>
      </trkpt>
      <trkpt lat="50.597406690940261" lon="13.451183997094631">
        <ele>709</ele>
        <time>2026-08-29T16:10:04Z</time>
      </trkpt>
      <trkpt lat="50.597405601292849" lon="13.451231438666582">
        <ele>710</ele>
        <time>2026-08-29T16:10:05Z</time>
      </trkpt>
      <trkpt lat="50.597401075065136" lon="13.451275359839201">
        <ele>710</ele>
        <time>2026-08-29T16:10:06Z</time>
      </trkpt>
      <trkpt lat="50.597393279895186" lon="13.451324729248881">
        <ele>710</ele>
        <time>2026-08-29T16:10:07Z</time>
      </trkpt>
      <trkpt lat="50.597386825829744" lon="13.451377283781767">
        <ele>711</ele>
        <time>2026-08-29T16:10:08Z</time>
      </trkpt>
      <trkpt lat="50.597380539402366" lon="13.451429503038526">
        <ele>711</ele>
        <time>2026-08-29T16:10:09Z</time>
      </trkpt>
      <trkpt lat="50.597373330965638" lon="13.451478956267238">
        <ele>711</ele>
        <time>2026-08-29T16:10:10Z</time>
      </trkpt>
      <trkpt lat="50.597364446148276" lon="13.45152840949595">
        <ele>711</ele>
        <time>2026-08-29T16:10:11Z</time>
      </trkpt>
      <trkpt lat="50.597357572987676" lon="13.451582472771406">
        <ele>711</ele>
        <time>2026-08-29T16:10:12Z</time>
      </trkpt>
      <trkpt lat="50.597345000132918" lon="13.451636368408799">
        <ele>712</ele>
        <time>2026-08-29T16:10:13Z</time>
      </trkpt>
      <trkpt lat="50.597333265468478" lon="13.451685486361384">
        <ele>712</ele>
        <time>2026-08-29T16:10:14Z</time>
      </trkpt>
      <trkpt lat="50.597318932414055" lon="13.45172731205821">
        <ele>713</ele>
        <time>2026-08-29T16:10:15Z</time>
      </trkpt>
      <trkpt lat="50.597301162779331" lon="13.45177760347724">
        <ele>713</ele>
        <time>2026-08-29T16:10:16Z</time>
      </trkpt>
      <trkpt lat="50.597286242991686" lon="13.451821776106954">
        <ele>713</ele>
        <time>2026-08-29T16:10:17Z</time>
      </trkpt>
      <trkpt lat="50.597269311547279" lon="13.451865613460541">
        <ele>713</ele>
        <time>2026-08-29T16:10:18Z</time>
      </trkpt>
      <trkpt lat="50.597254810854793" lon="13.45190810970962">
        <ele>714</ele>
        <time>2026-08-29T16:10:19Z</time>
      </trkpt>
      <trkpt lat="50.597235113382339" lon="13.451950773596764">
        <ele>714</ele>
        <time>2026-08-29T16:10:20Z</time>
      </trkpt>
      <trkpt lat="50.597228240221739" lon="13.451986983418465">
        <ele>714</ele>
        <time>2026-08-29T16:10:21Z</time>
      </trkpt>
      <trkpt lat="50.597220612689853" lon="13.452018415555358">
        <ele>714</ele>
        <time>2026-08-29T16:10:22Z</time>
      </trkpt>
      <trkpt lat="50.597208123654127" lon="13.452048925682902">
        <ele>714</ele>
        <time>2026-08-29T16:10:23Z</time>
      </trkpt>
      <trkpt lat="50.597200496122241" lon="13.452082369476557">
        <ele>714</ele>
        <time>2026-08-29T16:10:24Z</time>
      </trkpt>
      <trkpt lat="50.597192365676165" lon="13.452114220708609">
        <ele>715</ele>
        <time>2026-08-29T16:10:25Z</time>
      </trkpt>
      <trkpt lat="50.597184738144279" lon="13.452138779684901">
        <ele>715</ele>
        <time>2026-08-29T16:10:26Z</time>
      </trkpt>
      <trkpt lat="50.597176691517234" lon="13.452168367803097">
        <ele>715</ele>
        <time>2026-08-29T16:10:27Z</time>
      </trkpt>
      <trkpt lat="50.597166381776333" lon="13.452196698635817">
        <ele>715</ele>
        <time>2026-08-29T16:10:28Z</time>
      </trkpt>
      <trkpt lat="50.597158083692193" lon="13.452222431078553">
        <ele>715</ele>
        <time>2026-08-29T16:10:29Z</time>
      </trkpt>
      <trkpt lat="50.597145091742277" lon="13.452251767739654">
        <ele>715</ele>
        <time>2026-08-29T16:10:30Z</time>
      </trkpt>
      <trkpt lat="50.597136290743947" lon="13.452283283695579">
        <ele>716</ele>
        <time>2026-08-29T16:10:31Z</time>
      </trkpt>
      <trkpt lat="50.597131429240108" lon="13.452315051108599">
        <ele>716</ele>
        <time>2026-08-29T16:10:32Z</time>
      </trkpt>
      <trkpt lat="50.59712078422308" lon="13.452343130484223">
        <ele>716</ele>
        <time>2026-08-29T16:10:33Z</time>
      </trkpt>
      <trkpt lat="50.597111228853464" lon="13.452380681410432">
        <ele>716</ele>
        <time>2026-08-29T16:10:34Z</time>
      </trkpt>
      <trkpt lat="50.597097398713231" lon="13.452413370832801">
        <ele>716</ele>
        <time>2026-08-29T16:10:35Z</time>
      </trkpt>
      <trkpt lat="50.597087424248457" lon="13.452450083568692">
        <ele>717</ele>
        <time>2026-08-29T16:10:36Z</time>
      </trkpt>
      <trkpt lat="50.597075270488858" lon="13.452488472685218">
        <ele>717</ele>
        <time>2026-08-29T16:10:37Z</time>
      </trkpt>
      <trkpt lat="50.59706118889153" lon="13.452524514868855">
        <ele>717</ele>
        <time>2026-08-29T16:10:38Z</time>
      </trkpt>
      <trkpt lat="50.59704702347517" lon="13.452561143785715">
        <ele>718</ele>
        <time>2026-08-29T16:10:39Z</time>
      </trkpt>
      <trkpt lat="50.597037132829428" lon="13.452589893713593">
        <ele>718</ele>
        <time>2026-08-29T16:10:40Z</time>
      </trkpt>
      <trkpt lat="50.5970230512321" lon="13.452628701925278">
        <ele>718</ele>
        <time>2026-08-29T16:10:41Z</time>
      </trkpt>
      <trkpt lat="50.597009221091866" lon="13.452660720795393">
        <ele>718</ele>
        <time>2026-08-29T16:10:42Z</time>
      </trkpt>
      <trkpt lat="50.596997989341617" lon="13.452697349712253">
        <ele>719</ele>
        <time>2026-08-29T16:10:43Z</time>
      </trkpt>
      <trkpt lat="50.596985500305891" lon="13.452739678323269">
        <ele>719</ele>
        <time>2026-08-29T16:10:44Z</time>
      </trkpt>
      <trkpt lat="50.596973430365324" lon="13.452779660001397">
        <ele>719</ele>
        <time>2026-08-29T16:10:45Z</time>
      </trkpt>
      <trkpt lat="50.59696001932025" lon="13.452811678871512">
        <ele>719</ele>
        <time>2026-08-29T16:10:46Z</time>
      </trkpt>
      <trkpt lat="50.596949961036444" lon="13.452844535931945">
        <ele>719</ele>
        <time>2026-08-29T16:10:47Z</time>
      </trkpt>
      <trkpt lat="50.596943506971002" lon="13.45287898555398">
        <ele>720</ele>
        <time>2026-08-29T16:10:48Z</time>
      </trkpt>
      <trkpt lat="50.596931939944625" lon="13.452910920605063">
        <ele>720</ele>
        <time>2026-08-29T16:10:49Z</time>
      </trkpt>
      <trkpt lat="50.596919283270836" lon="13.452931540086865">
        <ele>720</ele>
        <time>2026-08-29T16:10:50Z</time>
      </trkpt>
      <trkpt lat="50.596914337947965" lon="13.452956518158317">
        <ele>721</ele>
        <time>2026-08-29T16:10:51Z</time>
      </trkpt>
      <trkpt lat="50.596899501979351" lon="13.452971521764994">
        <ele>721</ele>
        <time>2026-08-29T16:10:52Z</time>
      </trkpt>
      <trkpt lat="50.596892796456814" lon="13.452994739636779">
        <ele>721</ele>
        <time>2026-08-29T16:10:53Z</time>
      </trkpt>
      <trkpt lat="50.596888940781355" lon="13.453020472079515">
        <ele>721</ele>
        <time>2026-08-29T16:10:54Z</time>
      </trkpt>
      <trkpt lat="50.596880977973342" lon="13.453047126531601">
        <ele>722</ele>
        <time>2026-08-29T16:10:55Z</time>
      </trkpt>
      <trkpt lat="50.596872679889202" lon="13.453074200078845">
        <ele>722</ele>
        <time>2026-08-29T16:10:56Z</time>
      </trkpt>
      <trkpt lat="50.596864214166999" lon="13.453102447092533">
        <ele>722</ele>
        <time>2026-08-29T16:10:57Z</time>
      </trkpt>
      <trkpt lat="50.596855999901891" lon="13.453121306374669">
        <ele>722</ele>
        <time>2026-08-29T16:10:58Z</time>
      </trkpt>
      <trkpt lat="50.596849210560322" lon="13.453147709369659">
        <ele>723</ele>
        <time>2026-08-29T16:10:59Z</time>
      </trkpt>
      <trkpt lat="50.596839487552643" lon="13.453182997182012">
        <ele>723</ele>
        <time>2026-08-29T16:11:00Z</time>
      </trkpt>
      <trkpt lat="50.596829429268837" lon="13.453214094042778">
        <ele>723</ele>
        <time>2026-08-29T16:11:01Z</time>
      </trkpt>
      <trkpt lat="50.596818700432777" lon="13.453242843970656">
        <ele>724</ele>
        <time>2026-08-29T16:11:02Z</time>
      </trkpt>
      <trkpt lat="50.596814509481192" lon="13.453274024650455">
        <ele>724</ele>
        <time>2026-08-29T16:11:03Z</time>
      </trkpt>
      <trkpt lat="50.596803529188037" lon="13.453306630253792">
        <ele>725</ele>
        <time>2026-08-29T16:11:04Z</time>
      </trkpt>
      <trkpt lat="50.596795231103897" lon="13.453337978571653">
        <ele>725</ele>
        <time>2026-08-29T16:11:05Z</time>
      </trkpt>
      <trkpt lat="50.596790118142962" lon="13.453365555033088">
        <ele>725</ele>
        <time>2026-08-29T16:11:06Z</time>
      </trkpt>
      <trkpt lat="50.596779892221093" lon="13.453402519226074">
        <ele>725</ele>
        <time>2026-08-29T16:11:07Z</time>
      </trkpt>
      <trkpt lat="50.596774779260159" lon="13.453437555581331">
        <ele>725</ele>
        <time>2026-08-29T16:11:08Z</time>
      </trkpt>
      <trkpt lat="50.596767235547304" lon="13.453461695462465">
        <ele>725</ele>
        <time>2026-08-29T16:11:09Z</time>
      </trkpt>
      <trkpt lat="50.596756841987371" lon="13.45348784700036">
        <ele>726</ele>
        <time>2026-08-29T16:11:10Z</time>
      </trkpt>
      <trkpt lat="50.596748627722263" lon="13.453519782051444">
        <ele>726</ele>
        <time>2026-08-29T16:11:11Z</time>
      </trkpt>
      <trkpt lat="50.596741838380694" lon="13.453547777608037">
        <ele>726</ele>
        <time>2026-08-29T16:11:12Z</time>
      </trkpt>
      <trkpt lat="50.596729600802064" lon="13.45358214341104">
        <ele>726</ele>
        <time>2026-08-29T16:11:13Z</time>
      </trkpt>
      <trkpt lat="50.59672306291759" lon="13.453622544184327">
        <ele>727</ele>
        <time>2026-08-29T16:11:14Z</time>
      </trkpt>
      <trkpt lat="50.596718871966004" lon="13.453657999634743">
        <ele>727</ele>
        <time>2026-08-29T16:11:15Z</time>
      </trkpt>
      <trkpt lat="50.596714094281197" lon="13.453693203628063">
        <ele>728</ele>
        <time>2026-08-29T16:11:16Z</time>
      </trkpt>
      <trkpt lat="50.596710992977023" lon="13.453732011839747">
        <ele>728</ele>
        <time>2026-08-29T16:11:17Z</time>
      </trkpt>
      <trkpt lat="50.596707640215755" lon="13.453772328794003">
        <ele>729</ele>
        <time>2026-08-29T16:11:18Z</time>
      </trkpt>
      <trkpt lat="50.59670303016901" lon="13.453814573585987">
        <ele>729</ele>
        <time>2026-08-29T16:11:19Z</time>
      </trkpt>
      <trkpt lat="50.596698587760329" lon="13.453850951045752">
        <ele>729</ele>
        <time>2026-08-29T16:11:20Z</time>
      </trkpt>
      <trkpt lat="50.596695821732283" lon="13.453881209716201">
        <ele>730</ele>
        <time>2026-08-29T16:11:21Z</time>
      </trkpt>
      <trkpt lat="50.596689619123936" lon="13.453909875825047">
        <ele>730</ele>
        <time>2026-08-29T16:11:22Z</time>
      </trkpt>
      <trkpt lat="50.596685511991382" lon="13.45394080504775">
        <ele>731</ele>
        <time>2026-08-29T16:11:23Z</time>
      </trkpt>
      <trkpt lat="50.596681069582701" lon="13.453972991555929">
        <ele>731</ele>
        <time>2026-08-29T16:11:24Z</time>
      </trkpt>
      <trkpt lat="50.596678219735622" lon="13.45400677062571">
        <ele>731</ele>
        <time>2026-08-29T16:11:25Z</time>
      </trkpt>
      <trkpt lat="50.596676962450147" lon="13.454041723161936">
        <ele>731</ele>
        <time>2026-08-29T16:11:26Z</time>
      </trkpt>
      <trkpt lat="50.59667469933629" lon="13.454077765345573">
        <ele>732</ele>
        <time>2026-08-29T16:11:27Z</time>
      </trkpt>
      <trkpt lat="50.59667369350791" lon="13.454115567728877">
        <ele>732</ele>
        <time>2026-08-29T16:11:28Z</time>
      </trkpt>
      <trkpt lat="50.596668412908912" lon="13.454150604084134">
        <ele>731</ele>
        <time>2026-08-29T16:11:29Z</time>
      </trkpt>
      <trkpt lat="50.596663551405072" lon="13.45418605953455">
        <ele>731</ele>
        <time>2026-08-29T16:11:30Z</time>
      </trkpt>
      <trkpt lat="50.596660198643804" lon="13.454223526641726">
        <ele>731</ele>
        <time>2026-08-29T16:11:31Z</time>
      </trkpt>
      <trkpt lat="50.596655001863837" lon="13.454258060082793">
        <ele>731</ele>
        <time>2026-08-29T16:11:32Z</time>
      </trkpt>
      <trkpt lat="50.596652990207076" lon="13.454290749505162">
        <ele>731</ele>
        <time>2026-08-29T16:11:33Z</time>
      </trkpt>
      <trkpt lat="50.596648380160332" lon="13.454331317916512">
        <ele>731</ele>
        <time>2026-08-29T16:11:34Z</time>
      </trkpt>
      <trkpt lat="50.596644859761" lon="13.454363169148564">
        <ele>731</ele>
        <time>2026-08-29T16:11:35Z</time>
      </trkpt>
      <trkpt lat="50.596639411523938" lon="13.454394349828362">
        <ele>731</ele>
        <time>2026-08-29T16:11:36Z</time>
      </trkpt>
      <trkpt lat="50.596633544191718" lon="13.454429553821683">
        <ele>731</ele>
        <time>2026-08-29T16:11:37Z</time>
      </trkpt>
      <trkpt lat="50.596626168116927" lon="13.454460818320513">
        <ele>732</ele>
        <time>2026-08-29T16:11:38Z</time>
      </trkpt>
      <trkpt lat="50.596621474251151" lon="13.454494597390294">
        <ele>732</ele>
        <time>2026-08-29T16:11:39Z</time>
      </trkpt>
      <trkpt lat="50.596615355461836" lon="13.454526280984282">
        <ele>732</ele>
        <time>2026-08-29T16:11:40Z</time>
      </trkpt>
      <trkpt lat="50.596607057377696" lon="13.454562909901142">
        <ele>732</ele>
        <time>2026-08-29T16:11:41Z</time>
      </trkpt>
      <trkpt lat="50.596594987437129" lon="13.454598113894463">
        <ele>732</ele>
        <time>2026-08-29T16:11:42Z</time>
      </trkpt>
      <trkpt lat="50.596583420410752" lon="13.454639436677098">
        <ele>732</ele>
        <time>2026-08-29T16:11:43Z</time>
      </trkpt>
      <trkpt lat="50.59657302685082" lon="13.454678831622005">
        <ele>732</ele>
        <time>2026-08-29T16:11:44Z</time>
      </trkpt>
      <trkpt lat="50.596563220024109" lon="13.45471914857626">
        <ele>733</ele>
        <time>2026-08-29T16:11:45Z</time>
      </trkpt>
      <trkpt lat="50.596548719331622" lon="13.454758040606976">
        <ele>733</ele>
        <time>2026-08-29T16:11:46Z</time>
      </trkpt>
      <trkpt lat="50.596535140648484" lon="13.454793160781264">
        <ele>733</ele>
        <time>2026-08-29T16:11:47Z</time>
      </trkpt>
      <trkpt lat="50.596525836735964" lon="13.454834818840027">
        <ele>734</ele>
        <time>2026-08-29T16:11:48Z</time>
      </trkpt>
      <trkpt lat="50.596511671319604" lon="13.454875303432345">
        <ele>733</ele>
        <time>2026-08-29T16:11:49Z</time>
      </trkpt>
      <trkpt lat="50.5964963324368" lon="13.454910507425666">
        <ele>733</ele>
        <time>2026-08-29T16:11:50Z</time>
      </trkpt>
      <trkpt lat="50.59647923335433" lon="13.454947471618652">
        <ele>734</ele>
        <time>2026-08-29T16:11:51Z</time>
      </trkpt>
      <trkpt lat="50.596458278596401" lon="13.454982927069068">
        <ele>734</ele>
        <time>2026-08-29T16:11:52Z</time>
      </trkpt>
      <trkpt lat="50.596438245847821" lon="13.455017376691103">
        <ele>734</ele>
        <time>2026-08-29T16:11:53Z</time>
      </trkpt>
      <trkpt lat="50.596412429586053" lon="13.455047802999616">
        <ele>734</ele>
        <time>2026-08-29T16:11:54Z</time>
      </trkpt>
      <trkpt lat="50.596389379352331" lon="13.455073032528162">
        <ele>734</ele>
        <time>2026-08-29T16:11:55Z</time>
      </trkpt>
      <trkpt lat="50.59636440128088" lon="13.455098429694772">
        <ele>734</ele>
        <time>2026-08-29T16:11:56Z</time>
      </trkpt>
      <trkpt lat="50.596342021599412" lon="13.455121060833335">
        <ele>734</ele>
        <time>2026-08-29T16:11:57Z</time>
      </trkpt>
      <trkpt lat="50.596314528957009" lon="13.455139501020312">
        <ele>734</ele>
        <time>2026-08-29T16:11:58Z</time>
      </trkpt>
      <trkpt lat="50.59628670103848" lon="13.455156600102782">
        <ele>734</ele>
        <time>2026-08-29T16:11:59Z</time>
      </trkpt>
      <trkpt lat="50.596260717138648" lon="13.455177638679743">
        <ele>734</ele>
        <time>2026-08-29T16:12:00Z</time>
      </trkpt>
      <trkpt lat="50.596232721582055" lon="13.455199766904116">
        <ele>734</ele>
        <time>2026-08-29T16:12:01Z</time>
      </trkpt>
      <trkpt lat="50.59620170854032" lon="13.455218961462379">
        <ele>734</ele>
        <time>2026-08-29T16:12:02Z</time>
      </trkpt>
      <trkpt lat="50.596164660528302" lon="13.455231366679072">
        <ele>734</ele>
        <time>2026-08-29T16:12:03Z</time>
      </trkpt>
      <trkpt lat="50.596133479848504" lon="13.45524687319994">
        <ele>734</ele>
        <time>2026-08-29T16:12:04Z</time>
      </trkpt>
      <trkpt lat="50.596102299168706" lon="13.455265564844012">
        <ele>735</ele>
        <time>2026-08-29T16:12:05Z</time>
      </trkpt>
      <trkpt lat="50.596068017184734" lon="13.455280065536499">
        <ele>734</ele>
        <time>2026-08-29T16:12:06Z</time>
      </trkpt>
      <trkpt lat="50.596036920323968" lon="13.455284340307117">
        <ele>734</ele>
        <time>2026-08-29T16:12:07Z</time>
      </trkpt>
      <trkpt lat="50.596002386882901" lon="13.455302277579904">
        <ele>734</ele>
        <time>2026-08-29T16:12:08Z</time>
      </trkpt>
      <trkpt lat="50.595964165404439" lon="13.455311330035329">
        <ele>734</ele>
        <time>2026-08-29T16:12:09Z</time>
      </trkpt>
      <trkpt lat="50.595927368849516" lon="13.455317951738834">
        <ele>735</ele>
        <time>2026-08-29T16:12:10Z</time>
      </trkpt>
      <trkpt lat="50.595892835408449" lon="13.455327339470387">
        <ele>734</ele>
        <time>2026-08-29T16:12:11Z</time>
      </trkpt>
      <trkpt lat="50.595857463777065" lon="13.455336140468717">
        <ele>734</ele>
        <time>2026-08-29T16:12:12Z</time>
      </trkpt>
      <trkpt lat="50.595820415765047" lon="13.455338403582573">
        <ele>733</ele>
        <time>2026-08-29T16:12:13Z</time>
      </trkpt>
      <trkpt lat="50.595784373581409" lon="13.455346031114459">
        <ele>733</ele>
        <time>2026-08-29T16:12:14Z</time>
      </trkpt>
      <trkpt lat="50.595747074112296" lon="13.455358520150185">
        <ele>733</ele>
        <time>2026-08-29T16:12:15Z</time>
      </trkpt>
      <trkpt lat="50.595711870118976" lon="13.455370338633657">
        <ele>733</ele>
        <time>2026-08-29T16:12:16Z</time>
      </trkpt>
      <trkpt lat="50.595670631155372" lon="13.455391377210617">
        <ele>733</ele>
        <time>2026-08-29T16:12:17Z</time>
      </trkpt>
      <trkpt lat="50.595631236210465" lon="13.455401016399264">
        <ele>733</ele>
        <time>2026-08-29T16:12:18Z</time>
      </trkpt>
      <trkpt lat="50.595593601465225" lon="13.455401519313455">
        <ele>733</ele>
        <time>2026-08-29T16:12:19Z</time>
      </trkpt>
      <trkpt lat="50.59555621817708" lon="13.455415600910783">
        <ele>733</ele>
        <time>2026-08-29T16:12:20Z</time>
      </trkpt>
      <trkpt lat="50.595517074689269" lon="13.455425072461367">
        <ele>733</ele>
        <time>2026-08-29T16:12:21Z</time>
      </trkpt>
      <trkpt lat="50.595477093011141" lon="13.45543697476387">
        <ele>733</ele>
        <time>2026-08-29T16:12:22Z</time>
      </trkpt>
      <trkpt lat="50.595439709722996" lon="13.455448038876057">
        <ele>733</ele>
        <time>2026-08-29T16:12:23Z</time>
      </trkpt>
      <trkpt lat="50.595401069149375" lon="13.455463126301765">
        <ele>734</ele>
        <time>2026-08-29T16:12:24Z</time>
      </trkpt>
      <trkpt lat="50.595365781337023" lon="13.455485505983233">
        <ele>733</ele>
        <time>2026-08-29T16:12:25Z</time>
      </trkpt>
      <trkpt lat="50.595333930104971" lon="13.455506628379226">
        <ele>733</ele>
        <time>2026-08-29T16:12:26Z</time>
      </trkpt>
      <trkpt lat="50.59530015103519" lon="13.455523224547505">
        <ele>733</ele>
        <time>2026-08-29T16:12:27Z</time>
      </trkpt>
      <trkpt lat="50.595267880707979" lon="13.455549292266369">
        <ele>734</ele>
        <time>2026-08-29T16:12:28Z</time>
      </trkpt>
      <trkpt lat="50.595236616209149" lon="13.455573683604598">
        <ele>734</ele>
        <time>2026-08-29T16:12:29Z</time>
      </trkpt>
      <trkpt lat="50.595204932615161" lon="13.455601762980223">
        <ele>734</ele>
        <time>2026-08-29T16:12:30Z</time>
      </trkpt>
      <trkpt lat="50.595168974250555" lon="13.455637637525797">
        <ele>734</ele>
        <time>2026-08-29T16:12:31Z</time>
      </trkpt>
      <trkpt lat="50.595133770257235" lon="13.455671919509768">
        <ele>734</ele>
        <time>2026-08-29T16:12:32Z</time>
      </trkpt>
      <trkpt lat="50.59510376304388" lon="13.455707207322121">
        <ele>734</ele>
        <time>2026-08-29T16:12:33Z</time>
      </trkpt>
      <trkpt lat="50.595065541565418" lon="13.455734113231301">
        <ele>735</ele>
        <time>2026-08-29T16:12:34Z</time>
      </trkpt>
      <trkpt lat="50.595033438876271" lon="13.455755235627294">
        <ele>735</ele>
        <time>2026-08-29T16:12:35Z</time>
      </trkpt>
      <trkpt lat="50.595004521310329" lon="13.455786248669028">
        <ele>736</ele>
        <time>2026-08-29T16:12:36Z</time>
      </trkpt>
      <trkpt lat="50.594974178820848" lon="13.455814579501748">
        <ele>736</ele>
        <time>2026-08-29T16:12:37Z</time>
      </trkpt>
      <trkpt lat="50.594943920150399" lon="13.45584056340158">
        <ele>736</ele>
        <time>2026-08-29T16:12:38Z</time>
      </trkpt>
      <trkpt lat="50.594912320375443" lon="13.455874091014266">
        <ele>736</ele>
        <time>2026-08-29T16:12:39Z</time>
      </trkpt>
      <trkpt lat="50.594879798591137" lon="13.455910971388221">
        <ele>736</ele>
        <time>2026-08-29T16:12:40Z</time>
      </trkpt>
      <trkpt lat="50.594846019521356" lon="13.455946175381541">
        <ele>737</ele>
        <time>2026-08-29T16:12:41Z</time>
      </trkpt>
      <trkpt lat="50.59481986798346" lon="13.455981211736798">
        <ele>736</ele>
        <time>2026-08-29T16:12:42Z</time>
      </trkpt>
      <trkpt lat="50.594795309007168" lon="13.456023121252656">
        <ele>737</ele>
        <time>2026-08-29T16:12:43Z</time>
      </trkpt>
      <trkpt lat="50.594765637069941" lon="13.456057403236628">
        <ele>737</ele>
        <time>2026-08-29T16:12:44Z</time>
      </trkpt>
      <trkpt lat="50.594736468046904" lon="13.456089673563838">
        <ele>737</ele>
        <time>2026-08-29T16:12:45Z</time>
      </trkpt>
      <trkpt lat="50.5947021022439" lon="13.456122782081366">
        <ele>737</ele>
        <time>2026-08-29T16:12:46Z</time>
      </trkpt>
      <trkpt lat="50.594669245183468" lon="13.456159494817257">
        <ele>737</ele>
        <time>2026-08-29T16:12:47Z</time>
      </trkpt>
      <trkpt lat="50.594637980684638" lon="13.456195956096053">
        <ele>737</ele>
        <time>2026-08-29T16:12:48Z</time>
      </trkpt>
      <trkpt lat="50.594605542719364" lon="13.456240380182862">
        <ele>738</ele>
        <time>2026-08-29T16:12:49Z</time>
      </trkpt>
      <trkpt lat="50.594579977914691" lon="13.45627692528069">
        <ele>737</ele>
        <time>2026-08-29T16:12:50Z</time>
      </trkpt>
      <trkpt lat="50.594557598233223" lon="13.456310536712408">
        <ele>737</ele>
        <time>2026-08-29T16:12:51Z</time>
      </trkpt>
      <trkpt lat="50.59453547000885" lon="13.456343058496714">
        <ele>738</ele>
        <time>2026-08-29T16:12:52Z</time>
      </trkpt>
      <trkpt lat="50.594511078670621" lon="13.45637365244329">
        <ele>738</ele>
        <time>2026-08-29T16:12:53Z</time>
      </trkpt>
      <trkpt lat="50.594484508037567" lon="13.45640491694212">
        <ele>738</ele>
        <time>2026-08-29T16:12:54Z</time>
      </trkpt>
      <trkpt lat="50.594458524137735" lon="13.456435762345791">
        <ele>738</ele>
        <time>2026-08-29T16:12:55Z</time>
      </trkpt>
      <trkpt lat="50.594435390084982" lon="13.45646794885397">
        <ele>738</ele>
        <time>2026-08-29T16:12:56Z</time>
      </trkpt>
      <trkpt lat="50.594411753118038" lon="13.456504661589861">
        <ele>738</ele>
        <time>2026-08-29T16:12:57Z</time>
      </trkpt>
      <trkpt lat="50.594386020675302" lon="13.456539697945118">
        <ele>739</ele>
        <time>2026-08-29T16:12:58Z</time>
      </trkpt>
      <trkpt lat="50.594362048432231" lon="13.456575740128756">
        <ele>739</ele>
        <time>2026-08-29T16:12:59Z</time>
      </trkpt>
      <trkpt lat="50.594334471970797" lon="13.456610608845949">
        <ele>739</ele>
        <time>2026-08-29T16:13:00Z</time>
      </trkpt>
      <trkpt lat="50.594307146966457" lon="13.45664924941957">
        <ele>739</ele>
        <time>2026-08-29T16:13:01Z</time>
      </trkpt>
      <trkpt lat="50.594283677637577" lon="13.456687051802874">
        <ele>739</ele>
        <time>2026-08-29T16:13:02Z</time>
      </trkpt>
      <trkpt lat="50.594260627403855" lon="13.456718819215894">
        <ele>739</ele>
        <time>2026-08-29T16:13:03Z</time>
      </trkpt>
      <trkpt lat="50.594233721494675" lon="13.456752011552453">
        <ele>739</ele>
        <time>2026-08-29T16:13:04Z</time>
      </trkpt>
      <trkpt lat="50.594211341813207" lon="13.45678461715579">
        <ele>739</ele>
        <time>2026-08-29T16:13:05Z</time>
      </trkpt>
      <trkpt lat="50.594187369570136" lon="13.456812528893352">
        <ele>739</ele>
        <time>2026-08-29T16:13:06Z</time>
      </trkpt>
      <trkpt lat="50.594165492802858" lon="13.456846810877323">
        <ele>739</ele>
        <time>2026-08-29T16:13:07Z</time>
      </trkpt>
      <trkpt lat="50.594142442569137" lon="13.456880003213882">
        <ele>740</ele>
        <time>2026-08-29T16:13:08Z</time>
      </trkpt>
      <trkpt lat="50.594121739268303" lon="13.45691604539752">
        <ele>740</ele>
        <time>2026-08-29T16:13:09Z</time>
      </trkpt>
      <trkpt lat="50.59409910812974" lon="13.45695368014276">
        <ele>740</ele>
        <time>2026-08-29T16:13:10Z</time>
      </trkpt>
      <trkpt lat="50.594075471162796" lon="13.45698980614543">
        <ele>740</ele>
        <time>2026-08-29T16:13:11Z</time>
      </trkpt>
      <trkpt lat="50.594052420929074" lon="13.457031967118382">
        <ele>740</ele>
        <time>2026-08-29T16:13:12Z</time>
      </trkpt>
      <trkpt lat="50.594027359038591" lon="13.457074211910367">
        <ele>740</ele>
        <time>2026-08-29T16:13:13Z</time>
      </trkpt>
      <trkpt lat="50.594002129510045" lon="13.457125341519713">
        <ele>739</ele>
        <time>2026-08-29T16:13:14Z</time>
      </trkpt>
      <trkpt lat="50.593975558876991" lon="13.457169765606523">
        <ele>740</ele>
        <time>2026-08-29T16:13:15Z</time>
      </trkpt>
      <trkpt lat="50.593952760100365" lon="13.457216117531061">
        <ele>740</ele>
        <time>2026-08-29T16:13:16Z</time>
      </trkpt>
      <trkpt lat="50.593928201124072" lon="13.457259451970458">
        <ele>740</ele>
        <time>2026-08-29T16:13:17Z</time>
      </trkpt>
      <trkpt lat="50.593899702653289" lon="13.45730546861887">
        <ele>741</ele>
        <time>2026-08-29T16:13:18Z</time>
      </trkpt>
      <trkpt lat="50.593879669904709" lon="13.457353916019201">
        <ele>741</ele>
        <time>2026-08-29T16:13:19Z</time>
      </trkpt>
      <trkpt lat="50.593859134241939" lon="13.457405548542738">
        <ele>741</ele>
        <time>2026-08-29T16:13:20Z</time>
      </trkpt>
      <trkpt lat="50.593835329636931" lon="13.457457348704338">
        <ele>742</ele>
        <time>2026-08-29T16:13:21Z</time>
      </trkpt>
      <trkpt lat="50.593808759003878" lon="13.457500012591481">
        <ele>742</ele>
        <time>2026-08-29T16:13:22Z</time>
      </trkpt>
      <trkpt lat="50.593783780932426" lon="13.457547705620527">
        <ele>741</ele>
        <time>2026-08-29T16:13:23Z</time>
      </trkpt>
      <trkpt lat="50.5937609821558" lon="13.457599757239223">
        <ele>741</ele>
        <time>2026-08-29T16:13:24Z</time>
      </trkpt>
      <trkpt lat="50.593738267198205" lon="13.457650132477283">
        <ele>742</ele>
        <time>2026-08-29T16:13:25Z</time>
      </trkpt>
      <trkpt lat="50.593716809526086" lon="13.457701429724693">
        <ele>742</ele>
        <time>2026-08-29T16:13:26Z</time>
      </trkpt>
      <trkpt lat="50.593698788434267" lon="13.457755073904991">
        <ele>742</ele>
        <time>2026-08-29T16:13:27Z</time>
      </trkpt>
      <trkpt lat="50.593678839504719" lon="13.457808131352067">
        <ele>742</ele>
        <time>2026-08-29T16:13:28Z</time>
      </trkpt>
      <trkpt lat="50.593658471480012" lon="13.457869235426188">
        <ele>742</ele>
        <time>2026-08-29T16:13:29Z</time>
      </trkpt>
      <trkpt lat="50.593643048778176" lon="13.457932099699974">
        <ele>742</ele>
        <time>2026-08-29T16:13:30Z</time>
      </trkpt>
      <trkpt lat="50.593625530600548" lon="13.457989180460572">
        <ele>742</ele>
        <time>2026-08-29T16:13:31Z</time>
      </trkpt>
      <trkpt lat="50.593610526993871" lon="13.458046512678266">
        <ele>742</ele>
        <time>2026-08-29T16:13:32Z</time>
      </trkpt>
      <trkpt lat="50.593593595549464" lon="13.458104850724339">
        <ele>742</ele>
        <time>2026-08-29T16:13:33Z</time>
      </trkpt>
      <trkpt lat="50.593576747924089" lon="13.458161931484938">
        <ele>742</ele>
        <time>2026-08-29T16:13:34Z</time>
      </trkpt>
      <trkpt lat="50.593565097078681" lon="13.458220269531012">
        <ele>742</ele>
        <time>2026-08-29T16:13:35Z</time>
      </trkpt>
      <trkpt lat="50.593552021309733" lon="13.458276009187102">
        <ele>743</ele>
        <time>2026-08-29T16:13:36Z</time>
      </trkpt>
      <trkpt lat="50.593536850064993" lon="13.458342645317316">
        <ele>743</ele>
        <time>2026-08-29T16:13:37Z</time>
      </trkpt>
      <trkpt lat="50.59351815842092" lon="13.458407856523991">
        <ele>743</ele>
        <time>2026-08-29T16:13:38Z</time>
      </trkpt>
      <trkpt lat="50.593507932499051" lon="13.458469631150365">
        <ele>743</ele>
        <time>2026-08-29T16:13:39Z</time>
      </trkpt>
      <trkpt lat="50.593492342159152" lon="13.458530399948359">
        <ele>743</ele>
        <time>2026-08-29T16:13:40Z</time>
      </trkpt>
      <trkpt lat="50.593476919457316" lon="13.458589995279908">
        <ele>743</ele>
        <time>2026-08-29T16:13:41Z</time>
      </trkpt>
      <trkpt lat="50.593462837859988" lon="13.458648584783077">
        <ele>743</ele>
        <time>2026-08-29T16:13:42Z</time>
      </trkpt>
      <trkpt lat="50.593444900587201" lon="13.458713041618466">
        <ele>742</ele>
        <time>2026-08-29T16:13:43Z</time>
      </trkpt>
      <trkpt lat="50.593423778191209" lon="13.458771714940667">
        <ele>743</ele>
        <time>2026-08-29T16:13:44Z</time>
      </trkpt>
      <trkpt lat="50.593405002728105" lon="13.45882611349225">
        <ele>743</ele>
        <time>2026-08-29T16:13:45Z</time>
      </trkpt>
      <trkpt lat="50.593390082940459" lon="13.458881853148341">
        <ele>743</ele>
        <time>2026-08-29T16:13:46Z</time>
      </trkpt>
      <trkpt lat="50.593371810391545" lon="13.458947483450174">
        <ele>743</ele>
        <time>2026-08-29T16:13:47Z</time>
      </trkpt>
      <trkpt lat="50.593357812613249" lon="13.459010934457183">
        <ele>743</ele>
        <time>2026-08-29T16:13:48Z</time>
      </trkpt>
      <trkpt lat="50.593340881168842" lon="13.459068099036813">
        <ele>742</ele>
        <time>2026-08-29T16:13:49Z</time>
      </trkpt>
      <trkpt lat="50.593332834541798" lon="13.459130544215441">
        <ele>742</ele>
        <time>2026-08-29T16:13:50Z</time>
      </trkpt>
      <trkpt lat="50.593319088220596" lon="13.459191061556339">
        <ele>743</ele>
        <time>2026-08-29T16:13:51Z</time>
      </trkpt>
      <trkpt lat="50.593306180089712" lon="13.459248058497906">
        <ele>743</ele>
        <time>2026-08-29T16:13:52Z</time>
      </trkpt>
      <trkpt lat="50.593292769044638" lon="13.459300361573696">
        <ele>743</ele>
        <time>2026-08-29T16:13:53Z</time>
      </trkpt>
      <trkpt lat="50.593276508152485" lon="13.45934403128922">
        <ele>743</ele>
        <time>2026-08-29T16:13:54Z</time>
      </trkpt>
      <trkpt lat="50.593260247260332" lon="13.459392311051488">
        <ele>743</ele>
        <time>2026-08-29T16:13:55Z</time>
      </trkpt>
      <trkpt lat="50.593242393806577" lon="13.459451235830784">
        <ele>744</ele>
        <time>2026-08-29T16:13:56Z</time>
      </trkpt>
      <trkpt lat="50.593225210905075" lon="13.459522649645805">
        <ele>744</ele>
        <time>2026-08-29T16:13:57Z</time>
      </trkpt>
      <trkpt lat="50.593214565888047" lon="13.459577383473516">
        <ele>745</ele>
        <time>2026-08-29T16:13:58Z</time>
      </trkpt>
      <trkpt lat="50.593197802081704" lon="13.459637733176351">
        <ele>745</ele>
        <time>2026-08-29T16:13:59Z</time>
      </trkpt>
      <trkpt lat="50.593176009133458" lon="13.459701100364327">
        <ele>744</ele>
        <time>2026-08-29T16:14:00Z</time>
      </trkpt>
      <trkpt lat="50.593160251155496" lon="13.459774944931269">
        <ele>744</ele>
        <time>2026-08-29T16:14:01Z</time>
      </trkpt>
      <trkpt lat="50.593145079910755" lon="13.45984292216599">
        <ele>744</ele>
        <time>2026-08-29T16:14:02Z</time>
      </trkpt>
      <trkpt lat="50.593129489570856" lon="13.459915174171329">
        <ele>745</ele>
        <time>2026-08-29T16:14:03Z</time>
      </trkpt>
      <trkpt lat="50.593102248385549" lon="13.459982648491859">
        <ele>744</ele>
        <time>2026-08-29T16:14:04Z</time>
      </trkpt>
      <trkpt lat="50.593078443780541" lon="13.460048865526915">
        <ele>744</ele>
        <time>2026-08-29T16:14:05Z</time>
      </trkpt>
      <trkpt lat="50.593062182888389" lon="13.460114831104875">
        <ele>744</ele>
        <time>2026-08-29T16:14:06Z</time>
      </trkpt>
      <trkpt lat="50.593054890632629" lon="13.460179204121232">
        <ele>744</ele>
        <time>2026-08-29T16:14:07Z</time>
      </trkpt>
      <trkpt lat="50.593039048835635" lon="13.460261514410377">
        <ele>744</ele>
        <time>2026-08-29T16:14:08Z</time>
      </trkpt>
      <trkpt lat="50.593018848448992" lon="13.460343657061458">
        <ele>744</ele>
        <time>2026-08-29T16:14:09Z</time>
      </trkpt>
      <trkpt lat="50.593003258109093" lon="13.460438456386328">
        <ele>744</ele>
        <time>2026-08-29T16:14:10Z</time>
      </trkpt>
      <trkpt lat="50.592976855114102" lon="13.460513055324554">
        <ele>744</ele>
        <time>2026-08-29T16:14:11Z</time>
      </trkpt>
      <trkpt lat="50.592950703576207" lon="13.46059201285243">
        <ele>744</ele>
        <time>2026-08-29T16:14:12Z</time>
      </trkpt>
      <trkpt lat="50.592921450734138" lon="13.46068287268281">
        <ele>745</ele>
        <time>2026-08-29T16:14:13Z</time>
      </trkpt>
      <trkpt lat="50.592897981405258" lon="13.460757471621037">
        <ele>745</ele>
        <time>2026-08-29T16:14:14Z</time>
      </trkpt>
      <trkpt lat="50.592884570360184" lon="13.460823018103838">
        <ele>745</ele>
        <time>2026-08-29T16:14:15Z</time>
      </trkpt>
      <trkpt lat="50.59286680072546" lon="13.460885630920529">
        <ele>745</ele>
        <time>2026-08-29T16:14:16Z</time>
      </trkpt>
      <trkpt lat="50.592845678329468" lon="13.460948998108506">
        <ele>744</ele>
        <time>2026-08-29T16:14:17Z</time>
      </trkpt>
      <trkpt lat="50.592829920351505" lon="13.461017813533545">
        <ele>745</ele>
        <time>2026-08-29T16:14:18Z</time>
      </trkpt>
      <trkpt lat="50.592819107696414" lon="13.461079755797982">
        <ele>745</ele>
        <time>2026-08-29T16:14:19Z</time>
      </trkpt>
      <trkpt lat="50.592800248414278" lon="13.461143625900149">
        <ele>745</ele>
        <time>2026-08-29T16:14:20Z</time>
      </trkpt>
      <trkpt lat="50.592777701094747" lon="13.461217219009995">
        <ele>745</ele>
        <time>2026-08-29T16:14:21Z</time>
      </trkpt>
      <trkpt lat="50.592763870954514" lon="13.461290057748556">
        <ele>745</ele>
        <time>2026-08-29T16:14:22Z</time>
      </trkpt>
      <trkpt lat="50.59274610131979" lon="13.461355352774262">
        <ele>745</ele>
        <time>2026-08-29T16:14:23Z</time>
      </trkpt>
      <trkpt lat="50.592722380533814" lon="13.46142316237092">
        <ele>745</ele>
        <time>2026-08-29T16:14:24Z</time>
      </trkpt>
      <trkpt lat="50.592708634212613" lon="13.461488038301468">
        <ele>745</ele>
        <time>2026-08-29T16:14:25Z</time>
      </trkpt>
      <trkpt lat="50.592692708596587" lon="13.461546208709478">
        <ele>745</ele>
        <time>2026-08-29T16:14:26Z</time>
      </trkpt>
      <trkpt lat="50.592674938961864" lon="13.461609575897455">
        <ele>745</ele>
        <time>2026-08-29T16:14:27Z</time>
      </trkpt>
      <trkpt lat="50.592660270631313" lon="13.461676212027669">
        <ele>745</ele>
        <time>2026-08-29T16:14:28Z</time>
      </trkpt>
      <trkpt lat="50.592646356672049" lon="13.461736980825663">
        <ele>745</ele>
        <time>2026-08-29T16:14:29Z</time>
      </trkpt>
      <trkpt lat="50.592623976990581" lon="13.461801605299115">
        <ele>745</ele>
        <time>2026-08-29T16:14:30Z</time>
      </trkpt>
      <trkpt lat="50.592606458812952" lon="13.461871678009629">
        <ele>746</ele>
        <time>2026-08-29T16:14:31Z</time>
      </trkpt>
      <trkpt lat="50.592588689178228" lon="13.461932195350528">
        <ele>746</ele>
        <time>2026-08-29T16:14:32Z</time>
      </trkpt>
      <trkpt lat="50.592576619237661" lon="13.46198751591146">
        <ele>747</ele>
        <time>2026-08-29T16:14:33Z</time>
      </trkpt>
      <trkpt lat="50.592559101060033" lon="13.462032610550523">
        <ele>747</ele>
        <time>2026-08-29T16:14:34Z</time>
      </trkpt>
      <trkpt lat="50.592542085796595" lon="13.462080135941505">
        <ele>747</ele>
        <time>2026-08-29T16:14:35Z</time>
      </trkpt>
      <trkpt lat="50.59252766892314" lon="13.462135372683406">
        <ele>747</ele>
        <time>2026-08-29T16:14:36Z</time>
      </trkpt>
      <trkpt lat="50.592508390545845" lon="13.462191447615623">
        <ele>747</ele>
        <time>2026-08-29T16:14:37Z</time>
      </trkpt>
      <trkpt lat="50.592492381110787" lon="13.462254479527473">
        <ele>747</ele>
        <time>2026-08-29T16:14:38Z</time>
      </trkpt>
      <trkpt lat="50.592476623132825" lon="13.462320612743497">
        <ele>747</ele>
        <time>2026-08-29T16:14:39Z</time>
      </trkpt>
      <trkpt lat="50.592465391382575" lon="13.46238037571311">
        <ele>747</ele>
        <time>2026-08-29T16:14:40Z</time>
      </trkpt>
      <trkpt lat="50.592443849891424" lon="13.462422201409936">
        <ele>747</ele>
        <time>2026-08-29T16:14:41Z</time>
      </trkpt>
      <trkpt lat="50.592423649504781" lon="13.462472492828965">
        <ele>747</ele>
        <time>2026-08-29T16:14:42Z</time>
      </trkpt>
      <trkpt lat="50.592408310621977" lon="13.462538039311767">
        <ele>747</ele>
        <time>2026-08-29T16:14:43Z</time>
      </trkpt>
      <trkpt lat="50.592386685311794" lon="13.462596042081714">
        <ele>747</ele>
        <time>2026-08-29T16:14:44Z</time>
      </trkpt>
      <trkpt lat="50.592365814372897" lon="13.462654380127788">
        <ele>747</ele>
        <time>2026-08-29T16:14:45Z</time>
      </trkpt>
      <trkpt lat="50.592342261224985" lon="13.462722022086382">
        <ele>748</ele>
        <time>2026-08-29T16:14:46Z</time>
      </trkpt>
      <trkpt lat="50.59232541359961" lon="13.462777677923441">
        <ele>748</ele>
        <time>2026-08-29T16:14:47Z</time>
      </trkpt>
      <trkpt lat="50.592307141050696" lon="13.462829310446978">
        <ele>748</ele>
        <time>2026-08-29T16:14:48Z</time>
      </trkpt>
      <trkpt lat="50.592290041968226" lon="13.462893767282367">
        <ele>748</ele>
        <time>2026-08-29T16:14:49Z</time>
      </trkpt>
      <trkpt lat="50.592277301475406" lon="13.462949339300394">
        <ele>748</ele>
        <time>2026-08-29T16:14:50Z</time>
      </trkpt>
      <trkpt lat="50.59226430952549" lon="13.462999546900392">
        <ele>748</ele>
        <time>2026-08-29T16:14:51Z</time>
      </trkpt>
      <trkpt lat="50.592243354767561" lon="13.46304640173912">
        <ele>748</ele>
        <time>2026-08-29T16:14:52Z</time>
      </trkpt>
      <trkpt lat="50.592223405838013" lon="13.463091161102057">
        <ele>748</ele>
        <time>2026-08-29T16:14:53Z</time>
      </trkpt>
      <trkpt lat="50.592203373089433" lon="13.463135669007897">
        <ele>748</ele>
        <time>2026-08-29T16:14:54Z</time>
      </trkpt>
      <trkpt lat="50.592184597626328" lon="13.463197443634272">
        <ele>748</ele>
        <time>2026-08-29T16:14:55Z</time>
      </trkpt>
      <trkpt lat="50.592160457745194" lon="13.463261984288692">
        <ele>748</ele>
        <time>2026-08-29T16:14:56Z</time>
      </trkpt>
      <trkpt lat="50.59214168228209" lon="13.463313449174166">
        <ele>748</ele>
        <time>2026-08-29T16:14:57Z</time>
      </trkpt>
      <trkpt lat="50.592122655361891" lon="13.463363824412227">
        <ele>748</ele>
        <time>2026-08-29T16:14:58Z</time>
      </trkpt>
      <trkpt lat="50.592109160497785" lon="13.463425179943442">
        <ele>748</ele>
        <time>2026-08-29T16:14:59Z</time>
      </trkpt>
      <trkpt lat="50.592086529359221" lon="13.463491229340434">
        <ele>748</ele>
        <time>2026-08-29T16:15:00Z</time>
      </trkpt>
      <trkpt lat="50.592065826058388" lon="13.463556440547109">
        <ele>749</ele>
        <time>2026-08-29T16:15:01Z</time>
      </trkpt>
      <trkpt lat="50.592041853815317" lon="13.463623663410544">
        <ele>750</ele>
        <time>2026-08-29T16:15:02Z</time>
      </trkpt>
      <trkpt lat="50.592020312324166" lon="13.463695077225566">
        <ele>750</ele>
        <time>2026-08-29T16:15:03Z</time>
      </trkpt>
      <trkpt lat="50.591994076967239" lon="13.463761378079653">
        <ele>751</ele>
        <time>2026-08-29T16:15:04Z</time>
      </trkpt>
      <trkpt lat="50.591967338696122" lon="13.463825667276978">
        <ele>751</ele>
        <time>2026-08-29T16:15:05Z</time>
      </trkpt>
      <trkpt lat="50.591936577111483" lon="13.463878221809864">
        <ele>751</ele>
        <time>2026-08-29T16:15:06Z</time>
      </trkpt>
      <trkpt lat="50.591913023963571" lon="13.46392490901053">
        <ele>751</ele>
        <time>2026-08-29T16:15:07Z</time>
      </trkpt>
      <trkpt lat="50.591892320662737" lon="13.463976960629225">
        <ele>752</ele>
        <time>2026-08-29T16:15:08Z</time>
      </trkpt>
      <trkpt lat="50.591867510229349" lon="13.464019792154431">
        <ele>752</ele>
        <time>2026-08-29T16:15:09Z</time>
      </trkpt>
      <trkpt lat="50.591842196881771" lon="13.464079136028886">
        <ele>752</ele>
        <time>2026-08-29T16:15:10Z</time>
      </trkpt>
      <trkpt lat="50.591818727552891" lon="13.464145185425878">
        <ele>752</ele>
        <time>2026-08-29T16:15:11Z</time>
      </trkpt>
      <trkpt lat="50.591796347871423" lon="13.464202014729381">
        <ele>753</ele>
        <time>2026-08-29T16:15:12Z</time>
      </trkpt>
      <trkpt lat="50.591782601550221" lon="13.464260436594486">
        <ele>753</ele>
        <time>2026-08-29T16:15:13Z</time>
      </trkpt>
      <trkpt lat="50.591762317344546" lon="13.464321624487638">
        <ele>753</ele>
        <time>2026-08-29T16:15:14Z</time>
      </trkpt>
      <trkpt lat="50.59174002148211" lon="13.464385326951742">
        <ele>753</ele>
        <time>2026-08-29T16:15:15Z</time>
      </trkpt>
      <trkpt lat="50.591718479990959" lon="13.464452968910336">
        <ele>754</ele>
        <time>2026-08-29T16:15:16Z</time>
      </trkpt>
      <trkpt lat="50.591693837195635" lon="13.464518096297979">
        <ele>753</ele>
        <time>2026-08-29T16:15:17Z</time>
      </trkpt>
      <trkpt lat="50.591667937114835" lon="13.464578194543719">
        <ele>753</ele>
        <time>2026-08-29T16:15:18Z</time>
      </trkpt>
      <trkpt lat="50.591644467785954" lon="13.464639047160745">
        <ele>754</ele>
        <time>2026-08-29T16:15:19Z</time>
      </trkpt>
      <trkpt lat="50.591617729514837" lon="13.464695876464248">
        <ele>754</ele>
        <time>2026-08-29T16:15:20Z</time>
      </trkpt>
      <trkpt lat="50.591590153053403" lon="13.464753711596131">
        <ele>754</ele>
        <time>2026-08-29T16:15:21Z</time>
      </trkpt>
      <trkpt lat="50.591568863019347" lon="13.46481129527092">
        <ele>755</ele>
        <time>2026-08-29T16:15:22Z</time>
      </trkpt>
      <trkpt lat="50.591547908261418" lon="13.464881870895624">
        <ele>754</ele>
        <time>2026-08-29T16:15:23Z</time>
      </trkpt>
      <trkpt lat="50.59153282083571" lon="13.464946998283267">
        <ele>754</ele>
        <time>2026-08-29T16:15:24Z</time>
      </trkpt>
      <trkpt lat="50.591503232717514" lon="13.465007096529007">
        <ele>754</ele>
        <time>2026-08-29T16:15:25Z</time>
      </trkpt>
      <trkpt lat="50.591479344293475" lon="13.465069457888603">
        <ele>755</ele>
        <time>2026-08-29T16:15:26Z</time>
      </trkpt>
      <trkpt lat="50.591455288231373" lon="13.465123688802123">
        <ele>755</ele>
        <time>2026-08-29T16:15:27Z</time>
      </trkpt>
      <trkpt lat="50.591428130865097" lon="13.465185547247529">
        <ele>755</ele>
        <time>2026-08-29T16:15:28Z</time>
      </trkpt>
      <trkpt lat="50.591406002640724" lon="13.465245310217142">
        <ele>755</ele>
        <time>2026-08-29T16:15:29Z</time>
      </trkpt>
      <trkpt lat="50.591379599645734" lon="13.465309599414468">
        <ele>755</ele>
        <time>2026-08-29T16:15:30Z</time>
      </trkpt>
      <trkpt lat="50.591353448107839" lon="13.465367937460542">
        <ele>755</ele>
        <time>2026-08-29T16:15:31Z</time>
      </trkpt>
      <trkpt lat="50.591325955465436" lon="13.465433064848185">
        <ele>754</ele>
        <time>2026-08-29T16:15:32Z</time>
      </trkpt>
      <trkpt lat="50.591303659603" lon="13.46548805013299">
        <ele>755</ele>
        <time>2026-08-29T16:15:33Z</time>
      </trkpt>
      <trkpt lat="50.591276837512851" lon="13.46554814837873">
        <ele>755</ele>
        <time>2026-08-29T16:15:34Z</time>
      </trkpt>
      <trkpt lat="50.591255128383636" lon="13.465614449232817">
        <ele>755</ele>
        <time>2026-08-29T16:15:35Z</time>
      </trkpt>
      <trkpt lat="50.59123232960701" lon="13.465676140040159">
        <ele>755</ele>
        <time>2026-08-29T16:15:36Z</time>
      </trkpt>
      <trkpt lat="50.591212548315525" lon="13.465733639895916">
        <ele>755</ele>
        <time>2026-08-29T16:15:37Z</time>
      </trkpt>
      <trkpt lat="50.591192431747913" lon="13.465788122266531">
        <ele>754</ele>
        <time>2026-08-29T16:15:38Z</time>
      </trkpt>
      <trkpt lat="50.591166699305177" lon="13.465840928256512">
        <ele>753</ele>
        <time>2026-08-29T16:15:39Z</time>
      </trkpt>
      <trkpt lat="50.591144319623709" lon="13.465897003188729">
        <ele>753</ele>
        <time>2026-08-29T16:15:40Z</time>
      </trkpt>
      <trkpt lat="50.591119593009353" lon="13.465940421447158">
        <ele>753</ele>
        <time>2026-08-29T16:15:41Z</time>
      </trkpt>
      <trkpt lat="50.591096878051758" lon="13.465995406731963">
        <ele>753</ele>
        <time>2026-08-29T16:15:42Z</time>
      </trkpt>
      <trkpt lat="50.591073576360941" lon="13.466054415330291">
        <ele>753</ele>
        <time>2026-08-29T16:15:43Z</time>
      </trkpt>
      <trkpt lat="50.591049017384648" lon="13.466114765033126">
        <ele>753</ele>
        <time>2026-08-29T16:15:44Z</time>
      </trkpt>
      <trkpt lat="50.591029319912195" lon="13.466182993724942">
        <ele>753</ele>
        <time>2026-08-29T16:15:45Z</time>
      </trkpt>
      <trkpt lat="50.591009873896837" lon="13.466246277093887">
        <ele>752</ele>
        <time>2026-08-29T16:15:46Z</time>
      </trkpt>
      <trkpt lat="50.590987410396338" lon="13.466302938759327">
        <ele>752</ele>
        <time>2026-08-29T16:15:47Z</time>
      </trkpt>
      <trkpt lat="50.590967210009694" lon="13.466365803033113">
        <ele>752</ele>
        <time>2026-08-29T16:15:48Z</time>
      </trkpt>
      <trkpt lat="50.59094550088048" lon="13.4664286673069">
        <ele>753</ele>
        <time>2026-08-29T16:15:49Z</time>
      </trkpt>
      <trkpt lat="50.590920271351933" lon="13.466497147455812">
        <ele>753</ele>
        <time>2026-08-29T16:15:50Z</time>
      </trkpt>
      <trkpt lat="50.590891940519214" lon="13.466569483280182">
        <ele>753</ele>
        <time>2026-08-29T16:15:51Z</time>
      </trkpt>
      <trkpt lat="50.59087467379868" lon="13.466637963429093">
        <ele>753</ele>
        <time>2026-08-29T16:15:52Z</time>
      </trkpt>
      <trkpt lat="50.590849360451102" lon="13.466703426092863">
        <ele>753</ele>
        <time>2026-08-29T16:15:53Z</time>
      </trkpt>
      <trkpt lat="50.590833351016045" lon="13.466769391670823">
        <ele>753</ele>
        <time>2026-08-29T16:15:54Z</time>
      </trkpt>
      <trkpt lat="50.590807870030403" lon="13.466833932325244">
        <ele>753</ele>
        <time>2026-08-29T16:15:55Z</time>
      </trkpt>
      <trkpt lat="50.590786663815379" lon="13.46690408885479">
        <ele>753</ele>
        <time>2026-08-29T16:15:56Z</time>
      </trkpt>
      <trkpt lat="50.590768726542592" lon="13.466974496841431">
        <ele>754</ele>
        <time>2026-08-29T16:15:57Z</time>
      </trkpt>
      <trkpt lat="50.590743077918887" lon="13.467042725533247">
        <ele>753</ele>
        <time>2026-08-29T16:15:58Z</time>
      </trkpt>
      <trkpt lat="50.59071877039969" lon="13.467123694717884">
        <ele>754</ele>
        <time>2026-08-29T16:15:59Z</time>
      </trkpt>
      <trkpt lat="50.590693121775985" lon="13.467188319191337">
        <ele>754</ele>
        <time>2026-08-29T16:16:00Z</time>
      </trkpt>
      <trkpt lat="50.590668311342597" lon="13.467257553711534">
        <ele>754</ele>
        <time>2026-08-29T16:16:01Z</time>
      </trkpt>
      <trkpt lat="50.590644339099526" lon="13.467326369136572">
        <ele>754</ele>
        <time>2026-08-29T16:16:02Z</time>
      </trkpt>
      <trkpt lat="50.590622210875154" lon="13.467391915619373">
        <ele>755</ele>
        <time>2026-08-29T16:16:03Z</time>
      </trkpt>
      <trkpt lat="50.590601759031415" lon="13.467457462102175">
        <ele>755</ele>
        <time>2026-08-29T16:16:04Z</time>
      </trkpt>
      <trkpt lat="50.590578457340598" lon="13.46752317622304">
        <ele>755</ele>
        <time>2026-08-29T16:16:05Z</time>
      </trkpt>
      <trkpt lat="50.590555239468813" lon="13.467590315267444">
        <ele>755</ele>
        <time>2026-08-29T16:16:06Z</time>
      </trkpt>
      <trkpt lat="50.590533697977662" lon="13.467657873407006">
        <ele>755</ele>
        <time>2026-08-29T16:16:07Z</time>
      </trkpt>
      <trkpt lat="50.590511318296194" lon="13.467731801792979">
        <ele>755</ele>
        <time>2026-08-29T16:16:08Z</time>
      </trkpt>
      <trkpt lat="50.590486926957965" lon="13.46780271269381">
        <ele>754</ele>
        <time>2026-08-29T16:16:09Z</time>
      </trkpt>
      <trkpt lat="50.59046370908618" lon="13.467870522290468">
        <ele>754</ele>
        <time>2026-08-29T16:16:10Z</time>
      </trkpt>
      <trkpt lat="50.59044417925179" lon="13.46794294193387">
        <ele>755</ele>
        <time>2026-08-29T16:16:11Z</time>
      </trkpt>
      <trkpt lat="50.590423727408051" lon="13.46801963634789">
        <ele>754</ele>
        <time>2026-08-29T16:16:12Z</time>
      </trkpt>
      <trkpt lat="50.590406376868486" lon="13.468096498399973">
        <ele>754</ele>
        <time>2026-08-29T16:16:13Z</time>
      </trkpt>
      <trkpt lat="50.590383326634765" lon="13.468171432614326">
        <ele>754</ele>
        <time>2026-08-29T16:16:14Z</time>
      </trkpt>
      <trkpt lat="50.590369161218405" lon="13.468236895278096">
        <ele>754</ele>
        <time>2026-08-29T16:16:15Z</time>
      </trkpt>
      <trkpt lat="50.590354660525918" lon="13.468317361548543">
        <ele>754</ele>
        <time>2026-08-29T16:16:16Z</time>
      </trkpt>
      <trkpt lat="50.590340159833431" lon="13.468404952436686">
        <ele>754</ele>
        <time>2026-08-29T16:16:17Z</time>
      </trkpt>
      <trkpt lat="50.590333286672831" lon="13.46848089247942">
        <ele>754</ele>
        <time>2026-08-29T16:16:18Z</time>
      </trkpt>
      <trkpt lat="50.590324318036437" lon="13.468556832522154">
        <ele>754</ele>
        <time>2026-08-29T16:16:19Z</time>
      </trkpt>
      <trkpt lat="50.590318869799376" lon="13.468641908839345">
        <ele>754</ele>
        <time>2026-08-29T16:16:20Z</time>
      </trkpt>
      <trkpt lat="50.590316103771329" lon="13.468728326261044">
        <ele>754</ele>
        <time>2026-08-29T16:16:21Z</time>
      </trkpt>
      <trkpt lat="50.590302273631096" lon="13.468814492225647">
        <ele>754</ele>
        <time>2026-08-29T16:16:22Z</time>
      </trkpt>
      <trkpt lat="50.590299507603049" lon="13.468893282115459">
        <ele>754</ele>
        <time>2026-08-29T16:16:23Z</time>
      </trkpt>
      <trkpt lat="50.590293807908893" lon="13.468966791406274">
        <ele>754</ele>
        <time>2026-08-29T16:16:24Z</time>
      </trkpt>
      <trkpt lat="50.590289197862148" lon="13.469041977077723">
        <ele>754</ele>
        <time>2026-08-29T16:16:25Z</time>
      </trkpt>
      <trkpt lat="50.590286431834102" lon="13.469123197719455">
        <ele>754</ele>
        <time>2026-08-29T16:16:26Z</time>
      </trkpt>
      <trkpt lat="50.590277630835772" lon="13.469202658161521">
        <ele>754</ele>
        <time>2026-08-29T16:16:27Z</time>
      </trkpt>
      <trkpt lat="50.590267740190029" lon="13.469285303726792">
        <ele>754</ele>
        <time>2026-08-29T16:16:28Z</time>
      </trkpt>
      <trkpt lat="50.590261621400714" lon="13.46937507390976">
        <ele>754</ele>
        <time>2026-08-29T16:16:29Z</time>
      </trkpt>
      <trkpt lat="50.590251227840781" lon="13.469464341178536">
        <ele>754</ele>
        <time>2026-08-29T16:16:30Z</time>
      </trkpt>
      <trkpt lat="50.590236810967326" lon="13.469547154381871">
        <ele>754</ele>
        <time>2026-08-29T16:16:31Z</time>
      </trkpt>
      <trkpt lat="50.590227590873837" lon="13.469640696421266">
        <ele>754</ele>
        <time>2026-08-29T16:16:32Z</time>
      </trkpt>
      <trkpt lat="50.590217281132936" lon="13.469725772738457">
        <ele>755</ele>
        <time>2026-08-29T16:16:33Z</time>
      </trkpt>
      <trkpt lat="50.590210659429431" lon="13.469806825742126">
        <ele>755</ele>
        <time>2026-08-29T16:16:34Z</time>
      </trkpt>
      <trkpt lat="50.590202948078513" lon="13.469900283962488">
        <ele>754</ele>
        <time>2026-08-29T16:16:35Z</time>
      </trkpt>
      <trkpt lat="50.590192219242454" lon="13.469986030831933">
        <ele>754</ele>
        <time>2026-08-29T16:16:36Z</time>
      </trkpt>
      <trkpt lat="50.590184675529599" lon="13.470073705539107">
        <ele>754</ele>
        <time>2026-08-29T16:16:37Z</time>
      </trkpt>
      <trkpt lat="50.590172857046127" lon="13.470168085768819">
        <ele>754</ele>
        <time>2026-08-29T16:16:38Z</time>
      </trkpt>
      <trkpt lat="50.590159613639116" lon="13.470255089923739">
        <ele>754</ele>
        <time>2026-08-29T16:16:39Z</time>
      </trkpt>
      <trkpt lat="50.590156931430101" lon="13.470349973067641">
        <ele>753</ele>
        <time>2026-08-29T16:16:40Z</time>
      </trkpt>
      <trkpt lat="50.59014511294663" lon="13.470435133203864">
        <ele>753</ele>
        <time>2026-08-29T16:16:41Z</time>
      </trkpt>
      <trkpt lat="50.590140921995044" lon="13.47051702439785">
        <ele>753</ele>
        <time>2026-08-29T16:16:42Z</time>
      </trkpt>
      <trkpt lat="50.590126756578684" lon="13.470594892278314">
        <ele>753</ele>
        <time>2026-08-29T16:16:43Z</time>
      </trkpt>
      <trkpt lat="50.59011678211391" lon="13.470687512308359">
        <ele>752</ele>
        <time>2026-08-29T16:16:44Z</time>
      </trkpt>
      <trkpt lat="50.590099599212408" lon="13.470787676051259">
        <ele>752</ele>
        <time>2026-08-29T16:16:45Z</time>
      </trkpt>
      <trkpt lat="50.590090462937951" lon="13.470877110958099">
        <ele>752</ele>
        <time>2026-08-29T16:16:46Z</time>
      </trkpt>
      <trkpt lat="50.590079482644796" lon="13.470966294407845">
        <ele>753</ele>
        <time>2026-08-29T16:16:47Z</time>
      </trkpt>
      <trkpt lat="50.590069759637117" lon="13.471052041277289">
        <ele>753</ele>
        <time>2026-08-29T16:16:48Z</time>
      </trkpt>
      <trkpt lat="50.590059868991375" lon="13.471141895279288">
        <ele>753</ele>
        <time>2026-08-29T16:16:49Z</time>
      </trkpt>
      <trkpt lat="50.590048721060157" lon="13.471227725967765">
        <ele>752</ele>
        <time>2026-08-29T16:16:50Z</time>
      </trkpt>
      <trkpt lat="50.590035477653146" lon="13.471314981579781">
        <ele>752</ele>
        <time>2026-08-29T16:16:51Z</time>
      </trkpt>
      <trkpt lat="50.590026928111911" lon="13.471406847238541">
        <ele>752</ele>
        <time>2026-08-29T16:16:52Z</time>
      </trkpt>
      <trkpt lat="50.590018127113581" lon="13.471491253003478">
        <ele>753</ele>
        <time>2026-08-29T16:16:53Z</time>
      </trkpt>
      <trkpt lat="50.59000295586884" lon="13.471573647111654">
        <ele>753</ele>
        <time>2026-08-29T16:16:54Z</time>
      </trkpt>
      <trkpt lat="50.589997172355652" lon="13.471650676801801">
        <ele>752</ele>
        <time>2026-08-29T16:16:55Z</time>
      </trkpt>
      <trkpt lat="50.589986694976687" lon="13.471733909100294">
        <ele>752</ele>
        <time>2026-08-29T16:16:56Z</time>
      </trkpt>
      <trkpt lat="50.589972781017423" lon="13.471817644312978">
        <ele>753</ele>
        <time>2026-08-29T16:16:57Z</time>
      </trkpt>
      <trkpt lat="50.589963728561997" lon="13.471896015107632">
        <ele>752</ele>
        <time>2026-08-29T16:16:58Z</time>
      </trkpt>
      <trkpt lat="50.589951574802399" lon="13.471978744491935">
        <ele>753</ele>
        <time>2026-08-29T16:16:59Z</time>
      </trkpt>
      <trkpt lat="50.589936152100563" lon="13.47205719910562">
        <ele>753</ele>
        <time>2026-08-29T16:17:00Z</time>
      </trkpt>
      <trkpt lat="50.589931290596724" lon="13.472147220745683">
        <ele>752</ele>
        <time>2026-08-29T16:17:01Z</time>
      </trkpt>
      <trkpt lat="50.589923914521933" lon="13.472228944301605">
        <ele>752</ele>
        <time>2026-08-29T16:17:02Z</time>
      </trkpt>
      <trkpt lat="50.589911341667175" lon="13.472314104437828">
        <ele>752</ele>
        <time>2026-08-29T16:17:03Z</time>
      </trkpt>
      <trkpt lat="50.58990228921175" lon="13.472405718639493">
        <ele>752</ele>
        <time>2026-08-29T16:17:04Z</time>
      </trkpt>
      <trkpt lat="50.589892398566008" lon="13.4725003503263">
        <ele>752</ele>
        <time>2026-08-29T16:17:05Z</time>
      </trkpt>
      <trkpt lat="50.589874880388379" lon="13.472587019205093">
        <ele>751</ele>
        <time>2026-08-29T16:17:06Z</time>
      </trkpt>
      <trkpt lat="50.589857110753655" lon="13.472682824358344">
        <ele>751</ele>
        <time>2026-08-29T16:17:07Z</time>
      </trkpt>
      <trkpt lat="50.589842442423105" lon="13.472787598147988">
        <ele>752</ele>
        <time>2026-08-29T16:17:08Z</time>
      </trkpt>
      <trkpt lat="50.589828779920936" lon="13.472884492948651">
        <ele>751</ele>
        <time>2026-08-29T16:17:09Z</time>
      </trkpt>
      <trkpt lat="50.589820649474859" lon="13.472981387749314">
        <ele>751</ele>
        <time>2026-08-29T16:17:10Z</time>
      </trkpt>
      <trkpt lat="50.589806567877531" lon="13.473080797120929">
        <ele>751</ele>
        <time>2026-08-29T16:17:11Z</time>
      </trkpt>
      <trkpt lat="50.589795587584376" lon="13.473185319453478">
        <ele>751</ele>
        <time>2026-08-29T16:17:12Z</time>
      </trkpt>
      <trkpt lat="50.589784439653158" lon="13.47328900359571">
        <ele>752</ele>
        <time>2026-08-29T16:17:13Z</time>
      </trkpt>
      <trkpt lat="50.589775303378701" lon="13.473389502614737">
        <ele>752</ele>
        <time>2026-08-29T16:17:14Z</time>
      </trkpt>
      <trkpt lat="50.589762143790722" lon="13.473492348566651">
        <ele>752</ele>
        <time>2026-08-29T16:17:15Z</time>
      </trkpt>
      <trkpt lat="50.589744541794062" lon="13.47359050065279">
        <ele>751</ele>
        <time>2026-08-29T16:17:16Z</time>
      </trkpt>
      <trkpt lat="50.589731549844146" lon="13.473692173138261">
        <ele>751</ele>
        <time>2026-08-29T16:17:17Z</time>
      </trkpt>
      <trkpt lat="50.5897166300565" lon="13.473796360194683">
        <ele>751</ele>
        <time>2026-08-29T16:17:18Z</time>
      </trkpt>
      <trkpt lat="50.589697938412428" lon="13.473898954689503">
        <ele>751</ele>
        <time>2026-08-29T16:17:19Z</time>
      </trkpt>
      <trkpt lat="50.589679917320609" lon="13.474005572497845">
        <ele>751</ele>
        <time>2026-08-29T16:17:20Z</time>
      </trkpt>
      <trkpt lat="50.589660471305251" lon="13.474106322973967">
        <ele>751</ele>
        <time>2026-08-29T16:17:21Z</time>
      </trkpt>
      <trkpt lat="50.589639600366354" lon="13.474215706810355">
        <ele>752</ele>
        <time>2026-08-29T16:17:22Z</time>
      </trkpt>
      <trkpt lat="50.589620908722281" lon="13.474328108131886">
        <ele>751</ele>
        <time>2026-08-29T16:17:23Z</time>
      </trkpt>
      <trkpt lat="50.589605234563351" lon="13.474428690969944">
        <ele>751</ele>
        <time>2026-08-29T16:17:24Z</time>
      </trkpt>
      <trkpt lat="50.589588470757008" lon="13.474525669589639">
        <ele>750</ele>
        <time>2026-08-29T16:17:25Z</time>
      </trkpt>
      <trkpt lat="50.589580507948995" lon="13.474615104496479">
        <ele>750</ele>
        <time>2026-08-29T16:17:26Z</time>
      </trkpt>
      <trkpt lat="50.589568689465523" lon="13.474702443927526">
        <ele>750</ele>
        <time>2026-08-29T16:17:27Z</time>
      </trkpt>
      <trkpt lat="50.589554104954004" lon="13.474791459739208">
        <ele>750</ele>
        <time>2026-08-29T16:17:28Z</time>
      </trkpt>
      <trkpt lat="50.589537005871534" lon="13.474884079769254">
        <ele>750</ele>
        <time>2026-08-29T16:17:29Z</time>
      </trkpt>
      <trkpt lat="50.589516889303923" lon="13.474970161914825">
        <ele>750</ele>
        <time>2026-08-29T16:17:30Z</time>
      </trkpt>
      <trkpt lat="50.589493839070201" lon="13.47505833953619">
        <ele>750</ele>
        <time>2026-08-29T16:17:31Z</time>
      </trkpt>
      <trkpt lat="50.589478248730302" lon="13.475145259872079">
        <ele>750</ele>
        <time>2026-08-29T16:17:32Z</time>
      </trkpt>
      <trkpt lat="50.58946006000042" lon="13.4752357006073">
        <ele>750</ele>
        <time>2026-08-29T16:17:33Z</time>
      </trkpt>
      <trkpt lat="50.58944882825017" lon="13.475329158827662">
        <ele>750</ele>
        <time>2026-08-29T16:17:34Z</time>
      </trkpt>
      <trkpt lat="50.589428627863526" lon="13.475419515743852">
        <ele>749</ele>
        <time>2026-08-29T16:17:35Z</time>
      </trkpt>
      <trkpt lat="50.589417479932308" lon="13.475512890145183">
        <ele>749</ele>
        <time>2026-08-29T16:17:36Z</time>
      </trkpt>
      <trkpt lat="50.58941513299942" lon="13.475611126050353">
        <ele>749</ele>
        <time>2026-08-29T16:17:37Z</time>
      </trkpt>
      <trkpt lat="50.589408427476883" lon="13.475712379440665">
        <ele>748</ele>
        <time>2026-08-29T16:17:38Z</time>
      </trkpt>
      <trkpt lat="50.589400883764029" lon="13.475807430222631">
        <ele>748</ele>
        <time>2026-08-29T16:17:39Z</time>
      </trkpt>
      <trkpt lat="50.589391579851508" lon="13.475922346115112">
        <ele>748</ele>
        <time>2026-08-29T16:17:40Z</time>
      </trkpt>
      <trkpt lat="50.589383114129305" lon="13.476043716073036">
        <ele>749</ele>
        <time>2026-08-29T16:17:41Z</time>
      </trkpt>
      <trkpt lat="50.589375318959355" lon="13.476153016090393">
        <ele>749</ele>
        <time>2026-08-29T16:17:42Z</time>
      </trkpt>
      <trkpt lat="50.589367356151342" lon="13.47626181319356">
        <ele>749</ele>
        <time>2026-08-29T16:17:43Z</time>
      </trkpt>
      <trkpt lat="50.589364673942327" lon="13.476368933916092">
        <ele>750</ele>
        <time>2026-08-29T16:17:44Z</time>
      </trkpt>
      <trkpt lat="50.589367188513279" lon="13.476471109315753">
        <ele>750</ele>
        <time>2026-08-29T16:17:45Z</time>
      </trkpt>
      <trkpt lat="50.58936970308423" lon="13.476576553657651">
        <ele>751</ele>
        <time>2026-08-29T16:17:46Z</time>
      </trkpt>
      <trkpt lat="50.589369367808104" lon="13.476679734885693">
        <ele>751</ele>
        <time>2026-08-29T16:17:47Z</time>
      </trkpt>
      <trkpt lat="50.589368613436818" lon="13.47678710706532">
        <ele>751</ele>
        <time>2026-08-29T16:17:48Z</time>
      </trkpt>
      <trkpt lat="50.589366517961025" lon="13.476891713216901">
        <ele>751</ele>
        <time>2026-08-29T16:17:49Z</time>
      </trkpt>
      <trkpt lat="50.589367272332311" lon="13.476994056254625">
        <ele>751</ele>
        <time>2026-08-29T16:17:50Z</time>
      </trkpt>
      <trkpt lat="50.589370960369706" lon="13.477085921913385">
        <ele>751</ele>
        <time>2026-08-29T16:17:51Z</time>
      </trkpt>
      <trkpt lat="50.589373642578721" lon="13.477177368476987">
        <ele>752</ele>
        <time>2026-08-29T16:17:52Z</time>
      </trkpt>
      <trkpt lat="50.589376157149673" lon="13.477271078154445">
        <ele>753</ele>
        <time>2026-08-29T16:17:53Z</time>
      </trkpt>
      <trkpt lat="50.589374899864197" lon="13.477361183613539">
        <ele>753</ele>
        <time>2026-08-29T16:17:54Z</time>
      </trkpt>
      <trkpt lat="50.589373977854848" lon="13.477448606863618">
        <ele>753</ele>
        <time>2026-08-29T16:17:55Z</time>
      </trkpt>
      <trkpt lat="50.589375905692577" lon="13.477532509714365">
        <ele>754</ele>
        <time>2026-08-29T16:17:56Z</time>
      </trkpt>
      <trkpt lat="50.589379342272878" lon="13.477612305432558">
        <ele>754</ele>
        <time>2026-08-29T16:17:57Z</time>
      </trkpt>
      <trkpt lat="50.589382359758019" lon="13.477688580751419">
        <ele>754</ele>
        <time>2026-08-29T16:17:58Z</time>
      </trkpt>
      <trkpt lat="50.589382527396083" lon="13.477764604613185">
        <ele>754</ele>
        <time>2026-08-29T16:17:59Z</time>
      </trkpt>
      <trkpt lat="50.589382778853178" lon="13.47784255631268">
        <ele>754</ele>
        <time>2026-08-29T16:18:00Z</time>
      </trkpt>
      <trkpt lat="50.589386047795415" lon="13.4779192507267">
        <ele>755</ele>
        <time>2026-08-29T16:18:01Z</time>
      </trkpt>
      <trkpt lat="50.589386466890574" lon="13.477996028959751">
        <ele>755</ele>
        <time>2026-08-29T16:18:02Z</time>
      </trkpt>
      <trkpt lat="50.58938579633832" lon="13.478071549907327">
        <ele>755</ele>
        <time>2026-08-29T16:18:03Z</time>
      </trkpt>
      <trkpt lat="50.589387807995081" lon="13.478143382817507">
        <ele>756</ele>
        <time>2026-08-29T16:18:04Z</time>
      </trkpt>
      <trkpt lat="50.589389316737652" lon="13.478209432214499">
        <ele>756</ele>
        <time>2026-08-29T16:18:05Z</time>
      </trkpt>
      <trkpt lat="50.58939166367054" lon="13.478276319801807">
        <ele>756</ele>
        <time>2026-08-29T16:18:06Z</time>
      </trkpt>
      <trkpt lat="50.589387807995081" lon="13.478340776637197">
        <ele>756</ele>
        <time>2026-08-29T16:18:07Z</time>
      </trkpt>
      <trkpt lat="50.589384371414781" lon="13.478400036692619">
        <ele>756</ele>
        <time>2026-08-29T16:18:08Z</time>
      </trkpt>
      <trkpt lat="50.58937800116837" lon="13.478455357253551">
        <ele>756</ele>
        <time>2026-08-29T16:18:09Z</time>
      </trkpt>
      <trkpt lat="50.589372217655182" lon="13.478516628965735">
        <ele>757</ele>
        <time>2026-08-29T16:18:10Z</time>
      </trkpt>
      <trkpt lat="50.589367691427469" lon="13.478574715554714">
        <ele>757</ele>
        <time>2026-08-29T16:18:11Z</time>
      </trkpt>
      <trkpt lat="50.589360818266869" lon="13.478632885962725">
        <ele>757</ele>
        <time>2026-08-29T16:18:12Z</time>
      </trkpt>
      <trkpt lat="50.589352939277887" lon="13.478681668639183">
        <ele>757</ele>
        <time>2026-08-29T16:18:13Z</time>
      </trkpt>
      <trkpt lat="50.589347993955016" lon="13.478739922866225">
        <ele>758</ele>
        <time>2026-08-29T16:18:14Z</time>
      </trkpt>
      <trkpt lat="50.589342629536986" lon="13.478792058303952">
        <ele>758</ele>
        <time>2026-08-29T16:18:15Z</time>
      </trkpt>
      <trkpt lat="50.589335421100259" lon="13.478844864293933">
        <ele>758</ele>
        <time>2026-08-29T16:18:16Z</time>
      </trkpt>
      <trkpt lat="50.589325362816453" lon="13.47889993339777">
        <ele>758</ele>
        <time>2026-08-29T16:18:17Z</time>
      </trkpt>
      <trkpt lat="50.589317316189408" lon="13.478958271443844">
        <ele>759</ele>
        <time>2026-08-29T16:18:18Z</time>
      </trkpt>
      <trkpt lat="50.589312287047505" lon="13.479025410488248">
        <ele>759</ele>
        <time>2026-08-29T16:18:19Z</time>
      </trkpt>
      <trkpt lat="50.58930809609592" lon="13.479086766019464">
        <ele>759</ele>
        <time>2026-08-29T16:18:20Z</time>
      </trkpt>
      <trkpt lat="50.589299211278558" lon="13.479149546474218">
        <ele>759</ele>
        <time>2026-08-29T16:18:21Z</time>
      </trkpt>
      <trkpt lat="50.589287057518959" lon="13.479215512052178">
        <ele>760</ele>
        <time>2026-08-29T16:18:22Z</time>
      </trkpt>
      <trkpt lat="50.589273981750011" lon="13.47927032969892">
        <ele>760</ele>
        <time>2026-08-29T16:18:23Z</time>
      </trkpt>
      <trkpt lat="50.589267695322633" lon="13.479330092668533">
        <ele>761</ele>
        <time>2026-08-29T16:18:24Z</time>
      </trkpt>
      <trkpt lat="50.589261073619127" lon="13.479381389915943">
        <ele>761</ele>
        <time>2026-08-29T16:18:25Z</time>
      </trkpt>
      <trkpt lat="50.589252440258861" lon="13.479435788467526">
        <ele>762</ele>
        <time>2026-08-29T16:18:26Z</time>
      </trkpt>
      <trkpt lat="50.589246489107609" lon="13.479486415162683">
        <ele>762</ele>
        <time>2026-08-29T16:18:27Z</time>
      </trkpt>
      <trkpt lat="50.589239951223135" lon="13.479535616934299">
        <ele>762</ele>
        <time>2026-08-29T16:18:28Z</time>
      </trkpt>
      <trkpt lat="50.589234000071883" lon="13.479586075991392">
        <ele>762</ele>
        <time>2026-08-29T16:18:29Z</time>
      </trkpt>
      <trkpt lat="50.589226707816124" lon="13.479637708514929">
        <ele>762</ele>
        <time>2026-08-29T16:18:30Z</time>
      </trkpt>
      <trkpt lat="50.589217822998762" lon="13.479690179228783">
        <ele>762</ele>
        <time>2026-08-29T16:18:31Z</time>
      </trkpt>
      <trkpt lat="50.589212039485574" lon="13.479744493961334">
        <ele>762</ele>
        <time>2026-08-29T16:18:32Z</time>
      </trkpt>
      <trkpt lat="50.589207261800766" lon="13.479796210303903">
        <ele>763</ele>
        <time>2026-08-29T16:18:33Z</time>
      </trkpt>
      <trkpt lat="50.589196784421802" lon="13.479843148961663">
        <ele>763</ele>
        <time>2026-08-29T16:18:34Z</time>
      </trkpt>
      <trkpt lat="50.589193347841501" lon="13.479892769828439">
        <ele>763</ele>
        <time>2026-08-29T16:18:35Z</time>
      </trkpt>
      <trkpt lat="50.589185887947679" lon="13.479935517534614">
        <ele>763</ele>
        <time>2026-08-29T16:18:36Z</time>
      </trkpt>
      <trkpt lat="50.589179517701268" lon="13.47998321056366">
        <ele>764</ele>
        <time>2026-08-29T16:18:37Z</time>
      </trkpt>
      <trkpt lat="50.589177422225475" lon="13.480034340173006">
        <ele>764</ele>
        <time>2026-08-29T16:18:38Z</time>
      </trkpt>
      <trkpt lat="50.589172560721636" lon="13.480082284659147">
        <ele>764</ele>
        <time>2026-08-29T16:18:39Z</time>
      </trkpt>
      <trkpt lat="50.589170129969716" lon="13.480134168639779">
        <ele>764</ele>
        <time>2026-08-29T16:18:40Z</time>
      </trkpt>
      <trkpt lat="50.589165268465877" lon="13.480176078155637">
        <ele>764</ele>
        <time>2026-08-29T16:18:41Z</time>
      </trkpt>
      <trkpt lat="50.589158060029149" lon="13.480220837518573">
        <ele>764</ele>
        <time>2026-08-29T16:18:42Z</time>
      </trkpt>
      <trkpt lat="50.589151438325644" lon="13.480270709842443">
        <ele>764</ele>
        <time>2026-08-29T16:18:43Z</time>
      </trkpt>
      <trkpt lat="50.589146493002772" lon="13.48032284528017">
        <ele>764</ele>
        <time>2026-08-29T16:18:44Z</time>
      </trkpt>
      <trkpt lat="50.589150097221136" lon="13.48037900403142">
        <ele>765</ele>
        <time>2026-08-29T16:18:45Z</time>
      </trkpt>
      <trkpt lat="50.589149259030819" lon="13.480431055650115">
        <ele>765</ele>
        <time>2026-08-29T16:18:46Z</time>
      </trkpt>
      <trkpt lat="50.589147750288248" lon="13.480482436716557">
        <ele>765</ele>
        <time>2026-08-29T16:18:47Z</time>
      </trkpt>
      <trkpt lat="50.589153869077563" lon="13.48054027184844">
        <ele>765</ele>
        <time>2026-08-29T16:18:48Z</time>
      </trkpt>
      <trkpt lat="50.5891571380198" lon="13.480590395629406">
        <ele>765</ele>
        <time>2026-08-29T16:18:49Z</time>
      </trkpt>
      <trkpt lat="50.58916007168591" lon="13.480643033981323">
        <ele>765</ele>
        <time>2026-08-29T16:18:50Z</time>
      </trkpt>
      <trkpt lat="50.589163172990084" lon="13.480690224096179">
        <ele>765</ele>
        <time>2026-08-29T16:18:51Z</time>
      </trkpt>
      <trkpt lat="50.589169878512621" lon="13.480738587677479">
        <ele>766</ele>
        <time>2026-08-29T16:18:52Z</time>
      </trkpt>
      <trkpt lat="50.589181361719966" lon="13.480787873268127">
        <ele>765</ele>
        <time>2026-08-29T16:18:53Z</time>
      </trkpt>
      <trkpt lat="50.589192844927311" lon="13.480842607095838">
        <ele>766</ele>
        <time>2026-08-29T16:18:54Z</time>
      </trkpt>
      <trkpt lat="50.589203238487244" lon="13.48089306615293">
        <ele>766</ele>
        <time>2026-08-29T16:18:55Z</time>
      </trkpt>
      <trkpt lat="50.5892089381814" lon="13.480950146913528">
        <ele>766</ele>
        <time>2026-08-29T16:18:56Z</time>
      </trkpt>
      <trkpt lat="50.589221427217126" lon="13.481002617627382">
        <ele>766</ele>
        <time>2026-08-29T16:18:57Z</time>
      </trkpt>
      <trkpt lat="50.589237185195088" lon="13.48105818964541">
        <ele>766</ele>
        <time>2026-08-29T16:18:58Z</time>
      </trkpt>
      <trkpt lat="50.58925436809659" lon="13.481107978150249">
        <ele>766</ele>
        <time>2026-08-29T16:18:59Z</time>
      </trkpt>
      <trkpt lat="50.589274652302265" lon="13.481163131073117">
        <ele>766</ele>
        <time>2026-08-29T16:19:00Z</time>
      </trkpt>
      <trkpt lat="50.58929493650794" lon="13.481218032538891">
        <ele>766</ele>
        <time>2026-08-29T16:19:01Z</time>
      </trkpt>
      <trkpt lat="50.589313879609108" lon="13.481270838528872">
        <ele>766</ele>
        <time>2026-08-29T16:19:02Z</time>
      </trkpt>
      <trkpt lat="50.589341623708606" lon="13.481318363919854">
        <ele>766</ele>
        <time>2026-08-29T16:19:03Z</time>
      </trkpt>
      <trkpt lat="50.589366015046835" lon="13.481366392225027">
        <ele>766</ele>
        <time>2026-08-29T16:19:04Z</time>
      </trkpt>
      <trkpt lat="50.589385712519288" lon="13.481415677815676">
        <ele>766</ele>
        <time>2026-08-29T16:19:05Z</time>
      </trkpt>
      <trkpt lat="50.589411528781056" lon="13.481472004204988">
        <ele>766</ele>
        <time>2026-08-29T16:19:06Z</time>
      </trkpt>
      <trkpt lat="50.589436171576381" lon="13.481536712497473">
        <ele>766</ele>
        <time>2026-08-29T16:19:07Z</time>
      </trkpt>
      <trkpt lat="50.58946399949491" lon="13.481596224009991">
        <ele>767</ele>
        <time>2026-08-29T16:19:08Z</time>
      </trkpt>
      <trkpt lat="50.589493587613106" lon="13.481655567884445">
        <ele>767</ele>
        <time>2026-08-29T16:19:09Z</time>
      </trkpt>
      <trkpt lat="50.589527701959014" lon="13.481719437986612">
        <ele>768</ele>
        <time>2026-08-29T16:19:10Z</time>
      </trkpt>
      <trkpt lat="50.589556451886892" lon="13.481776434928179">
        <ele>768</ele>
        <time>2026-08-29T16:19:11Z</time>
      </trkpt>
      <trkpt lat="50.58958469890058" lon="13.481842065230012">
        <ele>768</ele>
        <time>2026-08-29T16:19:12Z</time>
      </trkpt>
      <trkpt lat="50.589610431343317" lon="13.481904342770576">
        <ele>768</ele>
        <time>2026-08-29T16:19:13Z</time>
      </trkpt>
      <trkpt lat="50.5896389298141" lon="13.481968883424997">
        <ele>768</ele>
        <time>2026-08-29T16:19:14Z</time>
      </trkpt>
      <trkpt lat="50.589667679741979" lon="13.482041973620653">
        <ele>768</ele>
        <time>2026-08-29T16:19:15Z</time>
      </trkpt>
      <trkpt lat="50.589698860421777" lon="13.482118500396609">
        <ele>768</ele>
        <time>2026-08-29T16:19:16Z</time>
      </trkpt>
      <trkpt lat="50.589728951454163" lon="13.482192847877741">
        <ele>768</ele>
        <time>2026-08-29T16:19:17Z</time>
      </trkpt>
      <trkpt lat="50.589751498773694" lon="13.482266189530492">
        <ele>769</ele>
        <time>2026-08-29T16:19:18Z</time>
      </trkpt>
      <trkpt lat="50.589777566492558" lon="13.482338022440672">
        <ele>768</ele>
        <time>2026-08-29T16:19:19Z</time>
      </trkpt>
      <trkpt lat="50.589795839041471" lon="13.482415052130818">
        <ele>768</ele>
        <time>2026-08-29T16:19:20Z</time>
      </trkpt>
      <trkpt lat="50.589823499321938" lon="13.482489483430982">
        <ele>769</ele>
        <time>2026-08-29T16:19:21Z</time>
      </trkpt>
      <trkpt lat="50.589840095490217" lon="13.482562741264701">
        <ele>769</ele>
        <time>2026-08-29T16:19:22Z</time>
      </trkpt>
      <trkpt lat="50.589855350553989" lon="13.48264136351645">
        <ele>769</ele>
        <time>2026-08-29T16:19:23Z</time>
      </trkpt>
      <trkpt lat="50.589870940893888" lon="13.48272736184299">
        <ele>769</ele>
        <time>2026-08-29T16:19:24Z</time>
      </trkpt>
      <trkpt lat="50.589886782690883" lon="13.482807325199246">
        <ele>769</ele>
        <time>2026-08-29T16:19:25Z</time>
      </trkpt>
      <trkpt lat="50.589899187907577" lon="13.48288812674582">
        <ele>768</ele>
        <time>2026-08-29T16:19:26Z</time>
      </trkpt>
      <trkpt lat="50.589909330010414" lon="13.482975633814931">
        <ele>768</ele>
        <time>2026-08-29T16:19:27Z</time>
      </trkpt>
      <trkpt lat="50.589910671114922" lon="13.4830566868186">
        <ele>769</ele>
        <time>2026-08-29T16:19:28Z</time>
      </trkpt>
      <trkpt lat="50.589915113523602" lon="13.483140086755157">
        <ele>769</ele>
        <time>2026-08-29T16:19:29Z</time>
      </trkpt>
      <trkpt lat="50.589920058846474" lon="13.483215356245637">
        <ele>768</ele>
        <time>2026-08-29T16:19:30Z</time>
      </trkpt>
      <trkpt lat="50.589926512911916" lon="13.483290122821927">
        <ele>768</ele>
        <time>2026-08-29T16:19:31Z</time>
      </trkpt>
      <trkpt lat="50.589925507083535" lon="13.483371930196881">
        <ele>768</ele>
        <time>2026-08-29T16:19:32Z</time>
      </trkpt>
      <trkpt lat="50.589926177635789" lon="13.483453067019582">
        <ele>768</ele>
        <time>2026-08-29T16:19:33Z</time>
      </trkpt>
      <trkpt lat="50.589927770197392" lon="13.483526660129428">
        <ele>769</ele>
        <time>2026-08-29T16:19:34Z</time>
      </trkpt>
      <trkpt lat="50.589925590902567" lon="13.483595559373498">
        <ele>769</ele>
        <time>2026-08-29T16:19:35Z</time>
      </trkpt>
      <trkpt lat="50.589925087988377" lon="13.483672505244613">
        <ele>769</ele>
        <time>2026-08-29T16:19:36Z</time>
      </trkpt>
      <trkpt lat="50.589925171807408" lon="13.483745092526078">
        <ele>769</ele>
        <time>2026-08-29T16:19:37Z</time>
      </trkpt>
      <trkpt lat="50.589920477941632" lon="13.483813069760799">
        <ele>769</ele>
        <time>2026-08-29T16:19:38Z</time>
      </trkpt>
      <trkpt lat="50.589918382465839" lon="13.483892027288675">
        <ele>769</ele>
        <time>2026-08-29T16:19:39Z</time>
      </trkpt>
      <trkpt lat="50.589912598952651" lon="13.483961177989841">
        <ele>769</ele>
        <time>2026-08-29T16:19:40Z</time>
      </trkpt>
      <trkpt lat="50.589910419657826" lon="13.484035609290004">
        <ele>769</ele>
        <time>2026-08-29T16:19:41Z</time>
      </trkpt>
      <trkpt lat="50.589909413829446" lon="13.484111465513706">
        <ele>770</ele>
        <time>2026-08-29T16:19:42Z</time>
      </trkpt>
      <trkpt lat="50.589903714135289" lon="13.484180867671967">
        <ele>770</ele>
        <time>2026-08-29T16:19:43Z</time>
      </trkpt>
      <trkpt lat="50.589905893430114" lon="13.484248761087656">
        <ele>770</ele>
        <time>2026-08-29T16:19:44Z</time>
      </trkpt>
      <trkpt lat="50.58990715071559" lon="13.484322940930724">
        <ele>770</ele>
        <time>2026-08-29T16:19:45Z</time>
      </trkpt>
      <trkpt lat="50.589910922572017" lon="13.484392846003175">
        <ele>770</ele>
        <time>2026-08-29T16:19:46Z</time>
      </trkpt>
      <trkpt lat="50.589913856238127" lon="13.484461745247245">
        <ele>770</ele>
        <time>2026-08-29T16:19:47Z</time>
      </trkpt>
      <trkpt lat="50.589917879551649" lon="13.484528716653585">
        <ele>771</ele>
        <time>2026-08-29T16:19:48Z</time>
      </trkpt>
      <trkpt lat="50.589926932007074" lon="13.484598873183131">
        <ele>771</ele>
        <time>2026-08-29T16:19:49Z</time>
      </trkpt>
      <trkpt lat="50.589936152100563" lon="13.48466039635241">
        <ele>771</ele>
        <time>2026-08-29T16:19:50Z</time>
      </trkpt>
      <trkpt lat="50.589949646964669" lon="13.484726110473275">
        <ele>771</ele>
        <time>2026-08-29T16:19:51Z</time>
      </trkpt>
      <trkpt lat="50.589960040524602" lon="13.484792914241552">
        <ele>772</ele>
        <time>2026-08-29T16:19:52Z</time>
      </trkpt>
      <trkpt lat="50.589978480711579" lon="13.484865082427859">
        <ele>772</ele>
        <time>2026-08-29T16:19:53Z</time>
      </trkpt>
      <trkpt lat="50.589999100193381" lon="13.484932724386454">
        <ele>772</ele>
        <time>2026-08-29T16:19:54Z</time>
      </trkpt>
      <trkpt lat="50.59001904912293" lon="13.485002042725682">
        <ele>773</ele>
        <time>2026-08-29T16:19:55Z</time>
      </trkpt>
      <trkpt lat="50.590043356642127" lon="13.485080413520336">
        <ele>773</ele>
        <time>2026-08-29T16:19:56Z</time>
      </trkpt>
      <trkpt lat="50.590066071599722" lon="13.485143193975091">
        <ele>773</ele>
        <time>2026-08-29T16:19:57Z</time>
      </trkpt>
      <trkpt lat="50.590091552585363" lon="13.485208824276924">
        <ele>773</ele>
        <time>2026-08-29T16:19:58Z</time>
      </trkpt>
      <trkpt lat="50.590117452666163" lon="13.485276382416487">
        <ele>773</ele>
        <time>2026-08-29T16:19:59Z</time>
      </trkpt>
      <trkpt lat="50.590148130431771" lon="13.485348885878921">
        <ele>773</ele>
        <time>2026-08-29T16:20:00Z</time>
      </trkpt>
      <trkpt lat="50.590172270312905" lon="13.485414767637849">
        <ele>773</ele>
        <time>2026-08-29T16:20:01Z</time>
      </trkpt>
      <trkpt lat="50.590200433507562" lon="13.485468914732337">
        <ele>774</ele>
        <time>2026-08-29T16:20:02Z</time>
      </trkpt>
      <trkpt lat="50.59022918343544" lon="13.485524151474237">
        <ele>773</ele>
        <time>2026-08-29T16:20:03Z</time>
      </trkpt>
      <trkpt lat="50.590260196477175" lon="13.485589697957039">
        <ele>774</ele>
        <time>2026-08-29T16:20:04Z</time>
      </trkpt>
      <trkpt lat="50.590287437662482" lon="13.485655747354031">
        <ele>774</ele>
        <time>2026-08-29T16:20:05Z</time>
      </trkpt>
      <trkpt lat="50.590317947790027" lon="13.485724395141006">
        <ele>774</ele>
        <time>2026-08-29T16:20:06Z</time>
      </trkpt>
      <trkpt lat="50.590352229773998" lon="13.4857920370996">
        <ele>773</ele>
        <time>2026-08-29T16:20:07Z</time>
      </trkpt>
      <trkpt lat="50.590388691052794" lon="13.485859343782067">
        <ele>773</ele>
        <time>2026-08-29T16:20:08Z</time>
      </trkpt>
      <trkpt lat="50.590421129018068" lon="13.485922459512949">
        <ele>773</ele>
        <time>2026-08-29T16:20:09Z</time>
      </trkpt>
      <trkpt lat="50.590451052412391" lon="13.485991023480892">
        <ele>773</ele>
        <time>2026-08-29T16:20:10Z</time>
      </trkpt>
      <trkpt lat="50.590480221435428" lon="13.486060509458184">
        <ele>774</ele>
        <time>2026-08-29T16:20:11Z</time>
      </trkpt>
      <trkpt lat="50.590514168143272" lon="13.486127983778715">
        <ele>774</ele>
        <time>2026-08-29T16:20:12Z</time>
      </trkpt>
      <trkpt lat="50.590546689927578" lon="13.486197218298912">
        <ele>775</ele>
        <time>2026-08-29T16:20:13Z</time>
      </trkpt>
      <trkpt lat="50.590577619150281" lon="13.486259495839477">
        <ele>775</ele>
        <time>2026-08-29T16:20:14Z</time>
      </trkpt>
      <trkpt lat="50.590609554201365" lon="13.48632319830358">
        <ele>775</ele>
        <time>2026-08-29T16:20:15Z</time>
      </trkpt>
      <trkpt lat="50.590638890862465" lon="13.486390924081206">
        <ele>775</ele>
        <time>2026-08-29T16:20:16Z</time>
      </trkpt>
      <trkpt lat="50.590669484809041" lon="13.486464768648148">
        <ele>775</ele>
        <time>2026-08-29T16:20:17Z</time>
      </trkpt>
      <trkpt lat="50.590696390718222" lon="13.486538613215089">
        <ele>775</ele>
        <time>2026-08-29T16:20:18Z</time>
      </trkpt>
      <trkpt lat="50.590727319940925" lon="13.486606758087873">
        <ele>775</ele>
        <time>2026-08-29T16:20:19Z</time>
      </trkpt>
      <trkpt lat="50.59075347147882" lon="13.486670292913914">
        <ele>775</ele>
        <time>2026-08-29T16:20:20Z</time>
      </trkpt>
      <trkpt lat="50.590777192264795" lon="13.48673852160573">
        <ele>775</ele>
        <time>2026-08-29T16:20:21Z</time>
      </trkpt>
      <trkpt lat="50.59080527164042" lon="13.486801637336612">
        <ele>775</ele>
        <time>2026-08-29T16:20:22Z</time>
      </trkpt>
      <trkpt lat="50.590836200863123" lon="13.48687531426549">
        <ele>775</ele>
        <time>2026-08-29T16:20:23Z</time>
      </trkpt>
      <trkpt lat="50.590861011296511" lon="13.486941950395703">
        <ele>776</ele>
        <time>2026-08-29T16:20:24Z</time>
      </trkpt>
      <trkpt lat="50.59088489972055" lon="13.487009927630424">
        <ele>776</ele>
        <time>2026-08-29T16:20:25Z</time>
      </trkpt>
      <trkpt lat="50.590909458696842" lon="13.487080670893192">
        <ele>776</ele>
        <time>2026-08-29T16:20:26Z</time>
      </trkpt>
      <trkpt lat="50.590932592749596" lon="13.48713481798768">
        <ele>776</ele>
        <time>2026-08-29T16:20:27Z</time>
      </trkpt>
      <trkpt lat="50.590954888612032" lon="13.487187121063471">
        <ele>776</ele>
        <time>2026-08-29T16:20:28Z</time>
      </trkpt>
      <trkpt lat="50.590980537235737" lon="13.487240262329578">
        <ele>775</ele>
        <time>2026-08-29T16:20:29Z</time>
      </trkpt>
      <trkpt lat="50.5910031683743" lon="13.487303210422397">
        <ele>775</ele>
        <time>2026-08-29T16:20:30Z</time>
      </trkpt>
      <trkpt lat="50.591020435094833" lon="13.487366577610373">
        <ele>776</ele>
        <time>2026-08-29T16:20:31Z</time>
      </trkpt>
      <trkpt lat="50.591038959100842" lon="13.487434722483158">
        <ele>776</ele>
        <time>2026-08-29T16:20:32Z</time>
      </trkpt>
      <trkpt lat="50.591062679886818" lon="13.487500352784991">
        <ele>775</ele>
        <time>2026-08-29T16:20:33Z</time>
      </trkpt>
      <trkpt lat="50.591085478663445" lon="13.487569000571966">
        <ele>776</ele>
        <time>2026-08-29T16:20:34Z</time>
      </trkpt>
      <trkpt lat="50.591108947992325" lon="13.487640665844083">
        <ele>776</ele>
        <time>2026-08-29T16:20:35Z</time>
      </trkpt>
      <trkpt lat="50.591129064559937" lon="13.487698836252093">
        <ele>776</ele>
        <time>2026-08-29T16:20:36Z</time>
      </trkpt>
      <trkpt lat="50.591148091480136" lon="13.487760778516531">
        <ele>777</ele>
        <time>2026-08-29T16:20:37Z</time>
      </trkpt>
      <trkpt lat="50.591162759810686" lon="13.487822553142905">
        <ele>777</ele>
        <time>2026-08-29T16:20:38Z</time>
      </trkpt>
      <trkpt lat="50.591175584122539" lon="13.487880891188979">
        <ele>777</ele>
        <time>2026-08-29T16:20:39Z</time>
      </trkpt>
      <trkpt lat="50.591189917176962" lon="13.487934367731214">
        <ele>778</ele>
        <time>2026-08-29T16:20:40Z</time>
      </trkpt>
      <trkpt lat="50.591191677376628" lon="13.487996142357588">
        <ele>778</ele>
        <time>2026-08-29T16:20:41Z</time>
      </trkpt>
      <trkpt lat="50.591192347928882" lon="13.488049451261759">
        <ele>778</ele>
        <time>2026-08-29T16:20:42Z</time>
      </trkpt>
      <trkpt lat="50.591196371242404" lon="13.488112650811672">
        <ele>777</ele>
        <time>2026-08-29T16:20:43Z</time>
      </trkpt>
      <trkpt lat="50.591197041794658" lon="13.488169396296144">
        <ele>777</ele>
        <time>2026-08-29T16:20:44Z</time>
      </trkpt>
      <trkpt lat="50.591192180290818" lon="13.488226812332869">
        <ele>777</ele>
        <time>2026-08-29T16:20:45Z</time>
      </trkpt>
      <trkpt lat="50.591186815872788" lon="13.488295711576939">
        <ele>777</ele>
        <time>2026-08-29T16:20:46Z</time>
      </trkpt>
      <trkpt lat="50.591180110350251" lon="13.488367293030024">
        <ele>777</ele>
        <time>2026-08-29T16:20:47Z</time>
      </trkpt>
      <trkpt lat="50.591180864721537" lon="13.488437617197633">
        <ele>777</ele>
        <time>2026-08-29T16:20:48Z</time>
      </trkpt>
      <trkpt lat="50.591179858893156" lon="13.488504085689783">
        <ele>777</ele>
        <time>2026-08-29T16:20:49Z</time>
      </trkpt>
      <trkpt lat="50.591184552758932" lon="13.488564435392618">
        <ele>777</ele>
        <time>2026-08-29T16:20:50Z</time>
      </trkpt>
      <trkpt lat="50.591205088421702" lon="13.488627970218658">
        <ele>777</ele>
        <time>2026-08-29T16:20:51Z</time>
      </trkpt>
      <trkpt lat="50.591226378455758" lon="13.488682704046369">
        <ele>777</ele>
        <time>2026-08-29T16:20:52Z</time>
      </trkpt>
      <trkpt lat="50.591256469488144" lon="13.488732073456049">
        <ele>778</ele>
        <time>2026-08-29T16:20:53Z</time>
      </trkpt>
      <trkpt lat="50.591289158910513" lon="13.488765517249703">
        <ele>778</ele>
        <time>2026-08-29T16:20:54Z</time>
      </trkpt>
      <trkpt lat="50.591321093961596" lon="13.488775659352541">
        <ele>778</ele>
        <time>2026-08-29T16:20:55Z</time>
      </trkpt>
      <trkpt lat="50.591347748413682" lon="13.488782700151205">
        <ele>778</ele>
        <time>2026-08-29T16:20:56Z</time>
      </trkpt>
      <trkpt lat="50.591372894123197" lon="13.48878244869411">
        <ele>778</ele>
        <time>2026-08-29T16:20:57Z</time>
      </trkpt>
      <trkpt lat="50.591401979327202" lon="13.488773899152875">
        <ele>778</ele>
        <time>2026-08-29T16:20:58Z</time>
      </trkpt>
      <trkpt lat="50.591430142521858" lon="13.488763673231006">
        <ele>778</ele>
        <time>2026-08-29T16:20:59Z</time>
      </trkpt>
      <trkpt lat="50.591455958783627" lon="13.488737102597952">
        <ele>778</ele>
        <time>2026-08-29T16:21:00Z</time>
      </trkpt>
      <trkpt lat="50.591478506103158" lon="13.488699467852712">
        <ele>778</ele>
        <time>2026-08-29T16:21:01Z</time>
      </trkpt>
      <trkpt lat="50.591497868299484" lon="13.488654289394617">
        <ele>779</ele>
        <time>2026-08-29T16:21:02Z</time>
      </trkpt>
      <trkpt lat="50.591518487781286" lon="13.488605758175254">
        <ele>779</ele>
        <time>2026-08-29T16:21:03Z</time>
      </trkpt>
      <trkpt lat="50.591539358720183" lon="13.488569045439363">
        <ele>779</ele>
        <time>2026-08-29T16:21:04Z</time>
      </trkpt>
      <trkpt lat="50.591557882726192" lon="13.488529650494456">
        <ele>779</ele>
        <time>2026-08-29T16:21:05Z</time>
      </trkpt>
      <trkpt lat="50.591569030657411" lon="13.4884980507195">
        <ele>779</ele>
        <time>2026-08-29T16:21:06Z</time>
      </trkpt>
      <trkpt lat="50.591583447530866" lon="13.488461505621672">
        <ele>779</ele>
        <time>2026-08-29T16:21:07Z</time>
      </trkpt>
      <trkpt lat="50.591605408117175" lon="13.488434012979269">
        <ele>779</ele>
        <time>2026-08-29T16:21:08Z</time>
      </trkpt>
      <trkpt lat="50.591619908809662" lon="13.488404173403978">
        <ele>780</ele>
        <time>2026-08-29T16:21:09Z</time>
      </trkpt>
      <trkpt lat="50.591631140559912" lon="13.488381039351225">
        <ele>780</ele>
        <time>2026-08-29T16:21:10Z</time>
      </trkpt>
      <trkpt lat="50.59164279140532" lon="13.488352289423347">
        <ele>780</ele>
        <time>2026-08-29T16:21:11Z</time>
      </trkpt>
      <trkpt lat="50.591660561040044" lon="13.488315995782614">
        <ele>780</ele>
        <time>2026-08-29T16:21:12Z</time>
      </trkpt>
      <trkpt lat="50.591677827760577" lon="13.488280707970262">
        <ele>780</ele>
        <time>2026-08-29T16:21:13Z</time>
      </trkpt>
      <trkpt lat="50.591696267947555" lon="13.488252712413669">
        <ele>780</ele>
        <time>2026-08-29T16:21:14Z</time>
      </trkpt>
      <trkpt lat="50.591712025925517" lon="13.48821222782135">
        <ele>781</ele>
        <time>2026-08-29T16:21:15Z</time>
      </trkpt>
      <trkpt lat="50.591731388121843" lon="13.488179706037045">
        <ele>781</ele>
        <time>2026-08-29T16:21:16Z</time>
      </trkpt>
      <trkpt lat="50.591749073937535" lon="13.488137293606997">
        <ele>781</ele>
        <time>2026-08-29T16:21:17Z</time>
      </trkpt>
      <trkpt lat="50.591765670105815" lon="13.488098233938217">
        <ele>781</ele>
        <time>2026-08-29T16:21:18Z</time>
      </trkpt>
      <trkpt lat="50.591789139434695" lon="13.488054228946567">
        <ele>781</ele>
        <time>2026-08-29T16:21:19Z</time>
      </trkpt>
      <trkpt lat="50.591812022030354" lon="13.488011145964265">
        <ele>782</ele>
        <time>2026-08-29T16:21:20Z</time>
      </trkpt>
      <trkpt lat="50.591832641512156" lon="13.487967140972614">
        <ele>782</ele>
        <time>2026-08-29T16:21:21Z</time>
      </trkpt>
      <trkpt lat="50.591853344812989" lon="13.48792196251452">
        <ele>782</ele>
        <time>2026-08-29T16:21:22Z</time>
      </trkpt>
      <trkpt lat="50.591879412531853" lon="13.487884160131216">
        <ele>782</ele>
        <time>2026-08-29T16:21:23Z</time>
      </trkpt>
      <trkpt lat="50.591905061155558" lon="13.487834790721536">
        <ele>783</ele>
        <time>2026-08-29T16:21:24Z</time>
      </trkpt>
      <trkpt lat="50.591926937922835" lon="13.487789193168283">
        <ele>783</ele>
        <time>2026-08-29T16:21:25Z</time>
      </trkpt>
      <trkpt lat="50.591953843832016" lon="13.487747199833393">
        <ele>784</ele>
        <time>2026-08-29T16:21:26Z</time>
      </trkpt>
      <trkpt lat="50.59197748079896" lon="13.487699925899506">
        <ele>784</ele>
        <time>2026-08-29T16:21:27Z</time>
      </trkpt>
      <trkpt lat="50.592002710327506" lon="13.487648880109191">
        <ele>784</ele>
        <time>2026-08-29T16:21:28Z</time>
      </trkpt>
      <trkpt lat="50.59202584438026" lon="13.487601606175303">
        <ele>784</ele>
        <time>2026-08-29T16:21:29Z</time>
      </trkpt>
      <trkpt lat="50.592050738632679" lon="13.487553577870131">
        <ele>783</ele>
        <time>2026-08-29T16:21:30Z</time>
      </trkpt>
      <trkpt lat="50.592079069465399" lon="13.487516110762954">
        <ele>783</ele>
        <time>2026-08-29T16:21:31Z</time>
      </trkpt>
      <trkpt lat="50.592104382812977" lon="13.487470932304859">
        <ele>784</ele>
        <time>2026-08-29T16:21:32Z</time>
      </trkpt>
      <trkpt lat="50.592125337570906" lon="13.487430699169636">
        <ele>784</ele>
        <time>2026-08-29T16:21:33Z</time>
      </trkpt>
      <trkpt lat="50.592146795243025" lon="13.48738887347281">
        <ele>784</ele>
        <time>2026-08-29T16:21:34Z</time>
      </trkpt>
      <trkpt lat="50.592169091105461" lon="13.487349143251777">
        <ele>784</ele>
        <time>2026-08-29T16:21:35Z</time>
      </trkpt>
      <trkpt lat="50.592188201844692" lon="13.487310586497188">
        <ele>784</ele>
        <time>2026-08-29T16:21:36Z</time>
      </trkpt>
      <trkpt lat="50.592208988964558" lon="13.487269850447774">
        <ele>783</ele>
        <time>2026-08-29T16:21:37Z</time>
      </trkpt>
      <trkpt lat="50.592230530455709" lon="13.487237747758627">
        <ele>783</ele>
        <time>2026-08-29T16:21:38Z</time>
      </trkpt>
      <trkpt lat="50.592250060290098" lon="13.487198352813721">
        <ele>783</ele>
        <time>2026-08-29T16:21:39Z</time>
      </trkpt>
      <trkpt lat="50.592268081381917" lon="13.487157616764307">
        <ele>784</ele>
        <time>2026-08-29T16:21:40Z</time>
      </trkpt>
      <trkpt lat="50.592287946492434" lon="13.487114114686847">
        <ele>784</ele>
        <time>2026-08-29T16:21:41Z</time>
      </trkpt>
      <trkpt lat="50.592308398336172" lon="13.487069187685847">
        <ele>784</ele>
        <time>2026-08-29T16:21:42Z</time>
      </trkpt>
      <trkpt lat="50.592332538217306" lon="13.487028870731592">
        <ele>784</ele>
        <time>2026-08-29T16:21:43Z</time>
      </trkpt>
      <trkpt lat="50.592354498803616" lon="13.486989727243781">
        <ele>784</ele>
        <time>2026-08-29T16:21:44Z</time>
      </trkpt>
      <trkpt lat="50.592377549037337" lon="13.486948739737272">
        <ele>783</ele>
        <time>2026-08-29T16:21:45Z</time>
      </trkpt>
      <trkpt lat="50.592402359470725" lon="13.486899957060814">
        <ele>783</ele>
        <time>2026-08-29T16:21:46Z</time>
      </trkpt>
      <trkpt lat="50.592421218752861" lon="13.486852599307895">
        <ele>784</ele>
        <time>2026-08-29T16:21:47Z</time>
      </trkpt>
      <trkpt lat="50.592447370290756" lon="13.486805828288198">
        <ele>784</ele>
        <time>2026-08-29T16:21:48Z</time>
      </trkpt>
      <trkpt lat="50.592469498515129" lon="13.486758135259151">
        <ele>784</ele>
        <time>2026-08-29T16:21:49Z</time>
      </trkpt>
      <trkpt lat="50.592495650053024" lon="13.486710861325264">
        <ele>783</ele>
        <time>2026-08-29T16:21:50Z</time>
      </trkpt>
      <trkpt lat="50.592510821297765" lon="13.486661743372679">
        <ele>783</ele>
        <time>2026-08-29T16:21:51Z</time>
      </trkpt>
      <trkpt lat="50.592535128816962" lon="13.486622432246804">
        <ele>783</ele>
        <time>2026-08-29T16:21:52Z</time>
      </trkpt>
      <trkpt lat="50.592555580660701" lon="13.486579349264503">
        <ele>783</ele>
        <time>2026-08-29T16:21:53Z</time>
      </trkpt>
      <trkpt lat="50.592576283961535" lon="13.486528806388378">
        <ele>784</ele>
        <time>2026-08-29T16:21:54Z</time>
      </trkpt>
      <trkpt lat="50.592593550682068" lon="13.486481364816427">
        <ele>783</ele>
        <time>2026-08-29T16:21:55Z</time>
      </trkpt>
      <trkpt lat="50.592613834887743" lon="13.486439120024443">
        <ele>783</ele>
        <time>2026-08-29T16:21:56Z</time>
      </trkpt>
      <trkpt lat="50.592634538188577" lon="13.486388241872191">
        <ele>783</ele>
        <time>2026-08-29T16:21:57Z</time>
      </trkpt>
      <trkpt lat="50.59265767224133" lon="13.48633979447186">
        <ele>783</ele>
        <time>2026-08-29T16:21:58Z</time>
      </trkpt>
      <trkpt lat="50.592682398855686" lon="13.486297130584717">
        <ele>784</ele>
        <time>2026-08-29T16:21:59Z</time>
      </trkpt>
      <trkpt lat="50.592704527080059" lon="13.486256310716271">
        <ele>783</ele>
        <time>2026-08-29T16:22:00Z</time>
      </trkpt>
      <trkpt lat="50.592724978923798" lon="13.486208617687225">
        <ele>783</ele>
        <time>2026-08-29T16:22:01Z</time>
      </trkpt>
      <trkpt lat="50.592743000015616" lon="13.486160170286894">
        <ele>783</ele>
        <time>2026-08-29T16:22:02Z</time>
      </trkpt>
      <trkpt lat="50.592760182917118" lon="13.486112980172038">
        <ele>783</ele>
        <time>2026-08-29T16:22:03Z</time>
      </trkpt>
      <trkpt lat="50.592777617275715" lon="13.486068556085229">
        <ele>783</ele>
        <time>2026-08-29T16:22:04Z</time>
      </trkpt>
      <trkpt lat="50.592800248414278" lon="13.486031256616116">
        <ele>783</ele>
        <time>2026-08-29T16:22:05Z</time>
      </trkpt>
      <trkpt lat="50.592823298648" lon="13.48598993383348">
        <ele>783</ele>
        <time>2026-08-29T16:22:06Z</time>
      </trkpt>
      <trkpt lat="50.592845259234309" lon="13.4859474375844">
        <ele>783</ele>
        <time>2026-08-29T16:22:07Z</time>
      </trkpt>
      <trkpt lat="50.592865711078048" lon="13.485907204449177">
        <ele>783</ele>
        <time>2026-08-29T16:22:08Z</time>
      </trkpt>
      <trkpt lat="50.592885911464691" lon="13.485857583582401">
        <ele>783</ele>
        <time>2026-08-29T16:22:09Z</time>
      </trkpt>
      <trkpt lat="50.5929009988904" lon="13.485801592469215">
        <ele>783</ele>
        <time>2026-08-29T16:22:10Z</time>
      </trkpt>
      <trkpt lat="50.592919858172536" lon="13.485743338242173">
        <ele>784</ele>
        <time>2026-08-29T16:22:11Z</time>
      </trkpt>
      <trkpt lat="50.592938382178545" lon="13.485706876963377">
        <ele>784</ele>
        <time>2026-08-29T16:22:12Z</time>
      </trkpt>
      <trkpt lat="50.592960929498076" lon="13.485662369057536">
        <ele>784</ele>
        <time>2026-08-29T16:22:13Z</time>
      </trkpt>
      <trkpt lat="50.592986578121781" lon="13.485614005476236">
        <ele>783</ele>
        <time>2026-08-29T16:22:14Z</time>
      </trkpt>
      <trkpt lat="50.593028236180544" lon="13.485586848109961">
        <ele>783</ele>
        <time>2026-08-29T16:22:15Z</time>
      </trkpt>
      <trkpt lat="50.593064529821277" lon="13.485594056546688">
        <ele>783</ele>
        <time>2026-08-29T16:22:16Z</time>
      </trkpt>
      <trkpt lat="50.59309545904398" lon="13.485626829788089">
        <ele>783</ele>
        <time>2026-08-29T16:22:17Z</time>
      </trkpt>
      <trkpt lat="50.593113396316767" lon="13.485653819516301">
        <ele>783</ele>
        <time>2026-08-29T16:22:18Z</time>
      </trkpt>
      <trkpt lat="50.593127142637968" lon="13.485682988539338">
        <ele>783</ele>
        <time>2026-08-29T16:22:19Z</time>
      </trkpt>
      <trkpt lat="50.593141810968518" lon="13.485712492838502">
        <ele>783</ele>
        <time>2026-08-29T16:22:20Z</time>
      </trkpt>
      <trkpt lat="50.593153377994895" lon="13.485742080956697">
        <ele>783</ele>
        <time>2026-08-29T16:22:21Z</time>
      </trkpt>
      <trkpt lat="50.593170309439301" lon="13.485773345455527">
        <ele>784</ele>
        <time>2026-08-29T16:22:22Z</time>
      </trkpt>
      <trkpt lat="50.593187995254993" lon="13.485799832269549">
        <ele>784</ele>
        <time>2026-08-29T16:22:23Z</time>
      </trkpt>
      <trkpt lat="50.593208530917764" lon="13.485824726521969">
        <ele>785</ele>
        <time>2026-08-29T16:22:24Z</time>
      </trkpt>
      <trkpt lat="50.593233089894056" lon="13.48585314117372">
        <ele>785</ele>
        <time>2026-08-29T16:22:25Z</time>
      </trkpt>
      <trkpt lat="50.593253877013922" lon="13.485872838646173">
        <ele>786</ele>
        <time>2026-08-29T16:22:26Z</time>
      </trkpt>
      <trkpt lat="50.593272820115089" lon="13.485899996012449">
        <ele>786</ele>
        <time>2026-08-29T16:22:27Z</time>
      </trkpt>
      <trkpt lat="50.593293188139796" lon="13.485929248854518">
        <ele>786</ele>
        <time>2026-08-29T16:22:28Z</time>
      </trkpt>
      <trkpt lat="50.593314142897725" lon="13.48596353083849">
        <ele>786</ele>
        <time>2026-08-29T16:22:29Z</time>
      </trkpt>
      <trkpt lat="50.593336522579193" lon="13.485997645184398">
        <ele>786</ele>
        <time>2026-08-29T16:22:30Z</time>
      </trkpt>
      <trkpt lat="50.593354376032948" lon="13.486039889976382">
        <ele>786</ele>
        <time>2026-08-29T16:22:31Z</time>
      </trkpt>
      <trkpt lat="50.593370636925101" lon="13.486081380397081">
        <ele>786</ele>
        <time>2026-08-29T16:22:32Z</time>
      </trkpt>
      <trkpt lat="50.593384131789207" lon="13.486127145588398">
        <ele>786</ele>
        <time>2026-08-29T16:22:33Z</time>
      </trkpt>
      <trkpt lat="50.593400560319424" lon="13.486172659322619">
        <ele>786</ele>
        <time>2026-08-29T16:22:34Z</time>
      </trkpt>
      <trkpt lat="50.593414139002562" lon="13.486211635172367">
        <ele>786</ele>
        <time>2026-08-29T16:22:35Z</time>
      </trkpt>
      <trkpt lat="50.593425622209907" lon="13.486258909106255">
        <ele>786</ele>
        <time>2026-08-29T16:22:36Z</time>
      </trkpt>
      <trkpt lat="50.593439368531108" lon="13.486285479739308">
        <ele>787</ele>
        <time>2026-08-29T16:22:37Z</time>
      </trkpt>
      <trkpt lat="50.593454288318753" lon="13.486315738409758">
        <ele>787</ele>
        <time>2026-08-29T16:22:38Z</time>
      </trkpt>
      <trkpt lat="50.593467028811574" lon="13.486347002908587">
        <ele>787</ele>
        <time>2026-08-29T16:22:39Z</time>
      </trkpt>
      <trkpt lat="50.593479350209236" lon="13.486375166103244">
        <ele>787</ele>
        <time>2026-08-29T16:22:40Z</time>
      </trkpt>
      <trkpt lat="50.593494269996881" lon="13.486410621553659">
        <ele>787</ele>
        <time>2026-08-29T16:22:41Z</time>
      </trkpt>
      <trkpt lat="50.593504244461656" lon="13.486445071175694">
        <ele>787</ele>
        <time>2026-08-29T16:22:42Z</time>
      </trkpt>
      <trkpt lat="50.593517906963825" lon="13.486479520797729">
        <ele>788</ele>
        <time>2026-08-29T16:22:43Z</time>
      </trkpt>
      <trkpt lat="50.593530731275678" lon="13.486505337059498">
        <ele>788</ele>
        <time>2026-08-29T16:22:44Z</time>
      </trkpt>
      <trkpt lat="50.593544980511069" lon="13.486537858843803">
        <ele>788</ele>
        <time>2026-08-29T16:22:45Z</time>
      </trkpt>
      <trkpt lat="50.593549339100718" lon="13.486554622650146">
        <ele>789</ele>
        <time>2026-08-29T16:22:46Z</time>
      </trkpt>
      <trkpt lat="50.593555038794875" lon="13.486575912684202">
        <ele>789</ele>
        <time>2026-08-29T16:22:47Z</time>
      </trkpt>
      <trkpt lat="50.593555960804224" lon="13.486599382013083">
        <ele>789</ele>
        <time>2026-08-29T16:22:48Z</time>
      </trkpt>
      <trkpt lat="50.59356115758419" lon="13.486622935160995">
        <ele>789</ele>
        <time>2026-08-29T16:22:49Z</time>
      </trkpt>
      <trkpt lat="50.593563253059983" lon="13.486641459167004">
        <ele>789</ele>
        <time>2026-08-29T16:22:50Z</time>
      </trkpt>
      <trkpt lat="50.593571215867996" lon="13.486668616533279">
        <ele>789</ele>
        <time>2026-08-29T16:22:51Z</time>
      </trkpt>
      <trkpt lat="50.593572808429599" lon="13.486688397824764">
        <ele>789</ele>
        <time>2026-08-29T16:22:52Z</time>
      </trkpt>
      <trkpt lat="50.59357725083828" lon="13.486712872982025">
        <ele>789</ele>
        <time>2026-08-29T16:22:53Z</time>
      </trkpt>
      <trkpt lat="50.593582531437278" lon="13.486733995378017">
        <ele>789</ele>
        <time>2026-08-29T16:22:54Z</time>
      </trkpt>
      <trkpt lat="50.593592841178179" lon="13.486765511333942">
        <ele>790</ele>
        <time>2026-08-29T16:22:55Z</time>
      </trkpt>
      <trkpt lat="50.593598876148462" lon="13.486791327595711">
        <ele>790</ele>
        <time>2026-08-29T16:22:56Z</time>
      </trkpt>
      <trkpt lat="50.593608682975173" lon="13.48682644777">
        <ele>790</ele>
        <time>2026-08-29T16:22:57Z</time>
      </trkpt>
      <trkpt lat="50.593619160354137" lon="13.486854024231434">
        <ele>790</ele>
        <time>2026-08-29T16:22:58Z</time>
      </trkpt>
      <trkpt lat="50.593626536428928" lon="13.486875900998712">
        <ele>790</ele>
        <time>2026-08-29T16:22:59Z</time>
      </trkpt>
      <trkpt lat="50.59363592416048" lon="13.486904986202717">
        <ele>790</ele>
        <time>2026-08-29T16:23:00Z</time>
      </trkpt>
      <trkpt lat="50.593643132597208" lon="13.486929964274168">
        <ele>791</ele>
        <time>2026-08-29T16:23:01Z</time>
      </trkpt>
      <trkpt lat="50.593649251386523" lon="13.486951254308224">
        <ele>791</ele>
        <time>2026-08-29T16:23:02Z</time>
      </trkpt>
      <trkpt lat="50.593653526157141" lon="13.486973298713565">
        <ele>791</ele>
        <time>2026-08-29T16:23:03Z</time>
      </trkpt>
      <trkpt lat="50.593655789270997" lon="13.486992996186018">
        <ele>792</ele>
        <time>2026-08-29T16:23:04Z</time>
      </trkpt>
      <trkpt lat="50.593657130375504" lon="13.487016214057803">
        <ele>792</ele>
        <time>2026-08-29T16:23:05Z</time>
      </trkpt>
      <trkpt lat="50.593659477308393" lon="13.487040102481842">
        <ele>792</ele>
        <time>2026-08-29T16:23:06Z</time>
      </trkpt>
      <trkpt lat="50.593658471480012" lon="13.487071450799704">
        <ele>792</ele>
        <time>2026-08-29T16:23:07Z</time>
      </trkpt>
      <trkpt lat="50.593657968565822" lon="13.487095674499869">
        <ele>793</ele>
        <time>2026-08-29T16:23:08Z</time>
      </trkpt>
      <trkpt lat="50.593662830069661" lon="13.487116629257798">
        <ele>793</ele>
        <time>2026-08-29T16:23:09Z</time>
      </trkpt>
      <trkpt lat="50.593663584440947" lon="13.48714211024344">
        <ele>793</ele>
        <time>2026-08-29T16:23:10Z</time>
      </trkpt>
      <trkpt lat="50.59367205016315" lon="13.48716507665813">
        <ele>793</ele>
        <time>2026-08-29T16:23:11Z</time>
      </trkpt>
      <trkpt lat="50.59368034824729" lon="13.487184941768646">
        <ele>794</ele>
        <time>2026-08-29T16:23:12Z</time>
      </trkpt>
      <trkpt lat="50.593685880303383" lon="13.487210758030415">
        <ele>794</ele>
        <time>2026-08-29T16:23:13Z</time>
      </trkpt>
      <trkpt lat="50.593688981607556" lon="13.487238502129912">
        <ele>794</ele>
        <time>2026-08-29T16:23:14Z</time>
      </trkpt>
      <trkpt lat="50.593694010749459" lon="13.4872667491436">
        <ele>794</ele>
        <time>2026-08-29T16:23:15Z</time>
      </trkpt>
      <trkpt lat="50.593697866424918" lon="13.487294241786003">
        <ele>794</ele>
        <time>2026-08-29T16:23:16Z</time>
      </trkpt>
      <trkpt lat="50.593701219186187" lon="13.487322572618723">
        <ele>794</ele>
        <time>2026-08-29T16:23:17Z</time>
      </trkpt>
      <trkpt lat="50.593707589432597" lon="13.48734688013792">
        <ele>795</ele>
        <time>2026-08-29T16:23:18Z</time>
      </trkpt>
      <trkpt lat="50.59371312148869" lon="13.487376552075148">
        <ele>795</ele>
        <time>2026-08-29T16:23:19Z</time>
      </trkpt>
      <trkpt lat="50.593718737363815" lon="13.48740111105144">
        <ele>795</ele>
        <time>2026-08-29T16:23:20Z</time>
      </trkpt>
      <trkpt lat="50.593719659373164" lon="13.487435895949602">
        <ele>795</ele>
        <time>2026-08-29T16:23:21Z</time>
      </trkpt>
      <trkpt lat="50.593720749020576" lon="13.487460119649768">
        <ele>795</ele>
        <time>2026-08-29T16:23:22Z</time>
      </trkpt>
      <trkpt lat="50.593722509220243" lon="13.487486690282822">
        <ele>796</ele>
        <time>2026-08-29T16:23:23Z</time>
      </trkpt>
      <trkpt lat="50.593725861981511" lon="13.48752616904676">
        <ele>795</ele>
        <time>2026-08-29T16:23:24Z</time>
      </trkpt>
      <trkpt lat="50.593731058761477" lon="13.487565144896507">
        <ele>795</ele>
        <time>2026-08-29T16:23:25Z</time>
      </trkpt>
      <trkpt lat="50.593735417351127" lon="13.487597582861781">
        <ele>794</ele>
        <time>2026-08-29T16:23:26Z</time>
      </trkpt>
      <trkpt lat="50.593739273026586" lon="13.487629350274801">
        <ele>794</ele>
        <time>2026-08-29T16:23:27Z</time>
      </trkpt>
      <trkpt lat="50.593738937750459" lon="13.487652651965618">
        <ele>794</ele>
        <time>2026-08-29T16:23:28Z</time>
      </trkpt>
      <trkpt lat="50.593742961063981" lon="13.487680815160275">
        <ele>794</ele>
        <time>2026-08-29T16:23:29Z</time>
      </trkpt>
      <trkpt lat="50.593751762062311" lon="13.487702691927552">
        <ele>794</ele>
        <time>2026-08-29T16:23:30Z</time>
      </trkpt>
      <trkpt lat="50.593761317431927" lon="13.487725155428052">
        <ele>794</ele>
        <time>2026-08-29T16:23:31Z</time>
      </trkpt>
      <trkpt lat="50.593773555010557" lon="13.487752480432391">
        <ele>794</ele>
        <time>2026-08-29T16:23:32Z</time>
      </trkpt>
      <trkpt lat="50.593777662143111" lon="13.487778715789318">
        <ele>794</ele>
        <time>2026-08-29T16:23:33Z</time>
      </trkpt>
      <trkpt lat="50.593783529475331" lon="13.487800844013691">
        <ele>794</ele>
        <time>2026-08-29T16:23:34Z</time>
      </trkpt>
      <trkpt lat="50.59378394857049" lon="13.48782179877162">
        <ele>795</ele>
        <time>2026-08-29T16:23:35Z</time>
      </trkpt>
      <trkpt lat="50.593788977712393" lon="13.487840155139565">
        <ele>795</ele>
        <time>2026-08-29T16:23:36Z</time>
      </trkpt>
      <trkpt lat="50.593795515596867" lon="13.48785649985075">
        <ele>796</ele>
        <time>2026-08-29T16:23:37Z</time>
      </trkpt>
      <trkpt lat="50.593800712376833" lon="13.487876951694489">
        <ele>796</ele>
        <time>2026-08-29T16:23:38Z</time>
      </trkpt>
      <trkpt lat="50.593809010460973" lon="13.48789312876761">
        <ele>796</ele>
        <time>2026-08-29T16:23:39Z</time>
      </trkpt>
      <trkpt lat="50.593816386535764" lon="13.487909976392984">
        <ele>796</ele>
        <time>2026-08-29T16:23:40Z</time>
      </trkpt>
      <trkpt lat="50.593827283009887" lon="13.48792539909482">
        <ele>796</ele>
        <time>2026-08-29T16:23:41Z</time>
      </trkpt>
      <trkpt lat="50.593835078179836" lon="13.487945012748241">
        <ele>797</ele>
        <time>2026-08-29T16:23:42Z</time>
      </trkpt>
      <trkpt lat="50.593841699883342" lon="13.487968984991312">
        <ele>797</ele>
        <time>2026-08-29T16:23:43Z</time>
      </trkpt>
      <trkpt lat="50.593850584700704" lon="13.4879937954247">
        <ele>797</ele>
        <time>2026-08-29T16:23:44Z</time>
      </trkpt>
      <trkpt lat="50.593860391527414" lon="13.488017348572612">
        <ele>797</ele>
        <time>2026-08-29T16:23:45Z</time>
      </trkpt>
      <trkpt lat="50.593868270516396" lon="13.488042075186968">
        <ele>797</ele>
        <time>2026-08-29T16:23:46Z</time>
      </trkpt>
      <trkpt lat="50.593877071514726" lon="13.48806219175458">
        <ele>798</ele>
        <time>2026-08-29T16:23:47Z</time>
      </trkpt>
      <trkpt lat="50.593886794522405" lon="13.488085577264428">
        <ele>798</ele>
        <time>2026-08-29T16:23:48Z</time>
      </trkpt>
      <trkpt lat="50.59389241039753" lon="13.488112734630704">
        <ele>798</ele>
        <time>2026-08-29T16:23:49Z</time>
      </trkpt>
      <trkpt lat="50.593900121748447" lon="13.488130420446396">
        <ele>799</ele>
        <time>2026-08-29T16:23:50Z</time>
      </trkpt>
      <trkpt lat="50.593908587470651" lon="13.488150369375944">
        <ele>799</ele>
        <time>2026-08-29T16:23:51Z</time>
      </trkpt>
      <trkpt lat="50.593917220830917" lon="13.488171240314841">
        <ele>800</ele>
        <time>2026-08-29T16:23:52Z</time>
      </trkpt>
      <trkpt lat="50.593928201124072" lon="13.48819118924439">
        <ele>800</ele>
        <time>2026-08-29T16:23:53Z</time>
      </trkpt>
      <trkpt lat="50.593945886939764" lon="13.488220442086458">
        <ele>800</ele>
        <time>2026-08-29T16:23:54Z</time>
      </trkpt>
      <trkpt lat="50.593957537785172" lon="13.488236786797643">
        <ele>801</ele>
        <time>2026-08-29T16:23:55Z</time>
      </trkpt>
      <trkpt lat="50.593971200287342" lon="13.488253634423018">
        <ele>801</ele>
        <time>2026-08-29T16:23:56Z</time>
      </trkpt>
      <trkpt lat="50.593980252742767" lon="13.4882752597332">
        <ele>802</ele>
        <time>2026-08-29T16:23:57Z</time>
      </trkpt>
      <trkpt lat="50.593987880274653" lon="13.488298142328858">
        <ele>802</ele>
        <time>2026-08-29T16:23:58Z</time>
      </trkpt>
      <trkpt lat="50.593997519463301" lon="13.488320857286453">
        <ele>803</ele>
        <time>2026-08-29T16:23:59Z</time>
      </trkpt>
      <trkpt lat="50.594002297148108" lon="13.488348349928856">
        <ele>803</ele>
        <time>2026-08-29T16:24:00Z</time>
      </trkpt>
      <trkpt lat="50.594008080661297" lon="13.488379111513495">
        <ele>803</ele>
        <time>2026-08-29T16:24:01Z</time>
      </trkpt>
      <trkpt lat="50.594020988792181" lon="13.488408112898469">
        <ele>804</ele>
        <time>2026-08-29T16:24:02Z</time>
      </trkpt>
      <trkpt lat="50.594034232199192" lon="13.48843795247376">
        <ele>804</ele>
        <time>2026-08-29T16:24:03Z</time>
      </trkpt>
      <trkpt lat="50.59404487721622" lon="13.48847022280097">
        <ele>804</ele>
        <time>2026-08-29T16:24:04Z</time>
      </trkpt>
      <trkpt lat="50.594053007662296" lon="13.488506684079766">
        <ele>804</ele>
        <time>2026-08-29T16:24:05Z</time>
      </trkpt>
      <trkpt lat="50.594058455899358" lon="13.48855085670948">
        <ele>804</ele>
        <time>2026-08-29T16:24:06Z</time>
      </trkpt>
      <trkpt lat="50.594064658507705" lon="13.488586228340864">
        <ele>804</ele>
        <time>2026-08-29T16:24:07Z</time>
      </trkpt>
      <trkpt lat="50.594075387343764" lon="13.488620258867741">
        <ele>805</ele>
        <time>2026-08-29T16:24:08Z</time>
      </trkpt>
      <trkpt lat="50.594088546931744" lon="13.48865982145071">
        <ele>805</ele>
        <time>2026-08-29T16:24:09Z</time>
      </trkpt>
      <trkpt lat="50.594101957976818" lon="13.488701563328505">
        <ele>804</ele>
        <time>2026-08-29T16:24:10Z</time>
      </trkpt>
      <trkpt lat="50.594113357365131" lon="13.488744394853711">
        <ele>804</ele>
        <time>2026-08-29T16:24:11Z</time>
      </trkpt>
      <trkpt lat="50.594123499467969" lon="13.48878487944603">
        <ele>805</ele>
        <time>2026-08-29T16:24:12Z</time>
      </trkpt>
      <trkpt lat="50.594133138656616" lon="13.48882888443768">
        <ele>804</ele>
        <time>2026-08-29T16:24:13Z</time>
      </trkpt>
      <trkpt lat="50.5941460467875" lon="13.488874062895775">
        <ele>804</ele>
        <time>2026-08-29T16:24:14Z</time>
      </trkpt>
      <trkpt lat="50.594158787280321" lon="13.488915972411633">
        <ele>804</ele>
        <time>2026-08-29T16:24:15Z</time>
      </trkpt>
      <trkpt lat="50.59417043812573" lon="13.488962911069393">
        <ele>804</ele>
        <time>2026-08-29T16:24:16Z</time>
      </trkpt>
      <trkpt lat="50.594179658219218" lon="13.489009095355868">
        <ele>804</ele>
        <time>2026-08-29T16:24:17Z</time>
      </trkpt>
      <trkpt lat="50.594183681532741" lon="13.489053184166551">
        <ele>804</ele>
        <time>2026-08-29T16:24:18Z</time>
      </trkpt>
      <trkpt lat="50.594192566350102" lon="13.489102888852358">
        <ele>804</ele>
        <time>2026-08-29T16:24:19Z</time>
      </trkpt>
      <trkpt lat="50.594204720109701" lon="13.489155694842339">
        <ele>804</ele>
        <time>2026-08-29T16:24:20Z</time>
      </trkpt>
      <trkpt lat="50.594215700402856" lon="13.489202130585909">
        <ele>804</ele>
        <time>2026-08-29T16:24:21Z</time>
      </trkpt>
      <trkpt lat="50.594224249944091" lon="13.489253679290414">
        <ele>804</ele>
        <time>2026-08-29T16:24:22Z</time>
      </trkpt>
      <trkpt lat="50.594238582998514" lon="13.489306904375553">
        <ele>804</ele>
        <time>2026-08-29T16:24:23Z</time>
      </trkpt>
      <trkpt lat="50.594250988215208" lon="13.489370187744498">
        <ele>804</ele>
        <time>2026-08-29T16:24:24Z</time>
      </trkpt>
      <trkpt lat="50.594264231622219" lon="13.48943623714149">
        <ele>804</ele>
        <time>2026-08-29T16:24:25Z</time>
      </trkpt>
      <trkpt lat="50.594279821962118" lon="13.489500023424625">
        <ele>804</ele>
        <time>2026-08-29T16:24:26Z</time>
      </trkpt>
      <trkpt lat="50.594294909387827" lon="13.489576047286391">
        <ele>804</ele>
        <time>2026-08-29T16:24:27Z</time>
      </trkpt>
      <trkpt lat="50.594312427565455" lon="13.489646371454">
        <ele>804</ele>
        <time>2026-08-29T16:24:28Z</time>
      </trkpt>
      <trkpt lat="50.594330281019211" lon="13.489732872694731">
        <ele>803</ele>
        <time>2026-08-29T16:24:29Z</time>
      </trkpt>
      <trkpt lat="50.594351068139076" lon="13.48982029594481">
        <ele>803</ele>
        <time>2026-08-29T16:24:30Z</time>
      </trkpt>
      <trkpt lat="50.594369089230895" lon="13.489906545728445">
        <ele>803</ele>
        <time>2026-08-29T16:24:31Z</time>
      </trkpt>
      <trkpt lat="50.594389708712697" lon="13.489997405558825">
        <ele>802</ele>
        <time>2026-08-29T16:24:32Z</time>
      </trkpt>
      <trkpt lat="50.59441284276545" lon="13.49009002558887">
        <ele>802</ele>
        <time>2026-08-29T16:24:33Z</time>
      </trkpt>
      <trkpt lat="50.594436731189489" lon="13.49018532782793">
        <ele>802</ele>
        <time>2026-08-29T16:24:34Z</time>
      </trkpt>
      <trkpt lat="50.594462128356099" lon="13.490278869867325">
        <ele>801</ele>
        <time>2026-08-29T16:24:35Z</time>
      </trkpt>
      <trkpt lat="50.594486184418201" lon="13.490369897335768">
        <ele>801</ele>
        <time>2026-08-29T16:24:36Z</time>
      </trkpt>
      <trkpt lat="50.594509234651923" lon="13.490468468517065">
        <ele>800</ele>
        <time>2026-08-29T16:24:37Z</time>
      </trkpt>
      <trkpt lat="50.594534799456596" lon="13.490573996677995">
        <ele>800</ele>
        <time>2026-08-29T16:24:38Z</time>
      </trkpt>
      <trkpt lat="50.594566483050585" lon="13.490684889256954">
        <ele>800</ele>
        <time>2026-08-29T16:24:39Z</time>
      </trkpt>
      <trkpt lat="50.594596322625875" lon="13.490788238123059">
        <ele>800</ele>
        <time>2026-08-29T16:24:40Z</time>
      </trkpt>
      <trkpt lat="50.594627419486642" lon="13.490903656929731">
        <ele>799</ele>
        <time>2026-08-29T16:24:41Z</time>
      </trkpt>
      <trkpt lat="50.594662539660931" lon="13.491018153727055">
        <ele>799</ele>
        <time>2026-08-29T16:24:42Z</time>
      </trkpt>
      <trkpt lat="50.594695899635553" lon="13.491139356046915">
        <ele>798</ele>
        <time>2026-08-29T16:24:43Z</time>
      </trkpt>
      <trkpt lat="50.594727750867605" lon="13.491260223090649">
        <ele>798</ele>
        <time>2026-08-29T16:24:44Z</time>
      </trkpt>
      <trkpt lat="50.594768570736051" lon="13.491372875869274">
        <ele>797</ele>
        <time>2026-08-29T16:24:45Z</time>
      </trkpt>
      <trkpt lat="50.59481299482286" lon="13.491485947743058">
        <ele>796</ele>
        <time>2026-08-29T16:24:46Z</time>
      </trkpt>
      <trkpt lat="50.594865046441555" lon="13.491604132577777">
        <ele>795</ele>
        <time>2026-08-29T16:24:47Z</time>
      </trkpt>
      <trkpt lat="50.594922630116343" lon="13.49171913228929">
        <ele>794</ele>
        <time>2026-08-29T16:24:48Z</time>
      </trkpt>
      <trkpt lat="50.594978202134371" lon="13.491835808381438">
        <ele>794</ele>
        <time>2026-08-29T16:24:49Z</time>
      </trkpt>
      <trkpt lat="50.59503729455173" lon="13.491953490301967">
        <ele>793</ele>
        <time>2026-08-29T16:24:50Z</time>
      </trkpt>
      <trkpt lat="50.595090687274933" lon="13.492062538862228">
        <ele>792</ele>
        <time>2026-08-29T16:24:51Z</time>
      </trkpt>
      <trkpt lat="50.595130501314998" lon="13.492153733968735">
        <ele>791</ele>
        <time>2026-08-29T16:24:52Z</time>
      </trkpt>
      <trkpt lat="50.595166459679604" lon="13.492241995409131">
        <ele>791</ele>
        <time>2026-08-29T16:24:53Z</time>
      </trkpt>
      <trkpt lat="50.595209039747715" lon="13.492341237142682">
        <ele>790</ele>
        <time>2026-08-29T16:24:54Z</time>
      </trkpt>
      <trkpt lat="50.59525715187192" lon="13.492448441684246">
        <ele>789</ele>
        <time>2026-08-29T16:24:55Z</time>
      </trkpt>
      <trkpt lat="50.595305347815156" lon="13.492553886026144">
        <ele>789</ele>
        <time>2026-08-29T16:24:56Z</time>
      </trkpt>
      <trkpt lat="50.595358489081264" lon="13.492663186043501">
        <ele>788</ele>
        <time>2026-08-29T16:24:57Z</time>
      </trkpt>
      <trkpt lat="50.595407607033849" lon="13.492772150784731">
        <ele>787</ele>
        <time>2026-08-29T16:24:58Z</time>
      </trkpt>
      <trkpt lat="50.5954550486058" lon="13.492890000343323">
        <ele>786</ele>
        <time>2026-08-29T16:24:59Z</time>
      </trkpt>
      <trkpt lat="50.595506262034178" lon="13.493008017539978">
        <ele>785</ele>
        <time>2026-08-29T16:25:00Z</time>
      </trkpt>
      <trkpt lat="50.59555035084486" lon="13.493129219859838">
        <ele>784</ele>
        <time>2026-08-29T16:25:01Z</time>
      </trkpt>
      <trkpt lat="50.59559578076005" lon="13.493248661980033">
        <ele>783</ele>
        <time>2026-08-29T16:25:02Z</time>
      </trkpt>
      <trkpt lat="50.595644982531667" lon="13.493374893441796">
        <ele>782</ele>
        <time>2026-08-29T16:25:03Z</time>
      </trkpt>
      <trkpt lat="50.59569594450295" lon="13.493497436866164">
        <ele>781</ele>
        <time>2026-08-29T16:25:04Z</time>
      </trkpt>
      <trkpt lat="50.595749588683248" lon="13.493618639186025">
        <ele>780</ele>
        <time>2026-08-29T16:25:05Z</time>
      </trkpt>
      <trkpt lat="50.595804490149021" lon="13.493735566735268">
        <ele>779</ele>
        <time>2026-08-29T16:25:06Z</time>
      </trkpt>
      <trkpt lat="50.595854362472892" lon="13.493863306939602">
        <ele>778</ele>
        <time>2026-08-29T16:25:07Z</time>
      </trkpt>
      <trkpt lat="50.595899540930986" lon="13.493980150669813">
        <ele>777</ele>
        <time>2026-08-29T16:25:08Z</time>
      </trkpt>
      <trkpt lat="50.595948239788413" lon="13.494096994400024">
        <ele>775</ele>
        <time>2026-08-29T16:25:09Z</time>
      </trkpt>
      <trkpt lat="50.595999117940664" lon="13.494212329387665">
        <ele>774</ele>
        <time>2026-08-29T16:25:10Z</time>
      </trkpt>
      <trkpt lat="50.596052510663867" lon="13.494338309392333">
        <ele>773</ele>
        <time>2026-08-29T16:25:11Z</time>
      </trkpt>
      <trkpt lat="50.596095258370042" lon="13.494449201971292">
        <ele>772</ele>
        <time>2026-08-29T16:25:12Z</time>
      </trkpt>
      <trkpt lat="50.596142029389739" lon="13.494558669626713">
        <ele>771</ele>
        <time>2026-08-29T16:25:13Z</time>
      </trkpt>
      <trkpt lat="50.596192991361022" lon="13.494667802006006">
        <ele>770</ele>
        <time>2026-08-29T16:25:14Z</time>
      </trkpt>
      <trkpt lat="50.59624470770359" lon="13.494780622422695">
        <ele>769</ele>
        <time>2026-08-29T16:25:15Z</time>
      </trkpt>
      <trkpt lat="50.596295669674873" lon="13.49488690495491">
        <ele>768</ele>
        <time>2026-08-29T16:25:16Z</time>
      </trkpt>
      <trkpt lat="50.596349230036139" lon="13.494985979050398">
        <ele>767</ele>
        <time>2026-08-29T16:25:17Z</time>
      </trkpt>
      <trkpt lat="50.596400611102581" lon="13.495082622393966">
        <ele>767</ele>
        <time>2026-08-29T16:25:18Z</time>
      </trkpt>
      <trkpt lat="50.596459452062845" lon="13.495180523023009">
        <ele>766</ele>
        <time>2026-08-29T16:25:19Z</time>
      </trkpt>
      <trkpt lat="50.596516700461507" lon="13.495275322347879">
        <ele>765</ele>
        <time>2026-08-29T16:25:20Z</time>
      </trkpt>
      <trkpt lat="50.596578810364008" lon="13.495367523282766">
        <ele>764</ele>
        <time>2026-08-29T16:25:21Z</time>
      </trkpt>
      <trkpt lat="50.596639327704906" lon="13.495453773066401">
        <ele>763</ele>
        <time>2026-08-29T16:25:22Z</time>
      </trkpt>
      <trkpt lat="50.596699342131615" lon="13.495530718937516">
        <ele>762</ele>
        <time>2026-08-29T16:25:23Z</time>
      </trkpt>
      <trkpt lat="50.596759440377355" lon="13.495609005913138">
        <ele>761</ele>
        <time>2026-08-29T16:25:24Z</time>
      </trkpt>
      <trkpt lat="50.596821969375014" lon="13.495699865743518">
        <ele>760</ele>
        <time>2026-08-29T16:25:25Z</time>
      </trkpt>
      <trkpt lat="50.596890952438116" lon="13.495798436924815">
        <ele>759</ele>
        <time>2026-08-29T16:25:26Z</time>
      </trkpt>
      <trkpt lat="50.596959181129932" lon="13.495893236249685">
        <ele>759</ele>
        <time>2026-08-29T16:25:27Z</time>
      </trkpt>
      <trkpt lat="50.597031684592366" lon="13.495985856279731">
        <ele>758</ele>
        <time>2026-08-29T16:25:28Z</time>
      </trkpt>
      <trkpt lat="50.597108630463481" lon="13.496086355298758">
        <ele>757</ele>
        <time>2026-08-29T16:25:29Z</time>
      </trkpt>
      <trkpt lat="50.597174009308219" lon="13.496174281463027">
        <ele>756</ele>
        <time>2026-08-29T16:25:30Z</time>
      </trkpt>
      <trkpt lat="50.597233101725578" lon="13.496261620894074">
        <ele>755</ele>
        <time>2026-08-29T16:25:31Z</time>
      </trkpt>
      <trkpt lat="50.59728791937232" lon="13.496354660019279">
        <ele>754</ele>
        <time>2026-08-29T16:25:32Z</time>
      </trkpt>
      <trkpt lat="50.59733628295362" lon="13.496446525678039">
        <ele>753</ele>
        <time>2026-08-29T16:25:33Z</time>
      </trkpt>
      <trkpt lat="50.597384059801698" lon="13.496516849845648">
        <ele>753</ele>
        <time>2026-08-29T16:25:34Z</time>
      </trkpt>
      <trkpt lat="50.597420101985335" lon="13.496574014425278">
        <ele>753</ele>
        <time>2026-08-29T16:25:35Z</time>
      </trkpt>
      <trkpt lat="50.597448265179992" lon="13.496617935597897">
        <ele>753</ele>
        <time>2026-08-29T16:25:36Z</time>
      </trkpt>
      <trkpt lat="50.597461508587003" lon="13.496649116277695">
        <ele>753</ele>
        <time>2026-08-29T16:25:37Z</time>
      </trkpt>
      <trkpt lat="50.597466873005033" lon="13.496668143197894">
        <ele>752</ele>
        <time>2026-08-29T16:25:38Z</time>
      </trkpt>
      <trkpt lat="50.597464693710208" lon="13.496665628626943">
        <ele>752</ele>
        <time>2026-08-29T16:25:39Z</time>
      </trkpt>
      <trkpt lat="50.597462262958288" lon="13.496665209531784">
        <ele>753</ele>
        <time>2026-08-29T16:25:40Z</time>
      </trkpt>
      <trkpt lat="50.597464526072145" lon="13.496668478474021">
        <ele>753</ele>
        <time>2026-08-29T16:25:41Z</time>
      </trkpt>
      <trkpt lat="50.597464190796018" lon="13.496670993044972">
        <ele>753</ele>
        <time>2026-08-29T16:25:42Z</time>
      </trkpt>
      <trkpt lat="50.597466118633747" lon="13.496670573949814">
        <ele>753</ele>
        <time>2026-08-29T16:25:43Z</time>
      </trkpt>
      <trkpt lat="50.597466118633747" lon="13.496670490130782">
        <ele>753</ele>
        <time>2026-08-29T16:25:44Z</time>
      </trkpt>
      <trkpt lat="50.597470477223396" lon="13.496668059378862">
        <ele>753</ele>
        <time>2026-08-29T16:25:45Z</time>
      </trkpt>
      <trkpt lat="50.597473159432411" lon="13.496664622798562">
        <ele>753</ele>
        <time>2026-08-29T16:25:46Z</time>
      </trkpt>
      <trkpt lat="50.597472991794348" lon="13.496664622798562">
        <ele>753</ele>
        <time>2026-08-29T16:25:47Z</time>
      </trkpt>
      <trkpt lat="50.597473159432411" lon="13.496664706617594">
        <ele>753</ele>
        <time>2026-08-29T16:25:48Z</time>
      </trkpt>
      <trkpt lat="50.597473327070475" lon="13.496664706617594">
        <ele>753</ele>
        <time>2026-08-29T16:25:49Z</time>
      </trkpt>
      <trkpt lat="50.597473159432411" lon="13.496664874255657">
        <ele>753</ele>
        <time>2026-08-29T16:25:50Z</time>
      </trkpt>
      <trkpt lat="50.597473075613379" lon="13.496665293350816">
        <ele>753</ele>
        <time>2026-08-29T16:25:51Z</time>
      </trkpt>
      <trkpt lat="50.597472907975316" lon="13.496665712445974">
        <ele>753</ele>
        <time>2026-08-29T16:25:52Z</time>
      </trkpt>
      <trkpt lat="50.597472740337253" lon="13.496666215360165">
        <ele>753</ele>
        <time>2026-08-29T16:25:53Z</time>
      </trkpt>
      <trkpt lat="50.597472740337253" lon="13.496666802093387">
        <ele>753</ele>
        <time>2026-08-29T16:25:54Z</time>
      </trkpt>
      <trkpt lat="50.597472488880157" lon="13.49666696973145">
        <ele>753</ele>
        <time>2026-08-29T16:25:55Z</time>
      </trkpt>
      <trkpt lat="50.597472488880157" lon="13.49666696973145">
        <ele>753</ele>
        <time>2026-08-29T16:25:56Z</time>
      </trkpt>
      <trkpt lat="50.597472321242094" lon="13.496666802093387">
        <ele>753</ele>
        <time>2026-08-29T16:25:57Z</time>
      </trkpt>
      <trkpt lat="50.597472321242094" lon="13.496666802093387">
        <ele>753</ele>
        <time>2026-08-29T16:25:58Z</time>
      </trkpt>
      <trkpt lat="50.597472321242094" lon="13.496666802093387">
        <ele>753</ele>
        <time>2026-08-29T16:25:59Z</time>
      </trkpt>
      <trkpt lat="50.597472237423062" lon="13.496666802093387">
        <ele>753</ele>
        <time>2026-08-29T16:26:00Z</time>
      </trkpt>
      <trkpt lat="50.597472321242094" lon="13.496667305007577">
        <ele>753</ele>
        <time>2026-08-29T16:26:01Z</time>
      </trkpt>
      <trkpt lat="50.597472488880157" lon="13.496668059378862">
        <ele>753</ele>
        <time>2026-08-29T16:26:02Z</time>
      </trkpt>
      <trkpt lat="50.597472656518221" lon="13.496667891740799">
        <ele>753</ele>
        <time>2026-08-29T16:26:03Z</time>
      </trkpt>
      <trkpt lat="50.597472740337253" lon="13.496667807921767">
        <ele>753</ele>
        <time>2026-08-29T16:26:04Z</time>
      </trkpt>
      <trkpt lat="50.597472656518221" lon="13.496667891740799">
        <ele>753</ele>
        <time>2026-08-29T16:26:05Z</time>
      </trkpt>
      <trkpt lat="50.597472572699189" lon="13.496667891740799">
        <ele>753</ele>
        <time>2026-08-29T16:26:06Z</time>
      </trkpt>
      <trkpt lat="50.597472740337253" lon="13.496668143197894">
        <ele>753</ele>
        <time>2026-08-29T16:26:07Z</time>
      </trkpt>
      <trkpt lat="50.597472740337253" lon="13.496668478474021">
        <ele>753</ele>
        <time>2026-08-29T16:26:08Z</time>
      </trkpt>
      <trkpt lat="50.597472740337253" lon="13.496668562293053">
        <ele>753</ele>
        <time>2026-08-29T16:26:09Z</time>
      </trkpt>
      <trkpt lat="50.597472572699189" lon="13.496668394654989">
        <ele>753</ele>
        <time>2026-08-29T16:26:10Z</time>
      </trkpt>
      <trkpt lat="50.597472488880157" lon="13.496668310835958">
        <ele>753</ele>
        <time>2026-08-29T16:26:11Z</time>
      </trkpt>
      <trkpt lat="50.597472488880157" lon="13.496668059378862">
        <ele>753</ele>
        <time>2026-08-29T16:26:12Z</time>
      </trkpt>
      <trkpt lat="50.597472572699189" lon="13.496668310835958">
        <ele>753</ele>
        <time>2026-08-29T16:26:13Z</time>
      </trkpt>
      <trkpt lat="50.597472656518221" lon="13.496668310835958">
        <ele>753</ele>
        <time>2026-08-29T16:26:14Z</time>
      </trkpt>
      <trkpt lat="50.597472572699189" lon="13.496668478474021">
        <ele>753</ele>
        <time>2026-08-29T16:26:15Z</time>
      </trkpt>
      <trkpt lat="50.597472488880157" lon="13.496668729931116">
        <ele>753</ele>
        <time>2026-08-29T16:26:16Z</time>
      </trkpt>
      <trkpt lat="50.597472321242094" lon="13.496668729931116">
        <ele>753</ele>
        <time>2026-08-29T16:26:17Z</time>
      </trkpt>
      <trkpt lat="50.597472069784999" lon="13.496668813750148">
        <ele>753</ele>
        <time>2026-08-29T16:26:18Z</time>
      </trkpt>
      <trkpt lat="50.597471902146935" lon="13.496669065207243">
        <ele>753</ele>
        <time>2026-08-29T16:26:19Z</time>
      </trkpt>
      <trkpt lat="50.597471566870809" lon="13.496669149026275">
        <ele>753</ele>
        <time>2026-08-29T16:26:20Z</time>
      </trkpt>
      <trkpt lat="50.597471399232745" lon="13.496669149026275">
        <ele>753</ele>
        <time>2026-08-29T16:26:21Z</time>
      </trkpt>
      <trkpt lat="50.597471399232745" lon="13.496669651940465">
        <ele>753</ele>
        <time>2026-08-29T16:26:22Z</time>
      </trkpt>
      <trkpt lat="50.597471231594682" lon="13.496670238673687">
        <ele>753</ele>
        <time>2026-08-29T16:26:23Z</time>
      </trkpt>
      <trkpt lat="50.597471231594682" lon="13.496670490130782">
        <ele>753</ele>
        <time>2026-08-29T16:26:24Z</time>
      </trkpt>
      <trkpt lat="50.597471063956618" lon="13.49667040631175">
        <ele>753</ele>
        <time>2026-08-29T16:26:25Z</time>
      </trkpt>
      <trkpt lat="50.597470728680491" lon="13.496670490130782">
        <ele>753</ele>
        <time>2026-08-29T16:26:26Z</time>
      </trkpt>
      <trkpt lat="50.597470812499523" lon="13.496670573949814">
        <ele>753</ele>
        <time>2026-08-29T16:26:27Z</time>
      </trkpt>
      <trkpt lat="50.597470477223396" lon="13.496670825406909">
        <ele>753</ele>
        <time>2026-08-29T16:26:28Z</time>
      </trkpt>
      <trkpt lat="50.597470477223396" lon="13.496670909225941">
        <ele>753</ele>
        <time>2026-08-29T16:26:29Z</time>
      </trkpt>
      <trkpt lat="50.597470309585333" lon="13.496670909225941">
        <ele>753</ele>
        <time>2026-08-29T16:26:30Z</time>
      </trkpt>
      <trkpt lat="50.597470309585333" lon="13.496671328321099">
        <ele>753</ele>
        <time>2026-08-29T16:26:31Z</time>
      </trkpt>
      <trkpt lat="50.597470058128238" lon="13.496670909225941">
        <ele>753</ele>
        <time>2026-08-29T16:26:32Z</time>
      </trkpt>
      <trkpt lat="50.597469806671143" lon="13.496670825406909">
        <ele>753</ele>
        <time>2026-08-29T16:26:33Z</time>
      </trkpt>
      <trkpt lat="50.597464861348271" lon="13.496676022186875">
        <ele>753</ele>
        <time>2026-08-29T16:26:34Z</time>
      </trkpt>
      <trkpt lat="50.597466956824064" lon="13.4966747649014">
        <ele>753</ele>
        <time>2026-08-29T16:26:35Z</time>
      </trkpt>
      <trkpt lat="50.597469471395016" lon="13.496669987216592">
        <ele>753</ele>
        <time>2026-08-29T16:26:36Z</time>
      </trkpt>
      <trkpt lat="50.59746528044343" lon="13.496670322492719">
        <ele>753</ele>
        <time>2026-08-29T16:26:37Z</time>
      </trkpt>
      <trkpt lat="50.597465112805367" lon="13.496670238673687">
        <ele>753</ele>
        <time>2026-08-29T16:26:38Z</time>
      </trkpt>
      <trkpt lat="50.597469387575984" lon="13.496671412140131">
        <ele>753</ele>
        <time>2026-08-29T16:26:39Z</time>
      </trkpt>
      <trkpt lat="50.597469303756952" lon="13.49667183123529">
        <ele>753</ele>
        <time>2026-08-29T16:26:40Z</time>
      </trkpt>
      <trkpt lat="50.597471818327904" lon="13.496671998873353">
        <ele>753</ele>
        <time>2026-08-29T16:26:41Z</time>
      </trkpt>
      <trkpt lat="50.597476428374648" lon="13.496683817356825">
        <ele>753</ele>
        <time>2026-08-29T16:26:42Z</time>
      </trkpt>
      <trkpt lat="50.597478859126568" lon="13.496708711609244">
        <ele>752</ele>
        <time>2026-08-29T16:26:43Z</time>
      </trkpt>
      <trkpt lat="50.597492353990674" lon="13.496738635003567">
        <ele>752</ele>
        <time>2026-08-29T16:26:44Z</time>
      </trkpt>
      <trkpt lat="50.59750878252089" lon="13.496783562004566">
        <ele>752</ele>
        <time>2026-08-29T16:26:45Z</time>
      </trkpt>
      <trkpt lat="50.597529485821724" lon="13.496836116537452">
        <ele>752</ele>
        <time>2026-08-29T16:26:46Z</time>
      </trkpt>
      <trkpt lat="50.597545746713877" lon="13.496891353279352">
        <ele>753</ele>
        <time>2026-08-29T16:26:47Z</time>
      </trkpt>
      <trkpt lat="50.597567707300186" lon="13.496945835649967">
        <ele>753</ele>
        <time>2026-08-29T16:26:48Z</time>
      </trkpt>
      <trkpt lat="50.597590170800686" lon="13.496996462345123">
        <ele>753</ele>
        <time>2026-08-29T16:26:49Z</time>
      </trkpt>
      <trkpt lat="50.597614981234074" lon="13.497050693258643">
        <ele>753</ele>
        <time>2026-08-29T16:26:50Z</time>
      </trkpt>
      <trkpt lat="50.59764557518065" lon="13.497110791504383">
        <ele>753</ele>
        <time>2026-08-29T16:26:51Z</time>
      </trkpt>
      <trkpt lat="50.597671391442418" lon="13.497175164520741">
        <ele>752</ele>
        <time>2026-08-29T16:26:52Z</time>
      </trkpt>
      <trkpt lat="50.597695028409362" lon="13.497237274423242">
        <ele>752</ele>
        <time>2026-08-29T16:26:53Z</time>
      </trkpt>
      <trkpt lat="50.597719587385654" lon="13.497305754572153">
        <ele>752</ele>
        <time>2026-08-29T16:26:54Z</time>
      </trkpt>
      <trkpt lat="50.597745319828391" lon="13.497371971607208">
        <ele>752</ele>
        <time>2026-08-29T16:26:55Z</time>
      </trkpt>
      <trkpt lat="50.597766861319542" lon="13.49744095467031">
        <ele>752</ele>
        <time>2026-08-29T16:26:56Z</time>
      </trkpt>
      <trkpt lat="50.59779510833323" lon="13.49751622416079">
        <ele>752</ele>
        <time>2026-08-29T16:26:57Z</time>
      </trkpt>
      <trkpt lat="50.59782343916595" lon="13.497588811442256">
        <ele>752</ele>
        <time>2026-08-29T16:26:58Z</time>
      </trkpt>
      <trkpt lat="50.597855122759938" lon="13.497663661837578">
        <ele>752</ele>
        <time>2026-08-29T16:26:59Z</time>
      </trkpt>
      <trkpt lat="50.59789041057229" lon="13.497742787003517">
        <ele>752</ele>
        <time>2026-08-29T16:27:00Z</time>
      </trkpt>
      <trkpt lat="50.597925279289484" lon="13.497817972674966">
        <ele>751</ele>
        <time>2026-08-29T16:27:01Z</time>
      </trkpt>
      <trkpt lat="50.597956292331219" lon="13.497895589098334">
        <ele>751</ele>
        <time>2026-08-29T16:27:02Z</time>
      </trkpt>
      <trkpt lat="50.597989233210683" lon="13.497972954064608">
        <ele>751</ele>
        <time>2026-08-29T16:27:03Z</time>
      </trkpt>
      <trkpt lat="50.598022760823369" lon="13.498051827773452">
        <ele>750</ele>
        <time>2026-08-29T16:27:04Z</time>
      </trkpt>
      <trkpt lat="50.598056875169277" lon="13.498133635148406">
        <ele>750</ele>
        <time>2026-08-29T16:27:05Z</time>
      </trkpt>
      <trkpt lat="50.598090318962932" lon="13.498216196894646">
        <ele>750</ele>
        <time>2026-08-29T16:27:06Z</time>
      </trkpt>
      <trkpt lat="50.598122170194983" lon="13.498306972905993">
        <ele>750</ele>
        <time>2026-08-29T16:27:07Z</time>
      </trkpt>
      <trkpt lat="50.598161062225699" lon="13.498387690633535">
        <ele>749</ele>
        <time>2026-08-29T16:27:08Z</time>
      </trkpt>
      <trkpt lat="50.598198361694813" lon="13.498472012579441">
        <ele>749</ele>
        <time>2026-08-29T16:27:09Z</time>
      </trkpt>
      <trkpt lat="50.5982421990484" lon="13.498552059754729">
        <ele>749</ele>
        <time>2026-08-29T16:27:10Z</time>
      </trkpt>
      <trkpt lat="50.598284276202321" lon="13.498629759997129">
        <ele>749</ele>
        <time>2026-08-29T16:27:11Z</time>
      </trkpt>
      <trkpt lat="50.598327359184623" lon="13.498705783858895">
        <ele>748</ele>
        <time>2026-08-29T16:27:12Z</time>
      </trkpt>
      <trkpt lat="50.598368179053068" lon="13.498782310634851">
        <ele>748</ele>
        <time>2026-08-29T16:27:13Z</time>
      </trkpt>
      <trkpt lat="50.598402712494135" lon="13.498859172686934">
        <ele>748</ele>
        <time>2026-08-29T16:27:14Z</time>
      </trkpt>
      <trkpt lat="50.598428780212998" lon="13.498946344479918">
        <ele>748</ele>
        <time>2026-08-29T16:27:15Z</time>
      </trkpt>
      <trkpt lat="50.598442107439041" lon="13.499040305614471">
        <ele>748</ele>
        <time>2026-08-29T16:27:16Z</time>
      </trkpt>
      <trkpt lat="50.598453339189291" lon="13.499133512377739">
        <ele>747</ele>
        <time>2026-08-29T16:27:17Z</time>
      </trkpt>
      <trkpt lat="50.598470941185951" lon="13.499219343066216">
        <ele>747</ele>
        <time>2026-08-29T16:27:18Z</time>
      </trkpt>
      <trkpt lat="50.598482089117169" lon="13.499302659183741">
        <ele>747</ele>
        <time>2026-08-29T16:27:19Z</time>
      </trkpt>
      <trkpt lat="50.598494997248054" lon="13.499398129060864">
        <ele>746</ele>
        <time>2026-08-29T16:27:20Z</time>
      </trkpt>
      <trkpt lat="50.598511006683111" lon="13.499486977234483">
        <ele>746</ele>
        <time>2026-08-29T16:27:21Z</time>
      </trkpt>
      <trkpt lat="50.598526345565915" lon="13.499575154855847">
        <ele>746</ele>
        <time>2026-08-29T16:27:22Z</time>
      </trkpt>
      <trkpt lat="50.598533973097801" lon="13.499671882018447">
        <ele>745</ele>
        <time>2026-08-29T16:27:23Z</time>
      </trkpt>
      <trkpt lat="50.598536739125848" lon="13.499773973599076">
        <ele>745</ele>
        <time>2026-08-29T16:27:24Z</time>
      </trkpt>
      <trkpt lat="50.598544869571924" lon="13.499859720468521">
        <ele>745</ele>
        <time>2026-08-29T16:27:25Z</time>
      </trkpt>
      <trkpt lat="50.598553670570254" lon="13.499943790957332">
        <ele>745</ele>
        <time>2026-08-29T16:27:26Z</time>
      </trkpt>
      <trkpt lat="50.598560376092792" lon="13.500041775405407">
        <ele>744</ele>
        <time>2026-08-29T16:27:27Z</time>
      </trkpt>
      <trkpt lat="50.598571021109819" lon="13.50012986920774">
        <ele>744</ele>
        <time>2026-08-29T16:27:28Z</time>
      </trkpt>
      <trkpt lat="50.598575631156564" lon="13.50021880120039">
        <ele>744</ele>
        <time>2026-08-29T16:27:29Z</time>
      </trkpt>
      <trkpt lat="50.598584432154894" lon="13.500303458422422">
        <ele>744</ele>
        <time>2026-08-29T16:27:30Z</time>
      </trkpt>
      <trkpt lat="50.598600609228015" lon="13.500385349616408">
        <ele>743</ele>
        <time>2026-08-29T16:27:31Z</time>
      </trkpt>
      <trkpt lat="50.598620809614658" lon="13.500464390963316">
        <ele>743</ele>
        <time>2026-08-29T16:27:32Z</time>
      </trkpt>
      <trkpt lat="50.598643273115158" lon="13.500551981851459">
        <ele>742</ele>
        <time>2026-08-29T16:27:33Z</time>
      </trkpt>
      <trkpt lat="50.598668921738863" lon="13.500639237463474">
        <ele>742</ele>
        <time>2026-08-29T16:27:34Z</time>
      </trkpt>
      <trkpt lat="50.598686020821333" lon="13.500726073980331">
        <ele>742</ele>
        <time>2026-08-29T16:27:35Z</time>
      </trkpt>
      <trkpt lat="50.598710998892784" lon="13.500800589099526">
        <ele>742</ele>
        <time>2026-08-29T16:27:36Z</time>
      </trkpt>
      <trkpt lat="50.598735809326172" lon="13.500864375382662">
        <ele>742</ele>
        <time>2026-08-29T16:27:37Z</time>
      </trkpt>
      <trkpt lat="50.598753830417991" lon="13.50090779364109">
        <ele>742</ele>
        <time>2026-08-29T16:27:38Z</time>
      </trkpt>
      <trkpt lat="50.598770510405302" lon="13.500902345404029">
        <ele>742</ele>
        <time>2026-08-29T16:27:39Z</time>
      </trkpt>
      <trkpt lat="50.598789621144533" lon="13.500892706215382">
        <ele>742</ele>
        <time>2026-08-29T16:27:40Z</time>
      </trkpt>
      <trkpt lat="50.598797667771578" lon="13.500872924923897">
        <ele>741</ele>
        <time>2026-08-29T16:27:41Z</time>
      </trkpt>
      <trkpt lat="50.598796578124166" lon="13.50087208673358">
        <ele>741</ele>
        <time>2026-08-29T16:27:42Z</time>
      </trkpt>
      <trkpt lat="50.59879775159061" lon="13.500878540799022">
        <ele>741</ele>
        <time>2026-08-29T16:27:43Z</time>
      </trkpt>
      <trkpt lat="50.59879775159061" lon="13.500878792256117">
        <ele>741</ele>
        <time>2026-08-29T16:27:44Z</time>
      </trkpt>
      <trkpt lat="50.598802361637354" lon="13.500877702608705">
        <ele>741</ele>
        <time>2026-08-29T16:27:45Z</time>
      </trkpt>
      <trkpt lat="50.598809318616986" lon="13.500874852761626">
        <ele>741</ele>
        <time>2026-08-29T16:27:46Z</time>
      </trkpt>
      <trkpt lat="50.598806720227003" lon="13.500879378989339">
        <ele>741</ele>
        <time>2026-08-29T16:27:47Z</time>
      </trkpt>
      <trkpt lat="50.59880755841732" lon="13.500879630446434">
        <ele>741</ele>
        <time>2026-08-29T16:27:48Z</time>
      </trkpt>
      <trkpt lat="50.598805630579591" lon="13.500878373160958">
        <ele>741</ele>
        <time>2026-08-29T16:27:49Z</time>
      </trkpt>
      <trkpt lat="50.598806384950876" lon="13.5008813906461">
        <ele>741</ele>
        <time>2026-08-29T16:27:50Z</time>
      </trkpt>
      <trkpt lat="50.598805462941527" lon="13.500882899388671">
        <ele>742</ele>
        <time>2026-08-29T16:27:51Z</time>
      </trkpt>
      <trkpt lat="50.598805462941527" lon="13.500882983207703">
        <ele>742</ele>
        <time>2026-08-29T16:27:52Z</time>
      </trkpt>
      <trkpt lat="50.598805379122496" lon="13.500882983207703">
        <ele>742</ele>
        <time>2026-08-29T16:27:53Z</time>
      </trkpt>
      <trkpt lat="50.598805379122496" lon="13.500883234664798">
        <ele>742</ele>
        <time>2026-08-29T16:27:54Z</time>
      </trkpt>
      <trkpt lat="50.598805211484432" lon="13.500883486121893">
        <ele>742</ele>
        <time>2026-08-29T16:27:55Z</time>
      </trkpt>
      <trkpt lat="50.598805127665401" lon="13.500883569940925">
        <ele>742</ele>
        <time>2026-08-29T16:27:56Z</time>
      </trkpt>
      <trkpt lat="50.598805379122496" lon="13.500884575769305">
        <ele>742</ele>
        <time>2026-08-29T16:27:57Z</time>
      </trkpt>
      <trkpt lat="50.59880705550313" lon="13.500881223008037">
        <ele>741</ele>
        <time>2026-08-29T16:27:58Z</time>
      </trkpt>
      <trkpt lat="50.598806720227003" lon="13.500880300998688">
        <ele>742</ele>
        <time>2026-08-29T16:27:59Z</time>
      </trkpt>
      <trkpt lat="50.598808731883764" lon="13.500875774770975">
        <ele>741</ele>
        <time>2026-08-29T16:28:00Z</time>
      </trkpt>
      <trkpt lat="50.598810408264399" lon="13.500865297392011">
        <ele>741</ele>
        <time>2026-08-29T16:28:01Z</time>
      </trkpt>
      <trkpt lat="50.598817532882094" lon="13.500873763114214">
        <ele>741</ele>
        <time>2026-08-29T16:28:02Z</time>
      </trkpt>
      <trkpt lat="50.598819125443697" lon="13.500872002914548">
        <ele>741</ele>
        <time>2026-08-29T16:28:03Z</time>
      </trkpt>
      <trkpt lat="50.598815269768238" lon="13.500881139189005">
        <ele>741</ele>
        <time>2026-08-29T16:28:04Z</time>
      </trkpt>
      <trkpt lat="50.598812587559223" lon="13.500882815569639">
        <ele>741</ele>
        <time>2026-08-29T16:28:05Z</time>
      </trkpt>
      <trkpt lat="50.598815437406301" lon="13.500884659588337">
        <ele>741</ele>
        <time>2026-08-29T16:28:06Z</time>
      </trkpt>
      <trkpt lat="50.598816107958555" lon="13.500881642103195">
        <ele>740</ele>
        <time>2026-08-29T16:28:07Z</time>
      </trkpt>
      <trkpt lat="50.598807474598289" lon="13.500890862196684">
        <ele>740</ele>
        <time>2026-08-29T16:28:08Z</time>
      </trkpt>
      <trkpt lat="50.598800349980593" lon="13.500901088118553">
        <ele>740</ele>
        <time>2026-08-29T16:28:09Z</time>
      </trkpt>
      <trkpt lat="50.5987982545048" lon="13.500917851924896">
        <ele>740</ele>
        <time>2026-08-29T16:28:10Z</time>
      </trkpt>
      <trkpt lat="50.598787106573582" lon="13.500940147787333">
        <ele>740</ele>
        <time>2026-08-29T16:28:11Z</time>
      </trkpt>
      <trkpt lat="50.598782831802964" lon="13.500995552167296">
        <ele>739</ele>
        <time>2026-08-29T16:28:12Z</time>
      </trkpt>
      <trkpt lat="50.598791213706136" lon="13.501051710918546">
        <ele>739</ele>
        <time>2026-08-29T16:28:13Z</time>
      </trkpt>
      <trkpt lat="50.598800098523498" lon="13.501119939610362">
        <ele>739</ele>
        <time>2026-08-29T16:28:14Z</time>
      </trkpt>
      <trkpt lat="50.59880948625505" lon="13.501179618760943">
        <ele>739</ele>
        <time>2026-08-29T16:28:15Z</time>
      </trkpt>
      <trkpt lat="50.598832536488771" lon="13.501249775290489">
        <ele>739</ele>
        <time>2026-08-29T16:28:16Z</time>
      </trkpt>
      <trkpt lat="50.598854329437017" lon="13.501322865486145">
        <ele>738</ele>
        <time>2026-08-29T16:28:17Z</time>
      </trkpt>
      <trkpt lat="50.598876290023327" lon="13.501387741416693">
        <ele>739</ele>
        <time>2026-08-29T16:28:18Z</time>
      </trkpt>
      <trkpt lat="50.598907051607966" lon="13.501450773328543">
        <ele>739</ele>
        <time>2026-08-29T16:28:19Z</time>
      </trkpt>
      <trkpt lat="50.598939070478082" lon="13.501519421115518">
        <ele>739</ele>
        <time>2026-08-29T16:28:20Z</time>
      </trkpt>
      <trkpt lat="50.598969496786594" lon="13.501583877950907">
        <ele>739</ele>
        <time>2026-08-29T16:28:21Z</time>
      </trkpt>
      <trkpt lat="50.599007131531835" lon="13.501650765538216">
        <ele>739</ele>
        <time>2026-08-29T16:28:22Z</time>
      </trkpt>
      <trkpt lat="50.599051555618644" lon="13.501720083877444">
        <ele>738</ele>
        <time>2026-08-29T16:28:23Z</time>
      </trkpt>
      <trkpt lat="50.5990987457335" lon="13.501794850453734">
        <ele>738</ele>
        <time>2026-08-29T16:28:24Z</time>
      </trkpt>
      <trkpt lat="50.599142331629992" lon="13.501864839345217">
        <ele>736</ele>
        <time>2026-08-29T16:28:25Z</time>
      </trkpt>
      <trkpt lat="50.599188264459372" lon="13.501939605921507">
        <ele>736</ele>
        <time>2026-08-29T16:28:26Z</time>
      </trkpt>
      <trkpt lat="50.599230090156198" lon="13.502019988372922">
        <ele>736</ele>
        <time>2026-08-29T16:28:27Z</time>
      </trkpt>
      <trkpt lat="50.599273843690753" lon="13.502103555947542">
        <ele>735</ele>
        <time>2026-08-29T16:28:28Z</time>
      </trkpt>
      <trkpt lat="50.59932011179626" lon="13.502195253968239">
        <ele>735</ele>
        <time>2026-08-29T16:28:29Z</time>
      </trkpt>
      <trkpt lat="50.599357830360532" lon="13.50229256786406">
        <ele>735</ele>
        <time>2026-08-29T16:28:30Z</time>
      </trkpt>
      <trkpt lat="50.599380796775222" lon="13.502398515120149">
        <ele>734</ele>
        <time>2026-08-29T16:28:31Z</time>
      </trkpt>
      <trkpt lat="50.599403763189912" lon="13.50250069051981">
        <ele>735</ele>
        <time>2026-08-29T16:28:32Z</time>
      </trkpt>
      <trkpt lat="50.599419940263033" lon="13.502606805413961">
        <ele>734</ele>
        <time>2026-08-29T16:28:33Z</time>
      </trkpt>
      <trkpt lat="50.599430585280061" lon="13.502714261412621">
        <ele>734</ele>
        <time>2026-08-29T16:28:34Z</time>
      </trkpt>
      <trkpt lat="50.599431088194251" lon="13.502828422933817">
        <ele>734</ele>
        <time>2026-08-29T16:28:35Z</time>
      </trkpt>
      <trkpt lat="50.599424550309777" lon="13.502936884760857">
        <ele>733</ele>
        <time>2026-08-29T16:28:36Z</time>
      </trkpt>
      <trkpt lat="50.599415581673384" lon="13.503022883087397">
        <ele>733</ele>
        <time>2026-08-29T16:28:37Z</time>
      </trkpt>
      <trkpt lat="50.599397225305438" lon="13.503130674362183">
        <ele>733</ele>
        <time>2026-08-29T16:28:38Z</time>
      </trkpt>
      <trkpt lat="50.599383730441332" lon="13.503247434273362">
        <ele>732</ele>
        <time>2026-08-29T16:28:39Z</time>
      </trkpt>
      <trkpt lat="50.599349197000265" lon="13.503365535289049">
        <ele>731</ele>
        <time>2026-08-29T16:28:40Z</time>
      </trkpt>
      <trkpt lat="50.599330840632319" lon="13.503480954095721">
        <ele>731</ele>
        <time>2026-08-29T16:28:41Z</time>
      </trkpt>
      <trkpt lat="50.599320782348514" lon="13.503604587167501">
        <ele>730</ele>
        <time>2026-08-29T16:28:42Z</time>
      </trkpt>
      <trkpt lat="50.599305778741837" lon="13.503710869699717">
        <ele>730</ele>
        <time>2026-08-29T16:28:43Z</time>
      </trkpt>
      <trkpt lat="50.599282812327147" lon="13.503835257142782">
        <ele>729</ele>
        <time>2026-08-29T16:28:44Z</time>
      </trkpt>
      <trkpt lat="50.599264875054359" lon="13.503960398957133">
        <ele>729</ele>
        <time>2026-08-29T16:28:45Z</time>
      </trkpt>
      <trkpt lat="50.599243082106113" lon="13.504084283486009">
        <ele>728</ele>
        <time>2026-08-29T16:28:46Z</time>
      </trkpt>
      <trkpt lat="50.599214918911457" lon="13.504190733656287">
        <ele>727</ele>
        <time>2026-08-29T16:28:47Z</time>
      </trkpt>
      <trkpt lat="50.599183151498437" lon="13.504297854378819">
        <ele>726</ele>
        <time>2026-08-29T16:28:48Z</time>
      </trkpt>
      <trkpt lat="50.599145265296102" lon="13.504404639825225">
        <ele>725</ele>
        <time>2026-08-29T16:28:49Z</time>
      </trkpt>
      <trkpt lat="50.599111570045352" lon="13.504504971206188">
        <ele>725</ele>
        <time>2026-08-29T16:28:50Z</time>
      </trkpt>
      <trkpt lat="50.599075695499778" lon="13.504599183797836">
        <ele>724</ele>
        <time>2026-08-29T16:28:51Z</time>
      </trkpt>
      <trkpt lat="50.599043508991599" lon="13.504697168245912">
        <ele>723</ele>
        <time>2026-08-29T16:28:52Z</time>
      </trkpt>
      <trkpt lat="50.59900738298893" lon="13.504793224856257">
        <ele>722</ele>
        <time>2026-08-29T16:28:53Z</time>
      </trkpt>
      <trkpt lat="50.59896974824369" lon="13.504892634227872">
        <ele>722</ele>
        <time>2026-08-29T16:28:54Z</time>
      </trkpt>
      <trkpt lat="50.598936891183257" lon="13.504996569827199">
        <ele>721</ele>
        <time>2026-08-29T16:28:55Z</time>
      </trkpt>
      <trkpt lat="50.598906129598618" lon="13.505102768540382">
        <ele>720</ele>
        <time>2026-08-29T16:28:56Z</time>
      </trkpt>
      <trkpt lat="50.598872769623995" lon="13.505203602835536">
        <ele>720</ele>
        <time>2026-08-29T16:28:57Z</time>
      </trkpt>
      <trkpt lat="50.598841002210975" lon="13.505303766578436">
        <ele>719</ele>
        <time>2026-08-29T16:28:58Z</time>
      </trkpt>
      <trkpt lat="50.598812168464065" lon="13.50539680570364">
        <ele>718</ele>
        <time>2026-08-29T16:28:59Z</time>
      </trkpt>
      <trkpt lat="50.598786268383265" lon="13.50549797527492">
        <ele>718</ele>
        <time>2026-08-29T16:29:00Z</time>
      </trkpt>
      <trkpt lat="50.598765648901463" lon="13.505606688559055">
        <ele>717</ele>
        <time>2026-08-29T16:29:01Z</time>
      </trkpt>
      <trkpt lat="50.598752070218325" lon="13.505713641643524">
        <ele>716</ele>
        <time>2026-08-29T16:29:02Z</time>
      </trkpt>
      <trkpt lat="50.598732540383935" lon="13.505811374634504">
        <ele>716</ele>
        <time>2026-08-29T16:29:03Z</time>
      </trkpt>
      <trkpt lat="50.598712172359228" lon="13.505907766520977">
        <ele>716</ele>
        <time>2026-08-29T16:29:04Z</time>
      </trkpt>
      <trkpt lat="50.59869566000998" lon="13.506012121215463">
        <ele>716</ele>
        <time>2026-08-29T16:29:05Z</time>
      </trkpt>
      <trkpt lat="50.598680907860398" lon="13.506109686568379">
        <ele>716</ele>
        <time>2026-08-29T16:29:06Z</time>
      </trkpt>
      <trkpt lat="50.598665149882436" lon="13.506205910816789">
        <ele>715</ele>
        <time>2026-08-29T16:29:07Z</time>
      </trkpt>
      <trkpt lat="50.598653079941869" lon="13.506291657686234">
        <ele>714</ele>
        <time>2026-08-29T16:29:08Z</time>
      </trkpt>
      <trkpt lat="50.598634136840701" lon="13.506386205554008">
        <ele>714</ele>
        <time>2026-08-29T16:29:09Z</time>
      </trkpt>
      <trkpt lat="50.598624581471086" lon="13.506460217759013">
        <ele>714</ele>
        <time>2026-08-29T16:29:10Z</time>
      </trkpt>
      <trkpt lat="50.598623910918832" lon="13.506499109789729">
        <ele>714</ele>
        <time>2026-08-29T16:29:11Z</time>
      </trkpt>
      <trkpt lat="50.598618881776929" lon="13.506552167236805">
        <ele>714</ele>
        <time>2026-08-29T16:29:12Z</time>
      </trkpt>
      <trkpt lat="50.598619049414992" lon="13.506599692627788">
        <ele>713</ele>
        <time>2026-08-29T16:29:13Z</time>
      </trkpt>
      <trkpt lat="50.598615780472755" lon="13.506647972390056">
        <ele>713</ele>
        <time>2026-08-29T16:29:14Z</time>
      </trkpt>
      <trkpt lat="50.598607482388616" lon="13.506710585206747">
        <ele>713</ele>
        <time>2026-08-29T16:29:15Z</time>
      </trkpt>
      <trkpt lat="50.598593400791287" lon="13.50676984526217">
        <ele>712</ele>
        <time>2026-08-29T16:29:16Z</time>
      </trkpt>
      <trkpt lat="50.598569512367249" lon="13.50685584358871">
        <ele>712</ele>
        <time>2026-08-29T16:29:17Z</time>
      </trkpt>
      <trkpt lat="50.598556520417333" lon="13.506924826651812">
        <ele>712</ele>
        <time>2026-08-29T16:29:18Z</time>
      </trkpt>
      <trkpt lat="50.598544031381607" lon="13.50699707865715">
        <ele>712</ele>
        <time>2026-08-29T16:29:19Z</time>
      </trkpt>
      <trkpt lat="50.598525088280439" lon="13.507069749757648">
        <ele>711</ele>
        <time>2026-08-29T16:29:20Z</time>
      </trkpt>
      <trkpt lat="50.598498685285449" lon="13.507155915722251">
        <ele>711</ele>
        <time>2026-08-29T16:29:21Z</time>
      </trkpt>
      <trkpt lat="50.598461637273431" lon="13.507256666198373">
        <ele>710</ele>
        <time>2026-08-29T16:29:22Z</time>
      </trkpt>
      <trkpt lat="50.598431965336204" lon="13.507346268743277">
        <ele>710</ele>
        <time>2026-08-29T16:29:23Z</time>
      </trkpt>
      <trkpt lat="50.598414279520512" lon="13.507432686164975">
        <ele>709</ele>
        <time>2026-08-29T16:29:24Z</time>
      </trkpt>
      <trkpt lat="50.598398689180613" lon="13.50751893594861">
        <ele>709</ele>
        <time>2026-08-29T16:29:25Z</time>
      </trkpt>
      <trkpt lat="50.598386200144887" lon="13.507610466331244">
        <ele>708</ele>
        <time>2026-08-29T16:29:26Z</time>
      </trkpt>
      <trkpt lat="50.598369939252734" lon="13.507707444950938">
        <ele>708</ele>
        <time>2026-08-29T16:29:27Z</time>
      </trkpt>
      <trkpt lat="50.59835703112185" lon="13.507809452712536">
        <ele>708</ele>
        <time>2026-08-29T16:29:28Z</time>
      </trkpt>
      <trkpt lat="50.598349822685122" lon="13.507887991145253">
        <ele>707</ele>
        <time>2026-08-29T16:29:29Z</time>
      </trkpt>
      <trkpt lat="50.598347978666425" lon="13.507972480729222">
        <ele>707</ele>
        <time>2026-08-29T16:29:30Z</time>
      </trkpt>
      <trkpt lat="50.598373208194971" lon="13.508040038868785">
        <ele>706</ele>
        <time>2026-08-29T16:29:31Z</time>
      </trkpt>
      <trkpt lat="50.59841176494956" lon="13.508082954213023">
        <ele>706</ele>
        <time>2026-08-29T16:29:32Z</time>
      </trkpt>
      <trkpt lat="50.598443448543549" lon="13.508128551766276">
        <ele>706</ele>
        <time>2026-08-29T16:29:33Z</time>
      </trkpt>
      <trkpt lat="50.598477059975266" lon="13.50817465223372">
        <ele>706</ele>
        <time>2026-08-29T16:29:34Z</time>
      </trkpt>
      <trkpt lat="50.598495248705149" lon="13.50821278989315">
        <ele>705</ele>
        <time>2026-08-29T16:29:35Z</time>
      </trkpt>
      <trkpt lat="50.598518550395966" lon="13.508261824026704">
        <ele>705</ele>
        <time>2026-08-29T16:29:36Z</time>
      </trkpt>
      <trkpt lat="50.598542019724846" lon="13.508296776562929">
        <ele>706</ele>
        <time>2026-08-29T16:29:37Z</time>
      </trkpt>
      <trkpt lat="50.598566494882107" lon="13.508322592824697">
        <ele>706</ele>
        <time>2026-08-29T16:29:38Z</time>
      </trkpt>
      <trkpt lat="50.598592311143875" lon="13.50835838355124">
        <ele>707</ele>
        <time>2026-08-29T16:29:39Z</time>
      </trkpt>
      <trkpt lat="50.598616618663073" lon="13.508405573666096">
        <ele>707</ele>
        <time>2026-08-29T16:29:40Z</time>
      </trkpt>
      <trkpt lat="50.598645620048046" lon="13.508438430726528">
        <ele>707</ele>
        <time>2026-08-29T16:29:41Z</time>
      </trkpt>
      <trkpt lat="50.598673783242702" lon="13.508465839549899">
        <ele>707</ele>
        <time>2026-08-29T16:29:42Z</time>
      </trkpt>
      <trkpt lat="50.598700186237693" lon="13.508496768772602">
        <ele>707</ele>
        <time>2026-08-29T16:29:43Z</time>
      </trkpt>
      <trkpt lat="50.598730277270079" lon="13.508535493165255">
        <ele>707</ele>
        <time>2026-08-29T16:29:44Z</time>
      </trkpt>
      <trkpt lat="50.598765565082431" lon="13.508592490106821">
        <ele>707</ele>
        <time>2026-08-29T16:29:45Z</time>
      </trkpt>
      <trkpt lat="50.598785430192947" lon="13.508633645251393">
        <ele>706</ele>
        <time>2026-08-29T16:29:46Z</time>
      </trkpt>
      <trkpt lat="50.598813593387604" lon="13.508670525625348">
        <ele>707</ele>
        <time>2026-08-29T16:29:47Z</time>
      </trkpt>
      <trkpt lat="50.59884125366807" lon="13.508709836751223">
        <ele>707</ele>
        <time>2026-08-29T16:29:48Z</time>
      </trkpt>
      <trkpt lat="50.59887352399528" lon="13.508740933611989">
        <ele>707</ele>
        <time>2026-08-29T16:29:49Z</time>
      </trkpt>
      <trkpt lat="50.59889892116189" lon="13.50876348093152">
        <ele>708</ele>
        <time>2026-08-29T16:29:50Z</time>
      </trkpt>
      <trkpt lat="50.598925407975912" lon="13.508797427639365">
        <ele>708</ele>
        <time>2026-08-29T16:29:51Z</time>
      </trkpt>
      <trkpt lat="50.598945608362556" lon="13.508822657167912">
        <ele>708</ele>
        <time>2026-08-29T16:29:52Z</time>
      </trkpt>
      <trkpt lat="50.598968490958214" lon="13.508843947201967">
        <ele>707</ele>
        <time>2026-08-29T16:29:53Z</time>
      </trkpt>
      <trkpt lat="50.598993301391602" lon="13.50887143984437">
        <ele>708</ele>
        <time>2026-08-29T16:29:54Z</time>
      </trkpt>
      <trkpt lat="50.599020877853036" lon="13.508896417915821">
        <ele>708</ele>
        <time>2026-08-29T16:29:55Z</time>
      </trkpt>
      <trkpt lat="50.599046191200614" lon="13.508912259712815">
        <ele>708</ele>
        <time>2026-08-29T16:29:56Z</time>
      </trkpt>
      <trkpt lat="50.599068654701114" lon="13.508923826739192">
        <ele>708</ele>
        <time>2026-08-29T16:29:57Z</time>
      </trkpt>
      <trkpt lat="50.599094638600945" lon="13.508935142308474">
        <ele>708</ele>
        <time>2026-08-29T16:29:58Z</time>
      </trkpt>
      <trkpt lat="50.599125484004617" lon="13.508945116773248">
        <ele>708</ele>
        <time>2026-08-29T16:29:59Z</time>
      </trkpt>
      <trkpt lat="50.599152641370893" lon="13.508960958570242">
        <ele>708</ele>
        <time>2026-08-29T16:30:00Z</time>
      </trkpt>
      <trkpt lat="50.59917745180428" lon="13.508976800367236">
        <ele>708</ele>
        <time>2026-08-29T16:30:01Z</time>
      </trkpt>
      <trkpt lat="50.599206620827317" lon="13.508996330201626">
        <ele>708</ele>
        <time>2026-08-29T16:30:02Z</time>
      </trkpt>
      <trkpt lat="50.599237298592925" lon="13.509015440940857">
        <ele>709</ele>
        <time>2026-08-29T16:30:03Z</time>
      </trkpt>
      <trkpt lat="50.599271077662706" lon="13.509038155898452">
        <ele>709</ele>
        <time>2026-08-29T16:30:04Z</time>
      </trkpt>
      <trkpt lat="50.599300917237997" lon="13.509057685732841">
        <ele>708</ele>
        <time>2026-08-29T16:30:05Z</time>
      </trkpt>
      <trkpt lat="50.599339222535491" lon="13.509069671854377">
        <ele>709</ele>
        <time>2026-08-29T16:30:06Z</time>
      </trkpt>
      <trkpt lat="50.599384736269712" lon="13.509097583591938">
        <ele>709</ele>
        <time>2026-08-29T16:30:07Z</time>
      </trkpt>
      <trkpt lat="50.599433435127139" lon="13.509118789806962">
        <ele>708</ele>
        <time>2026-08-29T16:30:08Z</time>
      </trkpt>
      <trkpt lat="50.599474841728806" lon="13.50912700407207">
        <ele>708</ele>
        <time>2026-08-29T16:30:09Z</time>
      </trkpt>
      <trkpt lat="50.599526641890407" lon="13.509137313812971">
        <ele>708</ele>
        <time>2026-08-29T16:30:10Z</time>
      </trkpt>
      <trkpt lat="50.599573832005262" lon="13.50914896465838">
        <ele>708</ele>
        <time>2026-08-29T16:30:11Z</time>
      </trkpt>
      <trkpt lat="50.599624207243323" lon="13.50915340706706">
        <ele>708</ele>
        <time>2026-08-29T16:30:12Z</time>
      </trkpt>
      <trkpt lat="50.599676007404923" lon="13.509159274399281">
        <ele>708</ele>
        <time>2026-08-29T16:30:13Z</time>
      </trkpt>
      <trkpt lat="50.59972520917654" lon="13.50916413590312">
        <ele>708</ele>
        <time>2026-08-29T16:30:14Z</time>
      </trkpt>
      <trkpt lat="50.599764352664351" lon="13.509187269955873">
        <ele>708</ele>
        <time>2026-08-29T16:30:15Z</time>
      </trkpt>
      <trkpt lat="50.599797964096069" lon="13.509228425100446">
        <ele>709</ele>
        <time>2026-08-29T16:30:16Z</time>
      </trkpt>
      <trkpt lat="50.599823612719774" lon="13.509274441748857">
        <ele>709</ele>
        <time>2026-08-29T16:30:17Z</time>
      </trkpt>
      <trkpt lat="50.599856050685048" lon="13.509345855563879">
        <ele>709</ele>
        <time>2026-08-29T16:30:18Z</time>
      </trkpt>
      <trkpt lat="50.599887818098068" lon="13.50938843563199">
        <ele>709</ele>
        <time>2026-08-29T16:30:19Z</time>
      </trkpt>
      <trkpt lat="50.599917490035295" lon="13.50941676646471">
        <ele>709</ele>
        <time>2026-08-29T16:30:20Z</time>
      </trkpt>
      <trkpt lat="50.599952777847648" lon="13.5094656329602">
        <ele>709</ele>
        <time>2026-08-29T16:30:21Z</time>
      </trkpt>
      <trkpt lat="50.599991921335459" lon="13.509525563567877">
        <ele>709</ele>
        <time>2026-08-29T16:30:22Z</time>
      </trkpt>
      <trkpt lat="50.600023185834289" lon="13.509590942412615">
        <ele>708</ele>
        <time>2026-08-29T16:30:23Z</time>
      </trkpt>
      <trkpt lat="50.600056042894721" lon="13.509649280458689">
        <ele>708</ele>
        <time>2026-08-29T16:30:24Z</time>
      </trkpt>
      <trkpt lat="50.600090241059661" lon="13.509703427553177">
        <ele>708</ele>
        <time>2026-08-29T16:30:25Z</time>
      </trkpt>
      <trkpt lat="50.600123517215252" lon="13.509742990136147">
        <ele>709</ele>
        <time>2026-08-29T16:30:26Z</time>
      </trkpt>
      <trkpt lat="50.600161906331778" lon="13.509785151109099">
        <ele>709</ele>
        <time>2026-08-29T16:30:27Z</time>
      </trkpt>
      <trkpt lat="50.600196188315749" lon="13.509836615994573">
        <ele>710</ele>
        <time>2026-08-29T16:30:28Z</time>
      </trkpt>
      <trkpt lat="50.600229296833277" lon="13.509884057566524">
        <ele>710</ele>
        <time>2026-08-29T16:30:29Z</time>
      </trkpt>
      <trkpt lat="50.600263411179185" lon="13.509937701746821">
        <ele>711</ele>
        <time>2026-08-29T16:30:30Z</time>
      </trkpt>
      <trkpt lat="50.600302889943123" lon="13.509981036186218">
        <ele>710</ele>
        <time>2026-08-29T16:30:31Z</time>
      </trkpt>
      <trkpt lat="50.60033205896616" lon="13.51001925766468">
        <ele>711</ele>
        <time>2026-08-29T16:30:32Z</time>
      </trkpt>
      <trkpt lat="50.600367598235607" lon="13.510060999542475">
        <ele>711</ele>
        <time>2026-08-29T16:30:33Z</time>
      </trkpt>
      <trkpt lat="50.600399281829596" lon="13.510094527155161">
        <ele>711</ele>
        <time>2026-08-29T16:30:34Z</time>
      </trkpt>
      <trkpt lat="50.600429037585855" lon="13.510131407529116">
        <ele>711</ele>
        <time>2026-08-29T16:30:35Z</time>
      </trkpt>
      <trkpt lat="50.600463235750794" lon="13.510180609300733">
        <ele>711</ele>
        <time>2026-08-29T16:30:36Z</time>
      </trkpt>
      <trkpt lat="50.600493997335434" lon="13.510231906548142">
        <ele>711</ele>
        <time>2026-08-29T16:30:37Z</time>
      </trkpt>
      <trkpt lat="50.600522914901376" lon="13.510285131633282">
        <ele>712</ele>
        <time>2026-08-29T16:30:38Z</time>
      </trkpt>
      <trkpt lat="50.600545210763812" lon="13.510354114696383">
        <ele>713</ele>
        <time>2026-08-29T16:30:39Z</time>
      </trkpt>
      <trkpt lat="50.60056708753109" lon="13.510404657572508">
        <ele>714</ele>
        <time>2026-08-29T16:30:40Z</time>
      </trkpt>
      <trkpt lat="50.600592903792858" lon="13.510453104972839">
        <ele>714</ele>
        <time>2026-08-29T16:30:41Z</time>
      </trkpt>
      <trkpt lat="50.600620228797197" lon="13.510512365028262">
        <ele>714</ele>
        <time>2026-08-29T16:30:42Z</time>
      </trkpt>
      <trkpt lat="50.600643362849951" lon="13.510569613426924">
        <ele>715</ele>
        <time>2026-08-29T16:30:43Z</time>
      </trkpt>
      <trkpt lat="50.600667838007212" lon="13.510630382224917">
        <ele>715</ele>
        <time>2026-08-29T16:30:44Z</time>
      </trkpt>
      <trkpt lat="50.600687032565475" lon="13.51068276911974">
        <ele>715</ele>
        <time>2026-08-29T16:30:45Z</time>
      </trkpt>
      <trkpt lat="50.600707652047276" lon="13.510732725262642">
        <ele>715</ele>
        <time>2026-08-29T16:30:46Z</time>
      </trkpt>
      <trkpt lat="50.600734390318394" lon="13.510786537081003">
        <ele>715</ele>
        <time>2026-08-29T16:30:47Z</time>
      </trkpt>
      <trkpt lat="50.600754423066974" lon="13.51084210909903">
        <ele>716</ele>
        <time>2026-08-29T16:30:48Z</time>
      </trkpt>
      <trkpt lat="50.600780993700027" lon="13.510899441316724">
        <ele>715</ele>
        <time>2026-08-29T16:30:49Z</time>
      </trkpt>
      <trkpt lat="50.600810749456286" lon="13.51094176992774">
        <ele>716</ele>
        <time>2026-08-29T16:30:50Z</time>
      </trkpt>
      <trkpt lat="50.600841259583831" lon="13.510971609503031">
        <ele>716</ele>
        <time>2026-08-29T16:30:51Z</time>
      </trkpt>
      <trkpt lat="50.600871099159122" lon="13.511019973084331">
        <ele>716</ele>
        <time>2026-08-29T16:30:52Z</time>
      </trkpt>
      <trkpt lat="50.600907979533076" lon="13.511049142107368">
        <ele>715</ele>
        <time>2026-08-29T16:30:53Z</time>
      </trkpt>
      <trkpt lat="50.600959528237581" lon="13.511077305302024">
        <ele>715</ele>
        <time>2026-08-29T16:30:54Z</time>
      </trkpt>
      <trkpt lat="50.601015519350767" lon="13.511093817651272">
        <ele>716</ele>
        <time>2026-08-29T16:30:55Z</time>
      </trkpt>
      <trkpt lat="50.601075869053602" lon="13.511093650013208">
        <ele>716</ele>
        <time>2026-08-29T16:30:56Z</time>
      </trkpt>
      <trkpt lat="50.601138481870294" lon="13.511090883985162">
        <ele>716</ele>
        <time>2026-08-29T16:30:57Z</time>
      </trkpt>
      <trkpt lat="50.601198580116034" lon="13.51107956841588">
        <ele>715</ele>
        <time>2026-08-29T16:30:58Z</time>
      </trkpt>
      <trkpt lat="50.601260270923376" lon="13.511070096865296">
        <ele>716</ele>
        <time>2026-08-29T16:30:59Z</time>
      </trkpt>
      <trkpt lat="50.601324895396829" lon="13.511054087430239">
        <ele>716</ele>
        <time>2026-08-29T16:31:00Z</time>
      </trkpt>
      <trkpt lat="50.601387256756425" lon="13.511032881215215">
        <ele>715</ele>
        <time>2026-08-29T16:31:01Z</time>
      </trkpt>
      <trkpt lat="50.601461688056588" lon="13.511025169864297">
        <ele>715</ele>
        <time>2026-08-29T16:31:02Z</time>
      </trkpt>
      <trkpt lat="50.601532598957419" lon="13.511027684435248">
        <ele>715</ele>
        <time>2026-08-29T16:31:03Z</time>
      </trkpt>
      <trkpt lat="50.601600240916014" lon="13.511037742719054">
        <ele>714</ele>
        <time>2026-08-29T16:31:04Z</time>
      </trkpt>
      <trkpt lat="50.601670229807496" lon="13.511045454069972">
        <ele>714</ele>
        <time>2026-08-29T16:31:05Z</time>
      </trkpt>
      <trkpt lat="50.601732591167092" lon="13.511045202612877">
        <ele>714</ele>
        <time>2026-08-29T16:31:06Z</time>
      </trkpt>
      <trkpt lat="50.601790845394135" lon="13.511046962812543">
        <ele>714</ele>
        <time>2026-08-29T16:31:07Z</time>
      </trkpt>
      <trkpt lat="50.601836610585451" lon="13.511059954762459">
        <ele>714</ele>
        <time>2026-08-29T16:31:08Z</time>
      </trkpt>
      <trkpt lat="50.601880615577102" lon="13.511080993339419">
        <ele>713</ele>
        <time>2026-08-29T16:31:09Z</time>
      </trkpt>
      <trkpt lat="50.601927805691957" lon="13.511092979460955">
        <ele>712</ele>
        <time>2026-08-29T16:31:10Z</time>
      </trkpt>
      <trkpt lat="50.601981868967414" lon="13.511126171797514">
        <ele>712</ele>
        <time>2026-08-29T16:31:11Z</time>
      </trkpt>
      <trkpt lat="50.602034591138363" lon="13.511158442124724">
        <ele>712</ele>
        <time>2026-08-29T16:31:12Z</time>
      </trkpt>
      <trkpt lat="50.602078512310982" lon="13.511213511228561">
        <ele>712</ele>
        <time>2026-08-29T16:31:13Z</time>
      </trkpt>
      <trkpt lat="50.602117739617825" lon="13.511291211470962">
        <ele>711</ele>
        <time>2026-08-29T16:31:14Z</time>
      </trkpt>
      <trkpt lat="50.602141879498959" lon="13.511377461254597">
        <ele>711</ele>
        <time>2026-08-29T16:31:15Z</time>
      </trkpt>
      <trkpt lat="50.602145148441195" lon="13.511445103213191">
        <ele>710</ele>
        <time>2026-08-29T16:31:16Z</time>
      </trkpt>
      <trkpt lat="50.602145232260227" lon="13.511498915031552">
        <ele>710</ele>
        <time>2026-08-29T16:31:17Z</time>
      </trkpt>
      <trkpt lat="50.602126037701964" lon="13.511584578081965">
        <ele>709</ele>
        <time>2026-08-29T16:31:18Z</time>
      </trkpt>
      <trkpt lat="50.602116482332349" lon="13.511648448184133">
        <ele>709</ele>
        <time>2026-08-29T16:31:19Z</time>
      </trkpt>
      <trkpt lat="50.602091336622834" lon="13.511732015758753">
        <ele>709</ele>
        <time>2026-08-29T16:31:20Z</time>
      </trkpt>
      <trkpt lat="50.602066107094288" lon="13.511790437623858">
        <ele>709</ele>
        <time>2026-08-29T16:31:21Z</time>
      </trkpt>
      <trkpt lat="50.602051857858896" lon="13.511832850053906">
        <ele>709</ele>
        <time>2026-08-29T16:31:22Z</time>
      </trkpt>
      <trkpt lat="50.60203299857676" lon="13.511901078745723">
        <ele>709</ele>
        <time>2026-08-29T16:31:23Z</time>
      </trkpt>
      <trkpt lat="50.602015480399132" lon="13.511972241103649">
        <ele>708</ele>
        <time>2026-08-29T16:31:24Z</time>
      </trkpt>
      <trkpt lat="50.601996621116996" lon="13.512071734294295">
        <ele>708</ele>
        <time>2026-08-29T16:31:25Z</time>
      </trkpt>
      <trkpt lat="50.601965691894293" lon="13.512154882773757">
        <ele>707</ele>
        <time>2026-08-29T16:31:26Z</time>
      </trkpt>
      <trkpt lat="50.601943312212825" lon="13.51223953999579">
        <ele>706</ele>
        <time>2026-08-29T16:31:27Z</time>
      </trkpt>
      <trkpt lat="50.601930906996131" lon="13.512325957417488">
        <ele>706</ele>
        <time>2026-08-29T16:31:28Z</time>
      </trkpt>
      <trkpt lat="50.6019083596766" lon="13.512393431738019">
        <ele>705</ele>
        <time>2026-08-29T16:31:29Z</time>
      </trkpt>
      <trkpt lat="50.601885141804814" lon="13.512465683743358">
        <ele>705</ele>
        <time>2026-08-29T16:31:30Z</time>
      </trkpt>
      <trkpt lat="50.601862510666251" lon="13.512535756453872">
        <ele>705</ele>
        <time>2026-08-29T16:31:31Z</time>
      </trkpt>
      <trkpt lat="50.601833760738373" lon="13.512616474181414">
        <ele>705</ele>
        <time>2026-08-29T16:31:32Z</time>
      </trkpt>
      <trkpt lat="50.60182236135006" lon="13.512697024270892">
        <ele>704</ele>
        <time>2026-08-29T16:31:33Z</time>
      </trkpt>
      <trkpt lat="50.601801909506321" lon="13.512761732563376">
        <ele>704</ele>
        <time>2026-08-29T16:31:34Z</time>
      </trkpt>
      <trkpt lat="50.601789588108659" lon="13.51283079944551">
        <ele>703</ele>
        <time>2026-08-29T16:31:35Z</time>
      </trkpt>
      <trkpt lat="50.601775422692299" lon="13.512914702296257">
        <ele>703</ele>
        <time>2026-08-29T16:31:36Z</time>
      </trkpt>
      <trkpt lat="50.60176813043654" lon="13.512985780835152">
        <ele>703</ele>
        <time>2026-08-29T16:31:37Z</time>
      </trkpt>
      <trkpt lat="50.601760670542717" lon="13.513053674250841">
        <ele>703</ele>
        <time>2026-08-29T16:31:38Z</time>
      </trkpt>
      <trkpt lat="50.601758491247892" lon="13.513116957619786">
        <ele>703</ele>
        <time>2026-08-29T16:31:39Z</time>
      </trkpt>
      <trkpt lat="50.601752540096641" lon="13.513180743902922">
        <ele>703</ele>
        <time>2026-08-29T16:31:40Z</time>
      </trkpt>
      <trkpt lat="50.601751618087292" lon="13.513240925967693">
        <ele>703</ele>
        <time>2026-08-29T16:31:41Z</time>
      </trkpt>
      <trkpt lat="50.601734267547727" lon="13.513296917080879">
        <ele>703</ele>
        <time>2026-08-29T16:31:42Z</time>
      </trkpt>
      <trkpt lat="50.601729908958077" lon="13.513360703364015">
        <ele>704</ele>
        <time>2026-08-29T16:31:43Z</time>
      </trkpt>
      <trkpt lat="50.601726388558745" lon="13.51341518573463">
        <ele>704</ele>
        <time>2026-08-29T16:31:44Z</time>
      </trkpt>
      <trkpt lat="50.60172513127327" lon="13.513482911512256">
        <ele>704</ele>
        <time>2026-08-29T16:31:45Z</time>
      </trkpt>
      <trkpt lat="50.601725298911333" lon="13.513535466045141">
        <ele>704</ele>
        <time>2026-08-29T16:31:46Z</time>
      </trkpt>
      <trkpt lat="50.601724041625857" lon="13.513593217357993">
        <ele>705</ele>
        <time>2026-08-29T16:31:47Z</time>
      </trkpt>
      <trkpt lat="50.601723119616508" lon="13.513657674193382">
        <ele>705</ele>
        <time>2026-08-29T16:31:48Z</time>
      </trkpt>
      <trkpt lat="50.601705349981785" lon="13.513706121593714">
        <ele>704</ele>
        <time>2026-08-29T16:31:49Z</time>
      </trkpt>
      <trkpt lat="50.601699817925692" lon="13.513752976432443">
        <ele>704</ele>
        <time>2026-08-29T16:31:50Z</time>
      </trkpt>
      <trkpt lat="50.601695040240884" lon="13.513806033879519">
        <ele>704</ele>
        <time>2026-08-29T16:31:51Z</time>
      </trkpt>
      <trkpt lat="50.601696129888296" lon="13.513869820162654">
        <ele>704</ele>
        <time>2026-08-29T16:31:52Z</time>
      </trkpt>
      <trkpt lat="50.601701410487294" lon="13.51392975077033">
        <ele>704</ele>
        <time>2026-08-29T16:31:53Z</time>
      </trkpt>
      <trkpt lat="50.601707864552736" lon="13.513988256454468">
        <ele>704</ele>
        <time>2026-08-29T16:31:54Z</time>
      </trkpt>
      <trkpt lat="50.601705182343721" lon="13.514046929776669">
        <ele>704</ele>
        <time>2026-08-29T16:31:55Z</time>
      </trkpt>
      <trkpt lat="50.601701410487294" lon="13.514101831242442">
        <ele>704</ele>
        <time>2026-08-29T16:31:56Z</time>
      </trkpt>
      <trkpt lat="50.60170073993504" lon="13.5141730774194">
        <ele>704</ele>
        <time>2026-08-29T16:31:57Z</time>
      </trkpt>
      <trkpt lat="50.601691687479615" lon="13.514238456264138">
        <ele>704</ele>
        <time>2026-08-29T16:31:58Z</time>
      </trkpt>
      <trkpt lat="50.601678192615509" lon="13.514285394921899">
        <ele>704</ele>
        <time>2026-08-29T16:31:59Z</time>
      </trkpt>
      <trkpt lat="50.601669978350401" lon="13.514338033273816">
        <ele>704</ele>
        <time>2026-08-29T16:32:00Z</time>
      </trkpt>
      <trkpt lat="50.601660590618849" lon="13.514383798465133">
        <ele>704</ele>
        <time>2026-08-29T16:32:01Z</time>
      </trkpt>
      <trkpt lat="50.601656399667263" lon="13.51441690698266">
        <ele>704</ele>
        <time>2026-08-29T16:32:02Z</time>
      </trkpt>
      <trkpt lat="50.601649861782789" lon="13.514449261128902">
        <ele>704</ele>
        <time>2026-08-29T16:32:03Z</time>
      </trkpt>
      <trkpt lat="50.601646509021521" lon="13.514485554769635">
        <ele>704</ele>
        <time>2026-08-29T16:32:04Z</time>
      </trkpt>
      <trkpt lat="50.601634941995144" lon="13.514525704085827">
        <ele>704</ele>
        <time>2026-08-29T16:32:05Z</time>
      </trkpt>
      <trkpt lat="50.601629409939051" lon="13.51456786505878">
        <ele>705</ele>
        <time>2026-08-29T16:32:06Z</time>
      </trkpt>
      <trkpt lat="50.601622620597482" lon="13.514594100415707">
        <ele>705</ele>
        <time>2026-08-29T16:32:07Z</time>
      </trkpt>
      <trkpt lat="50.601619686931372" lon="13.514624275267124">
        <ele>705</ele>
        <time>2026-08-29T16:32:08Z</time>
      </trkpt>
      <trkpt lat="50.601602420210838" lon="13.514659982174635">
        <ele>704</ele>
        <time>2026-08-29T16:32:09Z</time>
      </trkpt>
      <trkpt lat="50.601591020822525" lon="13.514703232795">
        <ele>704</ele>
        <time>2026-08-29T16:32:10Z</time>
      </trkpt>
      <trkpt lat="50.601579202339053" lon="13.514753608033061">
        <ele>704</ele>
        <time>2026-08-29T16:32:11Z</time>
      </trkpt>
      <trkpt lat="50.601567048579454" lon="13.514796691015363">
        <ele>705</ele>
        <time>2026-08-29T16:32:12Z</time>
      </trkpt>
      <trkpt lat="50.601561348885298" lon="13.514837259426713">
        <ele>705</ele>
        <time>2026-08-29T16:32:13Z</time>
      </trkpt>
      <trkpt lat="50.60156780295074" lon="13.514862572774291">
        <ele>705</ele>
        <time>2026-08-29T16:32:14Z</time>
      </trkpt>
      <trkpt lat="50.601569144055247" lon="13.514897022396326">
        <ele>705</ele>
        <time>2026-08-29T16:32:15Z</time>
      </trkpt>
      <trkpt lat="50.601572580635548" lon="13.514929125085473">
        <ele>705</ele>
        <time>2026-08-29T16:32:16Z</time>
      </trkpt>
      <trkpt lat="50.601572580635548" lon="13.514961646869779">
        <ele>705</ele>
        <time>2026-08-29T16:32:17Z</time>
      </trkpt>
      <trkpt lat="50.601572832092643" lon="13.514991905540228">
        <ele>705</ele>
        <time>2026-08-29T16:32:18Z</time>
      </trkpt>
      <trkpt lat="50.601567048579454" lon="13.515028282999992">
        <ele>705</ele>
        <time>2026-08-29T16:32:19Z</time>
      </trkpt>
      <trkpt lat="50.601563611999154" lon="13.51506725884974">
        <ele>705</ele>
        <time>2026-08-29T16:32:20Z</time>
      </trkpt>
      <trkpt lat="50.601554894819856" lon="13.515112772583961">
        <ele>705</ele>
        <time>2026-08-29T16:32:21Z</time>
      </trkpt>
      <trkpt lat="50.601546010002494" lon="13.515165997669101">
        <ele>705</ele>
        <time>2026-08-29T16:32:22Z</time>
      </trkpt>
      <trkpt lat="50.601540058851242" lon="13.515211679041386">
        <ele>705</ele>
        <time>2026-08-29T16:32:23Z</time>
      </trkpt>
      <trkpt lat="50.60153410769999" lon="13.515253001824021">
        <ele>705</ele>
        <time>2026-08-29T16:32:24Z</time>
      </trkpt>
      <trkpt lat="50.601528156548738" lon="13.515293151140213">
        <ele>705</ele>
        <time>2026-08-29T16:32:25Z</time>
      </trkpt>
      <trkpt lat="50.601521199569106" lon="13.515331288799644">
        <ele>706</ele>
        <time>2026-08-29T16:32:26Z</time>
      </trkpt>
      <trkpt lat="50.601512147113681" lon="13.515371605753899">
        <ele>706</ele>
        <time>2026-08-29T16:32:27Z</time>
      </trkpt>
      <trkpt lat="50.601504100486636" lon="13.515409072861075">
        <ele>706</ele>
        <time>2026-08-29T16:32:28Z</time>
      </trkpt>
      <trkpt lat="50.601499071344733" lon="13.515441762283444">
        <ele>706</ele>
        <time>2026-08-29T16:32:29Z</time>
      </trkpt>
      <trkpt lat="50.601490018889308" lon="13.515474619343877">
        <ele>707</ele>
        <time>2026-08-29T16:32:30Z</time>
      </trkpt>
      <trkpt lat="50.60148130171001" lon="13.515512673184276">
        <ele>707</ele>
        <time>2026-08-29T16:32:31Z</time>
      </trkpt>
      <trkpt lat="50.601466549560428" lon="13.515552990138531">
        <ele>706</ele>
        <time>2026-08-29T16:32:32Z</time>
      </trkpt>
      <trkpt lat="50.601455988362432" lon="13.515589367598295">
        <ele>707</ele>
        <time>2026-08-29T16:32:33Z</time>
      </trkpt>
      <trkpt lat="50.601443499326706" lon="13.515620967373252">
        <ele>706</ele>
        <time>2026-08-29T16:32:34Z</time>
      </trkpt>
      <trkpt lat="50.601433524861932" lon="13.515663463622332">
        <ele>706</ele>
        <time>2026-08-29T16:32:35Z</time>
      </trkpt>
      <trkpt lat="50.601419946178794" lon="13.515698835253716">
        <ele>706</ele>
        <time>2026-08-29T16:32:36Z</time>
      </trkpt>
      <trkpt lat="50.601401757448912" lon="13.515726327896118">
        <ele>706</ele>
        <time>2026-08-29T16:32:37Z</time>
      </trkpt>
      <trkpt lat="50.601386418566108" lon="13.515754071995616">
        <ele>707</ele>
        <time>2026-08-29T16:32:38Z</time>
      </trkpt>
      <trkpt lat="50.601367224007845" lon="13.515781732276082">
        <ele>707</ele>
        <time>2026-08-29T16:32:39Z</time>
      </trkpt>
      <trkpt lat="50.601346604526043" lon="13.515812829136848">
        <ele>707</ele>
        <time>2026-08-29T16:32:40Z</time>
      </trkpt>
      <trkpt lat="50.601323721930385" lon="13.515852559357882">
        <ele>708</ele>
        <time>2026-08-29T16:32:41Z</time>
      </trkpt>
      <trkpt lat="50.60129513964057" lon="13.515890026465058">
        <ele>708</ele>
        <time>2026-08-29T16:32:42Z</time>
      </trkpt>
      <trkpt lat="50.601267898455262" lon="13.515923386439681">
        <ele>708</ele>
        <time>2026-08-29T16:32:43Z</time>
      </trkpt>
      <trkpt lat="50.601247027516365" lon="13.515939814969897">
        <ele>709</ele>
        <time>2026-08-29T16:32:44Z</time>
      </trkpt>
      <trkpt lat="50.601227078586817" lon="13.515967391431332">
        <ele>709</ele>
        <time>2026-08-29T16:32:45Z</time>
      </trkpt>
      <trkpt lat="50.601208051666617" lon="13.516003182157874">
        <ele>709</ele>
        <time>2026-08-29T16:32:46Z</time>
      </trkpt>
      <trkpt lat="50.601190533488989" lon="13.516031932085752">
        <ele>709</ele>
        <time>2026-08-29T16:32:47Z</time>
      </trkpt>
      <trkpt lat="50.601171841844916" lon="13.516056993976235">
        <ele>709</ele>
        <time>2026-08-29T16:32:48Z</time>
      </trkpt>
      <trkpt lat="50.601150384172797" lon="13.51607920601964">
        <ele>709</ele>
        <time>2026-08-29T16:32:49Z</time>
      </trkpt>
      <trkpt lat="50.601126663386822" lon="13.516106279566884">
        <ele>710</ele>
        <time>2026-08-29T16:32:50Z</time>
      </trkpt>
      <trkpt lat="50.601107720285654" lon="13.516135113313794">
        <ele>710</ele>
        <time>2026-08-29T16:32:51Z</time>
      </trkpt>
      <trkpt lat="50.601084334775805" lon="13.516166293993592">
        <ele>710</ele>
        <time>2026-08-29T16:32:52Z</time>
      </trkpt>
      <trkpt lat="50.601060865446925" lon="13.5162004083395">
        <ele>710</ele>
        <time>2026-08-29T16:32:53Z</time>
      </trkpt>
      <trkpt lat="50.60103228315711" lon="13.516227817162871">
        <ele>710</ele>
        <time>2026-08-29T16:32:54Z</time>
      </trkpt>
      <trkpt lat="50.601001689210534" lon="13.516264613717794">
        <ele>710</ele>
        <time>2026-08-29T16:32:55Z</time>
      </trkpt>
      <trkpt lat="50.600973358377814" lon="13.51629126816988">
        <ele>710</ele>
        <time>2026-08-29T16:32:56Z</time>
      </trkpt>
      <trkpt lat="50.60094527900219" lon="13.516325885429978">
        <ele>710</ele>
        <time>2026-08-29T16:32:57Z</time>
      </trkpt>
      <trkpt lat="50.600919211283326" lon="13.516351031139493">
        <ele>711</ele>
        <time>2026-08-29T16:32:58Z</time>
      </trkpt>
      <trkpt lat="50.600895322859287" lon="13.516377853229642">
        <ele>711</ele>
        <time>2026-08-29T16:32:59Z</time>
      </trkpt>
      <trkpt lat="50.600870260968804" lon="13.516397466883063">
        <ele>711</ele>
        <time>2026-08-29T16:33:00Z</time>
      </trkpt>
      <trkpt lat="50.600841762498021" lon="13.516419343650341">
        <ele>712</ele>
        <time>2026-08-29T16:33:01Z</time>
      </trkpt>
      <trkpt lat="50.600815443322062" lon="13.516437532380223">
        <ele>712</ele>
        <time>2026-08-29T16:33:02Z</time>
      </trkpt>
      <trkpt lat="50.600786693394184" lon="13.516456140205264">
        <ele>712</ele>
        <time>2026-08-29T16:33:03Z</time>
      </trkpt>
      <trkpt lat="50.600755931809545" lon="13.516475250944495">
        <ele>712</ele>
        <time>2026-08-29T16:33:04Z</time>
      </trkpt>
      <trkpt lat="50.600729780271649" lon="13.516497211530805">
        <ele>713</ele>
        <time>2026-08-29T16:33:05Z</time>
      </trkpt>
      <trkpt lat="50.600709998980165" lon="13.516506012529135">
        <ele>712</ele>
        <time>2026-08-29T16:33:06Z</time>
      </trkpt>
      <trkpt lat="50.60067948885262" lon="13.51652386598289">
        <ele>713</ele>
        <time>2026-08-29T16:33:07Z</time>
      </trkpt>
      <trkpt lat="50.600648727267981" lon="13.516539372503757">
        <ele>713</ele>
        <time>2026-08-29T16:33:08Z</time>
      </trkpt>
      <trkpt lat="50.600619809702039" lon="13.516549430787563">
        <ele>713</ele>
        <time>2026-08-29T16:33:09Z</time>
      </trkpt>
      <trkpt lat="50.600595166906714" lon="13.516562338918447">
        <ele>713</ele>
        <time>2026-08-29T16:33:10Z</time>
      </trkpt>
      <trkpt lat="50.600565243512392" lon="13.516575582325459">
        <ele>714</ele>
        <time>2026-08-29T16:33:11Z</time>
      </trkpt>
      <trkpt lat="50.600538337603211" lon="13.516579018905759">
        <ele>714</ele>
        <time>2026-08-29T16:33:12Z</time>
      </trkpt>
      <trkpt lat="50.600518640130758" lon="13.51658153347671">
        <ele>714</ele>
        <time>2026-08-29T16:33:13Z</time>
      </trkpt>
      <trkpt lat="50.600496428087354" lon="13.516592513769865">
        <ele>714</ele>
        <time>2026-08-29T16:33:14Z</time>
      </trkpt>
      <trkpt lat="50.600468683987856" lon="13.516601817682385">
        <ele>715</ele>
        <time>2026-08-29T16:33:15Z</time>
      </trkpt>
      <trkpt lat="50.60044152662158" lon="13.516610702499747">
        <ele>715</ele>
        <time>2026-08-29T16:33:16Z</time>
      </trkpt>
      <trkpt lat="50.600411603227258" lon="13.51661279797554">
        <ele>715</ele>
        <time>2026-08-29T16:33:17Z</time>
      </trkpt>
      <trkpt lat="50.600384948775172" lon="13.516622856259346">
        <ele>715</ele>
        <time>2026-08-29T16:33:18Z</time>
      </trkpt>
      <trkpt lat="50.600357791408896" lon="13.516637189313769">
        <ele>716</ele>
        <time>2026-08-29T16:33:19Z</time>
      </trkpt>
      <trkpt lat="50.600335747003555" lon="13.516640877351165">
        <ele>716</ele>
        <time>2026-08-29T16:33:20Z</time>
      </trkpt>
      <trkpt lat="50.600311188027263" lon="13.516654036939144">
        <ele>717</ele>
        <time>2026-08-29T16:33:21Z</time>
      </trkpt>
      <trkpt lat="50.600287551060319" lon="13.516669878736138">
        <ele>717</ele>
        <time>2026-08-29T16:33:22Z</time>
      </trkpt>
      <trkpt lat="50.600265003740788" lon="13.516688905656338">
        <ele>717</ele>
        <time>2026-08-29T16:33:23Z</time>
      </trkpt>
      <trkpt lat="50.600244300439954" lon="13.516698209568858">
        <ele>718</ele>
        <time>2026-08-29T16:33:24Z</time>
      </trkpt>
      <trkpt lat="50.600219825282693" lon="13.516705920919776">
        <ele>718</ele>
        <time>2026-08-29T16:33:25Z</time>
      </trkpt>
      <trkpt lat="50.600198032334447" lon="13.516720337793231">
        <ele>718</ele>
        <time>2026-08-29T16:33:26Z</time>
      </trkpt>
      <trkpt lat="50.600174060091376" lon="13.516736011952162">
        <ele>718</ele>
        <time>2026-08-29T16:33:27Z</time>
      </trkpt>
      <trkpt lat="50.600150590762496" lon="13.516755541786551">
        <ele>718</ele>
        <time>2026-08-29T16:33:28Z</time>
      </trkpt>
      <trkpt lat="50.600125780329108" lon="13.516771215945482">
        <ele>718</ele>
        <time>2026-08-29T16:33:29Z</time>
      </trkpt>
      <trkpt lat="50.600103149190545" lon="13.516787393018603">
        <ele>718</ele>
        <time>2026-08-29T16:33:30Z</time>
      </trkpt>
      <trkpt lat="50.600086469203234" lon="13.516788398846984">
        <ele>719</ele>
        <time>2026-08-29T16:33:31Z</time>
      </trkpt>
      <trkpt lat="50.600070124492049" lon="13.516800301149487">
        <ele>719</ele>
        <time>2026-08-29T16:33:32Z</time>
      </trkpt>
      <trkpt lat="50.600055959075689" lon="13.516820333898067">
        <ele>719</ele>
        <time>2026-08-29T16:33:33Z</time>
      </trkpt>
      <trkpt lat="50.600038524717093" lon="13.516828129068017">
        <ele>720</ele>
        <time>2026-08-29T16:33:34Z</time>
      </trkpt>
      <trkpt lat="50.600021257996559" lon="13.51683609187603">
        <ele>720</ele>
        <time>2026-08-29T16:33:35Z</time>
      </trkpt>
      <trkpt lat="50.600004410371184" lon="13.516848832368851">
        <ele>720</ele>
        <time>2026-08-29T16:33:36Z</time>
      </trkpt>
      <trkpt lat="50.599993765354156" lon="13.516855956986547">
        <ele>721</ele>
        <time>2026-08-29T16:33:37Z</time>
      </trkpt>
      <trkpt lat="50.599975660443306" lon="13.516876576468349">
        <ele>721</ele>
        <time>2026-08-29T16:33:38Z</time>
      </trkpt>
      <trkpt lat="50.599960908293724" lon="13.516881605610251">
        <ele>721</ele>
        <time>2026-08-29T16:33:39Z</time>
      </trkpt>
      <trkpt lat="50.599950011819601" lon="13.51688738912344">
        <ele>722</ele>
        <time>2026-08-29T16:33:40Z</time>
      </trkpt>
      <trkpt lat="50.599936181679368" lon="13.516899291425943">
        <ele>723</ele>
        <time>2026-08-29T16:33:41Z</time>
      </trkpt>
      <trkpt lat="50.599919836968184" lon="13.516911277547479">
        <ele>723</ele>
        <time>2026-08-29T16:33:42Z</time>
      </trkpt>
      <trkpt lat="50.599915981292725" lon="13.516909349709749">
        <ele>723</ele>
        <time>2026-08-29T16:33:43Z</time>
      </trkpt>
      <trkpt lat="50.599917992949486" lon="13.516917480155826">
        <ele>722</ele>
        <time>2026-08-29T16:33:44Z</time>
      </trkpt>
      <trkpt lat="50.599914640188217" lon="13.516938099637628">
        <ele>722</ele>
        <time>2026-08-29T16:33:45Z</time>
      </trkpt>
      <trkpt lat="50.599912460893393" lon="13.516958551481366">
        <ele>722</ele>
        <time>2026-08-29T16:33:46Z</time>
      </trkpt>
      <trkpt lat="50.599905839189887" lon="13.516968190670013">
        <ele>723</ele>
        <time>2026-08-29T16:33:47Z</time>
      </trkpt>
      <trkpt lat="50.599899971857667" lon="13.516972465440631">
        <ele>723</ele>
        <time>2026-08-29T16:33:48Z</time>
      </trkpt>
      <trkpt lat="50.599897876381874" lon="13.516970118507743">
        <ele>723</ele>
        <time>2026-08-29T16:33:49Z</time>
      </trkpt>
      <trkpt lat="50.599896954372525" lon="13.516969699412584">
        <ele>723</ele>
        <time>2026-08-29T16:33:50Z</time>
      </trkpt>
      <trkpt lat="50.599896032363176" lon="13.516969196498394">
        <ele>723</ele>
        <time>2026-08-29T16:33:51Z</time>
      </trkpt>
      <trkpt lat="50.599895361810923" lon="13.516968945041299">
        <ele>723</ele>
        <time>2026-08-29T16:33:52Z</time>
      </trkpt>
      <trkpt lat="50.599894942715764" lon="13.516968609765172">
        <ele>723</ele>
        <time>2026-08-29T16:33:53Z</time>
      </trkpt>
      <trkpt lat="50.599894439801574" lon="13.516967939212918">
        <ele>723</ele>
        <time>2026-08-29T16:33:54Z</time>
      </trkpt>
      <trkpt lat="50.599894188344479" lon="13.51696752011776">
        <ele>723</ele>
        <time>2026-08-29T16:33:55Z</time>
      </trkpt>
      <trkpt lat="50.59989376924932" lon="13.516967268660665">
        <ele>723</ele>
        <time>2026-08-29T16:33:56Z</time>
      </trkpt>
      <trkpt lat="50.599893517792225" lon="13.516967352479696">
        <ele>723</ele>
        <time>2026-08-29T16:33:57Z</time>
      </trkpt>
      <trkpt lat="50.599893350154161" lon="13.516966849565506">
        <ele>723</ele>
        <time>2026-08-29T16:33:58Z</time>
      </trkpt>
      <trkpt lat="50.599893098697066" lon="13.516966598108411">
        <ele>723</ele>
        <time>2026-08-29T16:33:59Z</time>
      </trkpt>
      <trkpt lat="50.599892931059003" lon="13.516966346651316">
        <ele>723</ele>
        <time>2026-08-29T16:34:00Z</time>
      </trkpt>
      <trkpt lat="50.599892931059003" lon="13.516966095194221">
        <ele>723</ele>
        <time>2026-08-29T16:34:01Z</time>
      </trkpt>
      <trkpt lat="50.599893014878035" lon="13.516966095194221">
        <ele>723</ele>
        <time>2026-08-29T16:34:02Z</time>
      </trkpt>
      <trkpt lat="50.599893014878035" lon="13.516965759918094">
        <ele>723</ele>
        <time>2026-08-29T16:34:03Z</time>
      </trkpt>
      <trkpt lat="50.599893014878035" lon="13.516965424641967">
        <ele>723</ele>
        <time>2026-08-29T16:34:04Z</time>
      </trkpt>
      <trkpt lat="50.599893098697066" lon="13.516965340822935">
        <ele>723</ele>
        <time>2026-08-29T16:34:05Z</time>
      </trkpt>
      <trkpt lat="50.599893182516098" lon="13.516965257003903">
        <ele>723</ele>
        <time>2026-08-29T16:34:06Z</time>
      </trkpt>
      <trkpt lat="50.599893098697066" lon="13.51696559228003">
        <ele>723</ele>
        <time>2026-08-29T16:34:07Z</time>
      </trkpt>
      <trkpt lat="50.599893014878035" lon="13.516965843737125">
        <ele>723</ele>
        <time>2026-08-29T16:34:08Z</time>
      </trkpt>
      <trkpt lat="50.599892679601908" lon="13.516965927556157">
        <ele>723</ele>
        <time>2026-08-29T16:34:09Z</time>
      </trkpt>
      <trkpt lat="50.599892176687717" lon="13.516966179013252">
        <ele>723</ele>
        <time>2026-08-29T16:34:10Z</time>
      </trkpt>
      <trkpt lat="50.599891506135464" lon="13.516966430470347">
        <ele>723</ele>
        <time>2026-08-29T16:34:11Z</time>
      </trkpt>
      <trkpt lat="50.599890667945147" lon="13.516966765746474">
        <ele>723</ele>
        <time>2026-08-29T16:34:12Z</time>
      </trkpt>
      <trkpt lat="50.599890081211925" lon="13.516967101022601">
        <ele>723</ele>
        <time>2026-08-29T16:34:13Z</time>
      </trkpt>
      <trkpt lat="50.599889410659671" lon="13.516967687755823">
        <ele>723</ele>
        <time>2026-08-29T16:34:14Z</time>
      </trkpt>
      <trkpt lat="50.599888907745481" lon="13.516968274489045">
        <ele>723</ele>
        <time>2026-08-29T16:34:15Z</time>
      </trkpt>
      <trkpt lat="50.599888488650322" lon="13.516968693584204">
        <ele>723</ele>
        <time>2026-08-29T16:34:16Z</time>
      </trkpt>
      <trkpt lat="50.5998879019171" lon="13.516969447955489">
        <ele>723</ele>
        <time>2026-08-29T16:34:17Z</time>
      </trkpt>
      <trkpt lat="50.599887315183878" lon="13.516969867050648">
        <ele>723</ele>
        <time>2026-08-29T16:34:18Z</time>
      </trkpt>
      <trkpt lat="50.599886979907751" lon="13.516970202326775">
        <ele>724</ele>
        <time>2026-08-29T16:34:19Z</time>
      </trkpt>
      <trkpt lat="50.599886728450656" lon="13.51697045378387">
        <ele>724</ele>
        <time>2026-08-29T16:34:20Z</time>
      </trkpt>
      <trkpt lat="50.599886309355497" lon="13.516970872879028">
        <ele>724</ele>
        <time>2026-08-29T16:34:21Z</time>
      </trkpt>
      <trkpt lat="50.599886225536466" lon="13.516971040517092">
        <ele>724</ele>
        <time>2026-08-29T16:34:22Z</time>
      </trkpt>
      <trkpt lat="50.599885890260339" lon="13.51697145961225">
        <ele>724</ele>
        <time>2026-08-29T16:34:23Z</time>
      </trkpt>
      <trkpt lat="50.59988547116518" lon="13.516971878707409">
        <ele>724</ele>
        <time>2026-08-29T16:34:24Z</time>
      </trkpt>
      <trkpt lat="50.599884800612926" lon="13.516972130164504">
        <ele>724</ele>
        <time>2026-08-29T16:34:25Z</time>
      </trkpt>
      <trkpt lat="50.599884381517768" lon="13.516972465440631">
        <ele>724</ele>
        <time>2026-08-29T16:34:26Z</time>
      </trkpt>
      <trkpt lat="50.599883962422609" lon="13.516972633078694">
        <ele>724</ele>
        <time>2026-08-29T16:34:27Z</time>
      </trkpt>
      <trkpt lat="50.599883627146482" lon="13.516972800716758">
        <ele>724</ele>
        <time>2026-08-29T16:34:28Z</time>
      </trkpt>
      <trkpt lat="50.599883291870356" lon="13.516972968354821">
        <ele>724</ele>
        <time>2026-08-29T16:34:29Z</time>
      </trkpt>
      <trkpt lat="50.599883208051324" lon="13.516972800716758">
        <ele>724</ele>
        <time>2026-08-29T16:34:30Z</time>
      </trkpt>
      <trkpt lat="50.599883124232292" lon="13.516972381621599">
        <ele>724</ele>
        <time>2026-08-29T16:34:31Z</time>
      </trkpt>
      <trkpt lat="50.599883291870356" lon="13.516971627250314">
        <ele>724</ele>
        <time>2026-08-29T16:34:32Z</time>
      </trkpt>
      <trkpt lat="50.599883291870356" lon="13.516970789059997">
        <ele>724</ele>
        <time>2026-08-29T16:34:33Z</time>
      </trkpt>
      <trkpt lat="50.599883291870356" lon="13.516970118507743">
        <ele>724</ele>
        <time>2026-08-29T16:34:34Z</time>
      </trkpt>
      <trkpt lat="50.599883291870356" lon="13.516969112679362">
        <ele>724</ele>
        <time>2026-08-29T16:34:35Z</time>
      </trkpt>
      <trkpt lat="50.599883291870356" lon="13.516968693584204">
        <ele>724</ele>
        <time>2026-08-29T16:34:36Z</time>
      </trkpt>
      <trkpt lat="50.599883291870356" lon="13.51696802303195">
        <ele>724</ele>
        <time>2026-08-29T16:34:37Z</time>
      </trkpt>
      <trkpt lat="50.599883208051324" lon="13.51696752011776">
        <ele>724</ele>
        <time>2026-08-29T16:34:38Z</time>
      </trkpt>
      <trkpt lat="50.59987717308104" lon="13.516963496804237">
        <ele>723</ele>
        <time>2026-08-29T16:34:39Z</time>
      </trkpt>
      <trkpt lat="50.599878011271358" lon="13.516972549259663">
        <ele>723</ele>
        <time>2026-08-29T16:34:40Z</time>
      </trkpt>
      <trkpt lat="50.599870216101408" lon="13.516982020810246">
        <ele>723</ele>
        <time>2026-08-29T16:34:41Z</time>
      </trkpt>
      <trkpt lat="50.59986837208271" lon="13.516995264217257">
        <ele>723</ele>
        <time>2026-08-29T16:34:42Z</time>
      </trkpt>
      <trkpt lat="50.59986300766468" lon="13.51700565777719">
        <ele>723</ele>
        <time>2026-08-29T16:34:43Z</time>
      </trkpt>
      <trkpt lat="50.599856469780207" lon="13.517029965296388">
        <ele>723</ele>
        <time>2026-08-29T16:34:44Z</time>
      </trkpt>
      <trkpt lat="50.599857391789556" lon="13.51703985594213">
        <ele>722</ele>
        <time>2026-08-29T16:34:45Z</time>
      </trkpt>
      <trkpt lat="50.599859319627285" lon="13.517037844285369">
        <ele>722</ele>
        <time>2026-08-29T16:34:46Z</time>
      </trkpt>
      <trkpt lat="50.599858229979873" lon="13.517037844285369">
        <ele>722</ele>
        <time>2026-08-29T16:34:47Z</time>
      </trkpt>
      <trkpt lat="50.599857391789556" lon="13.517037928104401">
        <ele>722</ele>
        <time>2026-08-29T16:34:48Z</time>
      </trkpt>
      <trkpt lat="50.59985714033246" lon="13.517037928104401">
        <ele>722</ele>
        <time>2026-08-29T16:34:49Z</time>
      </trkpt>
      <trkpt lat="50.59985663741827" lon="13.517037928104401">
        <ele>722</ele>
        <time>2026-08-29T16:34:50Z</time>
      </trkpt>
      <trkpt lat="50.599856218323112" lon="13.517038011923432">
        <ele>722</ele>
        <time>2026-08-29T16:34:51Z</time>
      </trkpt>
      <trkpt lat="50.599855547770858" lon="13.517038347199559">
        <ele>722</ele>
        <time>2026-08-29T16:34:52Z</time>
      </trkpt>
      <trkpt lat="50.599855044856668" lon="13.517038263380527">
        <ele>722</ele>
        <time>2026-08-29T16:34:53Z</time>
      </trkpt>
      <trkpt lat="50.599854290485382" lon="13.517038431018591">
        <ele>722</ele>
        <time>2026-08-29T16:34:54Z</time>
      </trkpt>
      <trkpt lat="50.599854039028287" lon="13.517038514837623">
        <ele>722</ele>
        <time>2026-08-29T16:34:55Z</time>
      </trkpt>
      <trkpt lat="50.599853368476033" lon="13.517039017751813">
        <ele>722</ele>
        <time>2026-08-29T16:34:56Z</time>
      </trkpt>
      <trkpt lat="50.599852697923779" lon="13.517039604485035">
        <ele>722</ele>
        <time>2026-08-29T16:34:57Z</time>
      </trkpt>
      <trkpt lat="50.599852278828621" lon="13.51703985594213">
        <ele>722</ele>
        <time>2026-08-29T16:34:58Z</time>
      </trkpt>
      <trkpt lat="50.599851943552494" lon="13.517040023580194">
        <ele>722</ele>
        <time>2026-08-29T16:34:59Z</time>
      </trkpt>
      <trkpt lat="50.599851859733462" lon="13.517040275037289">
        <ele>722</ele>
        <time>2026-08-29T16:35:00Z</time>
      </trkpt>
      <trkpt lat="50.599851775914431" lon="13.517040526494384">
        <ele>722</ele>
        <time>2026-08-29T16:35:01Z</time>
      </trkpt>
      <trkpt lat="50.599851692095399" lon="13.517040610313416">
        <ele>722</ele>
        <time>2026-08-29T16:35:02Z</time>
      </trkpt>
      <trkpt lat="50.599851440638304" lon="13.517040610313416">
        <ele>722</ele>
        <time>2026-08-29T16:35:03Z</time>
      </trkpt>
      <trkpt lat="50.599851021543145" lon="13.517040694132447">
        <ele>722</ele>
        <time>2026-08-29T16:35:04Z</time>
      </trkpt>
      <trkpt lat="50.59983853250742" lon="13.517048824578524">
        <ele>723</ele>
        <time>2026-08-29T16:35:05Z</time>
      </trkpt>
      <trkpt lat="50.599838281050324" lon="13.517048908397555">
        <ele>723</ele>
        <time>2026-08-29T16:35:06Z</time>
      </trkpt>
      <trkpt lat="50.599838029593229" lon="13.517048405483365">
        <ele>723</ele>
        <time>2026-08-29T16:35:07Z</time>
      </trkpt>
      <trkpt lat="50.599837945774198" lon="13.517048489302397">
        <ele>723</ele>
        <time>2026-08-29T16:35:08Z</time>
      </trkpt>
      <trkpt lat="50.5998361017555" lon="13.517045387998223">
        <ele>724</ele>
        <time>2026-08-29T16:35:09Z</time>
      </trkpt>
      <trkpt lat="50.599836688488722" lon="13.517037341371179">
        <ele>724</ele>
        <time>2026-08-29T16:35:10Z</time>
      </trkpt>
      <trkpt lat="50.5998361017555" lon="13.517037257552147">
        <ele>724</ele>
        <time>2026-08-29T16:35:11Z</time>
      </trkpt>
      <trkpt lat="50.599835179746151" lon="13.517037760466337">
        <ele>724</ele>
        <time>2026-08-29T16:35:12Z</time>
      </trkpt>
      <trkpt lat="50.599835179746151" lon="13.517037509009242">
        <ele>724</ele>
        <time>2026-08-29T16:35:13Z</time>
      </trkpt>
      <trkpt lat="50.599834928289056" lon="13.517037257552147">
        <ele>724</ele>
        <time>2026-08-29T16:35:14Z</time>
      </trkpt>
      <trkpt lat="50.599834928289056" lon="13.517037006095052">
        <ele>724</ele>
        <time>2026-08-29T16:35:15Z</time>
      </trkpt>
      <trkpt lat="50.599834760650992" lon="13.517036754637957">
        <ele>724</ele>
        <time>2026-08-29T16:35:16Z</time>
      </trkpt>
      <trkpt lat="50.599834593012929" lon="13.517036586999893">
        <ele>724</ele>
        <time>2026-08-29T16:35:17Z</time>
      </trkpt>
      <trkpt lat="50.599834341555834" lon="13.517036586999893">
        <ele>724</ele>
        <time>2026-08-29T16:35:18Z</time>
      </trkpt>
      <trkpt lat="50.599834257736802" lon="13.517036586999893">
        <ele>724</ele>
        <time>2026-08-29T16:35:19Z</time>
      </trkpt>
      <trkpt lat="50.599834090098739" lon="13.517036754637957">
        <ele>724</ele>
        <time>2026-08-29T16:35:20Z</time>
      </trkpt>
      <trkpt lat="50.59983417391777" lon="13.517037341371179">
        <ele>724</ele>
        <time>2026-08-29T16:35:21Z</time>
      </trkpt>
      <trkpt lat="50.59983417391777" lon="13.51703742519021">
        <ele>724</ele>
        <time>2026-08-29T16:35:22Z</time>
      </trkpt>
      <trkpt lat="50.599833922460675" lon="13.517037676647305">
        <ele>724</ele>
        <time>2026-08-29T16:35:23Z</time>
      </trkpt>
      <trkpt lat="50.599833838641644" lon="13.517037760466337">
        <ele>724</ele>
        <time>2026-08-29T16:35:24Z</time>
      </trkpt>
      <trkpt lat="50.599833838641644" lon="13.517038431018591">
        <ele>724</ele>
        <time>2026-08-29T16:35:25Z</time>
      </trkpt>
      <trkpt lat="50.599833838641644" lon="13.51703885011375">
        <ele>724</ele>
        <time>2026-08-29T16:35:26Z</time>
      </trkpt>
      <trkpt lat="50.59983367100358" lon="13.517039017751813">
        <ele>724</ele>
        <time>2026-08-29T16:35:27Z</time>
      </trkpt>
      <trkpt lat="50.599833503365517" lon="13.517039017751813">
        <ele>724</ele>
        <time>2026-08-29T16:35:28Z</time>
      </trkpt>
      <trkpt lat="50.599833419546485" lon="13.517039017751813">
        <ele>724</ele>
        <time>2026-08-29T16:35:29Z</time>
      </trkpt>
      <trkpt lat="50.599833251908422" lon="13.517039185389876">
        <ele>724</ele>
        <time>2026-08-29T16:35:30Z</time>
      </trkpt>
      <trkpt lat="50.599833251908422" lon="13.517039185389876">
        <ele>724</ele>
        <time>2026-08-29T16:35:31Z</time>
      </trkpt>
      <trkpt lat="50.599833084270358" lon="13.517039017751813">
        <ele>724</ele>
        <time>2026-08-29T16:35:32Z</time>
      </trkpt>
      <trkpt lat="50.599833419546485" lon="13.517038682475686">
        <ele>724</ele>
        <time>2026-08-29T16:35:33Z</time>
      </trkpt>
      <trkpt lat="50.599833587184548" lon="13.517038514837623">
        <ele>724</ele>
        <time>2026-08-29T16:35:34Z</time>
      </trkpt>
      <trkpt lat="50.599833922460675" lon="13.517038431018591">
        <ele>724</ele>
        <time>2026-08-29T16:35:35Z</time>
      </trkpt>
      <trkpt lat="50.599834006279707" lon="13.517038347199559">
        <ele>724</ele>
        <time>2026-08-29T16:35:36Z</time>
      </trkpt>
      <trkpt lat="50.599834341555834" lon="13.517037928104401">
        <ele>724</ele>
        <time>2026-08-29T16:35:37Z</time>
      </trkpt>
      <trkpt lat="50.599846830591559" lon="13.517026361078024">
        <ele>724</ele>
        <time>2026-08-29T16:35:38Z</time>
      </trkpt>
      <trkpt lat="50.59984490275383" lon="13.517020996659994">
        <ele>724</ele>
        <time>2026-08-29T16:35:39Z</time>
      </trkpt>
      <trkpt lat="50.599857810884714" lon="13.517009345814586">
        <ele>724</ele>
        <time>2026-08-29T16:35:40Z</time>
      </trkpt>
      <trkpt lat="50.599858062341809" lon="13.517007501795888">
        <ele>724</ele>
        <time>2026-08-29T16:35:41Z</time>
      </trkpt>
      <trkpt lat="50.599858229979873" lon="13.517007250338793">
        <ele>724</ele>
        <time>2026-08-29T16:35:42Z</time>
      </trkpt>
      <trkpt lat="50.599858229979873" lon="13.517006915062666">
        <ele>724</ele>
        <time>2026-08-29T16:35:43Z</time>
      </trkpt>
      <trkpt lat="50.599857894703746" lon="13.517006495967507">
        <ele>724</ele>
        <time>2026-08-29T16:35:44Z</time>
      </trkpt>
      <trkpt lat="50.599857810884714" lon="13.517006076872349">
        <ele>724</ele>
        <time>2026-08-29T16:35:45Z</time>
      </trkpt>
      <trkpt lat="50.599857978522778" lon="13.517005406320095">
        <ele>724</ele>
        <time>2026-08-29T16:35:46Z</time>
      </trkpt>
      <trkpt lat="50.599858229979873" lon="13.517004987224936">
        <ele>724</ele>
        <time>2026-08-29T16:35:47Z</time>
      </trkpt>
      <trkpt lat="50.599858229979873" lon="13.517004735767841">
        <ele>724</ele>
        <time>2026-08-29T16:35:48Z</time>
      </trkpt>
      <trkpt lat="50.599858397617936" lon="13.517004065215588">
        <ele>724</ele>
        <time>2026-08-29T16:35:49Z</time>
      </trkpt>
      <trkpt lat="50.599858481436968" lon="13.517003562301397">
        <ele>724</ele>
        <time>2026-08-29T16:35:50Z</time>
      </trkpt>
      <trkpt lat="50.599858481436968" lon="13.517003143206239">
        <ele>724</ele>
        <time>2026-08-29T16:35:51Z</time>
      </trkpt>
      <trkpt lat="50.599858481436968" lon="13.517002891749144">
        <ele>724</ele>
        <time>2026-08-29T16:35:52Z</time>
      </trkpt>
      <trkpt lat="50.599857978522778" lon="13.51700322702527">
        <ele>724</ele>
        <time>2026-08-29T16:35:53Z</time>
      </trkpt>
      <trkpt lat="50.599857727065682" lon="13.517002975568175">
        <ele>724</ele>
        <time>2026-08-29T16:35:54Z</time>
      </trkpt>
      <trkpt lat="50.599857391789556" lon="13.517003059387207">
        <ele>724</ele>
        <time>2026-08-29T16:35:55Z</time>
      </trkpt>
      <trkpt lat="50.599856888875365" lon="13.517002891749144">
        <ele>724</ele>
        <time>2026-08-29T16:35:56Z</time>
      </trkpt>
      <trkpt lat="50.59985663741827" lon="13.517002640292048">
        <ele>724</ele>
        <time>2026-08-29T16:35:57Z</time>
      </trkpt>
      <trkpt lat="50.599856218323112" lon="13.517002556473017">
        <ele>724</ele>
        <time>2026-08-29T16:35:58Z</time>
      </trkpt>
      <trkpt lat="50.599856302142143" lon="13.517002137377858">
        <ele>724</ele>
        <time>2026-08-29T16:35:59Z</time>
      </trkpt>
      <trkpt lat="50.599856302142143" lon="13.517001802101731">
        <ele>724</ele>
        <time>2026-08-29T16:36:00Z</time>
      </trkpt>
      <trkpt lat="50.599856469780207" lon="13.517001047730446">
        <ele>724</ele>
        <time>2026-08-29T16:36:01Z</time>
      </trkpt>
      <trkpt lat="50.599856888875365" lon="13.517000544816256">
        <ele>724</ele>
        <time>2026-08-29T16:36:02Z</time>
      </trkpt>
      <trkpt lat="50.59985714033246" lon="13.517000209540129">
        <ele>724</ele>
        <time>2026-08-29T16:36:03Z</time>
      </trkpt>
      <trkpt lat="50.599857391789556" lon="13.516999706625938">
        <ele>724</ele>
        <time>2026-08-29T16:36:04Z</time>
      </trkpt>
      <trkpt lat="50.599857475608587" lon="13.516999203711748">
        <ele>724</ele>
        <time>2026-08-29T16:36:05Z</time>
      </trkpt>
      <trkpt lat="50.599857391789556" lon="13.51699878461659">
        <ele>724</ele>
        <time>2026-08-29T16:36:06Z</time>
      </trkpt>
      <trkpt lat="50.599857391789556" lon="13.516998365521431">
        <ele>724</ele>
        <time>2026-08-29T16:36:07Z</time>
      </trkpt>
      <trkpt lat="50.599857475608587" lon="13.516997946426272">
        <ele>724</ele>
        <time>2026-08-29T16:36:08Z</time>
      </trkpt>
      <trkpt lat="50.599857391789556" lon="13.516997527331114">
        <ele>724</ele>
        <time>2026-08-29T16:36:09Z</time>
      </trkpt>
      <trkpt lat="50.59985714033246" lon="13.516997108235955">
        <ele>724</ele>
        <time>2026-08-29T16:36:10Z</time>
      </trkpt>
      <trkpt lat="50.599856721237302" lon="13.516996270045638">
        <ele>724</ele>
        <time>2026-08-29T16:36:11Z</time>
      </trkpt>
      <trkpt lat="50.599856553599238" lon="13.516995683312416">
        <ele>724</ele>
        <time>2026-08-29T16:36:12Z</time>
      </trkpt>
      <trkpt lat="50.599856218323112" lon="13.516995180398226">
        <ele>724</ele>
        <time>2026-08-29T16:36:13Z</time>
      </trkpt>
      <trkpt lat="50.599856050685048" lon="13.516994509845972">
        <ele>724</ele>
        <time>2026-08-29T16:36:14Z</time>
      </trkpt>
      <trkpt lat="50.599855799227953" lon="13.516994090750813">
        <ele>724</ele>
        <time>2026-08-29T16:36:15Z</time>
      </trkpt>
      <trkpt lat="50.599855044856668" lon="13.51699149236083">
        <ele>725</ele>
        <time>2026-08-29T16:36:16Z</time>
      </trkpt>
      <trkpt lat="50.599857391789556" lon="13.516996270045638">
        <ele>724</ele>
        <time>2026-08-29T16:36:17Z</time>
      </trkpt>
      <trkpt lat="50.599857307970524" lon="13.516995934769511">
        <ele>724</ele>
        <time>2026-08-29T16:36:18Z</time>
      </trkpt>
      <trkpt lat="50.599853452295065" lon="13.516991827636957">
        <ele>724</ele>
        <time>2026-08-29T16:36:19Z</time>
      </trkpt>
      <trkpt lat="50.599853284657001" lon="13.516995683312416">
        <ele>724</ele>
        <time>2026-08-29T16:36:20Z</time>
      </trkpt>
      <trkpt lat="50.599856721237302" lon="13.516993504017591">
        <ele>725</ele>
        <time>2026-08-29T16:36:21Z</time>
      </trkpt>
      <trkpt lat="50.599855883046985" lon="13.516994677484035">
        <ele>724</ele>
        <time>2026-08-29T16:36:22Z</time>
      </trkpt>
      <trkpt lat="50.599845740944147" lon="13.51701152510941">
        <ele>724</ele>
        <time>2026-08-29T16:36:23Z</time>
      </trkpt>
      <trkpt lat="50.599835179746151" lon="13.51702812127769">
        <ele>724</ele>
        <time>2026-08-29T16:36:24Z</time>
      </trkpt>
      <trkpt lat="50.599815230816603" lon="13.517054859548807">
        <ele>724</ele>
        <time>2026-08-29T16:36:25Z</time>
      </trkpt>
      <trkpt lat="50.599789582192898" lon="13.517078831791878">
        <ele>724</ele>
        <time>2026-08-29T16:36:26Z</time>
      </trkpt>
      <trkpt lat="50.599764939397573" lon="13.517094003036618">
        <ele>724</ele>
        <time>2026-08-29T16:36:27Z</time>
      </trkpt>
      <trkpt lat="50.599740799516439" lon="13.517117220908403">
        <ele>724</ele>
        <time>2026-08-29T16:36:28Z</time>
      </trkpt>
      <trkpt lat="50.599717749282718" lon="13.517147060483694">
        <ele>724</ele>
        <time>2026-08-29T16:36:29Z</time>
      </trkpt>
      <trkpt lat="50.599697884172201" lon="13.517178576439619">
        <ele>724</ele>
        <time>2026-08-29T16:36:30Z</time>
      </trkpt>
      <trkpt lat="50.599676761776209" lon="13.517214702442288">
        <ele>723</ele>
        <time>2026-08-29T16:36:31Z</time>
      </trkpt>
      <trkpt lat="50.599651029333472" lon="13.51724605076015">
        <ele>723</ele>
        <time>2026-08-29T16:36:32Z</time>
      </trkpt>
      <trkpt lat="50.599628482013941" lon="13.517277985811234">
        <ele>723</ele>
        <time>2026-08-29T16:36:33Z</time>
      </trkpt>
      <trkpt lat="50.599603671580553" lon="13.517316542565823">
        <ele>724</ele>
        <time>2026-08-29T16:36:34Z</time>
      </trkpt>
      <trkpt lat="50.599579866975546" lon="13.517355769872665">
        <ele>723</ele>
        <time>2026-08-29T16:36:35Z</time>
      </trkpt>
      <trkpt lat="50.599554050713778" lon="13.517406731843948">
        <ele>723</ele>
        <time>2026-08-29T16:36:36Z</time>
      </trkpt>
      <trkpt lat="50.599525049328804" lon="13.517447970807552">
        <ele>723</ele>
        <time>2026-08-29T16:36:37Z</time>
      </trkpt>
      <trkpt lat="50.599504848942161" lon="13.517496921122074">
        <ele>722</ele>
        <time>2026-08-29T16:36:38Z</time>
      </trkpt>
      <trkpt lat="50.599487917497754" lon="13.517552325502038">
        <ele>722</ele>
        <time>2026-08-29T16:36:39Z</time>
      </trkpt>
      <trkpt lat="50.599469728767872" lon="13.517604293301702">
        <ele>723</ele>
        <time>2026-08-29T16:36:40Z</time>
      </trkpt>
      <trkpt lat="50.599455311894417" lon="13.517666822299361">
        <ele>723</ele>
        <time>2026-08-29T16:36:41Z</time>
      </trkpt>
      <trkpt lat="50.59945204295218" lon="13.517737314105034">
        <ele>723</ele>
        <time>2026-08-29T16:36:42Z</time>
      </trkpt>
      <trkpt lat="50.599443493410945" lon="13.517790790647268">
        <ele>723</ele>
        <time>2026-08-29T16:36:43Z</time>
      </trkpt>
      <trkpt lat="50.599433435127139" lon="13.517852900549769">
        <ele>723</ele>
        <time>2026-08-29T16:36:44Z</time>
      </trkpt>
      <trkpt lat="50.599427903071046" lon="13.517918530851603">
        <ele>723</ele>
        <time>2026-08-29T16:36:45Z</time>
      </trkpt>
      <trkpt lat="50.599419353529811" lon="13.517967564985156">
        <ele>723</ele>
        <time>2026-08-29T16:36:46Z</time>
      </trkpt>
      <trkpt lat="50.599412312731147" lon="13.518022634088993">
        <ele>723</ele>
        <time>2026-08-29T16:36:47Z</time>
      </trkpt>
      <trkpt lat="50.599408373236656" lon="13.518101423978806">
        <ele>723</ele>
        <time>2026-08-29T16:36:48Z</time>
      </trkpt>
      <trkpt lat="50.599400410428643" lon="13.518166802823544">
        <ele>722</ele>
        <time>2026-08-29T16:36:49Z</time>
      </trkpt>
      <trkpt lat="50.599401667714119" lon="13.518237629905343">
        <ele>723</ele>
        <time>2026-08-29T16:36:50Z</time>
      </trkpt>
      <trkpt lat="50.599401080980897" lon="13.518308205530047">
        <ele>722</ele>
        <time>2026-08-29T16:36:51Z</time>
      </trkpt>
      <trkpt lat="50.599395046010613" lon="13.518394455313683">
        <ele>722</ele>
        <time>2026-08-29T16:36:52Z</time>
      </trkpt>
      <trkpt lat="50.599395129829645" lon="13.518432341516018">
        <ele>721</ele>
        <time>2026-08-29T16:36:53Z</time>
      </trkpt>
      <trkpt lat="50.599397560581565" lon="13.518471233546734">
        <ele>721</ele>
        <time>2026-08-29T16:36:54Z</time>
      </trkpt>
      <trkpt lat="50.599392112344503" lon="13.51851062849164">
        <ele>721</ele>
        <time>2026-08-29T16:36:55Z</time>
      </trkpt>
      <trkpt lat="50.599393118172884" lon="13.518553040921688">
        <ele>721</ele>
        <time>2026-08-29T16:36:56Z</time>
      </trkpt>
      <trkpt lat="50.599398650228977" lon="13.518606182187796">
        <ele>720</ele>
        <time>2026-08-29T16:36:57Z</time>
      </trkpt>
      <trkpt lat="50.599399153143167" lon="13.51865136064589">
        <ele>720</ele>
        <time>2026-08-29T16:36:58Z</time>
      </trkpt>
      <trkpt lat="50.599404433742166" lon="13.518709111958742">
        <ele>720</ele>
        <time>2026-08-29T16:36:59Z</time>
      </trkpt>
      <trkpt lat="50.599403930827975" lon="13.51876619271934">
        <ele>720</ele>
        <time>2026-08-29T16:37:00Z</time>
      </trkpt>
      <trkpt lat="50.599401080980897" lon="13.518822267651558">
        <ele>720</ele>
        <time>2026-08-29T16:37:01Z</time>
      </trkpt>
      <trkpt lat="50.599413150921464" lon="13.518872894346714">
        <ele>719</ele>
        <time>2026-08-29T16:37:02Z</time>
      </trkpt>
      <trkpt lat="50.599415078759193" lon="13.518927795812488">
        <ele>719</ele>
        <time>2026-08-29T16:37:03Z</time>
      </trkpt>
      <trkpt lat="50.599417090415955" lon="13.51897775195539">
        <ele>719</ele>
        <time>2026-08-29T16:37:04Z</time>
      </trkpt>
      <trkpt lat="50.59941734187305" lon="13.519039275124669">
        <ele>719</ele>
        <time>2026-08-29T16:37:05Z</time>
      </trkpt>
      <trkpt lat="50.599417760968208" lon="13.519089566543698">
        <ele>718</ele>
        <time>2026-08-29T16:37:06Z</time>
      </trkpt>
      <trkpt lat="50.599410720169544" lon="13.5191292129457">
        <ele>718</ele>
        <time>2026-08-29T16:37:07Z</time>
      </trkpt>
      <trkpt lat="50.599409211426973" lon="13.519201716408134">
        <ele>718</ele>
        <time>2026-08-29T16:37:08Z</time>
      </trkpt>
      <trkpt lat="50.599409211426973" lon="13.51925921626389">
        <ele>718</ele>
        <time>2026-08-29T16:37:09Z</time>
      </trkpt>
      <trkpt lat="50.599410971626639" lon="13.519329540431499">
        <ele>717</ele>
        <time>2026-08-29T16:37:10Z</time>
      </trkpt>
      <trkpt lat="50.59941541403532" lon="13.519398020580411">
        <ele>718</ele>
        <time>2026-08-29T16:37:11Z</time>
      </trkpt>
      <trkpt lat="50.599417509511113" lon="13.519470691680908">
        <ele>718</ele>
        <time>2026-08-29T16:37:12Z</time>
      </trkpt>
      <trkpt lat="50.599426981061697" lon="13.519542189314961">
        <ele>718</ele>
        <time>2026-08-29T16:37:13Z</time>
      </trkpt>
      <trkpt lat="50.599438548088074" lon="13.51962273940444">
        <ele>717</ele>
        <time>2026-08-29T16:37:14Z</time>
      </trkpt>
      <trkpt lat="50.599435530602932" lon="13.519726255908608">
        <ele>717</ele>
        <time>2026-08-29T16:37:15Z</time>
      </trkpt>
      <trkpt lat="50.59945304878056" lon="13.519800351932645">
        <ele>717</ele>
        <time>2026-08-29T16:37:16Z</time>
      </trkpt>
      <trkpt lat="50.599467130377889" lon="13.519890541210771">
        <ele>718</ele>
        <time>2026-08-29T16:37:17Z</time>
      </trkpt>
      <trkpt lat="50.599460508674383" lon="13.51996916346252">
        <ele>718</ele>
        <time>2026-08-29T16:37:18Z</time>
      </trkpt>
      <trkpt lat="50.599469058215618" lon="13.520028507336974">
        <ele>717</ele>
        <time>2026-08-29T16:37:19Z</time>
      </trkpt>
      <trkpt lat="50.599464531987906" lon="13.520083660259843">
        <ele>716</ele>
        <time>2026-08-29T16:37:20Z</time>
      </trkpt>
      <trkpt lat="50.599464699625969" lon="13.520135711878538">
        <ele>717</ele>
        <time>2026-08-29T16:37:21Z</time>
      </trkpt>
      <trkpt lat="50.599468722939491" lon="13.52018122561276">
        <ele>717</ele>
        <time>2026-08-29T16:37:22Z</time>
      </trkpt>
      <trkpt lat="50.599465118721128" lon="13.52022715844214">
        <ele>718</ele>
        <time>2026-08-29T16:37:23Z</time>
      </trkpt>
      <trkpt lat="50.599453551694751" lon="13.520286669954658">
        <ele>718</ele>
        <time>2026-08-29T16:37:24Z</time>
      </trkpt>
      <trkpt lat="50.599452881142497" lon="13.520343331620097">
        <ele>718</ele>
        <time>2026-08-29T16:37:25Z</time>
      </trkpt>
      <trkpt lat="50.599455311894417" lon="13.52041432633996">
        <ele>717</ele>
        <time>2026-08-29T16:37:26Z</time>
      </trkpt>
      <trkpt lat="50.599451707676053" lon="13.520497223362327">
        <ele>718</ele>
        <time>2026-08-29T16:37:27Z</time>
      </trkpt>
      <trkpt lat="50.599463107064366" lon="13.520551370456815">
        <ele>719</ele>
        <time>2026-08-29T16:37:28Z</time>
      </trkpt>
      <trkpt lat="50.599476099014282" lon="13.520611552521586">
        <ele>718</ele>
        <time>2026-08-29T16:37:29Z</time>
      </trkpt>
      <trkpt lat="50.599486660212278" lon="13.520675841718912">
        <ele>718</ele>
        <time>2026-08-29T16:37:30Z</time>
      </trkpt>
      <trkpt lat="50.599490767344832" lon="13.52073585614562">
        <ele>719</ele>
        <time>2026-08-29T16:37:31Z</time>
      </trkpt>
      <trkpt lat="50.599498813971877" lon="13.520783465355635">
        <ele>718</ele>
        <time>2026-08-29T16:37:32Z</time>
      </trkpt>
      <trkpt lat="50.599507112056017" lon="13.520850269123912">
        <ele>718</ele>
        <time>2026-08-29T16:37:33Z</time>
      </trkpt>
      <trkpt lat="50.599510129541159" lon="13.520897207781672">
        <ele>717</ele>
        <time>2026-08-29T16:37:34Z</time>
      </trkpt>
      <trkpt lat="50.599511889740825" lon="13.520954288542271">
        <ele>717</ele>
        <time>2026-08-29T16:37:35Z</time>
      </trkpt>
      <trkpt lat="50.599498981609941" lon="13.521010279655457">
        <ele>716</ele>
        <time>2026-08-29T16:37:36Z</time>
      </trkpt>
      <trkpt lat="50.599496969953179" lon="13.52106124162674">
        <ele>716</ele>
        <time>2026-08-29T16:37:37Z</time>
      </trkpt>
      <trkpt lat="50.59949797578156" lon="13.521108515560627">
        <ele>715</ele>
        <time>2026-08-29T16:37:38Z</time>
      </trkpt>
      <trkpt lat="50.599493617191911" lon="13.521157717332244">
        <ele>715</ele>
        <time>2026-08-29T16:37:39Z</time>
      </trkpt>
      <trkpt lat="50.599490851163864" lon="13.521203733980656">
        <ele>715</ele>
        <time>2026-08-29T16:37:40Z</time>
      </trkpt>
      <trkpt lat="50.599486911669374" lon="13.521255198866129">
        <ele>715</ele>
        <time>2026-08-29T16:37:41Z</time>
      </trkpt>
      <trkpt lat="50.599492779001594" lon="13.521290319040418">
        <ele>715</ele>
        <time>2026-08-29T16:37:42Z</time>
      </trkpt>
      <trkpt lat="50.599494371563196" lon="13.521337425336242">
        <ele>715</ele>
        <time>2026-08-29T16:37:43Z</time>
      </trkpt>
      <trkpt lat="50.599491940811276" lon="13.521388303488493">
        <ele>715</ele>
        <time>2026-08-29T16:37:44Z</time>
      </trkpt>
      <trkpt lat="50.599485570564866" lon="13.521437253803015">
        <ele>715</ele>
        <time>2026-08-29T16:37:45Z</time>
      </trkpt>
      <trkpt lat="50.599480289965868" lon="13.521477654576302">
        <ele>715</ele>
        <time>2026-08-29T16:37:46Z</time>
      </trkpt>
      <trkpt lat="50.599478613585234" lon="13.521507913246751">
        <ele>715</ele>
        <time>2026-08-29T16:37:47Z</time>
      </trkpt>
      <trkpt lat="50.599482050165534" lon="13.521539345383644">
        <ele>715</ele>
        <time>2026-08-29T16:37:48Z</time>
      </trkpt>
      <trkpt lat="50.599476769566536" lon="13.521558456122875">
        <ele>715</ele>
        <time>2026-08-29T16:37:49Z</time>
      </trkpt>
      <trkpt lat="50.599475847557187" lon="13.521575555205345">
        <ele>715</ele>
        <time>2026-08-29T16:37:50Z</time>
      </trkpt>
      <trkpt lat="50.599475093185902" lon="13.521598102524877">
        <ele>715</ele>
        <time>2026-08-29T16:37:51Z</time>
      </trkpt>
      <trkpt lat="50.599473500624299" lon="13.521642442792654">
        <ele>715</ele>
        <time>2026-08-29T16:37:52Z</time>
      </trkpt>
      <trkpt lat="50.599468806758523" lon="13.521696757525206">
        <ele>714</ele>
        <time>2026-08-29T16:37:53Z</time>
      </trkpt>
      <trkpt lat="50.599469980224967" lon="13.52173313498497">
        <ele>714</ele>
        <time>2026-08-29T16:37:54Z</time>
      </trkpt>
      <trkpt lat="50.599465621635318" lon="13.521766159683466">
        <ele>714</ele>
        <time>2026-08-29T16:37:55Z</time>
      </trkpt>
      <trkpt lat="50.599465286359191" lon="13.52180982939899">
        <ele>714</ele>
        <time>2026-08-29T16:37:56Z</time>
      </trkpt>
      <trkpt lat="50.599465370178223" lon="13.521848302334547">
        <ele>714</ele>
        <time>2026-08-29T16:37:57Z</time>
      </trkpt>
      <trkpt lat="50.599451037123799" lon="13.521893983706832">
        <ele>714</ele>
        <time>2026-08-29T16:37:58Z</time>
      </trkpt>
      <trkpt lat="50.599439637735486" lon="13.521941006183624">
        <ele>714</ele>
        <time>2026-08-29T16:37:59Z</time>
      </trkpt>
      <trkpt lat="50.599439721554518" lon="13.521971013396978">
        <ele>714</ele>
        <time>2026-08-29T16:38:00Z</time>
      </trkpt>
      <trkpt lat="50.599439051002264" lon="13.52200479246676">
        <ele>714</ele>
        <time>2026-08-29T16:38:01Z</time>
      </trkpt>
      <trkpt lat="50.599441565573215" lon="13.522038152441382">
        <ele>714</ele>
        <time>2026-08-29T16:38:02Z</time>
      </trkpt>
      <trkpt lat="50.599435698240995" lon="13.522061118856072">
        <ele>713</ele>
        <time>2026-08-29T16:38:03Z</time>
      </trkpt>
      <trkpt lat="50.599422454833984" lon="13.522089617326856">
        <ele>713</ele>
        <time>2026-08-29T16:38:04Z</time>
      </trkpt>
      <trkpt lat="50.599409714341164" lon="13.522105710580945">
        <ele>713</ele>
        <time>2026-08-29T16:38:05Z</time>
      </trkpt>
      <trkpt lat="50.599393453449011" lon="13.522130521014333">
        <ele>713</ele>
        <time>2026-08-29T16:38:06Z</time>
      </trkpt>
      <trkpt lat="50.599386328831315" lon="13.522162288427353">
        <ele>713</ele>
        <time>2026-08-29T16:38:07Z</time>
      </trkpt>
      <trkpt lat="50.599374929443002" lon="13.522196402773261">
        <ele>713</ele>
        <time>2026-08-29T16:38:08Z</time>
      </trkpt>
      <trkpt lat="50.599370989948511" lon="13.522222554311156">
        <ele>712</ele>
        <time>2026-08-29T16:38:09Z</time>
      </trkpt>
      <trkpt lat="50.599365709349513" lon="13.522228086367249">
        <ele>713</ele>
        <time>2026-08-29T16:38:10Z</time>
      </trkpt>
      <trkpt lat="50.599361266940832" lon="13.522247113287449">
        <ele>713</ele>
        <time>2026-08-29T16:38:11Z</time>
      </trkpt>
      <trkpt lat="50.599354477599263" lon="13.522262200713158">
        <ele>712</ele>
        <time>2026-08-29T16:38:12Z</time>
      </trkpt>
      <trkpt lat="50.599341820925474" lon="13.522279383614659">
        <ele>712</ele>
        <time>2026-08-29T16:38:13Z</time>
      </trkpt>
      <trkpt lat="50.599327152594924" lon="13.522309977561235">
        <ele>712</ele>
        <time>2026-08-29T16:38:14Z</time>
      </trkpt>
      <trkpt lat="50.599309969693422" lon="13.522360939532518">
        <ele>713</ele>
        <time>2026-08-29T16:38:15Z</time>
      </trkpt>
      <trkpt lat="50.599296810105443" lon="13.522401256486773">
        <ele>712</ele>
        <time>2026-08-29T16:38:16Z</time>
      </trkpt>
      <trkpt lat="50.599284740164876" lon="13.522441238164902">
        <ele>712</ele>
        <time>2026-08-29T16:38:17Z</time>
      </trkpt>
      <trkpt lat="50.599273843690753" lon="13.522477112710476">
        <ele>712</ele>
        <time>2026-08-29T16:38:18Z</time>
      </trkpt>
      <trkpt lat="50.59926244430244" lon="13.522509466856718">
        <ele>712</ele>
        <time>2026-08-29T16:38:19Z</time>
      </trkpt>
      <trkpt lat="50.599252637475729" lon="13.522542743012309">
        <ele>712</ele>
        <time>2026-08-29T16:38:20Z</time>
      </trkpt>
      <trkpt lat="50.599247608333826" lon="13.522586412727833">
        <ele>712</ele>
        <time>2026-08-29T16:38:21Z</time>
      </trkpt>
      <trkpt lat="50.599234700202942" lon="13.522613905370235">
        <ele>712</ele>
        <time>2026-08-29T16:38:22Z</time>
      </trkpt>
      <trkpt lat="50.599227072671056" lon="13.52263955399394">
        <ele>712</ele>
        <time>2026-08-29T16:38:23Z</time>
      </trkpt>
      <trkpt lat="50.599223887547851" lon="13.522668639197946">
        <ele>711</ele>
        <time>2026-08-29T16:38:24Z</time>
      </trkpt>
      <trkpt lat="50.599222127348185" lon="13.522687247022986">
        <ele>712</ele>
        <time>2026-08-29T16:38:25Z</time>
      </trkpt>
      <trkpt lat="50.59921458363533" lon="13.522713985294104">
        <ele>711</ele>
        <time>2026-08-29T16:38:26Z</time>
      </trkpt>
      <trkpt lat="50.599209805950522" lon="13.522743238136172">
        <ele>711</ele>
        <time>2026-08-29T16:38:27Z</time>
      </trkpt>
      <trkpt lat="50.599208381026983" lon="13.522779447957873">
        <ele>711</ele>
        <time>2026-08-29T16:38:28Z</time>
      </trkpt>
      <trkpt lat="50.599200082942843" lon="13.522803587839007">
        <ele>711</ele>
        <time>2026-08-29T16:38:29Z</time>
      </trkpt>
      <trkpt lat="50.59919061139226" lon="13.522829404100776">
        <ele>711</ele>
        <time>2026-08-29T16:38:30Z</time>
      </trkpt>
      <trkpt lat="50.599186420440674" lon="13.522867457941175">
        <ele>711</ele>
        <time>2026-08-29T16:38:31Z</time>
      </trkpt>
      <trkpt lat="50.599166890606284" lon="13.522904170677066">
        <ele>711</ele>
        <time>2026-08-29T16:38:32Z</time>
      </trkpt>
      <trkpt lat="50.599152389913797" lon="13.522934848442674">
        <ele>711</ele>
        <time>2026-08-29T16:38:33Z</time>
      </trkpt>
      <trkpt lat="50.599136296659708" lon="13.52297080680728">
        <ele>712</ele>
        <time>2026-08-29T16:38:34Z</time>
      </trkpt>
      <trkpt lat="50.599117605015635" lon="13.523005591705441">
        <ele>712</ele>
        <time>2026-08-29T16:38:35Z</time>
      </trkpt>
      <trkpt lat="50.599107630550861" lon="13.523048004135489">
        <ele>712</ele>
        <time>2026-08-29T16:38:36Z</time>
      </trkpt>
      <trkpt lat="50.599091369658709" lon="13.523094272240996">
        <ele>712</ele>
        <time>2026-08-29T16:38:37Z</time>
      </trkpt>
      <trkpt lat="50.59906848706305" lon="13.523135930299759">
        <ele>713</ele>
        <time>2026-08-29T16:38:38Z</time>
      </trkpt>
      <trkpt lat="50.599051471799612" lon="13.523168284446001">
        <ele>713</ele>
        <time>2026-08-29T16:38:39Z</time>
      </trkpt>
      <trkpt lat="50.599034037441015" lon="13.523207847028971">
        <ele>713</ele>
        <time>2026-08-29T16:38:40Z</time>
      </trkpt>
      <trkpt lat="50.599015010520816" lon="13.523245649412274">
        <ele>713</ele>
        <time>2026-08-29T16:38:41Z</time>
      </trkpt>
      <trkpt lat="50.598987769335508" lon="13.523300802335143">
        <ele>713</ele>
        <time>2026-08-29T16:38:42Z</time>
      </trkpt>
      <trkpt lat="50.598959270864725" lon="13.523327624425292">
        <ele>713</ele>
        <time>2026-08-29T16:38:43Z</time>
      </trkpt>
      <trkpt lat="50.598925827071071" lon="13.523366767913103">
        <ele>713</ele>
        <time>2026-08-29T16:38:44Z</time>
      </trkpt>
      <trkpt lat="50.598885342478752" lon="13.523395601660013">
        <ele>713</ele>
        <time>2026-08-29T16:38:45Z</time>
      </trkpt>
      <trkpt lat="50.598857682198286" lon="13.523435331881046">
        <ele>713</ele>
        <time>2026-08-29T16:38:46Z</time>
      </trkpt>
      <trkpt lat="50.598832201212645" lon="13.523467853665352">
        <ele>713</ele>
        <time>2026-08-29T16:38:47Z</time>
      </trkpt>
      <trkpt lat="50.598805798217654" lon="13.523503560572863">
        <ele>713</ele>
        <time>2026-08-29T16:38:48Z</time>
      </trkpt>
      <trkpt lat="50.59878459200263" lon="13.523541698232293">
        <ele>713</ele>
        <time>2026-08-29T16:38:49Z</time>
      </trkpt>
      <trkpt lat="50.598765648901463" lon="13.523584865033627">
        <ele>713</ele>
        <time>2026-08-29T16:38:50Z</time>
      </trkpt>
      <trkpt lat="50.598744777962565" lon="13.523629624396563">
        <ele>713</ele>
        <time>2026-08-29T16:38:51Z</time>
      </trkpt>
      <trkpt lat="50.598724912852049" lon="13.523665247485042">
        <ele>713</ele>
        <time>2026-08-29T16:38:52Z</time>
      </trkpt>
      <trkpt lat="50.598699264228344" lon="13.523704977706075">
        <ele>713</ele>
        <time>2026-08-29T16:38:53Z</time>
      </trkpt>
      <trkpt lat="50.598678309470415" lon="13.523750072345138">
        <ele>713</ele>
        <time>2026-08-29T16:38:54Z</time>
      </trkpt>
      <trkpt lat="50.598662802949548" lon="13.523791814222932">
        <ele>713</ele>
        <time>2026-08-29T16:38:55Z</time>
      </trkpt>
      <trkpt lat="50.598643608391285" lon="13.523823413997889">
        <ele>714</ele>
        <time>2026-08-29T16:38:56Z</time>
      </trkpt>
      <trkpt lat="50.598630113527179" lon="13.523861551657319">
        <ele>713</ele>
        <time>2026-08-29T16:38:57Z</time>
      </trkpt>
      <trkpt lat="50.598614271730185" lon="13.52390312589705">
        <ele>713</ele>
        <time>2026-08-29T16:38:58Z</time>
      </trkpt>
      <trkpt lat="50.598602620884776" lon="13.523943275213242">
        <ele>713</ele>
        <time>2026-08-29T16:38:59Z</time>
      </trkpt>
      <trkpt lat="50.59858376160264" lon="13.523975042626262">
        <ele>713</ele>
        <time>2026-08-29T16:39:00Z</time>
      </trkpt>
      <trkpt lat="50.598562890663743" lon="13.524008402600884">
        <ele>713</ele>
        <time>2026-08-29T16:39:01Z</time>
      </trkpt>
      <trkpt lat="50.598540175706148" lon="13.524043522775173">
        <ele>713</ele>
        <time>2026-08-29T16:39:02Z</time>
      </trkpt>
      <trkpt lat="50.598525339737535" lon="13.524080235511065">
        <ele>713</ele>
        <time>2026-08-29T16:39:03Z</time>
      </trkpt>
      <trkpt lat="50.598513688892126" lon="13.524118540808558">
        <ele>714</ele>
        <time>2026-08-29T16:39:04Z</time>
      </trkpt>
      <trkpt lat="50.598499188199639" lon="13.52415475063026">
        <ele>714</ele>
        <time>2026-08-29T16:39:05Z</time>
      </trkpt>
      <trkpt lat="50.598480915650725" lon="13.524189284071326">
        <ele>715</ele>
        <time>2026-08-29T16:39:06Z</time>
      </trkpt>
      <trkpt lat="50.598465744405985" lon="13.524222811684012">
        <ele>715</ele>
        <time>2026-08-29T16:39:07Z</time>
      </trkpt>
      <trkpt lat="50.598449148237705" lon="13.524269834160805">
        <ele>714</ele>
        <time>2026-08-29T16:39:08Z</time>
      </trkpt>
      <trkpt lat="50.598443197086453" lon="13.524307468906045">
        <ele>715</ele>
        <time>2026-08-29T16:39:09Z</time>
      </trkpt>
      <trkpt lat="50.598437581211329" lon="13.524345438927412">
        <ele>715</ele>
        <time>2026-08-29T16:39:10Z</time>
      </trkpt>
      <trkpt lat="50.598435569554567" lon="13.5243771225214">
        <ele>715</ele>
        <time>2026-08-29T16:39:11Z</time>
      </trkpt>
      <trkpt lat="50.598425678908825" lon="13.524407297372818">
        <ele>715</ele>
        <time>2026-08-29T16:39:12Z</time>
      </trkpt>
      <trkpt lat="50.59841956011951" lon="13.524446608498693">
        <ele>716</ele>
        <time>2026-08-29T16:39:13Z</time>
      </trkpt>
      <trkpt lat="50.598417716100812" lon="13.524476028978825">
        <ele>716</ele>
        <time>2026-08-29T16:39:14Z</time>
      </trkpt>
      <trkpt lat="50.598415955901146" lon="13.524503437802196">
        <ele>716</ele>
        <time>2026-08-29T16:39:15Z</time>
      </trkpt>
      <trkpt lat="50.598407741636038" lon="13.524529002606869">
        <ele>716</ele>
        <time>2026-08-29T16:39:16Z</time>
      </trkpt>
      <trkpt lat="50.598407741636038" lon="13.524553813040257">
        <ele>716</ele>
        <time>2026-08-29T16:39:17Z</time>
      </trkpt>
      <trkpt lat="50.598402209579945" lon="13.524579461663961">
        <ele>716</ele>
        <time>2026-08-29T16:39:18Z</time>
      </trkpt>
      <trkpt lat="50.598396509885788" lon="13.524613324552774">
        <ele>716</ele>
        <time>2026-08-29T16:39:19Z</time>
      </trkpt>
      <trkpt lat="50.598392486572266" lon="13.524652132764459">
        <ele>717</ele>
        <time>2026-08-29T16:39:20Z</time>
      </trkpt>
      <trkpt lat="50.5983907263726" lon="13.524688929319382">
        <ele>717</ele>
        <time>2026-08-29T16:39:21Z</time>
      </trkpt>
      <trkpt lat="50.598394749686122" lon="13.524732096120715">
        <ele>718</ele>
        <time>2026-08-29T16:39:22Z</time>
      </trkpt>
      <trkpt lat="50.598400868475437" lon="13.524780375882983">
        <ele>719</ele>
        <time>2026-08-29T16:39:23Z</time>
      </trkpt>
      <trkpt lat="50.598404724150896" lon="13.524825554341078">
        <ele>719</ele>
        <time>2026-08-29T16:39:24Z</time>
      </trkpt>
      <trkpt lat="50.598402041941881" lon="13.524860087782145">
        <ele>719</ele>
        <time>2026-08-29T16:39:25Z</time>
      </trkpt>
      <trkpt lat="50.598411010578275" lon="13.524903170764446">
        <ele>719</ele>
        <time>2026-08-29T16:39:26Z</time>
      </trkpt>
      <trkpt lat="50.59841469861567" lon="13.524948852136731">
        <ele>719</ele>
        <time>2026-08-29T16:39:27Z</time>
      </trkpt>
      <trkpt lat="50.598422074690461" lon="13.524997048079967">
        <ele>719</ele>
        <time>2026-08-29T16:39:28Z</time>
      </trkpt>
      <trkpt lat="50.598414111882448" lon="13.525044154375792">
        <ele>719</ele>
        <time>2026-08-29T16:39:29Z</time>
      </trkpt>
      <trkpt lat="50.598406819626689" lon="13.525083297863603">
        <ele>719</ele>
        <time>2026-08-29T16:39:30Z</time>
      </trkpt>
      <trkpt lat="50.598401371389627" lon="13.525120513513684">
        <ele>719</ele>
        <time>2026-08-29T16:39:31Z</time>
      </trkpt>
      <trkpt lat="50.598404137417674" lon="13.525155382230878">
        <ele>719</ele>
        <time>2026-08-29T16:39:32Z</time>
      </trkpt>
      <trkpt lat="50.598397683352232" lon="13.525185892358422">
        <ele>719</ele>
        <time>2026-08-29T16:39:33Z</time>
      </trkpt>
      <trkpt lat="50.598387289792299" lon="13.525220509618521">
        <ele>719</ele>
        <time>2026-08-29T16:39:34Z</time>
      </trkpt>
      <trkpt lat="50.598371867090464" lon="13.525265688076615">
        <ele>719</ele>
        <time>2026-08-29T16:39:35Z</time>
      </trkpt>
      <trkpt lat="50.598357617855072" lon="13.525307681411505">
        <ele>719</ele>
        <time>2026-08-29T16:39:36Z</time>
      </trkpt>
      <trkpt lat="50.598341105505824" lon="13.525319835171103">
        <ele>719</ele>
        <time>2026-08-29T16:39:37Z</time>
      </trkpt>
      <trkpt lat="50.598340937867761" lon="13.525329139083624">
        <ele>719</ele>
        <time>2026-08-29T16:39:38Z</time>
      </trkpt>
      <trkpt lat="50.598342530429363" lon="13.525311034172773">
        <ele>718</ele>
        <time>2026-08-29T16:39:39Z</time>
      </trkpt>
      <trkpt lat="50.598342530429363" lon="13.525311034172773">
        <ele>718</ele>
        <time>2026-08-29T16:39:40Z</time>
      </trkpt>
      <trkpt lat="50.598342446610332" lon="13.52531086653471">
        <ele>718</ele>
        <time>2026-08-29T16:39:41Z</time>
      </trkpt>
      <trkpt lat="50.598346218466759" lon="13.525307849049568">
        <ele>717</ele>
        <time>2026-08-29T16:39:42Z</time>
      </trkpt>
      <trkpt lat="50.598340937867761" lon="13.525303993374109">
        <ele>717</ele>
        <time>2026-08-29T16:39:43Z</time>
      </trkpt>
      <trkpt lat="50.598340770229697" lon="13.525304915383458">
        <ele>717</ele>
        <time>2026-08-29T16:39:44Z</time>
      </trkpt>
      <trkpt lat="50.598340686410666" lon="13.525304580107331">
        <ele>717</ele>
        <time>2026-08-29T16:39:45Z</time>
      </trkpt>
      <trkpt lat="50.598340686410666" lon="13.5253044962883">
        <ele>717</ele>
        <time>2026-08-29T16:39:46Z</time>
      </trkpt>
      <trkpt lat="50.598340854048729" lon="13.525303993374109">
        <ele>717</ele>
        <time>2026-08-29T16:39:47Z</time>
      </trkpt>
      <trkpt lat="50.598340770229697" lon="13.525303909555078">
        <ele>717</ele>
        <time>2026-08-29T16:39:48Z</time>
      </trkpt>
      <trkpt lat="50.598340770229697" lon="13.525303909555078">
        <ele>717</ele>
        <time>2026-08-29T16:39:49Z</time>
      </trkpt>
      <trkpt lat="50.598340937867761" lon="13.525304244831204">
        <ele>717</ele>
        <time>2026-08-29T16:39:50Z</time>
      </trkpt>
      <trkpt lat="50.598340937867761" lon="13.525303993374109">
        <ele>717</ele>
        <time>2026-08-29T16:39:51Z</time>
      </trkpt>
      <trkpt lat="50.598340854048729" lon="13.525303909555078">
        <ele>717</ele>
        <time>2026-08-29T16:39:52Z</time>
      </trkpt>
      <trkpt lat="50.598341021686792" lon="13.525303658097982">
        <ele>717</ele>
        <time>2026-08-29T16:39:53Z</time>
      </trkpt>
      <trkpt lat="50.598341189324856" lon="13.525303322821856">
        <ele>717</ele>
        <time>2026-08-29T16:39:54Z</time>
      </trkpt>
      <trkpt lat="50.598341189324856" lon="13.52530307136476">
        <ele>717</ele>
        <time>2026-08-29T16:39:55Z</time>
      </trkpt>
      <trkpt lat="50.598341356962919" lon="13.525302736088634">
        <ele>717</ele>
        <time>2026-08-29T16:39:56Z</time>
      </trkpt>
      <trkpt lat="50.598341356962919" lon="13.525302316993475">
        <ele>717</ele>
        <time>2026-08-29T16:39:57Z</time>
      </trkpt>
      <trkpt lat="50.598341356962919" lon="13.525302149355412">
        <ele>717</ele>
        <time>2026-08-29T16:39:58Z</time>
      </trkpt>
      <trkpt lat="50.598341356962919" lon="13.525301981717348">
        <ele>717</ele>
        <time>2026-08-29T16:39:59Z</time>
      </trkpt>
      <trkpt lat="50.598341273143888" lon="13.525302149355412">
        <ele>717</ele>
        <time>2026-08-29T16:40:00Z</time>
      </trkpt>
      <trkpt lat="50.598341189324856" lon="13.525301646441221">
        <ele>717</ele>
        <time>2026-08-29T16:40:01Z</time>
      </trkpt>
      <trkpt lat="50.598341189324856" lon="13.525301646441221">
        <ele>717</ele>
        <time>2026-08-29T16:40:02Z</time>
      </trkpt>
      <trkpt lat="50.598340937867761" lon="13.525301646441221">
        <ele>717</ele>
        <time>2026-08-29T16:40:03Z</time>
      </trkpt>
      <trkpt lat="50.598340602591634" lon="13.525301646441221">
        <ele>717</ele>
        <time>2026-08-29T16:40:04Z</time>
      </trkpt>
      <trkpt lat="50.598340351134539" lon="13.525301730260253">
        <ele>717</ele>
        <time>2026-08-29T16:40:05Z</time>
      </trkpt>
      <trkpt lat="50.598340267315507" lon="13.525301478803158">
        <ele>717</ele>
        <time>2026-08-29T16:40:06Z</time>
      </trkpt>
      <trkpt lat="50.59833993203938" lon="13.525301478803158">
        <ele>717</ele>
        <time>2026-08-29T16:40:07Z</time>
      </trkpt>
      <trkpt lat="50.598339680582285" lon="13.52530156262219">
        <ele>717</ele>
        <time>2026-08-29T16:40:08Z</time>
      </trkpt>
      <trkpt lat="50.59833942912519" lon="13.52530156262219">
        <ele>717</ele>
        <time>2026-08-29T16:40:09Z</time>
      </trkpt>
      <trkpt lat="50.598339261487126" lon="13.525301730260253">
        <ele>717</ele>
        <time>2026-08-29T16:40:10Z</time>
      </trkpt>
      <trkpt lat="50.598338926210999" lon="13.525301981717348">
        <ele>717</ele>
        <time>2026-08-29T16:40:11Z</time>
      </trkpt>
      <trkpt lat="50.598338590934873" lon="13.525302316993475">
        <ele>717</ele>
        <time>2026-08-29T16:40:12Z</time>
      </trkpt>
      <trkpt lat="50.598338423296809" lon="13.525302149355412">
        <ele>717</ele>
        <time>2026-08-29T16:40:13Z</time>
      </trkpt>
      <trkpt lat="50.598333058878779" lon="13.52529326453805">
        <ele>717</ele>
        <time>2026-08-29T16:40:14Z</time>
      </trkpt>
      <trkpt lat="50.598330041393638" lon="13.52528739720583">
        <ele>717</ele>
        <time>2026-08-29T16:40:15Z</time>
      </trkpt>
      <trkpt lat="50.598330209031701" lon="13.525279518216848">
        <ele>716</ele>
        <time>2026-08-29T16:40:16Z</time>
      </trkpt>
      <trkpt lat="50.598327191546559" lon="13.525281194597483">
        <ele>716</ele>
        <time>2026-08-29T16:40:17Z</time>
      </trkpt>
      <trkpt lat="50.598326520994306" lon="13.525285553187132">
        <ele>717</ele>
        <time>2026-08-29T16:40:18Z</time>
      </trkpt>
      <trkpt lat="50.598321491852403" lon="13.525290414690971">
        <ele>717</ele>
        <time>2026-08-29T16:40:19Z</time>
      </trkpt>
      <trkpt lat="50.598320569843054" lon="13.525289073586464">
        <ele>717</ele>
        <time>2026-08-29T16:40:20Z</time>
      </trkpt>
      <trkpt lat="50.598313948139548" lon="13.525289241224527">
        <ele>717</ele>
        <time>2026-08-29T16:40:21Z</time>
      </trkpt>
      <trkpt lat="50.598312271758914" lon="13.525287816300988">
        <ele>718</ele>
        <time>2026-08-29T16:40:22Z</time>
      </trkpt>
      <trkpt lat="50.598310343921185" lon="13.525306675583124">
        <ele>718</ele>
        <time>2026-08-29T16:40:23Z</time>
      </trkpt>
      <trkpt lat="50.598308918997645" lon="13.525309609249234">
        <ele>718</ele>
        <time>2026-08-29T16:40:24Z</time>
      </trkpt>
      <trkpt lat="50.598303470760584" lon="13.525316566228867">
        <ele>718</ele>
        <time>2026-08-29T16:40:25Z</time>
      </trkpt>
      <trkpt lat="50.598298944532871" lon="13.525324445217848">
        <ele>718</ele>
        <time>2026-08-29T16:40:26Z</time>
      </trkpt>
      <trkpt lat="50.598295088857412" lon="13.525340873748064">
        <ele>718</ele>
        <time>2026-08-29T16:40:27Z</time>
      </trkpt>
      <trkpt lat="50.598283186554909" lon="13.525358894839883">
        <ele>718</ele>
        <time>2026-08-29T16:40:28Z</time>
      </trkpt>
      <trkpt lat="50.59826323762536" lon="13.525385381653905">
        <ele>718</ele>
        <time>2026-08-29T16:40:29Z</time>
      </trkpt>
      <trkpt lat="50.598243623971939" lon="13.525421507656574">
        <ele>718</ele>
        <time>2026-08-29T16:40:30Z</time>
      </trkpt>
      <trkpt lat="50.598218645900488" lon="13.525464339181781">
        <ele>718</ele>
        <time>2026-08-29T16:40:31Z</time>
      </trkpt>
      <trkpt lat="50.598191237077117" lon="13.52552242577076">
        <ele>718</ele>
        <time>2026-08-29T16:40:32Z</time>
      </trkpt>
      <trkpt lat="50.598157793283463" lon="13.525582272559404">
        <ele>719</ele>
        <time>2026-08-29T16:40:33Z</time>
      </trkpt>
      <trkpt lat="50.598127031698823" lon="13.525625942274928">
        <ele>720</ele>
        <time>2026-08-29T16:40:34Z</time>
      </trkpt>
      <trkpt lat="50.598099958151579" lon="13.525666845962405">
        <ele>721</ele>
        <time>2026-08-29T16:40:35Z</time>
      </trkpt>
      <trkpt lat="50.598068190738559" lon="13.525701882317662">
        <ele>721</ele>
        <time>2026-08-29T16:40:36Z</time>
      </trkpt>
      <trkpt lat="50.598043547943234" lon="13.5257379245013">
        <ele>721</ele>
        <time>2026-08-29T16:40:37Z</time>
      </trkpt>
      <trkpt lat="50.59802083298564" lon="13.525781845673919">
        <ele>721</ele>
        <time>2026-08-29T16:40:38Z</time>
      </trkpt>
      <trkpt lat="50.59799644164741" lon="13.525813864544034">
        <ele>721</ele>
        <time>2026-08-29T16:40:39Z</time>
      </trkpt>
      <trkpt lat="50.597968529909849" lon="13.525853846222162">
        <ele>721</ele>
        <time>2026-08-29T16:40:40Z</time>
      </trkpt>
      <trkpt lat="50.597945479676127" lon="13.525908747687936">
        <ele>721</ele>
        <time>2026-08-29T16:40:41Z</time>
      </trkpt>
      <trkpt lat="50.597919495776296" lon="13.525970438495278">
        <ele>721</ele>
        <time>2026-08-29T16:40:42Z</time>
      </trkpt>
      <trkpt lat="50.597897451370955" lon="13.526028776541352">
        <ele>722</ele>
        <time>2026-08-29T16:40:43Z</time>
      </trkpt>
      <trkpt lat="50.597881861031055" lon="13.526080073788762">
        <ele>722</ele>
        <time>2026-08-29T16:40:44Z</time>
      </trkpt>
      <trkpt lat="50.597873143851757" lon="13.526146877557039">
        <ele>722</ele>
        <time>2026-08-29T16:40:45Z</time>
      </trkpt>
      <trkpt lat="50.597858559340239" lon="13.526212172582746">
        <ele>722</ele>
        <time>2026-08-29T16:40:46Z</time>
      </trkpt>
      <trkpt lat="50.597841879352927" lon="13.526281490921974">
        <ele>721</ele>
        <time>2026-08-29T16:40:47Z</time>
      </trkpt>
      <trkpt lat="50.597826289013028" lon="13.526369333267212">
        <ele>722</ele>
        <time>2026-08-29T16:40:48Z</time>
      </trkpt>
      <trkpt lat="50.597819332033396" lon="13.526433538645506">
        <ele>721</ele>
        <time>2026-08-29T16:40:49Z</time>
      </trkpt>
      <trkpt lat="50.597798125818372" lon="13.526492463424802">
        <ele>721</ele>
        <time>2026-08-29T16:40:50Z</time>
      </trkpt>
      <trkpt lat="50.597788821905851" lon="13.526556501165032">
        <ele>720</ele>
        <time>2026-08-29T16:40:51Z</time>
      </trkpt>
      <trkpt lat="50.597759149968624" lon="13.526625148952007">
        <ele>719</ele>
        <time>2026-08-29T16:40:52Z</time>
      </trkpt>
      <trkpt lat="50.597745319828391" lon="13.5266756080091">
        <ele>718</ele>
        <time>2026-08-29T16:40:53Z</time>
      </trkpt>
      <trkpt lat="50.597734674811363" lon="13.526737131178379">
        <ele>717</ele>
        <time>2026-08-29T16:40:54Z</time>
      </trkpt>
      <trkpt lat="50.597741128876805" lon="13.526809886097908">
        <ele>715</ele>
        <time>2026-08-29T16:40:55Z</time>
      </trkpt>
      <trkpt lat="50.597750097513199" lon="13.526872918009758">
        <ele>713</ele>
        <time>2026-08-29T16:40:56Z</time>
      </trkpt>
      <trkpt lat="50.597754707559943" lon="13.526926478371024">
        <ele>712</ele>
        <time>2026-08-29T16:40:57Z</time>
      </trkpt>
      <trkpt lat="50.597764514386654" lon="13.526983391493559">
        <ele>712</ele>
        <time>2026-08-29T16:40:58Z</time>
      </trkpt>
      <trkpt lat="50.597771387547255" lon="13.527072239667177">
        <ele>712</ele>
        <time>2026-08-29T16:40:59Z</time>
      </trkpt>
      <trkpt lat="50.597773818299174" lon="13.527159998193383">
        <ele>712</ele>
        <time>2026-08-29T16:41:00Z</time>
      </trkpt>
      <trkpt lat="50.597787983715534" lon="13.527232334017754">
        <ele>712</ele>
        <time>2026-08-29T16:41:01Z</time>
      </trkpt>
      <trkpt lat="50.597787899896502" lon="13.527316404506564">
        <ele>711</ele>
        <time>2026-08-29T16:41:02Z</time>
      </trkpt>
      <trkpt lat="50.597797036170959" lon="13.527420843020082">
        <ele>712</ele>
        <time>2026-08-29T16:41:03Z</time>
      </trkpt>
      <trkpt lat="50.597809022292495" lon="13.527517737820745">
        <ele>712</ele>
        <time>2026-08-29T16:41:04Z</time>
      </trkpt>
      <trkpt lat="50.597791001200676" lon="13.527653776109219">
        <ele>711</ele>
        <time>2026-08-29T16:41:05Z</time>
      </trkpt>
      <trkpt lat="50.59779753908515" lon="13.527737678959966">
        <ele>711</ele>
        <time>2026-08-29T16:41:06Z</time>
      </trkpt>
      <trkpt lat="50.597797119989991" lon="13.527800375595689">
        <ele>711</ele>
        <time>2026-08-29T16:41:07Z</time>
      </trkpt>
      <trkpt lat="50.597809189930558" lon="13.527842285111547">
        <ele>711</ele>
        <time>2026-08-29T16:41:08Z</time>
      </trkpt>
      <trkpt lat="50.597809189930558" lon="13.527885871008039">
        <ele>711</ele>
        <time>2026-08-29T16:41:09Z</time>
      </trkpt>
      <trkpt lat="50.5978087708354" lon="13.527937671169639">
        <ele>711</ele>
        <time>2026-08-29T16:41:10Z</time>
      </trkpt>
      <trkpt lat="50.597811369225383" lon="13.527979413047433">
        <ele>711</ele>
        <time>2026-08-29T16:41:11Z</time>
      </trkpt>
      <trkpt lat="50.597819499671459" lon="13.528058035299182">
        <ele>711</ele>
        <time>2026-08-29T16:41:12Z</time>
      </trkpt>
      <trkpt lat="50.597818912938237" lon="13.528120061382651">
        <ele>710</ele>
        <time>2026-08-29T16:41:13Z</time>
      </trkpt>
      <trkpt lat="50.597827127203345" lon="13.52818057872355">
        <ele>710</ele>
        <time>2026-08-29T16:41:14Z</time>
      </trkpt>
      <trkpt lat="50.597830060869455" lon="13.528240341693163">
        <ele>710</ele>
        <time>2026-08-29T16:41:15Z</time>
      </trkpt>
      <trkpt lat="50.597832156345248" lon="13.528286274522543">
        <ele>710</ele>
        <time>2026-08-29T16:41:16Z</time>
      </trkpt>
      <trkpt lat="50.597834503278136" lon="13.528344444930553">
        <ele>709</ele>
        <time>2026-08-29T16:41:17Z</time>
      </trkpt>
      <trkpt lat="50.59782980941236" lon="13.528376463800669">
        <ele>709</ele>
        <time>2026-08-29T16:41:18Z</time>
      </trkpt>
      <trkpt lat="50.597823606804013" lon="13.528412422165275">
        <ele>709</ele>
        <time>2026-08-29T16:41:19Z</time>
      </trkpt>
      <trkpt lat="50.597826205193996" lon="13.528415355831385">
        <ele>709</ele>
        <time>2026-08-29T16:41:20Z</time>
      </trkpt>
      <trkpt lat="50.597829055041075" lon="13.528423318639398">
        <ele>709</ele>
        <time>2026-08-29T16:41:21Z</time>
      </trkpt>
      <trkpt lat="50.597826540470123" lon="13.528438657522202">
        <ele>708</ele>
        <time>2026-08-29T16:41:22Z</time>
      </trkpt>
      <trkpt lat="50.597836514934897" lon="13.528441758826375">
        <ele>707</ele>
        <time>2026-08-29T16:41:23Z</time>
      </trkpt>
      <trkpt lat="50.597841460257769" lon="13.528442848473787">
        <ele>707</ele>
        <time>2026-08-29T16:41:24Z</time>
      </trkpt>
      <trkpt lat="50.597843136638403" lon="13.528450056910515">
        <ele>707</ele>
        <time>2026-08-29T16:41:25Z</time>
      </trkpt>
      <trkpt lat="50.597844980657101" lon="13.528449218720198">
        <ele>706</ele>
        <time>2026-08-29T16:41:26Z</time>
      </trkpt>
      <trkpt lat="50.597847076132894" lon="13.528447290882468">
        <ele>706</ele>
        <time>2026-08-29T16:41:27Z</time>
      </trkpt>
      <trkpt lat="50.597849171608686" lon="13.528453577309847">
        <ele>707</ele>
        <time>2026-08-29T16:41:28Z</time>
      </trkpt>
      <trkpt lat="50.597850261256099" lon="13.528462462127209">
        <ele>707</ele>
        <time>2026-08-29T16:41:29Z</time>
      </trkpt>
      <trkpt lat="50.597849925979972" lon="13.528457516804338">
        <ele>707</ele>
        <time>2026-08-29T16:41:30Z</time>
      </trkpt>
      <trkpt lat="50.597849590703845" lon="13.528457935899496">
        <ele>707</ele>
        <time>2026-08-29T16:41:31Z</time>
      </trkpt>
      <trkpt lat="50.597843807190657" lon="13.528457013890147">
        <ele>707</ele>
        <time>2026-08-29T16:41:32Z</time>
      </trkpt>
      <trkpt lat="50.597843052819371" lon="13.528457265347242">
        <ele>707</ele>
        <time>2026-08-29T16:41:33Z</time>
      </trkpt>
      <trkpt lat="50.597842633724213" lon="13.528457097709179">
        <ele>707</ele>
        <time>2026-08-29T16:41:34Z</time>
      </trkpt>
      <trkpt lat="50.597835509106517" lon="13.52846103720367">
        <ele>708</ele>
        <time>2026-08-29T16:41:35Z</time>
      </trkpt>
      <trkpt lat="50.597835509106517" lon="13.528460953384638">
        <ele>708</ele>
        <time>2026-08-29T16:41:36Z</time>
      </trkpt>
      <trkpt lat="50.597834838554263" lon="13.528461288660765">
        <ele>708</ele>
        <time>2026-08-29T16:41:37Z</time>
      </trkpt>
      <trkpt lat="50.59782394208014" lon="13.528474615886807">
        <ele>708</ele>
        <time>2026-08-29T16:41:38Z</time>
      </trkpt>
      <trkpt lat="50.597823858261108" lon="13.528475202620029">
        <ele>708</ele>
        <time>2026-08-29T16:41:39Z</time>
      </trkpt>
      <trkpt lat="50.597818410024047" lon="13.528487691655755">
        <ele>708</ele>
        <time>2026-08-29T16:41:40Z</time>
      </trkpt>
      <trkpt lat="50.597818158566952" lon="13.528488026931882">
        <ele>708</ele>
        <time>2026-08-29T16:41:41Z</time>
      </trkpt>
      <trkpt lat="50.597817823290825" lon="13.528488278388977">
        <ele>708</ele>
        <time>2026-08-29T16:41:42Z</time>
      </trkpt>
      <trkpt lat="50.59781757183373" lon="13.528488697484136">
        <ele>708</ele>
        <time>2026-08-29T16:41:43Z</time>
      </trkpt>
      <trkpt lat="50.597817320376635" lon="13.528488948941231">
        <ele>708</ele>
        <time>2026-08-29T16:41:44Z</time>
      </trkpt>
      <trkpt lat="50.597813799977303" lon="13.528491798788309">
        <ele>707</ele>
        <time>2026-08-29T16:41:45Z</time>
      </trkpt>
      <trkpt lat="50.597813716158271" lon="13.528491714969277">
        <ele>707</ele>
        <time>2026-08-29T16:41:46Z</time>
      </trkpt>
      <trkpt lat="50.597813380882144" lon="13.528491714969277">
        <ele>707</ele>
        <time>2026-08-29T16:41:47Z</time>
      </trkpt>
      <trkpt lat="50.597813129425049" lon="13.528491966426373">
        <ele>707</ele>
        <time>2026-08-29T16:41:48Z</time>
      </trkpt>
      <trkpt lat="50.597813129425049" lon="13.528492134064436">
        <ele>707</ele>
        <time>2026-08-29T16:41:49Z</time>
      </trkpt>
      <trkpt lat="50.597806591540575" lon="13.528491882607341">
        <ele>708</ele>
        <time>2026-08-29T16:41:50Z</time>
      </trkpt>
      <trkpt lat="50.597806423902512" lon="13.528491882607341">
        <ele>708</ele>
        <time>2026-08-29T16:41:51Z</time>
      </trkpt>
      <trkpt lat="50.597806423902512" lon="13.528491882607341">
        <ele>708</ele>
        <time>2026-08-29T16:41:52Z</time>
      </trkpt>
      <trkpt lat="50.59780634008348" lon="13.528492050245404">
        <ele>708</ele>
        <time>2026-08-29T16:41:53Z</time>
      </trkpt>
      <trkpt lat="50.59780634008348" lon="13.528491966426373">
        <ele>708</ele>
        <time>2026-08-29T16:41:54Z</time>
      </trkpt>
      <trkpt lat="50.597806256264448" lon="13.528492050245404">
        <ele>708</ele>
        <time>2026-08-29T16:41:55Z</time>
      </trkpt>
      <trkpt lat="50.597806256264448" lon="13.528492134064436">
        <ele>708</ele>
        <time>2026-08-29T16:41:56Z</time>
      </trkpt>
      <trkpt lat="50.597806004807353" lon="13.528492050245404">
        <ele>708</ele>
        <time>2026-08-29T16:41:57Z</time>
      </trkpt>
      <trkpt lat="50.597805920988321" lon="13.528491714969277">
        <ele>708</ele>
        <time>2026-08-29T16:41:58Z</time>
      </trkpt>
      <trkpt lat="50.597805920988321" lon="13.528491295874119">
        <ele>708</ele>
        <time>2026-08-29T16:41:59Z</time>
      </trkpt>
      <trkpt lat="50.597805669531226" lon="13.528490960597992">
        <ele>708</ele>
        <time>2026-08-29T16:42:00Z</time>
      </trkpt>
      <trkpt lat="50.597805250436068" lon="13.528490709140897">
        <ele>708</ele>
        <time>2026-08-29T16:42:01Z</time>
      </trkpt>
      <trkpt lat="50.597806172445416" lon="13.528485596179962">
        <ele>708</ele>
        <time>2026-08-29T16:42:02Z</time>
      </trkpt>
      <trkpt lat="50.597811369225383" lon="13.528489200398326">
        <ele>707</ele>
        <time>2026-08-29T16:42:03Z</time>
      </trkpt>
      <trkpt lat="50.597811872139573" lon="13.528489284217358">
        <ele>707</ele>
        <time>2026-08-29T16:42:04Z</time>
      </trkpt>
      <trkpt lat="50.597808603197336" lon="13.528498169034719">
        <ele>707</ele>
        <time>2026-08-29T16:42:05Z</time>
      </trkpt>
      <trkpt lat="50.5978087708354" lon="13.528497833758593">
        <ele>707</ele>
        <time>2026-08-29T16:42:06Z</time>
      </trkpt>
      <trkpt lat="50.597801981493831" lon="13.528497666120529">
        <ele>707</ele>
        <time>2026-08-29T16:42:07Z</time>
      </trkpt>
      <trkpt lat="50.597801646217704" lon="13.528503030538559">
        <ele>707</ele>
        <time>2026-08-29T16:42:08Z</time>
      </trkpt>
      <trkpt lat="50.597801059484482" lon="13.528512669727206">
        <ele>707</ele>
        <time>2026-08-29T16:42:09Z</time>
      </trkpt>
      <trkpt lat="50.597803154960275" lon="13.528514178469777">
        <ele>707</ele>
        <time>2026-08-29T16:42:10Z</time>
      </trkpt>
      <trkpt lat="50.597804831340909" lon="13.528529182076454">
        <ele>707</ele>
        <time>2026-08-29T16:42:11Z</time>
      </trkpt>
      <trkpt lat="50.597812961786985" lon="13.528547789901495">
        <ele>707</ele>
        <time>2026-08-29T16:42:12Z</time>
      </trkpt>
      <trkpt lat="50.597823020070791" lon="13.528561452403665">
        <ele>707</ele>
        <time>2026-08-29T16:42:13Z</time>
      </trkpt>
      <trkpt lat="50.5978346709162" lon="13.528585089370608">
        <ele>707</ele>
        <time>2026-08-29T16:42:14Z</time>
      </trkpt>
      <trkpt lat="50.597846154123545" lon="13.528606379404664">
        <ele>707</ele>
        <time>2026-08-29T16:42:15Z</time>
      </trkpt>
      <trkpt lat="50.597866103053093" lon="13.528617108240724">
        <ele>707</ele>
        <time>2026-08-29T16:42:16Z</time>
      </trkpt>
      <trkpt lat="50.59788596816361" lon="13.52863890118897">
        <ele>707</ele>
        <time>2026-08-29T16:42:17Z</time>
      </trkpt>
      <trkpt lat="50.597906755283475" lon="13.528658431023359">
        <ele>707</ele>
        <time>2026-08-29T16:42:18Z</time>
      </trkpt>
      <trkpt lat="50.597925530746579" lon="13.528689611703157">
        <ele>707</ele>
        <time>2026-08-29T16:42:19Z</time>
      </trkpt>
      <trkpt lat="50.597946066409349" lon="13.52871073409915">
        <ele>707</ele>
        <time>2026-08-29T16:42:20Z</time>
      </trkpt>
      <trkpt lat="50.597969284281135" lon="13.528723223134875">
        <ele>707</ele>
        <time>2026-08-29T16:42:21Z</time>
      </trkpt>
      <trkpt lat="50.597997196018696" lon="13.528741160407662">
        <ele>706</ele>
        <time>2026-08-29T16:42:22Z</time>
      </trkpt>
      <trkpt lat="50.59802183881402" lon="13.528764043003321">
        <ele>707</ele>
        <time>2026-08-29T16:42:23Z</time>
      </trkpt>
      <trkpt lat="50.598052851855755" lon="13.528792960569263">
        <ele>706</ele>
        <time>2026-08-29T16:42:24Z</time>
      </trkpt>
      <trkpt lat="50.59808730147779" lon="13.528828080743551">
        <ele>706</ele>
        <time>2026-08-29T16:42:25Z</time>
      </trkpt>
      <trkpt lat="50.598111357539892" lon="13.528852974995971">
        <ele>706</ele>
        <time>2026-08-29T16:42:26Z</time>
      </trkpt>
      <trkpt lat="50.598144382238388" lon="13.52888273075223">
        <ele>706</ele>
        <time>2026-08-29T16:42:27Z</time>
      </trkpt>
      <trkpt lat="50.598177909851074" lon="13.52890620008111">
        <ele>706</ele>
        <time>2026-08-29T16:42:28Z</time>
      </trkpt>
      <trkpt lat="50.598215712234378" lon="13.528922963887453">
        <ele>706</ele>
        <time>2026-08-29T16:42:29Z</time>
      </trkpt>
      <trkpt lat="50.598251922056079" lon="13.528951378539205">
        <ele>706</ele>
        <time>2026-08-29T16:42:30Z</time>
      </trkpt>
      <trkpt lat="50.59828469529748" lon="13.528980128467083">
        <ele>706</ele>
        <time>2026-08-29T16:42:31Z</time>
      </trkpt>
      <trkpt lat="50.598312858492136" lon="13.529008459299803">
        <ele>706</ele>
        <time>2026-08-29T16:42:32Z</time>
      </trkpt>
      <trkpt lat="50.59833456762135" lon="13.529036287218332">
        <ele>706</ele>
        <time>2026-08-29T16:42:33Z</time>
      </trkpt>
      <trkpt lat="50.598349822685122" lon="13.529055481776595">
        <ele>707</ele>
        <time>2026-08-29T16:42:34Z</time>
      </trkpt>
      <trkpt lat="50.598364239558578" lon="13.52908356115222">
        <ele>706</ele>
        <time>2026-08-29T16:42:35Z</time>
      </trkpt>
      <trkpt lat="50.598373292014003" lon="13.529121782630682">
        <ele>706</ele>
        <time>2026-08-29T16:42:36Z</time>
      </trkpt>
      <trkpt lat="50.598383098840714" lon="13.529168805107474">
        <ele>706</ele>
        <time>2026-08-29T16:42:37Z</time>
      </trkpt>
      <trkpt lat="50.598390810191631" lon="13.529214402660728">
        <ele>705</ele>
        <time>2026-08-29T16:42:38Z</time>
      </trkpt>
      <trkpt lat="50.598391145467758" lon="13.529246337711811">
        <ele>705</ele>
        <time>2026-08-29T16:42:39Z</time>
      </trkpt>
      <trkpt lat="50.598397850990295" lon="13.529282715171576">
        <ele>705</ele>
        <time>2026-08-29T16:42:40Z</time>
      </trkpt>
      <trkpt lat="50.598415033891797" lon="13.529308615252376">
        <ele>704</ele>
        <time>2026-08-29T16:42:41Z</time>
      </trkpt>
      <trkpt lat="50.598429869860411" lon="13.529321942478418">
        <ele>704</ele>
        <time>2026-08-29T16:42:42Z</time>
      </trkpt>
      <trkpt lat="50.598443700000644" lon="13.529326384887099">
        <ele>704</ele>
        <time>2026-08-29T16:42:43Z</time>
      </trkpt>
      <trkpt lat="50.59846063144505" lon="13.529330575838685">
        <ele>704</ele>
        <time>2026-08-29T16:42:44Z</time>
      </trkpt>
      <trkpt lat="50.598479071632028" lon="13.52932789362967">
        <ele>704</ele>
        <time>2026-08-29T16:42:45Z</time>
      </trkpt>
      <trkpt lat="50.598501618951559" lon="13.529323283582926">
        <ele>704</ele>
        <time>2026-08-29T16:42:46Z</time>
      </trkpt>
      <trkpt lat="50.598531207069755" lon="13.529338119551539">
        <ele>704</ele>
        <time>2026-08-29T16:42:47Z</time>
      </trkpt>
      <trkpt lat="50.598560040816665" lon="13.529352536424994">
        <ele>704</ele>
        <time>2026-08-29T16:42:48Z</time>
      </trkpt>
      <trkpt lat="50.598575798794627" lon="13.52940165437758">
        <ele>704</ele>
        <time>2026-08-29T16:42:49Z</time>
      </trkpt>
      <trkpt lat="50.598594658076763" lon="13.529458483681083">
        <ele>705</ele>
        <time>2026-08-29T16:42:50Z</time>
      </trkpt>
      <trkpt lat="50.598623240366578" lon="13.529504584148526">
        <ele>705</ele>
        <time>2026-08-29T16:42:51Z</time>
      </trkpt>
      <trkpt lat="50.598643189296126" lon="13.529554456472397">
        <ele>705</ele>
        <time>2026-08-29T16:42:52Z</time>
      </trkpt>
      <trkpt lat="50.598666239529848" lon="13.529600305482745">
        <ele>705</ele>
        <time>2026-08-29T16:42:53Z</time>
      </trkpt>
      <trkpt lat="50.598692642524838" lon="13.529653362929821">
        <ele>705</ele>
        <time>2026-08-29T16:42:54Z</time>
      </trkpt>
      <trkpt lat="50.59871762059629" lon="13.529715221375227">
        <ele>705</ele>
        <time>2026-08-29T16:42:55Z</time>
      </trkpt>
      <trkpt lat="50.598739329725504" lon="13.529761657118797">
        <ele>704</ele>
        <time>2026-08-29T16:42:56Z</time>
      </trkpt>
      <trkpt lat="50.598762379959226" lon="13.529808511957526">
        <ele>705</ele>
        <time>2026-08-29T16:42:57Z</time>
      </trkpt>
      <trkpt lat="50.598783502355218" lon="13.529851846396923">
        <ele>704</ele>
        <time>2026-08-29T16:42:58Z</time>
      </trkpt>
      <trkpt lat="50.598802529275417" lon="13.52989518083632">
        <ele>705</ele>
        <time>2026-08-29T16:42:59Z</time>
      </trkpt>
      <trkpt lat="50.598820215091109" lon="13.529943963512778">
        <ele>704</ele>
        <time>2026-08-29T16:43:00Z</time>
      </trkpt>
      <trkpt lat="50.598848210647702" lon="13.529999786987901">
        <ele>704</ele>
        <time>2026-08-29T16:43:01Z</time>
      </trkpt>
      <trkpt lat="50.598872266709805" lon="13.530058208853006">
        <ele>704</ele>
        <time>2026-08-29T16:43:02Z</time>
      </trkpt>
      <trkpt lat="50.598890539258718" lon="13.530105734243989">
        <ele>705</ele>
        <time>2026-08-29T16:43:03Z</time>
      </trkpt>
      <trkpt lat="50.598916187882423" lon="13.530156025663018">
        <ele>704</ele>
        <time>2026-08-29T16:43:04Z</time>
      </trkpt>
      <trkpt lat="50.598927000537515" lon="13.530187457799911">
        <ele>704</ele>
        <time>2026-08-29T16:43:05Z</time>
      </trkpt>
      <trkpt lat="50.598931359127164" lon="13.530209083110094">
        <ele>704</ele>
        <time>2026-08-29T16:43:06Z</time>
      </trkpt>
      <trkpt lat="50.598939992487431" lon="13.530245963484049">
        <ele>704</ele>
        <time>2026-08-29T16:43:07Z</time>
      </trkpt>
      <trkpt lat="50.598935633897781" lon="13.530279155820608">
        <ele>703</ele>
        <time>2026-08-29T16:43:08Z</time>
      </trkpt>
      <trkpt lat="50.598929766565561" lon="13.530333889648318">
        <ele>703</ele>
        <time>2026-08-29T16:43:09Z</time>
      </trkpt>
      <trkpt lat="50.598926832899451" lon="13.53041217662394">
        <ele>703</ele>
        <time>2026-08-29T16:43:10Z</time>
      </trkpt>
      <trkpt lat="50.598928509280086" lon="13.530455259606242">
        <ele>702</ele>
        <time>2026-08-29T16:43:11Z</time>
      </trkpt>
      <trkpt lat="50.598929012194276" lon="13.53051426820457">
        <ele>702</ele>
        <time>2026-08-29T16:43:12Z</time>
      </trkpt>
      <trkpt lat="50.598937980830669" lon="13.530554752796888">
        <ele>702</ele>
        <time>2026-08-29T16:43:13Z</time>
      </trkpt>
      <trkpt lat="50.598933370783925" lon="13.530592638999224">
        <ele>702</ele>
        <time>2026-08-29T16:43:14Z</time>
      </trkpt>
      <trkpt lat="50.598933286964893" lon="13.530632201582193">
        <ele>701</ele>
        <time>2026-08-29T16:43:15Z</time>
      </trkpt>
      <trkpt lat="50.598928341642022" lon="13.530661035329103">
        <ele>701</ele>
        <time>2026-08-29T16:43:16Z</time>
      </trkpt>
      <trkpt lat="50.598923480138183" lon="13.53068970143795">
        <ele>701</ele>
        <time>2026-08-29T16:43:17Z</time>
      </trkpt>
      <trkpt lat="50.598917277529836" lon="13.53069162927568">
        <ele>701</ele>
        <time>2026-08-29T16:43:18Z</time>
      </trkpt>
      <trkpt lat="50.598909398540854" lon="13.530712835490704">
        <ele>702</ele>
        <time>2026-08-29T16:43:19Z</time>
      </trkpt>
      <trkpt lat="50.598906800150871" lon="13.530730772763491">
        <ele>701</ele>
        <time>2026-08-29T16:43:20Z</time>
      </trkpt>
      <trkpt lat="50.598900513723493" lon="13.530760360881686">
        <ele>701</ele>
        <time>2026-08-29T16:43:21Z</time>
      </trkpt>
      <trkpt lat="50.598909230902791" lon="13.530786763876677">
        <ele>701</ele>
        <time>2026-08-29T16:43:22Z</time>
      </trkpt>
      <trkpt lat="50.598905375227332" lon="13.530816016718745">
        <ele>701</ele>
        <time>2026-08-29T16:43:23Z</time>
      </trkpt>
      <trkpt lat="50.598916439339519" lon="13.530870079994202">
        <ele>701</ele>
        <time>2026-08-29T16:43:24Z</time>
      </trkpt>
      <trkpt lat="50.598926832899451" lon="13.530909223482013">
        <ele>701</ele>
        <time>2026-08-29T16:43:25Z</time>
      </trkpt>
      <trkpt lat="50.598928760737181" lon="13.530954401940107">
        <ele>701</ele>
        <time>2026-08-29T16:43:26Z</time>
      </trkpt>
      <trkpt lat="50.598930520936847" lon="13.531005950644612">
        <ele>701</ele>
        <time>2026-08-29T16:43:27Z</time>
      </trkpt>
      <trkpt lat="50.598932532593608" lon="13.531061438843608">
        <ele>701</ele>
        <time>2026-08-29T16:43:28Z</time>
      </trkpt>
      <trkpt lat="50.598935801535845" lon="13.531124135479331">
        <ele>701</ele>
        <time>2026-08-29T16:43:29Z</time>
      </trkpt>
      <trkpt lat="50.598932700231671" lon="13.53117099031806">
        <ele>700</ele>
        <time>2026-08-29T16:43:30Z</time>
      </trkpt>
      <trkpt lat="50.598927838727832" lon="13.531240224838257">
        <ele>700</ele>
        <time>2026-08-29T16:43:31Z</time>
      </trkpt>
      <trkpt lat="50.598918618634343" lon="13.531308621168137">
        <ele>700</ele>
        <time>2026-08-29T16:43:32Z</time>
      </trkpt>
      <trkpt lat="50.598910488188267" lon="13.531354134902358">
        <ele>700</ele>
        <time>2026-08-29T16:43:33Z</time>
      </trkpt>
      <trkpt lat="50.598901771008968" lon="13.53141431696713">
        <ele>700</ele>
        <time>2026-08-29T16:43:34Z</time>
      </trkpt>
      <trkpt lat="50.598892886191607" lon="13.531470643356442">
        <ele>700</ele>
        <time>2026-08-29T16:43:35Z</time>
      </trkpt>
      <trkpt lat="50.59887545183301" lon="13.531543146818876">
        <ele>700</ele>
        <time>2026-08-29T16:43:36Z</time>
      </trkpt>
      <trkpt lat="50.598851479589939" lon="13.531604837626219">
        <ele>699</ele>
        <time>2026-08-29T16:43:37Z</time>
      </trkpt>
      <trkpt lat="50.598825579509139" lon="13.531671138480306">
        <ele>699</ele>
        <time>2026-08-29T16:43:38Z</time>
      </trkpt>
      <trkpt lat="50.598798841238022" lon="13.531727883964777">
        <ele>699</ele>
        <time>2026-08-29T16:43:39Z</time>
      </trkpt>
      <trkpt lat="50.598763804882765" lon="13.531790748238564">
        <ele>699</ele>
        <time>2026-08-29T16:43:40Z</time>
      </trkpt>
      <trkpt lat="50.598728936165571" lon="13.531840620562434">
        <ele>699</ele>
        <time>2026-08-29T16:43:41Z</time>
      </trkpt>
      <trkpt lat="50.598694486543536" lon="13.531880350783467">
        <ele>698</ele>
        <time>2026-08-29T16:43:42Z</time>
      </trkpt>
      <trkpt lat="50.598665066063404" lon="13.531906167045236">
        <ele>697</ele>
        <time>2026-08-29T16:43:43Z</time>
      </trkpt>
      <trkpt lat="50.598632292822003" lon="13.531951010227203">
        <ele>697</ele>
        <time>2026-08-29T16:43:44Z</time>
      </trkpt>
      <trkpt lat="50.598609494045377" lon="13.53198898024857">
        <ele>696</ele>
        <time>2026-08-29T16:43:45Z</time>
      </trkpt>
      <trkpt lat="50.598589712753892" lon="13.53203147649765">
        <ele>696</ele>
        <time>2026-08-29T16:43:46Z</time>
      </trkpt>
      <trkpt lat="50.598566494882107" lon="13.532066429033875">
        <ele>696</ele>
        <time>2026-08-29T16:43:47Z</time>
      </trkpt>
      <trkpt lat="50.598550988361239" lon="13.532090317457914">
        <ele>696</ele>
        <time>2026-08-29T16:43:48Z</time>
      </trkpt>
      <trkpt lat="50.598542019724846" lon="13.532114457339048">
        <ele>696</ele>
        <time>2026-08-29T16:43:49Z</time>
      </trkpt>
      <trkpt lat="50.598528441041708" lon="13.532137256115675">
        <ele>696</ele>
        <time>2026-08-29T16:43:50Z</time>
      </trkpt>
      <trkpt lat="50.598528441041708" lon="13.532147482037544">
        <ele>695</ele>
        <time>2026-08-29T16:43:51Z</time>
      </trkpt>
      <trkpt lat="50.598536655306816" lon="13.532149158418179">
        <ele>694</ele>
        <time>2026-08-29T16:43:52Z</time>
      </trkpt>
      <trkpt lat="50.598542522639036" lon="13.532144464552402">
        <ele>694</ele>
        <time>2026-08-29T16:43:53Z</time>
      </trkpt>
      <trkpt lat="50.598552832379937" lon="13.532113032415509">
        <ele>693</ele>
        <time>2026-08-29T16:43:54Z</time>
      </trkpt>
      <trkpt lat="50.598552580922842" lon="13.532104818150401">
        <ele>693</ele>
        <time>2026-08-29T16:43:55Z</time>
      </trkpt>
      <trkpt lat="50.598555346950889" lon="13.532097777351737">
        <ele>693</ele>
        <time>2026-08-29T16:43:56Z</time>
      </trkpt>
      <trkpt lat="50.598559370264411" lon="13.532091658562422">
        <ele>693</ele>
        <time>2026-08-29T16:43:57Z</time>
      </trkpt>
      <trkpt lat="50.598556268960238" lon="13.532092832028866">
        <ele>693</ele>
        <time>2026-08-29T16:43:58Z</time>
      </trkpt>
      <trkpt lat="50.598556101322174" lon="13.532092999666929">
        <ele>693</ele>
        <time>2026-08-29T16:43:59Z</time>
      </trkpt>
      <trkpt lat="50.598555849865079" lon="13.532093334943056">
        <ele>693</ele>
        <time>2026-08-29T16:44:00Z</time>
      </trkpt>
      <trkpt lat="50.598556268960238" lon="13.532092580571771">
        <ele>693</ele>
        <time>2026-08-29T16:44:01Z</time>
      </trkpt>
      <trkpt lat="50.598551742732525" lon="13.532082438468933">
        <ele>693</ele>
        <time>2026-08-29T16:44:02Z</time>
      </trkpt>
      <trkpt lat="50.598560040816665" lon="13.532081851735711">
        <ele>693</ele>
        <time>2026-08-29T16:44:03Z</time>
      </trkpt>
      <trkpt lat="50.598560459911823" lon="13.532084869220853">
        <ele>693</ele>
        <time>2026-08-29T16:44:04Z</time>
      </trkpt>
      <trkpt lat="50.598559873178601" lon="13.532089563086629">
        <ele>694</ele>
        <time>2026-08-29T16:44:05Z</time>
      </trkpt>
      <trkpt lat="50.598563812673092" lon="13.532090066000819">
        <ele>693</ele>
        <time>2026-08-29T16:44:06Z</time>
      </trkpt>
      <trkpt lat="50.598562052473426" lon="13.532084701582789">
        <ele>693</ele>
        <time>2026-08-29T16:44:07Z</time>
      </trkpt>
      <trkpt lat="50.598557777702808" lon="13.532092161476612">
        <ele>693</ele>
        <time>2026-08-29T16:44:08Z</time>
      </trkpt>
      <trkpt lat="50.598557777702808" lon="13.532104985788465">
        <ele>693</ele>
        <time>2026-08-29T16:44:09Z</time>
      </trkpt>
      <trkpt lat="50.59855735860765" lon="13.532106159254909">
        <ele>693</ele>
        <time>2026-08-29T16:44:10Z</time>
      </trkpt>
      <trkpt lat="50.598557190969586" lon="13.532101716846228">
        <ele>692</ele>
        <time>2026-08-29T16:44:11Z</time>
      </trkpt>
      <trkpt lat="50.598554341122508" lon="13.532100711017847">
        <ele>692</ele>
        <time>2026-08-29T16:44:12Z</time>
      </trkpt>
      <trkpt lat="50.598550653085113" lon="13.532099034637213">
        <ele>692</ele>
        <time>2026-08-29T16:44:13Z</time>
      </trkpt>
      <trkpt lat="50.598542941734195" lon="13.532102638855577">
        <ele>692</ele>
        <time>2026-08-29T16:44:14Z</time>
      </trkpt>
      <trkpt lat="50.598535230383277" lon="13.532104147598147">
        <ele>692</ele>
        <time>2026-08-29T16:44:15Z</time>
      </trkpt>
      <trkpt lat="50.598531123250723" lon="13.532121749594808">
        <ele>692</ele>
        <time>2026-08-29T16:44:16Z</time>
      </trkpt>
      <trkpt lat="50.598529782146215" lon="13.532152594998479">
        <ele>692</ele>
        <time>2026-08-29T16:44:17Z</time>
      </trkpt>
      <trkpt lat="50.598532380536199" lon="13.532192073762417">
        <ele>691</ele>
        <time>2026-08-29T16:44:18Z</time>
      </trkpt>
      <trkpt lat="50.598527938127518" lon="13.532233564183116">
        <ele>691</ele>
        <time>2026-08-29T16:44:19Z</time>
      </trkpt>
      <trkpt lat="50.598513353615999" lon="13.532268516719341">
        <ele>690</ele>
        <time>2026-08-29T16:44:20Z</time>
      </trkpt>
      <trkpt lat="50.598492650315166" lon="13.532306402921677">
        <ele>690</ele>
        <time>2026-08-29T16:44:21Z</time>
      </trkpt>
      <trkpt lat="50.598467923700809" lon="13.532360550016165">
        <ele>689</ele>
        <time>2026-08-29T16:44:22Z</time>
      </trkpt>
      <trkpt lat="50.598452668637037" lon="13.532410338521004">
        <ele>689</ele>
        <time>2026-08-29T16:44:23Z</time>
      </trkpt>
      <trkpt lat="50.598435066640377" lon="13.532458366826177">
        <ele>689</ele>
        <time>2026-08-29T16:44:24Z</time>
      </trkpt>
      <trkpt lat="50.598414363339543" lon="13.532510083168745">
        <ele>689</ele>
        <time>2026-08-29T16:44:25Z</time>
      </trkpt>
      <trkpt lat="50.598398186266422" lon="13.532577222213149">
        <ele>688</ele>
        <time>2026-08-29T16:44:26Z</time>
      </trkpt>
      <trkpt lat="50.598389133810997" lon="13.532630698755383">
        <ele>688</ele>
        <time>2026-08-29T16:44:27Z</time>
      </trkpt>
      <trkpt lat="50.598374716937542" lon="13.532679984346032">
        <ele>687</ele>
        <time>2026-08-29T16:44:28Z</time>
      </trkpt>
      <trkpt lat="50.598359880968928" lon="13.53272583335638">
        <ele>687</ele>
        <time>2026-08-29T16:44:29Z</time>
      </trkpt>
      <trkpt lat="50.598352085798979" lon="13.53277076035738">
        <ele>686</ele>
        <time>2026-08-29T16:44:30Z</time>
      </trkpt>
      <trkpt lat="50.598342195153236" lon="13.532814932987094">
        <ele>686</ele>
        <time>2026-08-29T16:44:31Z</time>
      </trkpt>
      <trkpt lat="50.59832819737494" lon="13.532869415357709">
        <ele>686</ele>
        <time>2026-08-29T16:44:32Z</time>
      </trkpt>
      <trkpt lat="50.598314199596643" lon="13.532927837222815">
        <ele>686</ele>
        <time>2026-08-29T16:44:33Z</time>
      </trkpt>
      <trkpt lat="50.598306404426694" lon="13.532987851649523">
        <ele>686</ele>
        <time>2026-08-29T16:44:34Z</time>
      </trkpt>
      <trkpt lat="50.598301710560918" lon="13.533046524971724">
        <ele>686</ele>
        <time>2026-08-29T16:44:35Z</time>
      </trkpt>
      <trkpt lat="50.598300956189632" lon="13.533099833875895">
        <ele>685</ele>
        <time>2026-08-29T16:44:36Z</time>
      </trkpt>
      <trkpt lat="50.598301962018013" lon="13.533142246305943">
        <ele>685</ele>
        <time>2026-08-29T16:44:37Z</time>
      </trkpt>
      <trkpt lat="50.598309757187963" lon="13.533194130286574">
        <ele>685</ele>
        <time>2026-08-29T16:44:38Z</time>
      </trkpt>
      <trkpt lat="50.598310008645058" lon="13.533282894641161">
        <ele>685</ele>
        <time>2026-08-29T16:44:39Z</time>
      </trkpt>
      <trkpt lat="50.598326688632369" lon="13.53333855047822">
        <ele>685</ele>
        <time>2026-08-29T16:44:40Z</time>
      </trkpt>
      <trkpt lat="50.598352001979947" lon="13.533393954858184">
        <ele>684</ele>
        <time>2026-08-29T16:44:41Z</time>
      </trkpt>
      <trkpt lat="50.598373878747225" lon="13.533431757241488">
        <ele>684</ele>
        <time>2026-08-29T16:44:42Z</time>
      </trkpt>
      <trkpt lat="50.598399695008993" lon="13.53347291238606">
        <ele>684</ele>
        <time>2026-08-29T16:44:43Z</time>
      </trkpt>
      <trkpt lat="50.598427522927523" lon="13.533507948741317">
        <ele>684</ele>
        <time>2026-08-29T16:44:44Z</time>
      </trkpt>
      <trkpt lat="50.598452500998974" lon="13.533554971218109">
        <ele>685</ele>
        <time>2026-08-29T16:44:45Z</time>
      </trkpt>
      <trkpt lat="50.598480831831694" lon="13.533576931804419">
        <ele>685</ele>
        <time>2026-08-29T16:44:46Z</time>
      </trkpt>
      <trkpt lat="50.598515197634697" lon="13.533584726974368">
        <ele>685</ele>
        <time>2026-08-29T16:44:47Z</time>
      </trkpt>
      <trkpt lat="50.598545875400305" lon="13.533615404739976">
        <ele>684</ele>
        <time>2026-08-29T16:44:48Z</time>
      </trkpt>
      <trkpt lat="50.598578900098801" lon="13.533650860190392">
        <ele>684</ele>
        <time>2026-08-29T16:44:49Z</time>
      </trkpt>
      <trkpt lat="50.598612679168582" lon="13.533685812726617">
        <ele>684</ele>
        <time>2026-08-29T16:44:50Z</time>
      </trkpt>
      <trkpt lat="50.59865266084671" lon="13.533723196014762">
        <ele>683</ele>
        <time>2026-08-29T16:44:51Z</time>
      </trkpt>
      <trkpt lat="50.598693313077092" lon="13.533782288432121">
        <ele>684</ele>
        <time>2026-08-29T16:44:52Z</time>
      </trkpt>
      <trkpt lat="50.598721727728844" lon="13.533849511295557">
        <ele>684</ele>
        <time>2026-08-29T16:44:53Z</time>
      </trkpt>
      <trkpt lat="50.59874108992517" lon="13.533895360305905">
        <ele>683</ele>
        <time>2026-08-29T16:44:54Z</time>
      </trkpt>
      <trkpt lat="50.598751902580261" lon="13.533951016142964">
        <ele>684</ele>
        <time>2026-08-29T16:44:55Z</time>
      </trkpt>
      <trkpt lat="50.598764726892114" lon="13.533995188772678">
        <ele>684</ele>
        <time>2026-08-29T16:44:56Z</time>
      </trkpt>
      <trkpt lat="50.59878408908844" lon="13.534048497676849">
        <ele>683</ele>
        <time>2026-08-29T16:44:57Z</time>
      </trkpt>
      <trkpt lat="50.598820047453046" lon="13.534100130200386">
        <ele>683</ele>
        <time>2026-08-29T16:44:58Z</time>
      </trkpt>
      <trkpt lat="50.598876038566232" lon="13.534197947010398">
        <ele>683</ele>
        <time>2026-08-29T16:44:59Z</time>
      </trkpt>
      <trkpt lat="50.598903950303793" lon="13.534234240651131">
        <ele>683</ele>
        <time>2026-08-29T16:45:00Z</time>
      </trkpt>
      <trkpt lat="50.598921971395612" lon="13.534268187358975">
        <ele>683</ele>
        <time>2026-08-29T16:45:01Z</time>
      </trkpt>
      <trkpt lat="50.598943512886763" lon="13.534291321411729">
        <ele>683</ele>
        <time>2026-08-29T16:45:02Z</time>
      </trkpt>
      <trkpt lat="50.598961785435677" lon="13.534304648637772">
        <ele>683</ele>
        <time>2026-08-29T16:45:03Z</time>
      </trkpt>
      <trkpt lat="50.598980979993939" lon="13.534308588132262">
        <ele>682</ele>
        <time>2026-08-29T16:45:04Z</time>
      </trkpt>
      <trkpt lat="50.598999168723822" lon="13.534330045804381">
        <ele>683</ele>
        <time>2026-08-29T16:45:05Z</time>
      </trkpt>
      <trkpt lat="50.599008807912469" lon="13.534344546496868">
        <ele>683</ele>
        <time>2026-08-29T16:45:06Z</time>
      </trkpt>
      <trkpt lat="50.599022721871734" lon="13.534364411607385">
        <ele>683</ele>
        <time>2026-08-29T16:45:07Z</time>
      </trkpt>
      <trkpt lat="50.599032277241349" lon="13.534404560923576">
        <ele>683</ele>
        <time>2026-08-29T16:45:08Z</time>
      </trkpt>
      <trkpt lat="50.59904451481998" lon="13.534451751038432">
        <ele>682</ele>
        <time>2026-08-29T16:45:09Z</time>
      </trkpt>
      <trkpt lat="50.599061530083418" lon="13.534487374126911">
        <ele>682</ele>
        <time>2026-08-29T16:45:10Z</time>
      </trkpt>
      <trkpt lat="50.599072258919477" lon="13.534512771293521">
        <ele>682</ele>
        <time>2026-08-29T16:45:11Z</time>
      </trkpt>
      <trkpt lat="50.599083071574569" lon="13.534533558413386">
        <ele>683</ele>
        <time>2026-08-29T16:45:12Z</time>
      </trkpt>
      <trkpt lat="50.599098159000278" lon="13.534553423523903">
        <ele>682</ele>
        <time>2026-08-29T16:45:13Z</time>
      </trkpt>
      <trkpt lat="50.599110228940845" lon="13.534570941701531">
        <ele>682</ele>
        <time>2026-08-29T16:45:14Z</time>
      </trkpt>
      <trkpt lat="50.599120371043682" lon="13.53459139354527">
        <ele>683</ele>
        <time>2026-08-29T16:45:15Z</time>
      </trkpt>
      <trkpt lat="50.599138978868723" lon="13.534605223685503">
        <ele>683</ele>
        <time>2026-08-29T16:45:16Z</time>
      </trkpt>
      <trkpt lat="50.59915347956121" lon="13.534617209807038">
        <ele>683</ele>
        <time>2026-08-29T16:45:17Z</time>
      </trkpt>
      <trkpt lat="50.599167058244348" lon="13.534633973613381">
        <ele>683</ele>
        <time>2026-08-29T16:45:18Z</time>
      </trkpt>
      <trkpt lat="50.599182480946183" lon="13.534652916714549">
        <ele>683</ele>
        <time>2026-08-29T16:45:19Z</time>
      </trkpt>
      <trkpt lat="50.59920335188508" lon="13.534690216183662">
        <ele>683</ele>
        <time>2026-08-29T16:45:20Z</time>
      </trkpt>
      <trkpt lat="50.599225647747517" lon="13.534736316651106">
        <ele>682</ele>
        <time>2026-08-29T16:45:21Z</time>
      </trkpt>
      <trkpt lat="50.599244590848684" lon="13.534774538129568">
        <ele>682</ele>
        <time>2026-08-29T16:45:22Z</time>
      </trkpt>
      <trkpt lat="50.599273424595594" lon="13.534817034378648">
        <ele>682</ele>
        <time>2026-08-29T16:45:23Z</time>
      </trkpt>
      <trkpt lat="50.599302928894758" lon="13.534879814833403">
        <ele>682</ele>
        <time>2026-08-29T16:45:24Z</time>
      </trkpt>
      <trkpt lat="50.599324470385909" lon="13.534928513690829">
        <ele>682</ele>
        <time>2026-08-29T16:45:25Z</time>
      </trkpt>
      <trkpt lat="50.599348777905107" lon="13.534967824816704">
        <ele>681</ele>
        <time>2026-08-29T16:45:26Z</time>
      </trkpt>
      <trkpt lat="50.599386831745505" lon="13.535005124285817">
        <ele>682</ele>
        <time>2026-08-29T16:45:27Z</time>
      </trkpt>
      <trkpt lat="50.599418180063367" lon="13.535036388784647">
        <ele>682</ele>
        <time>2026-08-29T16:45:28Z</time>
      </trkpt>
      <trkpt lat="50.599453970789909" lon="13.535077795386314">
        <ele>682</ele>
        <time>2026-08-29T16:45:29Z</time>
      </trkpt>
      <trkpt lat="50.599485402926803" lon="13.535134792327881">
        <ele>682</ele>
        <time>2026-08-29T16:45:30Z</time>
      </trkpt>
      <trkpt lat="50.599511554464698" lon="13.535209558904171">
        <ele>682</ele>
        <time>2026-08-29T16:45:31Z</time>
      </trkpt>
      <trkpt lat="50.599554218351841" lon="13.53526521474123">
        <ele>682</ele>
        <time>2026-08-29T16:45:32Z</time>
      </trkpt>
      <trkpt lat="50.599588667973876" lon="13.535342160612345">
        <ele>682</ele>
        <time>2026-08-29T16:45:33Z</time>
      </trkpt>
      <trkpt lat="50.599629739299417" lon="13.535416424274445">
        <ele>682</ele>
        <time>2026-08-29T16:45:34Z</time>
      </trkpt>
      <trkpt lat="50.599665027111769" lon="13.535491274669766">
        <ele>682</ele>
        <time>2026-08-29T16:45:35Z</time>
      </trkpt>
      <trkpt lat="50.599697548896074" lon="13.535585906356573">
        <ele>682</ele>
        <time>2026-08-29T16:45:36Z</time>
      </trkpt>
      <trkpt lat="50.599726047366858" lon="13.535667294636369">
        <ele>682</ele>
        <time>2026-08-29T16:45:37Z</time>
      </trkpt>
      <trkpt lat="50.59975303709507" lon="13.535729739814997">
        <ele>682</ele>
        <time>2026-08-29T16:45:38Z</time>
      </trkpt>
      <trkpt lat="50.599773488938808" lon="13.535794951021671">
        <ele>682</ele>
        <time>2026-08-29T16:45:39Z</time>
      </trkpt>
      <trkpt lat="50.599799975752831" lon="13.535837111994624">
        <ele>681</ele>
        <time>2026-08-29T16:45:40Z</time>
      </trkpt>
      <trkpt lat="50.599814560264349" lon="13.535883883014321">
        <ele>681</ele>
        <time>2026-08-29T16:45:41Z</time>
      </trkpt>
      <trkpt lat="50.599824115633965" lon="13.535926211625338">
        <ele>680</ele>
        <time>2026-08-29T16:45:42Z</time>
      </trkpt>
      <trkpt lat="50.599818918853998" lon="13.535968456417322">
        <ele>680</ele>
        <time>2026-08-29T16:45:43Z</time>
      </trkpt>
      <trkpt lat="50.599818918853998" lon="13.53600550442934">
        <ele>679</ele>
        <time>2026-08-29T16:45:44Z</time>
      </trkpt>
      <trkpt lat="50.599814560264349" lon="13.536022854968905">
        <ele>679</ele>
        <time>2026-08-29T16:45:45Z</time>
      </trkpt>
      <trkpt lat="50.599819757044315" lon="13.536035260185599">
        <ele>679</ele>
        <time>2026-08-29T16:45:46Z</time>
      </trkpt>
      <trkpt lat="50.599816488102078" lon="13.536035344004631">
        <ele>678</ele>
        <time>2026-08-29T16:45:47Z</time>
      </trkpt>
      <trkpt lat="50.599814644083381" lon="13.536029309034348">
        <ele>677</ele>
        <time>2026-08-29T16:45:48Z</time>
      </trkpt>
      <trkpt lat="50.59981120750308" lon="13.536035679280758">
        <ele>677</ele>
        <time>2026-08-29T16:45:49Z</time>
      </trkpt>
      <trkpt lat="50.599809195846319" lon="13.536037523299456">
        <ele>676</ele>
        <time>2026-08-29T16:45:50Z</time>
      </trkpt>
      <trkpt lat="50.599807854741812" lon="13.536037858575583">
        <ele>674</ele>
        <time>2026-08-29T16:45:51Z</time>
      </trkpt>
      <trkpt lat="50.599802238866687" lon="13.536022519692779">
        <ele>673</ele>
        <time>2026-08-29T16:45:52Z</time>
      </trkpt>
      <trkpt lat="50.599799640476704" lon="13.536011539399624">
        <ele>672</ele>
        <time>2026-08-29T16:45:53Z</time>
      </trkpt>
      <trkpt lat="50.599800059571862" lon="13.536018580198288">
        <ele>672</ele>
        <time>2026-08-29T16:45:54Z</time>
      </trkpt>
      <trkpt lat="50.599800813943148" lon="13.536046072840691">
        <ele>672</ele>
        <time>2026-08-29T16:45:55Z</time>
      </trkpt>
      <trkpt lat="50.599798131734133" lon="13.536085300147533">
        <ele>671</ele>
        <time>2026-08-29T16:45:56Z</time>
      </trkpt>
      <trkpt lat="50.59979846701026" lon="13.536132322624326">
        <ele>671</ele>
        <time>2026-08-29T16:45:57Z</time>
      </trkpt>
      <trkpt lat="50.599801065400243" lon="13.536164090037346">
        <ele>670</ele>
        <time>2026-08-29T16:45:58Z</time>
      </trkpt>
      <trkpt lat="50.59980140067637" lon="13.53619166649878">
        <ele>670</ele>
        <time>2026-08-29T16:45:59Z</time>
      </trkpt>
      <trkpt lat="50.599802238866687" lon="13.536240616813302">
        <ele>669</ele>
        <time>2026-08-29T16:46:00Z</time>
      </trkpt>
      <trkpt lat="50.599806681275368" lon="13.536297446116805">
        <ele>669</ele>
        <time>2026-08-29T16:46:01Z</time>
      </trkpt>
      <trkpt lat="50.59978966601193" lon="13.536384198814631">
        <ele>668</ele>
        <time>2026-08-29T16:46:02Z</time>
      </trkpt>
      <trkpt lat="50.599783714860678" lon="13.536464581266046">
        <ele>668</ele>
        <time>2026-08-29T16:46:03Z</time>
      </trkpt>
      <trkpt lat="50.599773153662682" lon="13.536572875455022">
        <ele>667</ele>
        <time>2026-08-29T16:46:04Z</time>
      </trkpt>
      <trkpt lat="50.599764017388225" lon="13.536651246249676">
        <ele>666</ele>
        <time>2026-08-29T16:46:05Z</time>
      </trkpt>
      <trkpt lat="50.599764520302415" lon="13.536721402779222">
        <ele>666</ele>
        <time>2026-08-29T16:46:06Z</time>
      </trkpt>
      <trkpt lat="50.599760161712766" lon="13.536778148263693">
        <ele>665</ele>
        <time>2026-08-29T16:46:07Z</time>
      </trkpt>
      <trkpt lat="50.599759910255671" lon="13.536827685311437">
        <ele>665</ele>
        <time>2026-08-29T16:46:08Z</time>
      </trkpt>
      <trkpt lat="50.599753707647324" lon="13.536894908174872">
        <ele>665</ele>
        <time>2026-08-29T16:46:09Z</time>
      </trkpt>
      <trkpt lat="50.59974524192512" lon="13.53702231310308">
        <ele>663</ele>
        <time>2026-08-29T16:46:10Z</time>
      </trkpt>
      <trkpt lat="50.599754629656672" lon="13.537071347236633">
        <ele>663</ele>
        <time>2026-08-29T16:46:11Z</time>
      </trkpt>
      <trkpt lat="50.599759742617607" lon="13.537119291722775">
        <ele>663</ele>
        <time>2026-08-29T16:46:12Z</time>
      </trkpt>
      <trkpt lat="50.599765190854669" lon="13.537185927852988">
        <ele>663</ele>
        <time>2026-08-29T16:46:13Z</time>
      </trkpt>
      <trkpt lat="50.599771309643984" lon="13.5372544080019">
        <ele>662</ele>
        <time>2026-08-29T16:46:14Z</time>
      </trkpt>
      <trkpt lat="50.599774327129126" lon="13.537324899807572">
        <ele>662</ele>
        <time>2026-08-29T16:46:15Z</time>
      </trkpt>
      <trkpt lat="50.59977114200592" lon="13.53741860948503">
        <ele>662</ele>
        <time>2026-08-29T16:46:16Z</time>
      </trkpt>
      <trkpt lat="50.599767118692398" lon="13.537508379667997">
        <ele>660</ele>
        <time>2026-08-29T16:46:17Z</time>
      </trkpt>
      <trkpt lat="50.599763849750161" lon="13.537563364952803">
        <ele>660</ele>
        <time>2026-08-29T16:46:18Z</time>
      </trkpt>
      <trkpt lat="50.599760999903083" lon="13.537605945020914">
        <ele>660</ele>
        <time>2026-08-29T16:46:19Z</time>
      </trkpt>
      <trkpt lat="50.599765190854669" lon="13.53764240629971">
        <ele>660</ele>
        <time>2026-08-29T16:46:20Z</time>
      </trkpt>
      <trkpt lat="50.599781954661012" lon="13.537641568109393">
        <ele>659</ele>
        <time>2026-08-29T16:46:21Z</time>
      </trkpt>
      <trkpt lat="50.599797880277038" lon="13.537660678848624">
        <ele>659</ele>
        <time>2026-08-29T16:46:22Z</time>
      </trkpt>
      <trkpt lat="50.599828641861677" lon="13.537689764052629">
        <ele>659</ele>
        <time>2026-08-29T16:46:23Z</time>
      </trkpt>
      <trkpt lat="50.599873652681708" lon="13.537693619728088">
        <ele>659</ele>
        <time>2026-08-29T16:46:24Z</time>
      </trkpt>
      <trkpt lat="50.599920256063342" lon="13.537702420726418">
        <ele>658</ele>
        <time>2026-08-29T16:46:25Z</time>
      </trkpt>
      <trkpt lat="50.599977420642972" lon="13.537688590586185">
        <ele>658</ele>
        <time>2026-08-29T16:46:26Z</time>
      </trkpt>
      <trkpt lat="50.600040787830949" lon="13.537672078236938">
        <ele>658</ele>
        <time>2026-08-29T16:46:27Z</time>
      </trkpt>
      <trkpt lat="50.600102478638291" lon="13.537675263360143">
        <ele>657</ele>
        <time>2026-08-29T16:46:28Z</time>
      </trkpt>
      <trkpt lat="50.600154781714082" lon="13.537671072408557">
        <ele>657</ele>
        <time>2026-08-29T16:46:29Z</time>
      </trkpt>
      <trkpt lat="50.600204821676016" lon="13.537685656920075">
        <ele>656</ele>
        <time>2026-08-29T16:46:30Z</time>
      </trkpt>
      <trkpt lat="50.600258717313409" lon="13.53771566413343">
        <ele>656</ele>
        <time>2026-08-29T16:46:31Z</time>
      </trkpt>
      <trkpt lat="50.600305488333106" lon="13.537759585306048">
        <ele>656</ele>
        <time>2026-08-29T16:46:32Z</time>
      </trkpt>
      <trkpt lat="50.600340021774173" lon="13.537770146504045">
        <ele>655</ele>
        <time>2026-08-29T16:46:33Z</time>
      </trkpt>
      <trkpt lat="50.600362485274673" lon="13.537784731015563">
        <ele>655</ele>
        <time>2026-08-29T16:46:34Z</time>
      </trkpt>
      <trkpt lat="50.600385954603553" lon="13.53780610486865">
        <ele>655</ele>
        <time>2026-08-29T16:46:35Z</time>
      </trkpt>
      <trkpt lat="50.600414369255304" lon="13.537829406559467">
        <ele>655</ele>
        <time>2026-08-29T16:46:36Z</time>
      </trkpt>
      <trkpt lat="50.600440269336104" lon="13.537860000506043">
        <ele>654</ele>
        <time>2026-08-29T16:46:37Z</time>
      </trkpt>
      <trkpt lat="50.600467678159475" lon="13.537876093760133">
        <ele>654</ele>
        <time>2026-08-29T16:46:38Z</time>
      </trkpt>
      <trkpt lat="50.600488465279341" lon="13.537902999669313">
        <ele>654</ele>
        <time>2026-08-29T16:46:39Z</time>
      </trkpt>
      <trkpt lat="50.600508749485016" lon="13.537940131500363">
        <ele>654</ele>
        <time>2026-08-29T16:46:40Z</time>
      </trkpt>
      <trkpt lat="50.600532554090023" lon="13.537981370463967">
        <ele>654</ele>
        <time>2026-08-29T16:46:41Z</time>
      </trkpt>
      <trkpt lat="50.600553508847952" lon="13.538013724610209">
        <ele>653</ele>
        <time>2026-08-29T16:46:42Z</time>
      </trkpt>
      <trkpt lat="50.600578067824244" lon="13.538050185889006">
        <ele>653</ele>
        <time>2026-08-29T16:46:43Z</time>
      </trkpt>
      <trkpt lat="50.600597094744444" lon="13.538091592490673">
        <ele>653</ele>
        <time>2026-08-29T16:46:44Z</time>
      </trkpt>
      <trkpt lat="50.60061545111239" lon="13.538125036284328">
        <ele>653</ele>
        <time>2026-08-29T16:46:45Z</time>
      </trkpt>
      <trkpt lat="50.60063598677516" lon="13.538164179772139">
        <ele>653</ele>
        <time>2026-08-29T16:46:46Z</time>
      </trkpt>
      <trkpt lat="50.600677561014891" lon="13.538217740133405">
        <ele>652</ele>
        <time>2026-08-29T16:46:47Z</time>
      </trkpt>
      <trkpt lat="50.600702622905374" lon="13.538274150341749">
        <ele>652</ele>
        <time>2026-08-29T16:46:48Z</time>
      </trkpt>
      <trkpt lat="50.60072734951973" lon="13.538326872512698">
        <ele>652</ele>
        <time>2026-08-29T16:46:49Z</time>
      </trkpt>
      <trkpt lat="50.60075324960053" lon="13.538384959101677">
        <ele>652</ele>
        <time>2026-08-29T16:46:50Z</time>
      </trkpt>
      <trkpt lat="50.600788788869977" lon="13.538422761484981">
        <ele>652</ele>
        <time>2026-08-29T16:46:51Z</time>
      </trkpt>
      <trkpt lat="50.600825920701027" lon="13.538477411493659">
        <ele>651</ele>
        <time>2026-08-29T16:46:52Z</time>
      </trkpt>
      <trkpt lat="50.600848970934749" lon="13.538514459505677">
        <ele>651</ele>
        <time>2026-08-29T16:46:53Z</time>
      </trkpt>
      <trkpt lat="50.600879648700356" lon="13.538557207211852">
        <ele>651</ele>
        <time>2026-08-29T16:46:54Z</time>
      </trkpt>
      <trkpt lat="50.600908901542425" lon="13.538599032908678">
        <ele>651</ele>
        <time>2026-08-29T16:46:55Z</time>
      </trkpt>
      <trkpt lat="50.60092625208199" lon="13.538637841120362">
        <ele>651</ele>
        <time>2026-08-29T16:46:56Z</time>
      </trkpt>
      <trkpt lat="50.600947542116046" lon="13.538687461987138">
        <ele>650</ele>
        <time>2026-08-29T16:46:57Z</time>
      </trkpt>
      <trkpt lat="50.60098291374743" lon="13.538732388988137">
        <ele>649</ele>
        <time>2026-08-29T16:46:58Z</time>
      </trkpt>
      <trkpt lat="50.601041670888662" lon="13.538808999583125">
        <ele>648</ele>
        <time>2026-08-29T16:46:59Z</time>
      </trkpt>
      <trkpt lat="50.601085508242249" lon="13.538859877735376">
        <ele>648</ele>
        <time>2026-08-29T16:47:00Z</time>
      </trkpt>
      <trkpt lat="50.601122388616204" lon="13.538913857191801">
        <ele>647</ele>
        <time>2026-08-29T16:47:01Z</time>
      </trkpt>
      <trkpt lat="50.601160190999508" lon="13.538965154439211">
        <ele>647</ele>
        <time>2026-08-29T16:47:02Z</time>
      </trkpt>
      <trkpt lat="50.601215092465281" lon="13.539021480828524">
        <ele>647</ele>
        <time>2026-08-29T16:47:03Z</time>
      </trkpt>
      <trkpt lat="50.601238729432225" lon="13.539045285433531">
        <ele>645</ele>
        <time>2026-08-29T16:47:04Z</time>
      </trkpt>
      <trkpt lat="50.60126437805593" lon="13.539078561589122">
        <ele>644</ele>
        <time>2026-08-29T16:47:05Z</time>
      </trkpt>
      <trkpt lat="50.60128633864224" lon="13.539123488590121">
        <ele>644</ele>
        <time>2026-08-29T16:47:06Z</time>
      </trkpt>
      <trkpt lat="50.601323051378131" lon="13.539167158305645">
        <ele>644</ele>
        <time>2026-08-29T16:47:07Z</time>
      </trkpt>
      <trkpt lat="50.601370828226209" lon="13.53921627625823">
        <ele>642</ele>
        <time>2026-08-29T16:47:08Z</time>
      </trkpt>
      <trkpt lat="50.601411983370781" lon="13.539259526878595">
        <ele>641</ele>
        <time>2026-08-29T16:47:09Z</time>
      </trkpt>
      <trkpt lat="50.601463699713349" lon="13.53929984383285">
        <ele>641</ele>
        <time>2026-08-29T16:47:10Z</time>
      </trkpt>
      <trkpt lat="50.601505357772112" lon="13.539340747520328">
        <ele>639</ele>
        <time>2026-08-29T16:47:11Z</time>
      </trkpt>
      <trkpt lat="50.601539639756083" lon="13.539378801360726">
        <ele>639</ele>
        <time>2026-08-29T16:47:12Z</time>
      </trkpt>
      <trkpt lat="50.601561181247234" lon="13.539411155506968">
        <ele>639</ele>
        <time>2026-08-29T16:47:13Z</time>
      </trkpt>
      <trkpt lat="50.601573083549738" lon="13.539442252367735">
        <ele>639</ele>
        <time>2026-08-29T16:47:14Z</time>
      </trkpt>
      <trkpt lat="50.601598480716348" lon="13.539482150226831">
        <ele>639</ele>
        <time>2026-08-29T16:47:15Z</time>
      </trkpt>
      <trkpt lat="50.60162203386426" lon="13.539506206288934">
        <ele>639</ele>
        <time>2026-08-29T16:47:16Z</time>
      </trkpt>
      <trkpt lat="50.601659249514341" lon="13.539551133289933">
        <ele>638</ele>
        <time>2026-08-29T16:47:17Z</time>
      </trkpt>
      <trkpt lat="50.601690430194139" lon="13.539587762206793">
        <ele>638</ele>
        <time>2026-08-29T16:47:18Z</time>
      </trkpt>
      <trkpt lat="50.60171783901751" lon="13.539618188515306">
        <ele>638</ele>
        <time>2026-08-29T16:47:19Z</time>
      </trkpt>
      <trkpt lat="50.60174516402185" lon="13.539653224870563">
        <ele>638</ele>
        <time>2026-08-29T16:47:20Z</time>
      </trkpt>
      <trkpt lat="50.601765532046556" lon="13.539682477712631">
        <ele>638</ele>
        <time>2026-08-29T16:47:21Z</time>
      </trkpt>
      <trkpt lat="50.601797131821513" lon="13.539715586230159">
        <ele>637</ele>
        <time>2026-08-29T16:47:22Z</time>
      </trkpt>
      <trkpt lat="50.601816829293966" lon="13.539760345593095">
        <ele>637</ele>
        <time>2026-08-29T16:47:23Z</time>
      </trkpt>
      <trkpt lat="50.601838873699307" lon="13.53979580104351">
        <ele>637</ele>
        <time>2026-08-29T16:47:24Z</time>
      </trkpt>
      <trkpt lat="50.601865192875266" lon="13.539835279807448">
        <ele>637</ele>
        <time>2026-08-29T16:47:25Z</time>
      </trkpt>
      <trkpt lat="50.601886231452227" lon="13.539879955351353">
        <ele>638</ele>
        <time>2026-08-29T16:47:26Z</time>
      </trkpt>
      <trkpt lat="50.601898720487952" lon="13.539955643936992">
        <ele>637</ele>
        <time>2026-08-29T16:47:27Z</time>
      </trkpt>
      <trkpt lat="50.601909952238202" lon="13.540025884285569">
        <ele>637</ele>
        <time>2026-08-29T16:47:28Z</time>
      </trkpt>
      <trkpt lat="50.601919842883945" lon="13.540106853470206">
        <ele>637</ele>
        <time>2026-08-29T16:47:29Z</time>
      </trkpt>
      <trkpt lat="50.601955214515328" lon="13.54019645601511">
        <ele>638</ele>
        <time>2026-08-29T16:47:30Z</time>
      </trkpt>
      <trkpt lat="50.601987149566412" lon="13.540279353037477">
        <ele>637</ele>
        <time>2026-08-29T16:47:31Z</time>
      </trkpt>
      <trkpt lat="50.602015312761068" lon="13.540354035794735">
        <ele>638</ele>
        <time>2026-08-29T16:47:32Z</time>
      </trkpt>
      <trkpt lat="50.602028891444206" lon="13.540433663874865">
        <ele>637</ele>
        <time>2026-08-29T16:47:33Z</time>
      </trkpt>
      <trkpt lat="50.602057389914989" lon="13.540516057983041">
        <ele>636</ele>
        <time>2026-08-29T16:47:34Z</time>
      </trkpt>
      <trkpt lat="50.60207893140614" lon="13.540579844266176">
        <ele>637</ele>
        <time>2026-08-29T16:47:35Z</time>
      </trkpt>
      <trkpt lat="50.602105082944036" lon="13.540653856471181">
        <ele>637</ele>
        <time>2026-08-29T16:47:36Z</time>
      </trkpt>
      <trkpt lat="50.602139951661229" lon="13.540716553106904">
        <ele>637</ele>
        <time>2026-08-29T16:47:37Z</time>
      </trkpt>
      <trkpt lat="50.602163085713983" lon="13.540788637474179">
        <ele>638</ele>
        <time>2026-08-29T16:47:38Z</time>
      </trkpt>
      <trkpt lat="50.602192841470242" lon="13.540887041017413">
        <ele>637</ele>
        <time>2026-08-29T16:47:39Z</time>
      </trkpt>
      <trkpt lat="50.60222159139812" lon="13.540966752916574">
        <ele>636</ele>
        <time>2026-08-29T16:47:40Z</time>
      </trkpt>
      <trkpt lat="50.602258555591106" lon="13.541031880304217">
        <ele>635</ele>
        <time>2026-08-29T16:47:41Z</time>
      </trkpt>
      <trkpt lat="50.602291664108634" lon="13.541095750406384">
        <ele>634</ele>
        <time>2026-08-29T16:47:42Z</time>
      </trkpt>
      <trkpt lat="50.60231295414269" lon="13.541153501719236">
        <ele>634</ele>
        <time>2026-08-29T16:47:43Z</time>
      </trkpt>
      <trkpt lat="50.602331310510635" lon="13.54122357442975">
        <ele>634</ele>
        <time>2026-08-29T16:47:44Z</time>
      </trkpt>
      <trkpt lat="50.602357210591435" lon="13.541280068457127">
        <ele>635</ele>
        <time>2026-08-29T16:47:45Z</time>
      </trkpt>
      <trkpt lat="50.602382523939013" lon="13.541350979357958">
        <ele>636</ele>
        <time>2026-08-29T16:47:46Z</time>
      </trkpt>
      <trkpt lat="50.602419739589095" lon="13.541437396779656">
        <ele>635</ele>
        <time>2026-08-29T16:47:47Z</time>
      </trkpt>
      <trkpt lat="50.602443041279912" lon="13.541499087586999">
        <ele>635</ele>
        <time>2026-08-29T16:47:48Z</time>
      </trkpt>
      <trkpt lat="50.602471958845854" lon="13.541556000709534">
        <ele>635</ele>
        <time>2026-08-29T16:47:49Z</time>
      </trkpt>
      <trkpt lat="50.602508168667555" lon="13.541607297956944">
        <ele>634</ele>
        <time>2026-08-29T16:47:50Z</time>
      </trkpt>
      <trkpt lat="50.602546222507954" lon="13.541641747578979">
        <ele>634</ele>
        <time>2026-08-29T16:47:51Z</time>
      </trkpt>
      <trkpt lat="50.602596765384078" lon="13.541662367060781">
        <ele>634</ele>
        <time>2026-08-29T16:47:52Z</time>
      </trkpt>
      <trkpt lat="50.602651331573725" lon="13.541689608246088">
        <ele>633</ele>
        <time>2026-08-29T16:47:53Z</time>
      </trkpt>
      <trkpt lat="50.602693241089582" lon="13.541707713156939">
        <ele>633</ele>
        <time>2026-08-29T16:47:54Z</time>
      </trkpt>
      <trkpt lat="50.602744454517961" lon="13.541729422286153">
        <ele>634</ele>
        <time>2026-08-29T16:47:55Z</time>
      </trkpt>
      <trkpt lat="50.602786028757691" lon="13.541734283789992">
        <ele>633</ele>
        <time>2026-08-29T16:47:56Z</time>
      </trkpt>
      <trkpt lat="50.602826261892915" lon="13.54173663072288">
        <ele>633</ele>
        <time>2026-08-29T16:47:57Z</time>
      </trkpt>
      <trkpt lat="50.602858364582062" lon="13.541754484176636">
        <ele>633</ele>
        <time>2026-08-29T16:47:58Z</time>
      </trkpt>
      <trkpt lat="50.602888371795416" lon="13.541766386479139">
        <ele>633</ele>
        <time>2026-08-29T16:47:59Z</time>
      </trkpt>
      <trkpt lat="50.60291888192296" lon="13.541768230497837">
        <ele>632</ele>
        <time>2026-08-29T16:48:00Z</time>
      </trkpt>
      <trkpt lat="50.602946458384395" lon="13.541767727583647">
        <ele>632</ele>
        <time>2026-08-29T16:48:01Z</time>
      </trkpt>
      <trkpt lat="50.602978141978383" lon="13.541764710098505">
        <ele>632</ele>
        <time>2026-08-29T16:48:02Z</time>
      </trkpt>
      <trkpt lat="50.603008484467864" lon="13.541766051203012">
        <ele>632</ele>
        <time>2026-08-29T16:48:03Z</time>
      </trkpt>
      <trkpt lat="50.603039329871535" lon="13.541762111708522">
        <ele>631</ele>
        <time>2026-08-29T16:48:04Z</time>
      </trkpt>
      <trkpt lat="50.603065146133304" lon="13.541752221062779">
        <ele>631</ele>
        <time>2026-08-29T16:48:05Z</time>
      </trkpt>
      <trkpt lat="50.603086017072201" lon="13.541744174435735">
        <ele>631</ele>
        <time>2026-08-29T16:48:06Z</time>
      </trkpt>
      <trkpt lat="50.603104289621115" lon="13.541733613237739">
        <ele>631</ele>
        <time>2026-08-29T16:48:07Z</time>
      </trkpt>
      <trkpt lat="50.603115353733301" lon="13.541741240769625">
        <ele>631</ele>
        <time>2026-08-29T16:48:08Z</time>
      </trkpt>
      <trkpt lat="50.603120466694236" lon="13.541752807796001">
        <ele>630</ele>
        <time>2026-08-29T16:48:09Z</time>
      </trkpt>
      <trkpt lat="50.60311384499073" lon="13.541751466691494">
        <ele>631</ele>
        <time>2026-08-29T16:48:10Z</time>
      </trkpt>
      <trkpt lat="50.603102277964354" lon="13.541745180264115">
        <ele>630</ele>
        <time>2026-08-29T16:48:11Z</time>
      </trkpt>
      <trkpt lat="50.6031016074121" lon="13.541744677349925">
        <ele>630</ele>
        <time>2026-08-29T16:48:12Z</time>
      </trkpt>
      <trkpt lat="50.603089286014438" lon="13.541767476126552">
        <ele>630</ele>
        <time>2026-08-29T16:48:13Z</time>
      </trkpt>
      <trkpt lat="50.603069420903921" lon="13.541775606572628">
        <ele>628</ele>
        <time>2026-08-29T16:48:14Z</time>
      </trkpt>
      <trkpt lat="50.603069337084889" lon="13.541775271296501">
        <ele>628</ele>
        <time>2026-08-29T16:48:15Z</time>
      </trkpt>
      <trkpt lat="50.603057518601418" lon="13.541775271296501">
        <ele>629</ele>
        <time>2026-08-29T16:48:16Z</time>
      </trkpt>
      <trkpt lat="50.603054082021117" lon="13.541768230497837">
        <ele>629</ele>
        <time>2026-08-29T16:48:17Z</time>
      </trkpt>
      <trkpt lat="50.603053830564022" lon="13.541768649592996">
        <ele>629</ele>
        <time>2026-08-29T16:48:18Z</time>
      </trkpt>
      <trkpt lat="50.603053411468863" lon="13.541768733412027">
        <ele>629</ele>
        <time>2026-08-29T16:48:19Z</time>
      </trkpt>
      <trkpt lat="50.603052908554673" lon="13.541768733412027">
        <ele>629</ele>
        <time>2026-08-29T16:48:20Z</time>
      </trkpt>
      <trkpt lat="50.60305274091661" lon="13.541768817231059">
        <ele>629</ele>
        <time>2026-08-29T16:48:21Z</time>
      </trkpt>
      <trkpt lat="50.603052489459515" lon="13.541769236326218">
        <ele>629</ele>
        <time>2026-08-29T16:48:22Z</time>
      </trkpt>
      <trkpt lat="50.603044275194407" lon="13.541774852201343">
        <ele>630</ele>
        <time>2026-08-29T16:48:23Z</time>
      </trkpt>
      <trkpt lat="50.603043772280216" lon="13.541775774210691">
        <ele>630</ele>
        <time>2026-08-29T16:48:24Z</time>
      </trkpt>
      <trkpt lat="50.603043772280216" lon="13.541776109486818">
        <ele>630</ele>
        <time>2026-08-29T16:48:25Z</time>
      </trkpt>
      <trkpt lat="50.60304393991828" lon="13.541776612401009">
        <ele>630</ele>
        <time>2026-08-29T16:48:26Z</time>
      </trkpt>
      <trkpt lat="50.603044191375375" lon="13.541777282953262">
        <ele>630</ele>
        <time>2026-08-29T16:48:27Z</time>
      </trkpt>
      <trkpt lat="50.603044191375375" lon="13.541777115315199">
        <ele>630</ele>
        <time>2026-08-29T16:48:28Z</time>
      </trkpt>
      <trkpt lat="50.603044107556343" lon="13.541776947677135">
        <ele>630</ele>
        <time>2026-08-29T16:48:29Z</time>
      </trkpt>
      <trkpt lat="50.60304444283247" lon="13.541776863858104">
        <ele>630</ele>
        <time>2026-08-29T16:48:30Z</time>
      </trkpt>
      <trkpt lat="50.603044778108597" lon="13.54177669622004">
        <ele>630</ele>
        <time>2026-08-29T16:48:31Z</time>
      </trkpt>
      <trkpt lat="50.603045029565692" lon="13.541776528581977">
        <ele>630</ele>
        <time>2026-08-29T16:48:32Z</time>
      </trkpt>
      <trkpt lat="50.603040419518948" lon="13.541776444762945">
        <ele>630</ele>
        <time>2026-08-29T16:48:33Z</time>
      </trkpt>
      <trkpt lat="50.603040587157011" lon="13.54177619330585">
        <ele>630</ele>
        <time>2026-08-29T16:48:34Z</time>
      </trkpt>
      <trkpt lat="50.603039916604757" lon="13.541775774210691">
        <ele>630</ele>
        <time>2026-08-29T16:48:35Z</time>
      </trkpt>
      <trkpt lat="50.603039665147662" lon="13.541775355115533">
        <ele>630</ele>
        <time>2026-08-29T16:48:36Z</time>
      </trkpt>
      <trkpt lat="50.603039329871535" lon="13.541775187477469">
        <ele>630</ele>
        <time>2026-08-29T16:48:37Z</time>
      </trkpt>
      <trkpt lat="50.603039246052504" lon="13.541774936020374">
        <ele>630</ele>
        <time>2026-08-29T16:48:38Z</time>
      </trkpt>
      <trkpt lat="50.603038156405091" lon="13.541773092001677">
        <ele>630</ele>
        <time>2026-08-29T16:48:39Z</time>
      </trkpt>
      <trkpt lat="50.60303807258606" lon="13.541773008182645">
        <ele>630</ele>
        <time>2026-08-29T16:48:40Z</time>
      </trkpt>
      <trkpt lat="50.60303807258606" lon="13.541773343458772">
        <ele>630</ele>
        <time>2026-08-29T16:48:41Z</time>
      </trkpt>
      <trkpt lat="50.60303807258606" lon="13.54177376255393">
        <ele>630</ele>
        <time>2026-08-29T16:48:42Z</time>
      </trkpt>
      <trkpt lat="50.603038156405091" lon="13.541774014011025">
        <ele>630</ele>
        <time>2026-08-29T16:48:43Z</time>
      </trkpt>
      <trkpt lat="50.603037569671869" lon="13.541772589087486">
        <ele>631</ele>
        <time>2026-08-29T16:48:44Z</time>
      </trkpt>
      <trkpt lat="50.603037402033806" lon="13.541777199134231">
        <ele>630</ele>
        <time>2026-08-29T16:48:45Z</time>
      </trkpt>
      <trkpt lat="50.603035893291235" lon="13.541777115315199">
        <ele>630</ele>
        <time>2026-08-29T16:48:46Z</time>
      </trkpt>
      <trkpt lat="50.603029858320951" lon="13.541778707876801">
        <ele>628</ele>
        <time>2026-08-29T16:48:47Z</time>
      </trkpt>
      <trkpt lat="50.603029523044825" lon="13.541778372600675">
        <ele>628</ele>
        <time>2026-08-29T16:48:48Z</time>
      </trkpt>
      <trkpt lat="50.603034049272537" lon="13.54177569039166">
        <ele>628</ele>
        <time>2026-08-29T16:48:49Z</time>
      </trkpt>
      <trkpt lat="50.603043269366026" lon="13.541772672906518">
        <ele>628</ele>
        <time>2026-08-29T16:48:50Z</time>
      </trkpt>
      <trkpt lat="50.603048969060183" lon="13.541769068688154">
        <ele>628</ele>
        <time>2026-08-29T16:48:51Z</time>
      </trkpt>
      <trkpt lat="50.603066738694906" lon="13.541769906878471">
        <ele>628</ele>
        <time>2026-08-29T16:48:52Z</time>
      </trkpt>
      <trkpt lat="50.603087609633803" lon="13.54177032597363">
        <ele>627</ele>
        <time>2026-08-29T16:48:53Z</time>
      </trkpt>
      <trkpt lat="50.603107390925288" lon="13.541768062859774">
        <ele>628</ele>
        <time>2026-08-29T16:48:54Z</time>
      </trkpt>
      <trkpt lat="50.603124741464853" lon="13.541754148900509">
        <ele>628</ele>
        <time>2026-08-29T16:48:55Z</time>
      </trkpt>
      <trkpt lat="50.603149300441146" lon="13.5417424980551">
        <ele>627</ele>
        <time>2026-08-29T16:48:56Z</time>
      </trkpt>
      <trkpt lat="50.603176457807422" lon="13.54171609506011">
        <ele>627</ele>
        <time>2026-08-29T16:48:57Z</time>
      </trkpt>
      <trkpt lat="50.603199088945985" lon="13.54169849306345">
        <ele>627</ele>
        <time>2026-08-29T16:48:58Z</time>
      </trkpt>
      <trkpt lat="50.603224318474531" lon="13.541673431172967">
        <ele>626</ele>
        <time>2026-08-29T16:48:59Z</time>
      </trkpt>
      <trkpt lat="50.603246698155999" lon="13.541647531092167">
        <ele>627</ele>
        <time>2026-08-29T16:49:00Z</time>
      </trkpt>
      <trkpt lat="50.603263629600406" lon="13.541621128097177">
        <ele>627</ele>
        <time>2026-08-29T16:49:01Z</time>
      </trkpt>
      <trkpt lat="50.603290619328618" lon="13.541602101176977">
        <ele>626</ele>
        <time>2026-08-29T16:49:02Z</time>
      </trkpt>
      <trkpt lat="50.603309730067849" lon="13.541585672646761">
        <ele>625</ele>
        <time>2026-08-29T16:49:03Z</time>
      </trkpt>
      <trkpt lat="50.603335462510586" lon="13.541567903012037">
        <ele>625</ele>
        <time>2026-08-29T16:49:04Z</time>
      </trkpt>
      <trkpt lat="50.603367397561669" lon="13.541550720110536">
        <ele>624</ele>
        <time>2026-08-29T16:49:05Z</time>
      </trkpt>
      <trkpt lat="50.603403775021434" lon="13.541533537209034">
        <ele>624</ele>
        <time>2026-08-29T16:49:06Z</time>
      </trkpt>
      <trkpt lat="50.603441828861833" lon="13.541500512510538">
        <ele>623</ele>
        <time>2026-08-29T16:49:07Z</time>
      </trkpt>
      <trkpt lat="50.603478541597724" lon="13.541468661278486">
        <ele>623</ele>
        <time>2026-08-29T16:49:08Z</time>
      </trkpt>
      <trkpt lat="50.603519612923265" lon="13.541439911350608">
        <ele>623</ele>
        <time>2026-08-29T16:49:09Z</time>
      </trkpt>
      <trkpt lat="50.603560097515583" lon="13.541404791176319">
        <ele>623</ele>
        <time>2026-08-29T16:49:10Z</time>
      </trkpt>
      <trkpt lat="50.603601085022092" lon="13.541373023763299">
        <ele>622</ele>
        <time>2026-08-29T16:49:11Z</time>
      </trkpt>
      <trkpt lat="50.603649029508233" lon="13.541347710415721">
        <ele>622</ele>
        <time>2026-08-29T16:49:12Z</time>
      </trkpt>
      <trkpt lat="50.60370409861207" lon="13.541296916082501">
        <ele>620</ele>
        <time>2026-08-29T16:49:13Z</time>
      </trkpt>
      <trkpt lat="50.60375589877367" lon="13.541248301044106">
        <ele>620</ele>
        <time>2026-08-29T16:49:14Z</time>
      </trkpt>
      <trkpt lat="50.603804094716907" lon="13.541198931634426">
        <ele>620</ele>
        <time>2026-08-29T16:49:15Z</time>
      </trkpt>
      <trkpt lat="50.603850530460477" lon="13.541180239990354">
        <ele>620</ele>
        <time>2026-08-29T16:49:16Z</time>
      </trkpt>
      <trkpt lat="50.603890847414732" lon="13.541161213070154">
        <ele>620</ele>
        <time>2026-08-29T16:49:17Z</time>
      </trkpt>
      <trkpt lat="50.603931918740273" lon="13.54115467518568">
        <ele>620</ele>
        <time>2026-08-29T16:49:18Z</time>
      </trkpt>
      <trkpt lat="50.603983970358968" lon="13.541156183928251">
        <ele>621</ele>
        <time>2026-08-29T16:49:19Z</time>
      </trkpt>
      <trkpt lat="50.60403149574995" lon="13.541173785924911">
        <ele>621</ele>
        <time>2026-08-29T16:49:20Z</time>
      </trkpt>
      <trkpt lat="50.604065107181668" lon="13.541225669905543">
        <ele>621</ele>
        <time>2026-08-29T16:49:21Z</time>
      </trkpt>
      <trkpt lat="50.604095701128244" lon="13.541300520300865">
        <ele>620</ele>
        <time>2026-08-29T16:49:22Z</time>
      </trkpt>
      <trkpt lat="50.604113219305873" lon="13.541378555819392">
        <ele>620</ele>
        <time>2026-08-29T16:49:23Z</time>
      </trkpt>
      <trkpt lat="50.604121349751949" lon="13.541464637964964">
        <ele>620</ele>
        <time>2026-08-29T16:49:24Z</time>
      </trkpt>
      <trkpt lat="50.604123948141932" lon="13.54155046865344">
        <ele>619</ele>
        <time>2026-08-29T16:49:25Z</time>
      </trkpt>
      <trkpt lat="50.604120008647442" lon="13.541621463373303">
        <ele>619</ele>
        <time>2026-08-29T16:49:26Z</time>
      </trkpt>
      <trkpt lat="50.604128390550613" lon="13.541691452264786">
        <ele>618</ele>
        <time>2026-08-29T16:49:27Z</time>
      </trkpt>
      <trkpt lat="50.604118080809712" lon="13.541724644601345">
        <ele>618</ele>
        <time>2026-08-29T16:49:28Z</time>
      </trkpt>
      <trkpt lat="50.604108273983002" lon="13.541775606572628">
        <ele>617</ele>
        <time>2026-08-29T16:49:29Z</time>
      </trkpt>
      <trkpt lat="50.604100981727242" lon="13.541847104206681">
        <ele>617</ele>
        <time>2026-08-29T16:49:30Z</time>
      </trkpt>
      <trkpt lat="50.604077260941267" lon="13.541910303756595">
        <ele>616</ele>
        <time>2026-08-29T16:49:31Z</time>
      </trkpt>
      <trkpt lat="50.604069717228413" lon="13.541954224929214">
        <ele>616</ele>
        <time>2026-08-29T16:49:32Z</time>
      </trkpt>
      <trkpt lat="50.604076841846108" lon="13.542001415044069">
        <ele>616</ele>
        <time>2026-08-29T16:49:33Z</time>
      </trkpt>
      <trkpt lat="50.604080613702536" lon="13.542058579623699">
        <ele>615</ele>
        <time>2026-08-29T16:49:34Z</time>
      </trkpt>
      <trkpt lat="50.604080948978662" lon="13.542124629020691">
        <ele>615</ele>
        <time>2026-08-29T16:49:35Z</time>
      </trkpt>
      <trkpt lat="50.604088827967644" lon="13.542184559628367">
        <ele>615</ele>
        <time>2026-08-29T16:49:36Z</time>
      </trkpt>
      <trkpt lat="50.604102993384004" lon="13.542237784713507">
        <ele>615</ele>
        <time>2026-08-29T16:49:37Z</time>
      </trkpt>
      <trkpt lat="50.604111207649112" lon="13.54228874668479">
        <ele>614</ele>
        <time>2026-08-29T16:49:38Z</time>
      </trkpt>
      <trkpt lat="50.604113219305873" lon="13.542327303439379">
        <ele>614</ele>
        <time>2026-08-29T16:49:39Z</time>
      </trkpt>
      <trkpt lat="50.60411062091589" lon="13.542375583201647">
        <ele>614</ele>
        <time>2026-08-29T16:49:40Z</time>
      </trkpt>
      <trkpt lat="50.604114728048444" lon="13.542429562658072">
        <ele>614</ele>
        <time>2026-08-29T16:49:41Z</time>
      </trkpt>
      <trkpt lat="50.604121349751949" lon="13.542485134676099">
        <ele>614</ele>
        <time>2026-08-29T16:49:42Z</time>
      </trkpt>
      <trkpt lat="50.604135012254119" lon="13.542539784684777">
        <ele>614</ele>
        <time>2026-08-29T16:49:43Z</time>
      </trkpt>
      <trkpt lat="50.604144735261798" lon="13.542589237913489">
        <ele>614</ele>
        <time>2026-08-29T16:49:44Z</time>
      </trkpt>
      <trkpt lat="50.604151859879494" lon="13.542634081095457">
        <ele>614</ele>
        <time>2026-08-29T16:49:45Z</time>
      </trkpt>
      <trkpt lat="50.604165187105536" lon="13.542688144370914">
        <ele>614</ele>
        <time>2026-08-29T16:49:46Z</time>
      </trkpt>
      <trkpt lat="50.604176251217723" lon="13.542744051665068">
        <ele>614</ele>
        <time>2026-08-29T16:49:47Z</time>
      </trkpt>
      <trkpt lat="50.604183711111546" lon="13.542793923988938">
        <ele>614</ele>
        <time>2026-08-29T16:49:48Z</time>
      </trkpt>
      <trkpt lat="50.604189578443766" lon="13.542853686958551">
        <ele>613</ele>
        <time>2026-08-29T16:49:49Z</time>
      </trkpt>
      <trkpt lat="50.604198379442096" lon="13.542913617566228">
        <ele>613</ele>
        <time>2026-08-29T16:49:50Z</time>
      </trkpt>
      <trkpt lat="50.604197960346937" lon="13.542976146563888">
        <ele>613</ele>
        <time>2026-08-29T16:49:51Z</time>
      </trkpt>
      <trkpt lat="50.604202151298523" lon="13.543041441589594">
        <ele>613</ele>
        <time>2026-08-29T16:49:52Z</time>
      </trkpt>
      <trkpt lat="50.604210449382663" lon="13.543106401339173">
        <ele>613</ele>
        <time>2026-08-29T16:49:53Z</time>
      </trkpt>
      <trkpt lat="50.604215813800693" lon="13.54316976852715">
        <ele>613</ele>
        <time>2026-08-29T16:49:54Z</time>
      </trkpt>
      <trkpt lat="50.604223860427737" lon="13.543228190392256">
        <ele>613</ele>
        <time>2026-08-29T16:49:55Z</time>
      </trkpt>
      <trkpt lat="50.604221597313881" lon="13.543285941705108">
        <ele>613</ele>
        <time>2026-08-29T16:49:56Z</time>
      </trkpt>
      <trkpt lat="50.604226123541594" lon="13.543349392712116">
        <ele>613</ele>
        <time>2026-08-29T16:49:57Z</time>
      </trkpt>
      <trkpt lat="50.604233918711543" lon="13.543411754071712">
        <ele>613</ele>
        <time>2026-08-29T16:49:58Z</time>
      </trkpt>
      <trkpt lat="50.604241630062461" lon="13.54347025975585">
        <ele>613</ele>
        <time>2026-08-29T16:49:59Z</time>
      </trkpt>
      <trkpt lat="50.60424355790019" lon="13.543519042432308">
        <ele>613</ele>
        <time>2026-08-29T16:50:00Z</time>
      </trkpt>
      <trkpt lat="50.604244731366634" lon="13.543577464297414">
        <ele>613</ele>
        <time>2026-08-29T16:50:01Z</time>
      </trkpt>
      <trkpt lat="50.604244479909539" lon="13.543626917526126">
        <ele>613</ele>
        <time>2026-08-29T16:50:02Z</time>
      </trkpt>
      <trkpt lat="50.604245737195015" lon="13.543679052963853">
        <ele>613</ele>
        <time>2026-08-29T16:50:03Z</time>
      </trkpt>
      <trkpt lat="50.60425235889852" lon="13.54372045956552">
        <ele>613</ele>
        <time>2026-08-29T16:50:04Z</time>
      </trkpt>
      <trkpt lat="50.604257890954614" lon="13.543758681043983">
        <ele>613</ele>
        <time>2026-08-29T16:50:05Z</time>
      </trkpt>
      <trkpt lat="50.604261830449104" lon="13.543773852288723">
        <ele>614</ele>
        <time>2026-08-29T16:50:06Z</time>
      </trkpt>
      <trkpt lat="50.604260908439755" lon="13.543793465942144">
        <ele>614</ele>
        <time>2026-08-29T16:50:07Z</time>
      </trkpt>
      <trkpt lat="50.604256382212043" lon="13.543827580288053">
        <ele>614</ele>
        <time>2026-08-29T16:50:08Z</time>
      </trkpt>
      <trkpt lat="50.604256130754948" lon="13.543869154527783">
        <ele>614</ele>
        <time>2026-08-29T16:50:09Z</time>
      </trkpt>
      <trkpt lat="50.604251520708203" lon="13.543925145640969">
        <ele>614</ele>
        <time>2026-08-29T16:50:10Z</time>
      </trkpt>
      <trkpt lat="50.604237942025065" lon="13.543988596647978">
        <ele>614</ele>
        <time>2026-08-29T16:50:11Z</time>
      </trkpt>
      <trkpt lat="50.60422939248383" lon="13.544042911380529">
        <ele>614</ele>
        <time>2026-08-29T16:50:12Z</time>
      </trkpt>
      <trkpt lat="50.604214807972312" lon="13.544092532247305">
        <ele>614</ele>
        <time>2026-08-29T16:50:13Z</time>
      </trkpt>
      <trkpt lat="50.604206509888172" lon="13.544149780645967">
        <ele>614</ele>
        <time>2026-08-29T16:50:14Z</time>
      </trkpt>
      <trkpt lat="50.604189746081829" lon="13.544223876670003">
        <ele>614</ele>
        <time>2026-08-29T16:50:15Z</time>
      </trkpt>
      <trkpt lat="50.604178095236421" lon="13.544288836419582">
        <ele>614</ele>
        <time>2026-08-29T16:50:16Z</time>
      </trkpt>
      <trkpt lat="50.604161582887173" lon="13.54436444118619">
        <ele>614</ele>
        <time>2026-08-29T16:50:17Z</time>
      </trkpt>
      <trkpt lat="50.604145489633083" lon="13.54442847892642">
        <ele>614</ele>
        <time>2026-08-29T16:50:18Z</time>
      </trkpt>
      <trkpt lat="50.604127049446106" lon="13.544514896348119">
        <ele>614</ele>
        <time>2026-08-29T16:50:19Z</time>
      </trkpt>
      <trkpt lat="50.604100646451116" lon="13.544595194980502">
        <ele>613</ele>
        <time>2026-08-29T16:50:20Z</time>
      </trkpt>
      <trkpt lat="50.604076590389013" lon="13.54471530765295">
        <ele>613</ele>
        <time>2026-08-29T16:50:21Z</time>
      </trkpt>
      <trkpt lat="50.604041973128915" lon="13.544806083664298">
        <ele>612</ele>
        <time>2026-08-29T16:50:22Z</time>
      </trkpt>
      <trkpt lat="50.604018839076161" lon="13.544881856068969">
        <ele>612</ele>
        <time>2026-08-29T16:50:23Z</time>
      </trkpt>
      <trkpt lat="50.604016492143273" lon="13.544937428086996">
        <ele>613</ele>
        <time>2026-08-29T16:50:24Z</time>
      </trkpt>
      <trkpt lat="50.604010540992022" lon="13.54496793821454">
        <ele>613</ele>
        <time>2026-08-29T16:50:25Z</time>
      </trkpt>
      <trkpt lat="50.603992938995361" lon="13.544992078095675">
        <ele>612</ele>
        <time>2026-08-29T16:50:26Z</time>
      </trkpt>
      <trkpt lat="50.60397919267416" lon="13.5450045671314">
        <ele>612</ele>
        <time>2026-08-29T16:50:27Z</time>
      </trkpt>
      <trkpt lat="50.603964859619737" lon="13.545032646507025">
        <ele>612</ele>
        <time>2026-08-29T16:50:28Z</time>
      </trkpt>
      <trkpt lat="50.603966200724244" lon="13.545067263767123">
        <ele>611</ele>
        <time>2026-08-29T16:50:29Z</time>
      </trkpt>
      <trkpt lat="50.603961339220405" lon="13.54509299620986">
        <ele>611</ele>
        <time>2026-08-29T16:50:30Z</time>
      </trkpt>
      <trkpt lat="50.603954046964645" lon="13.545116800814867">
        <ele>610</ele>
        <time>2026-08-29T16:50:31Z</time>
      </trkpt>
      <trkpt lat="50.603948682546616" lon="13.545132223516703">
        <ele>610</ele>
        <time>2026-08-29T16:50:32Z</time>
      </trkpt>
      <trkpt lat="50.603942312300205" lon="13.545142952352762">
        <ele>611</ele>
        <time>2026-08-29T16:50:33Z</time>
      </trkpt>
      <trkpt lat="50.60394206084311" lon="13.545141443610191">
        <ele>611</ele>
        <time>2026-08-29T16:50:34Z</time>
      </trkpt>
      <trkpt lat="50.60394206084311" lon="13.545141611248255">
        <ele>611</ele>
        <time>2026-08-29T16:50:35Z</time>
      </trkpt>
      <trkpt lat="50.60394206084311" lon="13.545141024515033">
        <ele>611</ele>
        <time>2026-08-29T16:50:36Z</time>
      </trkpt>
      <trkpt lat="50.603942228481174" lon="13.545139767229557">
        <ele>611</ele>
        <time>2026-08-29T16:50:37Z</time>
      </trkpt>
      <trkpt lat="50.603941977024078" lon="13.545140018686652">
        <ele>611</ele>
        <time>2026-08-29T16:50:38Z</time>
      </trkpt>
      <trkpt lat="50.603941809386015" lon="13.545140270143747">
        <ele>611</ele>
        <time>2026-08-29T16:50:39Z</time>
      </trkpt>
      <trkpt lat="50.603941306471825" lon="13.545140353962779">
        <ele>611</ele>
        <time>2026-08-29T16:50:40Z</time>
      </trkpt>
      <trkpt lat="50.603929068893194" lon="13.545161727815866">
        <ele>611</ele>
        <time>2026-08-29T16:50:41Z</time>
      </trkpt>
      <trkpt lat="50.603928482159972" lon="13.545166170224547">
        <ele>610</ele>
        <time>2026-08-29T16:50:42Z</time>
      </trkpt>
      <trkpt lat="50.603919178247452" lon="13.54516533203423">
        <ele>610</ele>
        <time>2026-08-29T16:50:43Z</time>
      </trkpt>
      <trkpt lat="50.603919513523579" lon="13.545164661481977">
        <ele>610</ele>
        <time>2026-08-29T16:50:44Z</time>
      </trkpt>
      <trkpt lat="50.603909539058805" lon="13.545165164396167">
        <ele>608</ele>
        <time>2026-08-29T16:50:45Z</time>
      </trkpt>
      <trkpt lat="50.603909706696868" lon="13.545165834948421">
        <ele>608</ele>
        <time>2026-08-29T16:50:46Z</time>
      </trkpt>
      <trkpt lat="50.603911969810724" lon="13.54515703395009">
        <ele>608</ele>
        <time>2026-08-29T16:50:47Z</time>
      </trkpt>
      <trkpt lat="50.603908197954297" lon="13.54515066370368">
        <ele>608</ele>
        <time>2026-08-29T16:50:48Z</time>
      </trkpt>
      <trkpt lat="50.603894200176001" lon="13.545145550742745">
        <ele>608</ele>
        <time>2026-08-29T16:50:49Z</time>
      </trkpt>
      <trkpt lat="50.603895960375667" lon="13.545160219073296">
        <ele>609</ele>
        <time>2026-08-29T16:50:50Z</time>
      </trkpt>
      <trkpt lat="50.603896798565984" lon="13.545168600976467">
        <ele>610</ele>
        <time>2026-08-29T16:50:51Z</time>
      </trkpt>
      <trkpt lat="50.603905180469155" lon="13.545180335640907">
        <ele>610</ele>
        <time>2026-08-29T16:50:52Z</time>
      </trkpt>
      <trkpt lat="50.603909958153963" lon="13.545186286792159">
        <ele>610</ele>
        <time>2026-08-29T16:50:53Z</time>
      </trkpt>
      <trkpt lat="50.60390492901206" lon="13.545198775827885">
        <ele>610</ele>
        <time>2026-08-29T16:50:54Z</time>
      </trkpt>
      <trkpt lat="50.603889171034098" lon="13.545221155509353">
        <ele>609</ele>
        <time>2026-08-29T16:50:55Z</time>
      </trkpt>
      <trkpt lat="50.603872323408723" lon="13.545241607353091">
        <ele>609</ele>
        <time>2026-08-29T16:50:56Z</time>
      </trkpt>
      <trkpt lat="50.603868467733264" lon="13.545244624838233">
        <ele>609</ele>
        <time>2026-08-29T16:50:57Z</time>
      </trkpt>
      <trkpt lat="50.603869138285518" lon="13.545249737799168">
        <ele>610</ele>
        <time>2026-08-29T16:50:58Z</time>
      </trkpt>
      <trkpt lat="50.603869138285518" lon="13.545249570161104">
        <ele>610</ele>
        <time>2026-08-29T16:50:59Z</time>
      </trkpt>
      <trkpt lat="50.603868970647454" lon="13.545249486342072">
        <ele>610</ele>
        <time>2026-08-29T16:51:00Z</time>
      </trkpt>
      <trkpt lat="50.603868719190359" lon="13.545257449150085">
        <ele>610</ele>
        <time>2026-08-29T16:51:01Z</time>
      </trkpt>
      <trkpt lat="50.603870311751962" lon="13.545268010348082">
        <ele>610</ele>
        <time>2026-08-29T16:51:02Z</time>
      </trkpt>
      <trkpt lat="50.603865953162313" lon="13.545271949842572">
        <ele>610</ele>
        <time>2026-08-29T16:51:03Z</time>
      </trkpt>
      <trkpt lat="50.603860169649124" lon="13.545276643708348">
        <ele>610</ele>
        <time>2026-08-29T16:51:04Z</time>
      </trkpt>
      <trkpt lat="50.603854972869158" lon="13.545278571546078">
        <ele>610</ele>
        <time>2026-08-29T16:51:05Z</time>
      </trkpt>
      <trkpt lat="50.60384726151824" lon="13.545278487727046">
        <ele>610</ele>
        <time>2026-08-29T16:51:06Z</time>
      </trkpt>
      <trkpt lat="50.603831587359309" lon="13.545267507433891">
        <ele>610</ele>
        <time>2026-08-29T16:51:07Z</time>
      </trkpt>
      <trkpt lat="50.603829240426421" lon="13.545243954285979">
        <ele>610</ele>
        <time>2026-08-29T16:51:08Z</time>
      </trkpt>
      <trkpt lat="50.603834521025419" lon="13.545222077518702">
        <ele>610</ele>
        <time>2026-08-29T16:51:09Z</time>
      </trkpt>
      <trkpt lat="50.603841729462147" lon="13.545190058648586">
        <ele>611</ele>
        <time>2026-08-29T16:51:10Z</time>
      </trkpt>
      <trkpt lat="50.603845333680511" lon="13.545138593763113">
        <ele>611</ele>
        <time>2026-08-29T16:51:11Z</time>
      </trkpt>
      <trkpt lat="50.603850446641445" lon="13.545083776116371">
        <ele>611</ele>
        <time>2026-08-29T16:51:12Z</time>
      </trkpt>
      <trkpt lat="50.603852458298206" lon="13.545033736154437">
        <ele>611</ele>
        <time>2026-08-29T16:51:13Z</time>
      </trkpt>
      <trkpt lat="50.603853380307555" lon="13.544992497190833">
        <ele>611</ele>
        <time>2026-08-29T16:51:14Z</time>
      </trkpt>
      <trkpt lat="50.603867881000042" lon="13.544950587674975">
        <ele>612</ele>
        <time>2026-08-29T16:51:15Z</time>
      </trkpt>
      <trkpt lat="50.603881292045116" lon="13.544896859675646">
        <ele>612</ele>
        <time>2026-08-29T16:51:16Z</time>
      </trkpt>
      <trkpt lat="50.603887578472495" lon="13.544831983745098">
        <ele>612</ele>
        <time>2026-08-29T16:51:17Z</time>
      </trkpt>
      <trkpt lat="50.603885985910892" lon="13.544753696769476">
        <ele>612</ele>
        <time>2026-08-29T16:51:18Z</time>
      </trkpt>
      <trkpt lat="50.603894535452127" lon="13.544674655422568">
        <ele>612</ele>
        <time>2026-08-29T16:51:19Z</time>
      </trkpt>
      <trkpt lat="50.603901157155633" lon="13.544608522206545">
        <ele>611</ele>
        <time>2026-08-29T16:51:20Z</time>
      </trkpt>
      <trkpt lat="50.603908868506551" lon="13.544540880247951">
        <ele>611</ele>
        <time>2026-08-29T16:51:21Z</time>
      </trkpt>
      <trkpt lat="50.603901576250792" lon="13.544447757303715">
        <ele>611</ele>
        <time>2026-08-29T16:51:22Z</time>
      </trkpt>
      <trkpt lat="50.603895038366318" lon="13.544371398165822">
        <ele>611</ele>
        <time>2026-08-29T16:51:23Z</time>
      </trkpt>
      <trkpt lat="50.603890093043447" lon="13.544287327677011">
        <ele>612</ele>
        <time>2026-08-29T16:51:24Z</time>
      </trkpt>
      <trkpt lat="50.60389906167984" lon="13.544199401512742">
        <ele>613</ele>
        <time>2026-08-29T16:51:25Z</time>
      </trkpt>
      <trkpt lat="50.60390199534595" lon="13.544118851423264">
        <ele>612</ele>
        <time>2026-08-29T16:51:26Z</time>
      </trkpt>
      <trkpt lat="50.603891266509891" lon="13.544042240828276">
        <ele>612</ele>
        <time>2026-08-29T16:51:27Z</time>
      </trkpt>
      <trkpt lat="50.603893948718905" lon="13.543961523100734">
        <ele>612</ele>
        <time>2026-08-29T16:51:28Z</time>
      </trkpt>
      <trkpt lat="50.603896211832762" lon="13.543883990496397">
        <ele>612</ele>
        <time>2026-08-29T16:51:29Z</time>
      </trkpt>
      <trkpt lat="50.603901157155633" lon="13.543795896694064">
        <ele>612</ele>
        <time>2026-08-29T16:51:30Z</time>
      </trkpt>
      <trkpt lat="50.603895373642445" lon="13.543722638860345">
        <ele>612</ele>
        <time>2026-08-29T16:51:31Z</time>
      </trkpt>
      <trkpt lat="50.603866539895535" lon="13.543611830100417">
        <ele>611</ele>
        <time>2026-08-29T16:51:32Z</time>
      </trkpt>
      <trkpt lat="50.603850530460477" lon="13.543530944734812">
        <ele>611</ele>
        <time>2026-08-29T16:51:33Z</time>
      </trkpt>
      <trkpt lat="50.603835443034768" lon="13.543448047712445">
        <ele>611</ele>
        <time>2026-08-29T16:51:34Z</time>
      </trkpt>
      <trkpt lat="50.603827144950628" lon="13.5433588642627">
        <ele>611</ele>
        <time>2026-08-29T16:51:35Z</time>
      </trkpt>
      <trkpt lat="50.603828066959977" lon="13.543277392163873">
        <ele>610</ele>
        <time>2026-08-29T16:51:36Z</time>
      </trkpt>
      <trkpt lat="50.603828318417072" lon="13.543186699971557">
        <ele>610</ele>
        <time>2026-08-29T16:51:37Z</time>
      </trkpt>
      <trkpt lat="50.603834018111229" lon="13.54310723952949">
        <ele>610</ele>
        <time>2026-08-29T16:51:38Z</time>
      </trkpt>
      <trkpt lat="50.603829491883516" lon="13.543001459911466">
        <ele>610</ele>
        <time>2026-08-29T16:51:39Z</time>
      </trkpt>
      <trkpt lat="50.6038164999336" lon="13.542924681678414">
        <ele>610</ele>
        <time>2026-08-29T16:51:40Z</time>
      </trkpt>
      <trkpt lat="50.603799987584352" lon="13.542887968942523">
        <ele>610</ele>
        <time>2026-08-29T16:51:41Z</time>
      </trkpt>
      <trkpt lat="50.603767549619079" lon="13.542843125760555">
        <ele>609</ele>
        <time>2026-08-29T16:51:42Z</time>
      </trkpt>
      <trkpt lat="50.603740476071835" lon="13.542829966172576">
        <ele>609</ele>
        <time>2026-08-29T16:51:43Z</time>
      </trkpt>
      <trkpt lat="50.603701919317245" lon="13.542844885960221">
        <ele>609</ele>
        <time>2026-08-29T16:51:44Z</time>
      </trkpt>
      <trkpt lat="50.603668224066496" lon="13.542849663645029">
        <ele>609</ele>
        <time>2026-08-29T16:51:45Z</time>
      </trkpt>
      <trkpt lat="50.603635618463159" lon="13.542861314490438">
        <ele>609</ele>
        <time>2026-08-29T16:51:46Z</time>
      </trkpt>
      <trkpt lat="50.60358976945281" lon="13.542857626453042">
        <ele>609</ele>
        <time>2026-08-29T16:51:47Z</time>
      </trkpt>
      <trkpt lat="50.60355557128787" lon="13.542876821011305">
        <ele>609</ele>
        <time>2026-08-29T16:51:48Z</time>
      </trkpt>
      <trkpt lat="50.603525564074516" lon="13.54289660230279">
        <ele>609</ele>
        <time>2026-08-29T16:51:49Z</time>
      </trkpt>
      <trkpt lat="50.603494802489877" lon="13.542923172935843">
        <ele>609</ele>
        <time>2026-08-29T16:51:50Z</time>
      </trkpt>
      <trkpt lat="50.603462029248476" lon="13.54296944104135">
        <ele>608</ele>
        <time>2026-08-29T16:51:51Z</time>
      </trkpt>
      <trkpt lat="50.603425819426775" lon="13.543007327243686">
        <ele>608</ele>
        <time>2026-08-29T16:51:52Z</time>
      </trkpt>
      <trkpt lat="50.603370750322938" lon="13.543048063293099">
        <ele>607</ele>
        <time>2026-08-29T16:51:53Z</time>
      </trkpt>
      <trkpt lat="50.603322051465511" lon="13.543079243972898">
        <ele>606</ele>
        <time>2026-08-29T16:51:54Z</time>
      </trkpt>
      <trkpt lat="50.60327896848321" lon="13.54314629919827">
        <ele>606</ele>
        <time>2026-08-29T16:51:55Z</time>
      </trkpt>
      <trkpt lat="50.603228928521276" lon="13.543233638629317">
        <ele>606</ele>
        <time>2026-08-29T16:51:56Z</time>
      </trkpt>
      <trkpt lat="50.603186348453164" lon="13.543297927826643">
        <ele>606</ele>
        <time>2026-08-29T16:51:57Z</time>
      </trkpt>
      <trkpt lat="50.603162292391062" lon="13.543346878141165">
        <ele>605</ele>
        <time>2026-08-29T16:51:58Z</time>
      </trkpt>
      <trkpt lat="50.603123232722282" lon="13.543398091569543">
        <ele>605</ele>
        <time>2026-08-29T16:51:59Z</time>
      </trkpt>
      <trkpt lat="50.603091549128294" lon="13.543436899781227">
        <ele>604</ele>
        <time>2026-08-29T16:52:00Z</time>
      </trkpt>
      <trkpt lat="50.603040670976043" lon="13.543512420728803">
        <ele>604</ele>
        <time>2026-08-29T16:52:01Z</time>
      </trkpt>
      <trkpt lat="50.603002449497581" lon="13.543578637763858">
        <ele>603</ele>
        <time>2026-08-29T16:52:02Z</time>
      </trkpt>
      <trkpt lat="50.602968418970704" lon="13.543640747666359">
        <ele>602</ele>
        <time>2026-08-29T16:52:03Z</time>
      </trkpt>
      <trkpt lat="50.602929946035147" lon="13.543722974136472">
        <ele>602</ele>
        <time>2026-08-29T16:52:04Z</time>
      </trkpt>
      <trkpt lat="50.602891389280558" lon="13.543802937492728">
        <ele>601</ele>
        <time>2026-08-29T16:52:05Z</time>
      </trkpt>
      <trkpt lat="50.602850234135985" lon="13.54388952255249">
        <ele>600</ele>
        <time>2026-08-29T16:52:06Z</time>
      </trkpt>
      <trkpt lat="50.602812599390745" lon="13.543980214744806">
        <ele>600</ele>
        <time>2026-08-29T16:52:07Z</time>
      </trkpt>
      <trkpt lat="50.602777311578393" lon="13.544079372659326">
        <ele>600</ele>
        <time>2026-08-29T16:52:08Z</time>
      </trkpt>
      <trkpt lat="50.602754345163703" lon="13.544171992689371">
        <ele>600</ele>
        <time>2026-08-29T16:52:09Z</time>
      </trkpt>
      <trkpt lat="50.602725595235825" lon="13.54427601210773">
        <ele>599</ele>
        <time>2026-08-29T16:52:10Z</time>
      </trkpt>
      <trkpt lat="50.602694246917963" lon="13.544362932443619">
        <ele>599</ele>
        <time>2026-08-29T16:52:11Z</time>
      </trkpt>
      <trkpt lat="50.602663150057197" lon="13.544440800324082">
        <ele>598</ele>
        <time>2026-08-29T16:52:12Z</time>
      </trkpt>
      <trkpt lat="50.60262911953032" lon="13.544506011530757">
        <ele>598</ele>
        <time>2026-08-29T16:52:13Z</time>
      </trkpt>
      <trkpt lat="50.602593999356031" lon="13.544569713994861">
        <ele>598</ele>
        <time>2026-08-29T16:52:14Z</time>
      </trkpt>
      <trkpt lat="50.602558795362711" lon="13.544619753956795">
        <ele>597</ele>
        <time>2026-08-29T16:52:15Z</time>
      </trkpt>
      <trkpt lat="50.602527447044849" lon="13.54466401040554">
        <ele>596</ele>
        <time>2026-08-29T16:52:16Z</time>
      </trkpt>
      <trkpt lat="50.602498780936003" lon="13.544704830273986">
        <ele>596</ele>
        <time>2026-08-29T16:52:17Z</time>
      </trkpt>
      <trkpt lat="50.602474808692932" lon="13.544744644314051">
        <ele>596</ele>
        <time>2026-08-29T16:52:18Z</time>
      </trkpt>
      <trkpt lat="50.602448740974069" lon="13.544774986803532">
        <ele>595</ele>
        <time>2026-08-29T16:52:19Z</time>
      </trkpt>
      <trkpt lat="50.602427870035172" lon="13.544801808893681">
        <ele>595</ele>
        <time>2026-08-29T16:52:20Z</time>
      </trkpt>
      <trkpt lat="50.602398449555039" lon="13.544828798621893">
        <ele>595</ele>
        <time>2026-08-29T16:52:21Z</time>
      </trkpt>
      <trkpt lat="50.602360647171736" lon="13.544866852462292">
        <ele>594</ele>
        <time>2026-08-29T16:52:22Z</time>
      </trkpt>
      <trkpt lat="50.602325610816479" lon="13.544894009828568">
        <ele>594</ele>
        <time>2026-08-29T16:52:23Z</time>
      </trkpt>
      <trkpt lat="50.602290825918317" lon="13.544915216043591">
        <ele>593</ele>
        <time>2026-08-29T16:52:24Z</time>
      </trkpt>
      <trkpt lat="50.602254280820489" lon="13.544947737827897">
        <ele>592</ele>
        <time>2026-08-29T16:52:25Z</time>
      </trkpt>
      <trkpt lat="50.602210527285933" lon="13.544974392279983">
        <ele>591</ele>
        <time>2026-08-29T16:52:26Z</time>
      </trkpt>
      <trkpt lat="50.602172808721662" lon="13.545003226026893">
        <ele>590</ele>
        <time>2026-08-29T16:52:27Z</time>
      </trkpt>
      <trkpt lat="50.602127378806472" lon="13.545027952641249">
        <ele>589</ele>
        <time>2026-08-29T16:52:28Z</time>
      </trkpt>
      <trkpt lat="50.602060491219163" lon="13.545071119442582">
        <ele>589</ele>
        <time>2026-08-29T16:52:29Z</time>
      </trkpt>
      <trkpt lat="50.601994190365076" lon="13.545106071978807">
        <ele>589</ele>
        <time>2026-08-29T16:52:30Z</time>
      </trkpt>
      <trkpt lat="50.60192939825356" lon="13.545125182718039">
        <ele>588</ele>
        <time>2026-08-29T16:52:31Z</time>
      </trkpt>
      <trkpt lat="50.601863767951727" lon="13.545139012858272">
        <ele>587</ele>
        <time>2026-08-29T16:52:32Z</time>
      </trkpt>
      <trkpt lat="50.601803921163082" lon="13.545141275972128">
        <ele>586</ele>
        <time>2026-08-29T16:52:33Z</time>
      </trkpt>
      <trkpt lat="50.601745415478945" lon="13.545132474973798">
        <ele>586</ele>
        <time>2026-08-29T16:52:34Z</time>
      </trkpt>
      <trkpt lat="50.601669391617179" lon="13.545122751966119">
        <ele>586</ele>
        <time>2026-08-29T16:52:35Z</time>
      </trkpt>
      <trkpt lat="50.601611472666264" lon="13.545104479417205">
        <ele>585</ele>
        <time>2026-08-29T16:52:36Z</time>
      </trkpt>
      <trkpt lat="50.601549949496984" lon="13.545094588771462">
        <ele>585</ele>
        <time>2026-08-29T16:52:37Z</time>
      </trkpt>
      <trkpt lat="50.601483397185802" lon="13.545080842450261">
        <ele>585</ele>
        <time>2026-08-29T16:52:38Z</time>
      </trkpt>
      <trkpt lat="50.60141240246594" lon="13.545082602649927">
        <ele>585</ele>
        <time>2026-08-29T16:52:39Z</time>
      </trkpt>
      <trkpt lat="50.601348448544741" lon="13.545081093907356">
        <ele>584</ele>
        <time>2026-08-29T16:52:40Z</time>
      </trkpt>
      <trkpt lat="50.601299665868282" lon="13.545053685083985">
        <ele>583</ele>
        <time>2026-08-29T16:52:41Z</time>
      </trkpt>
      <trkpt lat="50.601251889020205" lon="13.54503532871604">
        <ele>582</ele>
        <time>2026-08-29T16:52:42Z</time>
      </trkpt>
      <trkpt lat="50.601203609257936" lon="13.545031389221549">
        <ele>581</ele>
        <time>2026-08-29T16:52:43Z</time>
      </trkpt>
      <trkpt lat="50.601160610094666" lon="13.545025018975139">
        <ele>580</ele>
        <time>2026-08-29T16:52:44Z</time>
      </trkpt>
      <trkpt lat="50.601125992834568" lon="13.545028623193502">
        <ele>578</ele>
        <time>2026-08-29T16:52:45Z</time>
      </trkpt>
      <trkpt lat="50.6011070497334" lon="13.545050667598844">
        <ele>578</ele>
        <time>2026-08-29T16:52:46Z</time>
      </trkpt>
      <trkpt lat="50.601097410544753" lon="13.54507396928966">
        <ele>577</ele>
        <time>2026-08-29T16:52:47Z</time>
      </trkpt>
      <trkpt lat="50.601097410544753" lon="13.545100623741746">
        <ele>577</ele>
        <time>2026-08-29T16:52:48Z</time>
      </trkpt>
      <trkpt lat="50.601118868216872" lon="13.545129289850593">
        <ele>577</ele>
        <time>2026-08-29T16:52:49Z</time>
      </trkpt>
      <trkpt lat="50.601140158250928" lon="13.545167595148087">
        <ele>577</ele>
        <time>2026-08-29T16:52:50Z</time>
      </trkpt>
      <trkpt lat="50.601168572902679" lon="13.545215958729386">
        <ele>576</ele>
        <time>2026-08-29T16:52:51Z</time>
      </trkpt>
      <trkpt lat="50.601225318387151" lon="13.545273626223207">
        <ele>574</ele>
        <time>2026-08-29T16:52:52Z</time>
      </trkpt>
      <trkpt lat="50.601263288408518" lon="13.545302376151085">
        <ele>574</ele>
        <time>2026-08-29T16:52:53Z</time>
      </trkpt>
      <trkpt lat="50.601312322542071" lon="13.545320061966777">
        <ele>573</ele>
        <time>2026-08-29T16:52:54Z</time>
      </trkpt>
      <trkpt lat="50.601346604526043" lon="13.545342776924372">
        <ele>573</ele>
        <time>2026-08-29T16:52:55Z</time>
      </trkpt>
      <trkpt lat="50.601393291726708" lon="13.545371191576123">
        <ele>573</ele>
        <time>2026-08-29T16:52:56Z</time>
      </trkpt>
      <trkpt lat="50.601436709985137" lon="13.545399019494653">
        <ele>572</ele>
        <time>2026-08-29T16:52:57Z</time>
      </trkpt>
      <trkpt lat="50.601496808230877" lon="13.545404803007841">
        <ele>572</ele>
        <time>2026-08-29T16:52:58Z</time>
      </trkpt>
      <trkpt lat="50.601561600342393" lon="13.54543506167829">
        <ele>571</ele>
        <time>2026-08-29T16:52:59Z</time>
      </trkpt>
      <trkpt lat="50.601623710244894" lon="13.54546632617712">
        <ele>571</ele>
        <time>2026-08-29T16:53:00Z</time>
      </trkpt>
      <trkpt lat="50.601686658337712" lon="13.545474288985133">
        <ele>570</ele>
        <time>2026-08-29T16:53:01Z</time>
      </trkpt>
      <trkpt lat="50.601738039404154" lon="13.545496920123696">
        <ele>570</ele>
        <time>2026-08-29T16:53:02Z</time>
      </trkpt>
      <trkpt lat="50.601791767403483" lon="13.545515527948737">
        <ele>570</ele>
        <time>2026-08-29T16:53:03Z</time>
      </trkpt>
      <trkpt lat="50.601826384663582" lon="13.545532627031207">
        <ele>569</ele>
        <time>2026-08-29T16:53:04Z</time>
      </trkpt>
      <trkpt lat="50.601870557293296" lon="13.545535895973444">
        <ele>568</ele>
        <time>2026-08-29T16:53:05Z</time>
      </trkpt>
      <trkpt lat="50.601915400475264" lon="13.545528436079621">
        <ele>568</ele>
        <time>2026-08-29T16:53:06Z</time>
      </trkpt>
      <trkpt lat="50.60195823200047" lon="13.545528519898653">
        <ele>569</ele>
        <time>2026-08-29T16:53:07Z</time>
      </trkpt>
      <trkpt lat="50.602007517591119" lon="13.545548133552074">
        <ele>569</ele>
        <time>2026-08-29T16:53:08Z</time>
      </trkpt>
      <trkpt lat="50.602054875344038" lon="13.545567831024528">
        <ele>569</ele>
        <time>2026-08-29T16:53:09Z</time>
      </trkpt>
      <trkpt lat="50.602103741839528" lon="13.545578559860587">
        <ele>569</ele>
        <time>2026-08-29T16:53:10Z</time>
      </trkpt>
      <trkpt lat="50.602151937782764" lon="13.54556598700583">
        <ele>568</ele>
        <time>2026-08-29T16:53:11Z</time>
      </trkpt>
      <trkpt lat="50.602194014936686" lon="13.54554545134306">
        <ele>569</ele>
        <time>2026-08-29T16:53:12Z</time>
      </trkpt>
      <trkpt lat="50.602237768471241" lon="13.545545116066933">
        <ele>568</ele>
        <time>2026-08-29T16:53:13Z</time>
      </trkpt>
      <trkpt lat="50.60228562913835" lon="13.545544361695647">
        <ele>568</ele>
        <time>2026-08-29T16:53:14Z</time>
      </trkpt>
      <trkpt lat="50.602320581674576" lon="13.545563137158751">
        <ele>567</ele>
        <time>2026-08-29T16:53:15Z</time>
      </trkpt>
      <trkpt lat="50.602363497018814" lon="13.545592054724693">
        <ele>567</ele>
        <time>2026-08-29T16:53:16Z</time>
      </trkpt>
      <trkpt lat="50.602363999933004" lon="13.545631282031536">
        <ele>567</ele>
        <time>2026-08-29T16:53:17Z</time>
      </trkpt>
      <trkpt lat="50.602362491190434" lon="13.545705294236541">
        <ele>567</ele>
        <time>2026-08-29T16:53:18Z</time>
      </trkpt>
      <trkpt lat="50.602334327995777" lon="13.545764051377773">
        <ele>566</ele>
        <time>2026-08-29T16:53:19Z</time>
      </trkpt>
      <trkpt lat="50.602303147315979" lon="13.545818282291293">
        <ele>566</ele>
        <time>2026-08-29T16:53:20Z</time>
      </trkpt>
      <trkpt lat="50.60228512622416" lon="13.545878464356065">
        <ele>566</ele>
        <time>2026-08-29T16:53:21Z</time>
      </trkpt>
      <trkpt lat="50.60225335881114" lon="13.545964881777763">
        <ele>565</ele>
        <time>2026-08-29T16:53:22Z</time>
      </trkpt>
      <trkpt lat="50.602211952209473" lon="13.546034200116992">
        <ele>565</ele>
        <time>2026-08-29T16:53:23Z</time>
      </trkpt>
      <trkpt lat="50.602169372141361" lon="13.5460873413831">
        <ele>564</ele>
        <time>2026-08-29T16:53:24Z</time>
      </trkpt>
      <trkpt lat="50.602124780416489" lon="13.546148110181093">
        <ele>563</ele>
        <time>2026-08-29T16:53:25Z</time>
      </trkpt>
      <trkpt lat="50.602076752111316" lon="13.546223631128669">
        <ele>563</ele>
        <time>2026-08-29T16:53:26Z</time>
      </trkpt>
      <trkpt lat="50.602024868130684" lon="13.546322118490934">
        <ele>563</ele>
        <time>2026-08-29T16:53:27Z</time>
      </trkpt>
      <trkpt lat="50.601979102939367" lon="13.546386323869228">
        <ele>561</ele>
        <time>2026-08-29T16:53:28Z</time>
      </trkpt>
      <trkpt lat="50.601930571720004" lon="13.546449523419142">
        <ele>561</ele>
        <time>2026-08-29T16:53:29Z</time>
      </trkpt>
      <trkpt lat="50.601875837892294" lon="13.546502497047186">
        <ele>559</ele>
        <time>2026-08-29T16:53:30Z</time>
      </trkpt>
      <trkpt lat="50.601818589493632" lon="13.546585813164711">
        <ele>558</ele>
        <time>2026-08-29T16:53:31Z</time>
      </trkpt>
      <trkpt lat="50.601762430742383" lon="13.546661334112287">
        <ele>557</ele>
        <time>2026-08-29T16:53:32Z</time>
      </trkpt>
      <trkpt lat="50.601701745763421" lon="13.546743476763368">
        <ele>557</ele>
        <time>2026-08-29T16:53:33Z</time>
      </trkpt>
      <trkpt lat="50.601637288928032" lon="13.546829978004098">
        <ele>556</ele>
        <time>2026-08-29T16:53:34Z</time>
      </trkpt>
      <trkpt lat="50.601575430482626" lon="13.546905918046832">
        <ele>555</ele>
        <time>2026-08-29T16:53:35Z</time>
      </trkpt>
      <trkpt lat="50.601534610614181" lon="13.546978840604424">
        <ele>555</ele>
        <time>2026-08-29T16:53:36Z</time>
      </trkpt>
      <trkpt lat="50.601489348337054" lon="13.547042543068528">
        <ele>555</ele>
        <time>2026-08-29T16:53:37Z</time>
      </trkpt>
      <trkpt lat="50.601440817117691" lon="13.547099288552999">
        <ele>556</ele>
        <time>2026-08-29T16:53:38Z</time>
      </trkpt>
      <trkpt lat="50.601397231221199" lon="13.547137007117271">
        <ele>556</ele>
        <time>2026-08-29T16:53:39Z</time>
      </trkpt>
      <trkpt lat="50.601350292563438" lon="13.547167768701911">
        <ele>556</ele>
        <time>2026-08-29T16:53:40Z</time>
      </trkpt>
      <trkpt lat="50.6013039406389" lon="13.547198530286551">
        <ele>555</ele>
        <time>2026-08-29T16:53:41Z</time>
      </trkpt>
      <trkpt lat="50.601263036951423" lon="13.547231303527951">
        <ele>555</ele>
        <time>2026-08-29T16:53:42Z</time>
      </trkpt>
      <trkpt lat="50.601216517388821" lon="13.547311099246144">
        <ele>555</ele>
        <time>2026-08-29T16:53:43Z</time>
      </trkpt>
      <trkpt lat="50.601193634793162" lon="13.547360971570015">
        <ele>555</ele>
        <time>2026-08-29T16:53:44Z</time>
      </trkpt>
      <trkpt lat="50.601159771904349" lon="13.547415118664503">
        <ele>554</ele>
        <time>2026-08-29T16:53:45Z</time>
      </trkpt>
      <trkpt lat="50.6011260766536" lon="13.547474630177021">
        <ele>554</ele>
        <time>2026-08-29T16:53:46Z</time>
      </trkpt>
      <trkpt lat="50.601087687537074" lon="13.547540092840791">
        <ele>554</ele>
        <time>2026-08-29T16:53:47Z</time>
      </trkpt>
      <trkpt lat="50.60106061398983" lon="13.547593988478184">
        <ele>554</ele>
        <time>2026-08-29T16:53:48Z</time>
      </trkpt>
      <trkpt lat="50.601028762757778" lon="13.547643693163991">
        <ele>554</ele>
        <time>2026-08-29T16:53:49Z</time>
      </trkpt>
      <trkpt lat="50.600994396954775" lon="13.547699265182018">
        <ele>554</ele>
        <time>2026-08-29T16:53:50Z</time>
      </trkpt>
      <trkpt lat="50.600969921797514" lon="13.547752574086189">
        <ele>554</ele>
        <time>2026-08-29T16:53:51Z</time>
      </trkpt>
      <trkpt lat="50.600938908755779" lon="13.547809822484851">
        <ele>554</ele>
        <time>2026-08-29T16:53:52Z</time>
      </trkpt>
      <trkpt lat="50.600921642035246" lon="13.54784837923944">
        <ele>553</ele>
        <time>2026-08-29T16:53:53Z</time>
      </trkpt>
      <trkpt lat="50.600892305374146" lon="13.547903867438436">
        <ele>553</ele>
        <time>2026-08-29T16:53:54Z</time>
      </trkpt>
      <trkpt lat="50.600851150229573" lon="13.547969246283174">
        <ele>553</ele>
        <time>2026-08-29T16:53:55Z</time>
      </trkpt>
      <trkpt lat="50.600815862417221" lon="13.548026578500867">
        <ele>553</ele>
        <time>2026-08-29T16:53:56Z</time>
      </trkpt>
      <trkpt lat="50.600772779434919" lon="13.548085000365973">
        <ele>553</ele>
        <time>2026-08-29T16:53:57Z</time>
      </trkpt>
      <trkpt lat="50.600733552128077" lon="13.548139398917556">
        <ele>552</ele>
        <time>2026-08-29T16:53:58Z</time>
      </trkpt>
      <trkpt lat="50.600709831342101" lon="13.548185750842094">
        <ele>552</ele>
        <time>2026-08-29T16:53:59Z</time>
      </trkpt>
      <trkpt lat="50.600683679804206" lon="13.548246184363961">
        <ele>552</ele>
        <time>2026-08-29T16:54:00Z</time>
      </trkpt>
      <trkpt lat="50.600670352578163" lon="13.548294380307198">
        <ele>552</ele>
        <time>2026-08-29T16:54:01Z</time>
      </trkpt>
      <trkpt lat="50.600656690075994" lon="13.548350119963288">
        <ele>551</ele>
        <time>2026-08-29T16:54:02Z</time>
      </trkpt>
      <trkpt lat="50.600642440840602" lon="13.548416420817375">
        <ele>551</ele>
        <time>2026-08-29T16:54:03Z</time>
      </trkpt>
      <trkpt lat="50.600624922662973" lon="13.548472579568624">
        <ele>551</ele>
        <time>2026-08-29T16:54:04Z</time>
      </trkpt>
      <trkpt lat="50.600606482475996" lon="13.548535024747252">
        <ele>551</ele>
        <time>2026-08-29T16:54:05Z</time>
      </trkpt>
      <trkpt lat="50.600597513839602" lon="13.548583639785647">
        <ele>551</ele>
        <time>2026-08-29T16:54:06Z</time>
      </trkpt>
      <trkpt lat="50.600598268210888" lon="13.54860576801002">
        <ele>551</ele>
        <time>2026-08-29T16:54:07Z</time>
      </trkpt>
      <trkpt lat="50.600587539374828" lon="13.548641474917531">
        <ele>551</ele>
        <time>2026-08-29T16:54:08Z</time>
      </trkpt>
      <trkpt lat="50.600579241290689" lon="13.548676175996661">
        <ele>550</ele>
        <time>2026-08-29T16:54:09Z</time>
      </trkpt>
      <trkpt lat="50.60056759044528" lon="13.548704087734222">
        <ele>550</ele>
        <time>2026-08-29T16:54:10Z</time>
      </trkpt>
      <trkpt lat="50.600559459999204" lon="13.54874356649816">
        <ele>550</ele>
        <time>2026-08-29T16:54:11Z</time>
      </trkpt>
      <trkpt lat="50.600545378401875" lon="13.548770975321531">
        <ele>550</ele>
        <time>2026-08-29T16:54:12Z</time>
      </trkpt>
      <trkpt lat="50.600537918508053" lon="13.548797545954585">
        <ele>550</ele>
        <time>2026-08-29T16:54:13Z</time>
      </trkpt>
      <trkpt lat="50.600532218813896" lon="13.548833252862096">
        <ele>550</ele>
        <time>2026-08-29T16:54:14Z</time>
      </trkpt>
      <trkpt lat="50.600533979013562" lon="13.548860745504498">
        <ele>549</ele>
        <time>2026-08-29T16:54:15Z</time>
      </trkpt>
      <trkpt lat="50.600531129166484" lon="13.548884214833379">
        <ele>549</ele>
        <time>2026-08-29T16:54:16Z</time>
      </trkpt>
      <trkpt lat="50.600520232692361" lon="13.548900140449405">
        <ele>550</ele>
        <time>2026-08-29T16:54:17Z</time>
      </trkpt>
      <trkpt lat="50.600514449179173" lon="13.548908606171608">
        <ele>550</ele>
        <time>2026-08-29T16:54:18Z</time>
      </trkpt>
      <trkpt lat="50.600506151095033" lon="13.54892143048346">
        <ele>550</ele>
        <time>2026-08-29T16:54:19Z</time>
      </trkpt>
      <trkpt lat="50.600506821647286" lon="13.548921933397651">
        <ele>550</ele>
        <time>2026-08-29T16:54:20Z</time>
      </trkpt>
      <trkpt lat="50.60051285661757" lon="13.54892386123538">
        <ele>550</ele>
        <time>2026-08-29T16:54:21Z</time>
      </trkpt>
      <trkpt lat="50.600507911294699" lon="13.548924699425697">
        <ele>550</ele>
        <time>2026-08-29T16:54:22Z</time>
      </trkpt>
      <trkpt lat="50.600501541048288" lon="13.548941547051072">
        <ele>550</ele>
        <time>2026-08-29T16:54:23Z</time>
      </trkpt>
      <trkpt lat="50.600500702857971" lon="13.548939200118184">
        <ele>550</ele>
        <time>2026-08-29T16:54:24Z</time>
      </trkpt>
      <trkpt lat="50.600498523563147" lon="13.548941379413009">
        <ele>550</ele>
        <time>2026-08-29T16:54:25Z</time>
      </trkpt>
      <trkpt lat="50.600495673716068" lon="13.548942301422358">
        <ele>550</ele>
        <time>2026-08-29T16:54:26Z</time>
      </trkpt>
      <trkpt lat="50.600489303469658" lon="13.548946240916848">
        <ele>550</ele>
        <time>2026-08-29T16:54:27Z</time>
      </trkpt>
      <trkpt lat="50.600486285984516" lon="13.548963759094477">
        <ele>549</ele>
        <time>2026-08-29T16:54:28Z</time>
      </trkpt>
      <trkpt lat="50.600489052012563" lon="13.548973985016346">
        <ele>549</ele>
        <time>2026-08-29T16:54:29Z</time>
      </trkpt>
      <trkpt lat="50.600483687594533" lon="13.548976918682456">
        <ele>549</ele>
        <time>2026-08-29T16:54:30Z</time>
      </trkpt>
      <trkpt lat="50.600490141659975" lon="13.54899812489748">
        <ele>549</ele>
        <time>2026-08-29T16:54:31Z</time>
      </trkpt>
      <trkpt lat="50.600491901859641" lon="13.549010194838047">
        <ele>549</ele>
        <time>2026-08-29T16:54:32Z</time>
      </trkpt>
      <trkpt lat="50.600490141659975" lon="13.549019163474441">
        <ele>550</ele>
        <time>2026-08-29T16:54:33Z</time>
      </trkpt>
      <trkpt lat="50.600491315126419" lon="13.549020253121853">
        <ele>550</ele>
        <time>2026-08-29T16:54:34Z</time>
      </trkpt>
      <trkpt lat="50.600499780848622" lon="13.54902888648212">
        <ele>549</ele>
        <time>2026-08-29T16:54:35Z</time>
      </trkpt>
      <trkpt lat="50.600502882152796" lon="13.549041962251067">
        <ele>549</ele>
        <time>2026-08-29T16:54:36Z</time>
      </trkpt>
      <trkpt lat="50.600497517734766" lon="13.549057384952903">
        <ele>550</ele>
        <time>2026-08-29T16:54:37Z</time>
      </trkpt>
      <trkpt lat="50.600504390895367" lon="13.549064258113503">
        <ele>549</ele>
        <time>2026-08-29T16:54:38Z</time>
      </trkpt>
      <trkpt lat="50.60050698928535" lon="13.549068281427026">
        <ele>550</ele>
        <time>2026-08-29T16:54:39Z</time>
      </trkpt>
      <trkpt lat="50.600503133609891" lon="13.549077333882451">
        <ele>550</ele>
        <time>2026-08-29T16:54:40Z</time>
      </trkpt>
      <trkpt lat="50.600501205772161" lon="13.549085883423686">
        <ele>550</ele>
        <time>2026-08-29T16:54:41Z</time>
      </trkpt>
      <trkpt lat="50.60050112195313" lon="13.549085799604654">
        <ele>551</ele>
        <time>2026-08-29T16:54:42Z</time>
      </trkpt>
      <trkpt lat="50.600499780848622" lon="13.54908412322402">
        <ele>551</ele>
        <time>2026-08-29T16:54:43Z</time>
      </trkpt>
      <trkpt lat="50.600500367581844" lon="13.549090996384621">
        <ele>551</ele>
        <time>2026-08-29T16:54:44Z</time>
      </trkpt>
      <trkpt lat="50.600499529391527" lon="13.549099210649729">
        <ele>551</ele>
        <time>2026-08-29T16:54:45Z</time>
      </trkpt>
      <trkpt lat="50.600497685372829" lon="13.549105999991298">
        <ele>551</ele>
        <time>2026-08-29T16:54:46Z</time>
      </trkpt>
      <trkpt lat="50.600496847182512" lon="13.549107508733869">
        <ele>551</ele>
        <time>2026-08-29T16:54:47Z</time>
      </trkpt>
      <trkpt lat="50.600493494421244" lon="13.549118656665087">
        <ele>551</ele>
        <time>2026-08-29T16:54:48Z</time>
      </trkpt>
      <trkpt lat="50.60049089603126" lon="13.549129050225019">
        <ele>551</ele>
        <time>2026-08-29T16:54:49Z</time>
      </trkpt>
      <trkpt lat="50.600488884374499" lon="13.54913642629981">
        <ele>551</ele>
        <time>2026-08-29T16:54:50Z</time>
      </trkpt>
      <trkpt lat="50.600486537441611" lon="13.549148244783282">
        <ele>551</ele>
        <time>2026-08-29T16:54:51Z</time>
      </trkpt>
      <trkpt lat="50.600485447794199" lon="13.549162996932864">
        <ele>551</ele>
        <time>2026-08-29T16:54:52Z</time>
      </trkpt>
      <trkpt lat="50.600483771413565" lon="13.549168864265084">
        <ele>552</ele>
        <time>2026-08-29T16:54:53Z</time>
      </trkpt>
      <trkpt lat="50.600490141659975" lon="13.549173306673765">
        <ele>552</ele>
        <time>2026-08-29T16:54:54Z</time>
      </trkpt>
      <trkpt lat="50.600488884374499" lon="13.549173977226019">
        <ele>552</ele>
        <time>2026-08-29T16:54:55Z</time>
      </trkpt>
      <trkpt lat="50.600483771413565" lon="13.549175234511495">
        <ele>552</ele>
        <time>2026-08-29T16:54:56Z</time>
      </trkpt>
      <trkpt lat="50.600477317348123" lon="13.549186298623681">
        <ele>552</ele>
        <time>2026-08-29T16:54:57Z</time>
      </trkpt>
      <trkpt lat="50.600463068112731" lon="13.549193423241377">
        <ele>552</ele>
        <time>2026-08-29T16:54:58Z</time>
      </trkpt>
      <trkpt lat="50.600457116961479" lon="13.549220496788621">
        <ele>551</ele>
        <time>2026-08-29T16:54:59Z</time>
      </trkpt>
      <trkpt lat="50.600443705916405" lon="13.549246145412326">
        <ele>551</ele>
        <time>2026-08-29T16:55:00Z</time>
      </trkpt>
      <trkpt lat="50.600429875776172" lon="13.549265759065747">
        <ele>551</ele>
        <time>2026-08-29T16:55:01Z</time>
      </trkpt>
      <trkpt lat="50.600417638197541" lon="13.54929568246007">
        <ele>551</ele>
        <time>2026-08-29T16:55:02Z</time>
      </trkpt>
      <trkpt lat="50.600404227152467" lon="13.549307752400637">
        <ele>551</ele>
        <time>2026-08-29T16:55:03Z</time>
      </trkpt>
      <trkpt lat="50.60039458796382" lon="13.549317056313157">
        <ele>551</ele>
        <time>2026-08-29T16:55:04Z</time>
      </trkpt>
      <trkpt lat="50.600387379527092" lon="13.549326946958899">
        <ele>551</ele>
        <time>2026-08-29T16:55:05Z</time>
      </trkpt>
      <trkpt lat="50.600383188575506" lon="13.549352595582604">
        <ele>551</ele>
        <time>2026-08-29T16:55:06Z</time>
      </trkpt>
      <trkpt lat="50.600372878834605" lon="13.549384446814656">
        <ele>552</ele>
        <time>2026-08-29T16:55:07Z</time>
      </trkpt>
      <trkpt lat="50.60036382637918" lon="13.549409927800298">
        <ele>552</ele>
        <time>2026-08-29T16:55:08Z</time>
      </trkpt>
      <trkpt lat="50.600353349000216" lon="13.549430966377258">
        <ele>552</ele>
        <time>2026-08-29T16:55:09Z</time>
      </trkpt>
      <trkpt lat="50.600344464182854" lon="13.549450747668743">
        <ele>552</ele>
        <time>2026-08-29T16:55:10Z</time>
      </trkpt>
      <trkpt lat="50.600336920469999" lon="13.549475222826004">
        <ele>552</ele>
        <time>2026-08-29T16:55:11Z</time>
      </trkpt>
      <trkpt lat="50.600332729518414" lon="13.549502715468407">
        <ele>553</ele>
        <time>2026-08-29T16:55:12Z</time>
      </trkpt>
      <trkpt lat="50.600322922691703" lon="13.54952635243535">
        <ele>553</ele>
        <time>2026-08-29T16:55:13Z</time>
      </trkpt>
      <trkpt lat="50.600311104208231" lon="13.549549737945199">
        <ele>553</ele>
        <time>2026-08-29T16:55:14Z</time>
      </trkpt>
      <trkpt lat="50.60030372813344" lon="13.549577398225665">
        <ele>553</ele>
        <time>2026-08-29T16:55:15Z</time>
      </trkpt>
      <trkpt lat="50.600303476676345" lon="13.549607824534178">
        <ele>553</ele>
        <time>2026-08-29T16:55:16Z</time>
      </trkpt>
      <trkpt lat="50.600293921306729" lon="13.549643782898784">
        <ele>553</ele>
        <time>2026-08-29T16:55:17Z</time>
      </trkpt>
      <trkpt lat="50.600283360108733" lon="13.549688290804625">
        <ele>552</ele>
        <time>2026-08-29T16:55:18Z</time>
      </trkpt>
      <trkpt lat="50.600272798910737" lon="13.549738917499781">
        <ele>552</ele>
        <time>2026-08-29T16:55:19Z</time>
      </trkpt>
      <trkpt lat="50.600267769768834" lon="13.549780324101448">
        <ele>553</ele>
        <time>2026-08-29T16:55:20Z</time>
      </trkpt>
      <trkpt lat="50.60026559047401" lon="13.549821143969893">
        <ele>553</ele>
        <time>2026-08-29T16:55:21Z</time>
      </trkpt>
      <trkpt lat="50.600260309875011" lon="13.549864646047354">
        <ele>553</ele>
        <time>2026-08-29T16:55:22Z</time>
      </trkpt>
      <trkpt lat="50.60024606063962" lon="13.549905633553863">
        <ele>553</ele>
        <time>2026-08-29T16:55:23Z</time>
      </trkpt>
      <trkpt lat="50.600235080346465" lon="13.549954164773226">
        <ele>553</ele>
        <time>2026-08-29T16:55:24Z</time>
      </trkpt>
      <trkpt lat="50.600227201357484" lon="13.550009652972221">
        <ele>553</ele>
        <time>2026-08-29T16:55:25Z</time>
      </trkpt>
      <trkpt lat="50.600214209407568" lon="13.550063967704773">
        <ele>553</ele>
        <time>2026-08-29T16:55:26Z</time>
      </trkpt>
      <trkpt lat="50.600205324590206" lon="13.550117947161198">
        <ele>553</ele>
        <time>2026-08-29T16:55:27Z</time>
      </trkpt>
      <trkpt lat="50.600201049819589" lon="13.550165221095085">
        <ele>553</ele>
        <time>2026-08-29T16:55:28Z</time>
      </trkpt>
      <trkpt lat="50.600192667916417" lon="13.550209812819958">
        <ele>554</ele>
        <time>2026-08-29T16:55:29Z</time>
      </trkpt>
      <trkpt lat="50.600190488621593" lon="13.550267396494746">
        <ele>554</ele>
        <time>2026-08-29T16:55:30Z</time>
      </trkpt>
      <trkpt lat="50.600183447822928" lon="13.550323974341154">
        <ele>554</ele>
        <time>2026-08-29T16:55:31Z</time>
      </trkpt>
      <trkpt lat="50.600179424509406" lon="13.550369068980217">
        <ele>555</ele>
        <time>2026-08-29T16:55:32Z</time>
      </trkpt>
      <trkpt lat="50.600176490843296" lon="13.550422880798578">
        <ele>555</ele>
        <time>2026-08-29T16:55:33Z</time>
      </trkpt>
      <trkpt lat="50.600166516378522" lon="13.550467304885387">
        <ele>555</ele>
        <time>2026-08-29T16:55:34Z</time>
      </trkpt>
      <trkpt lat="50.600155787542462" lon="13.550518434494734">
        <ele>555</ele>
        <time>2026-08-29T16:55:35Z</time>
      </trkpt>
      <trkpt lat="50.600141789764166" lon="13.550574174150825">
        <ele>555</ele>
        <time>2026-08-29T16:55:36Z</time>
      </trkpt>
      <trkpt lat="50.600132485851645" lon="13.550625052303076">
        <ele>555</ele>
        <time>2026-08-29T16:55:37Z</time>
      </trkpt>
      <trkpt lat="50.600125612691045" lon="13.550670649856329">
        <ele>555</ele>
        <time>2026-08-29T16:55:38Z</time>
      </trkpt>
      <trkpt lat="50.600114967674017" lon="13.550718929618597">
        <ele>555</ele>
        <time>2026-08-29T16:55:39Z</time>
      </trkpt>
      <trkpt lat="50.600106418132782" lon="13.550773747265339">
        <ele>556</ele>
        <time>2026-08-29T16:55:40Z</time>
      </trkpt>
      <trkpt lat="50.600101221352816" lon="13.55082655325532">
        <ele>556</ele>
        <time>2026-08-29T16:55:41Z</time>
      </trkpt>
      <trkpt lat="50.600093258544803" lon="13.550879526883364">
        <ele>556</ele>
        <time>2026-08-29T16:55:42Z</time>
      </trkpt>
      <trkpt lat="50.600080266594887" lon="13.550928561016917">
        <ele>556</ele>
        <time>2026-08-29T16:55:43Z</time>
      </trkpt>
      <trkpt lat="50.600068951025605" lon="13.5509795229882">
        <ele>556</ele>
        <time>2026-08-29T16:55:44Z</time>
      </trkpt>
      <trkpt lat="50.600060485303402" lon="13.551025958731771">
        <ele>555</ele>
        <time>2026-08-29T16:55:45Z</time>
      </trkpt>
      <trkpt lat="50.600050510838628" lon="13.551081698387861">
        <ele>555</ele>
        <time>2026-08-29T16:55:46Z</time>
      </trkpt>
      <trkpt lat="50.600037518888712" lon="13.551134755834937">
        <ele>555</ele>
        <time>2026-08-29T16:55:47Z</time>
      </trkpt>
      <trkpt lat="50.60003156773746" lon="13.551185969263315">
        <ele>554</ele>
        <time>2026-08-29T16:55:48Z</time>
      </trkpt>
      <trkpt lat="50.600028801709414" lon="13.551234332844615">
        <ele>554</ele>
        <time>2026-08-29T16:55:49Z</time>
      </trkpt>
      <trkpt lat="50.600031903013587" lon="13.551290072500706">
        <ele>555</ele>
        <time>2026-08-29T16:55:50Z</time>
      </trkpt>
      <trkpt lat="50.60003399848938" lon="13.551337933167815">
        <ele>555</ele>
        <time>2026-08-29T16:55:51Z</time>
      </trkpt>
      <trkpt lat="50.600033160299063" lon="13.551382189616561">
        <ele>555</ele>
        <time>2026-08-29T16:55:52Z</time>
      </trkpt>
      <trkpt lat="50.600034836679697" lon="13.551430888473988">
        <ele>556</ele>
        <time>2026-08-29T16:55:53Z</time>
      </trkpt>
      <trkpt lat="50.60003936290741" lon="13.5514803417027">
        <ele>556</ele>
        <time>2026-08-29T16:55:54Z</time>
      </trkpt>
      <trkpt lat="50.600047325715423" lon="13.551524933427572">
        <ele>556</ele>
        <time>2026-08-29T16:55:55Z</time>
      </trkpt>
      <trkpt lat="50.600055120885372" lon="13.551570866256952">
        <ele>555</ele>
        <time>2026-08-29T16:55:56Z</time>
      </trkpt>
      <trkpt lat="50.600065011531115" lon="13.551619062200189">
        <ele>555</ele>
        <time>2026-08-29T16:55:57Z</time>
      </trkpt>
      <trkpt lat="50.600075488910079" lon="13.551666084676981">
        <ele>555</ele>
        <time>2026-08-29T16:55:58Z</time>
      </trkpt>
      <trkpt lat="50.600081188604236" lon="13.551718974485993">
        <ele>556</ele>
        <time>2026-08-29T16:55:59Z</time>
      </trkpt>
      <trkpt lat="50.60008579865098" lon="13.551781000569463">
        <ele>556</ele>
        <time>2026-08-29T16:56:00Z</time>
      </trkpt>
      <trkpt lat="50.600086720660329" lon="13.551843361929059">
        <ele>556</ele>
        <time>2026-08-29T16:56:01Z</time>
      </trkpt>
      <trkpt lat="50.600086636841297" lon="13.551906226202846">
        <ele>556</ele>
        <time>2026-08-29T16:56:02Z</time>
      </trkpt>
      <trkpt lat="50.600075321272016" lon="13.55197386816144">
        <ele>556</ele>
        <time>2026-08-29T16:56:03Z</time>
      </trkpt>
      <trkpt lat="50.600063083693385" lon="13.552061961963773">
        <ele>557</ele>
        <time>2026-08-29T16:56:04Z</time>
      </trkpt>
      <trkpt lat="50.600043050944805" lon="13.552138740196824">
        <ele>557</ele>
        <time>2026-08-29T16:56:05Z</time>
      </trkpt>
      <trkpt lat="50.600022682920098" lon="13.552215015515685">
        <ele>557</ele>
        <time>2026-08-29T16:56:06Z</time>
      </trkpt>
      <trkpt lat="50.600009690970182" lon="13.55229489505291">
        <ele>558</ele>
        <time>2026-08-29T16:56:07Z</time>
      </trkpt>
      <trkpt lat="50.599998878315091" lon="13.552363626658916">
        <ele>558</ele>
        <time>2026-08-29T16:56:08Z</time>
      </trkpt>
      <trkpt lat="50.600000387057662" lon="13.552446775138378">
        <ele>557</ele>
        <time>2026-08-29T16:56:09Z</time>
      </trkpt>
      <trkpt lat="50.600001560524106" lon="13.552529839798808">
        <ele>557</ele>
        <time>2026-08-29T16:56:10Z</time>
      </trkpt>
      <trkpt lat="50.600015558302402" lon="13.552624471485615">
        <ele>556</ele>
        <time>2026-08-29T16:56:11Z</time>
      </trkpt>
      <trkpt lat="50.600031148642302" lon="13.552719941362739">
        <ele>555</ele>
        <time>2026-08-29T16:56:12Z</time>
      </trkpt>
      <trkpt lat="50.600051516667008" lon="13.552808789536357">
        <ele>554</ele>
        <time>2026-08-29T16:56:13Z</time>
      </trkpt>
      <trkpt lat="50.600077919661999" lon="13.552906354889274">
        <ele>553</ele>
        <time>2026-08-29T16:56:14Z</time>
      </trkpt>
      <trkpt lat="50.600116392597556" lon="13.553014732897282">
        <ele>552</ele>
        <time>2026-08-29T16:56:15Z</time>
      </trkpt>
      <trkpt lat="50.600156122818589" lon="13.553127301856875">
        <ele>550</ele>
        <time>2026-08-29T16:56:16Z</time>
      </trkpt>
      <trkpt lat="50.600191159173846" lon="13.553248420357704">
        <ele>549</ele>
        <time>2026-08-29T16:56:17Z</time>
      </trkpt>
      <trkpt lat="50.600223848596215" lon="13.553358810022473">
        <ele>549</ele>
        <time>2026-08-29T16:56:18Z</time>
      </trkpt>
      <trkpt lat="50.600261567160487" lon="13.553463583812118">
        <ele>548</ele>
        <time>2026-08-29T16:56:19Z</time>
      </trkpt>
      <trkpt lat="50.600292580202222" lon="13.553570033982396">
        <ele>547</ele>
        <time>2026-08-29T16:56:20Z</time>
      </trkpt>
      <trkpt lat="50.600330466404557" lon="13.55367623269558">
        <ele>546</ele>
        <time>2026-08-29T16:56:21Z</time>
      </trkpt>
      <trkpt lat="50.600374136120081" lon="13.553782096132636">
        <ele>545</ele>
        <time>2026-08-29T16:56:22Z</time>
      </trkpt>
      <trkpt lat="50.600423337891698" lon="13.553884774446487">
        <ele>545</ele>
        <time>2026-08-29T16:56:23Z</time>
      </trkpt>
      <trkpt lat="50.600471030920744" lon="13.553983429446816">
        <ele>544</ele>
        <time>2026-08-29T16:56:24Z</time>
      </trkpt>
      <trkpt lat="50.600517131388187" lon="13.5540671646595">
        <ele>544</ele>
        <time>2026-08-29T16:56:25Z</time>
      </trkpt>
      <trkpt lat="50.600565662607551" lon="13.554142015054822">
        <ele>544</ele>
        <time>2026-08-29T16:56:26Z</time>
      </trkpt>
      <trkpt lat="50.600608494132757" lon="13.554213931784034">
        <ele>544</ele>
        <time>2026-08-29T16:56:27Z</time>
      </trkpt>
      <trkpt lat="50.600646128877997" lon="13.554268581792712">
        <ele>544</ele>
        <time>2026-08-29T16:56:28Z</time>
      </trkpt>
      <trkpt lat="50.600688541308045" lon="13.55432566255331">
        <ele>544</ele>
        <time>2026-08-29T16:56:29Z</time>
      </trkpt>
      <trkpt lat="50.600723410025239" lon="13.554371930658817">
        <ele>544</ele>
        <time>2026-08-29T16:56:30Z</time>
      </trkpt>
      <trkpt lat="50.60074495151639" lon="13.554419036954641">
        <ele>544</ele>
        <time>2026-08-29T16:56:31Z</time>
      </trkpt>
      <trkpt lat="50.600746208801866" lon="13.554463209584355">
        <ele>544</ele>
        <time>2026-08-29T16:56:32Z</time>
      </trkpt>
      <trkpt lat="50.600734306499362" lon="13.554499000310898">
        <ele>543</ele>
        <time>2026-08-29T16:56:33Z</time>
      </trkpt>
      <trkpt lat="50.600702874362469" lon="13.554505705833435">
        <ele>543</ele>
        <time>2026-08-29T16:56:34Z</time>
      </trkpt>
      <trkpt lat="50.600653421133757" lon="13.554484415799379">
        <ele>543</ele>
        <time>2026-08-29T16:56:35Z</time>
      </trkpt>
      <trkpt lat="50.600605728104711" lon="13.554458180442452">
        <ele>542</ele>
        <time>2026-08-29T16:56:36Z</time>
      </trkpt>
      <trkpt lat="50.600564489141107" lon="13.554439153522253">
        <ele>542</ele>
        <time>2026-08-29T16:56:37Z</time>
      </trkpt>
      <trkpt lat="50.600519981235266" lon="13.554429681971669">
        <ele>542</ele>
        <time>2026-08-29T16:56:38Z</time>
      </trkpt>
      <trkpt lat="50.600463235750794" lon="13.554422557353973">
        <ele>542</ele>
        <time>2026-08-29T16:56:39Z</time>
      </trkpt>
      <trkpt lat="50.600404730066657" lon="13.554422976449132">
        <ele>541</ele>
        <time>2026-08-29T16:56:40Z</time>
      </trkpt>
      <trkpt lat="50.600342368707061" lon="13.55442875996232">
        <ele>541</ele>
        <time>2026-08-29T16:56:41Z</time>
      </trkpt>
      <trkpt lat="50.600277241319418" lon="13.5544419195503">
        <ele>541</ele>
        <time>2026-08-29T16:56:42Z</time>
      </trkpt>
      <trkpt lat="50.600208006799221" lon="13.554458096623421">
        <ele>540</ele>
        <time>2026-08-29T16:56:43Z</time>
      </trkpt>
      <trkpt lat="50.600138520821929" lon="13.554484248161316">
        <ele>540</ele>
        <time>2026-08-29T16:56:44Z</time>
      </trkpt>
      <trkpt lat="50.6000623293221" lon="13.554516267031431">
        <ele>540</ele>
        <time>2026-08-29T16:56:45Z</time>
      </trkpt>
      <trkpt lat="50.599988820031285" lon="13.554554907605052">
        <ele>540</ele>
        <time>2026-08-29T16:56:46Z</time>
      </trkpt>
      <trkpt lat="50.599906258285046" lon="13.554595392197371">
        <ele>540</ele>
        <time>2026-08-29T16:56:47Z</time>
      </trkpt>
      <trkpt lat="50.599825037643313" lon="13.554644174873829">
        <ele>540</ele>
        <time>2026-08-29T16:56:48Z</time>
      </trkpt>
      <trkpt lat="50.599750857800245" lon="13.554692789912224">
        <ele>540</ele>
        <time>2026-08-29T16:56:49Z</time>
      </trkpt>
      <trkpt lat="50.599673660472035" lon="13.554741572588682">
        <ele>540</ele>
        <time>2026-08-29T16:56:50Z</time>
      </trkpt>
      <trkpt lat="50.599591182544827" lon="13.554785829037428">
        <ele>539</ele>
        <time>2026-08-29T16:56:51Z</time>
      </trkpt>
      <trkpt lat="50.59951163828373" lon="13.554830253124237">
        <ele>539</ele>
        <time>2026-08-29T16:56:52Z</time>
      </trkpt>
      <trkpt lat="50.599429327994585" lon="13.554883562028408">
        <ele>539</ele>
        <time>2026-08-29T16:56:53Z</time>
      </trkpt>
      <trkpt lat="50.599338468164206" lon="13.554956316947937">
        <ele>539</ele>
        <time>2026-08-29T16:56:54Z</time>
      </trkpt>
      <trkpt lat="50.599247775971889" lon="13.555026892572641">
        <ele>539</ele>
        <time>2026-08-29T16:56:55Z</time>
      </trkpt>
      <trkpt lat="50.599158257246017" lon="13.555093025788665">
        <ele>539</ele>
        <time>2026-08-29T16:56:56Z</time>
      </trkpt>
      <trkpt lat="50.599074941128492" lon="13.555164858698845">
        <ele>539</ele>
        <time>2026-08-29T16:56:57Z</time>
      </trkpt>
      <trkpt lat="50.598986931145191" lon="13.555212467908859">
        <ele>538</ele>
        <time>2026-08-29T16:56:58Z</time>
      </trkpt>
      <trkpt lat="50.598892970010638" lon="13.555254628881812">
        <ele>538</ele>
        <time>2026-08-29T16:56:59Z</time>
      </trkpt>
      <trkpt lat="50.598797081038356" lon="13.555292766541243">
        <ele>538</ele>
        <time>2026-08-29T16:57:00Z</time>
      </trkpt>
      <trkpt lat="50.598700772970915" lon="13.555308021605015">
        <ele>537</ele>
        <time>2026-08-29T16:57:01Z</time>
      </trkpt>
      <trkpt lat="50.598616702482104" lon="13.555315062403679">
        <ele>537</ele>
        <time>2026-08-29T16:57:02Z</time>
      </trkpt>
      <trkpt lat="50.598531207069755" lon="13.555315565317869">
        <ele>536</ele>
        <time>2026-08-29T16:57:03Z</time>
      </trkpt>
      <trkpt lat="50.598437748849392" lon="13.555312631651759">
        <ele>536</ele>
        <time>2026-08-29T16:57:04Z</time>
      </trkpt>
      <trkpt lat="50.598344961181283" lon="13.555289832875133">
        <ele>536</ele>
        <time>2026-08-29T16:57:05Z</time>
      </trkpt>
      <trkpt lat="50.598244545981288" lon="13.555255634710193">
        <ele>536</ele>
        <time>2026-08-29T16:57:06Z</time>
      </trkpt>
      <trkpt lat="50.598146058619022" lon="13.555229147896171">
        <ele>535</ele>
        <time>2026-08-29T16:57:07Z</time>
      </trkpt>
      <trkpt lat="50.598042458295822" lon="13.555183550342917">
        <ele>534</ele>
        <time>2026-08-29T16:57:08Z</time>
      </trkpt>
      <trkpt lat="50.597933577373624" lon="13.555134013295174">
        <ele>533</ele>
        <time>2026-08-29T16:57:09Z</time>
      </trkpt>
      <trkpt lat="50.597843891009688" lon="13.555100904777646">
        <ele>532</ele>
        <time>2026-08-29T16:57:10Z</time>
      </trkpt>
      <trkpt lat="50.597762083634734" lon="13.555093444883823">
        <ele>532</ele>
        <time>2026-08-29T16:57:11Z</time>
      </trkpt>
      <trkpt lat="50.597683880478144" lon="13.555109538137913">
        <ele>531</ele>
        <time>2026-08-29T16:57:12Z</time>
      </trkpt>
      <trkpt lat="50.597607018426061" lon="13.555139042437077">
        <ele>528</ele>
        <time>2026-08-29T16:57:13Z</time>
      </trkpt>
      <trkpt lat="50.597547087818384" lon="13.555192686617374">
        <ele>526</ele>
        <time>2026-08-29T16:57:14Z</time>
      </trkpt>
      <trkpt lat="50.597505932673812" lon="13.555276757106185">
        <ele>525</ele>
        <time>2026-08-29T16:57:15Z</time>
      </trkpt>
      <trkpt lat="50.597482714802027" lon="13.555413046851754">
        <ele>524</ele>
        <time>2026-08-29T16:57:16Z</time>
      </trkpt>
      <trkpt lat="50.597450360655785" lon="13.555537769570947">
        <ele>523</ele>
        <time>2026-08-29T16:57:17Z</time>
      </trkpt>
      <trkpt lat="50.597435440868139" lon="13.555674226954579">
        <ele>522</ele>
        <time>2026-08-29T16:57:18Z</time>
      </trkpt>
      <trkpt lat="50.597448768094182" lon="13.555780258029699">
        <ele>522</ele>
        <time>2026-08-29T16:57:19Z</time>
      </trkpt>
      <trkpt lat="50.597485732287169" lon="13.555857790634036">
        <ele>522</ele>
        <time>2026-08-29T16:57:20Z</time>
      </trkpt>
      <trkpt lat="50.597542393952608" lon="13.555932808667421">
        <ele>521</ele>
        <time>2026-08-29T16:57:21Z</time>
      </trkpt>
      <trkpt lat="50.597612047567964" lon="13.555979914963245">
        <ele>521</ele>
        <time>2026-08-29T16:57:22Z</time>
      </trkpt>
      <trkpt lat="50.597686143592" lon="13.555988632142544">
        <ele>521</ele>
        <time>2026-08-29T16:57:23Z</time>
      </trkpt>
      <trkpt lat="50.597748588770628" lon="13.555999444797635">
        <ele>520</ele>
        <time>2026-08-29T16:57:24Z</time>
      </trkpt>
      <trkpt lat="50.597810782492161" lon="13.556000869721174">
        <ele>520</ele>
        <time>2026-08-29T16:57:25Z</time>
      </trkpt>
      <trkpt lat="50.597879849374294" lon="13.556004976853728">
        <ele>520</ele>
        <time>2026-08-29T16:57:26Z</time>
      </trkpt>
      <trkpt lat="50.597956040874124" lon="13.556013694033027">
        <ele>520</ele>
        <time>2026-08-29T16:57:27Z</time>
      </trkpt>
      <trkpt lat="50.598026951774955" lon="13.55603976175189">
        <ele>520</ele>
        <time>2026-08-29T16:57:28Z</time>
      </trkpt>
      <trkpt lat="50.598103981465101" lon="13.556055352091789">
        <ele>520</ele>
        <time>2026-08-29T16:57:29Z</time>
      </trkpt>
      <trkpt lat="50.598165336996317" lon="13.556078318506479">
        <ele>519</ele>
        <time>2026-08-29T16:57:30Z</time>
      </trkpt>
      <trkpt lat="50.59822803363204" lon="13.556098686531186">
        <ele>519</ele>
        <time>2026-08-29T16:57:31Z</time>
      </trkpt>
      <trkpt lat="50.598290897905827" lon="13.55611645616591">
        <ele>519</ele>
        <time>2026-08-29T16:57:32Z</time>
      </trkpt>
      <trkpt lat="50.598357198759913" lon="13.556115366518497">
        <ele>519</ele>
        <time>2026-08-29T16:57:33Z</time>
      </trkpt>
      <trkpt lat="50.598414530977607" lon="13.556125927716494">
        <ele>519</ele>
        <time>2026-08-29T16:57:34Z</time>
      </trkpt>
      <trkpt lat="50.598474461585283" lon="13.556135399267077">
        <ele>519</ele>
        <time>2026-08-29T16:57:35Z</time>
      </trkpt>
      <trkpt lat="50.598540510982275" lon="13.556154761463404">
        <ele>519</ele>
        <time>2026-08-29T16:57:36Z</time>
      </trkpt>
      <trkpt lat="50.598600273951888" lon="13.556164316833019">
        <ele>518</ele>
        <time>2026-08-29T16:57:37Z</time>
      </trkpt>
      <trkpt lat="50.598664311692119" lon="13.556177727878094">
        <ele>519</ele>
        <time>2026-08-29T16:57:38Z</time>
      </trkpt>
      <trkpt lat="50.598725415766239" lon="13.556203963235021">
        <ele>519</ele>
        <time>2026-08-29T16:57:39Z</time>
      </trkpt>
      <trkpt lat="50.598776713013649" lon="13.556263223290443">
        <ele>519</ele>
        <time>2026-08-29T16:57:40Z</time>
      </trkpt>
      <trkpt lat="50.598806384950876" lon="13.556368919089437">
        <ele>520</ele>
        <time>2026-08-29T16:57:41Z</time>
      </trkpt>
      <trkpt lat="50.598807977512479" lon="13.556496826931834">
        <ele>520</ele>
        <time>2026-08-29T16:57:42Z</time>
      </trkpt>
      <trkpt lat="50.59876992367208" lon="13.556628422811627">
        <ele>519</ele>
        <time>2026-08-29T16:57:43Z</time>
      </trkpt>
      <trkpt lat="50.598706724122167" lon="13.55671651661396">
        <ele>518</ele>
        <time>2026-08-29T16:57:44Z</time>
      </trkpt>
      <trkpt lat="50.598641261458397" lon="13.556775189936161">
        <ele>517</ele>
        <time>2026-08-29T16:57:45Z</time>
      </trkpt>
      <trkpt lat="50.598562639206648" lon="13.556829169392586">
        <ele>517</ele>
        <time>2026-08-29T16:57:46Z</time>
      </trkpt>
      <trkpt lat="50.598478065803647" lon="13.556830678135157">
        <ele>515</ele>
        <time>2026-08-29T16:57:47Z</time>
      </trkpt>
      <trkpt lat="50.598383517935872" lon="13.556820871308446">
        <ele>514</ele>
        <time>2026-08-29T16:57:48Z</time>
      </trkpt>
      <trkpt lat="50.598306991159916" lon="13.55678441002965">
        <ele>513</ele>
        <time>2026-08-29T16:57:49Z</time>
      </trkpt>
      <trkpt lat="50.598216718062758" lon="13.556743757799268">
        <ele>514</ele>
        <time>2026-08-29T16:57:50Z</time>
      </trkpt>
      <trkpt lat="50.598125690594316" lon="13.556705536320806">
        <ele>514</ele>
        <time>2026-08-29T16:57:51Z</time>
      </trkpt>
      <trkpt lat="50.59802670031786" lon="13.556697573512793">
        <ele>513</ele>
        <time>2026-08-29T16:57:52Z</time>
      </trkpt>
      <trkpt lat="50.597931481897831" lon="13.556680725887418">
        <ele>512</ele>
        <time>2026-08-29T16:57:53Z</time>
      </trkpt>
      <trkpt lat="50.597834251821041" lon="13.556668655946851">
        <ele>512</ele>
        <time>2026-08-29T16:57:54Z</time>
      </trkpt>
      <trkpt lat="50.597750432789326" lon="13.556685503572226">
        <ele>512</ele>
        <time>2026-08-29T16:57:55Z</time>
      </trkpt>
      <trkpt lat="50.597657058387995" lon="13.556715259328485">
        <ele>511</ele>
        <time>2026-08-29T16:57:56Z</time>
      </trkpt>
      <trkpt lat="50.597572484984994" lon="13.556753899902105">
        <ele>510</ele>
        <time>2026-08-29T16:57:57Z</time>
      </trkpt>
      <trkpt lat="50.597490761429071" lon="13.556811064481735">
        <ele>509</ele>
        <time>2026-08-29T16:57:58Z</time>
      </trkpt>
      <trkpt lat="50.597399147227407" lon="13.556868983432651">
        <ele>508</ele>
        <time>2026-08-29T16:57:59Z</time>
      </trkpt>
      <trkpt lat="50.597309293225408" lon="13.556936038658023">
        <ele>507</ele>
        <time>2026-08-29T16:58:00Z</time>
      </trkpt>
      <trkpt lat="50.597222205251455" lon="13.556985324248672">
        <ele>506</ele>
        <time>2026-08-29T16:58:01Z</time>
      </trkpt>
      <trkpt lat="50.597124807536602" lon="13.557046093046665">
        <ele>505</ele>
        <time>2026-08-29T16:58:02Z</time>
      </trkpt>
      <trkpt lat="50.597035121172667" lon="13.557112058624625">
        <ele>504</ele>
        <time>2026-08-29T16:58:03Z</time>
      </trkpt>
      <trkpt lat="50.596948452293873" lon="13.557172659784555">
        <ele>504</ele>
        <time>2026-08-29T16:58:04Z</time>
      </trkpt>
      <trkpt lat="50.596857341006398" lon="13.557242983952165">
        <ele>503</ele>
        <time>2026-08-29T16:58:05Z</time>
      </trkpt>
      <trkpt lat="50.596770504489541" lon="13.557291347533464">
        <ele>502</ele>
        <time>2026-08-29T16:58:06Z</time>
      </trkpt>
      <trkpt lat="50.596676208078861" lon="13.557346668094397">
        <ele>501</ele>
        <time>2026-08-29T16:58:07Z</time>
      </trkpt>
      <trkpt lat="50.596593981608748" lon="13.557342141866684">
        <ele>502</ele>
        <time>2026-08-29T16:58:08Z</time>
      </trkpt>
      <trkpt lat="50.596515107899904" lon="13.557324875146151">
        <ele>502</ele>
        <time>2026-08-29T16:58:09Z</time>
      </trkpt>
      <trkpt lat="50.596435647457838" lon="13.557277349755168">
        <ele>502</ele>
        <time>2026-08-29T16:58:10Z</time>
      </trkpt>
      <trkpt lat="50.596369262784719" lon="13.557205097749829">
        <ele>501</ele>
        <time>2026-08-29T16:58:11Z</time>
      </trkpt>
      <trkpt lat="50.596303548663855" lon="13.557123709470034">
        <ele>501</ele>
        <time>2026-08-29T16:58:12Z</time>
      </trkpt>
      <trkpt lat="50.596252083778381" lon="13.557040058076382">
        <ele>500</ele>
        <time>2026-08-29T16:58:13Z</time>
      </trkpt>
      <trkpt lat="50.596219981089234" lon="13.556926231831312">
        <ele>499</ele>
        <time>2026-08-29T16:58:14Z</time>
      </trkpt>
      <trkpt lat="50.596199864521623" lon="13.556787176057696">
        <ele>498</ele>
        <time>2026-08-29T16:58:15Z</time>
      </trkpt>
      <trkpt lat="50.596173210069537" lon="13.556666476652026">
        <ele>498</ele>
        <time>2026-08-29T16:58:16Z</time>
      </trkpt>
      <trkpt lat="50.596147645264864" lon="13.556529181078076">
        <ele>497</ele>
        <time>2026-08-29T16:58:17Z</time>
      </trkpt>
      <trkpt lat="50.596150830388069" lon="13.556375876069069">
        <ele>494</ele>
        <time>2026-08-29T16:58:18Z</time>
      </trkpt>
      <trkpt lat="50.596163319423795" lon="13.556233216077089">
        <ele>495</ele>
        <time>2026-08-29T16:58:19Z</time>
      </trkpt>
      <trkpt lat="50.596179831773043" lon="13.556081084534526">
        <ele>493</ele>
        <time>2026-08-29T16:58:20Z</time>
      </trkpt>
      <trkpt lat="50.596194919198751" lon="13.555917972698808">
        <ele>493</ele>
        <time>2026-08-29T16:58:21Z</time>
      </trkpt>
      <trkpt lat="50.596214365214109" lon="13.555775312706828">
        <ele>492</ele>
        <time>2026-08-29T16:58:22Z</time>
      </trkpt>
      <trkpt lat="50.596235236153007" lon="13.555646147578955">
        <ele>492</ele>
        <time>2026-08-29T16:58:23Z</time>
      </trkpt>
      <trkpt lat="50.596237583085895" lon="13.55550960637629">
        <ele>490</ele>
        <time>2026-08-29T16:58:24Z</time>
      </trkpt>
      <trkpt lat="50.596237918362021" lon="13.555376753211021">
        <ele>490</ele>
        <time>2026-08-29T16:58:25Z</time>
      </trkpt>
      <trkpt lat="50.596211599186063" lon="13.555268794298172">
        <ele>490</ele>
        <time>2026-08-29T16:58:26Z</time>
      </trkpt>
      <trkpt lat="50.596167175099254" lon="13.555189250037074">
        <ele>490</ele>
        <time>2026-08-29T16:58:27Z</time>
      </trkpt>
      <trkpt lat="50.596107747405767" lon="13.555133594200015">
        <ele>489</ele>
        <time>2026-08-29T16:58:28Z</time>
      </trkpt>
      <trkpt lat="50.59605116955936" lon="13.555153459310532">
        <ele>489</ele>
        <time>2026-08-29T16:58:29Z</time>
      </trkpt>
      <trkpt lat="50.596001800149679" lon="13.555235853418708">
        <ele>487</ele>
        <time>2026-08-29T16:58:30Z</time>
      </trkpt>
      <trkpt lat="50.595951089635491" lon="13.555334256961942">
        <ele>487</ele>
        <time>2026-08-29T16:58:31Z</time>
      </trkpt>
      <trkpt lat="50.59591974131763" lon="13.555456297472119">
        <ele>487</ele>
        <time>2026-08-29T16:58:32Z</time>
      </trkpt>
      <trkpt lat="50.595885124057531" lon="13.555575320497155">
        <ele>486</ele>
        <time>2026-08-29T16:58:33Z</time>
      </trkpt>
      <trkpt lat="50.595844388008118" lon="13.555714124813676">
        <ele>485</ele>
        <time>2026-08-29T16:58:34Z</time>
      </trkpt>
      <trkpt lat="50.595799628645182" lon="13.555857874453068">
        <ele>483</ele>
        <time>2026-08-29T16:58:35Z</time>
      </trkpt>
      <trkpt lat="50.595765011385083" lon="13.556013526394963">
        <ele>483</ele>
        <time>2026-08-29T16:58:36Z</time>
      </trkpt>
      <trkpt lat="50.595725029706955" lon="13.556167250499129">
        <ele>482</ele>
        <time>2026-08-29T16:58:37Z</time>
      </trkpt>
      <trkpt lat="50.595688987523317" lon="13.55632315389812">
        <ele>482</ele>
        <time>2026-08-29T16:58:38Z</time>
      </trkpt>
      <trkpt lat="50.595653196796775" lon="13.556486768648028">
        <ele>481</ele>
        <time>2026-08-29T16:58:39Z</time>
      </trkpt>
      <trkpt lat="50.595627631992102" lon="13.55665641836822">
        <ele>479</ele>
        <time>2026-08-29T16:58:40Z</time>
      </trkpt>
      <trkpt lat="50.595603240653872" lon="13.556830426678061">
        <ele>480</ele>
        <time>2026-08-29T16:58:41Z</time>
      </trkpt>
      <trkpt lat="50.595593685284257" lon="13.556996555998921">
        <ele>479</ele>
        <time>2026-08-29T16:58:42Z</time>
      </trkpt>
      <trkpt lat="50.595589410513639" lon="13.55715530924499">
        <ele>478</ele>
        <time>2026-08-29T16:58:43Z</time>
      </trkpt>
      <trkpt lat="50.595601312816143" lon="13.557322779670358">
        <ele>477</ele>
        <time>2026-08-29T16:58:44Z</time>
      </trkpt>
      <trkpt lat="50.595608772709966" lon="13.557480275630951">
        <ele>477</ele>
        <time>2026-08-29T16:58:45Z</time>
      </trkpt>
      <trkpt lat="50.595623441040516" lon="13.557640369981527">
        <ele>476</ele>
        <time>2026-08-29T16:58:46Z</time>
      </trkpt>
      <trkpt lat="50.595644228160381" lon="13.557799709960818">
        <ele>476</ele>
        <time>2026-08-29T16:58:47Z</time>
      </trkpt>
      <trkpt lat="50.59567054733634" lon="13.557955361902714">
        <ele>476</ele>
        <time>2026-08-29T16:58:48Z</time>
      </trkpt>
      <trkpt lat="50.595703991129994" lon="13.558097435161471">
        <ele>476</ele>
        <time>2026-08-29T16:58:49Z</time>
      </trkpt>
      <trkpt lat="50.595752857625484" lon="13.558227773755789">
        <ele>477</ele>
        <time>2026-08-29T16:58:50Z</time>
      </trkpt>
      <trkpt lat="50.595787642523646" lon="13.558333301916718">
        <ele>476</ele>
        <time>2026-08-29T16:58:51Z</time>
      </trkpt>
      <trkpt lat="50.595824355259538" lon="13.558425670489669">
        <ele>476</ele>
        <time>2026-08-29T16:58:52Z</time>
      </trkpt>
      <trkpt lat="50.595849249511957" lon="13.558510495349765">
        <ele>475</ele>
        <time>2026-08-29T16:58:53Z</time>
      </trkpt>
      <trkpt lat="50.595870539546013" lon="13.558605127036572">
        <ele>474</ele>
        <time>2026-08-29T16:58:54Z</time>
      </trkpt>
      <trkpt lat="50.595853943377733" lon="13.558716271072626">
        <ele>473</ele>
        <time>2026-08-29T16:58:55Z</time>
      </trkpt>
      <trkpt lat="50.595800634473562" lon="13.558793887495995">
        <ele>473</ele>
        <time>2026-08-29T16:58:56Z</time>
      </trkpt>
      <trkpt lat="50.59573601000011" lon="13.558813668787479">
        <ele>472</ele>
        <time>2026-08-29T16:58:57Z</time>
      </trkpt>
      <trkpt lat="50.595676330849528" lon="13.558793719857931">
        <ele>471</ele>
        <time>2026-08-29T16:58:58Z</time>
      </trkpt>
      <trkpt lat="50.595642300322652" lon="13.558699171990156">
        <ele>471</ele>
        <time>2026-08-29T16:58:59Z</time>
      </trkpt>
      <trkpt lat="50.595605000853539" lon="13.558589285239577">
        <ele>470</ele>
        <time>2026-08-29T16:59:00Z</time>
      </trkpt>
      <trkpt lat="50.595561498776078" lon="13.558484176173806">
        <ele>469</ele>
        <time>2026-08-29T16:59:01Z</time>
      </trkpt>
      <trkpt lat="50.595526797696948" lon="13.558392645791173">
        <ele>469</ele>
        <time>2026-08-29T16:59:02Z</time>
      </trkpt>
      <trkpt lat="50.595499472692609" lon="13.558292733505368">
        <ele>470</ele>
        <time>2026-08-29T16:59:03Z</time>
      </trkpt>
      <trkpt lat="50.595477009192109" lon="13.55818334966898">
        <ele>469</ele>
        <time>2026-08-29T16:59:04Z</time>
      </trkpt>
      <trkpt lat="50.595454461872578" lon="13.558085365220904">
        <ele>470</ele>
        <time>2026-08-29T16:59:05Z</time>
      </trkpt>
      <trkpt lat="50.59543065726757" lon="13.557974388822913">
        <ele>469</ele>
        <time>2026-08-29T16:59:06Z</time>
      </trkpt>
      <trkpt lat="50.595405008643866" lon="13.557863077148795">
        <ele>468</ele>
        <time>2026-08-29T16:59:07Z</time>
      </trkpt>
      <trkpt lat="50.595381539314985" lon="13.557758973911405">
        <ele>469</ele>
        <time>2026-08-29T16:59:08Z</time>
      </trkpt>
      <trkpt lat="50.595355136319995" lon="13.557655541226268">
        <ele>468</ele>
        <time>2026-08-29T16:59:09Z</time>
      </trkpt>
      <trkpt lat="50.595331666991115" lon="13.557551437988877">
        <ele>468</ele>
        <time>2026-08-29T16:59:10Z</time>
      </trkpt>
      <trkpt lat="50.595305012539029" lon="13.557440377771854">
        <ele>468</ele>
        <time>2026-08-29T16:59:11Z</time>
      </trkpt>
      <trkpt lat="50.595281207934022" lon="13.557316912338138">
        <ele>468</ele>
        <time>2026-08-29T16:59:12Z</time>
      </trkpt>
      <trkpt lat="50.595260839909315" lon="13.557201996445656">
        <ele>468</ele>
        <time>2026-08-29T16:59:13Z</time>
      </trkpt>
      <trkpt lat="50.595237370580435" lon="13.557087918743491">
        <ele>467</ele>
        <time>2026-08-29T16:59:14Z</time>
      </trkpt>
      <trkpt lat="50.595224630087614" lon="13.556964788585901">
        <ele>467</ele>
        <time>2026-08-29T16:59:15Z</time>
      </trkpt>
      <trkpt lat="50.595211135223508" lon="13.556842412799597">
        <ele>467</ele>
        <time>2026-08-29T16:59:16Z</time>
      </trkpt>
      <trkpt lat="50.595209458842874" lon="13.556724730879068">
        <ele>467</ele>
        <time>2026-08-29T16:59:17Z</time>
      </trkpt>
      <trkpt lat="50.595205100253224" lon="13.556614927947521">
        <ele>467</ele>
        <time>2026-08-29T16:59:18Z</time>
      </trkpt>
      <trkpt lat="50.595201328396797" lon="13.556498419493437">
        <ele>467</ele>
        <time>2026-08-29T16:59:19Z</time>
      </trkpt>
      <trkpt lat="50.595206692814827" lon="13.556379228830338">
        <ele>466</ele>
        <time>2026-08-29T16:59:20Z</time>
      </trkpt>
      <trkpt lat="50.595204429700971" lon="13.556267330422997">
        <ele>465</ele>
        <time>2026-08-29T16:59:21Z</time>
      </trkpt>
      <trkpt lat="50.59520099312067" lon="13.556140679866076">
        <ele>465</ele>
        <time>2026-08-29T16:59:22Z</time>
      </trkpt>
      <trkpt lat="50.59519219212234" lon="13.556026685982943">
        <ele>465</ele>
        <time>2026-08-29T16:59:23Z</time>
      </trkpt>
      <trkpt lat="50.595185989513993" lon="13.55593322776258">
        <ele>464</ele>
        <time>2026-08-29T16:59:24Z</time>
      </trkpt>
      <trkpt lat="50.595170902088284" lon="13.555836919695139">
        <ele>463</ele>
        <time>2026-08-29T16:59:25Z</time>
      </trkpt>
      <trkpt lat="50.595120526850224" lon="13.555814120918512">
        <ele>462</ele>
        <time>2026-08-29T16:59:26Z</time>
      </trkpt>
      <trkpt lat="50.595075432211161" lon="13.55585846118629">
        <ele>462</ele>
        <time>2026-08-29T16:59:27Z</time>
      </trkpt>
      <trkpt lat="50.595035282894969" lon="13.555935407057405">
        <ele>461</ele>
        <time>2026-08-29T16:59:28Z</time>
      </trkpt>
      <trkpt lat="50.595002761110663" lon="13.556035738438368">
        <ele>460</ele>
        <time>2026-08-29T16:59:29Z</time>
      </trkpt>
      <trkpt lat="50.594992283731699" lon="13.556137075647712">
        <ele>460</ele>
        <time>2026-08-29T16:59:30Z</time>
      </trkpt>
      <trkpt lat="50.594995804131031" lon="13.55623179115355">
        <ele>460</ele>
        <time>2026-08-29T16:59:31Z</time>
      </trkpt>
      <trkpt lat="50.595019022002816" lon="13.556340839713812">
        <ele>460</ele>
        <time>2026-08-29T16:59:32Z</time>
      </trkpt>
      <trkpt lat="50.595038803294301" lon="13.556463550776243">
        <ele>459</ele>
        <time>2026-08-29T16:59:33Z</time>
      </trkpt>
      <trkpt lat="50.595053555443883" lon="13.556567151099443">
        <ele>458</ele>
        <time>2026-08-29T16:59:34Z</time>
      </trkpt>
      <trkpt lat="50.595056656748056" lon="13.556667985394597">
        <ele>458</ele>
        <time>2026-08-29T16:59:35Z</time>
      </trkpt>
      <trkpt lat="50.59505489654839" lon="13.556781308725476">
        <ele>457</ele>
        <time>2026-08-29T16:59:36Z</time>
      </trkpt>
      <trkpt lat="50.595061266794801" lon="13.556898990646005">
        <ele>457</ele>
        <time>2026-08-29T16:59:37Z</time>
      </trkpt>
      <trkpt lat="50.595065793022513" lon="13.557009547948837">
        <ele>457</ele>
        <time>2026-08-29T16:59:38Z</time>
      </trkpt>
      <trkpt lat="50.595070570707321" lon="13.557113315910101">
        <ele>456</ele>
        <time>2026-08-29T16:59:39Z</time>
      </trkpt>
      <trkpt lat="50.595075935125351" lon="13.557196967303753">
        <ele>455</ele>
        <time>2026-08-29T16:59:40Z</time>
      </trkpt>
      <trkpt lat="50.595076940953732" lon="13.557296125218272">
        <ele>455</ele>
        <time>2026-08-29T16:59:41Z</time>
      </trkpt>
      <trkpt lat="50.595077443867922" lon="13.557394528761506">
        <ele>455</ele>
        <time>2026-08-29T16:59:42Z</time>
      </trkpt>
      <trkpt lat="50.595083143562078" lon="13.557483293116093">
        <ele>455</ele>
        <time>2026-08-29T16:59:43Z</time>
      </trkpt>
      <trkpt lat="50.595083897933364" lon="13.55757943354547">
        <ele>455</ele>
        <time>2026-08-29T16:59:44Z</time>
      </trkpt>
      <trkpt lat="50.59508808888495" lon="13.557671885937452">
        <ele>455</ele>
        <time>2026-08-29T16:59:45Z</time>
      </trkpt>
      <trkpt lat="50.595084819942713" lon="13.557778000831604">
        <ele>455</ele>
        <time>2026-08-29T16:59:46Z</time>
      </trkpt>
      <trkpt lat="50.59508616104722" lon="13.557878080755472">
        <ele>454</ele>
        <time>2026-08-29T16:59:47Z</time>
      </trkpt>
      <trkpt lat="50.595094794407487" lon="13.557968186214566">
        <ele>454</ele>
        <time>2026-08-29T16:59:48Z</time>
      </trkpt>
      <trkpt lat="50.595099488273263" lon="13.558078827336431">
        <ele>454</ele>
        <time>2026-08-29T16:59:49Z</time>
      </trkpt>
      <trkpt lat="50.595101416110992" lon="13.558179410174489">
        <ele>453</ele>
        <time>2026-08-29T16:59:50Z</time>
      </trkpt>
      <trkpt lat="50.595120191574097" lon="13.558311760425568">
        <ele>453</ele>
        <time>2026-08-29T16:59:51Z</time>
      </trkpt>
      <trkpt lat="50.595134189352393" lon="13.558420557528734">
        <ele>452</ele>
        <time>2026-08-29T16:59:52Z</time>
      </trkpt>
      <trkpt lat="50.595149612054229" lon="13.558536311611533">
        <ele>452</ele>
        <time>2026-08-29T16:59:53Z</time>
      </trkpt>
      <trkpt lat="50.595164950937033" lon="13.558636140078306">
        <ele>452</ele>
        <time>2026-08-29T16:59:54Z</time>
      </trkpt>
      <trkpt lat="50.59518288820982" lon="13.558740327134728">
        <ele>452</ele>
        <time>2026-08-29T16:59:55Z</time>
      </trkpt>
      <trkpt lat="50.595200657844543" lon="13.558831522241235">
        <ele>451</ele>
        <time>2026-08-29T16:59:56Z</time>
      </trkpt>
      <trkpt lat="50.595209458842874" lon="13.558931266888976">
        <ele>451</ele>
        <time>2026-08-29T16:59:57Z</time>
      </trkpt>
      <trkpt lat="50.595220858231187" lon="13.559033526107669">
        <ele>451</ele>
        <time>2026-08-29T16:59:58Z</time>
      </trkpt>
      <trkpt lat="50.595236532390118" lon="13.559137461706996">
        <ele>450</ele>
        <time>2026-08-29T16:59:59Z</time>
      </trkpt>
      <trkpt lat="50.595248686149716" lon="13.559193452820182">
        <ele>449</ele>
        <time>2026-08-29T17:00:00Z</time>
      </trkpt>
      <trkpt lat="50.595260253176093" lon="13.559256065636873">
        <ele>450</ele>
        <time>2026-08-29T17:00:01Z</time>
      </trkpt>
      <trkpt lat="50.595274586230516" lon="13.559324210509658">
        <ele>449</ele>
        <time>2026-08-29T17:00:02Z</time>
      </trkpt>
      <trkpt lat="50.595289086923003" lon="13.559388918802142">
        <ele>449</ele>
        <time>2026-08-29T17:00:03Z</time>
      </trkpt>
      <trkpt lat="50.595287578180432" lon="13.559436528012156">
        <ele>449</ele>
        <time>2026-08-29T17:00:04Z</time>
      </trkpt>
      <trkpt lat="50.595291769132018" lon="13.559481706470251">
        <ele>449</ele>
        <time>2026-08-29T17:00:05Z</time>
      </trkpt>
      <trkpt lat="50.595293613150716" lon="13.559523029252887">
        <ele>448</ele>
        <time>2026-08-29T17:00:06Z</time>
      </trkpt>
      <trkpt lat="50.595290428027511" lon="13.559543900191784">
        <ele>448</ele>
        <time>2026-08-29T17:00:07Z</time>
      </trkpt>
      <trkpt lat="50.595293948426843" lon="13.559555634856224">
        <ele>448</ele>
        <time>2026-08-29T17:00:08Z</time>
      </trkpt>
      <trkpt lat="50.595294032245874" lon="13.559580696746707">
        <ele>448</ele>
        <time>2026-08-29T17:00:09Z</time>
      </trkpt>
      <trkpt lat="50.595292188227177" lon="13.559608859941363">
        <ele>447</ele>
        <time>2026-08-29T17:00:10Z</time>
      </trkpt>
      <trkpt lat="50.595298390835524" lon="13.559633418917656">
        <ele>447</ele>
        <time>2026-08-29T17:00:11Z</time>
      </trkpt>
      <trkpt lat="50.595306856557727" lon="13.559663174673915">
        <ele>447</ele>
        <time>2026-08-29T17:00:12Z</time>
      </trkpt>
      <trkpt lat="50.595305599272251" lon="13.559705754742026">
        <ele>447</ele>
        <time>2026-08-29T17:00:13Z</time>
      </trkpt>
      <trkpt lat="50.595294199883938" lon="13.559759231284261">
        <ele>447</ele>
        <time>2026-08-29T17:00:14Z</time>
      </trkpt>
      <trkpt lat="50.595260839909315" lon="13.559808852151036">
        <ele>446</ele>
        <time>2026-08-29T17:00:15Z</time>
      </trkpt>
      <trkpt lat="50.595208201557398" lon="13.559833243489265">
        <ele>448</ele>
        <time>2026-08-29T17:00:16Z</time>
      </trkpt>
      <trkpt lat="50.595167549327016" lon="13.559814048931003">
        <ele>448</ele>
        <time>2026-08-29T17:00:17Z</time>
      </trkpt>
      <trkpt lat="50.595124969258904" lon="13.559779347851872">
        <ele>448</ele>
        <time>2026-08-29T17:00:18Z</time>
      </trkpt>
      <trkpt lat="50.59508909471333" lon="13.559710280969739">
        <ele>448</ele>
        <time>2026-08-29T17:00:19Z</time>
      </trkpt>
      <trkpt lat="50.595045424997807" lon="13.559646075591445">
        <ele>448</ele>
        <time>2026-08-29T17:00:20Z</time>
      </trkpt>
      <trkpt lat="50.595003431662917" lon="13.559572566300631">
        <ele>449</ele>
        <time>2026-08-29T17:00:21Z</time>
      </trkpt>
      <trkpt lat="50.594966132193804" lon="13.559501487761736">
        <ele>450</ele>
        <time>2026-08-29T17:00:22Z</time>
      </trkpt>
      <trkpt lat="50.594919947907329" lon="13.559422949329019">
        <ele>450</ele>
        <time>2026-08-29T17:00:23Z</time>
      </trkpt>
      <trkpt lat="50.594876697286963" lon="13.559337537735701">
        <ele>449</ele>
        <time>2026-08-29T17:00:24Z</time>
      </trkpt>
      <trkpt lat="50.594830513000488" lon="13.559250365942717">
        <ele>449</ele>
        <time>2026-08-29T17:00:25Z</time>
      </trkpt>
      <trkpt lat="50.594782903790474" lon="13.559157494455576">
        <ele>449</ele>
        <time>2026-08-29T17:00:26Z</time>
      </trkpt>
      <trkpt lat="50.594738982617855" lon="13.559055486693978">
        <ele>448</ele>
        <time>2026-08-29T17:00:27Z</time>
      </trkpt>
      <trkpt lat="50.594685170799494" lon="13.558964878320694">
        <ele>449</ele>
        <time>2026-08-29T17:00:28Z</time>
      </trkpt>
      <trkpt lat="50.594637310132384" lon="13.55886597186327">
        <ele>448</ele>
        <time>2026-08-29T17:00:29Z</time>
      </trkpt>
      <trkpt lat="50.594587940722704" lon="13.5587746091187">
        <ele>449</ele>
        <time>2026-08-29T17:00:30Z</time>
      </trkpt>
      <trkpt lat="50.594529518857598" lon="13.558683665469289">
        <ele>449</ele>
        <time>2026-08-29T17:00:31Z</time>
      </trkpt>
      <trkpt lat="50.594480652362108" lon="13.558579226955771">
        <ele>448</ele>
        <time>2026-08-29T17:00:32Z</time>
      </trkpt>
      <trkpt lat="50.59442893601954" lon="13.558477303013206">
        <ele>448</ele>
        <time>2026-08-29T17:00:33Z</time>
      </trkpt>
      <trkpt lat="50.59438006952405" lon="13.558387281373143">
        <ele>448</ele>
        <time>2026-08-29T17:00:34Z</time>
      </trkpt>
      <trkpt lat="50.594343524426222" lon="13.558282842859626">
        <ele>447</ele>
        <time>2026-08-29T17:00:35Z</time>
      </trkpt>
      <trkpt lat="50.594316367059946" lon="13.558170357719064">
        <ele>447</ele>
        <time>2026-08-29T17:00:36Z</time>
      </trkpt>
      <trkpt lat="50.594307901337743" lon="13.558064494282007">
        <ele>446</ele>
        <time>2026-08-29T17:00:37Z</time>
      </trkpt>
      <trkpt lat="50.594311086460948" lon="13.557945219799876">
        <ele>446</ele>
        <time>2026-08-29T17:00:38Z</time>
      </trkpt>
      <trkpt lat="50.594307063147426" lon="13.557827789336443">
        <ele>445</ele>
        <time>2026-08-29T17:00:39Z</time>
      </trkpt>
      <trkpt lat="50.594302704557776" lon="13.557713460177183">
        <ele>445</ele>
        <time>2026-08-29T17:00:40Z</time>
      </trkpt>
      <trkpt lat="50.594279989600182" lon="13.557596951723099">
        <ele>444</ele>
        <time>2026-08-29T17:00:41Z</time>
      </trkpt>
      <trkpt lat="50.5942427739501" lon="13.557481868192554">
        <ele>444</ele>
        <time>2026-08-29T17:00:42Z</time>
      </trkpt>
      <trkpt lat="50.594169432297349" lon="13.557443227618933">
        <ele>443</ele>
        <time>2026-08-29T17:00:43Z</time>
      </trkpt>
      <trkpt lat="50.594077650457621" lon="13.557437360286713">
        <ele>442</ele>
        <time>2026-08-29T17:00:44Z</time>
      </trkpt>
      <trkpt lat="50.593992238864303" lon="13.557448508217931">
        <ele>442</ele>
        <time>2026-08-29T17:00:45Z</time>
      </trkpt>
      <trkpt lat="50.593904312700033" lon="13.557471642270684">
        <ele>442</ele>
        <time>2026-08-29T17:00:46Z</time>
      </trkpt>
      <trkpt lat="50.593814039602876" lon="13.557472312822938">
        <ele>442</ele>
        <time>2026-08-29T17:00:47Z</time>
      </trkpt>
      <trkpt lat="50.593735752627254" lon="13.557440880686045">
        <ele>442</ele>
        <time>2026-08-29T17:00:48Z</time>
      </trkpt>
      <trkpt lat="50.593664841726422" lon="13.557369383051991">
        <ele>442</ele>
        <time>2026-08-29T17:00:49Z</time>
      </trkpt>
      <trkpt lat="50.593596026301384" lon="13.557283384725451">
        <ele>440</ele>
        <time>2026-08-29T17:00:50Z</time>
      </trkpt>
      <trkpt lat="50.593538023531437" lon="13.557201409712434">
        <ele>439</ele>
        <time>2026-08-29T17:00:51Z</time>
      </trkpt>
      <trkpt lat="50.593478679656982" lon="13.557121446356177">
        <ele>439</ele>
        <time>2026-08-29T17:00:52Z</time>
      </trkpt>
      <trkpt lat="50.593420676887035" lon="13.557053050026298">
        <ele>438</ele>
        <time>2026-08-29T17:00:53Z</time>
      </trkpt>
      <trkpt lat="50.59334322810173" lon="13.557001668959856">
        <ele>438</ele>
        <time>2026-08-29T17:00:54Z</time>
      </trkpt>
      <trkpt lat="50.593281872570515" lon="13.556991694495082">
        <ele>437</ele>
        <time>2026-08-29T17:00:55Z</time>
      </trkpt>
      <trkpt lat="50.593233676627278" lon="13.557016588747501">
        <ele>436</ele>
        <time>2026-08-29T17:00:56Z</time>
      </trkpt>
      <trkpt lat="50.593187576159835" lon="13.557081967592239">
        <ele>435</ele>
        <time>2026-08-29T17:00:57Z</time>
      </trkpt>
      <trkpt lat="50.593165950849652" lon="13.557184562087059">
        <ele>434</ele>
        <time>2026-08-29T17:00:58Z</time>
      </trkpt>
      <trkpt lat="50.593157568946481" lon="13.557281456887722">
        <ele>432</ele>
        <time>2026-08-29T17:00:59Z</time>
      </trkpt>
      <trkpt lat="50.593204339966178" lon="13.557375418022275">
        <ele>432</ele>
        <time>2026-08-29T17:01:00Z</time>
      </trkpt>
      <trkpt lat="50.59327038936317" lon="13.557464182376862">
        <ele>431</ele>
        <time>2026-08-29T17:01:01Z</time>
      </trkpt>
      <trkpt lat="50.593324201181531" lon="13.557531321421266">
        <ele>430</ele>
        <time>2026-08-29T17:01:02Z</time>
      </trkpt>
      <trkpt lat="50.593385640531778" lon="13.557597873732448">
        <ele>429</ele>
        <time>2026-08-29T17:01:03Z</time>
      </trkpt>
      <trkpt lat="50.593452779576182" lon="13.557664258405566">
        <ele>429</ele>
        <time>2026-08-29T17:01:04Z</time>
      </trkpt>
      <trkpt lat="50.593524947762489" lon="13.557751514017582">
        <ele>428</ele>
        <time>2026-08-29T17:01:05Z</time>
      </trkpt>
      <trkpt lat="50.593592002987862" lon="13.557822341099381">
        <ele>428</ele>
        <time>2026-08-29T17:01:06Z</time>
      </trkpt>
      <trkpt lat="50.593653190881014" lon="13.557909009978175">
        <ele>427</ele>
        <time>2026-08-29T17:01:07Z</time>
      </trkpt>
      <trkpt lat="50.593700297176838" lon="13.5580182261765">
        <ele>427</ele>
        <time>2026-08-29T17:01:08Z</time>
      </trkpt>
      <trkpt lat="50.593733740970492" lon="13.558160550892353">
        <ele>426</ele>
        <time>2026-08-29T17:01:09Z</time>
      </trkpt>
      <trkpt lat="50.59374975040555" lon="13.558294326066971">
        <ele>425</ele>
        <time>2026-08-29T17:01:10Z</time>
      </trkpt>
      <trkpt lat="50.593750337138772" lon="13.558452073484659">
        <ele>424</ele>
        <time>2026-08-29T17:01:11Z</time>
      </trkpt>
      <trkpt lat="50.593745559453964" lon="13.558615017682314">
        <ele>423</ele>
        <time>2026-08-29T17:01:12Z</time>
      </trkpt>
      <trkpt lat="50.593744302168489" lon="13.558787433430552">
        <ele>422</ele>
        <time>2026-08-29T17:01:13Z</time>
      </trkpt>
      <trkpt lat="50.593751091510057" lon="13.558950880542397">
        <ele>421</ele>
        <time>2026-08-29T17:01:14Z</time>
      </trkpt>
      <trkpt lat="50.593749079853296" lon="13.559112567454576">
        <ele>420</ele>
        <time>2026-08-29T17:01:15Z</time>
      </trkpt>
      <trkpt lat="50.593742458149791" lon="13.559278780594468">
        <ele>419</ele>
        <time>2026-08-29T17:01:16Z</time>
      </trkpt>
      <trkpt lat="50.593736926093698" lon="13.559446502476931">
        <ele>418</ele>
        <time>2026-08-29T17:01:17Z</time>
      </trkpt>
      <trkpt lat="50.593737764284015" lon="13.559609865769744">
        <ele>417</ele>
        <time>2026-08-29T17:01:18Z</time>
      </trkpt>
      <trkpt lat="50.593734411522746" lon="13.559768283739686">
        <ele>416</ele>
        <time>2026-08-29T17:01:19Z</time>
      </trkpt>
      <trkpt lat="50.593729298561811" lon="13.559942794963717">
        <ele>416</ele>
        <time>2026-08-29T17:01:20Z</time>
      </trkpt>
      <trkpt lat="50.593728879466653" lon="13.56010221876204">
        <ele>415</ele>
        <time>2026-08-29T17:01:21Z</time>
      </trkpt>
      <trkpt lat="50.593731980770826" lon="13.56027614325285">
        <ele>414</ele>
        <time>2026-08-29T17:01:22Z</time>
      </trkpt>
      <trkpt lat="50.593737009912729" lon="13.56044671498239">
        <ele>415</ele>
        <time>2026-08-29T17:01:23Z</time>
      </trkpt>
      <trkpt lat="50.593756791204214" lon="13.560597421601415">
        <ele>415</ele>
        <time>2026-08-29T17:01:24Z</time>
      </trkpt>
      <trkpt lat="50.593796353787184" lon="13.560749720782042">
        <ele>413</ele>
        <time>2026-08-29T17:01:25Z</time>
      </trkpt>
      <trkpt lat="50.593830049037933" lon="13.560887100175023">
        <ele>412</ele>
        <time>2026-08-29T17:01:26Z</time>
      </trkpt>
      <trkpt lat="50.593853099271655" lon="13.56101299636066">
        <ele>411</ele>
        <time>2026-08-29T17:01:27Z</time>
      </trkpt>
      <trkpt lat="50.593860391527414" lon="13.561110980808735">
        <ele>410</ele>
        <time>2026-08-29T17:01:28Z</time>
      </trkpt>
      <trkpt lat="50.593839520588517" lon="13.561209971085191">
        <ele>408</ele>
        <time>2026-08-29T17:01:29Z</time>
      </trkpt>
      <trkpt lat="50.593794006854296" lon="13.561273422092199">
        <ele>407</ele>
        <time>2026-08-29T17:01:30Z</time>
      </trkpt>
      <trkpt lat="50.593739273026586" lon="13.561311475932598">
        <ele>406</ele>
        <time>2026-08-29T17:01:31Z</time>
      </trkpt>
      <trkpt lat="50.593688143417239" lon="13.561355983838439">
        <ele>406</ele>
        <time>2026-08-29T17:01:32Z</time>
      </trkpt>
      <trkpt lat="50.593658555299044" lon="13.561422368511558">
        <ele>406</ele>
        <time>2026-08-29T17:01:33Z</time>
      </trkpt>
      <trkpt lat="50.593648832291365" lon="13.56151876039803">
        <ele>405</ele>
        <time>2026-08-29T17:01:34Z</time>
      </trkpt>
      <trkpt lat="50.593659980222583" lon="13.561632419005036">
        <ele>404</ele>
        <time>2026-08-29T17:01:35Z</time>
      </trkpt>
      <trkpt lat="50.593678839504719" lon="13.561740210279822">
        <ele>403</ele>
        <time>2026-08-29T17:01:36Z</time>
      </trkpt>
      <trkpt lat="50.593690322712064" lon="13.561860742047429">
        <ele>403</ele>
        <time>2026-08-29T17:01:37Z</time>
      </trkpt>
      <trkpt lat="50.593705158680677" lon="13.561971131712198">
        <ele>403</ele>
        <time>2026-08-29T17:01:38Z</time>
      </trkpt>
      <trkpt lat="50.59371555224061" lon="13.562085377052426">
        <ele>402</ele>
        <time>2026-08-29T17:01:39Z</time>
      </trkpt>
      <trkpt lat="50.593714797869325" lon="13.56221261434257">
        <ele>402</ele>
        <time>2026-08-29T17:01:40Z</time>
      </trkpt>
      <trkpt lat="50.59372385032475" lon="13.562339767813683">
        <ele>402</ele>
        <time>2026-08-29T17:01:41Z</time>
      </trkpt>
      <trkpt lat="50.593740530312061" lon="13.562464490532875">
        <ele>402</ele>
        <time>2026-08-29T17:01:42Z</time>
      </trkpt>
      <trkpt lat="50.593747654929757" lon="13.562579406425357">
        <ele>402</ele>
        <time>2026-08-29T17:01:43Z</time>
      </trkpt>
      <trkpt lat="50.593759641051292" lon="13.562687281519175">
        <ele>403</ele>
        <time>2026-08-29T17:01:44Z</time>
      </trkpt>
      <trkpt lat="50.593776907771826" lon="13.562794150784612">
        <ele>403</ele>
        <time>2026-08-29T17:01:45Z</time>
      </trkpt>
      <trkpt lat="50.593794006854296" lon="13.562898002564907">
        <ele>403</ele>
        <time>2026-08-29T17:01:46Z</time>
      </trkpt>
      <trkpt lat="50.593807250261307" lon="13.563001016154885">
        <ele>403</ele>
        <time>2026-08-29T17:01:47Z</time>
      </trkpt>
      <trkpt lat="50.593829462304711" lon="13.563104616478086">
        <ele>403</ele>
        <time>2026-08-29T17:01:48Z</time>
      </trkpt>
      <trkpt lat="50.593850249424577" lon="13.563198996707797">
        <ele>403</ele>
        <time>2026-08-29T17:01:49Z</time>
      </trkpt>
      <trkpt lat="50.593858379870653" lon="13.563301339745522">
        <ele>404</ele>
        <time>2026-08-29T17:01:50Z</time>
      </trkpt>
      <trkpt lat="50.593859972432256" lon="13.563417010009289">
        <ele>404</ele>
        <time>2026-08-29T17:01:51Z</time>
      </trkpt>
      <trkpt lat="50.593880088999867" lon="13.563515497371554">
        <ele>405</ele>
        <time>2026-08-29T17:01:52Z</time>
      </trkpt>
      <trkpt lat="50.593884950503707" lon="13.56360912322998">
        <ele>405</ele>
        <time>2026-08-29T17:01:53Z</time>
      </trkpt>
      <trkpt lat="50.593897355720401" lon="13.563704844564199">
        <ele>405</ele>
        <time>2026-08-29T17:01:54Z</time>
      </trkpt>
      <trkpt lat="50.593916801735759" lon="13.563802242279053">
        <ele>405</ele>
        <time>2026-08-29T17:01:55Z</time>
      </trkpt>
      <trkpt lat="50.593919400125742" lon="13.563898717984557">
        <ele>406</ele>
        <time>2026-08-29T17:01:56Z</time>
      </trkpt>
      <trkpt lat="50.593928284943104" lon="13.563999552279711">
        <ele>405</ele>
        <time>2026-08-29T17:01:57Z</time>
      </trkpt>
      <trkpt lat="50.593942701816559" lon="13.564103236421943">
        <ele>405</ele>
        <time>2026-08-29T17:01:58Z</time>
      </trkpt>
      <trkpt lat="50.593956280499697" lon="13.564204573631287">
        <ele>404</ele>
        <time>2026-08-29T17:01:59Z</time>
      </trkpt>
      <trkpt lat="50.593962818384171" lon="13.564301384612918">
        <ele>403</ele>
        <time>2026-08-29T17:02:00Z</time>
      </trkpt>
      <trkpt lat="50.593962650746107" lon="13.564393669366837">
        <ele>402</ele>
        <time>2026-08-29T17:02:01Z</time>
      </trkpt>
      <trkpt lat="50.593961980193853" lon="13.564485870301723">
        <ele>401</ele>
        <time>2026-08-29T17:02:02Z</time>
      </trkpt>
      <trkpt lat="50.593960890546441" lon="13.564571365714073">
        <ele>400</ele>
        <time>2026-08-29T17:02:03Z</time>
      </trkpt>
      <trkpt lat="50.59395837597549" lon="13.564653927460313">
        <ele>399</ele>
        <time>2026-08-29T17:02:04Z</time>
      </trkpt>
      <trkpt lat="50.593945384025574" lon="13.56475249864161">
        <ele>399</ele>
        <time>2026-08-29T17:02:05Z</time>
      </trkpt>
      <trkpt lat="50.593926021829247" lon="13.56483749113977">
        <ele>398</ele>
        <time>2026-08-29T17:02:06Z</time>
      </trkpt>
      <trkpt lat="50.593913365155458" lon="13.564909240230918">
        <ele>398</ele>
        <time>2026-08-29T17:02:07Z</time>
      </trkpt>
      <trkpt lat="50.593893751502037" lon="13.564982330426574">
        <ele>398</ele>
        <time>2026-08-29T17:02:08Z</time>
      </trkpt>
      <trkpt lat="50.593874556943774" lon="13.565049804747105">
        <ele>398</ele>
        <time>2026-08-29T17:02:09Z</time>
      </trkpt>
      <trkpt lat="50.593861816450953" lon="13.565127337351441">
        <ele>397</ele>
        <time>2026-08-29T17:02:10Z</time>
      </trkpt>
      <trkpt lat="50.593846309930086" lon="13.565196236595511">
        <ele>396</ele>
        <time>2026-08-29T17:02:11Z</time>
      </trkpt>
      <trkpt lat="50.593837928026915" lon="13.56526262126863">
        <ele>396</ele>
        <time>2026-08-29T17:02:12Z</time>
      </trkpt>
      <trkpt lat="50.59382351115346" lon="13.565339483320713">
        <ele>396</ele>
        <time>2026-08-29T17:02:13Z</time>
      </trkpt>
      <trkpt lat="50.593808339908719" lon="13.565420871600509">
        <ele>396</ele>
        <time>2026-08-29T17:02:14Z</time>
      </trkpt>
      <trkpt lat="50.593787720426917" lon="13.565504942089319">
        <ele>395</ele>
        <time>2026-08-29T17:02:15Z</time>
      </trkpt>
      <trkpt lat="50.593774309381843" lon="13.565604267641902">
        <ele>395</ele>
        <time>2026-08-29T17:02:16Z</time>
      </trkpt>
      <trkpt lat="50.593760060146451" lon="13.565704096108675">
        <ele>394</ele>
        <time>2026-08-29T17:02:17Z</time>
      </trkpt>
      <trkpt lat="50.59374145232141" lon="13.565805349498987">
        <ele>394</ele>
        <time>2026-08-29T17:02:18Z</time>
      </trkpt>
      <trkpt lat="50.593725442886353" lon="13.565924959257245">
        <ele>394</ele>
        <time>2026-08-29T17:02:19Z</time>
      </trkpt>
      <trkpt lat="50.593712031841278" lon="13.566037779673934">
        <ele>393</ele>
        <time>2026-08-29T17:02:20Z</time>
      </trkpt>
      <trkpt lat="50.593692837283015" lon="13.56615336611867">
        <ele>392</ele>
        <time>2026-08-29T17:02:21Z</time>
      </trkpt>
      <trkpt lat="50.593674145638943" lon="13.566273311153054">
        <ele>391</ele>
        <time>2026-08-29T17:02:22Z</time>
      </trkpt>
      <trkpt lat="50.593653609976172" lon="13.566392585635185">
        <ele>391</ele>
        <time>2026-08-29T17:02:23Z</time>
      </trkpt>
      <trkpt lat="50.593627039343119" lon="13.566504400223494">
        <ele>390</ele>
        <time>2026-08-29T17:02:24Z</time>
      </trkpt>
      <trkpt lat="50.593593679368496" lon="13.566592242568731">
        <ele>389</ele>
        <time>2026-08-29T17:02:25Z</time>
      </trkpt>
      <trkpt lat="50.593535173684359" lon="13.566646222025156">
        <ele>388</ele>
        <time>2026-08-29T17:02:26Z</time>
      </trkpt>
      <trkpt lat="50.593476081266999" lon="13.566694250330329">
        <ele>387</ele>
        <time>2026-08-29T17:02:27Z</time>
      </trkpt>
      <trkpt lat="50.593424113467336" lon="13.56673632748425">
        <ele>387</ele>
        <time>2026-08-29T17:02:28Z</time>
      </trkpt>
      <trkpt lat="50.593383796513081" lon="13.566772369667888">
        <ele>385</ele>
        <time>2026-08-29T17:02:29Z</time>
      </trkpt>
      <trkpt lat="50.593347335234284" lon="13.566818470135331">
        <ele>385</ele>
        <time>2026-08-29T17:02:30Z</time>
      </trkpt>
      <trkpt lat="50.593318752944469" lon="13.566860463470221">
        <ele>385</ele>
        <time>2026-08-29T17:02:31Z</time>
      </trkpt>
      <trkpt lat="50.593299306929111" lon="13.566880160942674">
        <ele>385</ele>
        <time>2026-08-29T17:02:32Z</time>
      </trkpt>
      <trkpt lat="50.593280699104071" lon="13.56691125780344">
        <ele>385</ele>
        <time>2026-08-29T17:02:33Z</time>
      </trkpt>
      <trkpt lat="50.593283800408244" lon="13.566954173147678">
        <ele>385</ele>
        <time>2026-08-29T17:02:34Z</time>
      </trkpt>
      <trkpt lat="50.593287069350481" lon="13.567006224766374">
        <ele>385</ele>
        <time>2026-08-29T17:02:35Z</time>
      </trkpt>
      <trkpt lat="50.593285812065005" lon="13.56706858612597">
        <ele>385</ele>
        <time>2026-08-29T17:02:36Z</time>
      </trkpt>
      <trkpt lat="50.593306263908744" lon="13.56712088920176">
        <ele>385</ele>
        <time>2026-08-29T17:02:37Z</time>
      </trkpt>
      <trkpt lat="50.593325207009912" lon="13.567185429856181">
        <ele>384</ele>
        <time>2026-08-29T17:02:38Z</time>
      </trkpt>
      <trkpt lat="50.593336019665003" lon="13.567254664376378">
        <ele>384</ele>
        <time>2026-08-29T17:02:39Z</time>
      </trkpt>
      <trkpt lat="50.593358147889376" lon="13.567307470366359">
        <ele>383</ele>
        <time>2026-08-29T17:02:40Z</time>
      </trkpt>
      <trkpt lat="50.593366948887706" lon="13.567377375438809">
        <ele>382</ele>
        <time>2026-08-29T17:02:41Z</time>
      </trkpt>
      <trkpt lat="50.593380862846971" lon="13.567459266632795">
        <ele>382</ele>
        <time>2026-08-29T17:02:42Z</time>
      </trkpt>
      <trkpt lat="50.593392932787538" lon="13.567540571093559">
        <ele>382</ele>
        <time>2026-08-29T17:02:43Z</time>
      </trkpt>
      <trkpt lat="50.593410870060325" lon="13.567619612440467">
        <ele>382</ele>
        <time>2026-08-29T17:02:44Z</time>
      </trkpt>
      <trkpt lat="50.593428388237953" lon="13.567704604938626">
        <ele>381</ele>
        <time>2026-08-29T17:02:45Z</time>
      </trkpt>
      <trkpt lat="50.59344925917685" lon="13.56779370456934">
        <ele>381</ele>
        <time>2026-08-29T17:02:46Z</time>
      </trkpt>
      <trkpt lat="50.593471387401223" lon="13.567889928817749">
        <ele>381</ele>
        <time>2026-08-29T17:02:47Z</time>
      </trkpt>
      <trkpt lat="50.593491923063993" lon="13.567996714264154">
        <ele>381</ele>
        <time>2026-08-29T17:02:48Z</time>
      </trkpt>
      <trkpt lat="50.59351421892643" lon="13.568096710368991">
        <ele>380</ele>
        <time>2026-08-29T17:02:49Z</time>
      </trkpt>
      <trkpt lat="50.593542130663991" lon="13.568204753100872">
        <ele>381</ele>
        <time>2026-08-29T17:02:50Z</time>
      </trkpt>
      <trkpt lat="50.593565432354808" lon="13.568310448899865">
        <ele>380</ele>
        <time>2026-08-29T17:02:51Z</time>
      </trkpt>
      <trkpt lat="50.593583956360817" lon="13.568422514945269">
        <ele>380</ele>
        <time>2026-08-29T17:02:52Z</time>
      </trkpt>
      <trkpt lat="50.593607760965824" lon="13.568535586819053">
        <ele>380</ele>
        <time>2026-08-29T17:02:53Z</time>
      </trkpt>
      <trkpt lat="50.593627709895372" lon="13.568649832159281">
        <ele>379</ele>
        <time>2026-08-29T17:02:54Z</time>
      </trkpt>
      <trkpt lat="50.593649670481682" lon="13.568767514079809">
        <ele>379</ele>
        <time>2026-08-29T17:02:55Z</time>
      </trkpt>
      <trkpt lat="50.593679342418909" lon="13.568881927058101">
        <ele>378</ele>
        <time>2026-08-29T17:02:56Z</time>
      </trkpt>
      <trkpt lat="50.593710104003549" lon="13.569002710282803">
        <ele>377</ele>
        <time>2026-08-29T17:02:57Z</time>
      </trkpt>
      <trkpt lat="50.593742290511727" lon="13.569129360839725">
        <ele>376</ele>
        <time>2026-08-29T17:02:58Z</time>
      </trkpt>
      <trkpt lat="50.593773387372494" lon="13.569267578423023">
        <ele>375</ele>
        <time>2026-08-29T17:02:59Z</time>
      </trkpt>
      <trkpt lat="50.593809429556131" lon="13.569415267556906">
        <ele>374</ele>
        <time>2026-08-29T17:03:00Z</time>
      </trkpt>
      <trkpt lat="50.593847064301372" lon="13.569567315280437">
        <ele>372</ele>
        <time>2026-08-29T17:03:01Z</time>
      </trkpt>
      <trkpt lat="50.593882603570819" lon="13.569731432944536">
        <ele>371</ele>
        <time>2026-08-29T17:03:02Z</time>
      </trkpt>
      <trkpt lat="50.593914203345776" lon="13.569902088493109">
        <ele>370</ele>
        <time>2026-08-29T17:03:03Z</time>
      </trkpt>
      <trkpt lat="50.593934487551451" lon="13.570077857002616">
        <ele>369</ele>
        <time>2026-08-29T17:03:04Z</time>
      </trkpt>
      <trkpt lat="50.593946641311049" lon="13.570259744301438">
        <ele>368</ele>
        <time>2026-08-29T17:03:05Z</time>
      </trkpt>
      <trkpt lat="50.593940941616893" lon="13.570442218333483">
        <ele>367</ele>
        <time>2026-08-29T17:03:06Z</time>
      </trkpt>
      <trkpt lat="50.593927195295691" lon="13.5706174839288">
        <ele>366</ele>
        <time>2026-08-29T17:03:07Z</time>
      </trkpt>
      <trkpt lat="50.593906408175826" lon="13.570785541087389">
        <ele>365</ele>
        <time>2026-08-29T17:03:08Z</time>
      </trkpt>
      <trkpt lat="50.593876149505377" lon="13.570961644873023">
        <ele>365</ele>
        <time>2026-08-29T17:03:09Z</time>
      </trkpt>
      <trkpt lat="50.593833988532424" lon="13.571126349270344">
        <ele>364</ele>
        <time>2026-08-29T17:03:10Z</time>
      </trkpt>
      <trkpt lat="50.59378394857049" lon="13.571284767240286">
        <ele>364</ele>
        <time>2026-08-29T17:03:11Z</time>
      </trkpt>
      <trkpt lat="50.593728041276336" lon="13.571426337584853">
        <ele>363</ele>
        <time>2026-08-29T17:03:12Z</time>
      </trkpt>
      <trkpt lat="50.593669535592198" lon="13.571565560996532">
        <ele>362</ele>
        <time>2026-08-29T17:03:13Z</time>
      </trkpt>
      <trkpt lat="50.593610191717744" lon="13.57169589959085">
        <ele>362</ele>
        <time>2026-08-29T17:03:14Z</time>
      </trkpt>
      <trkpt lat="50.593547997996211" lon="13.571805786341429">
        <ele>361</ele>
        <time>2026-08-29T17:03:15Z</time>
      </trkpt>
      <trkpt lat="50.593481697142124" lon="13.571910057216883">
        <ele>361</ele>
        <time>2026-08-29T17:03:16Z</time>
      </trkpt>
      <trkpt lat="50.593419000506401" lon="13.572001755237579">
        <ele>361</ele>
        <time>2026-08-29T17:03:17Z</time>
      </trkpt>
      <trkpt lat="50.59334322810173" lon="13.5720853228122">
        <ele>360</ele>
        <time>2026-08-29T17:03:18Z</time>
      </trkpt>
      <trkpt lat="50.593264019116759" lon="13.572156904265285">
        <ele>360</ele>
        <time>2026-08-29T17:03:19Z</time>
      </trkpt>
      <trkpt lat="50.593185229226947" lon="13.572235694155097">
        <ele>360</ele>
        <time>2026-08-29T17:03:20Z</time>
      </trkpt>
      <trkpt lat="50.593105601146817" lon="13.5723184235394">
        <ele>359</ele>
        <time>2026-08-29T17:03:21Z</time>
      </trkpt>
      <trkpt lat="50.593029409646988" lon="13.572402242571115">
        <ele>359</ele>
        <time>2026-08-29T17:03:22Z</time>
      </trkpt>
      <trkpt lat="50.592946596443653" lon="13.572481032460928">
        <ele>358</ele>
        <time>2026-08-29T17:03:23Z</time>
      </trkpt>
      <trkpt lat="50.592859508469701" lon="13.572558481246233">
        <ele>358</ele>
        <time>2026-08-29T17:03:24Z</time>
      </trkpt>
      <trkpt lat="50.592771163210273" lon="13.572624949738383">
        <ele>359</ele>
        <time>2026-08-29T17:03:25Z</time>
      </trkpt>
      <trkpt lat="50.592681560665369" lon="13.572694100439548">
        <ele>358</ele>
        <time>2026-08-29T17:03:26Z</time>
      </trkpt>
      <trkpt lat="50.592591790482402" lon="13.572768867015839">
        <ele>357</ele>
        <time>2026-08-29T17:03:27Z</time>
      </trkpt>
      <trkpt lat="50.592506462708116" lon="13.572842124849558">
        <ele>357</ele>
        <time>2026-08-29T17:03:28Z</time>
      </trkpt>
      <trkpt lat="50.592429349198937" lon="13.572919741272926">
        <ele>357</ele>
        <time>2026-08-29T17:03:29Z</time>
      </trkpt>
      <trkpt lat="50.592351900413632" lon="13.572993418201804">
        <ele>356</ele>
        <time>2026-08-29T17:03:30Z</time>
      </trkpt>
      <trkpt lat="50.592276714742184" lon="13.573047649115324">
        <ele>356</ele>
        <time>2026-08-29T17:03:31Z</time>
      </trkpt>
      <trkpt lat="50.59220664203167" lon="13.57311881147325">
        <ele>356</ele>
        <time>2026-08-29T17:03:32Z</time>
      </trkpt>
      <trkpt lat="50.592170767486095" lon="13.573206318542361">
        <ele>356</ele>
        <time>2026-08-29T17:03:33Z</time>
      </trkpt>
      <trkpt lat="50.592176131904125" lon="13.573316624388099">
        <ele>357</ele>
        <time>2026-08-29T17:03:34Z</time>
      </trkpt>
      <trkpt lat="50.592200607061386" lon="13.573409495875239">
        <ele>357</ele>
        <time>2026-08-29T17:03:35Z</time>
      </trkpt>
      <trkpt lat="50.592244695872068" lon="13.573492560535669">
        <ele>357</ele>
        <time>2026-08-29T17:03:36Z</time>
      </trkpt>
      <trkpt lat="50.592286437749863" lon="13.573561208322644">
        <ele>358</ele>
        <time>2026-08-29T17:03:37Z</time>
      </trkpt>
      <trkpt lat="50.592313427478075" lon="13.573652403429151">
        <ele>358</ele>
        <time>2026-08-29T17:03:38Z</time>
      </trkpt>
      <trkpt lat="50.592334549874067" lon="13.573757177218795">
        <ele>358</ele>
        <time>2026-08-29T17:03:39Z</time>
      </trkpt>
      <trkpt lat="50.592351481318474" lon="13.57386982999742">
        <ele>358</ele>
        <time>2026-08-29T17:03:40Z</time>
      </trkpt>
      <trkpt lat="50.592375369742513" lon="13.573984578251839">
        <ele>358</ele>
        <time>2026-08-29T17:03:41Z</time>
      </trkpt>
      <trkpt lat="50.592392720282078" lon="13.574089854955673">
        <ele>357</ele>
        <time>2026-08-29T17:03:42Z</time>
      </trkpt>
      <trkpt lat="50.592411579564214" lon="13.57420108281076">
        <ele>357</ele>
        <time>2026-08-29T17:03:43Z</time>
      </trkpt>
      <trkpt lat="50.592434545978904" lon="13.57431692071259">
        <ele>357</ele>
        <time>2026-08-29T17:03:44Z</time>
      </trkpt>
      <trkpt lat="50.592456758022308" lon="13.574421191588044">
        <ele>357</ele>
        <time>2026-08-29T17:03:45Z</time>
      </trkpt>
      <trkpt lat="50.592472180724144" lon="13.574526384472847">
        <ele>357</ele>
        <time>2026-08-29T17:03:46Z</time>
      </trkpt>
      <trkpt lat="50.592494979500771" lon="13.574637025594711">
        <ele>357</ele>
        <time>2026-08-29T17:03:47Z</time>
      </trkpt>
      <trkpt lat="50.592519706115127" lon="13.574756132438779">
        <ele>357</ele>
        <time>2026-08-29T17:03:48Z</time>
      </trkpt>
      <trkpt lat="50.592546779662371" lon="13.574872054159641">
        <ele>357</ele>
        <time>2026-08-29T17:03:49Z</time>
      </trkpt>
      <trkpt lat="50.592571087181568" lon="13.574994094669819">
        <ele>356</ele>
        <time>2026-08-29T17:03:50Z</time>
      </trkpt>
      <trkpt lat="50.592595059424639" lon="13.575121248140931">
        <ele>356</ele>
        <time>2026-08-29T17:03:51Z</time>
      </trkpt>
      <trkpt lat="50.592627078294754" lon="13.57524580322206">
        <ele>356</ele>
        <time>2026-08-29T17:03:52Z</time>
      </trkpt>
      <trkpt lat="50.592652894556522" lon="13.57537429779768">
        <ele>355</ele>
        <time>2026-08-29T17:03:53Z</time>
      </trkpt>
      <trkpt lat="50.592682650312781" lon="13.575499188154936">
        <ele>355</ele>
        <time>2026-08-29T17:03:54Z</time>
      </trkpt>
      <trkpt lat="50.592707796022296" lon="13.575628772377968">
        <ele>355</ele>
        <time>2026-08-29T17:03:55Z</time>
      </trkpt>
      <trkpt lat="50.592736881226301" lon="13.575753076002002">
        <ele>355</ele>
        <time>2026-08-29T17:03:56Z</time>
      </trkpt>
      <trkpt lat="50.592770241200924" lon="13.575877463445067">
        <ele>355</ele>
        <time>2026-08-29T17:03:57Z</time>
      </trkpt>
      <trkpt lat="50.592801086604595" lon="13.576006628572941">
        <ele>355</ele>
        <time>2026-08-29T17:03:58Z</time>
      </trkpt>
      <trkpt lat="50.592836122959852" lon="13.576129171997309">
        <ele>355</ele>
        <time>2026-08-29T17:03:59Z</time>
      </trkpt>
      <trkpt lat="50.592870572581887" lon="13.576257163658738">
        <ele>355</ele>
        <time>2026-08-29T17:04:00Z</time>
      </trkpt>
      <trkpt lat="50.592908710241318" lon="13.576379707083106">
        <ele>355</ele>
        <time>2026-08-29T17:04:01Z</time>
      </trkpt>
      <trkpt lat="50.592939471825957" lon="13.576501999050379">
        <ele>355</ele>
        <time>2026-08-29T17:04:02Z</time>
      </trkpt>
      <trkpt lat="50.592977106571198" lon="13.576623369008303">
        <ele>356</ele>
        <time>2026-08-29T17:04:03Z</time>
      </trkpt>
      <trkpt lat="50.593003341928124" lon="13.576745325699449">
        <ele>356</ele>
        <time>2026-08-29T17:04:04Z</time>
      </trkpt>
      <trkpt lat="50.593032594770193" lon="13.576864684000611">
        <ele>356</ele>
        <time>2026-08-29T17:04:05Z</time>
      </trkpt>
      <trkpt lat="50.593060757964849" lon="13.576987059786916">
        <ele>356</ele>
        <time>2026-08-29T17:04:06Z</time>
      </trkpt>
      <trkpt lat="50.593085568398237" lon="13.577101975679398">
        <ele>356</ele>
        <time>2026-08-29T17:04:07Z</time>
      </trkpt>
      <trkpt lat="50.593112222850323" lon="13.577212868258357">
        <ele>355</ele>
        <time>2026-08-29T17:04:08Z</time>
      </trkpt>
      <trkpt lat="50.593140218406916" lon="13.577327197417617">
        <ele>356</ele>
        <time>2026-08-29T17:04:09Z</time>
      </trkpt>
      <trkpt lat="50.593163101002574" lon="13.577436832711101">
        <ele>355</ele>
        <time>2026-08-29T17:04:10Z</time>
      </trkpt>
      <trkpt lat="50.593177936971188" lon="13.577550239861012">
        <ele>355</ele>
        <time>2026-08-29T17:04:11Z</time>
      </trkpt>
      <trkpt lat="50.593194030225277" lon="13.57766599394381">
        <ele>356</ele>
        <time>2026-08-29T17:04:12Z</time>
      </trkpt>
      <trkpt lat="50.593208111822605" lon="13.577778395265341">
        <ele>356</ele>
        <time>2026-08-29T17:04:13Z</time>
      </trkpt>
      <trkpt lat="50.59321615844965" lon="13.577884426340461">
        <ele>356</ele>
        <time>2026-08-29T17:04:14Z</time>
      </trkpt>
      <trkpt lat="50.593227138742805" lon="13.577998084947467">
        <ele>356</ele>
        <time>2026-08-29T17:04:15Z</time>
      </trkpt>
      <trkpt lat="50.593234598636627" lon="13.578109564259648">
        <ele>356</ele>
        <time>2026-08-29T17:04:16Z</time>
      </trkpt>
      <trkpt lat="50.593244908377528" lon="13.578218529000878">
        <ele>356</ele>
        <time>2026-08-29T17:04:17Z</time>
      </trkpt>
      <trkpt lat="50.593252032995224" lon="13.578328164294362">
        <ele>355</ele>
        <time>2026-08-29T17:04:18Z</time>
      </trkpt>
      <trkpt lat="50.593256307765841" lon="13.578435368835926">
        <ele>355</ele>
        <time>2026-08-29T17:04:19Z</time>
      </trkpt>
      <trkpt lat="50.593264689669013" lon="13.578541902825236">
        <ele>355</ele>
        <time>2026-08-29T17:04:20Z</time>
      </trkpt>
      <trkpt lat="50.593270724639297" lon="13.578638043254614">
        <ele>355</ele>
        <time>2026-08-29T17:04:21Z</time>
      </trkpt>
      <trkpt lat="50.593275837600231" lon="13.578736279159784">
        <ele>355</ele>
        <time>2026-08-29T17:04:22Z</time>
      </trkpt>
      <trkpt lat="50.593277597799897" lon="13.578831497579813">
        <ele>355</ele>
        <time>2026-08-29T17:04:23Z</time>
      </trkpt>
      <trkpt lat="50.593284051865339" lon="13.578924536705017">
        <ele>355</ele>
        <time>2026-08-29T17:04:24Z</time>
      </trkpt>
      <trkpt lat="50.593292769044638" lon="13.579009613022208">
        <ele>355</ele>
        <time>2026-08-29T17:04:25Z</time>
      </trkpt>
      <trkpt lat="50.59329972602427" lon="13.579088235273957">
        <ele>355</ele>
        <time>2026-08-29T17:04:26Z</time>
      </trkpt>
      <trkpt lat="50.593306934460998" lon="13.579173563048244">
        <ele>355</ele>
        <time>2026-08-29T17:04:27Z</time>
      </trkpt>
      <trkpt lat="50.59331095777452" lon="13.579260231927037">
        <ele>356</ele>
        <time>2026-08-29T17:04:28Z</time>
      </trkpt>
      <trkpt lat="50.593318417668343" lon="13.579347152262926">
        <ele>356</ele>
        <time>2026-08-29T17:04:29Z</time>
      </trkpt>
      <trkpt lat="50.593323698267341" lon="13.579429043456912">
        <ele>356</ele>
        <time>2026-08-29T17:04:30Z</time>
      </trkpt>
      <trkpt lat="50.593326799571514" lon="13.579514538869262">
        <ele>356</ele>
        <time>2026-08-29T17:04:31Z</time>
      </trkpt>
      <trkpt lat="50.593329314142466" lon="13.579600369557738">
        <ele>356</ele>
        <time>2026-08-29T17:04:32Z</time>
      </trkpt>
      <trkpt lat="50.593337528407574" lon="13.579685194417834">
        <ele>356</ele>
        <time>2026-08-29T17:04:33Z</time>
      </trkpt>
      <trkpt lat="50.593344820663333" lon="13.57976415194571">
        <ele>355</ele>
        <time>2026-08-29T17:04:34Z</time>
      </trkpt>
      <trkpt lat="50.593349849805236" lon="13.579845791682601">
        <ele>356</ele>
        <time>2026-08-29T17:04:35Z</time>
      </trkpt>
      <trkpt lat="50.593356471508741" lon="13.579931287094951">
        <ele>356</ele>
        <time>2026-08-29T17:04:36Z</time>
      </trkpt>
      <trkpt lat="50.593363009393215" lon="13.580017788335681">
        <ele>356</ele>
        <time>2026-08-29T17:04:37Z</time>
      </trkpt>
      <trkpt lat="50.593372397124767" lon="13.580107307061553">
        <ele>355</ele>
        <time>2026-08-29T17:04:38Z</time>
      </trkpt>
      <trkpt lat="50.593383209779859" lon="13.580191545188427">
        <ele>355</ele>
        <time>2026-08-29T17:04:39Z</time>
      </trkpt>
      <trkpt lat="50.593397542834282" lon="13.580274861305952">
        <ele>356</ele>
        <time>2026-08-29T17:04:40Z</time>
      </trkpt>
      <trkpt lat="50.593407768756151" lon="13.580354237928987">
        <ele>356</ele>
        <time>2026-08-29T17:04:41Z</time>
      </trkpt>
      <trkpt lat="50.593427550047636" lon="13.580436380580068">
        <ele>356</ele>
        <time>2026-08-29T17:04:42Z</time>
      </trkpt>
      <trkpt lat="50.593437859788537" lon="13.580511482432485">
        <ele>356</ele>
        <time>2026-08-29T17:04:43Z</time>
      </trkpt>
      <trkpt lat="50.593446744605899" lon="13.580590272322297">
        <ele>356</ele>
        <time>2026-08-29T17:04:44Z</time>
      </trkpt>
      <trkpt lat="50.593459820374846" lon="13.58067593537271">
        <ele>356</ele>
        <time>2026-08-29T17:04:45Z</time>
      </trkpt>
      <trkpt lat="50.593473818153143" lon="13.580751204863191">
        <ele>356</ele>
        <time>2026-08-29T17:04:46Z</time>
      </trkpt>
      <trkpt lat="50.593488570302725" lon="13.580834772437811">
        <ele>356</ele>
        <time>2026-08-29T17:04:47Z</time>
      </trkpt>
      <trkpt lat="50.593508100137115" lon="13.580917920917273">
        <ele>357</ele>
        <time>2026-08-29T17:04:48Z</time>
      </trkpt>
      <trkpt lat="50.593528719618917" lon="13.580994280055165">
        <ele>357</ele>
        <time>2026-08-29T17:04:49Z</time>
      </trkpt>
      <trkpt lat="50.593548081815243" lon="13.581071645021439">
        <ele>357</ele>
        <time>2026-08-29T17:04:50Z</time>
      </trkpt>
      <trkpt lat="50.593561911955476" lon="13.58114649541676">
        <ele>357</ele>
        <time>2026-08-29T17:04:51Z</time>
      </trkpt>
      <trkpt lat="50.5935831181705" lon="13.581219669431448">
        <ele>357</ele>
        <time>2026-08-29T17:04:52Z</time>
      </trkpt>
      <trkpt lat="50.593609940260649" lon="13.581299800425768">
        <ele>356</ele>
        <time>2026-08-29T17:04:53Z</time>
      </trkpt>
      <trkpt lat="50.593636929988861" lon="13.5813775844872">
        <ele>357</ele>
        <time>2026-08-29T17:04:54Z</time>
      </trkpt>
      <trkpt lat="50.593659477308393" lon="13.581454949453473">
        <ele>356</ele>
        <time>2026-08-29T17:04:55Z</time>
      </trkpt>
      <trkpt lat="50.59368034824729" lon="13.581520076841116">
        <ele>356</ele>
        <time>2026-08-29T17:04:56Z</time>
      </trkpt>
      <trkpt lat="50.593702141195536" lon="13.581602051854134">
        <ele>356</ele>
        <time>2026-08-29T17:04:57Z</time>
      </trkpt>
      <trkpt lat="50.59371454641223" lon="13.581679752096534">
        <ele>357</ele>
        <time>2026-08-29T17:04:58Z</time>
      </trkpt>
      <trkpt lat="50.593739859759808" lon="13.581754434853792">
        <ele>357</ele>
        <time>2026-08-29T17:04:59Z</time>
      </trkpt>
      <trkpt lat="50.593767268583179" lon="13.581840181723237">
        <ele>357</ele>
        <time>2026-08-29T17:05:00Z</time>
      </trkpt>
      <trkpt lat="50.593787971884012" lon="13.581923162564635">
        <ele>357</ele>
        <time>2026-08-29T17:05:01Z</time>
      </trkpt>
      <trkpt lat="50.593815045431256" lon="13.582003712654114">
        <ele>357</ele>
        <time>2026-08-29T17:05:02Z</time>
      </trkpt>
      <trkpt lat="50.593837592750788" lon="13.582082921639085">
        <ele>357</ele>
        <time>2026-08-29T17:05:03Z</time>
      </trkpt>
      <trkpt lat="50.593859553337097" lon="13.582170009613037">
        <ele>356</ele>
        <time>2026-08-29T17:05:04Z</time>
      </trkpt>
      <trkpt lat="50.593885369598866" lon="13.58225273899734">
        <ele>356</ele>
        <time>2026-08-29T17:05:05Z</time>
      </trkpt>
      <trkpt lat="50.593905989080667" lon="13.582338904961944">
        <ele>356</ele>
        <time>2026-08-29T17:05:06Z</time>
      </trkpt>
      <trkpt lat="50.593927195295691" lon="13.582432949915528">
        <ele>356</ele>
        <time>2026-08-29T17:05:07Z</time>
      </trkpt>
      <trkpt lat="50.593952927738428" lon="13.582523306831717">
        <ele>355</ele>
        <time>2026-08-29T17:05:08Z</time>
      </trkpt>
      <trkpt lat="50.593970697373152" lon="13.582609472796321">
        <ele>355</ele>
        <time>2026-08-29T17:05:09Z</time>
      </trkpt>
      <trkpt lat="50.593995591625571" lon="13.582700081169605">
        <ele>355</ele>
        <time>2026-08-29T17:05:10Z</time>
      </trkpt>
      <trkpt lat="50.594023000448942" lon="13.582794880494475">
        <ele>355</ele>
        <time>2026-08-29T17:05:11Z</time>
      </trkpt>
      <trkpt lat="50.594053007662296" lon="13.582883644849062">
        <ele>355</ele>
        <time>2026-08-29T17:05:12Z</time>
      </trkpt>
      <trkpt lat="50.59407614171505" lon="13.58298079110682">
        <ele>355</ele>
        <time>2026-08-29T17:05:13Z</time>
      </trkpt>
      <trkpt lat="50.594102879986167" lon="13.58308095484972">
        <ele>356</ele>
        <time>2026-08-29T17:05:14Z</time>
      </trkpt>
      <trkpt lat="50.59413724578917" lon="13.583182040601969">
        <ele>356</ele>
        <time>2026-08-29T17:05:15Z</time>
      </trkpt>
      <trkpt lat="50.594170186668634" lon="13.583283126354218">
        <ele>356</ele>
        <time>2026-08-29T17:05:16Z</time>
      </trkpt>
      <trkpt lat="50.59419927187264" lon="13.583383290097117">
        <ele>355</ele>
        <time>2026-08-29T17:05:17Z</time>
      </trkpt>
      <trkpt lat="50.594237577170134" lon="13.58349041081965">
        <ele>355</ele>
        <time>2026-08-29T17:05:18Z</time>
      </trkpt>
      <trkpt lat="50.594272362068295" lon="13.583596190437675">
        <ele>355</ele>
        <time>2026-08-29T17:05:19Z</time>
      </trkpt>
      <trkpt lat="50.594313433393836" lon="13.583710016682744">
        <ele>355</ele>
        <time>2026-08-29T17:05:20Z</time>
      </trkpt>
      <trkpt lat="50.59434930793941" lon="13.583825435489416">
        <ele>354</ele>
        <time>2026-08-29T17:05:21Z</time>
      </trkpt>
      <trkpt lat="50.594382835552096" lon="13.583940602838993">
        <ele>354</ele>
        <time>2026-08-29T17:05:22Z</time>
      </trkpt>
      <trkpt lat="50.594425918534398" lon="13.584069851785898">
        <ele>353</ele>
        <time>2026-08-29T17:05:23Z</time>
      </trkpt>
      <trkpt lat="50.594470426440239" lon="13.584199519827962">
        <ele>353</ele>
        <time>2026-08-29T17:05:24Z</time>
      </trkpt>
      <trkpt lat="50.594516191631556" lon="13.584331031888723">
        <ele>353</ele>
        <time>2026-08-29T17:05:25Z</time>
      </trkpt>
      <trkpt lat="50.594562878832221" lon="13.584469584748149">
        <ele>353</ele>
        <time>2026-08-29T17:05:26Z</time>
      </trkpt>
      <trkpt lat="50.594608811661601" lon="13.584610987454653">
        <ele>352</ele>
        <time>2026-08-29T17:05:27Z</time>
      </trkpt>
      <trkpt lat="50.594662958756089" lon="13.5847691539675">
        <ele>351</ele>
        <time>2026-08-29T17:05:28Z</time>
      </trkpt>
      <trkpt lat="50.594721967354417" lon="13.584926314651966">
        <ele>351</ele>
        <time>2026-08-29T17:05:29Z</time>
      </trkpt>
      <trkpt lat="50.594782568514347" lon="13.585088169202209">
        <ele>350</ele>
        <time>2026-08-29T17:05:30Z</time>
      </trkpt>
      <trkpt lat="50.594844426959753" lon="13.585254298523068">
        <ele>350</ele>
        <time>2026-08-29T17:05:31Z</time>
      </trkpt>
      <trkpt lat="50.5949024297297" lon="13.585426630452275">
        <ele>349</ele>
        <time>2026-08-29T17:05:32Z</time>
      </trkpt>
      <trkpt lat="50.594964036718011" lon="13.58559887856245">
        <ele>349</ele>
        <time>2026-08-29T17:05:33Z</time>
      </trkpt>
      <trkpt lat="50.595020698383451" lon="13.585770791396499">
        <ele>349</ele>
        <time>2026-08-29T17:05:34Z</time>
      </trkpt>
      <trkpt lat="50.595075348392129" lon="13.585950750857592">
        <ele>348</ele>
        <time>2026-08-29T17:05:35Z</time>
      </trkpt>
      <trkpt lat="50.595133854076266" lon="13.586133560165763">
        <ele>348</ele>
        <time>2026-08-29T17:05:36Z</time>
      </trkpt>
      <trkpt lat="50.59518339112401" lon="13.586308490484953">
        <ele>347</ele>
        <time>2026-08-29T17:05:37Z</time>
      </trkpt>
      <trkpt lat="50.595235442742705" lon="13.586483839899302">
        <ele>347</ele>
        <time>2026-08-29T17:05:38Z</time>
      </trkpt>
      <trkpt lat="50.595289086923003" lon="13.586657764390111">
        <ele>346</ele>
        <time>2026-08-29T17:05:39Z</time>
      </trkpt>
      <trkpt lat="50.595343569293618" lon="13.586830934509635">
        <ele>346</ele>
        <time>2026-08-29T17:05:40Z</time>
      </trkpt>
      <trkpt lat="50.595387741923332" lon="13.587009217590094">
        <ele>345</ele>
        <time>2026-08-29T17:05:41Z</time>
      </trkpt>
      <trkpt lat="50.595433758571744" lon="13.58718398027122">
        <ele>345</ele>
        <time>2026-08-29T17:05:42Z</time>
      </trkpt>
      <trkpt lat="50.595480110496283" lon="13.587349355220795">
        <ele>345</ele>
        <time>2026-08-29T17:05:43Z</time>
      </trkpt>
      <trkpt lat="50.595522690564394" lon="13.587504336610436">
        <ele>344</ele>
        <time>2026-08-29T17:05:44Z</time>
      </trkpt>
      <trkpt lat="50.595563175156713" lon="13.587663341313601">
        <ele>344</ele>
        <time>2026-08-29T17:05:45Z</time>
      </trkpt>
      <trkpt lat="50.595605839043856" lon="13.58781773597002">
        <ele>343</ele>
        <time>2026-08-29T17:05:46Z</time>
      </trkpt>
      <trkpt lat="50.595642467960715" lon="13.587975231930614">
        <ele>344</ele>
        <time>2026-08-29T17:05:47Z</time>
      </trkpt>
      <trkpt lat="50.595679935067892" lon="13.58812945894897">
        <ele>343</ele>
        <time>2026-08-29T17:05:48Z</time>
      </trkpt>
      <trkpt lat="50.595715474337339" lon="13.588277734816074">
        <ele>344</ele>
        <time>2026-08-29T17:05:49Z</time>
      </trkpt>
      <trkpt lat="50.595750259235501" lon="13.588426932692528">
        <ele>344</ele>
        <time>2026-08-29T17:05:50Z</time>
      </trkpt>
      <trkpt lat="50.595780098810792" lon="13.588571101427078">
        <ele>344</ele>
        <time>2026-08-29T17:05:51Z</time>
      </trkpt>
      <trkpt lat="50.595808262005448" lon="13.588711079210043">
        <ele>344</ele>
        <time>2026-08-29T17:05:52Z</time>
      </trkpt>
      <trkpt lat="50.595835251733661" lon="13.588845357298851">
        <ele>344</ele>
        <time>2026-08-29T17:05:53Z</time>
      </trkpt>
      <trkpt lat="50.595868779346347" lon="13.588972594588995">
        <ele>344</ele>
        <time>2026-08-29T17:05:54Z</time>
      </trkpt>
      <trkpt lat="50.595898199826479" lon="13.589098490774632">
        <ele>343</ele>
        <time>2026-08-29T17:05:55Z</time>
      </trkpt>
      <trkpt lat="50.595920830965042" lon="13.589218854904175">
        <ele>343</ele>
        <time>2026-08-29T17:05:56Z</time>
      </trkpt>
      <trkpt lat="50.595946814864874" lon="13.589333267882466">
        <ele>344</ele>
        <time>2026-08-29T17:05:57Z</time>
      </trkpt>
      <trkpt lat="50.595969529822469" lon="13.589441813528538">
        <ele>344</ele>
        <time>2026-08-29T17:05:58Z</time>
      </trkpt>
      <trkpt lat="50.595996100455523" lon="13.589547509327531">
        <ele>345</ele>
        <time>2026-08-29T17:05:59Z</time>
      </trkpt>
      <trkpt lat="50.596016049385071" lon="13.58964960090816">
        <ele>345</ele>
        <time>2026-08-29T17:06:00Z</time>
      </trkpt>
      <trkpt lat="50.596042620018125" lon="13.589749680832028">
        <ele>345</ele>
        <time>2026-08-29T17:06:01Z</time>
      </trkpt>
      <trkpt lat="50.596064245328307" lon="13.589843893423676">
        <ele>345</ele>
        <time>2026-08-29T17:06:02Z</time>
      </trkpt>
      <trkpt lat="50.596088301390409" lon="13.589930394664407">
        <ele>346</ele>
        <time>2026-08-29T17:06:03Z</time>
      </trkpt>
      <trkpt lat="50.596107160672545" lon="13.590020667761564">
        <ele>346</ele>
        <time>2026-08-29T17:06:04Z</time>
      </trkpt>
      <trkpt lat="50.596118308603764" lon="13.590106414631009">
        <ele>346</ele>
        <time>2026-08-29T17:06:05Z</time>
      </trkpt>
      <trkpt lat="50.596133060753345" lon="13.59019048511982">
        <ele>346</ele>
        <time>2026-08-29T17:06:06Z</time>
      </trkpt>
      <trkpt lat="50.596147142350674" lon="13.59027405269444">
        <ele>346</ele>
        <time>2026-08-29T17:06:07Z</time>
      </trkpt>
      <trkpt lat="50.596164492890239" lon="13.590358542278409">
        <ele>346</ele>
        <time>2026-08-29T17:06:08Z</time>
      </trkpt>
      <trkpt lat="50.596178323030472" lon="13.590436829254031">
        <ele>346</ele>
        <time>2026-08-29T17:06:09Z</time>
      </trkpt>
      <trkpt lat="50.596195757389069" lon="13.590508913621306">
        <ele>346</ele>
        <time>2026-08-29T17:06:10Z</time>
      </trkpt>
      <trkpt lat="50.596211599186063" lon="13.590576471760869">
        <ele>346</ele>
        <time>2026-08-29T17:06:11Z</time>
      </trkpt>
      <trkpt lat="50.596225261688232" lon="13.590639671310782">
        <ele>346</ele>
        <time>2026-08-29T17:06:12Z</time>
      </trkpt>
      <trkpt lat="50.596243031322956" lon="13.590709241107106">
        <ele>346</ele>
        <time>2026-08-29T17:06:13Z</time>
      </trkpt>
      <trkpt lat="50.59625837020576" lon="13.590771099552512">
        <ele>346</ele>
        <time>2026-08-29T17:06:14Z</time>
      </trkpt>
      <trkpt lat="50.5962666682899" lon="13.590824408456683">
        <ele>347</ele>
        <time>2026-08-29T17:06:15Z</time>
      </trkpt>
      <trkpt lat="50.59627546928823" lon="13.590885512530804">
        <ele>347</ele>
        <time>2026-08-29T17:06:16Z</time>
      </trkpt>
      <trkpt lat="50.596289467066526" lon="13.590949885547161">
        <ele>347</ele>
        <time>2026-08-29T17:06:17Z</time>
      </trkpt>
      <trkpt lat="50.596305476501584" lon="13.591007301583886">
        <ele>348</ele>
        <time>2026-08-29T17:06:18Z</time>
      </trkpt>
      <trkpt lat="50.596321988850832" lon="13.591064633801579">
        <ele>348</ele>
        <time>2026-08-29T17:06:19Z</time>
      </trkpt>
      <trkpt lat="50.596337160095572" lon="13.591124145314097">
        <ele>349</ele>
        <time>2026-08-29T17:06:20Z</time>
      </trkpt>
      <trkpt lat="50.596349397674203" lon="13.591186758130789">
        <ele>349</ele>
        <time>2026-08-29T17:06:21Z</time>
      </trkpt>
      <trkpt lat="50.59637219645083" lon="13.591236295178533">
        <ele>349</ele>
        <time>2026-08-29T17:06:22Z</time>
      </trkpt>
      <trkpt lat="50.596382170915604" lon="13.591288346797228">
        <ele>349</ele>
        <time>2026-08-29T17:06:23Z</time>
      </trkpt>
      <trkpt lat="50.596401114016771" lon="13.591342410072684">
        <ele>350</ele>
        <time>2026-08-29T17:06:24Z</time>
      </trkpt>
      <trkpt lat="50.596411172300577" lon="13.591396892443299">
        <ele>350</ele>
        <time>2026-08-29T17:06:25Z</time>
      </trkpt>
      <trkpt lat="50.596423745155334" lon="13.591448022052646">
        <ele>350</ele>
        <time>2026-08-29T17:06:26Z</time>
      </trkpt>
      <trkpt lat="50.596432127058506" lon="13.591504264622927">
        <ele>350</ele>
        <time>2026-08-29T17:06:27Z</time>
      </trkpt>
      <trkpt lat="50.596442436799407" lon="13.591559669002891">
        <ele>351</ele>
        <time>2026-08-29T17:06:28Z</time>
      </trkpt>
      <trkpt lat="50.596455512568355" lon="13.591614905744791">
        <ele>350</ele>
        <time>2026-08-29T17:06:29Z</time>
      </trkpt>
      <trkpt lat="50.596467163413763" lon="13.591662598773837">
        <ele>351</ele>
        <time>2026-08-29T17:06:30Z</time>
      </trkpt>
      <trkpt lat="50.596484681591392" lon="13.591720936819911">
        <ele>351</ele>
        <time>2026-08-29T17:06:31Z</time>
      </trkpt>
      <trkpt lat="50.596500439569354" lon="13.591783381998539">
        <ele>351</ele>
        <time>2026-08-29T17:06:32Z</time>
      </trkpt>
      <trkpt lat="50.596515443176031" lon="13.591835014522076">
        <ele>351</ele>
        <time>2026-08-29T17:06:33Z</time>
      </trkpt>
      <trkpt lat="50.596529357135296" lon="13.591883797198534">
        <ele>351</ele>
        <time>2026-08-29T17:06:34Z</time>
      </trkpt>
      <trkpt lat="50.596542851999402" lon="13.591935513541102">
        <ele>351</ele>
        <time>2026-08-29T17:06:35Z</time>
      </trkpt>
      <trkpt lat="50.596561543643475" lon="13.59198379330337">
        <ele>351</ele>
        <time>2026-08-29T17:06:36Z</time>
      </trkpt>
      <trkpt lat="50.596581157296896" lon="13.592029055580497">
        <ele>352</ele>
        <time>2026-08-29T17:06:37Z</time>
      </trkpt>
      <trkpt lat="50.596601692959666" lon="13.592076329514384">
        <ele>352</ele>
        <time>2026-08-29T17:06:38Z</time>
      </trkpt>
      <trkpt lat="50.596620049327612" lon="13.592124357819557">
        <ele>352</ele>
        <time>2026-08-29T17:06:39Z</time>
      </trkpt>
      <trkpt lat="50.596635052934289" lon="13.592172637581825">
        <ele>352</ele>
        <time>2026-08-29T17:06:40Z</time>
      </trkpt>
      <trkpt lat="50.596654582768679" lon="13.592218738049269">
        <ele>352</ele>
        <time>2026-08-29T17:06:41Z</time>
      </trkpt>
      <trkpt lat="50.596672771498561" lon="13.592272298410535">
        <ele>352</ele>
        <time>2026-08-29T17:06:42Z</time>
      </trkpt>
      <trkpt lat="50.596690038219094" lon="13.592325607314706">
        <ele>352</ele>
        <time>2026-08-29T17:06:43Z</time>
      </trkpt>
      <trkpt lat="50.596708729863167" lon="13.592372965067625">
        <ele>352</ele>
        <time>2026-08-29T17:06:44Z</time>
      </trkpt>
      <trkpt lat="50.596727756783366" lon="13.592417053878307">
        <ele>353</ele>
        <time>2026-08-29T17:06:45Z</time>
      </trkpt>
      <trkpt lat="50.5967450235039" lon="13.592470530420542">
        <ele>353</ele>
        <time>2026-08-29T17:06:46Z</time>
      </trkpt>
      <trkpt lat="50.596768241375685" lon="13.592520235106349">
        <ele>354</ele>
        <time>2026-08-29T17:06:47Z</time>
      </trkpt>
      <trkpt lat="50.596785843372345" lon="13.592567592859268">
        <ele>353</ele>
        <time>2026-08-29T17:06:48Z</time>
      </trkpt>
      <trkpt lat="50.596804199740291" lon="13.592619057744741">
        <ele>353</ele>
        <time>2026-08-29T17:06:49Z</time>
      </trkpt>
      <trkpt lat="50.596818281337619" lon="13.592666834592819">
        <ele>354</ele>
        <time>2026-08-29T17:06:50Z</time>
      </trkpt>
      <trkpt lat="50.596840409561992" lon="13.592729531228542">
        <ele>354</ele>
        <time>2026-08-29T17:06:51Z</time>
      </trkpt>
      <trkpt lat="50.596859520301223" lon="13.592777140438557">
        <ele>354</ele>
        <time>2026-08-29T17:06:52Z</time>
      </trkpt>
      <trkpt lat="50.596877373754978" lon="13.592824917286634">
        <ele>354</ele>
        <time>2026-08-29T17:06:53Z</time>
      </trkpt>
      <trkpt lat="50.596897238865495" lon="13.592873532325029">
        <ele>354</ele>
        <time>2026-08-29T17:06:54Z</time>
      </trkpt>
      <trkpt lat="50.596915511414409" lon="13.592929607257247">
        <ele>355</ele>
        <time>2026-08-29T17:06:55Z</time>
      </trkpt>
      <trkpt lat="50.596934789791703" lon="13.592982832342386">
        <ele>355</ele>
        <time>2026-08-29T17:06:56Z</time>
      </trkpt>
      <trkpt lat="50.5969522241503" lon="13.593028597533703">
        <ele>355</ele>
        <time>2026-08-29T17:06:57Z</time>
      </trkpt>
      <trkpt lat="50.5969746876508" lon="13.593073943629861">
        <ele>355</ele>
        <time>2026-08-29T17:06:58Z</time>
      </trkpt>
      <trkpt lat="50.596994217485189" lon="13.593116858974099">
        <ele>355</ele>
        <time>2026-08-29T17:06:59Z</time>
      </trkpt>
      <trkpt lat="50.597014669328928" lon="13.593163881450891">
        <ele>355</ele>
        <time>2026-08-29T17:07:00Z</time>
      </trkpt>
      <trkpt lat="50.597039228305221" lon="13.593207551166415">
        <ele>356</ele>
        <time>2026-08-29T17:07:01Z</time>
      </trkpt>
      <trkpt lat="50.597060937434435" lon="13.593266392126679">
        <ele>357</ele>
        <time>2026-08-29T17:07:02Z</time>
      </trkpt>
      <trkpt lat="50.597082646563649" lon="13.59331090003252">
        <ele>357</ele>
        <time>2026-08-29T17:07:03Z</time>
      </trkpt>
      <trkpt lat="50.597107708454132" lon="13.593355156481266">
        <ele>357</ele>
        <time>2026-08-29T17:07:04Z</time>
      </trkpt>
      <trkpt lat="50.597131848335266" lon="13.593398407101631">
        <ele>357</ele>
        <time>2026-08-29T17:07:05Z</time>
      </trkpt>
      <trkpt lat="50.597154060378671" lon="13.593441490083933">
        <ele>357</ele>
        <time>2026-08-29T17:07:06Z</time>
      </trkpt>
      <trkpt lat="50.597174009308219" lon="13.59349169768393">
        <ele>357</ele>
        <time>2026-08-29T17:07:07Z</time>
      </trkpt>
      <trkpt lat="50.59719949029386" lon="13.593542827293277">
        <ele>358</ele>
        <time>2026-08-29T17:07:08Z</time>
      </trkpt>
      <trkpt lat="50.597225725650787" lon="13.593582473695278">
        <ele>358</ele>
        <time>2026-08-29T17:07:09Z</time>
      </trkpt>
      <trkpt lat="50.597247267141938" lon="13.59362555667758">
        <ele>358</ele>
        <time>2026-08-29T17:07:10Z</time>
      </trkpt>
      <trkpt lat="50.597274508327246" lon="13.593668807297945">
        <ele>359</ele>
        <time>2026-08-29T17:07:11Z</time>
      </trkpt>
      <trkpt lat="50.597301665693521" lon="13.593721780925989">
        <ele>359</ele>
        <time>2026-08-29T17:07:12Z</time>
      </trkpt>
      <trkpt lat="50.597333600744605" lon="13.593762097880244">
        <ele>359</ele>
        <time>2026-08-29T17:07:13Z</time>
      </trkpt>
      <trkpt lat="50.597359417006373" lon="13.5938058514148">
        <ele>359</ele>
        <time>2026-08-29T17:07:14Z</time>
      </trkpt>
      <trkpt lat="50.597390430048108" lon="13.593846084550023">
        <ele>360</ele>
        <time>2026-08-29T17:07:15Z</time>
      </trkpt>
      <trkpt lat="50.597416330128908" lon="13.59389285556972">
        <ele>360</ele>
        <time>2026-08-29T17:07:16Z</time>
      </trkpt>
      <trkpt lat="50.597439212724566" lon="13.593935267999768">
        <ele>361</ele>
        <time>2026-08-29T17:07:17Z</time>
      </trkpt>
      <trkpt lat="50.597463939338923" lon="13.593980362638831">
        <ele>361</ele>
        <time>2026-08-29T17:07:18Z</time>
      </trkpt>
      <trkpt lat="50.597495036199689" lon="13.594012632966042">
        <ele>361</ele>
        <time>2026-08-29T17:07:19Z</time>
      </trkpt>
      <trkpt lat="50.597523869946599" lon="13.59405211172998">
        <ele>362</ele>
        <time>2026-08-29T17:07:20Z</time>
      </trkpt>
      <trkpt lat="50.597546668723226" lon="13.594093518331647">
        <ele>362</ele>
        <time>2026-08-29T17:07:21Z</time>
      </trkpt>
      <trkpt lat="50.597573490813375" lon="13.594125285744667">
        <ele>363</ele>
        <time>2026-08-29T17:07:22Z</time>
      </trkpt>
      <trkpt lat="50.597598049789667" lon="13.594166440889239">
        <ele>363</ele>
        <time>2026-08-29T17:07:23Z</time>
      </trkpt>
      <trkpt lat="50.597623949870467" lon="13.594214133918285">
        <ele>363</ele>
        <time>2026-08-29T17:07:24Z</time>
      </trkpt>
      <trkpt lat="50.597645491361618" lon="13.594265012070537">
        <ele>362</ele>
        <time>2026-08-29T17:07:25Z</time>
      </trkpt>
      <trkpt lat="50.59767834842205" lon="13.594315219670534">
        <ele>362</ele>
        <time>2026-08-29T17:07:26Z</time>
      </trkpt>
      <trkpt lat="50.597708271816373" lon="13.594357799738646">
        <ele>362</ele>
        <time>2026-08-29T17:07:27Z</time>
      </trkpt>
      <trkpt lat="50.597736518830061" lon="13.594415299594402">
        <ele>362</ele>
        <time>2026-08-29T17:07:28Z</time>
      </trkpt>
      <trkpt lat="50.59776577167213" lon="13.594461735337973">
        <ele>362</ele>
        <time>2026-08-29T17:07:29Z</time>
      </trkpt>
      <trkpt lat="50.597792342305183" lon="13.594516552984715">
        <ele>362</ele>
        <time>2026-08-29T17:07:30Z</time>
      </trkpt>
      <trkpt lat="50.597818745300174" lon="13.594564916566014">
        <ele>362</ele>
        <time>2026-08-29T17:07:31Z</time>
      </trkpt>
      <trkpt lat="50.597847495228052" lon="13.594612441956997">
        <ele>362</ele>
        <time>2026-08-29T17:07:32Z</time>
      </trkpt>
      <trkpt lat="50.597874820232391" lon="13.594664577394724">
        <ele>362</ele>
        <time>2026-08-29T17:07:33Z</time>
      </trkpt>
      <trkpt lat="50.597904911264777" lon="13.5947210714221">
        <ele>362</ele>
        <time>2026-08-29T17:07:34Z</time>
      </trkpt>
      <trkpt lat="50.597936008125544" lon="13.594771446660161">
        <ele>362</ele>
        <time>2026-08-29T17:07:35Z</time>
      </trkpt>
      <trkpt lat="50.59796660207212" lon="13.594831712543964">
        <ele>362</ele>
        <time>2026-08-29T17:07:36Z</time>
      </trkpt>
      <trkpt lat="50.597996190190315" lon="13.594888206571341">
        <ele>362</ele>
        <time>2026-08-29T17:07:37Z</time>
      </trkpt>
      <trkpt lat="50.598024688661098" lon="13.594932295382023">
        <ele>362</ele>
        <time>2026-08-29T17:07:38Z</time>
      </trkpt>
      <trkpt lat="50.598049331456423" lon="13.594984849914908">
        <ele>362</ele>
        <time>2026-08-29T17:07:39Z</time>
      </trkpt>
      <trkpt lat="50.598081350326538" lon="13.595053916797042">
        <ele>362</ele>
        <time>2026-08-29T17:07:40Z</time>
      </trkpt>
      <trkpt lat="50.598110184073448" lon="13.595116613432765">
        <ele>363</ele>
        <time>2026-08-29T17:07:41Z</time>
      </trkpt>
      <trkpt lat="50.598142202943563" lon="13.595175622031093">
        <ele>363</ele>
        <time>2026-08-29T17:07:42Z</time>
      </trkpt>
      <trkpt lat="50.598172629252076" lon="13.595229601487517">
        <ele>363</ele>
        <time>2026-08-29T17:07:43Z</time>
      </trkpt>
      <trkpt lat="50.598204480484128" lon="13.595277965068817">
        <ele>363</ele>
        <time>2026-08-29T17:07:44Z</time>
      </trkpt>
      <trkpt lat="50.598230799660087" lon="13.595329094678164">
        <ele>363</ele>
        <time>2026-08-29T17:07:45Z</time>
      </trkpt>
      <trkpt lat="50.598261058330536" lon="13.595387265086174">
        <ele>363</ele>
        <time>2026-08-29T17:07:46Z</time>
      </trkpt>
      <trkpt lat="50.598287209868431" lon="13.595445603132248">
        <ele>363</ele>
        <time>2026-08-29T17:07:47Z</time>
      </trkpt>
      <trkpt lat="50.598316127434373" lon="13.595502097159624">
        <ele>363</ele>
        <time>2026-08-29T17:07:48Z</time>
      </trkpt>
      <trkpt lat="50.598337333649397" lon="13.595551634207368">
        <ele>363</ele>
        <time>2026-08-29T17:07:49Z</time>
      </trkpt>
      <trkpt lat="50.598356779664755" lon="13.595595052465796">
        <ele>363</ele>
        <time>2026-08-29T17:07:50Z</time>
      </trkpt>
      <trkpt lat="50.59838485904038" lon="13.59564945101738">
        <ele>362</ele>
        <time>2026-08-29T17:07:51Z</time>
      </trkpt>
      <trkpt lat="50.598403383046389" lon="13.595702843740582">
        <ele>363</ele>
        <time>2026-08-29T17:07:52Z</time>
      </trkpt>
      <trkpt lat="50.598425595089793" lon="13.5957589186728">
        <ele>363</ele>
        <time>2026-08-29T17:07:53Z</time>
      </trkpt>
      <trkpt lat="50.598453087732196" lon="13.595814490690827">
        <ele>363</ele>
        <time>2026-08-29T17:07:54Z</time>
      </trkpt>
      <trkpt lat="50.598478903993964" lon="13.595874588936567">
        <ele>364</ele>
        <time>2026-08-29T17:07:55Z</time>
      </trkpt>
      <trkpt lat="50.598498517647386" lon="13.595929658040404">
        <ele>364</ele>
        <time>2026-08-29T17:07:56Z</time>
      </trkpt>
      <trkpt lat="50.598519388586283" lon="13.595990091562271">
        <ele>364</ele>
        <time>2026-08-29T17:07:57Z</time>
      </trkpt>
      <trkpt lat="50.598538247868419" lon="13.596044406294823">
        <ele>364</ele>
        <time>2026-08-29T17:07:58Z</time>
      </trkpt>
      <trkpt lat="50.598557442426682" lon="13.596094865351915">
        <ele>364</ele>
        <time>2026-08-29T17:07:59Z</time>
      </trkpt>
      <trkpt lat="50.598572865128517" lon="13.596139289438725">
        <ele>364</ele>
        <time>2026-08-29T17:08:00Z</time>
      </trkpt>
      <trkpt lat="50.598587701097131" lon="13.596187066286802">
        <ele>364</ele>
        <time>2026-08-29T17:08:01Z</time>
      </trkpt>
      <trkpt lat="50.598613182082772" lon="13.596247080713511">
        <ele>365</ele>
        <time>2026-08-29T17:08:02Z</time>
      </trkpt>
      <trkpt lat="50.598636399954557" lon="13.596296282485127">
        <ele>365</ele>
        <time>2026-08-29T17:08:03Z</time>
      </trkpt>
      <trkpt lat="50.598655678331852" lon="13.596353447064757">
        <ele>365</ele>
        <time>2026-08-29T17:08:04Z</time>
      </trkpt>
      <trkpt lat="50.598673699423671" lon="13.596402900293469">
        <ele>365</ele>
        <time>2026-08-29T17:08:05Z</time>
      </trkpt>
      <trkpt lat="50.598694570362568" lon="13.596451431512833">
        <ele>365</ele>
        <time>2026-08-29T17:08:06Z</time>
      </trkpt>
      <trkpt lat="50.59870932251215" lon="13.596504488959908">
        <ele>365</ele>
        <time>2026-08-29T17:08:07Z</time>
      </trkpt>
      <trkpt lat="50.598727259784937" lon="13.596554948017001">
        <ele>365</ele>
        <time>2026-08-29T17:08:08Z</time>
      </trkpt>
      <trkpt lat="50.5987498909235" lon="13.59660373069346">
        <ele>365</ele>
        <time>2026-08-29T17:08:09Z</time>
      </trkpt>
      <trkpt lat="50.598768414929509" lon="13.596654776483774">
        <ele>365</ele>
        <time>2026-08-29T17:08:10Z</time>
      </trkpt>
      <trkpt lat="50.598786771297455" lon="13.596705067902803">
        <ele>365</ele>
        <time>2026-08-29T17:08:11Z</time>
      </trkpt>
      <trkpt lat="50.598806384950876" lon="13.596757119521499">
        <ele>365</ele>
        <time>2026-08-29T17:08:12Z</time>
      </trkpt>
      <trkpt lat="50.598823819309473" lon="13.596811266615987">
        <ele>365</ele>
        <time>2026-08-29T17:08:13Z</time>
      </trkpt>
      <trkpt lat="50.598843181505799" lon="13.596867844462395">
        <ele>365</ele>
        <time>2026-08-29T17:08:14Z</time>
      </trkpt>
      <trkpt lat="50.598860951140523" lon="13.596920147538185">
        <ele>365</ele>
        <time>2026-08-29T17:08:15Z</time>
      </trkpt>
      <trkpt lat="50.598884923383594" lon="13.596977982670069">
        <ele>366</ele>
        <time>2026-08-29T17:08:16Z</time>
      </trkpt>
      <trkpt lat="50.598904620856047" lon="13.597030034288764">
        <ele>366</ele>
        <time>2026-08-29T17:08:17Z</time>
      </trkpt>
      <trkpt lat="50.598921133205295" lon="13.597086863592267">
        <ele>366</ele>
        <time>2026-08-29T17:08:18Z</time>
      </trkpt>
      <trkpt lat="50.59893068857491" lon="13.597145117819309">
        <ele>367</ele>
        <time>2026-08-29T17:08:19Z</time>
      </trkpt>
      <trkpt lat="50.598946027457714" lon="13.597207646816969">
        <ele>367</ele>
        <time>2026-08-29T17:08:20Z</time>
      </trkpt>
      <trkpt lat="50.598962539806962" lon="13.597260033711791">
        <ele>366</ele>
        <time>2026-08-29T17:08:21Z</time>
      </trkpt>
      <trkpt lat="50.598966646939516" lon="13.597320634871721">
        <ele>367</ele>
        <time>2026-08-29T17:08:22Z</time>
      </trkpt>
      <trkpt lat="50.598983075469732" lon="13.597384253516793">
        <ele>366</ele>
        <time>2026-08-29T17:08:23Z</time>
      </trkpt>
      <trkpt lat="50.599003192037344" lon="13.597437310963869">
        <ele>367</ele>
        <time>2026-08-29T17:08:24Z</time>
      </trkpt>
      <trkpt lat="50.599026661366224" lon="13.59749942086637">
        <ele>367</ele>
        <time>2026-08-29T17:08:25Z</time>
      </trkpt>
      <trkpt lat="50.599043089896441" lon="13.597554741427302">
        <ele>367</ele>
        <time>2026-08-29T17:08:26Z</time>
      </trkpt>
      <trkpt lat="50.599055159837008" lon="13.597611486911774">
        <ele>368</ele>
        <time>2026-08-29T17:08:27Z</time>
      </trkpt>
      <trkpt lat="50.599073432385921" lon="13.597670998424292">
        <ele>368</ele>
        <time>2026-08-29T17:08:28Z</time>
      </trkpt>
      <trkpt lat="50.599089274182916" lon="13.597733275964856">
        <ele>368</ele>
        <time>2026-08-29T17:08:29Z</time>
      </trkpt>
      <trkpt lat="50.59910754673183" lon="13.597795637324452">
        <ele>368</ele>
        <time>2026-08-29T17:08:30Z</time>
      </trkpt>
      <trkpt lat="50.599124478176236" lon="13.597852801904082">
        <ele>368</ele>
        <time>2026-08-29T17:08:31Z</time>
      </trkpt>
      <trkpt lat="50.599136967211962" lon="13.597913067787886">
        <ele>369</ele>
        <time>2026-08-29T17:08:32Z</time>
      </trkpt>
      <trkpt lat="50.599151635542512" lon="13.597967550158501">
        <ele>369</ele>
        <time>2026-08-29T17:08:33Z</time>
      </trkpt>
      <trkpt lat="50.599169824272394" lon="13.598028235137463">
        <ele>369</ele>
        <time>2026-08-29T17:08:34Z</time>
      </trkpt>
      <trkpt lat="50.59918767772615" lon="13.598084226250648">
        <ele>369</ele>
        <time>2026-08-29T17:08:35Z</time>
      </trkpt>
      <trkpt lat="50.599199328571558" lon="13.598147677257657">
        <ele>369</ele>
        <time>2026-08-29T17:08:36Z</time>
      </trkpt>
      <trkpt lat="50.599213158711791" lon="13.598200567066669">
        <ele>370</ele>
        <time>2026-08-29T17:08:37Z</time>
      </trkpt>
      <trkpt lat="50.599224977195263" lon="13.598257564008236">
        <ele>369</ele>
        <time>2026-08-29T17:08:38Z</time>
      </trkpt>
      <trkpt lat="50.599236292764544" lon="13.59832763671875">
        <ele>369</ele>
        <time>2026-08-29T17:08:39Z</time>
      </trkpt>
      <trkpt lat="50.599256241694093" lon="13.598391506820917">
        <ele>370</ele>
        <time>2026-08-29T17:08:40Z</time>
      </trkpt>
      <trkpt lat="50.599274346604943" lon="13.598450934514403">
        <ele>371</ele>
        <time>2026-08-29T17:08:41Z</time>
      </trkpt>
      <trkpt lat="50.599299240857363" lon="13.598503740504384">
        <ele>371</ele>
        <time>2026-08-29T17:08:42Z</time>
      </trkpt>
      <trkpt lat="50.599323799833655" lon="13.598560485988855">
        <ele>372</ele>
        <time>2026-08-29T17:08:43Z</time>
      </trkpt>
      <trkpt lat="50.599345089867711" lon="13.598618656396866">
        <ele>372</ele>
        <time>2026-08-29T17:08:44Z</time>
      </trkpt>
      <trkpt lat="50.599361099302769" lon="13.598694261163473">
        <ele>373</ele>
        <time>2026-08-29T17:08:45Z</time>
      </trkpt>
      <trkpt lat="50.599373085424304" lon="13.598761651664972">
        <ele>373</ele>
        <time>2026-08-29T17:08:46Z</time>
      </trkpt>
      <trkpt lat="50.599381048232317" lon="13.598825857043266">
        <ele>373</ele>
        <time>2026-08-29T17:08:47Z</time>
      </trkpt>
      <trkpt lat="50.599394962191582" lon="13.598886793479323">
        <ele>373</ele>
        <time>2026-08-29T17:08:48Z</time>
      </trkpt>
      <trkpt lat="50.599409379065037" lon="13.598949071019888">
        <ele>374</ele>
        <time>2026-08-29T17:08:49Z</time>
      </trkpt>
      <trkpt lat="50.599421449005604" lon="13.599010342732072">
        <ele>374</ele>
        <time>2026-08-29T17:08:50Z</time>
      </trkpt>
      <trkpt lat="50.599434860050678" lon="13.59907329082489">
        <ele>374</ele>
        <time>2026-08-29T17:08:51Z</time>
      </trkpt>
      <trkpt lat="50.599445421248674" lon="13.599144872277975">
        <ele>373</ele>
        <time>2026-08-29T17:08:52Z</time>
      </trkpt>
      <trkpt lat="50.599445756524801" lon="13.599208071827888">
        <ele>373</ele>
        <time>2026-08-29T17:08:53Z</time>
      </trkpt>
      <trkpt lat="50.599450282752514" lon="13.599272025749087">
        <ele>373</ele>
        <time>2026-08-29T17:08:54Z</time>
      </trkpt>
      <trkpt lat="50.599463442340493" lon="13.599341427907348">
        <ele>373</ele>
        <time>2026-08-29T17:08:55Z</time>
      </trkpt>
      <trkpt lat="50.599475931376219" lon="13.599403034895658">
        <ele>373</ele>
        <time>2026-08-29T17:08:56Z</time>
      </trkpt>
      <trkpt lat="50.599484648555517" lon="13.599466821178794">
        <ele>373</ele>
        <time>2026-08-29T17:08:57Z</time>
      </trkpt>
      <trkpt lat="50.599497808143497" lon="13.599532200023532">
        <ele>373</ele>
        <time>2026-08-29T17:08:58Z</time>
      </trkpt>
      <trkpt lat="50.59951163828373" lon="13.599595399573445">
        <ele>373</ele>
        <time>2026-08-29T17:08:59Z</time>
      </trkpt>
      <trkpt lat="50.599523540586233" lon="13.599661029875278">
        <ele>373</ele>
        <time>2026-08-29T17:09:00Z</time>
      </trkpt>
      <trkpt lat="50.599532341584563" lon="13.599720960482955">
        <ele>373</ele>
        <time>2026-08-29T17:09:01Z</time>
      </trkpt>
      <trkpt lat="50.599543321877718" lon="13.599786590784788">
        <ele>372</ele>
        <time>2026-08-29T17:09:02Z</time>
      </trkpt>
      <trkpt lat="50.599555391818285" lon="13.599853478372097">
        <ele>372</ele>
        <time>2026-08-29T17:09:03Z</time>
      </trkpt>
      <trkpt lat="50.599571233615279" lon="13.599927574396133">
        <ele>373</ele>
        <time>2026-08-29T17:09:04Z</time>
      </trkpt>
      <trkpt lat="50.599585482850671" lon="13.599999072030187">
        <ele>373</ele>
        <time>2026-08-29T17:09:05Z</time>
      </trkpt>
      <trkpt lat="50.599599648267031" lon="13.600063528865576">
        <ele>373</ele>
        <time>2026-08-29T17:09:06Z</time>
      </trkpt>
      <trkpt lat="50.599617920815945" lon="13.600123543292284">
        <ele>373</ele>
        <time>2026-08-29T17:09:07Z</time>
      </trkpt>
      <trkpt lat="50.599635522812605" lon="13.600196214392781">
        <ele>373</ele>
        <time>2026-08-29T17:09:08Z</time>
      </trkpt>
      <trkpt lat="50.599650107324123" lon="13.60026553273201">
        <ele>373</ele>
        <time>2026-08-29T17:09:09Z</time>
      </trkpt>
      <trkpt lat="50.599664021283388" lon="13.600332336500287">
        <ele>373</ele>
        <time>2026-08-29T17:09:10Z</time>
      </trkpt>
      <trkpt lat="50.59967583976686" lon="13.600398134440184">
        <ele>374</ele>
        <time>2026-08-29T17:09:11Z</time>
      </trkpt>
      <trkpt lat="50.599692184478045" lon="13.600466195493937">
        <ele>374</ele>
        <time>2026-08-29T17:09:12Z</time>
      </trkpt>
      <trkpt lat="50.599703080952168" lon="13.60052646137774">
        <ele>375</ele>
        <time>2026-08-29T17:09:13Z</time>
      </trkpt>
      <trkpt lat="50.599718419834971" lon="13.600593851879239">
        <ele>375</ele>
        <time>2026-08-29T17:09:14Z</time>
      </trkpt>
      <trkpt lat="50.59973350726068" lon="13.600662415847182">
        <ele>375</ele>
        <time>2026-08-29T17:09:15Z</time>
      </trkpt>
      <trkpt lat="50.599749768152833" lon="13.60071899369359">
        <ele>375</ele>
        <time>2026-08-29T17:09:16Z</time>
      </trkpt>
      <trkpt lat="50.599769130349159" lon="13.600783785805106">
        <ele>375</ele>
        <time>2026-08-29T17:09:17Z</time>
      </trkpt>
      <trkpt lat="50.59979259967804" lon="13.600854780524969">
        <ele>375</ele>
        <time>2026-08-29T17:09:18Z</time>
      </trkpt>
      <trkpt lat="50.599818751215935" lon="13.600922171026468">
        <ele>375</ele>
        <time>2026-08-29T17:09:19Z</time>
      </trkpt>
      <trkpt lat="50.599845992401242" lon="13.600990232080221">
        <ele>375</ele>
        <time>2026-08-29T17:09:20Z</time>
      </trkpt>
      <trkpt lat="50.5998620018363" lon="13.601061142981052">
        <ele>375</ele>
        <time>2026-08-29T17:09:21Z</time>
      </trkpt>
      <trkpt lat="50.599866863340139" lon="13.60114797949791">
        <ele>374</ele>
        <time>2026-08-29T17:09:22Z</time>
      </trkpt>
      <trkpt lat="50.599864851683378" lon="13.60123548656702">
        <ele>374</ele>
        <time>2026-08-29T17:09:23Z</time>
      </trkpt>
      <trkpt lat="50.599880777299404" lon="13.601319389417768">
        <ele>374</ele>
        <time>2026-08-29T17:09:24Z</time>
      </trkpt>
      <trkpt lat="50.599932912737131" lon="13.601378230378032">
        <ele>374</ele>
        <time>2026-08-29T17:09:25Z</time>
      </trkpt>
      <trkpt lat="50.599988400936127" lon="13.601392731070518">
        <ele>374</ele>
        <time>2026-08-29T17:09:26Z</time>
      </trkpt>
      <trkpt lat="50.60004573315382" lon="13.60141284763813">
        <ele>374</ele>
        <time>2026-08-29T17:09:27Z</time>
      </trkpt>
      <trkpt lat="50.600094683468342" lon="13.60146171413362">
        <ele>374</ele>
        <time>2026-08-29T17:09:28Z</time>
      </trkpt>
      <trkpt lat="50.600132569670677" lon="13.60152374021709">
        <ele>374</ele>
        <time>2026-08-29T17:09:29Z</time>
      </trkpt>
      <trkpt lat="50.600166348740458" lon="13.601597417145967">
        <ele>374</ele>
        <time>2026-08-29T17:09:30Z</time>
      </trkpt>
      <trkpt lat="50.600195769220591" lon="13.601657431572676">
        <ele>374</ele>
        <time>2026-08-29T17:09:31Z</time>
      </trkpt>
      <trkpt lat="50.600230889394879" lon="13.60171333886683">
        <ele>374</ele>
        <time>2026-08-29T17:09:32Z</time>
      </trkpt>
      <trkpt lat="50.600262740626931" lon="13.601777879521251">
        <ele>374</ele>
        <time>2026-08-29T17:09:33Z</time>
      </trkpt>
      <trkpt lat="50.600303057581186" lon="13.601847449317575">
        <ele>375</ele>
        <time>2026-08-29T17:09:34Z</time>
      </trkpt>
      <trkpt lat="50.600345721468329" lon="13.6019117385149">
        <ele>375</ele>
        <time>2026-08-29T17:09:35Z</time>
      </trkpt>
      <trkpt lat="50.600390061736107" lon="13.601971920579672">
        <ele>375</ele>
        <time>2026-08-29T17:09:36Z</time>
      </trkpt>
      <trkpt lat="50.600436078384519" lon="13.602019529789686">
        <ele>375</ele>
        <time>2026-08-29T17:09:37Z</time>
      </trkpt>
      <trkpt lat="50.600484861060977" lon="13.602081052958965">
        <ele>375</ele>
        <time>2026-08-29T17:09:38Z</time>
      </trkpt>
      <trkpt lat="50.60053339228034" lon="13.602139223366976">
        <ele>375</ele>
        <time>2026-08-29T17:09:39Z</time>
      </trkpt>
      <trkpt lat="50.600581504404545" lon="13.602205105125904">
        <ele>376</ele>
        <time>2026-08-29T17:09:40Z</time>
      </trkpt>
      <trkpt lat="50.60063011944294" lon="13.602286325767636">
        <ele>376</ele>
        <time>2026-08-29T17:09:41Z</time>
      </trkpt>
      <trkpt lat="50.6006736215204" lon="13.602357739582658">
        <ele>375</ele>
        <time>2026-08-29T17:09:42Z</time>
      </trkpt>
      <trkpt lat="50.60072299093008" lon="13.602429488673806">
        <ele>375</ele>
        <time>2026-08-29T17:09:43Z</time>
      </trkpt>
      <trkpt lat="50.600773030892015" lon="13.602496208623052">
        <ele>375</ele>
        <time>2026-08-29T17:09:44Z</time>
      </trkpt>
      <trkpt lat="50.60082851909101" lon="13.602565191686153">
        <ele>375</ele>
        <time>2026-08-29T17:09:45Z</time>
      </trkpt>
      <trkpt lat="50.600885348394513" lon="13.602643059566617">
        <ele>376</ele>
        <time>2026-08-29T17:09:46Z</time>
      </trkpt>
      <trkpt lat="50.600941088050604" lon="13.602713299915195">
        <ele>376</ele>
        <time>2026-08-29T17:09:47Z</time>
      </trkpt>
      <trkpt lat="50.600992804393172" lon="13.602785803377628">
        <ele>376</ele>
        <time>2026-08-29T17:09:48Z</time>
      </trkpt>
      <trkpt lat="50.601035635918379" lon="13.602873394265771">
        <ele>375</ele>
        <time>2026-08-29T17:09:49Z</time>
      </trkpt>
      <trkpt lat="50.601080060005188" lon="13.602955117821693">
        <ele>375</ele>
        <time>2026-08-29T17:09:50Z</time>
      </trkpt>
      <trkpt lat="50.60112708248198" lon="13.603045223280787">
        <ele>375</ele>
        <time>2026-08-29T17:09:51Z</time>
      </trkpt>
      <trkpt lat="50.601173099130392" lon="13.603135831654072">
        <ele>374</ele>
        <time>2026-08-29T17:09:52Z</time>
      </trkpt>
      <trkpt lat="50.601220624521375" lon="13.603217387571931">
        <ele>374</ele>
        <time>2026-08-29T17:09:53Z</time>
      </trkpt>
      <trkpt lat="50.601268149912357" lon="13.603297602385283">
        <ele>374</ele>
        <time>2026-08-29T17:09:54Z</time>
      </trkpt>
      <trkpt lat="50.601314837113023" lon="13.603382175788283">
        <ele>375</ele>
        <time>2026-08-29T17:09:55Z</time>
      </trkpt>
      <trkpt lat="50.601359428837895" lon="13.603471359238029">
        <ele>375</ele>
        <time>2026-08-29T17:09:56Z</time>
      </trkpt>
      <trkpt lat="50.601403182372451" lon="13.603551993146539">
        <ele>375</ele>
        <time>2026-08-29T17:09:57Z</time>
      </trkpt>
      <trkpt lat="50.601448947563767" lon="13.603633800521493">
        <ele>375</ele>
        <time>2026-08-29T17:09:58Z</time>
      </trkpt>
      <trkpt lat="50.601492449641228" lon="13.603715859353542">
        <ele>375</ele>
        <time>2026-08-29T17:09:59Z</time>
      </trkpt>
      <trkpt lat="50.601536957547069" lon="13.603804791346192">
        <ele>376</ele>
        <time>2026-08-29T17:10:00Z</time>
      </trkpt>
      <trkpt lat="50.601578447967768" lon="13.603889364749193">
        <ele>376</ele>
        <time>2026-08-29T17:10:01Z</time>
      </trkpt>
      <trkpt lat="50.601622620597482" lon="13.603979386389256">
        <ele>376</ele>
        <time>2026-08-29T17:10:02Z</time>
      </trkpt>
      <trkpt lat="50.601663859561086" lon="13.604076029732823">
        <ele>376</ele>
        <time>2026-08-29T17:10:03Z</time>
      </trkpt>
      <trkpt lat="50.601698812097311" lon="13.604166135191917">
        <ele>376</ele>
        <time>2026-08-29T17:10:04Z</time>
      </trkpt>
      <trkpt lat="50.601740721613169" lon="13.604256073012948">
        <ele>376</ele>
        <time>2026-08-29T17:10:05Z</time>
      </trkpt>
      <trkpt lat="50.601784642785788" lon="13.604337042197585">
        <ele>376</ele>
        <time>2026-08-29T17:10:06Z</time>
      </trkpt>
      <trkpt lat="50.601825546473265" lon="13.604426980018616">
        <ele>377</ele>
        <time>2026-08-29T17:10:07Z</time>
      </trkpt>
      <trkpt lat="50.601867791265249" lon="13.604515660554171">
        <ele>377</ele>
        <time>2026-08-29T17:10:08Z</time>
      </trkpt>
      <trkpt lat="50.601898720487952" lon="13.604598725214601">
        <ele>376</ele>
        <time>2026-08-29T17:10:09Z</time>
      </trkpt>
      <trkpt lat="50.601930320262909" lon="13.604681119322777">
        <ele>376</ele>
        <time>2026-08-29T17:10:10Z</time>
      </trkpt>
      <trkpt lat="50.601962339133024" lon="13.604765525087714">
        <ele>377</ele>
        <time>2026-08-29T17:10:11Z</time>
      </trkpt>
      <trkpt lat="50.601992178708315" lon="13.604837860912085">
        <ele>377</ele>
        <time>2026-08-29T17:10:12Z</time>
      </trkpt>
      <trkpt lat="50.602021850645542" lon="13.604912627488375">
        <ele>377</ele>
        <time>2026-08-29T17:10:13Z</time>
      </trkpt>
      <trkpt lat="50.60205889865756" lon="13.604991836473346">
        <ele>377</ele>
        <time>2026-08-29T17:10:14Z</time>
      </trkpt>
      <trkpt lat="50.60208773240447" lon="13.605068195611238">
        <ele>377</ele>
        <time>2026-08-29T17:10:15Z</time>
      </trkpt>
      <trkpt lat="50.602122098207474" lon="13.605140531435609">
        <ele>377</ele>
        <time>2026-08-29T17:10:16Z</time>
      </trkpt>
      <trkpt lat="50.602149339392781" lon="13.605220159515738">
        <ele>377</ele>
        <time>2026-08-29T17:10:17Z</time>
      </trkpt>
      <trkpt lat="50.602177167311311" lon="13.605290567502379">
        <ele>378</ele>
        <time>2026-08-29T17:10:18Z</time>
      </trkpt>
      <trkpt lat="50.602207342162728" lon="13.60536097548902">
        <ele>378</ele>
        <time>2026-08-29T17:10:19Z</time>
      </trkpt>
      <trkpt lat="50.602241037413478" lon="13.605424677953124">
        <ele>377</ele>
        <time>2026-08-29T17:10:20Z</time>
      </trkpt>
      <trkpt lat="50.602268110960722" lon="13.605492068454623">
        <ele>377</ele>
        <time>2026-08-29T17:10:21Z</time>
      </trkpt>
      <trkpt lat="50.602289568632841" lon="13.605560464784503">
        <ele>377</ele>
        <time>2026-08-29T17:10:22Z</time>
      </trkpt>
      <trkpt lat="50.602310271933675" lon="13.605628022924066">
        <ele>377</ele>
        <time>2026-08-29T17:10:23Z</time>
      </trkpt>
      <trkpt lat="50.602329801768064" lon="13.605693401768804">
        <ele>376</ele>
        <time>2026-08-29T17:10:24Z</time>
      </trkpt>
      <trkpt lat="50.602347739040852" lon="13.60574796795845">
        <ele>377</ele>
        <time>2026-08-29T17:10:25Z</time>
      </trkpt>
      <trkpt lat="50.602365089580417" lon="13.605794906616211">
        <ele>377</ele>
        <time>2026-08-29T17:10:26Z</time>
      </trkpt>
      <trkpt lat="50.602380260825157" lon="13.605853160843253">
        <ele>377</ele>
        <time>2026-08-29T17:10:27Z</time>
      </trkpt>
      <trkpt lat="50.602398030459881" lon="13.605912085622549">
        <ele>377</ele>
        <time>2026-08-29T17:10:28Z</time>
      </trkpt>
      <trkpt lat="50.602415548637509" lon="13.60596832819283">
        <ele>377</ele>
        <time>2026-08-29T17:10:29Z</time>
      </trkpt>
      <trkpt lat="50.602434407919645" lon="13.606022810563445">
        <ele>377</ele>
        <time>2026-08-29T17:10:30Z</time>
      </trkpt>
      <trkpt lat="50.602455027401447" lon="13.606080561876297">
        <ele>378</ele>
        <time>2026-08-29T17:10:31Z</time>
      </trkpt>
      <trkpt lat="50.602476401254535" lon="13.606142587959766">
        <ele>378</ele>
        <time>2026-08-29T17:10:32Z</time>
      </trkpt>
      <trkpt lat="50.602491488680243" lon="13.606209391728044">
        <ele>378</ele>
        <time>2026-08-29T17:10:33Z</time>
      </trkpt>
      <trkpt lat="50.602505067363381" lon="13.606264460831881">
        <ele>379</ele>
        <time>2026-08-29T17:10:34Z</time>
      </trkpt>
      <trkpt lat="50.602520909160376" lon="13.6063186917454">
        <ele>379</ele>
        <time>2026-08-29T17:10:35Z</time>
      </trkpt>
      <trkpt lat="50.602533901110291" lon="13.606370994821191">
        <ele>379</ele>
        <time>2026-08-29T17:10:36Z</time>
      </trkpt>
      <trkpt lat="50.602547898888588" lon="13.606424890458584">
        <ele>379</ele>
        <time>2026-08-29T17:10:37Z</time>
      </trkpt>
      <trkpt lat="50.602564243599772" lon="13.60647501423955">
        <ele>379</ele>
        <time>2026-08-29T17:10:38Z</time>
      </trkpt>
      <trkpt lat="50.602578492835164" lon="13.606525808572769">
        <ele>379</ele>
        <time>2026-08-29T17:10:39Z</time>
      </trkpt>
      <trkpt lat="50.602592239156365" lon="13.606577692553401">
        <ele>380</ele>
        <time>2026-08-29T17:10:40Z</time>
      </trkpt>
      <trkpt lat="50.602601962164044" lon="13.606634018942714">
        <ele>380</ele>
        <time>2026-08-29T17:10:41Z</time>
      </trkpt>
      <trkpt lat="50.602618055418134" lon="13.606682466343045">
        <ele>380</ele>
        <time>2026-08-29T17:10:42Z</time>
      </trkpt>
      <trkpt lat="50.602633561939001" lon="13.606728482991457">
        <ele>380</ele>
        <time>2026-08-29T17:10:43Z</time>
      </trkpt>
      <trkpt lat="50.602651750668883" lon="13.60677307471633">
        <ele>380</ele>
        <time>2026-08-29T17:10:44Z</time>
      </trkpt>
      <trkpt lat="50.60266968794167" lon="13.606828646734357">
        <ele>380</ele>
        <time>2026-08-29T17:10:45Z</time>
      </trkpt>
      <trkpt lat="50.602691397070885" lon="13.606881955638528">
        <ele>380</ele>
        <time>2026-08-29T17:10:46Z</time>
      </trkpt>
      <trkpt lat="50.60270338319242" lon="13.606929983943701">
        <ele>380</ele>
        <time>2026-08-29T17:10:47Z</time>
      </trkpt>
      <trkpt lat="50.602716039866209" lon="13.606976503506303">
        <ele>380</ele>
        <time>2026-08-29T17:10:48Z</time>
      </trkpt>
      <trkpt lat="50.602724757045507" lon="13.607023358345032">
        <ele>380</ele>
        <time>2026-08-29T17:10:49Z</time>
      </trkpt>
      <trkpt lat="50.602736910805106" lon="13.607066022232175">
        <ele>381</ele>
        <time>2026-08-29T17:10:50Z</time>
      </trkpt>
      <trkpt lat="50.602748729288578" lon="13.607117151841521">
        <ele>381</ele>
        <time>2026-08-29T17:10:51Z</time>
      </trkpt>
      <trkpt lat="50.602760128676891" lon="13.607167107984424">
        <ele>381</ele>
        <time>2026-08-29T17:10:52Z</time>
      </trkpt>
      <trkpt lat="50.60277228243649" lon="13.607208849862218">
        <ele>381</ele>
        <time>2026-08-29T17:10:53Z</time>
      </trkpt>
      <trkpt lat="50.602788543328643" lon="13.607251429930329">
        <ele>382</ele>
        <time>2026-08-29T17:10:54Z</time>
      </trkpt>
      <trkpt lat="50.602803798392415" lon="13.60729887150228">
        <ele>382</ele>
        <time>2026-08-29T17:10:55Z</time>
      </trkpt>
      <trkpt lat="50.602816035971045" lon="13.607343547046185">
        <ele>382</ele>
        <time>2026-08-29T17:10:56Z</time>
      </trkpt>
      <trkpt lat="50.602827351540327" lon="13.607391072437167">
        <ele>382</ele>
        <time>2026-08-29T17:10:57Z</time>
      </trkpt>
      <trkpt lat="50.60284118168056" lon="13.607447985559702">
        <ele>383</ele>
        <time>2026-08-29T17:10:58Z</time>
      </trkpt>
      <trkpt lat="50.602853419259191" lon="13.607503557577729">
        <ele>383</ele>
        <time>2026-08-29T17:10:59Z</time>
      </trkpt>
      <trkpt lat="50.602858029305935" lon="13.607562817633152">
        <ele>383</ele>
        <time>2026-08-29T17:11:00Z</time>
      </trkpt>
      <trkpt lat="50.602866411209106" lon="13.607609504833817">
        <ele>383</ele>
        <time>2026-08-29T17:11:01Z</time>
      </trkpt>
      <trkpt lat="50.602875463664532" lon="13.607653006911278">
        <ele>383</ele>
        <time>2026-08-29T17:11:02Z</time>
      </trkpt>
      <trkpt lat="50.602886779233813" lon="13.607696089893579">
        <ele>383</ele>
        <time>2026-08-29T17:11:03Z</time>
      </trkpt>
      <trkpt lat="50.602900609374046" lon="13.607738921418786">
        <ele>383</ele>
        <time>2026-08-29T17:11:04Z</time>
      </trkpt>
      <trkpt lat="50.60290614143014" lon="13.607772700488567">
        <ele>383</ele>
        <time>2026-08-29T17:11:05Z</time>
      </trkpt>
      <trkpt lat="50.602910332381725" lon="13.607815280556679">
        <ele>384</ele>
        <time>2026-08-29T17:11:06Z</time>
      </trkpt>
      <trkpt lat="50.60291594825685" lon="13.607852999120951">
        <ele>384</ele>
        <time>2026-08-29T17:11:07Z</time>
      </trkpt>
      <trkpt lat="50.602925671264529" lon="13.607896585017443">
        <ele>384</ele>
        <time>2026-08-29T17:11:08Z</time>
      </trkpt>
      <trkpt lat="50.602932292968035" lon="13.607939667999744">
        <ele>385</ele>
        <time>2026-08-29T17:11:09Z</time>
      </trkpt>
      <trkpt lat="50.602935310453176" lon="13.607989707961679">
        <ele>385</ele>
        <time>2026-08-29T17:11:10Z</time>
      </trkpt>
      <trkpt lat="50.602938579395413" lon="13.608039747923613">
        <ele>385</ele>
        <time>2026-08-29T17:11:11Z</time>
      </trkpt>
      <trkpt lat="50.60294721275568" lon="13.60808651894331">
        <ele>385</ele>
        <time>2026-08-29T17:11:12Z</time>
      </trkpt>
      <trkpt lat="50.602952241897583" lon="13.608134211972356">
        <ele>386</ele>
        <time>2026-08-29T17:11:13Z</time>
      </trkpt>
      <trkpt lat="50.602961042895913" lon="13.608187269419432">
        <ele>386</ele>
        <time>2026-08-29T17:11:14Z</time>
      </trkpt>
      <trkpt lat="50.602973364293575" lon="13.608239404857159">
        <ele>386</ele>
        <time>2026-08-29T17:11:15Z</time>
      </trkpt>
      <trkpt lat="50.602986607700586" lon="13.608293551951647">
        <ele>387</ele>
        <time>2026-08-29T17:11:16Z</time>
      </trkpt>
      <trkpt lat="50.602999934926629" lon="13.608343172818422">
        <ele>387</ele>
        <time>2026-08-29T17:11:17Z</time>
      </trkpt>
      <trkpt lat="50.60301368124783" lon="13.608388435095549">
        <ele>388</ele>
        <time>2026-08-29T17:11:18Z</time>
      </trkpt>
      <trkpt lat="50.603024326264858" lon="13.608434284105897">
        <ele>388</ele>
        <time>2026-08-29T17:11:19Z</time>
      </trkpt>
      <trkpt lat="50.603033462539315" lon="13.608481474220753">
        <ele>388</ele>
        <time>2026-08-29T17:11:20Z</time>
      </trkpt>
      <trkpt lat="50.60303907841444" lon="13.608529083430767">
        <ele>388</ele>
        <time>2026-08-29T17:11:21Z</time>
      </trkpt>
      <trkpt lat="50.603051651269197" lon="13.608576860278845">
        <ele>388</ele>
        <time>2026-08-29T17:11:22Z</time>
      </trkpt>
      <trkpt lat="50.603061961010098" lon="13.60862840898335">
        <ele>388</ele>
        <time>2026-08-29T17:11:23Z</time>
      </trkpt>
      <trkpt lat="50.603070259094238" lon="13.608681801706553">
        <ele>389</ele>
        <time>2026-08-29T17:11:24Z</time>
      </trkpt>
      <trkpt lat="50.603077970445156" lon="13.608735110610723">
        <ele>389</ele>
        <time>2026-08-29T17:11:25Z</time>
      </trkpt>
      <trkpt lat="50.603089537471533" lon="13.60879210755229">
        <ele>389</ele>
        <time>2026-08-29T17:11:26Z</time>
      </trkpt>
      <trkpt lat="50.603096997365355" lon="13.608864191919565">
        <ele>390</ele>
        <time>2026-08-29T17:11:27Z</time>
      </trkpt>
      <trkpt lat="50.603103870525956" lon="13.608926720917225">
        <ele>391</ele>
        <time>2026-08-29T17:11:28Z</time>
      </trkpt>
      <trkpt lat="50.603108899667859" lon="13.608987992629409">
        <ele>392</ele>
        <time>2026-08-29T17:11:29Z</time>
      </trkpt>
      <trkpt lat="50.603112671524286" lon="13.609041133895516">
        <ele>393</ele>
        <time>2026-08-29T17:11:30Z</time>
      </trkpt>
      <trkpt lat="50.603121221065521" lon="13.609096873551607">
        <ele>392</ele>
        <time>2026-08-29T17:11:31Z</time>
      </trkpt>
      <trkpt lat="50.603128429502249" lon="13.609152780845761">
        <ele>392</ele>
        <time>2026-08-29T17:11:32Z</time>
      </trkpt>
      <trkpt lat="50.603134632110596" lon="13.60920449718833">
        <ele>392</ele>
        <time>2026-08-29T17:11:33Z</time>
      </trkpt>
      <trkpt lat="50.603144355118275" lon="13.609260488301516">
        <ele>392</ele>
        <time>2026-08-29T17:11:34Z</time>
      </trkpt>
      <trkpt lat="50.603150809183717" lon="13.609313294291496">
        <ele>393</ele>
        <time>2026-08-29T17:11:35Z</time>
      </trkpt>
      <trkpt lat="50.60314267873764" lon="13.609378589317203">
        <ele>393</ele>
        <time>2026-08-29T17:11:36Z</time>
      </trkpt>
      <trkpt lat="50.603121807798743" lon="13.609440363943577">
        <ele>393</ele>
        <time>2026-08-29T17:11:37Z</time>
      </trkpt>
      <trkpt lat="50.603108815848827" lon="13.609508005902171">
        <ele>392</ele>
        <time>2026-08-29T17:11:38Z</time>
      </trkpt>
      <trkpt lat="50.603096829727292" lon="13.609574222937226">
        <ele>392</ele>
        <time>2026-08-29T17:11:39Z</time>
      </trkpt>
      <trkpt lat="50.603084759786725" lon="13.609640188515186">
        <ele>392</ele>
        <time>2026-08-29T17:11:40Z</time>
      </trkpt>
      <trkpt lat="50.603093476966023" lon="13.609709171578288">
        <ele>392</ele>
        <time>2026-08-29T17:11:41Z</time>
      </trkpt>
      <trkpt lat="50.603118790313601" lon="13.609759043902159">
        <ele>392</ele>
        <time>2026-08-29T17:11:42Z</time>
      </trkpt>
      <trkpt lat="50.603162962943316" lon="13.609796846285462">
        <ele>393</ele>
        <time>2026-08-29T17:11:43Z</time>
      </trkpt>
      <trkpt lat="50.603208728134632" lon="13.609807575121522">
        <ele>393</ele>
        <time>2026-08-29T17:11:44Z</time>
      </trkpt>
      <trkpt lat="50.603252649307251" lon="13.609805814921856">
        <ele>393</ele>
        <time>2026-08-29T17:11:45Z</time>
      </trkpt>
      <trkpt lat="50.603285590186715" lon="13.609778573736548">
        <ele>392</ele>
        <time>2026-08-29T17:11:46Z</time>
      </trkpt>
      <trkpt lat="50.603320961818099" lon="13.609722666442394">
        <ele>392</ele>
        <time>2026-08-29T17:11:47Z</time>
      </trkpt>
      <trkpt lat="50.603343760594726" lon="13.609674889594316">
        <ele>393</ele>
        <time>2026-08-29T17:11:48Z</time>
      </trkpt>
      <trkpt lat="50.603375695645809" lon="13.609624598175287">
        <ele>393</ele>
        <time>2026-08-29T17:11:49Z</time>
      </trkpt>
      <trkpt lat="50.603424059227109" lon="13.609590064734221">
        <ele>392</ele>
        <time>2026-08-29T17:11:50Z</time>
      </trkpt>
      <trkpt lat="50.603464460000396" lon="13.609585706144571">
        <ele>392</ele>
        <time>2026-08-29T17:11:51Z</time>
      </trkpt>
      <trkpt lat="50.603506369516253" lon="13.60957489348948">
        <ele>392</ele>
        <time>2026-08-29T17:11:52Z</time>
      </trkpt>
      <trkpt lat="50.60354677028954" lon="13.609572127461433">
        <ele>392</ele>
        <time>2026-08-29T17:11:53Z</time>
      </trkpt>
      <trkpt lat="50.603586751967669" lon="13.609579252079129">
        <ele>393</ele>
        <time>2026-08-29T17:11:54Z</time>
      </trkpt>
      <trkpt lat="50.603629667311907" lon="13.609580341726542">
        <ele>393</ele>
        <time>2026-08-29T17:11:55Z</time>
      </trkpt>
      <trkpt lat="50.603669732809067" lon="13.60957439057529">
        <ele>393</ele>
        <time>2026-08-29T17:11:56Z</time>
      </trkpt>
      <trkpt lat="50.603711558505893" lon="13.609564583748579">
        <ele>393</ele>
        <time>2026-08-29T17:11:57Z</time>
      </trkpt>
      <trkpt lat="50.603751707822084" lon="13.609567014500499">
        <ele>393</ele>
        <time>2026-08-29T17:11:58Z</time>
      </trkpt>
      <trkpt lat="50.603784648701549" lon="13.609556201845407">
        <ele>393</ele>
        <time>2026-08-29T17:11:59Z</time>
      </trkpt>
      <trkpt lat="50.603818008676171" lon="13.609541701152921">
        <ele>393</ele>
        <time>2026-08-29T17:12:00Z</time>
      </trkpt>
      <trkpt lat="50.603847848251462" lon="13.609532732516527">
        <ele>394</ele>
        <time>2026-08-29T17:12:01Z</time>
      </trkpt>
      <trkpt lat="50.603884058073163" lon="13.609522841870785">
        <ele>394</ele>
        <time>2026-08-29T17:12:02Z</time>
      </trkpt>
      <trkpt lat="50.60391859151423" lon="13.609520830214024">
        <ele>394</ele>
        <time>2026-08-29T17:12:03Z</time>
      </trkpt>
      <trkpt lat="50.60395329259336" lon="13.609522003680468">
        <ele>394</ele>
        <time>2026-08-29T17:12:04Z</time>
      </trkpt>
      <trkpt lat="50.603989837691188" lon="13.609534911811352">
        <ele>394</ele>
        <time>2026-08-29T17:12:05Z</time>
      </trkpt>
      <trkpt lat="50.604029651731253" lon="13.609530385583639">
        <ele>393</ele>
        <time>2026-08-29T17:12:06Z</time>
      </trkpt>
      <trkpt lat="50.604060329496861" lon="13.609537342563272">
        <ele>393</ele>
        <time>2026-08-29T17:12:07Z</time>
      </trkpt>
      <trkpt lat="50.604091258719563" lon="13.609542874619365">
        <ele>393</ele>
        <time>2026-08-29T17:12:08Z</time>
      </trkpt>
      <trkpt lat="50.604117829352617" lon="13.609542204067111">
        <ele>393</ele>
        <time>2026-08-29T17:12:09Z</time>
      </trkpt>
      <trkpt lat="50.60414481908083" lon="13.60954262316227">
        <ele>393</ele>
        <time>2026-08-29T17:12:10Z</time>
      </trkpt>
      <trkpt lat="50.604170300066471" lon="13.609541784971952">
        <ele>393</ele>
        <time>2026-08-29T17:12:11Z</time>
      </trkpt>
      <trkpt lat="50.604199469089508" lon="13.609537174925208">
        <ele>393</ele>
        <time>2026-08-29T17:12:12Z</time>
      </trkpt>
      <trkpt lat="50.604229476302862" lon="13.60954362899065">
        <ele>393</ele>
        <time>2026-08-29T17:12:13Z</time>
      </trkpt>
      <trkpt lat="50.604259818792343" lon="13.609544886276126">
        <ele>394</ele>
        <time>2026-08-29T17:12:14Z</time>
      </trkpt>
      <trkpt lat="50.604284713044763" lon="13.609540527686477">
        <ele>393</ele>
        <time>2026-08-29T17:12:15Z</time>
      </trkpt>
      <trkpt lat="50.604315558448434" lon="13.609528373926878">
        <ele>393</ele>
        <time>2026-08-29T17:12:16Z</time>
      </trkpt>
      <trkpt lat="50.604338441044092" lon="13.609521249309182">
        <ele>393</ele>
        <time>2026-08-29T17:12:17Z</time>
      </trkpt>
      <trkpt lat="50.604359731078148" lon="13.609513286501169">
        <ele>394</ele>
        <time>2026-08-29T17:12:18Z</time>
      </trkpt>
      <trkpt lat="50.604385128244758" lon="13.609517142176628">
        <ele>394</ele>
        <time>2026-08-29T17:12:19Z</time>
      </trkpt>
      <trkpt lat="50.604407843202353" lon="13.609522758051753">
        <ele>394</ele>
        <time>2026-08-29T17:12:20Z</time>
      </trkpt>
      <trkpt lat="50.604430390521884" lon="13.609518315643072">
        <ele>394</ele>
        <time>2026-08-29T17:12:21Z</time>
      </trkpt>
      <trkpt lat="50.604456458240747" lon="13.609523680061102">
        <ele>394</ele>
        <time>2026-08-29T17:12:22Z</time>
      </trkpt>
      <trkpt lat="50.604487219825387" lon="13.609530050307512">
        <ele>395</ele>
        <time>2026-08-29T17:12:23Z</time>
      </trkpt>
      <trkpt lat="50.604516221210361" lon="13.609529295936227">
        <ele>395</ele>
        <time>2026-08-29T17:12:24Z</time>
      </trkpt>
      <trkpt lat="50.604539439082146" lon="13.609533319249749">
        <ele>395</ele>
        <time>2026-08-29T17:12:25Z</time>
      </trkpt>
      <trkpt lat="50.60456894338131" lon="13.609535750001669">
        <ele>396</ele>
        <time>2026-08-29T17:12:26Z</time>
      </trkpt>
      <trkpt lat="50.604590568691492" lon="13.609529212117195">
        <ele>396</ele>
        <time>2026-08-29T17:12:27Z</time>
      </trkpt>
      <trkpt lat="50.604616804048419" lon="13.609527787193656">
        <ele>397</ele>
        <time>2026-08-29T17:12:28Z</time>
      </trkpt>
      <trkpt lat="50.604641949757934" lon="13.609537174925208">
        <ele>397</ele>
        <time>2026-08-29T17:12:29Z</time>
      </trkpt>
      <trkpt lat="50.604669190943241" lon="13.609535833820701">
        <ele>397</ele>
        <time>2026-08-29T17:12:30Z</time>
      </trkpt>
      <trkpt lat="50.604690397158265" lon="13.609537174925208">
        <ele>397</ele>
        <time>2026-08-29T17:12:31Z</time>
      </trkpt>
      <trkpt lat="50.604718141257763" lon="13.609519405290484">
        <ele>398</ele>
        <time>2026-08-29T17:12:32Z</time>
      </trkpt>
      <trkpt lat="50.604746555909514" lon="13.609507838264108">
        <ele>399</ele>
        <time>2026-08-29T17:12:33Z</time>
      </trkpt>
      <trkpt lat="50.604767929762602" lon="13.609501635655761">
        <ele>399</ele>
        <time>2026-08-29T17:12:34Z</time>
      </trkpt>
      <trkpt lat="50.604797517880797" lon="13.609498282894492">
        <ele>400</ele>
        <time>2026-08-29T17:12:35Z</time>
      </trkpt>
      <trkpt lat="50.604823837056756" lon="13.60949132591486">
        <ele>400</ele>
        <time>2026-08-29T17:12:36Z</time>
      </trkpt>
      <trkpt lat="50.604861471801996" lon="13.609501300379634">
        <ele>400</ele>
        <time>2026-08-29T17:12:37Z</time>
      </trkpt>
      <trkpt lat="50.60489634051919" lon="13.60952066257596">
        <ele>400</ele>
        <time>2026-08-29T17:12:38Z</time>
      </trkpt>
      <trkpt lat="50.604932131245732" lon="13.609559051692486">
        <ele>400</ele>
        <time>2026-08-29T17:12:39Z</time>
      </trkpt>
      <trkpt lat="50.604945542290807" lon="13.609637841582298">
        <ele>400</ele>
        <time>2026-08-29T17:12:40Z</time>
      </trkpt>
      <trkpt lat="50.604957193136215" lon="13.609702130779624">
        <ele>400</ele>
        <time>2026-08-29T17:12:41Z</time>
      </trkpt>
      <trkpt lat="50.604960629716516" lon="13.609772538766265">
        <ele>400</ele>
        <time>2026-08-29T17:12:42Z</time>
      </trkpt>
      <trkpt lat="50.604967419058084" lon="13.609825763851404">
        <ele>401</ele>
        <time>2026-08-29T17:12:43Z</time>
      </trkpt>
      <trkpt lat="50.604976303875446" lon="13.609877731651068">
        <ele>400</ele>
        <time>2026-08-29T17:12:44Z</time>
      </trkpt>
      <trkpt lat="50.604980746284127" lon="13.609918300062418">
        <ele>400</ele>
        <time>2026-08-29T17:12:45Z</time>
      </trkpt>
      <trkpt lat="50.604989798739552" lon="13.609958533197641">
        <ele>400</ele>
        <time>2026-08-29T17:12:46Z</time>
      </trkpt>
      <trkpt lat="50.604993989691138" lon="13.609991809353232">
        <ele>400</ele>
        <time>2026-08-29T17:12:47Z</time>
      </trkpt>
      <trkpt lat="50.605003712698817" lon="13.6099882889539">
        <ele>401</ele>
        <time>2026-08-29T17:12:48Z</time>
      </trkpt>
      <trkpt lat="50.605013770982623" lon="13.609966412186623">
        <ele>401</ele>
        <time>2026-08-29T17:12:49Z</time>
      </trkpt>
      <trkpt lat="50.605025421828032" lon="13.609930537641048">
        <ele>401</ele>
        <time>2026-08-29T17:12:50Z</time>
      </trkpt>
      <trkpt lat="50.605034809559584" lon="13.609891561791301">
        <ele>401</ele>
        <time>2026-08-29T17:12:51Z</time>
      </trkpt>
      <trkpt lat="50.605034977197647" lon="13.609840432181954">
        <ele>401</ele>
        <time>2026-08-29T17:12:52Z</time>
      </trkpt>
      <trkpt lat="50.605038749054074" lon="13.609789973124862">
        <ele>401</ele>
        <time>2026-08-29T17:12:53Z</time>
      </trkpt>
      <trkpt lat="50.605036150664091" lon="13.609739514067769">
        <ele>402</ele>
        <time>2026-08-29T17:12:54Z</time>
      </trkpt>
      <trkpt lat="50.605038162320852" lon="13.60969458706677">
        <ele>402</ele>
        <time>2026-08-29T17:12:55Z</time>
      </trkpt>
      <trkpt lat="50.605055093765259" lon="13.609651755541563">
        <ele>402</ele>
        <time>2026-08-29T17:12:56Z</time>
      </trkpt>
      <trkpt lat="50.605089878663421" lon="13.609645385295153">
        <ele>402</ele>
        <time>2026-08-29T17:12:57Z</time>
      </trkpt>
      <trkpt lat="50.605126088485122" lon="13.609649911522865">
        <ele>402</ele>
        <time>2026-08-29T17:12:58Z</time>
      </trkpt>
      <trkpt lat="50.605153329670429" lon="13.609663574025035">
        <ele>402</ele>
        <time>2026-08-29T17:12:59Z</time>
      </trkpt>
      <trkpt lat="50.605188030749559" lon="13.609675727784634">
        <ele>403</ele>
        <time>2026-08-29T17:13:00Z</time>
      </trkpt>
      <trkpt lat="50.605211835354567" lon="13.609682600945234">
        <ele>403</ele>
        <time>2026-08-29T17:13:01Z</time>
      </trkpt>
      <trkpt lat="50.605236478149891" lon="13.609691569581628">
        <ele>403</ele>
        <time>2026-08-29T17:13:02Z</time>
      </trkpt>
      <trkpt lat="50.605259360745549" lon="13.609686959534883">
        <ele>403</ele>
        <time>2026-08-29T17:13:03Z</time>
      </trkpt>
      <trkpt lat="50.605286518111825" lon="13.609692910686135">
        <ele>403</ele>
        <time>2026-08-29T17:13:04Z</time>
      </trkpt>
      <trkpt lat="50.605307472869754" lon="13.609699448570609">
        <ele>402</ele>
        <time>2026-08-29T17:13:05Z</time>
      </trkpt>
      <trkpt lat="50.605332953855395" lon="13.609699951484799">
        <ele>402</ele>
        <time>2026-08-29T17:13:06Z</time>
      </trkpt>
      <trkpt lat="50.605358267202973" lon="13.609706405550241">
        <ele>402</ele>
        <time>2026-08-29T17:13:07Z</time>
      </trkpt>
      <trkpt lat="50.605382239446044" lon="13.609707746654749">
        <ele>403</ele>
        <time>2026-08-29T17:13:08Z</time>
      </trkpt>
      <trkpt lat="50.605405960232019" lon="13.609709171578288">
        <ele>403</ele>
        <time>2026-08-29T17:13:09Z</time>
      </trkpt>
      <trkpt lat="50.605423310771585" lon="13.609705399721861">
        <ele>403</ele>
        <time>2026-08-29T17:13:10Z</time>
      </trkpt>
      <trkpt lat="50.605450971052051" lon="13.609701711684465">
        <ele>403</ele>
        <time>2026-08-29T17:13:11Z</time>
      </trkpt>
      <trkpt lat="50.605474188923836" lon="13.609700705856085">
        <ele>402</ele>
        <time>2026-08-29T17:13:12Z</time>
      </trkpt>
      <trkpt lat="50.605497825890779" lon="13.609711769968271">
        <ele>403</ele>
        <time>2026-08-29T17:13:13Z</time>
      </trkpt>
      <trkpt lat="50.605522887781262" lon="13.609715960919857">
        <ele>403</ele>
        <time>2026-08-29T17:13:14Z</time>
      </trkpt>
      <trkpt lat="50.605548284947872" lon="13.609713446348906">
        <ele>403</ele>
        <time>2026-08-29T17:13:15Z</time>
      </trkpt>
      <trkpt lat="50.605578208342195" lon="13.609706908464432">
        <ele>403</ele>
        <time>2026-08-29T17:13:16Z</time>
      </trkpt>
      <trkpt lat="50.605612071231008" lon="13.609707579016685">
        <ele>403</ele>
        <time>2026-08-29T17:13:17Z</time>
      </trkpt>
      <trkpt lat="50.605640653520823" lon="13.60971269197762">
        <ele>404</ele>
        <time>2026-08-29T17:13:18Z</time>
      </trkpt>
      <trkpt lat="50.605661189183593" lon="13.609725516289473">
        <ele>404</ele>
        <time>2026-08-29T17:13:19Z</time>
      </trkpt>
      <trkpt lat="50.605680635198951" lon="13.609760468825698">
        <ele>404</ele>
        <time>2026-08-29T17:13:20Z</time>
      </trkpt>
      <trkpt lat="50.605699578300118" lon="13.609796678647399">
        <ele>404</ele>
        <time>2026-08-29T17:13:21Z</time>
      </trkpt>
      <trkpt lat="50.605721035972238" lon="13.609843533486128">
        <ele>404</ele>
        <time>2026-08-29T17:13:22Z</time>
      </trkpt>
      <trkpt lat="50.605737799778581" lon="13.609888795763254">
        <ele>404</ele>
        <time>2026-08-29T17:13:23Z</time>
      </trkpt>
      <trkpt lat="50.605751629918814" lon="13.60993841663003">
        <ele>404</ele>
        <time>2026-08-29T17:13:24Z</time>
      </trkpt>
      <trkpt lat="50.605768980458379" lon="13.610005220398307">
        <ele>404</ele>
        <time>2026-08-29T17:13:25Z</time>
      </trkpt>
      <trkpt lat="50.605779876932502" lon="13.610070180147886">
        <ele>404</ele>
        <time>2026-08-29T17:13:26Z</time>
      </trkpt>
      <trkpt lat="50.605798568576574" lon="13.610124746337533">
        <ele>405</ele>
        <time>2026-08-29T17:13:27Z</time>
      </trkpt>
      <trkpt lat="50.605806699022651" lon="13.610188951715827">
        <ele>406</ele>
        <time>2026-08-29T17:13:28Z</time>
      </trkpt>
      <trkpt lat="50.605819271877408" lon="13.61025458201766">
        <ele>407</ele>
        <time>2026-08-29T17:13:29Z</time>
      </trkpt>
      <trkpt lat="50.605832850560546" lon="13.610325744375587">
        <ele>406</ele>
        <time>2026-08-29T17:13:30Z</time>
      </trkpt>
      <trkpt lat="50.6058403942734" lon="13.610406462103128">
        <ele>406</ele>
        <time>2026-08-29T17:13:31Z</time>
      </trkpt>
      <trkpt lat="50.605844585224986" lon="13.610476283356547">
        <ele>406</ele>
        <time>2026-08-29T17:13:32Z</time>
      </trkpt>
      <trkpt lat="50.605853302404284" lon="13.610545853152871">
        <ele>405</ele>
        <time>2026-08-29T17:13:33Z</time>
      </trkpt>
      <trkpt lat="50.605862690135837" lon="13.610601173713803">
        <ele>405</ele>
        <time>2026-08-29T17:13:34Z</time>
      </trkpt>
      <trkpt lat="50.605868054553866" lon="13.610650543123484">
        <ele>405</ele>
        <time>2026-08-29T17:13:35Z</time>
      </trkpt>
      <trkpt lat="50.605875011533499" lon="13.610690357163548">
        <ele>405</ele>
        <time>2026-08-29T17:13:36Z</time>
      </trkpt>
      <trkpt lat="50.605879789218307" lon="13.610737463459373">
        <ele>405</ele>
        <time>2026-08-29T17:13:37Z</time>
      </trkpt>
      <trkpt lat="50.605883309617639" lon="13.610807117074728">
        <ele>404</ele>
        <time>2026-08-29T17:13:38Z</time>
      </trkpt>
      <trkpt lat="50.605883896350861" lon="13.610868724063039">
        <ele>405</ele>
        <time>2026-08-29T17:13:39Z</time>
      </trkpt>
      <trkpt lat="50.605886494740844" lon="13.610935863107443">
        <ele>405</ele>
        <time>2026-08-29T17:13:40Z</time>
      </trkpt>
      <trkpt lat="50.605880627408624" lon="13.611000487580895">
        <ele>406</ele>
        <time>2026-08-29T17:13:41Z</time>
      </trkpt>
      <trkpt lat="50.60587358660996" lon="13.611072655767202">
        <ele>406</ele>
        <time>2026-08-29T17:13:42Z</time>
      </trkpt>
      <trkpt lat="50.605870904400945" lon="13.611144404858351">
        <ele>407</ele>
        <time>2026-08-29T17:13:43Z</time>
      </trkpt>
      <trkpt lat="50.605860510841012" lon="13.611207772046328">
        <ele>407</ele>
        <time>2026-08-29T17:13:44Z</time>
      </trkpt>
      <trkpt lat="50.605853050947189" lon="13.611270552501082">
        <ele>407</ele>
        <time>2026-08-29T17:13:45Z</time>
      </trkpt>
      <trkpt lat="50.605836119502783" lon="13.611340876668692">
        <ele>408</ele>
        <time>2026-08-29T17:13:46Z</time>
      </trkpt>
      <trkpt lat="50.605824049562216" lon="13.611415978521109">
        <ele>408</ele>
        <time>2026-08-29T17:13:47Z</time>
      </trkpt>
      <trkpt lat="50.605808962136507" lon="13.611482530832291">
        <ele>408</ele>
        <time>2026-08-29T17:13:48Z</time>
      </trkpt>
      <trkpt lat="50.605800580233335" lon="13.611548747867346">
        <ele>408</ele>
        <time>2026-08-29T17:13:49Z</time>
      </trkpt>
      <trkpt lat="50.605787839740515" lon="13.611615551635623">
        <ele>408</ele>
        <time>2026-08-29T17:13:50Z</time>
      </trkpt>
      <trkpt lat="50.605771830305457" lon="13.611684534698725">
        <ele>408</ele>
        <time>2026-08-29T17:13:51Z</time>
      </trkpt>
      <trkpt lat="50.605758419260383" lon="13.611753433942795">
        <ele>408</ele>
        <time>2026-08-29T17:13:52Z</time>
      </trkpt>
      <trkpt lat="50.605746684595942" lon="13.6118084192276">
        <ele>408</ele>
        <time>2026-08-29T17:13:53Z</time>
      </trkpt>
      <trkpt lat="50.605738218873739" lon="13.611861392855644">
        <ele>408</ele>
        <time>2026-08-29T17:13:54Z</time>
      </trkpt>
      <trkpt lat="50.605728412047029" lon="13.611911265179515">
        <ele>409</ele>
        <time>2026-08-29T17:13:55Z</time>
      </trkpt>
      <trkpt lat="50.60572212561965" lon="13.611960550770164">
        <ele>410</ele>
        <time>2026-08-29T17:13:56Z</time>
      </trkpt>
      <trkpt lat="50.605713743716478" lon="13.612010674551129">
        <ele>410</ele>
        <time>2026-08-29T17:13:57Z</time>
      </trkpt>
      <trkpt lat="50.605710223317146" lon="13.612067839130759">
        <ele>410</ele>
        <time>2026-08-29T17:13:58Z</time>
      </trkpt>
      <trkpt lat="50.605701841413975" lon="13.612113017588854">
        <ele>410</ele>
        <time>2026-08-29T17:13:59Z</time>
      </trkpt>
      <trkpt lat="50.605693208053708" lon="13.612163309007883">
        <ele>411</ele>
        <time>2026-08-29T17:14:00Z</time>
      </trkpt>
      <trkpt lat="50.605686586350203" lon="13.612215779721737">
        <ele>411</ele>
        <time>2026-08-29T17:14:01Z</time>
      </trkpt>
      <trkpt lat="50.605683820322156" lon="13.612263640388846">
        <ele>412</ele>
        <time>2026-08-29T17:14:02Z</time>
      </trkpt>
      <trkpt lat="50.60567719861865" lon="13.612313512712717">
        <ele>412</ele>
        <time>2026-08-29T17:14:03Z</time>
      </trkpt>
      <trkpt lat="50.605676276609302" lon="13.61236204393208">
        <ele>412</ele>
        <time>2026-08-29T17:14:04Z</time>
      </trkpt>
      <trkpt lat="50.60568256303668" lon="13.612410575151443">
        <ele>411</ele>
        <time>2026-08-29T17:14:05Z</time>
      </trkpt>
      <trkpt lat="50.605688598006964" lon="13.612468326464295">
        <ele>411</ele>
        <time>2026-08-29T17:14:06Z</time>
      </trkpt>
      <trkpt lat="50.60570158995688" lon="13.612517360597849">
        <ele>411</ele>
        <time>2026-08-29T17:14:07Z</time>
      </trkpt>
      <trkpt lat="50.605721371248364" lon="13.612565556541085">
        <ele>411</ele>
        <time>2026-08-29T17:14:08Z</time>
      </trkpt>
      <trkpt lat="50.605734279379249" lon="13.612619871273637">
        <ele>411</ele>
        <time>2026-08-29T17:14:09Z</time>
      </trkpt>
      <trkpt lat="50.605749031528831" lon="13.612672090530396">
        <ele>411</ele>
        <time>2026-08-29T17:14:10Z</time>
      </trkpt>
      <trkpt lat="50.605760598555207" lon="13.612722465768456">
        <ele>411</ele>
        <time>2026-08-29T17:14:11Z</time>
      </trkpt>
      <trkpt lat="50.605777027085423" lon="13.612769991159439">
        <ele>411</ele>
        <time>2026-08-29T17:14:12Z</time>
      </trkpt>
      <trkpt lat="50.605798736214638" lon="13.612812738865614">
        <ele>411</ele>
        <time>2026-08-29T17:14:13Z</time>
      </trkpt>
      <trkpt lat="50.605819439515471" lon="13.612842410802841">
        <ele>412</ele>
        <time>2026-08-29T17:14:14Z</time>
      </trkpt>
      <trkpt lat="50.605834778398275" lon="13.612878452986479">
        <ele>412</ele>
        <time>2026-08-29T17:14:15Z</time>
      </trkpt>
      <trkpt lat="50.605847183614969" lon="13.612908041104674">
        <ele>412</ele>
        <time>2026-08-29T17:14:16Z</time>
      </trkpt>
      <trkpt lat="50.605859588831663" lon="13.612938970327377">
        <ele>412</ele>
        <time>2026-08-29T17:14:17Z</time>
      </trkpt>
      <trkpt lat="50.605873670428991" lon="13.612963110208511">
        <ele>412</ele>
        <time>2026-08-29T17:14:18Z</time>
      </trkpt>
      <trkpt lat="50.605892110615969" lon="13.612978281453252">
        <ele>412</ele>
        <time>2026-08-29T17:14:19Z</time>
      </trkpt>
      <trkpt lat="50.605912562459707" lon="13.612996470183134">
        <ele>412</ele>
        <time>2026-08-29T17:14:20Z</time>
      </trkpt>
      <trkpt lat="50.605930248275399" lon="13.613028153777122">
        <ele>412</ele>
        <time>2026-08-29T17:14:21Z</time>
      </trkpt>
      <trkpt lat="50.605954974889755" lon="13.613071739673615">
        <ele>412</ele>
        <time>2026-08-29T17:14:22Z</time>
      </trkpt>
      <trkpt lat="50.605979366227984" lon="13.613132257014513">
        <ele>413</ele>
        <time>2026-08-29T17:14:23Z</time>
      </trkpt>
      <trkpt lat="50.605988670140505" lon="13.61318782903254">
        <ele>413</ele>
        <time>2026-08-29T17:14:24Z</time>
      </trkpt>
      <trkpt lat="50.606004009023309" lon="13.613254381343722">
        <ele>413</ele>
        <time>2026-08-29T17:14:25Z</time>
      </trkpt>
      <trkpt lat="50.606008619070053" lon="13.613309534266591">
        <ele>414</ele>
        <time>2026-08-29T17:14:26Z</time>
      </trkpt>
      <trkpt lat="50.60602311976254" lon="13.613374913111329">
        <ele>414</ele>
        <time>2026-08-29T17:14:27Z</time>
      </trkpt>
      <trkpt lat="50.606034602969885" lon="13.613437609747052">
        <ele>415</ele>
        <time>2026-08-29T17:14:28Z</time>
      </trkpt>
      <trkpt lat="50.606045667082071" lon="13.613484380766749">
        <ele>415</ele>
        <time>2026-08-29T17:14:29Z</time>
      </trkpt>
      <trkpt lat="50.606056731194258" lon="13.613540036603808">
        <ele>415</ele>
        <time>2026-08-29T17:14:30Z</time>
      </trkpt>
      <trkpt lat="50.606068298220634" lon="13.613601811230183">
        <ele>415</ele>
        <time>2026-08-29T17:14:31Z</time>
      </trkpt>
      <trkpt lat="50.60607542283833" lon="13.613658891990781">
        <ele>416</ele>
        <time>2026-08-29T17:14:32Z</time>
      </trkpt>
      <trkpt lat="50.606074500828981" lon="13.613720498979092">
        <ele>415</ele>
        <time>2026-08-29T17:14:33Z</time>
      </trkpt>
      <trkpt lat="50.606073495000601" lon="13.613780764862895">
        <ele>415</ele>
        <time>2026-08-29T17:14:34Z</time>
      </trkpt>
      <trkpt lat="50.606071399524808" lon="13.613840276375413">
        <ele>415</ele>
        <time>2026-08-29T17:14:35Z</time>
      </trkpt>
      <trkpt lat="50.606080451980233" lon="13.613912109285593">
        <ele>415</ele>
        <time>2026-08-29T17:14:36Z</time>
      </trkpt>
      <trkpt lat="50.606090761721134" lon="13.613994084298611">
        <ele>415</ele>
        <time>2026-08-29T17:14:37Z</time>
      </trkpt>
      <trkpt lat="50.606101490557194" lon="13.61408251337707">
        <ele>415</ele>
        <time>2026-08-29T17:14:38Z</time>
      </trkpt>
      <trkpt lat="50.606113560497761" lon="13.614158621057868">
        <ele>415</ele>
        <time>2026-08-29T17:14:39Z</time>
      </trkpt>
      <trkpt lat="50.606136610731483" lon="13.614228274673223">
        <ele>415</ele>
        <time>2026-08-29T17:14:40Z</time>
      </trkpt>
      <trkpt lat="50.606161169707775" lon="13.61429700627923">
        <ele>415</ele>
        <time>2026-08-29T17:14:41Z</time>
      </trkpt>
      <trkpt lat="50.606187405064702" lon="13.614374287426472">
        <ele>415</ele>
        <time>2026-08-29T17:14:42Z</time>
      </trkpt>
      <trkpt lat="50.606211461126804" lon="13.614441677927971">
        <ele>415</ele>
        <time>2026-08-29T17:14:43Z</time>
      </trkpt>
      <trkpt lat="50.606237947940826" lon="13.614511583000422">
        <ele>415</ele>
        <time>2026-08-29T17:14:44Z</time>
      </trkpt>
      <trkpt lat="50.606268122792244" lon="13.614581907168031">
        <ele>415</ele>
        <time>2026-08-29T17:14:45Z</time>
      </trkpt>
      <trkpt lat="50.606292681768537" lon="13.614652650430799">
        <ele>415</ele>
        <time>2026-08-29T17:14:46Z</time>
      </trkpt>
      <trkpt lat="50.606317156925797" lon="13.614717610180378">
        <ele>415</ele>
        <time>2026-08-29T17:14:47Z</time>
      </trkpt>
      <trkpt lat="50.606339117512107" lon="13.614782569929957">
        <ele>415</ele>
        <time>2026-08-29T17:14:48Z</time>
      </trkpt>
      <trkpt lat="50.606360072270036" lon="13.614850798621774">
        <ele>414</ele>
        <time>2026-08-29T17:14:49Z</time>
      </trkpt>
      <trkpt lat="50.606385134160519" lon="13.61490435898304">
        <ele>414</ele>
        <time>2026-08-29T17:14:50Z</time>
      </trkpt>
      <trkpt lat="50.606402568519115" lon="13.614965379238129">
        <ele>414</ele>
        <time>2026-08-29T17:14:51Z</time>
      </trkpt>
      <trkpt lat="50.606423439458013" lon="13.615031093358994">
        <ele>414</ele>
        <time>2026-08-29T17:14:52Z</time>
      </trkpt>
      <trkpt lat="50.606452189385891" lon="13.615099238231778">
        <ele>414</ele>
        <time>2026-08-29T17:14:53Z</time>
      </trkpt>
      <trkpt lat="50.606471886858344" lon="13.61517995595932">
        <ele>414</ele>
        <time>2026-08-29T17:14:54Z</time>
      </trkpt>
      <trkpt lat="50.606493428349495" lon="13.615266960114241">
        <ele>414</ele>
        <time>2026-08-29T17:14:55Z</time>
      </trkpt>
      <trkpt lat="50.606525028124452" lon="13.615335775539279">
        <ele>414</ele>
        <time>2026-08-29T17:14:56Z</time>
      </trkpt>
      <trkpt lat="50.606556124985218" lon="13.615403836593032">
        <ele>415</ele>
        <time>2026-08-29T17:14:57Z</time>
      </trkpt>
      <trkpt lat="50.606583449989557" lon="13.615481788292527">
        <ele>415</ele>
        <time>2026-08-29T17:14:58Z</time>
      </trkpt>
      <trkpt lat="50.606606919318438" lon="13.615567116066813">
        <ele>414</ele>
        <time>2026-08-29T17:14:59Z</time>
      </trkpt>
      <trkpt lat="50.606623766943812" lon="13.615639870986342">
        <ele>414</ele>
        <time>2026-08-29T17:15:00Z</time>
      </trkpt>
      <trkpt lat="50.606642458587885" lon="13.615685384720564">
        <ele>414</ele>
        <time>2026-08-29T17:15:01Z</time>
      </trkpt>
      <trkpt lat="50.60667741112411" lon="13.615748584270477">
        <ele>414</ele>
        <time>2026-08-29T17:15:02Z</time>
      </trkpt>
      <trkpt lat="50.606712782755494" lon="13.615804575383663">
        <ele>414</ele>
        <time>2026-08-29T17:15:03Z</time>
      </trkpt>
      <trkpt lat="50.606756787747145" lon="13.61587037332356">
        <ele>414</ele>
        <time>2026-08-29T17:15:04Z</time>
      </trkpt>
      <trkpt lat="50.606791572645307" lon="13.615932147949934">
        <ele>414</ele>
        <time>2026-08-29T17:15:05Z</time>
      </trkpt>
      <trkpt lat="50.606828620657325" lon="13.616015380248427">
        <ele>415</ele>
        <time>2026-08-29T17:15:06Z</time>
      </trkpt>
      <trkpt lat="50.606862148270011" lon="13.616073215380311">
        <ele>415</ele>
        <time>2026-08-29T17:15:07Z</time>
      </trkpt>
      <trkpt lat="50.60689827427268" lon="13.616140438243747">
        <ele>416</ele>
        <time>2026-08-29T17:15:08Z</time>
      </trkpt>
      <trkpt lat="50.606932220980525" lon="13.616187712177634">
        <ele>416</ele>
        <time>2026-08-29T17:15:09Z</time>
      </trkpt>
      <trkpt lat="50.606961892917752" lon="13.616264322772622">
        <ele>415</ele>
        <time>2026-08-29T17:15:10Z</time>
      </trkpt>
      <trkpt lat="50.606980500742793" lon="13.616342525929213">
        <ele>416</ele>
        <time>2026-08-29T17:15:11Z</time>
      </trkpt>
      <trkpt lat="50.606990475207567" lon="13.616427266970277">
        <ele>415</ele>
        <time>2026-08-29T17:15:12Z</time>
      </trkpt>
      <trkpt lat="50.607006400823593" lon="13.616493903100491">
        <ele>415</ele>
        <time>2026-08-29T17:15:13Z</time>
      </trkpt>
      <trkpt lat="50.607007825747132" lon="13.616551319137216">
        <ele>415</ele>
        <time>2026-08-29T17:15:14Z</time>
      </trkpt>
      <trkpt lat="50.607018303126097" lon="13.616603706032038">
        <ele>414</ele>
        <time>2026-08-29T17:15:15Z</time>
      </trkpt>
      <trkpt lat="50.607018219307065" lon="13.616646872833371">
        <ele>414</ele>
        <time>2026-08-29T17:15:16Z</time>
      </trkpt>
      <trkpt lat="50.607005981728435" lon="13.61667268909514">
        <ele>414</ele>
        <time>2026-08-29T17:15:17Z</time>
      </trkpt>
      <trkpt lat="50.606977650895715" lon="13.616690458729863">
        <ele>414</ele>
        <time>2026-08-29T17:15:18Z</time>
      </trkpt>
      <trkpt lat="50.60693440027535" lon="13.616700684651732">
        <ele>414</ele>
        <time>2026-08-29T17:15:19Z</time>
      </trkpt>
      <trkpt lat="50.606883186846972" lon="13.616720885038376">
        <ele>413</ele>
        <time>2026-08-29T17:15:20Z</time>
      </trkpt>
      <trkpt lat="50.606830799952149" lon="13.616711162030697">
        <ele>413</ele>
        <time>2026-08-29T17:15:21Z</time>
      </trkpt>
      <trkpt lat="50.606768522411585" lon="13.616708647459745">
        <ele>413</ele>
        <time>2026-08-29T17:15:22Z</time>
      </trkpt>
      <trkpt lat="50.606688894331455" lon="13.616727339103818">
        <ele>415</ele>
        <time>2026-08-29T17:15:23Z</time>
      </trkpt>
      <trkpt lat="50.606629298999906" lon="13.616668749600649">
        <ele>415</ele>
        <time>2026-08-29T17:15:24Z</time>
      </trkpt>
      <trkpt lat="50.606585461646318" lon="13.616577805951238">
        <ele>415</ele>
        <time>2026-08-29T17:15:25Z</time>
      </trkpt>
      <trkpt lat="50.606561740860343" lon="13.616485772654414">
        <ele>415</ele>
        <time>2026-08-29T17:15:26Z</time>
      </trkpt>
      <trkpt lat="50.606557298451662" lon="13.616413185372949">
        <ele>415</ele>
        <time>2026-08-29T17:15:27Z</time>
      </trkpt>
      <trkpt lat="50.606563752517104" lon="13.616361133754253">
        <ele>416</ele>
        <time>2026-08-29T17:15:28Z</time>
      </trkpt>
      <trkpt lat="50.606565177440643" lon="13.616342609748244">
        <ele>417</ele>
        <time>2026-08-29T17:15:29Z</time>
      </trkpt>
      <trkpt lat="50.606581941246986" lon="13.616346716880798">
        <ele>417</ele>
        <time>2026-08-29T17:15:30Z</time>
      </trkpt>
      <trkpt lat="50.60659090988338" lon="13.616344956681132">
        <ele>417</ele>
        <time>2026-08-29T17:15:31Z</time>
      </trkpt>
      <trkpt lat="50.606594849377871" lon="13.616333305835724">
        <ele>417</ele>
        <time>2026-08-29T17:15:32Z</time>
      </trkpt>
      <trkpt lat="50.606599124148488" lon="13.616330707445741">
        <ele>417</ele>
        <time>2026-08-29T17:15:33Z</time>
      </trkpt>
      <trkpt lat="50.606605159118772" lon="13.616329450160265">
        <ele>417</ele>
        <time>2026-08-29T17:15:34Z</time>
      </trkpt>
      <trkpt lat="50.606617899611592" lon="13.616330539807677">
        <ele>417</ele>
        <time>2026-08-29T17:15:35Z</time>
      </trkpt>
      <trkpt lat="50.606629298999906" lon="13.616328276693821">
        <ele>417</ele>
        <time>2026-08-29T17:15:36Z</time>
      </trkpt>
      <trkpt lat="50.606635920703411" lon="13.616335485130548">
        <ele>417</ele>
        <time>2026-08-29T17:15:37Z</time>
      </trkpt>
      <trkpt lat="50.606640949845314" lon="13.616342023015022">
        <ele>417</ele>
        <time>2026-08-29T17:15:38Z</time>
      </trkpt>
      <trkpt lat="50.606645727530122" lon="13.616338083520532">
        <ele>417</ele>
        <time>2026-08-29T17:15:39Z</time>
      </trkpt>
      <trkpt lat="50.606648912653327" lon="13.6163345631212">
        <ele>417</ele>
        <time>2026-08-29T17:15:40Z</time>
      </trkpt>
      <trkpt lat="50.606655450537801" lon="13.616331294178963">
        <ele>417</ele>
        <time>2026-08-29T17:15:41Z</time>
      </trkpt>
      <trkpt lat="50.60666274279356" lon="13.616321654990315">
        <ele>417</ele>
        <time>2026-08-29T17:15:42Z</time>
      </trkpt>
    </trkseg>
  </trk>

</gpx>